
Distance (Route):
Temperature : 8.0°C
Humidity : 89.4%
Pressure : 787.0hPa| Receiver | Frames | First received | Last received |
|---|---|---|---|
| OE5MMP-10 | 595 | 2026-09-05 11:03:37 | 2026-09-05 13:38:51 |
| OE5WHR-10 | 416 | 2026-09-05 11:00:23 | 2026-09-05 13:47:05 |
| BAUMI2-15 | 368 | 2026-09-05 11:18:37 | 2026-09-05 12:46:56 |
| DO3MHA-11 | 355 | 2026-09-05 10:46:16 | 2026-09-05 13:34:50 |
| OE5DRO-10 | 313 | 2026-09-05 10:59:35 | 2026-09-05 13:48:54 |
| OE5DXL-15 | 253 | 2026-09-05 10:52:47 | 2026-09-05 13:42:00 |
| OE5HKT-10 | 217 | 2026-09-05 11:22:58 | 2026-09-05 13:33:24 |
| OE5FHM-15 | 210 | 2026-09-05 11:10:33 | 2026-09-05 13:24:41 |
| DG1MFX-10 | 198 | 2026-09-05 10:47:21 | 2026-09-05 12:47:14 |
| PG1ADW-2 | 173 | 2026-09-05 11:01:09 | 2026-09-05 13:34:19 |
| OE8JPQ-2 | 169 | 2026-09-05 11:35:48 | 2026-09-05 13:19:04 |
| OE5REO-15 | 135 | 2026-09-05 12:38:51 | 2026-09-05 13:43:23 |
| DG1MJG | 108 | 2026-09-05 10:59:23 | 2026-09-05 12:54:29 |
| PETON7-10 | 106 | 2026-09-05 11:37:25 | 2026-09-05 13:08:22 |
| OE3JTB-15 | 83 | 2026-09-05 10:55:21 | 2026-09-05 13:48:31 |
| S52SK | 76 | 2026-09-05 11:22:49 | 2026-09-05 13:31:37 |
| OM5KV | 75 | 2026-09-05 12:08:45 | 2026-09-05 12:28:19 |
| DL6DJ-15 | 59 | 2026-09-05 10:51:03 | 2026-09-05 12:07:11 |
| DB0UT-7 | 54 | 2026-09-05 11:05:09 | 2026-09-05 12:54:35 |
| DO7DH-14 | 19 | 2026-09-05 11:30:45 | 2026-09-05 12:48:21 |
| DF7PN | 13 | 2026-09-05 11:46:00 | 2026-09-05 12:41:24 |
| IN3HCDX | 13 | 2026-09-05 12:19:11 | 2026-09-05 12:24:29 |
| DF3TZ-5 | 2 | 2026-09-05 11:13:03 | 2026-09-05 11:18:14 |
| DH7VM-15 | 2 | 2026-09-05 11:20:38 | 2026-09-05 11:30:08 |
| HARRO8 | 1 | 2026-09-05 11:33:57 | 2026-09-05 11:33:57 |
| Receiver | Date | Latitude | Longitude | Direction | Speed | Altitude | Climb | Temperature | Humidity | Pressure | Voltage | Killtimer | Uptime | BKT | XDATA |
|---|---|---|---|---|---|---|---|---|---|---|---|---|---|---|---|
| OE5DRO-10 | 2026-09-05 13:48:54 | 47.55952 | 14.29123 | 112° | 58km/h | 2242m | -3.7m/s | 8.0°C | 89.4% | 787.0hPa | 2.7V | 00:00:00 | 00:00:00 | 00:00:00 | |
| OE5DRO-10 | 2026-09-05 13:48:47 | 47.55990 | 14.28975 | 116° | 53km/h | 2263m | -4.2m/s | 7.6°C | 92.2% | 785.1hPa | 2.7V | 00:00:00 | 00:00:00 | 00:00:00 | |
| OE5DRO-10 | 2026-09-05 13:48:40 | 47.56032 | 14.28855 | 119° | 47km/h | 2293m | -4.5m/s | 7.6°C | 91.5% | 782.3hPa | 2.7V | 00:00:00 | 00:00:00 | 00:00:00 | |
| OE5DRO-10 | 2026-09-05 13:48:33 | 47.56062 | 14.28738 | 109° | 60km/h | 2320m | -2.9m/s | 7.5°C | 90.5% | 779.7hPa | 2.7V | 00:00:00 | 00:00:00 | 00:00:00 | |
| OE3JTB-15 | 2026-09-05 13:48:31 | 47.56073 | 14.28698 | 112° | 60km/h | 2326m | -2.5m/s | 7.5°C | 90.9% | 779.1hPa | 2.7V | 07:06:00 | 00:00:00 | 00:00:00 | |
| OE5DRO-10 | 2026-09-05 13:48:26 | 47.56104 | 14.28592 | 116° | 57km/h | 2341m | -3.2m/s | 7.3°C | 91.9% | 777.8hPa | 2.7V | 00:00:00 | 00:00:00 | 00:00:00 | |
| OE5DRO-10 | 2026-09-05 13:48:19 | 47.56149 | 14.28461 | 115° | 47km/h | 2368m | -3.6m/s | 7.0°C | 93.9% | 775.8hPa | 2.7V | 07:06:00 | 00:00:00 | 00:00:00 | |
| OE5DRO-10 | 2026-09-05 13:48:12 | 47.56181 | 14.28346 | 107° | 58km/h | 2388m | -2.4m/s | 7.0°C | 93.7% | 774.1hPa | 2.7V | 00:00:00 | 00:00:00 | 00:00:00 | |
| OE5DRO-10 | 2026-09-05 13:48:05 | 47.56217 | 14.28199 | 115° | 60km/h | 2407m | -2.6m/s | 6.8°C | 94.8% | 772.2hPa | 2.7V | 00:00:00 | 00:00:00 | 00:00:00 | |
| OE5DRO-10 | 2026-09-05 13:47:58 | 47.56267 | 14.28064 | 122° | 55km/h | 2428m | -2.9m/s | 6.6°C | 95.7% | 770.3hPa | 2.7V | 00:00:00 | 00:00:00 | 00:00:00 | |
| OE3JTB-15 | 2026-09-05 13:47:57 | 47.56274 | 14.28048 | 122° | 58km/h | 2431m | -2.9m/s | 6.5°C | 96.0% | 770.0hPa | 2.7V | 00:00:00 | 00:00:00 | 00:00:00 | |
| OE5DRO-10 | 2026-09-05 13:47:51 | 47.56309 | 14.27932 | 116° | 64km/h | 2447m | -2.2m/s | 6.4°C | 96.5% | 768.5hPa | 2.7V | 00:00:00 | 00:00:00 | 00:00:00 | |
| OE3JTB-15 | 2026-09-05 13:47:48 | 47.56331 | 14.27868 | 118° | 57km/h | 2454m | -2.5m/s | 6.3°C | 97.1% | 767.7hPa | 2.7V | 00:00:00 | 03:18:20 | 00:00:00 | |
| OE5DRO-10 | 2026-09-05 13:47:44 | 47.56362 | 14.27789 | 121° | 55km/h | 2462m | -1.5m/s | 6.1°C | 98.7% | 766.8hPa | 2.7V | 00:00:00 | 00:00:00 | 00:00:00 | |
| OE3JTB-15 | 2026-09-05 13:47:39 | 47.56389 | 14.27697 | 111° | 58km/h | 2474m | -2.2m/s | 6.0°C | 99.4% | 765.9hPa | 2.7V | 00:00:00 | 00:00:00 | 00:00:00 | |
| OE5DRO-10 | 2026-09-05 13:47:37 | 47.56399 | 14.27658 | 108° | 60km/h | 2478m | -1.9m/s | 6.0°C | 99.4% | 765.4hPa | 2.7V | 00:00:00 | 00:00:00 | 00:00:00 | |
| OE3JTB-15 | 2026-09-05 13:47:30 | 47.56435 | 14.27510 | 109° | 60km/h | 2497m | -2.4m/s | 5.9°C | 99.1% | 763.7hPa | 2.7V | 00:00:00 | 00:00:00 | 00:00:00 | |
| OE5DRO-10 | 2026-09-05 13:47:23 | 47.56469 | 14.27361 | 108° | 66km/h | 2516m | -2.7m/s | 5.9°C | 98.5% | 761.7hPa | 2.7V | 07:07:00 | 00:00:00 | 00:00:00 | |
| OE3JTB-15 | 2026-09-05 13:47:21 | 47.56479 | 14.27314 | 107° | 62km/h | 2523m | -3.9m/s | 5.9°C | 97.6% | 761.2hPa | 2.7V | 00:00:00 | 03:17:53 | 00:00:00 | |
| OE5DRO-10 | 2026-09-05 13:47:16 | 47.56509 | 14.27200 | 115° | 58km/h | 2534m | -1.2m/s | 6.2°C | 94.6% | 760.2hPa | 2.7V | 00:00:00 | 00:00:00 | 00:00:00 | |
| OE3JTB-15 | 2026-09-05 13:47:12 | 47.56533 | 14.27120 | 113° | 60km/h | 2543m | -1.9m/s | 6.2°C | 94.2% | 759.5hPa | 2.7V | 00:00:00 | 00:00:00 | 00:00:00 | |
| OE5DRO-10 | 2026-09-05 13:47:09 | 47.56550 | 14.27058 | 112° | 62km/h | 2550m | -2.1m/s | 6.2°C | 94.2% | 758.9hPa | 2.7V | 00:00:00 | 00:00:00 | 00:00:00 | |
| OE5WHR-10 | 2026-09-05 13:47:05 | 47.56571 | 14.26970 | 105° | 66km/h | 2559m | -1.7m/s | 6.0°C | 95.0% | 758.0hPa | 2.7V | 00:00:00 | 03:17:37 | 00:00:00 | |
| OE3JTB-15 | 2026-09-05 13:47:03 | 47.56579 | 14.26924 | 106° | 71km/h | 2563m | -2.1m/s | 5.8°C | 96.6% | 757.5hPa | 2.7V | 00:00:00 | 00:00:00 | 00:00:00 | |
| OE5DRO-10 | 2026-09-05 13:47:02 | 47.56583 | 14.26899 | 105° | 71km/h | 2566m | -2.4m/s | 5.8°C | 96.7% | 757.3hPa | 2.7V | 00:00:00 | 00:00:00 | 00:00:00 | |
| OE5WHR-10 | 2026-09-05 13:46:59 | 47.56596 | 14.26824 | 105° | 71km/h | 2573m | -2.2m/s | 6.0°C | 95.3% | 756.7hPa | 2.7V | 00:00:00 | 00:00:00 | 00:00:00 | |
| OE5DRO-10 | 2026-09-05 13:46:55 | 47.56617 | 14.26720 | 111° | 68km/h | 2582m | -2.6m/s | 6.4°C | 89.5% | 755.7hPa | 2.7V | 00:00:00 | 00:00:00 | 00:00:00 | |
| OE3JTB-15 | 2026-09-05 13:46:54 | 47.56624 | 14.26695 | 110° | 64km/h | 2584m | -2.6m/s | 6.4°C | 89.8% | 755.5hPa | 2.7V | 07:08:00 | 03:17:26 | 00:00:00 | |
| OE5WHR-10 | 2026-09-05 13:46:53 | 47.56630 | 14.26671 | 113° | 71km/h | 2587m | -1.6m/s | 6.3°C | 90.2% | 755.3hPa | 2.7V | 00:00:00 | 00:00:00 | 00:00:00 | |
| OE5DRO-10 | 2026-09-05 13:46:48 | 47.56655 | 14.26556 | 103° | 64km/h | 2595m | -1.3m/s | 6.2°C | 90.9% | 754.7hPa | 2.7V | 00:00:00 | 00:00:00 | 00:00:00 | |
| OE5WHR-10 | 2026-09-05 13:46:47 | 47.56658 | 14.26534 | 100° | 66km/h | 2597m | -1.4m/s | 6.2°C | 91.4% | 754.5hPa | 2.7V | 00:00:00 | 03:17:19 | 00:00:00 | |
| OE5WHR-10 | 2026-09-05 13:46:41 | 47.56677 | 14.26388 | 103° | 75km/h | 2606m | -1.5m/s | 5.7°C | 95.8% | 753.6hPa | 2.7V | 00:00:00 | 00:00:00 | 00:00:00 | |
| OE3JTB-15 | 2026-09-05 13:46:36 | 47.56706 | 14.26253 | 112° | 69km/h | 2613m | -1.0m/s | 5.7°C | 95.8% | 753.0hPa | 2.7V | 00:00:00 | 00:00:00 | 00:00:00 | |
| OE5DRO-10 | 2026-09-05 13:46:34 | 47.56719 | 14.26206 | 110° | 68km/h | 2615m | -0.4m/s | 5.6°C | 96.6% | 752.8hPa | 2.7V | 00:00:00 | 00:00:00 | 00:00:00 | |
| OE3JTB-15 | 2026-09-05 13:46:27 | 47.56746 | 14.26030 | 104° | 78km/h | 2619m | -0.5m/s | 6.3°C | 88.8% | 752.4hPa | 2.7V | 00:00:00 | 03:16:59 | 00:00:00 | |
| OE5DRO-10 | 2026-09-05 13:46:19 | 47.56797 | 14.25808 | 111° | 73km/h | 2625m | -0.4m/s | 6.4°C | 87.4% | 751.9hPa | 2.7V | 00:00:00 | 00:00:00 | 00:00:00 | |
| OE3JTB-15 | 2026-09-05 13:46:17 | 47.56811 | 14.25754 | 111° | 73km/h | 2626m | -0.4m/s | 6.4°C | 86.9% | 751.8hPa | 2.7V | 00:00:00 | 00:00:00 | 00:00:00 | |
| OE5DRO-10 | 2026-09-05 13:46:10 | 47.56851 | 14.25574 | 109° | 73km/h | 2628m | -0.3m/s | 6.5°C | 86.4% | 751.7hPa | 2.7V | 00:00:00 | 00:00:00 | 00:00:00 | |
| OE3JTB-15 | 2026-09-05 13:46:01 | 47.56903 | 14.25334 | 110° | 73km/h | 2630m | -0.1m/s | 6.5°C | 86.3% | 751.6hPa | 2.7V | 00:00:00 | 00:00:00 | 00:00:00 | |
| OE5DRO-10 | 2026-09-05 13:45:51 | 47.56950 | 14.25082 | 104° | 75km/h | 2630m | -0.1m/s | 6.5°C | 85.7% | 751.4hPa | 2.7V | 00:00:00 | 00:00:00 | 00:00:00 | |
| OE3JTB-15 | 2026-09-05 13:45:32 | 47.57059 | 14.24585 | 109° | 77km/h | 2629m | 0.2m/s | 6.7°C | 84.3% | 751.6hPa | 2.7V | 00:00:00 | 03:16:04 | 00:00:00 | |
| OE5WHR-10 | 2026-09-05 13:45:17 | 47.57135 | 14.24191 | 103° | 78km/h | 2626m | 0.0m/s | 6.7°C | 84.1% | 751.8hPa | 2.7V | 00:00:00 | 00:00:00 | 00:00:00 | |
| OE5DRO-10 | 2026-09-05 13:45:08 | 47.57179 | 14.23930 | 107° | 77km/h | 2626m | -0.1m/s | 6.8°C | 83.3% | 751.8hPa | 2.7V | 00:00:00 | 00:00:00 | 00:00:00 | |
| OE3JTB-15 | 2026-09-05 13:45:03 | 47.57216 | 14.23790 | 114° | 69km/h | 2627m | -0.0m/s | 6.8°C | 83.2% | 751.6hPa | 2.7V | 00:00:00 | 00:00:00 | 00:00:00 | |
| OE5DRO-10 | 2026-09-05 13:44:49 | 47.57298 | 14.23411 | 113° | 71km/h | 2628m | -0.5m/s | 6.9°C | 82.1% | 751.5hPa | 2.7V | 00:00:00 | 00:00:00 | 00:00:00 | |
| OE5DRO-10 | 2026-09-05 13:44:41 | 47.57340 | 14.23209 | 104° | 80km/h | 2632m | -0.7m/s | 6.9°C | 81.9% | 751.1hPa | 2.7V | 00:00:00 | 00:00:00 | 00:00:00 | |
| OE5DRO-10 | 2026-09-05 13:44:34 | 47.57379 | 14.23003 | 112° | 75km/h | 2637m | -0.4m/s | 7.0°C | 81.3% | 750.7hPa | 2.7V | 07:10:00 | 00:00:00 | 00:00:00 | |
| OE5DRO-10 | 2026-09-05 13:44:27 | 47.57429 | 14.22825 | 108° | 77km/h | 2642m | -0.7m/s | 7.2°C | 78.6% | 750.1hPa | 2.7V | 00:00:00 | 00:00:00 | 00:00:00 | |
| OE5DRO-10 | 2026-09-05 13:44:20 | 47.57462 | 14.22629 | 108° | 80km/h | 2649m | -0.9m/s | 7.2°C | 78.1% | 749.5hPa | 2.7V | 00:00:00 | 00:00:00 | 00:00:00 | |
| OE5DRO-10 | 2026-09-05 13:44:13 | 47.57516 | 14.22437 | 114° | 71km/h | 2657m | -1.3m/s | 7.2°C | 78.2% | 748.7hPa | 2.7V | 00:00:00 | 00:00:00 | 00:00:00 | |
| OE5DRO-10 | 2026-09-05 13:44:06 | 47.57552 | 14.22260 | 103° | 77km/h | 2667m | -1.5m/s | 7.1°C | 78.8% | 747.8hPa | 2.7V | 00:00:00 | 00:00:00 | 00:00:00 | |
| OE5DRO-10 | 2026-09-05 13:43:59 | 47.57588 | 14.22067 | 111° | 75km/h | 2678m | -1.5m/s | 7.0°C | 79.4% | 746.9hPa | 2.7V | 00:00:00 | 00:00:00 | 00:00:00 | |
| OE5WHR-10 | 2026-09-05 13:43:56 | 47.57608 | 14.21987 | 110° | 75km/h | 2682m | -1.9m/s | 6.9°C | 79.5% | 746.5hPa | 2.7V | 07:11:00 | 03:14:28 | 00:00:00 | |
| OE5DRO-10 | 2026-09-05 13:43:52 | 47.57632 | 14.21881 | 109° | 75km/h | 2690m | -2.0m/s | 6.8°C | 80.1% | 745.8hPa | 2.7V | 00:00:00 | 00:00:00 | 00:00:00 | |
| OE5WHR-10 | 2026-09-05 13:43:50 | 47.57645 | 14.21827 | 110° | 75km/h | 2694m | -2.0m/s | 6.8°C | 80.0% | 745.4hPa | 2.7V | 00:00:00 | 00:00:00 | 00:00:00 | |
| OE5DRO-10 | 2026-09-05 13:43:45 | 47.57673 | 14.21695 | 109° | 75km/h | 2704m | -2.3m/s | 6.8°C | 80.0% | 744.3hPa | 2.7V | 00:00:00 | 00:00:00 | 00:00:00 | |
| OE5WHR-10 | 2026-09-05 13:43:43 | 47.57685 | 14.21642 | 108° | 73km/h | 2709m | -2.5m/s | 6.7°C | 80.3% | 744.0hPa | 2.7V | 00:00:00 | 00:00:00 | 00:00:00 | |
| OE5DRO-10 | 2026-09-05 13:43:38 | 47.57715 | 14.21511 | 108° | 75km/h | 2721m | -2.5m/s | 6.7°C | 80.5% | 742.9hPa | 2.7V | 07:11:00 | 00:00:00 | 00:00:00 | |
| OE5WHR-10 | 2026-09-05 13:43:37 | 47.57721 | 14.21485 | 108° | 75km/h | 2724m | -2.4m/s | 6.6°C | 80.7% | 742.7hPa | 2.7V | 00:00:00 | 03:14:09 | 00:00:00 | |
| OE5WHR-10 | 2026-09-05 13:43:31 | 47.57755 | 14.21327 | 107° | 73km/h | 2738m | -2.5m/s | 6.5°C | 81.5% | 741.4hPa | 2.7V | 00:00:00 | 00:00:00 | 00:00:00 | |
| OE5WHR-10 | 2026-09-05 13:43:25 | 47.57789 | 14.21169 | 109° | 73km/h | 2753m | -2.3m/s | 6.4°C | 81.8% | 740.0hPa | 2.7V | 00:00:00 | 00:00:00 | 00:00:00 | |
| OE5DRO-10 | 2026-09-05 13:43:24 | 47.57795 | 14.21143 | 110° | 71km/h | 2755m | -2.2m/s | 6.4°C | 81.8% | 739.8hPa | 2.7V | 00:00:00 | 00:00:00 | 00:00:00 | |
| OE5REO-15 | 2026-09-05 13:43:23 | 47.57795 | 14.21143 | 110° | 73km/h | 2755m | -2.2m/s | 6.4°C | 81.8% | 739.9hPa | 2.7V | 07:11:00 | 00:00:00 | 00:00:00 | |
| OE5WHR-10 | 2026-09-05 13:43:19 | 47.57824 | 14.21015 | 110° | 71km/h | 2767m | -2.5m/s | 6.3°C | 82.2% | 738.7hPa | 2.7V | 00:00:00 | 03:13:51 | 00:00:00 | |
| OE5DRO-10 | 2026-09-05 13:43:17 | 47.57835 | 14.20965 | 107° | 71km/h | 2772m | -2.6m/s | 6.2°C | 82.9% | 738.2hPa | 2.7V | 00:00:00 | 00:00:00 | 00:00:00 | |
| OE5WHR-10 | 2026-09-05 13:43:13 | 47.57856 | 14.20863 | 109° | 71km/h | 2783m | -2.6m/s | 6.0°C | 83.5% | 737.2hPa | 2.7V | 00:00:00 | 00:00:00 | 00:00:00 | |
| OE5DRO-10 | 2026-09-05 13:43:10 | 47.57873 | 14.20786 | 108° | 71km/h | 2792m | -2.9m/s | 6.0°C | 83.8% | 736.6hPa | 2.7V | 00:00:00 | 00:00:00 | 00:00:00 | |
| OE5WHR-10 | 2026-09-05 13:43:07 | 47.57890 | 14.20710 | 110° | 71km/h | 2801m | -3.0m/s | 5.9°C | 84.1% | 735.6hPa | 2.7V | 07:12:00 | 00:00:00 | 00:00:00 | |
| OE5DRO-10 | 2026-09-05 13:43:03 | 47.57912 | 14.20608 | 109° | 71km/h | 2813m | -3.0m/s | 5.9°C | 83.9% | 734.6hPa | 2.7V | 00:00:00 | 00:00:00 | 00:00:00 | |
| OE5WHR-10 | 2026-09-05 13:42:56 | 47.57952 | 14.20429 | 109° | 71km/h | 2835m | -3.1m/s | 5.7°C | 84.4% | 732.6hPa | 2.7V | 00:00:00 | 03:13:28 | 00:00:00 | |
| OE5REO-15 | 2026-09-05 13:42:52 | 47.57969 | 14.20354 | 108° | 71km/h | 2844m | -3.1m/s | 5.8°C | 84.1% | 731.8hPa | 2.7V | 00:00:00 | 00:00:00 | 00:00:00 | |
| OE5DRO-10 | 2026-09-05 13:42:47 | 47.58001 | 14.20201 | 108° | 71km/h | 2864m | -3.2m/s | 5.6°C | 84.7% | 730.0hPa | 2.7V | 00:00:00 | 00:00:00 | 00:00:00 | |
| OE5WHR-10 | 2026-09-05 13:42:39 | 47.58043 | 14.19997 | 107° | 71km/h | 2890m | -3.4m/s | 5.3°C | 85.6% | 727.7hPa | 2.7V | 00:00:00 | 00:00:00 | 00:00:00 | |
| OE5REO-15 | 2026-09-05 13:42:36 | 47.58053 | 14.19947 | 107° | 69km/h | 2897m | -3.4m/s | 5.4°C | 85.1% | 727.1hPa | 2.7V | 00:00:00 | 00:00:00 | 00:00:00 | |
| OE5DRO-10 | 2026-09-05 13:42:31 | 47.58083 | 14.19795 | 107° | 71km/h | 2918m | -3.6m/s | 5.1°C | 85.9% | 725.2hPa | 2.7V | 00:00:00 | 00:00:00 | 00:00:00 | |
| OE5WHR-10 | 2026-09-05 13:42:22 | 47.58129 | 14.19566 | 106° | 71km/h | 2952m | -3.8m/s | 4.9°C | 86.6% | 722.3hPa | 2.7V | 00:00:00 | 00:00:00 | 00:00:00 | |
| OE5DRO-10 | 2026-09-05 13:42:15 | 47.58164 | 14.19384 | 108° | 71km/h | 2979m | -3.9m/s | 4.7°C | 87.1% | 719.8hPa | 2.7V | 07:12:00 | 00:00:00 | 00:00:00 | |
| OE5WHR-10 | 2026-09-05 13:42:05 | 47.58212 | 14.19130 | 105° | 69km/h | 3019m | -4.0m/s | 4.5°C | 87.1% | 716.2hPa | 2.7V | 00:00:00 | 03:12:37 | 00:00:00 | |
| OE5DXL-15 | 2026-09-05 13:42:00 | 47.58234 | 14.19003 | 104° | 69km/h | 3039m | -4.1m/s | 4.4°C | 86.6% | 714.5hPa | 2.7V | 00:00:00 | 00:00:00 | 00:00:00 | |
| OE5DRO-10 | 2026-09-05 13:41:59 | 47.58238 | 14.18977 | 105° | 69km/h | 3043m | -3.9m/s | 4.4°C | 86.5% | 714.2hPa | 2.7V | 00:00:00 | 00:00:00 | 00:00:00 | |
| OE5WHR-10 | 2026-09-05 13:41:48 | 47.58288 | 14.18700 | 105° | 69km/h | 3089m | -4.0m/s | 4.3°C | 85.9% | 710.1hPa | 2.7V | 00:00:00 | 00:00:00 | 00:00:00 | |
| OE5DRO-10 | 2026-09-05 13:41:43 | 47.58308 | 14.18573 | 103° | 69km/h | 3111m | -4.4m/s | 4.1°C | 85.5% | 708.3hPa | 2.7V | 00:00:00 | 00:00:00 | 00:00:00 | |
| OE5WHR-10 | 2026-09-05 13:41:31 | 47.58361 | 14.18267 | 104° | 69km/h | 3165m | -4.4m/s | 3.7°C | 87.5% | 703.6hPa | 2.7V | 00:00:00 | 00:00:00 | 00:00:00 | |
| OE5DXL-15 | 2026-09-05 13:41:30 | 47.58365 | 14.18242 | 104° | 69km/h | 3169m | -4.2m/s | 3.6°C | 87.6% | 703.2hPa | 2.7V | 00:00:00 | 00:00:00 | 00:00:00 | |
| OE5DRO-10 | 2026-09-05 13:41:27 | 47.58377 | 14.18165 | 103° | 69km/h | 3183m | -4.5m/s | 3.5°C | 88.0% | 701.9hPa | 2.7V | 00:00:00 | 00:00:00 | 00:00:00 | |
| OE5WHR-10 | 2026-09-05 13:41:14 | 47.58435 | 14.17835 | 105° | 69km/h | 3242m | -4.5m/s | 2.9°C | 90.8% | 696.9hPa | 2.7V | 00:00:00 | 03:11:46 | 00:00:00 | |
| OE5DRO-10 | 2026-09-05 13:41:11 | 47.58448 | 14.17759 | 105° | 69km/h | 3255m | -4.2m/s | 2.9°C | 90.5% | 695.7hPa | 2.7V | 00:00:00 | 00:00:00 | 00:00:00 | |
| OE5WHR-10 | 2026-09-05 13:40:57 | 47.58510 | 14.17403 | 103° | 69km/h | 3316m | -4.3m/s | 2.3°C | 93.3% | 690.5hPa | 2.7V | 07:14:00 | 00:00:00 | 00:00:00 | |
| OE5DRO-10 | 2026-09-05 13:40:55 | 47.58518 | 14.17352 | 106° | 69km/h | 3325m | -4.4m/s | 2.3°C | 92.8% | 689.7hPa | 2.7V | 00:00:00 | 00:00:00 | 00:00:00 | |
| OE5WHR-10 | 2026-09-05 13:40:51 | 47.58536 | 14.17251 | 105° | 69km/h | 3342m | -4.3m/s | 2.1°C | 93.4% | 688.4hPa | 2.7V | 00:00:00 | 00:00:00 | 00:00:00 | |
| OE5DRO-10 | 2026-09-05 13:40:48 | 47.58550 | 14.17175 | 105° | 69km/h | 3355m | -4.1m/s | 2.0°C | 94.0% | 687.3hPa | 2.7V | 00:00:00 | 00:00:00 | 00:00:00 | |
| OE5WHR-10 | 2026-09-05 13:40:45 | 47.58563 | 14.17099 | 105° | 69km/h | 3367m | -4.0m/s | 1.8°C | 95.1% | 686.2hPa | 2.7V | 00:00:00 | 03:11:17 | 00:00:00 | |
| OE5DXL-15 | 2026-09-05 13:40:43 | 47.58572 | 14.17049 | 105° | 69km/h | 3376m | -4.1m/s | 1.7°C | 95.1% | 685.5hPa | 2.7V | 00:00:00 | 00:00:00 | 00:00:00 | |
| OE5DRO-10 | 2026-09-05 13:40:41 | 47.58580 | 14.16998 | 105° | 69km/h | 3384m | -4.1m/s | 1.6°C | 95.5% | 684.8hPa | 2.7V | 00:00:00 | 00:00:00 | 00:00:00 | |
| OE5WHR-10 | 2026-09-05 13:40:39 | 47.58589 | 14.16948 | 106° | 69km/h | 3392m | -4.1m/s | 1.7°C | 95.2% | 684.0hPa | 2.7V | 00:00:00 | 00:00:00 | 00:00:00 | |
| OE3JTB-15 | 2026-09-05 13:40:36 | 47.58602 | 14.16873 | 105° | 69km/h | 3404m | -4.1m/s | 1.5°C | 95.6% | 683.0hPa | 2.7V | 00:00:00 | 03:11:08 | 00:00:00 | |
| OE5DRO-10 | 2026-09-05 13:40:34 | 47.58611 | 14.16821 | 105° | 69km/h | 3413m | -4.0m/s | 1.5°C | 95.7% | 682.3hPa | 2.7V | 07:14:00 | 00:00:00 | 00:00:00 | |
| OE5WHR-10 | 2026-09-05 13:40:33 | 47.58616 | 14.16796 | 104° | 69km/h | 3417m | -3.9m/s | 1.5°C | 96.0% | 682.0hPa | 2.7V | 00:00:00 | 00:00:00 | 00:00:00 | |
| OE5WHR-10 | 2026-09-05 13:40:27 | 47.58641 | 14.16644 | 104° | 68km/h | 3440m | -3.8m/s | 1.2°C | 96.7% | 680.1hPa | 2.7V | 00:00:00 | 03:10:59 | 00:00:00 | |
| OE5DRO-10 | 2026-09-05 13:40:18 | 47.58680 | 14.16423 | 104° | 69km/h | 3475m | -3.9m/s | 1.0°C | 97.8% | 677.1hPa | 2.7V | 00:00:00 | 00:00:00 | 00:00:00 | |
| OE5WHR-10 | 2026-09-05 13:40:17 | 47.58684 | 14.16399 | 103° | 69km/h | 3479m | -3.6m/s | 1.0°C | 97.8% | 676.8hPa | 2.7V | 00:00:00 | 00:00:00 | 00:00:00 | |
| OE5REO-15 | 2026-09-05 13:40:15 | 47.58688 | 14.16373 | 104° | 69km/h | 3482m | -3.7m/s | 1.0°C | 97.6% | 676.5hPa | 2.7V | 07:15:00 | 00:00:00 | 00:00:00 | |
| OE5WHR-10 | 2026-09-05 13:40:08 | 47.58722 | 14.16171 | 105° | 69km/h | 3512m | -3.6m/s | 0.7°C | 99.0% | 674.0hPa | 2.7V | 00:00:00 | 00:00:00 | 00:00:00 | |
| OE3JTB-15 | 2026-09-05 13:40:06 | 47.58730 | 14.16122 | 103° | 69km/h | 3519m | -3.6m/s | 0.7°C | 99.0% | 673.3hPa | 2.7V | 00:00:00 | 03:10:38 | 00:00:00 | |
| OE5DRO-10 | 2026-09-05 13:40:02 | 47.58746 | 14.16021 | 104° | 69km/h | 3533m | -3.2m/s | 0.6°C | 0% | 672.2hPa | 2.7V | 00:00:00 | 00:00:00 | 00:00:00 | |
| OE5REO-15 | 2026-09-05 13:40:00 | 47.58750 | 14.15996 | 103° | 69km/h | 3536m | -3.4m/s | 0.7°C | 0% | 672.0hPa | 2.7V | 07:15:00 | 00:00:00 | 00:00:00 | |
| OE5WHR-10 | 2026-09-05 13:39:51 | 47.58790 | 14.15743 | 102° | 69km/h | 3568m | -3.2m/s | 0.5°C | 0% | 669.3hPa | 2.7V | 07:15:00 | 03:10:23 | 00:00:00 | |
| OE3JTB-15 | 2026-09-05 13:39:47 | 47.58806 | 14.15641 | 105° | 68km/h | 3581m | -2.9m/s | 0.4°C | 0% | 668.2hPa | 2.7V | 00:00:00 | 00:00:00 | 00:00:00 | |
| OE5DRO-10 | 2026-09-05 13:39:46 | 47.58810 | 14.15616 | 104° | 68km/h | 3584m | -2.9m/s | 0.4°C | 0% | 668.0hPa | 2.7V | 00:00:00 | 00:00:00 | 00:00:00 | |
| OE5REO-15 | 2026-09-05 13:39:44 | 47.58814 | 14.15591 | 104° | 69km/h | 3587m | -2.9m/s | 0.4°C | 0% | 667.9hPa | 2.7V | 07:16:00 | 00:00:00 | 00:00:00 | |
| OE5DXL-15 | 2026-09-05 13:39:38 | 47.58843 | 14.15415 | 105° | 68km/h | 3607m | -3.0m/s | 0.3°C | 0% | 666.1hPa | 2.7V | 00:00:00 | 00:00:00 | 00:00:00 | |
| OE5WHR-10 | 2026-09-05 13:39:34 | 47.58861 | 14.15317 | 104° | 68km/h | 3619m | -2.7m/s | 0.2°C | 0% | 665.1hPa | 2.7V | 00:00:00 | 00:00:00 | 00:00:00 | |
| OE5DRO-10 | 2026-09-05 13:39:30 | 47.58879 | 14.15219 | 104° | 68km/h | 3630m | -2.9m/s | 0.1°C | 0% | 664.2hPa | 2.7V | 00:00:00 | 00:00:00 | 00:00:00 | |
| OE3JTB-15 | 2026-09-05 13:39:28 | 47.58886 | 14.15170 | 104° | 68km/h | 3635m | -2.5m/s | 0.1°C | 0% | 663.9hPa | 2.7V | 00:00:00 | 00:00:00 | 00:00:00 | |
| OE5WHR-10 | 2026-09-05 13:39:17 | 47.58932 | 14.14897 | 106° | 66km/h | 3663m | -2.2m/s | -0.0°C | 0% | 661.5hPa | 2.7V | 00:00:00 | 00:00:00 | 00:00:00 | |
| OE5REO-15 | 2026-09-05 13:39:14 | 47.58944 | 14.14826 | 103° | 66km/h | 3671m | -2.6m/s | -0.1°C | 0% | 660.9hPa | 2.7V | 07:16:00 | 00:00:00 | 00:00:00 | |
| OE5WHR-10 | 2026-09-05 13:39:11 | 47.58955 | 14.14752 | 104° | 68km/h | 3678m | -2.4m/s | -0.0°C | 0% | 660.3hPa | 2.7V | 00:00:00 | 03:09:43 | 00:00:00 | |
| OE3JTB-15 | 2026-09-05 13:39:09 | 47.58963 | 14.14703 | 103° | 68km/h | 3683m | -2.4m/s | -0.1°C | 0% | 659.8hPa | 2.7V | 00:00:00 | 03:09:41 | 00:00:00 | |
| OE5DXL-15 | 2026-09-05 13:39:08 | 47.58967 | 14.14678 | 104° | 66km/h | 3685m | -2.6m/s | -0.1°C | 0% | 659.7hPa | 2.7V | 00:00:00 | 00:00:00 | 00:00:00 | |
| OE5DRO-10 | 2026-09-05 13:39:07 | 47.58971 | 14.14653 | 105° | 68km/h | 3688m | -2.6m/s | -0.1°C | 0% | 659.5hPa | 2.7V | 00:00:00 | 00:00:00 | 00:00:00 | |
| OE3JTB-15 | 2026-09-05 13:39:00 | 47.58998 | 14.14483 | 102° | 68km/h | 3706m | -2.4m/s | -0.3°C | 0% | 658.1hPa | 2.7V | 07:16:00 | 00:00:00 | 00:00:00 | |
| OE5WHR-10 | 2026-09-05 13:38:59 | 47.59001 | 14.14458 | 102° | 68km/h | 3708m | -2.3m/s | -0.3°C | 0% | 657.7hPa | 2.7V | 00:00:00 | 00:00:00 | 00:00:00 | |
| OE5REO-15 | 2026-09-05 13:38:58 | 47.59001 | 14.14458 | 102° | 68km/h | 3708m | -2.3m/s | -0.3°C | 98.9% | 657.8hPa | 2.7V | 00:00:00 | 00:00:00 | 00:00:00 | |
| OE5DRO-10 | 2026-09-05 13:38:53 | 47.59022 | 14.14312 | 102° | 66km/h | 3721m | -2.1m/s | -0.3°C | 0% | 656.7hPa | 2.7V | 07:16:00 | 00:00:00 | 00:00:00 | |
| OE5MMP-10 | 2026-09-05 13:38:51 | 47.59029 | 14.14263 | 102° | 66km/h | 3726m | -1.9m/s | -0.4°C | 99.5% | 656.2hPa | 2.7V | 00:00:00 | 03:09:23 | 00:00:00 | |
| OE5DXL-15 | 2026-09-05 13:38:47 | 47.59041 | 14.14165 | 101° | 66km/h | 3733m | -1.9m/s | -0.4°C | 99.1% | 655.8hPa | 2.7V | 00:00:00 | 00:00:00 | 00:00:00 | |
| OE3JTB-15 | 2026-09-05 13:38:44 | 47.59051 | 14.14092 | 101° | 66km/h | 3739m | -1.9m/s | -0.4°C | 99.0% | 655.2hPa | 2.7V | 00:00:00 | 00:00:00 | 00:00:00 | |
| OE5WHR-10 | 2026-09-05 13:38:42 | 47.59057 | 14.14042 | 102° | 66km/h | 3743m | -1.7m/s | -0.5°C | 99.3% | 654.9hPa | 2.7V | 00:00:00 | 03:09:14 | 00:00:00 | |
| OE5MMP-10 | 2026-09-05 13:38:38 | 47.59071 | 14.13946 | 102° | 66km/h | 3749m | -1.6m/s | -0.4°C | 98.8% | 654.4hPa | 2.7V | 00:00:00 | 03:09:10 | 00:00:00 | |
| OE5DRO-10 | 2026-09-05 13:38:37 | 47.59074 | 14.13922 | 103° | 66km/h | 3751m | -1.7m/s | -0.4°C | 99.0% | 654.3hPa | 2.7V | 00:00:00 | 00:00:00 | 00:00:00 | |
| OE5MMP-10 | 2026-09-05 13:38:28 | 47.59104 | 14.13707 | 100° | 64km/h | 3765m | -1.7m/s | -0.5°C | 99.2% | 653.0hPa | 2.7V | 00:00:00 | 03:09:00 | 00:00:00 | |
| OE5REO-15 | 2026-09-05 13:38:26 | 47.59106 | 14.13683 | 102° | 66km/h | 3767m | -1.4m/s | -0.5°C | 98.5% | 653.0hPa | 2.7V | 00:00:00 | 00:00:00 | 00:00:00 | |
| OE5WHR-10 | 2026-09-05 13:38:25 | 47.59113 | 14.13635 | 101° | 62km/h | 3770m | -1.6m/s | -0.4°C | 98.0% | 652.8hPa | 2.7V | 00:00:00 | 00:00:00 | 00:00:00 | |
| OE5DRO-10 | 2026-09-05 13:38:21 | 47.59125 | 14.13540 | 102° | 62km/h | 3776m | -1.6m/s | -0.5°C | 98.4% | 652.3hPa | 2.7V | 00:00:00 | 00:00:00 | 00:00:00 | |
| OE5DXL-15 | 2026-09-05 13:38:17 | 47.59136 | 14.13448 | 102° | 60km/h | 3782m | -1.4m/s | -0.5°C | 0% | 651.7hPa | 2.7V | 00:00:00 | 00:00:00 | 00:00:00 | |
| OE5WHR-10 | 2026-09-05 13:38:08 | 47.59160 | 14.13245 | 100° | 62km/h | 3795m | -1.7m/s | -0.6°C | 98.6% | 650.7hPa | 2.7V | 07:17:00 | 00:00:00 | 00:00:00 | |
| OE3JTB-15 | 2026-09-05 13:38:06 | 47.59166 | 14.13199 | 101° | 60km/h | 3798m | -1.2m/s | -0.6°C | 98.3% | 650.4hPa | 2.7V | 00:00:00 | 00:00:00 | 00:00:00 | |
| OE5DRO-10 | 2026-09-05 13:38:05 | 47.59169 | 14.13177 | 101° | 60km/h | 3800m | -1.6m/s | -0.6°C | 98.4% | 650.3hPa | 2.7V | 00:00:00 | 00:00:00 | 00:00:00 | |
| OE5MMP-10 | 2026-09-05 13:37:58 | 47.59188 | 14.13018 | 100° | 60km/h | 3810m | -1.2m/s | -0.4°C | 94.6% | 649.6hPa | 2.7V | 00:00:00 | 03:08:30 | 00:00:00 | |
| OE5WHR-10 | 2026-09-05 13:37:51 | 47.59209 | 14.12861 | 103° | 58km/h | 3820m | -1.2m/s | -0.1°C | 89.3% | 648.7hPa | 2.7V | 00:00:00 | 03:08:23 | 00:00:00 | |
| OE5DRO-10 | 2026-09-05 13:37:49 | 47.59215 | 14.12817 | 101° | 58km/h | 3822m | -1.1m/s | -0.0°C | 89.0% | 648.5hPa | 2.7V | 00:00:00 | 00:00:00 | 00:00:00 | |
| OE5MMP-10 | 2026-09-05 13:37:48 | 47.59218 | 14.12795 | 101° | 58km/h | 3823m | -1.1m/s | -0.0°C | 88.8% | 648.4hPa | 2.7V | 00:00:00 | 03:08:20 | 00:00:00 | |
| OE5DXL-15 | 2026-09-05 13:37:47 | 47.59221 | 14.12773 | 102° | 58km/h | 3825m | -1.3m/s | -0.1°C | 89.0% | 648.3hPa | 2.7V | 00:00:00 | 00:00:00 | 00:00:00 | |
| OE5MMP-10 | 2026-09-05 13:37:38 | 47.59246 | 14.12581 | 102° | 58km/h | 3837m | -1.3m/s | -0.3°C | 90.5% | 647.4hPa | 2.7V | 00:00:00 | 03:08:10 | 00:00:00 | |
| OE5WHR-10 | 2026-09-05 13:37:34 | 47.59257 | 14.12496 | 100° | 58km/h | 3842m | -1.0m/s | -0.3°C | 90.8% | 646.9hPa | 2.7V | 00:00:00 | 00:00:00 | 00:00:00 | |
| OE5DRO-10 | 2026-09-05 13:37:33 | 47.59260 | 14.12474 | 101° | 58km/h | 3843m | -1.0m/s | -0.3°C | 90.8% | 646.8hPa | 2.7V | 00:00:00 | 00:00:00 | 00:00:00 | |
| OE3JTB-15 | 2026-09-05 13:37:28 | 47.59274 | 14.12367 | 101° | 58km/h | 3848m | -0.9m/s | -0.2°C | 89.4% | 646.4hPa | 2.7V | 00:00:00 | 03:08:00 | 00:00:00 | |
| OE5MMP-10 | 2026-09-05 13:37:23 | 47.59288 | 14.12259 | 100° | 60km/h | 3853m | -0.9m/s | -0.0°C | 87.8% | 646.1hPa | 2.7V | 00:00:00 | 03:07:55 | 00:00:00 | |
| OE5WHR-10 | 2026-09-05 13:37:17 | 47.59304 | 14.12128 | 101° | 58km/h | 3858m | -0.7m/s | 0.0°C | 85.8% | 645.7hPa | 2.7V | 00:00:00 | 00:00:00 | 00:00:00 | |
| OE3JTB-15 | 2026-09-05 13:37:09 | 47.59324 | 14.11955 | 100° | 58km/h | 3865m | -0.6m/s | 0.0°C | 85.4% | 645.2hPa | 2.7V | 00:00:00 | 00:00:00 | 00:00:00 | |
| OE5MMP-10 | 2026-09-05 13:37:06 | 47.59332 | 14.11890 | 101° | 60km/h | 3866m | -0.7m/s | -0.0°C | 85.3% | 645.1hPa | 2.7V | 00:00:00 | 03:07:38 | 00:00:00 | |
| OE5DRO-10 | 2026-09-05 13:37:01 | 47.59345 | 14.11782 | 100° | 60km/h | 3870m | -0.5m/s | -0.0°C | 85.2% | 644.7hPa | 2.7V | 00:00:00 | 00:00:00 | 00:00:00 | |
| OE5WHR-10 | 2026-09-05 13:37:00 | 47.59347 | 14.11760 | 99° | 60km/h | 3870m | -0.5m/s | -0.0°C | 85.4% | 644.6hPa | 2.7V | 00:00:00 | 03:07:32 | 00:00:00 | |
| OE3JTB-15 | 2026-09-05 13:36:50 | 47.59372 | 14.11540 | 99° | 60km/h | 3877m | -0.5m/s | -0.0°C | 85.2% | 644.2hPa | 2.7V | 00:00:00 | 00:00:00 | 00:00:00 | |
| OE5DXL-15 | 2026-09-05 13:36:47 | 47.59379 | 14.11473 | 101° | 60km/h | 3879m | -0.6m/s | -0.0°C | 85.3% | 643.9hPa | 2.7V | 00:00:00 | 00:00:00 | 00:00:00 | |
| OE5DRO-10 | 2026-09-05 13:36:45 | 47.59384 | 14.11429 | 99° | 60km/h | 3880m | -0.6m/s | -0.0°C | 85.7% | 643.9hPa | 2.7V | 07:18:00 | 00:00:00 | 00:00:00 | |
| OE5WHR-10 | 2026-09-05 13:36:43 | 47.59388 | 14.11384 | 100° | 62km/h | 3882m | -0.8m/s | -0.1°C | 86.0% | 643.8hPa | 2.7V | 00:00:00 | 00:00:00 | 00:00:00 | |
| OE3JTB-15 | 2026-09-05 13:36:31 | 47.59418 | 14.11114 | 100° | 62km/h | 3892m | -0.6m/s | -0.1°C | 85.7% | 642.9hPa | 2.7V | 07:18:00 | 03:07:03 | 00:00:00 | |
| OE5MMP-10 | 2026-09-05 13:36:30 | 47.59420 | 14.11091 | 100° | 60km/h | 3893m | -0.7m/s | -0.1°C | 85.5% | 642.9hPa | 2.7V | 00:00:00 | 03:07:02 | 00:00:00 | |
| OE5DRO-10 | 2026-09-05 13:36:29 | 47.59423 | 14.11068 | 101° | 62km/h | 3894m | -0.6m/s | -0.1°C | 84.8% | 642.7hPa | 2.7V | 00:00:00 | 00:00:00 | 00:00:00 | |
| OE5WHR-10 | 2026-09-05 13:36:26 | 47.59431 | 14.10999 | 99° | 62km/h | 3896m | -0.7m/s | -0.1°C | 85.2% | 642.6hPa | 2.7V | 00:00:00 | 00:00:00 | 00:00:00 | |
| OE5DXL-15 | 2026-09-05 13:36:17 | 47.59455 | 14.10795 | 99° | 62km/h | 3902m | -0.6m/s | -0.1°C | 83.2% | 642.1hPa | 2.7V | 07:18:00 | 00:00:00 | 00:00:00 | |
| OE5DRO-10 | 2026-09-05 13:36:13 | 47.59464 | 14.10705 | 99° | 62km/h | 3904m | -0.7m/s | -0.1°C | 82.6% | 642.0hPa | 2.7V | 00:00:00 | 00:00:00 | 00:00:00 | |
| OE5MMP-10 | 2026-09-05 13:36:12 | 47.59467 | 14.10682 | 99° | 64km/h | 3905m | -0.6m/s | -0.0°C | 82.1% | 641.9hPa | 2.7V | 00:00:00 | 03:06:44 | 00:00:00 | |
| OE5WHR-10 | 2026-09-05 13:36:09 | 47.59474 | 14.10614 | 99° | 62km/h | 3907m | -0.7m/s | 0.0°C | 80.4% | 641.6hPa | 2.7V | 00:00:00 | 03:06:41 | 00:00:00 | |
| OE5DRO-10 | 2026-09-05 13:35:57 | 47.59506 | 14.10338 | 99° | 64km/h | 3917m | -0.8m/s | 0.2°C | 77.2% | 640.9hPa | 2.7V | 00:00:00 | 00:00:00 | 00:00:00 | |
| OE3JTB-15 | 2026-09-05 13:35:53 | 47.59516 | 14.10243 | 99° | 64km/h | 3920m | -0.6m/s | 0.2°C | 76.0% | 640.7hPa | 2.7V | 00:00:00 | 00:00:00 | 00:00:00 | |
| OE5WHR-10 | 2026-09-05 13:35:52 | 47.59519 | 14.10220 | 99° | 64km/h | 3921m | -0.7m/s | 0.3°C | 76.0% | 640.7hPa | 2.7V | 07:19:00 | 00:00:00 | 00:00:00 | |
| OE5MMP-10 | 2026-09-05 13:35:51 | 47.59521 | 14.10196 | 100° | 64km/h | 3922m | -0.8m/s | 0.2°C | 76.3% | 640.4hPa | 2.7V | 07:19:00 | 03:06:23 | 00:00:00 | |
| OE5DXL-15 | 2026-09-05 13:35:47 | 47.59531 | 14.10103 | 98° | 62km/h | 3925m | -0.9m/s | 0.3°C | 75.7% | 640.3hPa | 2.7V | 00:00:00 | 00:00:00 | 00:00:00 | |
| OE5DRO-10 | 2026-09-05 13:35:41 | 47.59544 | 14.09962 | 99° | 62km/h | 3931m | -0.9m/s | 0.2°C | 75.9% | 639.8hPa | 2.7V | 00:00:00 | 00:00:00 | 00:00:00 | |
| OE5WHR-10 | 2026-09-05 13:35:35 | 47.59559 | 14.09823 | 100° | 62km/h | 3937m | -0.9m/s | 0.3°C | 74.4% | 639.4hPa | 2.7V | 00:00:00 | 00:00:00 | 00:00:00 | |
| OE3JTB-15 | 2026-09-05 13:35:34 | 47.59561 | 14.09800 | 99° | 62km/h | 3938m | -1.0m/s | 0.3°C | 74.5% | 639.3hPa | 2.7V | 00:00:00 | 03:06:06 | 00:00:00 | |
| OE5MMP-10 | 2026-09-05 13:35:33 | 47.59563 | 14.09777 | 98° | 62km/h | 3939m | -0.8m/s | 0.3°C | 74.1% | 639.2hPa | 2.7V | 00:00:00 | 03:06:05 | 00:00:00 | |
| OE5DRO-10 | 2026-09-05 13:35:25 | 47.59581 | 14.09590 | 98° | 64km/h | 3947m | -1.1m/s | 0.4°C | 72.2% | 638.5hPa | 2.7V | 00:00:00 | 00:00:00 | 00:00:00 | |
| OE5WHR-10 | 2026-09-05 13:35:15 | 47.59603 | 14.09358 | 97° | 64km/h | 3959m | -1.4m/s | 0.4°C | 72.7% | 637.6hPa | 2.7V | 00:00:00 | 03:05:47 | 00:00:00 | |
| OE5MMP-10 | 2026-09-05 13:35:13 | 47.59607 | 14.09310 | 99° | 64km/h | 3962m | -1.4m/s | 0.4°C | 72.6% | 637.4hPa | 2.7V | 00:00:00 | 03:05:45 | 00:00:00 | |
| OE5DRO-10 | 2026-09-05 13:35:09 | 47.59617 | 14.09215 | 100° | 64km/h | 3968m | -1.7m/s | 0.3°C | 73.3% | 636.8hPa | 2.7V | 00:00:00 | 00:00:00 | 00:00:00 | |
| OE5REO-15 | 2026-09-05 13:35:04 | 47.59627 | 14.09121 | 99° | 64km/h | 3974m | -1.6m/s | 0.4°C | 73.1% | 636.4hPa | 2.7V | 00:00:00 | 00:00:00 | 00:00:00 | |
| OE5MMP-10 | 2026-09-05 13:34:58 | 47.59643 | 14.08957 | 100° | 64km/h | 3986m | -1.8m/s | 0.6°C | 70.4% | 635.3hPa | 2.7V | 00:00:00 | 03:05:30 | 00:00:00 | |
| OE3JTB-15 | 2026-09-05 13:34:56 | 47.59648 | 14.08911 | 98° | 64km/h | 3990m | -1.8m/s | 0.5°C | 70.7% | 635.1hPa | 2.7V | 00:00:00 | 00:00:00 | 00:00:00 | |
| OE5DRO-10 | 2026-09-05 13:34:53 | 47.59656 | 14.08840 | 101° | 64km/h | 3996m | -2.0m/s | 0.5°C | 70.2% | 634.7hPa | 2.7V | 00:00:00 | 00:00:00 | 00:00:00 | |
| DO3MHA-11 | 2026-09-05 13:34:50 | 47.59664 | 14.08771 | 100° | 64km/h | 4001m | -1.9m/s | 0.5°C | 70.8% | 634.1hPa | 2.7V | 00:00:00 | 03:05:22 | 00:00:00 | |
| OE5DXL-15 | 2026-09-05 13:34:47 | 47.59672 | 14.08701 | 100° | 62km/h | 4007m | -1.9m/s | 0.4°C | 70.9% | 633.8hPa | 2.7V | 00:00:00 | 00:00:00 | 00:00:00 | |
| DO3MHA-11 | 2026-09-05 13:34:45 | 47.59677 | 14.08654 | 100° | 64km/h | 4011m | -2.1m/s | 0.3°C | 71.1% | 633.5hPa | 2.7V | 00:00:00 | 03:05:17 | 00:00:00 | |
| OE5WHR-10 | 2026-09-05 13:34:41 | 47.59687 | 14.08560 | 97° | 62km/h | 4020m | -2.3m/s | 0.3°C | 71.1% | 632.7hPa | 2.7V | 00:00:00 | 00:00:00 | 00:00:00 | |
| DO3MHA-11 | 2026-09-05 13:34:40 | 47.59689 | 14.08536 | 98° | 64km/h | 4022m | -2.2m/s | 0.3°C | 71.2% | 632.5hPa | 2.7V | 00:00:00 | 03:05:12 | 00:00:00 | |
| OE5MMP-10 | 2026-09-05 13:34:39 | 47.59691 | 14.08512 | 99° | 64km/h | 4024m | -2.1m/s | 0.3°C | 71.0% | 632.3hPa | 2.6V | 00:00:00 | 03:05:11 | 00:00:00 | |
| OE3JTB-15 | 2026-09-05 13:34:37 | 47.59695 | 14.08466 | 96° | 62km/h | 4029m | -2.5m/s | 0.2°C | 70.9% | 632.0hPa | 2.7V | 00:00:00 | 03:05:09 | 00:00:00 | |
| DO3MHA-11 | 2026-09-05 13:34:35 | 47.59698 | 14.08418 | 96° | 64km/h | 4034m | -2.1m/s | 0.2°C | 70.6% | 631.7hPa | 2.7V | 00:00:00 | 03:05:07 | 00:00:00 | |
| DO3MHA-11 | 2026-09-05 13:34:30 | 47.59707 | 14.08301 | 96° | 62km/h | 4045m | -2.2m/s | 0.2°C | 70.3% | 630.9hPa | 2.7V | 00:00:00 | 03:05:02 | 00:00:00 | |
| OE5MMP-10 | 2026-09-05 13:34:29 | 47.59708 | 14.08277 | 97° | 62km/h | 4047m | -2.2m/s | 0.3°C | 69.5% | 630.6hPa | 2.7V | 00:00:00 | 03:05:01 | 00:00:00 | |
| DO3MHA-11 | 2026-09-05 13:34:25 | 47.59714 | 14.08186 | 95° | 62km/h | 4056m | -2.4m/s | 0.1°C | 69.5% | 629.9hPa | 2.7V | 07:20:00 | 03:04:57 | 00:00:00 | |
| OE5WHR-10 | 2026-09-05 13:34:24 | 47.59715 | 14.08162 | 96° | 62km/h | 4058m | -2.2m/s | 0.1°C | 69.7% | 629.6hPa | 2.7V | 00:00:00 | 03:04:56 | 00:00:00 | |
| OE5DRO-10 | 2026-09-05 13:34:21 | 47.59720 | 14.08093 | 95° | 62km/h | 4065m | -2.4m/s | 0.1°C | 69.2% | 629.2hPa | 2.7V | 00:00:00 | 00:00:00 | 00:00:00 | |
| DO3MHA-11 | 2026-09-05 13:34:20 | 47.59721 | 14.08070 | 95° | 62km/h | 4067m | -2.3m/s | 0.1°C | 69.6% | 629.0hPa | 2.7V | 00:00:00 | 03:04:52 | 00:00:00 | |
| PG1ADW-2 | 2026-09-05 13:34:19 | 47.59723 | 14.08047 | 96° | 64km/h | 4069m | -2.0m/s | 0.0°C | 69.7% | 628.8hPa | 2.7V | 00:00:00 | 00:00:00 | 00:00:00 | |
| OE3JTB-15 | 2026-09-05 13:34:18 | 47.59724 | 14.08023 | 97° | 62km/h | 4072m | -2.2m/s | 0.1°C | 69.3% | 628.6hPa | 2.7V | 00:00:00 | 00:00:00 | 00:00:00 | |
| OE5DXL-15 | 2026-09-05 13:34:17 | 47.59726 | 14.08000 | 96° | 64km/h | 4074m | -2.2m/s | 0.2°C | 68.0% | 628.4hPa | 2.6V | 00:00:00 | 00:00:00 | 00:00:00 | |
| DO3MHA-11 | 2026-09-05 13:34:15 | 47.59728 | 14.07953 | 94° | 62km/h | 4079m | -2.2m/s | 0.2°C | 65.5% | 628.1hPa | 2.6V | 00:00:00 | 03:04:47 | 00:00:00 | |
| DO3MHA-11 | 2026-09-05 13:34:10 | 47.59735 | 14.07837 | 94° | 62km/h | 4090m | -2.2m/s | 0.3°C | 62.9% | 627.2hPa | 2.6V | 00:00:00 | 03:04:42 | 00:00:00 | |
| OE5WHR-10 | 2026-09-05 13:34:07 | 47.59739 | 14.07766 | 95° | 64km/h | 4096m | -2.4m/s | 0.2°C | 63.2% | 626.7hPa | 2.7V | 00:00:00 | 00:00:00 | 00:00:00 | |
| OE5MMP-10 | 2026-09-05 13:34:06 | 47.59740 | 14.07743 | 94° | 64km/h | 4099m | -2.3m/s | 0.1°C | 63.5% | 626.6hPa | 2.7V | 00:00:00 | 03:04:38 | 00:00:00 | |
| DO3MHA-11 | 2026-09-05 13:34:05 | 47.59741 | 14.07719 | 94° | 64km/h | 4101m | -2.4m/s | 0.1°C | 63.4% | 626.3hPa | 2.7V | 00:00:00 | 03:04:37 | 00:00:00 | |
| DO3MHA-11 | 2026-09-05 13:34:00 | 47.59747 | 14.07600 | 94° | 64km/h | 4113m | -2.3m/s | 0.1°C | 63.8% | 625.4hPa | 2.7V | 00:00:00 | 03:04:32 | 00:00:00 | |
| OE3JTB-15 | 2026-09-05 13:33:59 | 47.59749 | 14.07576 | 95° | 64km/h | 4116m | -2.4m/s | 0.0°C | 63.7% | 625.2hPa | 2.7V | 07:21:00 | 00:00:00 | 00:00:00 | |
| OE5MMP-10 | 2026-09-05 13:33:56 | 47.59753 | 14.07506 | 95° | 62km/h | 4123m | -2.3m/s | 0°C | 0% | 0hPa | 2.7V | 07:21:00 | 03:04:28 | 00:00:00 | |
| DO3MHA-11 | 2026-09-05 13:33:55 | 47.59753 | 14.07482 | 94° | 62km/h | 4125m | -2.3m/s | -0.0°C | 64.0% | 624.5hPa | 2.7V | 00:00:00 | 03:04:27 | 00:00:00 | |
| DO3MHA-11 | 2026-09-05 13:33:50 | 47.59759 | 14.07365 | 94° | 66km/h | 4137m | -2.5m/s | -0.1°C | 64.3% | 623.5hPa | 2.7V | 00:00:00 | 03:04:22 | 00:00:00 | |
| OE5DRO-10 | 2026-09-05 13:33:49 | 47.59760 | 14.07341 | 96° | 66km/h | 4140m | -2.5m/s | -0.1°C | 64.3% | 623.4hPa | 2.7V | 00:00:00 | 00:00:00 | 00:00:00 | |
| OE5DXL-15 | 2026-09-05 13:33:47 | 47.59764 | 14.07292 | 96° | 66km/h | 4145m | -2.5m/s | -0.1°C | 64.5% | 622.9hPa | 2.7V | 00:00:00 | 00:00:00 | 00:00:00 | |
| OE5MMP-10 | 2026-09-05 13:33:46 | 47.59765 | 14.07268 | 95° | 66km/h | 4147m | -2.5m/s | -0.2°C | 64.5% | 622.7hPa | 2.7V | 00:00:00 | 03:04:18 | 00:00:00 | |
| DO3MHA-11 | 2026-09-05 13:33:45 | 47.59766 | 14.07244 | 96° | 66km/h | 4150m | -2.6m/s | -0.2°C | 64.5% | 622.5hPa | 2.7V | 07:21:00 | 03:04:17 | 00:00:00 | |
| DO3MHA-11 | 2026-09-05 13:33:40 | 47.59774 | 14.07123 | 96° | 66km/h | 4164m | -2.7m/s | -0.1°C | 60.8% | 621.5hPa | 2.7V | 00:00:00 | 03:04:12 | 00:00:00 | |
| PG1ADW-2 | 2026-09-05 13:33:39 | 47.59775 | 14.07098 | 97° | 66km/h | 4166m | -2.7m/s | -0.2°C | 60.8% | 621.3hPa | 2.7V | 00:00:00 | 00:00:00 | 00:00:00 | |
| OE5MMP-10 | 2026-09-05 13:33:36 | 47.59780 | 14.07026 | 96° | 66km/h | 4175m | -2.7m/s | -0.2°C | 60.3% | 620.7hPa | 2.7V | 00:00:00 | 03:04:08 | 00:00:00 | |
| DO3MHA-11 | 2026-09-05 13:33:35 | 47.59782 | 14.07002 | 97° | 66km/h | 4177m | -2.6m/s | -0.3°C | 60.9% | 620.4hPa | 2.6V | 00:00:00 | 03:04:07 | 00:00:00 | |
| OE5WHR-10 | 2026-09-05 13:33:33 | 47.59786 | 14.06953 | 98° | 66km/h | 4183m | -2.8m/s | -0.4°C | 61.6% | 620.0hPa | 2.6V | 07:21:00 | 03:04:05 | 00:00:00 | |
| DO3MHA-11 | 2026-09-05 13:33:30 | 47.59793 | 14.06880 | 98° | 66km/h | 4191m | -2.9m/s | -0.4°C | 60.7% | 619.3hPa | 2.6V | 00:00:00 | 03:04:02 | 00:00:00 | |
| OE5MMP-10 | 2026-09-05 13:33:26 | 47.59803 | 14.06783 | 98° | 66km/h | 4203m | -2.7m/s | -0.4°C | 58.2% | 618.5hPa | 2.6V | 00:00:00 | 03:03:58 | 00:00:00 | |
| DO3MHA-11 | 2026-09-05 13:33:25 | 47.59805 | 14.06759 | 98° | 66km/h | 4205m | -2.5m/s | -0.4°C | 57.7% | 618.2hPa | 2.6V | 00:00:00 | 03:03:57 | 00:00:00 | |
| OE5HKT-10 | 2026-09-05 13:33:24 | 47.59807 | 14.06734 | 99° | 68km/h | 4208m | -2.8m/s | -0.5°C | 58.2% | 618.1hPa | 2.7V | 00:00:00 | 00:00:00 | 00:00:00 | |
| OE3JTB-15 | 2026-09-05 13:33:21 | 47.59815 | 14.06661 | 98° | 66km/h | 4216m | -2.6m/s | -0.4°C | 55.1% | 617.5hPa | 2.7V | 00:00:00 | 00:00:00 | 00:00:00 | |
| DO3MHA-11 | 2026-09-05 13:33:20 | 47.59817 | 14.06637 | 98° | 66km/h | 4219m | -2.6m/s | -0.5°C | 54.9% | 617.2hPa | 2.7V | 00:00:00 | 03:03:52 | 00:00:00 | |
| PG1ADW-2 | 2026-09-05 13:33:19 | 47.59819 | 14.06612 | 98° | 66km/h | 4221m | -2.7m/s | -0.5°C | 55.3% | 616.9hPa | 2.7V | 07:21:00 | 00:00:00 | 00:00:00 | |
| OE5DXL-15 | 2026-09-05 13:33:17 | 47.59823 | 14.06564 | 97° | 68km/h | 4227m | -3.0m/s | -0.5°C | 55.4% | 616.5hPa | 2.7V | 00:00:00 | 00:00:00 | 00:00:00 | |
| DO3MHA-11 | 2026-09-05 13:33:15 | 47.59826 | 14.06514 | 96° | 68km/h | 4233m | -2.9m/s | -0.6°C | 53.5% | 616.0hPa | 2.7V | 00:00:00 | 03:03:47 | 00:00:00 | |
| OE5WHR-10 | 2026-09-05 13:33:14 | 47.59828 | 14.06489 | 97° | 68km/h | 4236m | -3.0m/s | -0.5°C | 53.0% | 615.9hPa | 2.7V | 00:00:00 | 00:00:00 | 00:00:00 | |
| OE5MMP-10 | 2026-09-05 13:33:12 | 47.59832 | 14.06439 | 97° | 66km/h | 4242m | -2.9m/s | -0.6°C | 53.3% | 615.4hPa | 2.7V | 00:00:00 | 03:03:44 | 00:00:00 | |
| DO3MHA-11 | 2026-09-05 13:33:10 | 47.59836 | 14.06390 | 97° | 66km/h | 4248m | -3.1m/s | -0.6°C | 54.0% | 614.9hPa | 2.7V | 00:00:00 | 03:03:42 | 00:00:00 | |
| DO3MHA-11 | 2026-09-05 13:33:05 | 47.59847 | 14.06267 | 98° | 66km/h | 4263m | -3.1m/s | -0.7°C | 51.9% | 613.7hPa | 2.7V | 07:22:00 | 03:03:37 | 00:00:00 | |
| OE5MMP-10 | 2026-09-05 13:33:02 | 47.59854 | 14.06192 | 99° | 68km/h | 4272m | -2.9m/s | -0.8°C | 50.2% | 613.1hPa | 2.7V | 00:00:00 | 03:03:34 | 00:00:00 | |
| OE5DRO-10 | 2026-09-05 13:33:01 | 47.59856 | 14.06168 | 98° | 69km/h | 4275m | -2.8m/s | -0.7°C | 49.9% | 612.8hPa | 2.7V | 00:00:00 | 00:00:00 | 00:00:00 | |
| DO3MHA-11 | 2026-09-05 13:33:00 | 47.59858 | 14.06143 | 98° | 68km/h | 4278m | -2.9m/s | -0.8°C | 49.3% | 612.6hPa | 2.7V | 00:00:00 | 03:03:32 | 00:00:00 | |
| PG1ADW-2 | 2026-09-05 13:32:59 | 47.59861 | 14.06119 | 99° | 69km/h | 4281m | -2.9m/s | -0.8°C | 48.6% | 612.3hPa | 2.7V | 00:00:00 | 00:00:00 | 00:00:00 | |
| DO3MHA-11 | 2026-09-05 13:32:55 | 47.59872 | 14.06019 | 99° | 69km/h | 4293m | -3.0m/s | -0.8°C | 48.0% | 611.4hPa | 2.7V | 00:00:00 | 03:03:27 | 00:00:00 | |
| OE5MMP-10 | 2026-09-05 13:32:52 | 47.59880 | 14.05943 | 98° | 71km/h | 4303m | -3.3m/s | -0.9°C | 46.6% | 610.7hPa | 2.7V | 00:00:00 | 03:03:24 | 00:00:00 | |
| DO3MHA-11 | 2026-09-05 13:32:50 | 47.59884 | 14.05890 | 99° | 71km/h | 4309m | -3.3m/s | -0.9°C | 46.6% | 610.2hPa | 2.7V | 00:00:00 | 03:03:22 | 00:00:00 | |
| OE5DXL-15 | 2026-09-05 13:32:47 | 47.59893 | 14.05812 | 100° | 71km/h | 4320m | -3.3m/s | -1.1°C | 46.2% | 609.4hPa | 2.7V | 00:00:00 | 00:00:00 | 00:00:00 | |
| DO3MHA-11 | 2026-09-05 13:32:45 | 47.59898 | 14.05760 | 99° | 71km/h | 4327m | -3.4m/s | -1.0°C | 46.4% | 608.9hPa | 2.7V | 00:00:00 | 03:03:17 | 00:00:00 | |
| OE3JTB-15 | 2026-09-05 13:32:43 | 47.59904 | 14.05708 | 100° | 69km/h | 4333m | -3.4m/s | -1.1°C | 46.5% | 608.4hPa | 2.7V | 00:00:00 | 03:03:15 | 00:00:00 | |
| OE5MMP-10 | 2026-09-05 13:32:42 | 47.59907 | 14.05682 | 100° | 69km/h | 4337m | -3.3m/s | -1.1°C | 46.6% | 608.1hPa | 2.7V | 00:00:00 | 03:03:14 | 00:00:00 | |
| DO3MHA-11 | 2026-09-05 13:32:40 | 47.59912 | 14.05630 | 100° | 69km/h | 4344m | -3.4m/s | -1.2°C | 46.8% | 607.6hPa | 2.7V | 00:00:00 | 03:03:12 | 00:00:00 | |
| PG1ADW-2 | 2026-09-05 13:32:39 | 47.59916 | 14.05604 | 102° | 69km/h | 4347m | -3.5m/s | -1.2°C | 46.9% | 607.3hPa | 2.7V | 00:00:00 | 03:03:11 | 00:00:00 | |
| OE5WHR-10 | 2026-09-05 13:32:38 | 47.59919 | 14.05578 | 102° | 69km/h | 4351m | -3.4m/s | -1.3°C | 47.0% | 607.0hPa | 2.7V | 00:00:00 | 03:03:10 | 00:00:00 | |
| DO3MHA-11 | 2026-09-05 13:32:35 | 47.59929 | 14.05502 | 101° | 69km/h | 4361m | -3.4m/s | -1.4°C | 47.3% | 606.2hPa | 2.7V | 00:00:00 | 03:03:07 | 00:00:00 | |
| OE5MMP-10 | 2026-09-05 13:32:32 | 47.59939 | 14.05425 | 101° | 71km/h | 4372m | -3.4m/s | -1.5°C | 48.4% | 605.5hPa | 2.7V | 07:22:00 | 03:03:04 | 00:00:00 | |
| DO3MHA-11 | 2026-09-05 13:32:30 | 47.59946 | 14.05373 | 102° | 71km/h | 4379m | -3.6m/s | -1.6°C | 48.6% | 604.9hPa | 2.7V | 00:00:00 | 03:03:02 | 00:00:00 | |
| OE5DRO-10 | 2026-09-05 13:32:29 | 47.59949 | 14.05347 | 103° | 71km/h | 4382m | -3.7m/s | -1.6°C | 48.6% | 604.6hPa | 2.7V | 07:22:00 | 00:00:00 | 00:00:00 | |
| DO3MHA-11 | 2026-09-05 13:32:25 | 47.59964 | 14.05244 | 103° | 71km/h | 4397m | -3.7m/s | -1.7°C | 48.9% | 603.5hPa | 2.7V | 07:22:00 | 03:02:57 | 00:00:00 | |
| OE3JTB-15 | 2026-09-05 13:32:24 | 47.59968 | 14.05218 | 103° | 71km/h | 4401m | -3.8m/s | -1.8°C | 49.3% | 603.2hPa | 2.7V | 00:00:00 | 00:00:00 | 00:00:00 | |
| OE5WHR-10 | 2026-09-05 13:32:21 | 47.59978 | 14.05141 | 101° | 71km/h | 4412m | -3.6m/s | -1.9°C | 49.6% | 602.3hPa | 2.7V | 00:00:00 | 00:00:00 | 00:00:00 | |
| DO3MHA-11 | 2026-09-05 13:32:20 | 47.59982 | 14.05115 | 102° | 73km/h | 4415m | -3.5m/s | -1.9°C | 49.6% | 602.1hPa | 2.6V | 00:00:00 | 03:02:52 | 00:00:00 | |
| PG1ADW-2 | 2026-09-05 13:32:19 | 47.59986 | 14.05088 | 103° | 73km/h | 4419m | -3.5m/s | -1.9°C | 49.7% | 601.8hPa | 2.6V | 00:00:00 | 00:00:00 | 00:00:00 | |
| OE5DXL-15 | 2026-09-05 13:32:17 | 47.59993 | 14.05036 | 102° | 75km/h | 4426m | -3.6m/s | -1.9°C | 49.7% | 601.3hPa | 2.7V | 07:22:00 | 00:00:00 | 00:00:00 | |
| OE5MMP-10 | 2026-09-05 13:32:16 | 47.59997 | 14.05009 | 103° | 71km/h | 4430m | -3.9m/s | -2.1°C | 49.9% | 601.0hPa | 2.6V | 00:00:00 | 03:02:48 | 00:00:00 | |
| DO3MHA-11 | 2026-09-05 13:32:15 | 47.60001 | 14.04982 | 104° | 71km/h | 4434m | -3.8m/s | -2.0°C | 49.9% | 600.7hPa | 2.6V | 00:00:00 | 03:02:47 | 00:00:00 | |
| OE5DRO-10 | 2026-09-05 13:32:13 | 47.60010 | 14.04930 | 105° | 73km/h | 4442m | -4.0m/s | -2.2°C | 50.3% | 600.1hPa | 2.6V | 00:00:00 | 00:00:00 | 00:00:00 | |
| DO3MHA-11 | 2026-09-05 13:32:10 | 47.60023 | 14.04853 | 105° | 73km/h | 4453m | -4.1m/s | -2.2°C | 50.2% | 599.2hPa | 2.6V | 00:00:00 | 03:02:42 | 00:00:00 | |
| OE5MMP-10 | 2026-09-05 13:32:06 | 47.60041 | 14.04748 | 105° | 75km/h | 4470m | -4.1m/s | -2.3°C | 47.4% | 598.0hPa | 2.6V | 00:00:00 | 03:02:38 | 00:00:00 | |
| DO3MHA-11 | 2026-09-05 13:32:05 | 47.60046 | 14.04721 | 106° | 75km/h | 4474m | -3.9m/s | -2.2°C | 46.6% | 597.8hPa | 2.6V | 00:00:00 | 03:02:37 | 00:00:00 | |
| OE5WHR-10 | 2026-09-05 13:32:02 | 47.60061 | 14.04640 | 106° | 77km/h | 4485m | -3.9m/s | -2.3°C | 46.6% | 596.8hPa | 2.6V | 00:00:00 | 00:00:00 | 00:00:00 | |
| DO3MHA-11 | 2026-09-05 13:32:00 | 47.60072 | 14.04584 | 107° | 77km/h | 4494m | -4.4m/s | -2.3°C | 46.6% | 596.1hPa | 2.6V | 00:00:00 | 03:02:32 | 00:00:00 | |
| PG1ADW-2 | 2026-09-05 13:31:59 | 47.60077 | 14.04557 | 107° | 78km/h | 4498m | -4.1m/s | -2.3°C | 45.2% | 595.8hPa | 2.6V | 00:00:00 | 00:00:00 | 00:00:00 | |
| OE5DRO-10 | 2026-09-05 13:31:57 | 47.60088 | 14.04503 | 106° | 78km/h | 4506m | -4.1m/s | -2.5°C | 45.9% | 595.2hPa | 2.6V | 00:00:00 | 00:00:00 | 00:00:00 | |
| OE5MMP-10 | 2026-09-05 13:31:56 | 47.60094 | 14.04475 | 107° | 78km/h | 4510m | -4.3m/s | -2.5°C | 46.1% | 594.9hPa | 2.7V | 00:00:00 | 03:02:28 | 00:00:00 | |
| DO3MHA-11 | 2026-09-05 13:31:55 | 47.60099 | 14.04447 | 108° | 77km/h | 4515m | -4.2m/s | -2.5°C | 45.9% | 594.5hPa | 2.7V | 00:00:00 | 03:02:27 | 00:00:00 | |
| DO3MHA-11 | 2026-09-05 13:31:50 | 47.60129 | 14.04309 | 108° | 78km/h | 4535m | -4.4m/s | -2.7°C | 46.0% | 593.0hPa | 2.7V | 00:00:00 | 03:02:22 | 00:00:00 | |
| OE5DXL-15 | 2026-09-05 13:31:47 | 47.60146 | 14.04226 | 107° | 78km/h | 4548m | -4.2m/s | -2.7°C | 44.3% | 592.1hPa | 2.7V | 00:00:00 | 00:00:00 | 00:00:00 | |
| OE3JTB-15 | 2026-09-05 13:31:46 | 47.60152 | 14.04198 | 107° | 78km/h | 4552m | -4.3m/s | -2.7°C | 44.3% | 591.8hPa | 2.7V | 00:00:00 | 03:02:18 | 00:00:00 | |
| DO3MHA-11 | 2026-09-05 13:31:45 | 47.60158 | 14.04169 | 108° | 78km/h | 4557m | -4.2m/s | -2.8°C | 44.4% | 591.4hPa | 2.7V | 07:23:00 | 03:02:17 | 00:00:00 | |
| OE5DRO-10 | 2026-09-05 13:31:41 | 47.60181 | 14.04058 | 108° | 78km/h | 4574m | -4.2m/s | -2.8°C | 43.0% | 590.3hPa | 2.7V | 00:00:00 | 00:00:00 | 00:00:00 | |
| OE5MMP-10 | 2026-09-05 13:31:40 | 47.60187 | 14.04029 | 109° | 78km/h | 4577m | -4.1m/s | -2.8°C | 42.4% | 589.9hPa | 2.7V | 00:00:00 | 03:02:12 | 00:00:00 | |
| PG1ADW-2 | 2026-09-05 13:31:39 | 47.60194 | 14.04001 | 109° | 78km/h | 4582m | -4.2m/s | -2.9°C | 42.9% | 589.5hPa | 2.7V | 00:00:00 | 00:00:00 | 00:00:00 | |
| S52SK | 2026-09-05 13:31:37 | 47.60200 | 14.03974 | 109° | 78km/h | 4586m | -4.3m/s | -2.9°C | 41.9% | 589.3hPa | 2.7V | 00:00:00 | 00:00:00 | 00:00:00 | |
| DO3MHA-11 | 2026-09-05 13:31:35 | 47.60219 | 14.03889 | 110° | 78km/h | 4599m | -4.1m/s | -2.8°C | 41.1% | 588.4hPa | 2.7V | 00:00:00 | 03:02:07 | 00:00:00 | |
| S52SK | 2026-09-05 13:31:31 | 47.60238 | 14.03806 | 109° | 78km/h | 4610m | -4.0m/s | -2.8°C | 35.8% | 587.6hPa | 2.7V | 00:00:00 | 00:00:00 | 00:00:00 | |
| DO3MHA-11 | 2026-09-05 13:31:30 | 47.60251 | 14.03750 | 110° | 77km/h | 4618m | -3.9m/s | -2.8°C | 34.1% | 586.8hPa | 2.7V | 00:00:00 | 03:02:02 | 00:00:00 | |
| S52SK | 2026-09-05 13:31:28 | 47.60270 | 14.03669 | 111° | 78km/h | 4631m | -4.0m/s | -2.9°C | 29.7% | 586.0hPa | 2.7V | 00:00:00 | 00:00:00 | 00:00:00 | |
| OE5WHR-10 | 2026-09-05 13:31:27 | 47.60270 | 14.03669 | 110° | 78km/h | 4631m | -3.9m/s | -2.9°C | 30.1% | 586.0hPa | 2.7V | 00:00:00 | 00:00:00 | 00:00:00 | |
| DO3MHA-11 | 2026-09-05 13:31:25 | 47.60284 | 14.03614 | 111° | 78km/h | 4638m | -3.9m/s | -2.9°C | 30.8% | 585.3hPa | 2.7V | 00:00:00 | 03:01:57 | 00:00:00 | |
| DO3MHA-11 | 2026-09-05 13:31:20 | 47.60318 | 14.03477 | 110° | 78km/h | 4657m | -3.7m/s | -3.0°C | 29.2% | 584.0hPa | 2.7V | 00:00:00 | 03:01:52 | 00:00:00 | |
| PG1ADW-2 | 2026-09-05 13:31:19 | 47.60325 | 14.03449 | 110° | 78km/h | 4661m | -3.6m/s | -3.0°C | 28.0% | 583.7hPa | 2.7V | 00:00:00 | 03:01:51 | 00:00:00 | |
| OE5DXL-15 | 2026-09-05 13:31:17 | 47.60338 | 14.03393 | 111° | 77km/h | 4668m | -3.7m/s | -3.1°C | 24.3% | 583.1hPa | 2.7V | 00:00:00 | 00:00:00 | 00:00:00 | |
| DO3MHA-11 | 2026-09-05 13:31:15 | 47.60353 | 14.03338 | 112° | 78km/h | 4676m | -3.8m/s | -3.0°C | 21.7% | 582.5hPa | 2.7V | 00:00:00 | 03:01:47 | 00:00:00 | |
| OE5MMP-10 | 2026-09-05 13:31:14 | 47.60360 | 14.03311 | 111° | 78km/h | 4679m | -3.7m/s | -3.1°C | 20.1% | 582.3hPa | 2.7V | 00:00:00 | 03:01:46 | 00:00:00 | |
| DO3MHA-11 | 2026-09-05 13:31:10 | 47.60389 | 14.03199 | 112° | 78km/h | 4694m | -3.5m/s | -3.0°C | 14.0% | 581.2hPa | 2.7V | 00:00:00 | 03:01:42 | 00:00:00 | |
| OE5DRO-10 | 2026-09-05 13:31:09 | 47.60395 | 14.03172 | 110° | 77km/h | 4698m | -3.5m/s | -3.0°C | 12.6% | 580.9hPa | 2.7V | 00:00:00 | 00:00:00 | 00:00:00 | |
| OE3JTB-15 | 2026-09-05 13:31:08 | 47.60402 | 14.03145 | 109° | 77km/h | 4701m | -3.4m/s | -3.1°C | 11.3% | 580.6hPa | 2.6V | 00:00:00 | 00:00:00 | 00:00:00 | |
| DO3MHA-11 | 2026-09-05 13:31:05 | 47.60422 | 14.03061 | 110° | 77km/h | 4712m | -3.4m/s | -3.0°C | 6.4% | 579.9hPa | 2.6V | 07:24:00 | 03:01:37 | 00:00:00 | |
| OE5MMP-10 | 2026-09-05 13:31:04 | 47.60429 | 14.03034 | 109° | 77km/h | 4715m | -3.4m/s | -3.0°C | 3.9% | 579.7hPa | 2.6V | 00:00:00 | 03:01:36 | 00:00:00 | |
| DO3MHA-11 | 2026-09-05 13:31:00 | 47.60454 | 14.02925 | 110° | 77km/h | 4729m | -3.4m/s | -3.1°C | 3.3% | 578.6hPa | 2.7V | 00:00:00 | 03:01:32 | 00:00:00 | |
| PG1ADW-2 | 2026-09-05 13:30:59 | 47.60461 | 14.02898 | 109° | 75km/h | 4732m | -3.4m/s | -3.1°C | 3.2% | 578.4hPa | 2.7V | 00:00:00 | 00:00:00 | 00:00:00 | |
| DO3MHA-11 | 2026-09-05 13:30:55 | 47.60486 | 14.02789 | 109° | 77km/h | 4745m | -3.2m/s | -3.2°C | 4.8% | 577.4hPa | 2.7V | 00:00:00 | 03:01:27 | 00:00:00 | |
| OE5WHR-10 | 2026-09-05 13:30:53 | 47.60498 | 14.02735 | 109° | 75km/h | 4752m | -3.3m/s | -3.2°C | 4.8% | 576.9hPa | 2.7V | 00:00:00 | 03:01:25 | 00:00:00 | |
| DO3MHA-11 | 2026-09-05 13:30:50 | 47.60517 | 14.02655 | 109° | 75km/h | 4762m | -3.2m/s | -3.3°C | 4.7% | 576.2hPa | 2.7V | 00:00:00 | 03:01:22 | 00:00:00 | |
| OE3JTB-15 | 2026-09-05 13:30:49 | 47.60523 | 14.02628 | 108° | 75km/h | 4765m | -3.4m/s | -3.3°C | 4.7% | 575.9hPa | 2.7V | 00:00:00 | 03:01:21 | 00:00:00 | |
| OE5DXL-15 | 2026-09-05 13:30:47 | 47.60534 | 14.02574 | 108° | 73km/h | 4771m | -2.9m/s | -3.4°C | 4.9% | 575.4hPa | 2.7V | 00:00:00 | 03:01:19 | 00:00:00 | |
| DO3MHA-11 | 2026-09-05 13:30:45 | 47.60546 | 14.02520 | 108° | 75km/h | 4778m | -3.0m/s | -3.4°C | 4.9% | 575.0hPa | 2.6V | 00:00:00 | 03:01:17 | 00:00:00 | |
| OE5MMP-10 | 2026-09-05 13:30:41 | 47.60569 | 14.02412 | 109° | 73km/h | 4790m | -3.0m/s | -3.4°C | 4.9% | 574.0hPa | 2.6V | 07:24:00 | 03:01:13 | 00:00:00 | |
| DO3MHA-11 | 2026-09-05 13:30:40 | 47.60575 | 14.02386 | 108° | 73km/h | 4794m | -3.4m/s | -3.4°C | 4.8% | 573.9hPa | 2.6V | 00:00:00 | 03:01:12 | 00:00:00 | |
| PG1ADW-2 | 2026-09-05 13:30:39 | 47.60581 | 14.02360 | 107° | 73km/h | 4797m | -3.3m/s | -3.3°C | 4.8% | 573.5hPa | 2.7V | 07:24:00 | 00:00:00 | 00:00:00 | |
| OE5DRO-10 | 2026-09-05 13:30:37 | 47.60592 | 14.02308 | 108° | 73km/h | 4803m | -3.2m/s | -3.4°C | 4.9% | 573.2hPa | 2.7V | 00:00:00 | 00:00:00 | 00:00:00 | |
| DO3MHA-11 | 2026-09-05 13:30:35 | 47.60603 | 14.02255 | 107° | 73km/h | 4810m | -3.2m/s | -3.4°C | 4.9% | 572.6hPa | 2.7V | 00:00:00 | 03:01:07 | 00:00:00 | |
| OE5WHR-10 | 2026-09-05 13:30:32 | 47.60619 | 14.02176 | 108° | 71km/h | 4819m | -3.0m/s | -3.4°C | 4.9% | 572.0hPa | 2.7V | 00:00:00 | 00:00:00 | 00:00:00 | |
| DO3MHA-11 | 2026-09-05 13:30:30 | 47.60629 | 14.02124 | 106° | 73km/h | 4826m | -3.0m/s | -3.5°C | 4.8% | 571.5hPa | 2.7V | 00:00:00 | 03:01:02 | 00:00:00 | |
| DO3MHA-11 | 2026-09-05 13:30:25 | 47.60653 | 14.01993 | 104° | 73km/h | 4841m | -3.2m/s | -3.6°C | 4.7% | 570.4hPa | 2.7V | 07:24:00 | 03:00:57 | 00:00:00 | |
| S52SK | 2026-09-05 13:30:24 | 47.60653 | 14.01993 | 105° | 71km/h | 4841m | -3.2m/s | -3.6°C | 4.6% | 570.5hPa | 2.7V | 00:00:00 | 00:00:00 | 00:00:00 | |
| OE5MMP-10 | 2026-09-05 13:30:20 | 47.60675 | 14.01862 | 106° | 71km/h | 4857m | -3.2m/s | -3.7°C | 4.8% | 569.3hPa | 2.7V | 00:00:00 | 03:00:52 | 00:00:00 | |
| PG1ADW-2 | 2026-09-05 13:30:19 | 47.60680 | 14.01837 | 105° | 73km/h | 4860m | -3.2m/s | -3.7°C | 4.8% | 569.0hPa | 2.7V | 00:00:00 | 00:00:00 | 00:00:00 | |
| S52SK | 2026-09-05 13:30:18 | 47.60680 | 14.01837 | 105° | 71km/h | 4860m | -3.3m/s | -3.7°C | 4.6% | 569.1hPa | 2.7V | 00:00:00 | 00:00:00 | 00:00:00 | |
| OE5DXL-15 | 2026-09-05 13:30:17 | 47.60689 | 14.01784 | 105° | 73km/h | 4867m | -3.1m/s | -3.7°C | 4.7% | 568.5hPa | 2.7V | 00:00:00 | 00:00:00 | 00:00:00 | |
| DO3MHA-11 | 2026-09-05 13:30:15 | 47.60698 | 14.01733 | 105° | 71km/h | 4873m | -3.2m/s | -3.7°C | 4.8% | 568.1hPa | 2.7V | 00:00:00 | 03:00:47 | 00:00:00 | |
| OE5MMP-10 | 2026-09-05 13:30:10 | 47.60721 | 14.01602 | 106° | 73km/h | 4889m | -3.1m/s | -3.8°C | 4.8% | 566.9hPa | 2.7V | 00:00:00 | 03:00:42 | 00:00:00 | |
| OE3JTB-15 | 2026-09-05 13:30:06 | 47.60740 | 14.01496 | 106° | 71km/h | 4902m | -3.0m/s | -3.9°C | 4.8% | 566.1hPa | 2.7V | 00:00:00 | 00:00:00 | 00:00:00 | |
| DO3MHA-11 | 2026-09-05 13:30:05 | 47.60745 | 14.01470 | 106° | 73km/h | 4905m | -3.3m/s | -4.0°C | 4.8% | 565.9hPa | 2.7V | 00:00:00 | 03:00:37 | 00:00:00 | |
| OE5MMP-10 | 2026-09-05 13:30:00 | 47.60768 | 14.01340 | 106° | 73km/h | 4921m | -3.2m/s | -4.0°C | 4.9% | 564.7hPa | 2.7V | 00:00:00 | 03:00:32 | 00:00:00 | |
| PG1ADW-2 | 2026-09-05 13:29:59 | 47.60773 | 14.01314 | 105° | 71km/h | 4924m | -3.1m/s | -4.0°C | 4.9% | 564.4hPa | 2.7V | 00:00:00 | 03:00:31 | 00:00:00 | |
| OE5WHR-10 | 2026-09-05 13:29:58 | 47.60777 | 14.01288 | 104° | 71km/h | 4927m | -3.3m/s | -4.0°C | 4.9% | 564.2hPa | 2.7V | 00:00:00 | 03:00:30 | 00:00:00 | |
| DO3MHA-11 | 2026-09-05 13:29:55 | 47.60790 | 14.01209 | 105° | 73km/h | 4937m | -3.2m/s | -4.1°C | 5.0% | 563.5hPa | 2.7V | 00:00:00 | 03:00:27 | 00:00:00 | |
| DO3MHA-11 | 2026-09-05 13:29:50 | 47.60811 | 14.01077 | 105° | 73km/h | 4953m | -3.1m/s | -4.1°C | 5.0% | 562.4hPa | 2.7V | 00:00:00 | 03:00:22 | 00:00:00 | |
| OE5MMP-10 | 2026-09-05 13:29:49 | 47.60816 | 14.01050 | 106° | 71km/h | 4956m | -3.0m/s | -4.1°C | 5.0% | 562.1hPa | 2.7V | 00:00:00 | 03:00:21 | 00:00:00 | |
| OE5DXL-15 | 2026-09-05 13:29:47 | 47.60825 | 14.00997 | 105° | 71km/h | 4962m | -2.9m/s | -4.2°C | 5.0% | 561.7hPa | 2.7V | 00:00:00 | 00:00:00 | 00:00:00 | |
| DO3MHA-11 | 2026-09-05 13:29:45 | 47.60835 | 14.00944 | 107° | 71km/h | 4968m | -2.9m/s | -4.1°C | 5.0% | 561.3hPa | 2.7V | 07:25:00 | 03:00:17 | 00:00:00 | |
| DO3MHA-11 | 2026-09-05 13:29:40 | 47.60858 | 14.00817 | 105° | 71km/h | 4984m | -3.2m/s | -4.3°C | 5.0% | 560.1hPa | 2.7V | 00:00:00 | 03:00:12 | 00:00:00 | |
| OE5WHR-10 | 2026-09-05 13:29:39 | 47.60863 | 14.00791 | 105° | 71km/h | 4987m | -3.1m/s | -4.3°C | 5.1% | 560.0hPa | 2.7V | 00:00:00 | 00:00:00 | 00:00:00 | |
| OE3JTB-15 | 2026-09-05 13:29:37 | 47.60871 | 14.00740 | 103° | 71km/h | 4993m | -3.1m/s | -4.4°C | 5.1% | 559.6hPa | 2.6V | 00:00:00 | 03:00:09 | 00:00:00 | |
| DO3MHA-11 | 2026-09-05 13:29:35 | 47.60879 | 14.00688 | 104° | 73km/h | 4999m | -3.0m/s | -4.5°C | 5.1% | 559.0hPa | 2.6V | 00:00:00 | 03:00:07 | 00:00:00 | |
| OE5DRO-10 | 2026-09-05 13:29:33 | 47.60888 | 14.00635 | 105° | 71km/h | 5005m | -2.9m/s | -4.6°C | 5.1% | 558.5hPa | 2.6V | 00:00:00 | 00:00:00 | 00:00:00 | |
| OE5MMP-10 | 2026-09-05 13:29:29 | 47.60906 | 14.00529 | 107° | 71km/h | 5018m | -3.1m/s | -4.6°C | 5.2% | 557.7hPa | 2.7V | 00:00:00 | 03:00:01 | 00:00:00 | |
| DO3MHA-11 | 2026-09-05 13:29:28 | 47.60911 | 14.00504 | 106° | 71km/h | 5021m | -3.0m/s | -4.6°C | 5.1% | 557.5hPa | 2.6V | 00:00:00 | 03:00:00 | 00:00:00 | |
| OE5HKT-10 | 2026-09-05 13:29:27 | 47.60916 | 14.00478 | 104° | 71km/h | 5024m | -3.0m/s | -4.7°C | 5.2% | 557.3hPa | 2.6V | 00:00:00 | 02:59:59 | 00:00:00 | |
| OE5WHR-10 | 2026-09-05 13:29:22 | 47.60936 | 14.00350 | 103° | 71km/h | 5039m | -3.0m/s | -4.8°C | 5.4% | 556.3hPa | 2.6V | 00:00:00 | 00:00:00 | 00:00:00 | |
| OE5MMP-10 | 2026-09-05 13:29:19 | 47.60949 | 14.00272 | 105° | 73km/h | 5048m | -3.0m/s | -4.9°C | 5.5% | 555.6hPa | 2.6V | 07:25:00 | 02:59:51 | 00:00:00 | |
| DO3MHA-11 | 2026-09-05 13:29:18 | 47.60953 | 14.00246 | 105° | 71km/h | 5051m | -3.0m/s | -4.9°C | 5.5% | 555.4hPa | 2.6V | 00:00:00 | 02:59:50 | 00:00:00 | |
| OE5DXL-15 | 2026-09-05 13:29:17 | 47.60958 | 14.00221 | 103° | 71km/h | 5054m | -3.0m/s | -4.9°C | 5.3% | 555.2hPa | 2.7V | 00:00:00 | 00:00:00 | 00:00:00 | |
| S52SK | 2026-09-05 13:29:11 | 47.60978 | 14.00089 | 103° | 71km/h | 5069m | -3.1m/s | -5.2°C | 5.4% | 554.1hPa | 2.6V | 00:00:00 | 00:00:00 | 00:00:00 | |
| OE5MMP-10 | 2026-09-05 13:29:09 | 47.60991 | 14.00010 | 105° | 71km/h | 5079m | -3.1m/s | -5.1°C | 5.5% | 553.5hPa | 2.6V | 00:00:00 | 02:59:41 | 00:00:00 | |
| DO3MHA-11 | 2026-09-05 13:29:08 | 47.60995 | 13.99984 | 105° | 71km/h | 5082m | -3.2m/s | -5.2°C | 5.4% | 553.2hPa | 2.6V | 00:00:00 | 02:59:40 | 00:00:00 | |
| OE5DRO-10 | 2026-09-05 13:29:01 | 47.61024 | 13.99804 | 103° | 71km/h | 5104m | -3.0m/s | -5.3°C | 6.4% | 551.7hPa | 2.6V | 00:00:00 | 00:00:00 | 00:00:00 | |
| OE5WHR-10 | 2026-09-05 13:28:59 | 47.61032 | 13.99751 | 104° | 71km/h | 5110m | -2.9m/s | -5.5°C | 6.5% | 551.2hPa | 2.6V | 00:00:00 | 02:59:31 | 00:00:00 | |
| DO3MHA-11 | 2026-09-05 13:28:58 | 47.61036 | 13.99726 | 104° | 71km/h | 5113m | -3.0m/s | -5.5°C | 6.5% | 551.1hPa | 2.6V | 00:00:00 | 02:59:30 | 00:00:00 | |
| OE5MMP-10 | 2026-09-05 13:28:56 | 47.61044 | 13.99674 | 103° | 71km/h | 5119m | -3.1m/s | -5.5°C | 6.6% | 550.6hPa | 2.6V | 00:00:00 | 02:59:28 | 00:00:00 | |
| DO3MHA-11 | 2026-09-05 13:28:48 | 47.61076 | 13.99468 | 103° | 71km/h | 5144m | -3.1m/s | -5.7°C | 7.1% | 548.8hPa | 2.7V | 00:00:00 | 02:59:20 | 00:00:00 | |
| OE5DXL-15 | 2026-09-05 13:28:47 | 47.61080 | 13.99443 | 102° | 71km/h | 5148m | -3.1m/s | -5.7°C | 7.1% | 548.6hPa | 2.7V | 00:00:00 | 00:00:00 | 00:00:00 | |
| OE5MMP-10 | 2026-09-05 13:28:46 | 47.61084 | 13.99417 | 102° | 71km/h | 5151m | -3.1m/s | -5.8°C | 7.2% | 548.5hPa | 2.7V | 00:00:00 | 02:59:18 | 00:00:00 | |
| OE5DRO-10 | 2026-09-05 13:28:45 | 47.61087 | 13.99391 | 103° | 71km/h | 5154m | -2.9m/s | -5.8°C | 7.2% | 548.2hPa | 2.7V | 00:00:00 | 00:00:00 | 00:00:00 | |
| OE5WHR-10 | 2026-09-05 13:28:42 | 47.61099 | 13.99313 | 101° | 69km/h | 5163m | -3.3m/s | -5.9°C | 7.3% | 547.6hPa | 2.6V | 07:26:00 | 00:00:00 | 00:00:00 | |
| PG1ADW-2 | 2026-09-05 13:28:39 | 47.61110 | 13.99233 | 104° | 69km/h | 5172m | -2.9m/s | -6.0°C | 7.3% | 546.9hPa | 2.7V | 00:00:00 | 02:59:11 | 00:00:00 | |
| DO3MHA-11 | 2026-09-05 13:28:38 | 47.61114 | 13.99207 | 104° | 69km/h | 5176m | -2.7m/s | -6.1°C | 7.5% | 546.6hPa | 2.7V | 07:26:00 | 02:59:10 | 00:00:00 | |
| OE5MMP-10 | 2026-09-05 13:28:36 | 47.61122 | 13.99156 | 102° | 69km/h | 5181m | -2.8m/s | -6.1°C | 7.6% | 546.3hPa | 2.7V | 00:00:00 | 02:59:08 | 00:00:00 | |
| OE5DRO-10 | 2026-09-05 13:28:29 | 47.61146 | 13.98975 | 102° | 69km/h | 5202m | -3.0m/s | -6.3°C | 7.7% | 544.8hPa | 2.7V | 00:00:00 | 00:00:00 | 00:00:00 | |
| DO3MHA-11 | 2026-09-05 13:28:28 | 47.61149 | 13.98950 | 101° | 69km/h | 5205m | -2.9m/s | -6.2°C | 7.8% | 544.7hPa | 2.7V | 00:00:00 | 02:59:00 | 00:00:00 | |
| OE5MMP-10 | 2026-09-05 13:28:26 | 47.61156 | 13.98899 | 101° | 69km/h | 5211m | -3.0m/s | -6.3°C | 7.8% | 544.2hPa | 2.7V | 00:00:00 | 02:58:58 | 00:00:00 | |
| OE5WHR-10 | 2026-09-05 13:28:25 | 47.61159 | 13.98872 | 102° | 71km/h | 5214m | -3.0m/s | -6.3°C | 7.9% | 544.0hPa | 2.7V | 00:00:00 | 00:00:00 | 00:00:00 | |
| PG1ADW-2 | 2026-09-05 13:28:19 | 47.61181 | 13.98718 | 102° | 71km/h | 5231m | -2.9m/s | -6.5°C | 8.4% | 542.9hPa | 2.7V | 00:00:00 | 00:00:00 | 00:00:00 | |
| DO3MHA-11 | 2026-09-05 13:28:18 | 47.61184 | 13.98692 | 102° | 71km/h | 5234m | -2.9m/s | -6.5°C | 8.4% | 542.6hPa | 2.7V | 00:00:00 | 02:58:50 | 00:00:00 | |
| OE5DXL-15 | 2026-09-05 13:28:17 | 47.61188 | 13.98667 | 101° | 71km/h | 5237m | -2.8m/s | -6.5°C | 8.4% | 542.4hPa | 2.7V | 07:26:00 | 00:00:00 | 00:00:00 | |
| OE5MMP-10 | 2026-09-05 13:28:16 | 47.61190 | 13.98641 | 100° | 71km/h | 5240m | -2.9m/s | -6.6°C | 8.4% | 542.1hPa | 2.7V | 00:00:00 | 02:58:48 | 00:00:00 | |
| OE5DRO-10 | 2026-09-05 13:28:13 | 47.61201 | 13.98562 | 102° | 71km/h | 5248m | -2.8m/s | -6.6°C | 8.3% | 541.6hPa | 2.7V | 07:26:00 | 00:00:00 | 00:00:00 | |
| OE3JTB-15 | 2026-09-05 13:28:10 | 47.61210 | 13.98483 | 101° | 71km/h | 5257m | -2.8m/s | -6.7°C | 8.4% | 541.0hPa | 2.7V | 07:26:00 | 02:58:42 | 00:00:00 | |
| S52SK | 2026-09-05 13:28:09 | 47.61210 | 13.98483 | 102° | 73km/h | 5257m | -2.8m/s | -6.7°C | 8.1% | 541.1hPa | 2.7V | 00:00:00 | 00:00:00 | 00:00:00 | |
| OE5WHR-10 | 2026-09-05 13:28:08 | 47.61218 | 13.98430 | 102° | 71km/h | 5262m | -2.6m/s | -6.8°C | 8.5% | 540.6hPa | 2.7V | 00:00:00 | 02:58:40 | 00:00:00 | |
| OE5MMP-10 | 2026-09-05 13:28:06 | 47.61224 | 13.98379 | 101° | 69km/h | 5268m | -2.6m/s | -6.8°C | 8.5% | 540.3hPa | 2.7V | 00:00:00 | 02:58:38 | 00:00:00 | |
| S52SK | 2026-09-05 13:28:04 | 47.61231 | 13.98327 | 103° | 69km/h | 5273m | -2.8m/s | -7.0°C | 8.2% | 539.9hPa | 2.7V | 00:00:00 | 00:00:00 | 00:00:00 | |
| PG1ADW-2 | 2026-09-05 13:27:59 | 47.61248 | 13.98197 | 103° | 69km/h | 5286m | -2.6m/s | -6.9°C | 8.3% | 539.0hPa | 2.7V | 07:27:00 | 00:00:00 | 00:00:00 | |
| DO3MHA-11 | 2026-09-05 13:27:58 | 47.61252 | 13.98172 | 102° | 71km/h | 5289m | -2.7m/s | -7.0°C | 8.3% | 538.8hPa | 2.7V | 00:00:00 | 02:58:30 | 00:00:00 | |
| OE5DRO-10 | 2026-09-05 13:27:57 | 47.61255 | 13.98146 | 101° | 69km/h | 5292m | -2.7m/s | -7.0°C | 8.2% | 538.6hPa | 2.7V | 00:00:00 | 00:00:00 | 00:00:00 | |
| OE5MMP-10 | 2026-09-05 13:27:56 | 47.61258 | 13.98120 | 100° | 71km/h | 5295m | -2.7m/s | -7.0°C | 8.2% | 538.4hPa | 2.7V | 07:27:00 | 02:58:28 | 00:00:00 | |
| OE5WHR-10 | 2026-09-05 13:27:51 | 47.61275 | 13.97990 | 100° | 69km/h | 5308m | -2.7m/s | -7.1°C | 8.2% | 537.5hPa | 2.6V | 00:00:00 | 00:00:00 | 00:00:00 | |
| DO3MHA-11 | 2026-09-05 13:27:48 | 47.61285 | 13.97912 | 102° | 69km/h | 5316m | -2.4m/s | -7.2°C | 8.3% | 536.9hPa | 2.7V | 00:00:00 | 02:58:20 | 00:00:00 | |
| OE5DXL-15 | 2026-09-05 13:27:47 | 47.61289 | 13.97886 | 101° | 69km/h | 5318m | -2.4m/s | -7.2°C | 8.2% | 536.8hPa | 2.7V | 00:00:00 | 00:00:00 | 00:00:00 | |
| OE5MMP-10 | 2026-09-05 13:27:46 | 47.61292 | 13.97861 | 101° | 69km/h | 5321m | -2.4m/s | -7.2°C | 8.3% | 536.5hPa | 2.6V | 00:00:00 | 02:58:18 | 00:00:00 | |
| OE5DRO-10 | 2026-09-05 13:27:41 | 47.61308 | 13.97735 | 100° | 69km/h | 5333m | -2.6m/s | -7.4°C | 8.4% | 535.7hPa | 2.6V | 00:00:00 | 00:00:00 | 00:00:00 | |
| PG1ADW-2 | 2026-09-05 13:27:39 | 47.61314 | 13.97683 | 101° | 69km/h | 5339m | -2.4m/s | -7.4°C | 8.4% | 535.4hPa | 2.6V | 00:00:00 | 00:00:00 | 00:00:00 | |
| DO3MHA-11 | 2026-09-05 13:27:38 | 47.61317 | 13.97657 | 101° | 69km/h | 5341m | -2.3m/s | -7.4°C | 8.3% | 535.2hPa | 2.6V | 00:00:00 | 02:58:10 | 00:00:00 | |
| OE5WHR-10 | 2026-09-05 13:27:34 | 47.61329 | 13.97553 | 102° | 69km/h | 5351m | -2.3m/s | -7.5°C | 8.4% | 534.6hPa | 2.6V | 00:00:00 | 00:00:00 | 00:00:00 | |
| DO3MHA-11 | 2026-09-05 13:27:28 | 47.61349 | 13.97401 | 101° | 69km/h | 5365m | -2.3m/s | -7.6°C | 8.3% | 533.6hPa | 2.6V | 00:00:00 | 02:58:00 | 00:00:00 | |
| OE5DRO-10 | 2026-09-05 13:27:25 | 47.61357 | 13.97325 | 100° | 69km/h | 5372m | -2.2m/s | -7.7°C | 8.3% | 533.1hPa | 2.6V | 00:00:00 | 00:00:00 | 00:00:00 | |
| OE5MMP-10 | 2026-09-05 13:27:24 | 47.61360 | 13.97299 | 101° | 69km/h | 5374m | -2.3m/s | -7.7°C | 8.3% | 532.9hPa | 2.6V | 00:00:00 | 02:57:56 | 00:00:00 | |
| PG1ADW-2 | 2026-09-05 13:27:19 | 47.61374 | 13.97172 | 101° | 69km/h | 5386m | -2.3m/s | -7.9°C | 8.2% | 532.1hPa | 2.7V | 00:00:00 | 02:57:51 | 00:00:00 | |
| DO3MHA-11 | 2026-09-05 13:27:18 | 47.61377 | 13.97147 | 101° | 69km/h | 5389m | -2.5m/s | -7.9°C | 8.1% | 532.0hPa | 2.7V | 07:27:00 | 02:57:50 | 00:00:00 | |
| OE5DXL-15 | 2026-09-05 13:27:17 | 47.61380 | 13.97122 | 99° | 69km/h | 5391m | -2.3m/s | -7.8°C | 8.0% | 531.8hPa | 2.6V | 00:00:00 | 00:00:00 | 00:00:00 | |
| OE5MMP-10 | 2026-09-05 13:27:14 | 47.61389 | 13.97045 | 101° | 69km/h | 5398m | -2.2m/s | -7.9°C | 7.9% | 531.3hPa | 2.6V | 00:00:00 | 02:57:46 | 00:00:00 | |
| OE3JTB-15 | 2026-09-05 13:27:12 | 47.61396 | 13.96995 | 101° | 69km/h | 5403m | -2.3m/s | -7.9°C | 7.9% | 531.0hPa | 2.6V | 00:00:00 | 00:00:00 | 00:00:00 | |
| OE5DRO-10 | 2026-09-05 13:27:09 | 47.61406 | 13.96917 | 102° | 69km/h | 5409m | -2.3m/s | -8.1°C | 7.9% | 530.5hPa | 2.6V | 00:00:00 | 00:00:00 | 00:00:00 | |
| DO3MHA-11 | 2026-09-05 13:27:08 | 47.61409 | 13.96892 | 102° | 69km/h | 5412m | -2.3m/s | -8.1°C | 8.0% | 530.3hPa | 2.7V | 00:00:00 | 02:57:40 | 00:00:00 | |
| OE5MMP-10 | 2026-09-05 13:27:04 | 47.61422 | 13.96790 | 102° | 69km/h | 5421m | -2.3m/s | -8.1°C | 7.9% | 529.7hPa | 2.7V | 00:00:00 | 02:57:36 | 00:00:00 | |
| S52SK | 2026-09-05 13:27:02 | 47.61426 | 13.96764 | 102° | 69km/h | 5424m | -2.3m/s | -8.2°C | 7.6% | 529.6hPa | 2.7V | 00:00:00 | 00:00:00 | 00:00:00 | |
| OE5WHR-10 | 2026-09-05 13:27:00 | 47.61435 | 13.96687 | 101° | 69km/h | 5430m | -2.3m/s | -8.2°C | 7.9% | 529.1hPa | 2.7V | 00:00:00 | 00:00:00 | 00:00:00 | |
| PG1ADW-2 | 2026-09-05 13:26:59 | 47.61438 | 13.96662 | 102° | 69km/h | 5432m | -2.4m/s | -8.3°C | 7.9% | 528.9hPa | 2.7V | 00:00:00 | 00:00:00 | 00:00:00 | |
| DO3MHA-11 | 2026-09-05 13:26:58 | 47.61442 | 13.96636 | 103° | 69km/h | 5435m | -2.2m/s | -8.3°C | 7.8% | 528.7hPa | 2.7V | 00:00:00 | 02:57:30 | 00:00:00 | |
| S52SK | 2026-09-05 13:26:56 | 47.61446 | 13.96611 | 102° | 68km/h | 5437m | -2.2m/s | -8.4°C | 7.5% | 528.6hPa | 2.7V | 00:00:00 | 00:00:00 | 00:00:00 | |
| OE5MMP-10 | 2026-09-05 13:26:54 | 47.61456 | 13.96535 | 102° | 71km/h | 5444m | -2.2m/s | -8.3°C | 7.8% | 528.1hPa | 2.7V | 00:00:00 | 02:57:26 | 00:00:00 | |
| OE5DRO-10 | 2026-09-05 13:26:53 | 47.61459 | 13.96510 | 102° | 71km/h | 5446m | -2.2m/s | -8.4°C | 7.7% | 528.0hPa | 2.6V | 00:00:00 | 00:00:00 | 00:00:00 | |
| DO3MHA-11 | 2026-09-05 13:26:48 | 47.61476 | 13.96380 | 103° | 71km/h | 5457m | -2.1m/s | -8.5°C | 7.7% | 527.3hPa | 2.6V | 00:00:00 | 02:57:20 | 00:00:00 | |
| OE5MMP-10 | 2026-09-05 13:26:44 | 47.61491 | 13.96276 | 104° | 71km/h | 5467m | -2.3m/s | -8.5°C | 7.6% | 526.6hPa | 2.7V | 00:00:00 | 02:57:16 | 00:00:00 | |
| OE5WHR-10 | 2026-09-05 13:26:43 | 47.61495 | 13.96251 | 104° | 69km/h | 5469m | -2.2m/s | -8.6°C | 7.7% | 526.4hPa | 2.7V | 00:00:00 | 00:00:00 | 00:00:00 | |
| PG1ADW-2 | 2026-09-05 13:26:39 | 47.61509 | 13.96148 | 102° | 69km/h | 5478m | -2.2m/s | -8.6°C | 7.7% | 525.8hPa | 2.7V | 00:00:00 | 00:00:00 | 00:00:00 | |
| DO3MHA-11 | 2026-09-05 13:26:38 | 47.61513 | 13.96122 | 102° | 71km/h | 5480m | -2.2m/s | -8.7°C | 7.8% | 525.6hPa | 2.7V | 00:00:00 | 02:57:10 | 00:00:00 | |
| OE5DRO-10 | 2026-09-05 13:26:37 | 47.61516 | 13.96097 | 102° | 69km/h | 5482m | -2.1m/s | -8.7°C | 7.8% | 525.5hPa | 2.7V | 00:00:00 | 00:00:00 | 00:00:00 | |
| OE5MMP-10 | 2026-09-05 13:26:33 | 47.61531 | 13.95992 | 104° | 69km/h | 5492m | -2.2m/s | -8.8°C | 7.8% | 524.9hPa | 2.7V | 07:28:00 | 02:57:05 | 00:00:00 | |
| OE5REO-15 | 2026-09-05 13:26:29 | 47.61542 | 13.95916 | 102° | 69km/h | 5498m | -2.3m/s | -9.0°C | 7.6% | 524.5hPa | 2.7V | 07:28:00 | 00:00:00 | 00:00:00 | |
| DO3MHA-11 | 2026-09-05 13:26:28 | 47.61550 | 13.95865 | 103° | 69km/h | 5503m | -2.3m/s | -9.0°C | 7.9% | 524.1hPa | 2.7V | 00:00:00 | 02:57:00 | 00:00:00 | |
| OE5WHR-10 | 2026-09-05 13:26:26 | 47.61556 | 13.95815 | 101° | 69km/h | 5507m | -2.2m/s | -8.9°C | 7.9% | 523.8hPa | 2.7V | 07:28:00 | 02:56:58 | 00:00:00 | |
| OE5MMP-10 | 2026-09-05 13:26:23 | 47.61567 | 13.95737 | 102° | 69km/h | 5514m | -2.2m/s | -9.1°C | 8.0% | 523.3hPa | 2.7V | 00:00:00 | 02:56:55 | 00:00:00 | |
| OE5DRO-10 | 2026-09-05 13:26:21 | 47.61574 | 13.95686 | 101° | 69km/h | 5519m | -2.2m/s | -9.1°C | 8.0% | 523.1hPa | 2.6V | 00:00:00 | 00:00:00 | 00:00:00 | |
| PG1ADW-2 | 2026-09-05 13:26:19 | 47.61580 | 13.95634 | 101° | 69km/h | 5523m | -2.1m/s | -9.1°C | 8.0% | 522.8hPa | 2.7V | 00:00:00 | 00:00:00 | 00:00:00 | |
| OE5DXL-15 | 2026-09-05 13:26:17 | 47.61588 | 13.95582 | 104° | 69km/h | 5528m | -2.2m/s | -9.2°C | 8.1% | 522.4hPa | 2.7V | 00:00:00 | 00:00:00 | 00:00:00 | |
| OE3JTB-15 | 2026-09-05 13:26:14 | 47.61598 | 13.95506 | 101° | 69km/h | 5535m | -2.0m/s | -9.1°C | 8.1% | 522.0hPa | 2.6V | 00:00:00 | 00:00:00 | 00:00:00 | |
| OE5MMP-10 | 2026-09-05 13:26:13 | 47.61602 | 13.95481 | 102° | 69km/h | 5537m | -2.0m/s | -9.2°C | 8.1% | 521.8hPa | 2.6V | 00:00:00 | 02:56:45 | 00:00:00 | |
| OE5WHR-10 | 2026-09-05 13:26:09 | 47.61614 | 13.95381 | 99° | 69km/h | 5545m | -2.0m/s | -9.3°C | 8.1% | 521.2hPa | 2.6V | 00:00:00 | 00:00:00 | 00:00:00 | |
| OE5DRO-10 | 2026-09-05 13:26:05 | 47.61626 | 13.95278 | 99° | 69km/h | 5553m | -2.1m/s | -9.4°C | 8.1% | 520.7hPa | 2.7V | 07:29:00 | 00:00:00 | 00:00:00 | |
| DO3MHA-11 | 2026-09-05 13:26:04 | 47.61629 | 13.95252 | 100° | 69km/h | 5555m | -2.1m/s | -9.4°C | 8.1% | 520.6hPa | 2.7V | 00:00:00 | 02:56:36 | 00:00:00 | |
| OE5MMP-10 | 2026-09-05 13:26:03 | 47.61632 | 13.95225 | 102° | 69km/h | 5557m | -2.2m/s | -9.4°C | 8.1% | 520.4hPa | 2.7V | 00:00:00 | 02:56:35 | 00:00:00 | |
| PG1ADW-2 | 2026-09-05 13:25:59 | 47.61645 | 13.95124 | 101° | 69km/h | 5566m | -2.1m/s | -9.5°C | 8.2% | 519.9hPa | 2.7V | 00:00:00 | 02:56:31 | 00:00:00 | |
| OE5REO-15 | 2026-09-05 13:25:58 | 47.61645 | 13.95124 | 101° | 69km/h | 5566m | -2.2m/s | -9.6°C | 7.9% | 519.9hPa | 2.7V | 07:29:00 | 00:00:00 | 00:00:00 | |
| OE5MMP-10 | 2026-09-05 13:25:53 | 47.61663 | 13.94973 | 99° | 71km/h | 5579m | -2.2m/s | -9.5°C | 8.1% | 518.9hPa | 2.7V | 00:00:00 | 02:56:25 | 00:00:00 | |
| OE5WHR-10 | 2026-09-05 13:25:52 | 47.61666 | 13.94948 | 100° | 69km/h | 5581m | -2.2m/s | -9.6°C | 8.1% | 518.8hPa | 2.7V | 00:00:00 | 00:00:00 | 00:00:00 | |
| DO3MHA-11 | 2026-09-05 13:25:51 | 47.61668 | 13.94922 | 100° | 71km/h | 5584m | -2.2m/s | -9.6°C | 8.1% | 518.6hPa | 2.7V | 00:00:00 | 02:56:23 | 00:00:00 | |
| OE5DRO-10 | 2026-09-05 13:25:49 | 47.61674 | 13.94870 | 99° | 69km/h | 5588m | -2.1m/s | -9.6°C | 8.1% | 518.4hPa | 2.7V | 00:00:00 | 00:00:00 | 00:00:00 | |
| OE5DXL-15 | 2026-09-05 13:25:47 | 47.61680 | 13.94818 | 101° | 69km/h | 5592m | -2.1m/s | -9.7°C | 8.1% | 518.0hPa | 2.7V | 00:00:00 | 00:00:00 | 00:00:00 | |
| S52SK | 2026-09-05 13:25:46 | 47.61680 | 13.94818 | 102° | 71km/h | 5592m | -2.2m/s | -9.8°C | 7.8% | 518.1hPa | 2.7V | 00:00:00 | 00:00:00 | 00:00:00 | |
| OE3JTB-15 | 2026-09-05 13:25:45 | 47.61686 | 13.94766 | 100° | 69km/h | 5596m | -2.1m/s | -9.7°C | 8.2% | 517.7hPa | 2.7V | 00:00:00 | 00:00:00 | 00:00:00 | |
| OE5MMP-10 | 2026-09-05 13:25:43 | 47.61693 | 13.94714 | 101° | 69km/h | 5601m | -2.1m/s | -9.8°C | 8.3% | 517.5hPa | 2.7V | 00:00:00 | 02:56:15 | 00:00:00 | |
| OE5REO-15 | 2026-09-05 13:25:42 | 47.61693 | 13.94714 | 102° | 69km/h | 5601m | -2.1m/s | -9.8°C | 8.0% | 517.6hPa | 2.7V | 07:29:00 | 00:00:00 | 00:00:00 | |
| DO3MHA-11 | 2026-09-05 13:25:41 | 47.61699 | 13.94664 | 101° | 69km/h | 5605m | -2.2m/s | -9.8°C | 8.4% | 517.2hPa | 2.7V | 07:29:00 | 02:56:13 | 00:00:00 | |
| S52SK | 2026-09-05 13:25:40 | 47.61699 | 13.94664 | 101° | 68km/h | 5605m | -2.2m/s | -9.9°C | 8.1% | 517.2hPa | 2.7V | 00:00:00 | 00:00:00 | 00:00:00 | |
| PG1ADW-2 | 2026-09-05 13:25:39 | 47.61705 | 13.94614 | 99° | 69km/h | 5609m | -2.0m/s | -9.8°C | 8.5% | 516.9hPa | 2.7V | 00:00:00 | 00:00:00 | 00:00:00 | |
| OE5WHR-10 | 2026-09-05 13:25:35 | 47.61716 | 13.94510 | 99° | 69km/h | 5617m | -2.0m/s | -9.9°C | 9.5% | 516.4hPa | 2.7V | 00:00:00 | 02:56:07 | 00:00:00 | |
| OE5MMP-10 | 2026-09-05 13:25:33 | 47.61721 | 13.94457 | 101° | 69km/h | 5621m | -2.2m/s | -9.9°C | 9.7% | 516.1hPa | 2.7V | 00:00:00 | 02:56:05 | 00:00:00 | |
| DO3MHA-11 | 2026-09-05 13:25:31 | 47.61728 | 13.94405 | 101° | 69km/h | 5626m | -2.3m/s | -10.0°C | 9.8% | 515.8hPa | 2.7V | 00:00:00 | 02:56:03 | 00:00:00 | |
| OE5REO-15 | 2026-09-05 13:25:26 | 47.61740 | 13.94303 | 101° | 69km/h | 5635m | -2.0m/s | -10.0°C | 10.0% | 515.3hPa | 2.7V | 07:29:00 | 00:00:00 | 00:00:00 | |
| OE5MMP-10 | 2026-09-05 13:25:23 | 47.61751 | 13.94201 | 98° | 71km/h | 5643m | -2.1m/s | -10.2°C | 10.4% | 514.6hPa | 2.7V | 00:00:00 | 02:55:55 | 00:00:00 | |
| DO3MHA-11 | 2026-09-05 13:25:21 | 47.61756 | 13.94149 | 100° | 71km/h | 5647m | -2.0m/s | -10.1°C | 10.3% | 514.4hPa | 2.7V | 00:00:00 | 02:55:53 | 00:00:00 | |
| PG1ADW-2 | 2026-09-05 13:25:19 | 47.61762 | 13.94097 | 99° | 69km/h | 5651m | -1.9m/s | -10.2°C | 10.5% | 514.1hPa | 2.7V | 07:29:00 | 00:00:00 | 00:00:00 | |
| OE5WHR-10 | 2026-09-05 13:25:18 | 47.61764 | 13.94071 | 100° | 69km/h | 5653m | -2.0m/s | -10.2°C | 10.5% | 514.0hPa | 2.7V | 00:00:00 | 00:00:00 | 00:00:00 | |
| OE5DXL-15 | 2026-09-05 13:25:17 | 47.61768 | 13.94044 | 101° | 71km/h | 5655m | -2.1m/s | -10.2°C | 10.8% | 513.9hPa | 2.7V | 00:00:00 | 00:00:00 | 00:00:00 | |
| OE3JTB-15 | 2026-09-05 13:25:16 | 47.61771 | 13.94018 | 102° | 71km/h | 5657m | -2.1m/s | -10.2°C | 10.8% | 513.7hPa | 2.7V | 00:00:00 | 02:55:48 | 00:00:00 | |
| OE5MMP-10 | 2026-09-05 13:25:12 | 47.61784 | 13.93914 | 102° | 69km/h | 5666m | -1.9m/s | -10.3°C | 10.5% | 513.1hPa | 2.7V | 07:29:00 | 02:55:44 | 00:00:00 | |
| OE5REO-15 | 2026-09-05 13:25:10 | 47.61787 | 13.93888 | 102° | 69km/h | 5667m | -2.1m/s | -10.3°C | 9.9% | 513.0hPa | 2.7V | 00:00:00 | 00:00:00 | 00:00:00 | |
| OE5MMP-10 | 2026-09-05 13:25:02 | 47.61817 | 13.93658 | 102° | 71km/h | 5685m | -2.0m/s | -10.3°C | 9.5% | 511.8hPa | 2.7V | 00:00:00 | 02:55:34 | 00:00:00 | |
| OE5WHR-10 | 2026-09-05 13:25:01 | 47.61820 | 13.93632 | 102° | 71km/h | 5687m | -1.9m/s | -10.4°C | 9.6% | 511.7hPa | 2.7V | 00:00:00 | 00:00:00 | 00:00:00 | |
| PG1ADW-2 | 2026-09-05 13:24:59 | 47.61827 | 13.93582 | 100° | 71km/h | 5691m | -2.1m/s | -10.4°C | 9.7% | 511.4hPa | 2.7V | 00:00:00 | 00:00:00 | 00:00:00 | |
| OE5REO-15 | 2026-09-05 13:24:55 | 47.61836 | 13.93503 | 103° | 73km/h | 5697m | -1.9m/s | -10.4°C | 9.5% | 511.0hPa | 2.7V | 00:00:00 | 00:00:00 | 00:00:00 | |
| OE5MMP-10 | 2026-09-05 13:24:52 | 47.61852 | 13.93397 | 103° | 69km/h | 5704m | -1.8m/s | -10.5°C | 10.0% | 510.6hPa | 2.7V | 00:00:00 | 02:55:24 | 00:00:00 | |
| DO3MHA-11 | 2026-09-05 13:24:50 | 47.61860 | 13.93345 | 105° | 69km/h | 5708m | -2.0m/s | -10.4°C | 10.0% | 510.2hPa | 2.7V | 00:00:00 | 02:55:22 | 00:00:00 | |
| OE5DXL-15 | 2026-09-05 13:24:47 | 47.61873 | 13.93269 | 104° | 71km/h | 5714m | -1.8m/s | -10.6°C | 10.0% | 509.9hPa | 2.7V | 00:00:00 | 00:00:00 | 00:00:00 | |
| OE5DRO-10 | 2026-09-05 13:24:45 | 47.61882 | 13.93219 | 106° | 71km/h | 5718m | -2.1m/s | -10.6°C | 10.0% | 509.6hPa | 2.7V | 00:00:00 | 00:00:00 | 00:00:00 | |
| OE5WHR-10 | 2026-09-05 13:24:44 | 47.61887 | 13.93194 | 105° | 71km/h | 5720m | -2.4m/s | -10.6°C | 10.1% | 509.5hPa | 2.7V | 00:00:00 | 02:55:16 | 00:00:00 | |
| OE5MMP-10 | 2026-09-05 13:24:42 | 47.61895 | 13.93144 | 104° | 71km/h | 5725m | -2.1m/s | -10.6°C | 10.1% | 509.2hPa | 2.7V | 00:00:00 | 02:55:14 | 00:00:00 | |
| OE5FHM-15 | 2026-09-05 13:24:41 | 47.61899 | 13.93118 | 104° | 73km/h | 5727m | -2.3m/s | -10.7°C | 10.1% | 509.0hPa | 2.7V | 00:00:00 | 02:55:13 | 00:00:00 | |
| DO3MHA-11 | 2026-09-05 13:24:39 | 47.61908 | 13.93067 | 105° | 71km/h | 5732m | -2.3m/s | -10.7°C | 10.1% | 508.7hPa | 2.7V | 00:00:00 | 02:55:11 | 00:00:00 | |
| OE5MMP-10 | 2026-09-05 13:24:32 | 47.61938 | 13.92886 | 105° | 71km/h | 5747m | -2.2m/s | -10.9°C | 10.5% | 507.7hPa | 2.7V | 00:00:00 | 02:55:04 | 00:00:00 | |
| S52SK | 2026-09-05 13:24:30 | 47.61943 | 13.92860 | 107° | 73km/h | 5749m | -2.3m/s | -10.9°C | 10.2% | 507.6hPa | 2.7V | 00:00:00 | 00:00:00 | 00:00:00 | |
| DO3MHA-11 | 2026-09-05 13:24:29 | 47.61953 | 13.92809 | 108° | 71km/h | 5754m | -2.2m/s | -10.9°C | 10.6% | 507.3hPa | 2.7V | 00:00:00 | 02:55:01 | 00:00:00 | |
| OE5REO-15 | 2026-09-05 13:24:24 | 47.61973 | 13.92707 | 108° | 73km/h | 5763m | -2.2m/s | -11.0°C | 10.3% | 506.7hPa | 2.7V | 07:31:00 | 00:00:00 | 00:00:00 | |
| OE5MMP-10 | 2026-09-05 13:24:22 | 47.61989 | 13.92630 | 107° | 73km/h | 5770m | -2.1m/s | -11.1°C | 10.7% | 506.2hPa | 2.7V | 00:00:00 | 02:54:54 | 00:00:00 | |
| DO3MHA-11 | 2026-09-05 13:24:19 | 47.62007 | 13.92551 | 110° | 73km/h | 5777m | -2.3m/s | -11.2°C | 10.7% | 505.7hPa | 2.7V | 00:00:00 | 02:54:51 | 00:00:00 | |
| OE3JTB-15 | 2026-09-05 13:24:18 | 47.62012 | 13.92526 | 109° | 73km/h | 5779m | -2.3m/s | -11.1°C | 10.7% | 505.6hPa | 2.7V | 07:30:00 | 00:00:00 | 00:00:00 | |
| OE5DXL-15 | 2026-09-05 13:24:17 | 47.62018 | 13.92501 | 108° | 73km/h | 5781m | -2.2m/s | -11.2°C | 10.8% | 505.5hPa | 2.7V | 07:30:00 | 00:00:00 | 00:00:00 | |
| OE5DRO-10 | 2026-09-05 13:24:13 | 47.62042 | 13.92397 | 112° | 73km/h | 5791m | -2.6m/s | -11.1°C | 10.7% | 504.9hPa | 2.7V | 00:00:00 | 00:00:00 | 00:00:00 | |
| OE5MMP-10 | 2026-09-05 13:24:12 | 47.62049 | 13.92373 | 111° | 73km/h | 5793m | -2.2m/s | -11.1°C | 10.7% | 504.7hPa | 2.7V | 00:00:00 | 02:54:44 | 00:00:00 | |
| OE5WHR-10 | 2026-09-05 13:24:10 | 47.62062 | 13.92322 | 111° | 73km/h | 5798m | -2.0m/s | -11.1°C | 10.6% | 504.4hPa | 2.7V | 07:30:00 | 00:00:00 | 00:00:00 | |
| DO3MHA-11 | 2026-09-05 13:24:09 | 47.62068 | 13.92297 | 112° | 73km/h | 5800m | -2.3m/s | -11.1°C | 10.5% | 504.3hPa | 2.7V | 00:00:00 | 02:54:41 | 00:00:00 | |
| OE5REO-15 | 2026-09-05 13:24:08 | 47.62068 | 13.92297 | 112° | 73km/h | 5800m | -2.3m/s | -11.2°C | 10.1% | 504.3hPa | 2.7V | 07:31:00 | 00:00:00 | 00:00:00 | |
| OE5HKT-10 | 2026-09-05 13:24:05 | 47.62096 | 13.92196 | 113° | 75km/h | 5809m | -2.2m/s | -11.2°C | 10.3% | 503.6hPa | 2.7V | 00:00:00 | 02:54:37 | 00:00:00 | |
| OE5MMP-10 | 2026-09-05 13:24:02 | 47.62118 | 13.92120 | 115° | 75km/h | 5816m | -2.4m/s | -11.2°C | 10.4% | 503.2hPa | 2.7V | 00:00:00 | 02:54:34 | 00:00:00 | |
| DO3MHA-11 | 2026-09-05 13:23:59 | 47.62141 | 13.92045 | 115° | 75km/h | 5824m | -2.5m/s | -11.3°C | 10.4% | 502.7hPa | 2.7V | 07:31:00 | 02:54:31 | 00:00:00 | |
| OE5DRO-10 | 2026-09-05 13:23:57 | 47.62157 | 13.91994 | 116° | 75km/h | 5828m | -2.4m/s | -11.3°C | 10.4% | 502.3hPa | 2.7V | 07:31:00 | 00:00:00 | 00:00:00 | |
| OE5FHM-15 | 2026-09-05 13:23:54 | 47.62180 | 13.91918 | 115° | 78km/h | 5836m | -2.4m/s | -11.4°C | 10.3% | 501.8hPa | 2.7V | 00:00:00 | 02:54:26 | 00:00:00 | |
| OE5WHR-10 | 2026-09-05 13:23:53 | 47.62188 | 13.91892 | 116° | 75km/h | 5838m | -2.4m/s | -11.3°C | 10.0% | 501.7hPa | 2.6V | 00:00:00 | 02:54:25 | 00:00:00 | |
| OE5MMP-10 | 2026-09-05 13:23:52 | 47.62197 | 13.91867 | 116° | 75km/h | 5841m | -2.5m/s | -11.3°C | 9.7% | 501.6hPa | 2.6V | 07:31:00 | 02:54:24 | 00:00:00 | |
| DO3MHA-11 | 2026-09-05 13:23:49 | 47.62221 | 13.91791 | 116° | 73km/h | 5848m | -2.7m/s | -11.2°C | 8.6% | 501.1hPa | 2.6V | 00:00:00 | 02:54:21 | 00:00:00 | |
| OE5DXL-15 | 2026-09-05 13:23:47 | 47.62237 | 13.91740 | 118° | 77km/h | 5853m | -2.5m/s | -11.2°C | 8.2% | 500.8hPa | 2.6V | 00:00:00 | 00:00:00 | 00:00:00 | |
| OE5MMP-10 | 2026-09-05 13:23:42 | 47.62277 | 13.91617 | 116° | 75km/h | 5866m | -2.5m/s | -10.9°C | 7.2% | 499.9hPa | 2.6V | 00:00:00 | 02:54:14 | 00:00:00 | |
| OE5DRO-10 | 2026-09-05 13:23:41 | 47.62286 | 13.91592 | 117° | 77km/h | 5869m | -2.5m/s | -10.9°C | 7.1% | 499.7hPa | 2.6V | 00:00:00 | 00:00:00 | 00:00:00 | |
| DO3MHA-11 | 2026-09-05 13:23:39 | 47.62301 | 13.91542 | 115° | 77km/h | 5873m | -2.6m/s | -10.8°C | 7.1% | 499.4hPa | 2.6V | 00:00:00 | 02:54:11 | 00:00:00 | |
| OE5REO-15 | 2026-09-05 13:23:37 | 47.62309 | 13.91517 | 116° | 77km/h | 5876m | -2.6m/s | -10.9°C | 6.7% | 499.2hPa | 2.7V | 07:32:00 | 00:00:00 | 00:00:00 | |
| OE5WHR-10 | 2026-09-05 13:23:36 | 47.62327 | 13.91466 | 119° | 77km/h | 5881m | -2.7m/s | -10.8°C | 6.9% | 498.9hPa | 2.7V | 00:00:00 | 00:00:00 | 00:00:00 | |
| OE5MMP-10 | 2026-09-05 13:23:32 | 47.62363 | 13.91365 | 118° | 77km/h | 5892m | -2.6m/s | -10.6°C | 6.5% | 498.2hPa | 2.6V | 00:00:00 | 02:54:04 | 00:00:00 | |
| OE5DRO-10 | 2026-09-05 13:23:25 | 47.62426 | 13.91184 | 117° | 77km/h | 5911m | -2.8m/s | -10.6°C | 6.0% | 496.9hPa | 2.6V | 00:00:00 | 00:00:00 | 00:00:00 | |
| OE5MMP-10 | 2026-09-05 13:23:22 | 47.62451 | 13.91107 | 116° | 77km/h | 5919m | -2.6m/s | -10.6°C | 6.0% | 496.5hPa | 2.6V | 00:00:00 | 02:53:54 | 00:00:00 | |
| OE5REO-15 | 2026-09-05 13:23:21 | 47.62451 | 13.91107 | 116° | 78km/h | 5919m | -2.7m/s | -10.7°C | 5.7% | 496.5hPa | 2.7V | 07:32:00 | 00:00:00 | 00:00:00 | |
| DO3MHA-11 | 2026-09-05 13:23:19 | 47.62477 | 13.91029 | 117° | 75km/h | 5927m | -2.6m/s | -10.6°C | 5.9% | 496.0hPa | 2.7V | 00:00:00 | 02:53:51 | 00:00:00 | |
| OE5DXL-15 | 2026-09-05 13:23:17 | 47.62494 | 13.90978 | 116° | 77km/h | 5932m | -2.7m/s | -10.6°C | 5.8% | 495.6hPa | 2.7V | 00:00:00 | 00:00:00 | 00:00:00 | |
| OE5MMP-10 | 2026-09-05 13:23:12 | 47.62536 | 13.90852 | 116° | 77km/h | 5946m | -2.7m/s | -10.7°C | 5.6% | 494.7hPa | 2.6V | 00:00:00 | 02:53:44 | 00:00:00 | |
| DO3MHA-11 | 2026-09-05 13:23:09 | 47.62562 | 13.90775 | 117° | 77km/h | 5955m | -2.7m/s | -10.7°C | 5.5% | 494.2hPa | 2.6V | 00:00:00 | 02:53:41 | 00:00:00 | |
| S52SK | 2026-09-05 13:23:08 | 47.62562 | 13.90775 | 118° | 77km/h | 5955m | -2.8m/s | -10.7°C | 5.2% | 494.2hPa | 2.6V | 00:00:00 | 00:00:00 | 00:00:00 | |
| OE5REO-15 | 2026-09-05 13:23:06 | 47.62579 | 13.90723 | 117° | 78km/h | 5960m | -2.8m/s | -10.8°C | 5.1% | 493.9hPa | 2.6V | 07:32:00 | 00:00:00 | 00:00:00 | |
| OE5MMP-10 | 2026-09-05 13:23:02 | 47.62625 | 13.90595 | 118° | 77km/h | 5975m | -3.1m/s | -10.8°C | 5.4% | 492.9hPa | 2.6V | 00:00:00 | 02:53:34 | 00:00:00 | |
| DO3MHA-11 | 2026-09-05 13:22:59 | 47.62651 | 13.90519 | 118° | 78km/h | 5984m | -2.6m/s | -10.7°C | 5.3% | 492.3hPa | 2.6V | 00:00:00 | 02:53:31 | 00:00:00 | |
| OE5WHR-10 | 2026-09-05 13:22:58 | 47.62660 | 13.90493 | 119° | 77km/h | 5986m | -2.8m/s | -10.7°C | 5.3% | 492.2hPa | 2.6V | 00:00:00 | 02:53:30 | 00:00:00 | |
| S52SK | 2026-09-05 13:22:57 | 47.62660 | 13.90493 | 119° | 77km/h | 5986m | -2.8m/s | -10.7°C | 5.0% | 492.2hPa | 2.6V | 00:00:00 | 00:00:00 | 00:00:00 | |
| OE5MMP-10 | 2026-09-05 13:22:52 | 47.62714 | 13.90338 | 119° | 77km/h | 6004m | -3.1m/s | -10.9°C | 5.5% | 491.0hPa | 2.6V | 00:00:00 | 02:53:24 | 00:00:00 | |
| OE3JTB-15 | 2026-09-05 13:22:51 | 47.62724 | 13.90312 | 119° | 77km/h | 6007m | -2.9m/s | -10.9°C | 5.5% | 490.9hPa | 2.6V | 00:00:00 | 00:00:00 | 00:00:00 | |
| OE5DRO-10 | 2026-09-05 13:22:50 | 47.62733 | 13.90286 | 119° | 77km/h | 6009m | -2.6m/s | -11.0°C | 5.6% | 490.7hPa | 2.6V | 00:00:00 | 00:00:00 | 00:00:00 | |
| DO3MHA-11 | 2026-09-05 13:22:49 | 47.62743 | 13.90261 | 118° | 77km/h | 6012m | -2.7m/s | -11.0°C | 5.6% | 490.5hPa | 2.6V | 00:00:00 | 02:53:21 | 00:00:00 | |
| OE5DXL-15 | 2026-09-05 13:22:47 | 47.62762 | 13.90209 | 120° | 77km/h | 6018m | -3.0m/s | -11.0°C | 5.6% | 490.1hPa | 2.6V | 00:00:00 | 00:00:00 | 00:00:00 | |
| OE5MMP-10 | 2026-09-05 13:22:42 | 47.62807 | 13.90084 | 119° | 77km/h | 6033m | -2.8m/s | -11.0°C | 5.8% | 489.2hPa | 2.6V | 00:00:00 | 02:53:14 | 00:00:00 | |
| OE5HKT-10 | 2026-09-05 13:22:40 | 47.62826 | 13.90034 | 119° | 77km/h | 6039m | -3.0m/s | -11.1°C | 5.9% | 488.7hPa | 2.6V | 00:00:00 | 00:00:00 | 00:00:00 | |
| DO3MHA-11 | 2026-09-05 13:22:39 | 47.62836 | 13.90009 | 118° | 77km/h | 6042m | -2.9m/s | -11.1°C | 5.9% | 488.6hPa | 2.6V | 07:32:00 | 02:53:11 | 00:00:00 | |
| OE5WHR-10 | 2026-09-05 13:22:37 | 47.62854 | 13.89957 | 120° | 78km/h | 6048m | -2.9m/s | -11.2°C | 5.9% | 488.2hPa | 2.7V | 00:00:00 | 00:00:00 | 00:00:00 | |
| OE5REO-15 | 2026-09-05 13:22:36 | 47.62854 | 13.89957 | 120° | 78km/h | 6048m | -2.9m/s | -11.2°C | 5.6% | 488.3hPa | 2.6V | 07:33:00 | 00:00:00 | 00:00:00 | |
| OE5MMP-10 | 2026-09-05 13:22:32 | 47.62903 | 13.89832 | 120° | 78km/h | 6062m | -2.9m/s | -11.2°C | 5.9% | 487.3hPa | 2.6V | 07:32:00 | 02:53:04 | 00:00:00 | |
| OE5DRO-10 | 2026-09-05 13:22:31 | 47.62913 | 13.89806 | 120° | 78km/h | 6066m | -2.9m/s | -11.3°C | 6.0% | 487.1hPa | 2.6V | 00:00:00 | 00:00:00 | 00:00:00 | |
| DO3MHA-11 | 2026-09-05 13:22:29 | 47.62932 | 13.89756 | 120° | 78km/h | 6072m | -3.0m/s | -11.3°C | 6.0% | 486.7hPa | 2.6V | 00:00:00 | 02:53:01 | 00:00:00 | |
| OE5MMP-10 | 2026-09-05 13:22:22 | 47.63001 | 13.89579 | 120° | 77km/h | 6092m | -2.8m/s | -11.5°C | 6.2% | 485.4hPa | 2.6V | 00:00:00 | 02:52:54 | 00:00:00 | |
| OE5REO-15 | 2026-09-05 13:22:20 | 47.63011 | 13.89553 | 122° | 78km/h | 6095m | -3.1m/s | -11.5°C | 5.8% | 485.2hPa | 2.6V | 07:33:00 | 00:00:00 | 00:00:00 | |
| DO3MHA-11 | 2026-09-05 13:22:19 | 47.63032 | 13.89503 | 122° | 77km/h | 6101m | -3.0m/s | -11.5°C | 6.2% | 484.8hPa | 2.6V | 00:00:00 | 02:52:51 | 00:00:00 | |
| OE5DXL-15 | 2026-09-05 13:22:17 | 47.63051 | 13.89454 | 120° | 78km/h | 6107m | -2.8m/s | -11.5°C | 6.2% | 484.4hPa | 2.6V | 00:00:00 | 00:00:00 | 00:00:00 | |
| OE5WHR-10 | 2026-09-05 13:22:16 | 47.63061 | 13.89429 | 120° | 78km/h | 6110m | -3.0m/s | -11.6°C | 6.2% | 484.2hPa | 2.6V | 00:00:00 | 00:00:00 | 00:00:00 | |
| OE5HKT-10 | 2026-09-05 13:22:15 | 47.63071 | 13.89403 | 122° | 78km/h | 6113m | -3.1m/s | -11.6°C | 6.2% | 484.0hPa | 2.6V | 00:00:00 | 00:00:00 | 00:00:00 | |
| OE5MMP-10 | 2026-09-05 13:22:12 | 47.63101 | 13.89329 | 120° | 77km/h | 6123m | -3.0m/s | -11.7°C | 6.2% | 483.4hPa | 2.6V | 00:00:00 | 02:52:44 | 00:00:00 | |
| DO3MHA-11 | 2026-09-05 13:22:09 | 47.63131 | 13.89254 | 123° | 77km/h | 6132m | -3.0m/s | -11.7°C | 6.2% | 482.9hPa | 2.6V | 00:00:00 | 02:52:41 | 00:00:00 | |
| OE5REO-15 | 2026-09-05 13:22:04 | 47.63171 | 13.89156 | 122° | 78km/h | 6144m | -3.1m/s | -11.8°C | 5.9% | 482.0hPa | 2.6V | 07:33:00 | 00:00:00 | 00:00:00 | |
| OE5MMP-10 | 2026-09-05 13:22:02 | 47.63202 | 13.89081 | 122° | 78km/h | 6153m | -3.0m/s | -11.8°C | 6.3% | 481.5hPa | 2.6V | 00:00:00 | 02:52:34 | 00:00:00 | |
| DO3MHA-11 | 2026-09-05 13:21:59 | 47.63233 | 13.89006 | 122° | 78km/h | 6162m | -3.0m/s | -12.0°C | 6.3% | 480.9hPa | 2.6V | 00:00:00 | 02:52:31 | 00:00:00 | |
| OE3JTB-15 | 2026-09-05 13:21:53 | 47.63296 | 13.88854 | 123° | 80km/h | 6181m | -3.1m/s | -12.2°C | 6.4% | 479.8hPa | 2.6V | 00:00:00 | 00:00:00 | 00:00:00 | |
| OE5HKT-10 | 2026-09-05 13:21:52 | 47.63306 | 13.88829 | 123° | 80km/h | 6184m | -3.2m/s | -12.1°C | 6.4% | 479.5hPa | 2.6V | 00:00:00 | 02:52:24 | 00:00:00 | |
| DO3MHA-11 | 2026-09-05 13:21:49 | 47.63337 | 13.88753 | 121° | 80km/h | 6194m | -3.1m/s | -12.3°C | 6.4% | 479.0hPa | 2.6V | 00:00:00 | 02:52:21 | 00:00:00 | |
| OE5REO-15 | 2026-09-05 13:21:48 | 47.63337 | 13.88753 | 121° | 82km/h | 6194m | -3.2m/s | -12.3°C | 6.1% | 479.0hPa | 2.6V | 07:33:00 | 00:00:00 | 00:00:00 | |
| OE5DXL-15 | 2026-09-05 13:21:47 | 47.63358 | 13.88700 | 122° | 80km/h | 6200m | -3.0m/s | -12.3°C | 6.4% | 478.6hPa | 2.6V | 00:00:00 | 00:00:00 | 00:00:00 | |
| OE5MMP-10 | 2026-09-05 13:21:42 | 47.63411 | 13.88571 | 122° | 80km/h | 6215m | -3.1m/s | -12.5°C | 6.5% | 477.6hPa | 2.7V | 00:00:00 | 02:52:14 | 00:00:00 | |
| S52SK | 2026-09-05 13:21:40 | 47.63421 | 13.88546 | 122° | 78km/h | 6218m | -3.1m/s | -12.6°C | 6.1% | 477.4hPa | 2.7V | 00:00:00 | 00:00:00 | 00:00:00 | |
| DO3MHA-11 | 2026-09-05 13:21:39 | 47.63442 | 13.88495 | 121° | 82km/h | 6224m | -3.0m/s | -12.5°C | 6.4% | 477.1hPa | 2.7V | 00:00:00 | 02:52:11 | 00:00:00 | |
| OE5FHM-15 | 2026-09-05 13:21:35 | 47.63484 | 13.88393 | 121° | 84km/h | 6237m | -3.2m/s | -12.6°C | 6.4% | 476.3hPa | 2.6V | 00:00:00 | 02:52:07 | 00:00:00 | |
| OE5WHR-10 | 2026-09-05 13:21:34 | 47.63495 | 13.88366 | 122° | 82km/h | 6240m | -3.0m/s | -12.6°C | 6.4% | 476.1hPa | 2.6V | 07:33:00 | 00:00:00 | 00:00:00 | |
| OE5MMP-10 | 2026-09-05 13:21:32 | 47.63518 | 13.88313 | 124° | 82km/h | 6246m | -3.1m/s | -12.6°C | 6.4% | 475.6hPa | 2.7V | 00:00:00 | 02:52:04 | 00:00:00 | |
| OE5HKT-10 | 2026-09-05 13:21:31 | 47.63529 | 13.88287 | 123° | 82km/h | 6249m | -3.3m/s | -12.6°C | 6.4% | 475.4hPa | 2.7V | 00:00:00 | 00:00:00 | 00:00:00 | |
| DO3MHA-11 | 2026-09-05 13:21:29 | 47.63551 | 13.88235 | 121° | 82km/h | 6255m | -2.9m/s | -12.7°C | 6.3% | 475.1hPa | 2.7V | 00:00:00 | 02:52:01 | 00:00:00 | |
| OE3JTB-15 | 2026-09-05 13:21:24 | 47.63606 | 13.88104 | 121° | 82km/h | 6271m | -3.1m/s | -12.8°C | 6.3% | 474.1hPa | 2.7V | 00:00:00 | 00:00:00 | 00:00:00 | |
| OE5MMP-10 | 2026-09-05 13:21:22 | 47.63627 | 13.88052 | 122° | 82km/h | 6277m | -3.0m/s | -12.9°C | 6.3% | 473.7hPa | 2.7V | 00:00:00 | 02:51:54 | 00:00:00 | |
| DO3MHA-11 | 2026-09-05 13:21:19 | 47.63658 | 13.87974 | 121° | 84km/h | 6287m | -3.1m/s | -12.9°C | 6.4% | 473.1hPa | 2.7V | 07:33:00 | 02:51:51 | 00:00:00 | |
| OE5DXL-15 | 2026-09-05 13:21:17 | 47.63679 | 13.87920 | 121° | 84km/h | 6293m | -3.0m/s | -13.0°C | 6.3% | 472.8hPa | 2.7V | 00:00:00 | 00:00:00 | 00:00:00 | |
| OE5REO-15 | 2026-09-05 13:21:16 | 47.63680 | 13.87920 | 121° | 84km/h | 6293m | -3.0m/s | -13.0°C | 5.9% | 472.8hPa | 2.7V | 07:33:00 | 00:00:00 | 00:00:00 | |
| OE5DRO-10 | 2026-09-05 13:21:15 | 47.63701 | 13.87866 | 122° | 84km/h | 6299m | -3.2m/s | -13.0°C | 6.3% | 472.3hPa | 2.7V | 00:00:00 | 00:00:00 | 00:00:00 | |
| OE5WHR-10 | 2026-09-05 13:21:13 | 47.63723 | 13.87813 | 121° | 84km/h | 6305m | -3.1m/s | -13.0°C | 6.2% | 471.9hPa | 2.7V | 00:00:00 | 00:00:00 | 00:00:00 | |
| OE5MMP-10 | 2026-09-05 13:21:12 | 47.63734 | 13.87786 | 121° | 84km/h | 6308m | -3.0m/s | -13.0°C | 6.3% | 471.8hPa | 2.7V | 07:33:00 | 02:51:44 | 00:00:00 | |
| OE5HKT-10 | 2026-09-05 13:21:10 | 47.63756 | 13.87732 | 123° | 84km/h | 6314m | -3.0m/s | -13.1°C | 6.5% | 471.4hPa | 2.7V | 00:00:00 | 00:00:00 | 00:00:00 | |
| DO3MHA-11 | 2026-09-05 13:21:09 | 47.63768 | 13.87706 | 122° | 84km/h | 6317m | -3.1m/s | -13.1°C | 6.6% | 471.1hPa | 2.7V | 00:00:00 | 02:51:41 | 00:00:00 | |
| OE5REO-15 | 2026-09-05 13:21:02 | 47.63845 | 13.87519 | 122° | 86km/h | 6340m | -3.1m/s | -13.3°C | 6.4% | 469.9hPa | 2.6V | 07:34:00 | 00:00:00 | 00:00:00 | |
| DO3MHA-11 | 2026-09-05 13:20:59 | 47.63879 | 13.87437 | 121° | 86km/h | 6349m | -3.1m/s | -13.3°C | 6.8% | 469.3hPa | 2.6V | 00:00:00 | 02:51:31 | 00:00:00 | |
| OE5DRO-10 | 2026-09-05 13:20:56 | 47.63912 | 13.87354 | 122° | 86km/h | 6358m | -3.1m/s | -13.4°C | 6.8% | 468.6hPa | 2.6V | 00:00:00 | 00:00:00 | 00:00:00 | |
| OE3JTB-15 | 2026-09-05 13:20:55 | 47.63923 | 13.87327 | 123° | 86km/h | 6361m | -3.2m/s | -13.5°C | 6.8% | 468.4hPa | 2.6V | 00:00:00 | 02:51:27 | 00:00:00 | |
| OE5FHM-15 | 2026-09-05 13:20:52 | 47.63957 | 13.87246 | 122° | 86km/h | 6371m | -3.2m/s | -13.4°C | 6.9% | 467.9hPa | 2.6V | 00:00:00 | 02:51:24 | 00:00:00 | |
| DO3MHA-11 | 2026-09-05 13:20:49 | 47.63991 | 13.87165 | 122° | 86km/h | 6381m | -3.3m/s | -13.5°C | 6.9% | 467.3hPa | 2.6V | 00:00:00 | 02:51:21 | 00:00:00 | |
| OE5DXL-15 | 2026-09-05 13:20:47 | 47.64012 | 13.87110 | 120° | 86km/h | 6387m | -3.2m/s | -13.6°C | 6.9% | 466.9hPa | 2.6V | 00:00:00 | 00:00:00 | 00:00:00 | |
| OE5REO-15 | 2026-09-05 13:20:45 | 47.64023 | 13.87082 | 121° | 88km/h | 6390m | -3.3m/s | -13.6°C | 6.5% | 466.7hPa | 2.6V | 07:34:00 | 00:00:00 | 00:00:00 | |
| OE5MMP-10 | 2026-09-05 13:20:42 | 47.64067 | 13.86970 | 120° | 88km/h | 6403m | -3.1m/s | -13.6°C | 6.8% | 465.9hPa | 2.6V | 00:00:00 | 02:51:14 | 00:00:00 | |
| DO3MHA-11 | 2026-09-05 13:20:39 | 47.64101 | 13.86885 | 122° | 86km/h | 6413m | -3.3m/s | -13.7°C | 6.7% | 465.3hPa | 2.6V | 00:00:00 | 02:51:11 | 00:00:00 | |
| OE5DRO-10 | 2026-09-05 13:20:37 | 47.64123 | 13.86829 | 121° | 86km/h | 6419m | -3.0m/s | -13.8°C | 6.6% | 465.0hPa | 2.7V | 00:00:00 | 00:00:00 | 00:00:00 | |
| OE5MMP-10 | 2026-09-05 13:20:32 | 47.64178 | 13.86690 | 120° | 86km/h | 6435m | -3.0m/s | -13.7°C | 6.4% | 463.9hPa | 2.7V | 00:00:00 | 02:51:04 | 00:00:00 | |
| OE5WHR-10 | 2026-09-05 13:20:31 | 47.64188 | 13.86662 | 118° | 86km/h | 6439m | -3.1m/s | -13.8°C | 6.3% | 463.7hPa | 2.7V | 00:00:00 | 00:00:00 | 00:00:00 | |
| OE5REO-15 | 2026-09-05 13:20:30 | 47.64188 | 13.86662 | 119° | 84km/h | 6439m | -3.1m/s | -13.8°C | 5.9% | 463.8hPa | 2.6V | 07:34:00 | 00:00:00 | 00:00:00 | |
| DO3MHA-11 | 2026-09-05 13:20:29 | 47.64208 | 13.86605 | 118° | 88km/h | 6445m | -3.1m/s | -13.8°C | 6.2% | 463.5hPa | 2.6V | 00:00:00 | 02:51:01 | 00:00:00 | |
| OE5MMP-10 | 2026-09-05 13:20:22 | 47.64281 | 13.86403 | 120° | 86km/h | 6466m | -3.2m/s | -13.9°C | 6.0% | 462.2hPa | 2.6V | 00:00:00 | 02:50:54 | 00:00:00 | |
| DO3MHA-11 | 2026-09-05 13:20:19 | 47.64312 | 13.86318 | 118° | 86km/h | 6476m | -3.0m/s | -14.0°C | 5.9% | 461.5hPa | 2.7V | 00:00:00 | 02:50:51 | 00:00:00 | |
| OE5DRO-10 | 2026-09-05 13:20:18 | 47.64322 | 13.86290 | 119° | 88km/h | 6479m | -3.1m/s | -14.0°C | 5.8% | 461.3hPa | 2.7V | 00:00:00 | 00:00:00 | 00:00:00 | |
| OE5DXL-15 | 2026-09-05 13:20:17 | 47.64333 | 13.86261 | 120° | 88km/h | 6482m | -2.9m/s | -14.0°C | 5.7% | 461.1hPa | 2.6V | 07:34:00 | 00:00:00 | 00:00:00 | |
| OE5REO-15 | 2026-09-05 13:20:14 | 47.64353 | 13.86205 | 118° | 84km/h | 6488m | -3.2m/s | -14.2°C | 5.3% | 460.8hPa | 2.7V | 07:35:00 | 00:00:00 | 00:00:00 | |
| OE5MMP-10 | 2026-09-05 13:20:12 | 47.64383 | 13.86118 | 118° | 88km/h | 6497m | -2.9m/s | -14.1°C | 5.6% | 460.2hPa | 2.7V | 00:00:00 | 02:50:44 | 00:00:00 | |
| OE5WHR-10 | 2026-09-05 13:20:10 | 47.64403 | 13.86060 | 117° | 88km/h | 6503m | -2.9m/s | -14.2°C | 5.4% | 459.8hPa | 2.7V | 00:00:00 | 00:00:00 | 00:00:00 | |
| DO3MHA-11 | 2026-09-05 13:20:09 | 47.64413 | 13.86031 | 116° | 88km/h | 6506m | -3.0m/s | -14.3°C | 5.4% | 459.6hPa | 2.7V | 00:00:00 | 02:50:41 | 00:00:00 | |
| OE5MMP-10 | 2026-09-05 13:20:02 | 47.64481 | 13.85825 | 117° | 88km/h | 6528m | -3.0m/s | -14.5°C | 5.4% | 458.3hPa | 2.7V | 00:00:00 | 02:50:34 | 00:00:00 | |
| DO3MHA-11 | 2026-09-05 13:19:59 | 47.64510 | 13.85737 | 115° | 88km/h | 6537m | -3.0m/s | -14.5°C | 5.4% | 457.7hPa | 2.7V | 07:35:00 | 02:50:31 | 00:00:00 | |
| OE3JTB-15 | 2026-09-05 13:19:53 | 47.64564 | 13.85558 | 114° | 88km/h | 6555m | -3.1m/s | -14.7°C | 5.3% | 456.6hPa | 2.7V | 00:00:00 | 00:00:00 | 00:00:00 | |
| OE5MMP-10 | 2026-09-05 13:19:52 | 47.64573 | 13.85528 | 115° | 88km/h | 6558m | -3.1m/s | -14.7°C | 5.2% | 456.4hPa | 2.7V | 07:35:00 | 02:50:24 | 00:00:00 | |
| DO3MHA-11 | 2026-09-05 13:19:49 | 47.64601 | 13.85439 | 115° | 88km/h | 6567m | -3.0m/s | -14.6°C | 5.1% | 456.0hPa | 2.7V | 00:00:00 | 02:50:21 | 00:00:00 | |
| OE5DXL-15 | 2026-09-05 13:19:47 | 47.64620 | 13.85378 | 116° | 88km/h | 6573m | -3.0m/s | -14.7°C | 4.9% | 455.5hPa | 2.7V | 00:00:00 | 00:00:00 | 00:00:00 | |
| OE5HKT-10 | 2026-09-05 13:19:44 | 47.64648 | 13.85288 | 114° | 88km/h | 6582m | -2.9m/s | -14.7°C | 4.7% | 455.0hPa | 2.7V | 07:35:00 | 00:00:00 | 00:00:00 | |
| OE5REO-15 | 2026-09-05 13:19:43 | 47.64648 | 13.85288 | 115° | 86km/h | 6582m | -3.0m/s | -14.7°C | 4.3% | 455.1hPa | 2.6V | 07:35:00 | 00:00:00 | 00:00:00 | |
| OE5MMP-10 | 2026-09-05 13:19:42 | 47.64665 | 13.85228 | 113° | 88km/h | 6589m | -3.1m/s | -14.7°C | 4.7% | 454.6hPa | 2.6V | 00:00:00 | 02:50:14 | 00:00:00 | |
| OE5DRO-10 | 2026-09-05 13:19:40 | 47.64682 | 13.85168 | 113° | 88km/h | 6594m | -2.9m/s | -14.8°C | 4.7% | 454.3hPa | 2.6V | 00:00:00 | 00:00:00 | 00:00:00 | |
| DO3MHA-11 | 2026-09-05 13:19:39 | 47.64690 | 13.85138 | 112° | 88km/h | 6597m | -3.1m/s | -14.8°C | 4.6% | 454.1hPa | 2.6V | 00:00:00 | 02:50:11 | 00:00:00 | |
| OE5FHM-15 | 2026-09-05 13:19:38 | 47.64698 | 13.85107 | 112° | 88km/h | 6600m | -3.1m/s | -14.8°C | 4.6% | 453.9hPa | 2.7V | 00:00:00 | 02:50:10 | 00:00:00 | |
| S52SK | 2026-09-05 13:19:35 | 47.64716 | 13.85046 | 115° | 89km/h | 6607m | -3.0m/s | -14.9°C | 4.2% | 453.7hPa | 2.6V | 07:35:00 | 00:00:00 | 00:00:00 | |
| OE5MMP-10 | 2026-09-05 13:19:32 | 47.64752 | 13.84926 | 113° | 88km/h | 6620m | -3.3m/s | -14.9°C | 4.6% | 452.8hPa | 2.6V | 00:00:00 | 02:50:04 | 00:00:00 | |
| S52SK | 2026-09-05 13:19:30 | 47.64760 | 13.84895 | 113° | 89km/h | 6623m | -3.0m/s | -15.1°C | 4.3% | 452.6hPa | 2.6V | 07:35:00 | 00:00:00 | 00:00:00 | |
| DO3MHA-11 | 2026-09-05 13:19:29 | 47.64778 | 13.84834 | 114° | 88km/h | 6629m | -3.1m/s | -15.0°C | 4.7% | 452.3hPa | 2.6V | 00:00:00 | 02:50:01 | 00:00:00 | |
| OE5REO-15 | 2026-09-05 13:19:28 | 47.64778 | 13.84834 | 114° | 88km/h | 6629m | -3.1m/s | -15.1°C | 4.3% | 452.3hPa | 2.6V | 07:35:00 | 00:00:00 | 00:00:00 | |
| OE5WHR-10 | 2026-09-05 13:19:27 | 47.64795 | 13.84773 | 112° | 88km/h | 6635m | -3.0m/s | -15.1°C | 4.7% | 451.9hPa | 2.6V | 00:00:00 | 00:00:00 | 00:00:00 | |
| OE3JTB-15 | 2026-09-05 13:19:24 | 47.64819 | 13.84681 | 112° | 86km/h | 6644m | -3.0m/s | -15.2°C | 4.7% | 451.3hPa | 2.6V | 00:00:00 | 02:49:56 | 00:00:00 | |
| OE5HKT-10 | 2026-09-05 13:19:23 | 47.64827 | 13.84651 | 112° | 86km/h | 6647m | -3.0m/s | -15.2°C | 4.7% | 451.2hPa | 2.6V | 00:00:00 | 00:00:00 | 00:00:00 | |
| OE5DRO-10 | 2026-09-05 13:19:21 | 47.64842 | 13.84591 | 110° | 86km/h | 6653m | -2.9m/s | -15.3°C | 4.7% | 450.8hPa | 2.6V | 00:00:00 | 00:00:00 | 00:00:00 | |
| DO3MHA-11 | 2026-09-05 13:19:19 | 47.64856 | 13.84530 | 110° | 86km/h | 6659m | -2.8m/s | -15.3°C | 4.7% | 450.4hPa | 2.6V | 00:00:00 | 02:49:51 | 00:00:00 | |
| OE5DXL-15 | 2026-09-05 13:19:17 | 47.64871 | 13.84469 | 109° | 88km/h | 6665m | -3.0m/s | -15.3°C | 4.7% | 450.1hPa | 2.6V | 00:00:00 | 00:00:00 | 00:00:00 | |
| OE5REO-15 | 2026-09-05 13:19:13 | 47.64890 | 13.84377 | 109° | 88km/h | 6674m | -3.1m/s | -15.5°C | 4.3% | 449.6hPa | 2.6V | 07:36:00 | 00:00:00 | 00:00:00 | |
| OE5MMP-10 | 2026-09-05 13:19:12 | 47.64904 | 13.84316 | 108° | 86km/h | 6680m | -2.8m/s | -15.5°C | 4.8% | 449.2hPa | 2.6V | 00:00:00 | 02:49:44 | 00:00:00 | |
| DO3MHA-11 | 2026-09-05 13:19:09 | 47.64923 | 13.84223 | 107° | 86km/h | 6689m | -2.9m/s | -15.6°C | 4.8% | 448.6hPa | 2.6V | 00:00:00 | 02:49:41 | 00:00:00 | |
| OE5FHM-15 | 2026-09-05 13:19:07 | 47.64936 | 13.84161 | 108° | 88km/h | 6695m | -2.9m/s | -15.6°C | 4.8% | 448.3hPa | 2.7V | 00:00:00 | 02:49:39 | 00:00:00 | |
| OE8JPQ-2 | 2026-09-05 13:19:04 | 47.64954 | 13.84068 | 107° | 88km/h | 6704m | -3.0m/s | -15.6°C | 4.8% | 447.7hPa | 2.7V | 00:00:00 | 00:00:00 | 00:00:00 | |
| OE5MMP-10 | 2026-09-05 13:19:02 | 47.64967 | 13.84006 | 107° | 88km/h | 6710m | -3.0m/s | -15.6°C | 4.9% | 447.4hPa | 2.7V | 00:00:00 | 02:49:34 | 00:00:00 | |
| DO3MHA-11 | 2026-09-05 13:18:59 | 47.64984 | 13.83912 | 106° | 88km/h | 6719m | -3.0m/s | -15.6°C | 4.9% | 446.8hPa | 2.7V | 00:00:00 | 02:49:31 | 00:00:00 | |
| OE5REO-15 | 2026-09-05 13:18:57 | 47.64991 | 13.83880 | 108° | 89km/h | 6722m | -2.9m/s | -15.6°C | 4.5% | 446.7hPa | 2.7V | 07:36:00 | 00:00:00 | 00:00:00 | |
| OE3JTB-15 | 2026-09-05 13:18:55 | 47.65011 | 13.83785 | 107° | 89km/h | 6731m | -2.9m/s | -15.6°C | 4.8% | 446.1hPa | 2.7V | 00:00:00 | 00:00:00 | 00:00:00 | |
| OE5MMP-10 | 2026-09-05 13:18:52 | 47.65030 | 13.83690 | 107° | 88km/h | 6740m | -3.2m/s | -15.7°C | 4.8% | 445.6hPa | 2.6V | 00:00:00 | 02:49:24 | 00:00:00 | |
| DO3MHA-11 | 2026-09-05 13:18:49 | 47.65048 | 13.83595 | 105° | 89km/h | 6749m | -3.0m/s | -15.8°C | 4.7% | 445.0hPa | 2.6V | 00:00:00 | 02:49:21 | 00:00:00 | |
| OE5DXL-15 | 2026-09-05 13:18:47 | 47.65059 | 13.83530 | 106° | 89km/h | 6756m | -3.0m/s | -15.8°C | 4.8% | 444.7hPa | 2.6V | 00:00:00 | 00:00:00 | 00:00:00 | |
| OE5DRO-10 | 2026-09-05 13:18:46 | 47.65065 | 13.83498 | 107° | 89km/h | 6759m | -3.1m/s | -15.8°C | 4.8% | 444.6hPa | 2.6V | 00:00:00 | 00:00:00 | 00:00:00 | |
| OE5HKT-10 | 2026-09-05 13:18:45 | 47.65071 | 13.83466 | 106° | 89km/h | 6762m | -3.0m/s | -15.8°C | 4.8% | 444.3hPa | 2.6V | 00:00:00 | 00:00:00 | 00:00:00 | |
| OE8JPQ-2 | 2026-09-05 13:18:44 | 47.65077 | 13.83434 | 105° | 88km/h | 6765m | -3.1m/s | -15.9°C | 4.8% | 444.2hPa | 2.6V | 00:00:00 | 02:49:16 | 00:00:00 | |
| OE5MMP-10 | 2026-09-05 13:18:42 | 47.65089 | 13.83369 | 106° | 88km/h | 6771m | -3.2m/s | -16.0°C | 4.8% | 443.8hPa | 2.6V | 00:00:00 | 02:49:14 | 00:00:00 | |
| DO3MHA-11 | 2026-09-05 13:18:39 | 47.65107 | 13.83274 | 105° | 89km/h | 6781m | -3.0m/s | -16.0°C | 4.8% | 443.3hPa | 2.6V | 07:36:00 | 02:49:11 | 00:00:00 | |
| OE5FHM-15 | 2026-09-05 13:18:33 | 47.65141 | 13.83082 | 105° | 89km/h | 6799m | -3.3m/s | -16.1°C | 4.8% | 442.1hPa | 2.6V | 07:36:00 | 02:49:05 | 00:00:00 | |
| OE5MMP-10 | 2026-09-05 13:18:32 | 47.65147 | 13.83049 | 106° | 89km/h | 6803m | -3.1m/s | -16.1°C | 4.8% | 441.9hPa | 2.6V | 07:36:00 | 02:49:04 | 00:00:00 | |
| OE5DRO-10 | 2026-09-05 13:18:30 | 47.65158 | 13.82985 | 105° | 89km/h | 6809m | -3.1m/s | -16.2°C | 4.9% | 441.6hPa | 2.6V | 00:00:00 | 00:00:00 | 00:00:00 | |
| DO3MHA-11 | 2026-09-05 13:18:29 | 47.65164 | 13.82953 | 105° | 89km/h | 6812m | -3.1m/s | 0°C | 0% | 0hPa | 2.6V | 00:00:00 | 02:49:01 | 00:00:00 | |
| OE5HKT-10 | 2026-09-05 13:18:28 | 47.65170 | 13.82920 | 105° | 89km/h | 6815m | -3.1m/s | -16.3°C | 4.9% | 441.1hPa | 2.6V | 00:00:00 | 00:00:00 | 00:00:00 | |
| OE3JTB-15 | 2026-09-05 13:18:26 | 47.65182 | 13.82856 | 106° | 89km/h | 6822m | -3.2m/s | -16.4°C | 5.0% | 440.9hPa | 2.6V | 00:00:00 | 00:00:00 | 00:00:00 | |
| OE8JPQ-2 | 2026-09-05 13:18:24 | 47.65193 | 13.82792 | 104° | 89km/h | 6828m | -3.2m/s | -16.4°C | 5.0% | 440.4hPa | 2.6V | 00:00:00 | 00:00:00 | 00:00:00 | |
| OE5MMP-10 | 2026-09-05 13:18:22 | 47.65204 | 13.82727 | 105° | 89km/h | 6835m | -3.2m/s | -16.4°C | 5.0% | 440.1hPa | 2.7V | 00:00:00 | 02:48:54 | 00:00:00 | |
| DO3MHA-11 | 2026-09-05 13:18:19 | 47.65221 | 13.82630 | 104° | 89km/h | 6844m | -3.2m/s | -16.5°C | 5.0% | 439.4hPa | 2.6V | 00:00:00 | 02:48:51 | 00:00:00 | |
| OE5DXL-15 | 2026-09-05 13:18:17 | 47.65232 | 13.82564 | 105° | 89km/h | 6851m | -3.3m/s | -16.6°C | 5.0% | 439.1hPa | 2.6V | 00:00:00 | 00:00:00 | 00:00:00 | |
| OE5MMP-10 | 2026-09-05 13:18:12 | 47.65258 | 13.82403 | 104° | 89km/h | 6867m | -3.3m/s | -16.7°C | 5.1% | 438.1hPa | 2.6V | 00:00:00 | 02:48:44 | 00:00:00 | |
| OE5DRO-10 | 2026-09-05 13:18:11 | 47.65264 | 13.82370 | 105° | 89km/h | 6871m | -3.2m/s | -16.7°C | 5.1% | 437.9hPa | 2.6V | 00:00:00 | 00:00:00 | 00:00:00 | |
| S52SK | 2026-09-05 13:18:10 | 47.65264 | 13.82370 | 105° | 91km/h | 6871m | -3.3m/s | -16.8°C | 4.7% | 437.9hPa | 2.6V | 00:00:00 | 00:00:00 | 00:00:00 | |
| DO3MHA-11 | 2026-09-05 13:18:09 | 47.65275 | 13.82304 | 105° | 89km/h | 6877m | -3.1m/s | -16.8°C | 5.1% | 437.5hPa | 2.6V | 00:00:00 | 02:48:41 | 00:00:00 | |
| OE5HKT-10 | 2026-09-05 13:18:07 | 47.65286 | 13.82238 | 104° | 89km/h | 6884m | -3.3m/s | -16.9°C | 5.2% | 437.2hPa | 2.6V | 00:00:00 | 02:48:39 | 00:00:00 | |
| S52SK | 2026-09-05 13:18:04 | 47.65298 | 13.82173 | 107° | 89km/h | 6890m | -3.2m/s | -17.1°C | 4.7% | 436.8hPa | 2.6V | 00:00:00 | 00:00:00 | 00:00:00 | |
| OE5MMP-10 | 2026-09-05 13:18:02 | 47.65314 | 13.82076 | 103° | 89km/h | 6900m | -3.1m/s | -17.1°C | 5.2% | 436.2hPa | 2.6V | 00:00:00 | 02:48:34 | 00:00:00 | |
| OE5FHM-15 | 2026-09-05 13:18:00 | 47.65325 | 13.82010 | 104° | 91km/h | 6906m | -3.1m/s | -17.1°C | 5.2% | 435.8hPa | 2.6V | 00:00:00 | 02:48:32 | 00:00:00 | |
| DO3MHA-11 | 2026-09-05 13:17:59 | 47.65330 | 13.81977 | 105° | 89km/h | 6910m | -3.1m/s | -17.1°C | 5.3% | 435.7hPa | 2.6V | 00:00:00 | 02:48:31 | 00:00:00 | |
| OE3JTB-15 | 2026-09-05 13:17:57 | 47.65340 | 13.81912 | 103° | 89km/h | 6916m | -3.4m/s | -17.1°C | 5.3% | 435.3hPa | 2.6V | 00:00:00 | 02:48:29 | 00:00:00 | |
| OE5REO-15 | 2026-09-05 13:17:53 | 47.65357 | 13.81814 | 105° | 88km/h | 6926m | -3.3m/s | -17.3°C | 4.9% | 434.7hPa | 2.6V | 07:37:00 | 00:00:00 | 00:00:00 | |
| OE5MMP-10 | 2026-09-05 13:17:52 | 47.65367 | 13.81749 | 103° | 91km/h | 6933m | -3.3m/s | -17.4°C | 5.3% | 434.3hPa | 2.6V | 00:00:00 | 02:48:24 | 00:00:00 | |
| DO3MHA-11 | 2026-09-05 13:17:49 | 47.65384 | 13.81649 | 105° | 91km/h | 6943m | -3.4m/s | -17.4°C | 5.4% | 433.7hPa | 2.6V | 00:00:00 | 02:48:21 | 00:00:00 | |
| OE5DXL-15 | 2026-09-05 13:17:47 | 47.65395 | 13.81584 | 103° | 89km/h | 6949m | -3.2m/s | -17.5°C | 5.4% | 433.3hPa | 2.6V | 00:00:00 | 00:00:00 | 00:00:00 | |
| OE5HKT-10 | 2026-09-05 13:17:46 | 47.65399 | 13.81551 | 103° | 89km/h | 6953m | -3.2m/s | -17.5°C | 5.4% | 433.1hPa | 2.6V | 00:00:00 | 00:00:00 | 00:00:00 | |
| OE5MMP-10 | 2026-09-05 13:17:42 | 47.65421 | 13.81419 | 103° | 89km/h | 6966m | -3.3m/s | -17.6°C | 5.5% | 432.3hPa | 2.6V | 00:00:00 | 02:48:14 | 00:00:00 | |
| DO3MHA-11 | 2026-09-05 13:17:39 | 47.65436 | 13.81319 | 104° | 89km/h | 6976m | -3.4m/s | -17.7°C | 5.5% | 431.7hPa | 2.6V | 00:00:00 | 02:48:11 | 00:00:00 | |
| OE5REO-15 | 2026-09-05 13:17:38 | 47.65436 | 13.81319 | 105° | 89km/h | 6976m | -3.4m/s | -17.8°C | 5.0% | 431.7hPa | 2.6V | 07:38:00 | 00:00:00 | 00:00:00 | |
| OE5DRO-10 | 2026-09-05 13:17:33 | 47.65466 | 13.81123 | 104° | 89km/h | 6996m | -3.4m/s | -18.0°C | 5.6% | 430.5hPa | 2.6V | 00:00:00 | 00:00:00 | 00:00:00 | |
| OE5MMP-10 | 2026-09-05 13:17:32 | 47.65471 | 13.81091 | 103° | 89km/h | 7000m | -3.5m/s | -17.9°C | 5.6% | 430.4hPa | 2.6V | 00:00:00 | 02:48:04 | 00:00:00 | |
| DO3MHA-11 | 2026-09-05 13:17:29 | 47.65486 | 13.80993 | 104° | 89km/h | 7010m | -3.4m/s | -18.0°C | 5.6% | 429.7hPa | 2.6V | 00:00:00 | 02:48:01 | 00:00:00 | |
| OE3JTB-15 | 2026-09-05 13:17:28 | 47.65491 | 13.80961 | 105° | 89km/h | 7013m | -3.4m/s | -18.1°C | 5.6% | 429.5hPa | 2.6V | 00:00:00 | 00:00:00 | 00:00:00 | |
| OE8JPQ-2 | 2026-09-05 13:17:26 | 47.65501 | 13.80897 | 104° | 89km/h | 7020m | -3.5m/s | -18.2°C | 5.6% | 429.2hPa | 2.6V | 07:37:00 | 00:00:00 | 00:00:00 | |
| OE5HKT-10 | 2026-09-05 13:17:25 | 47.65507 | 13.80864 | 104° | 89km/h | 7024m | -3.5m/s | -18.2°C | 5.6% | 429.0hPa | 2.6V | 00:00:00 | 00:00:00 | 00:00:00 | |
| OE5MMP-10 | 2026-09-05 13:17:22 | 47.65525 | 13.80766 | 105° | 91km/h | 7034m | -3.5m/s | -18.2°C | 5.7% | 428.3hPa | 2.6V | 00:00:00 | 02:47:54 | 00:00:00 | |
| DO3MHA-11 | 2026-09-05 13:17:19 | 47.65541 | 13.80668 | 105° | 91km/h | 7045m | -3.5m/s | -18.3°C | 5.7% | 427.8hPa | 2.6V | 07:37:00 | 02:47:51 | 00:00:00 | |
| OE5DXL-15 | 2026-09-05 13:17:17 | 47.65553 | 13.80601 | 105° | 91km/h | 7052m | -3.5m/s | -18.3°C | 5.8% | 427.3hPa | 2.6V | 00:00:00 | 00:00:00 | 00:00:00 | |
| OE5WHR-10 | 2026-09-05 13:17:16 | 47.65558 | 13.80569 | 104° | 91km/h | 7055m | -3.4m/s | -18.3°C | 5.8% | 427.2hPa | 2.5V | 07:37:00 | 02:47:48 | 00:00:00 | |
| OE5DRO-10 | 2026-09-05 13:17:14 | 47.65569 | 13.80503 | 105° | 91km/h | 7062m | -3.4m/s | -18.4°C | 5.8% | 426.8hPa | 2.5V | 00:00:00 | 00:00:00 | 00:00:00 | |
| OE5MMP-10 | 2026-09-05 13:17:12 | 47.65582 | 13.80438 | 106° | 91km/h | 7069m | -3.5m/s | -18.4°C | 5.8% | 426.4hPa | 2.5V | 07:37:00 | 02:47:44 | 00:00:00 | |
| DO3MHA-11 | 2026-09-05 13:17:09 | 47.65599 | 13.80340 | 106° | 91km/h | 7080m | -3.5m/s | -18.5°C | 5.7% | 425.8hPa | 2.5V | 00:00:00 | 02:47:41 | 00:00:00 | |
| OE5REO-15 | 2026-09-05 13:17:07 | 47.65606 | 13.80308 | 107° | 91km/h | 7083m | -3.6m/s | -18.6°C | 5.0% | 425.6hPa | 2.6V | 07:38:00 | 00:00:00 | 00:00:00 | |
| OE8JPQ-2 | 2026-09-05 13:17:06 | 47.65618 | 13.80243 | 105° | 91km/h | 7091m | -3.6m/s | -18.6°C | 5.4% | 425.1hPa | 2.6V | 00:00:00 | 02:47:38 | 00:00:00 | |
| OE5HKT-10 | 2026-09-05 13:17:04 | 47.65628 | 13.80177 | 104° | 93km/h | 7098m | -3.7m/s | -18.6°C | 5.4% | 424.7hPa | 2.6V | 07:38:00 | 02:47:36 | 00:00:00 | |
| OE5MMP-10 | 2026-09-05 13:17:02 | 47.65640 | 13.80109 | 106° | 91km/h | 7105m | -3.5m/s | -18.7°C | 5.4% | 424.3hPa | 2.6V | 00:00:00 | 02:47:34 | 00:00:00 | |
| DO3MHA-11 | 2026-09-05 13:16:59 | 47.65659 | 13.80010 | 106° | 91km/h | 7115m | -3.5m/s | -18.7°C | 5.4% | 423.7hPa | 2.6V | 00:00:00 | 02:47:31 | 00:00:00 | |
| OE5WHR-10 | 2026-09-05 13:16:55 | 47.65686 | 13.79880 | 107° | 93km/h | 7130m | -3.6m/s | -18.8°C | 5.4% | 422.9hPa | 2.6V | 00:00:00 | 00:00:00 | 00:00:00 | |
| OE5MMP-10 | 2026-09-05 13:16:52 | 47.65705 | 13.79783 | 107° | 93km/h | 7141m | -3.6m/s | -18.9°C | 5.4% | 422.3hPa | 2.5V | 00:00:00 | 02:47:24 | 00:00:00 | |
| DO3MHA-11 | 2026-09-05 13:16:49 | 47.65724 | 13.79683 | 105° | 95km/h | 7151m | -3.6m/s | -19.0°C | 5.4% | 421.7hPa | 2.5V | 00:00:00 | 02:47:21 | 00:00:00 | |
| OE5DXL-15 | 2026-09-05 13:16:47 | 47.65736 | 13.79614 | 106° | 95km/h | 7159m | -3.6m/s | -19.2°C | 5.4% | 421.3hPa | 2.5V | 00:00:00 | 00:00:00 | 00:00:00 | |
| OE8JPQ-2 | 2026-09-05 13:16:46 | 47.65743 | 13.79580 | 107° | 93km/h | 7162m | -3.8m/s | -19.2°C | 5.5% | 421.1hPa | 2.5V | 00:00:00 | 00:00:00 | 00:00:00 | |
| OE5FHM-15 | 2026-09-05 13:16:45 | 47.65750 | 13.79545 | 108° | 95km/h | 7166m | -3.8m/s | -19.2°C | 5.5% | 420.8hPa | 2.6V | 00:00:00 | 02:47:17 | 00:00:00 | |
| OE5HKT-10 | 2026-09-05 13:16:43 | 47.65763 | 13.79479 | 106° | 95km/h | 7173m | -3.5m/s | -19.2°C | 5.5% | 420.5hPa | 2.6V | 00:00:00 | 00:00:00 | 00:00:00 | |
| OE5MMP-10 | 2026-09-05 13:16:42 | 47.65770 | 13.79445 | 106° | 93km/h | 7177m | -3.5m/s | -19.2°C | 5.5% | 420.3hPa | 2.6V | 00:00:00 | 02:47:14 | 00:00:00 | |
| DO3MHA-11 | 2026-09-05 13:16:39 | 47.65790 | 13.79344 | 107° | 95km/h | 7188m | -3.6m/s | -19.2°C | 5.5% | 419.6hPa | 2.6V | 00:00:00 | 02:47:11 | 00:00:00 | |
| OE5DRO-10 | 2026-09-05 13:16:36 | 47.65808 | 13.79243 | 105° | 95km/h | 7199m | -3.6m/s | -19.3°C | 5.5% | 419.0hPa | 2.6V | 07:38:00 | 00:00:00 | 00:00:00 | |
| OE5MMP-10 | 2026-09-05 13:16:32 | 47.65834 | 13.79106 | 106° | 95km/h | 7213m | -3.4m/s | -19.4°C | 5.4% | 418.2hPa | 2.6V | 00:00:00 | 02:47:04 | 00:00:00 | |
| OE3JTB-15 | 2026-09-05 13:16:30 | 47.65847 | 13.79036 | 107° | 95km/h | 7220m | -3.5m/s | -19.5°C | 5.5% | 417.8hPa | 2.6V | 07:38:00 | 02:47:02 | 00:00:00 | |
| DO3MHA-11 | 2026-09-05 13:16:29 | 47.65854 | 13.79002 | 108° | 95km/h | 7223m | -3.5m/s | -19.5°C | 5.4% | 417.6hPa | 2.6V | 00:00:00 | 02:47:01 | 00:00:00 | |
| OE5HKT-10 | 2026-09-05 13:16:22 | 47.65898 | 13.78764 | 105° | 95km/h | 7248m | -3.5m/s | -19.7°C | 5.5% | 416.2hPa | 2.6V | 00:00:00 | 00:00:00 | 00:00:00 | |
| OE5REO-15 | 2026-09-05 13:16:21 | 47.65899 | 13.78764 | 106° | 93km/h | 7248m | -3.6m/s | -19.7°C | 5.0% | 416.3hPa | 2.6V | 07:39:00 | 00:00:00 | 00:00:00 | |
| DO3MHA-11 | 2026-09-05 13:16:19 | 47.65918 | 13.78661 | 107° | 93km/h | 7259m | -3.6m/s | -19.8°C | 5.4% | 415.7hPa | 2.6V | 00:00:00 | 02:46:51 | 00:00:00 | |
| OE5DXL-15 | 2026-09-05 13:16:17 | 47.65932 | 13.78593 | 107° | 93km/h | 7266m | -3.7m/s | -19.8°C | 5.4% | 415.3hPa | 2.6V | 07:38:00 | 00:00:00 | 00:00:00 | |
| OE5FHM-15 | 2026-09-05 13:16:15 | 47.65944 | 13.78527 | 106° | 93km/h | 7273m | -3.7m/s | -19.9°C | 5.4% | 414.8hPa | 2.6V | 00:00:00 | 02:46:47 | 00:00:00 | |
| OE5MMP-10 | 2026-09-05 13:16:12 | 47.65964 | 13.78425 | 107° | 93km/h | 7284m | -3.6m/s | -20.1°C | 5.4% | 414.2hPa | 2.6V | 00:00:00 | 02:46:44 | 00:00:00 | |
| OE8JPQ-2 | 2026-09-05 13:16:10 | 47.65977 | 13.78358 | 105° | 95km/h | 7292m | -3.6m/s | -20.0°C | 5.4% | 413.8hPa | 2.6V | 00:00:00 | 00:00:00 | 00:00:00 | |
| DO3MHA-11 | 2026-09-05 13:16:09 | 47.65983 | 13.78324 | 105° | 95km/h | 7296m | -3.7m/s | -20.0°C | 5.4% | 413.6hPa | 2.6V | 00:00:00 | 02:46:41 | 00:00:00 | |
| OE5WHR-10 | 2026-09-05 13:16:05 | 47.66006 | 13.78188 | 103° | 95km/h | 7310m | -3.6m/s | -20.2°C | 5.4% | 412.8hPa | 2.5V | 00:00:00 | 00:00:00 | 00:00:00 | |
| OE5MMP-10 | 2026-09-05 13:16:02 | 47.66024 | 13.78083 | 106° | 93km/h | 7322m | -3.8m/s | -20.3°C | 5.5% | 412.1hPa | 2.5V | 00:00:00 | 02:46:34 | 00:00:00 | |
| OE5HKT-10 | 2026-09-05 13:16:01 | 47.66030 | 13.78049 | 106° | 95km/h | 7325m | -3.6m/s | -20.3°C | 5.5% | 412.0hPa | 2.5V | 00:00:00 | 02:46:33 | 00:00:00 | |
| DO3MHA-11 | 2026-09-05 13:15:59 | 47.66043 | 13.77982 | 105° | 93km/h | 7333m | -3.7m/s | -20.4°C | 5.5% | 411.5hPa | 2.5V | 07:39:00 | 02:46:31 | 00:00:00 | |
| OE5DRO-10 | 2026-09-05 13:15:58 | 47.66048 | 13.77948 | 105° | 95km/h | 7337m | -3.7m/s | -20.4°C | 5.5% | 411.3hPa | 2.5V | 00:00:00 | 00:00:00 | 00:00:00 | |
| OE5MMP-10 | 2026-09-05 13:15:52 | 47.66082 | 13.77743 | 103° | 95km/h | 7358m | -3.8m/s | -20.7°C | 5.4% | 410.1hPa | 2.5V | 07:39:00 | 02:46:24 | 00:00:00 | |
| OE5REO-15 | 2026-09-05 13:15:50 | 47.66092 | 13.77674 | 104° | 93km/h | 7365m | -3.6m/s | -20.7°C | 4.8% | 409.8hPa | 2.5V | 07:39:00 | 00:00:00 | 00:00:00 | |
| DO3MHA-11 | 2026-09-05 13:15:49 | 47.66097 | 13.77640 | 103° | 95km/h | 7369m | -3.5m/s | -20.7°C | 5.4% | 409.5hPa | 2.5V | 00:00:00 | 02:46:21 | 00:00:00 | |
| OE5DXL-15 | 2026-09-05 13:15:47 | 47.66108 | 13.77571 | 103° | 97km/h | 7376m | -3.8m/s | -20.7°C | 5.4% | 409.1hPa | 2.5V | 00:00:00 | 00:00:00 | 00:00:00 | |
| OE5FHM-15 | 2026-09-05 13:15:45 | 47.66119 | 13.77501 | 104° | 97km/h | 7384m | -3.6m/s | -20.8°C | 5.4% | 408.7hPa | 2.5V | 00:00:00 | 02:46:17 | 00:00:00 | |
| OE5MMP-10 | 2026-09-05 13:15:42 | 47.66134 | 13.77398 | 103° | 97km/h | 7395m | -3.8m/s | -20.9°C | 5.3% | 408.0hPa | 2.5V | 00:00:00 | 02:46:14 | 00:00:00 | |
| OE5HKT-10 | 2026-09-05 13:15:40 | 47.66145 | 13.77329 | 104° | 97km/h | 7403m | -3.7m/s | -20.9°C | 5.2% | 407.6hPa | 2.5V | 00:00:00 | 00:00:00 | 00:00:00 | |
| DO3MHA-11 | 2026-09-05 13:15:39 | 47.66151 | 13.77295 | 103° | 97km/h | 7407m | -3.8m/s | -20.9°C | 5.1% | 407.4hPa | 2.5V | 00:00:00 | 02:46:11 | 00:00:00 | |
| OE5REO-15 | 2026-09-05 13:15:34 | 47.66171 | 13.77152 | 104° | 99km/h | 7422m | -3.6m/s | -21.0°C | 4.6% | 406.6hPa | 2.6V | 07:39:00 | 00:00:00 | 00:00:00 | |
| OE5MMP-10 | 2026-09-05 13:15:32 | 47.66187 | 13.77046 | 103° | 97km/h | 7433m | -3.5m/s | -21.0°C | 5.3% | 405.9hPa | 2.6V | 00:00:00 | 02:46:04 | 00:00:00 | |
| OE8JPQ-2 | 2026-09-05 13:15:30 | 47.66198 | 13.76975 | 104° | 99km/h | 7440m | -3.6m/s | -21.1°C | 5.4% | 405.6hPa | 2.6V | 00:00:00 | 00:00:00 | 00:00:00 | |
| DO3MHA-11 | 2026-09-05 13:15:29 | 47.66204 | 13.76940 | 104° | 97km/h | 7444m | -3.7m/s | -21.1°C | 5.5% | 405.3hPa | 2.6V | 00:00:00 | 02:46:01 | 00:00:00 | |
| S52SK | 2026-09-05 13:15:23 | 47.66229 | 13.76764 | 103° | 99km/h | 7462m | -3.6m/s | -21.2°C | 4.7% | 404.4hPa | 2.6V | 00:00:00 | 00:00:00 | 00:00:00 | |
| OE5MMP-10 | 2026-09-05 13:15:22 | 47.66239 | 13.76693 | 102° | 99km/h | 7469m | -3.8m/s | -21.2°C | 5.2% | 403.9hPa | 2.6V | 00:00:00 | 02:45:54 | 00:00:00 | |
| OE5DRO-10 | 2026-09-05 13:15:20 | 47.66249 | 13.76620 | 103° | 100km/h | 7477m | -3.8m/s | -21.3°C | 5.1% | 403.6hPa | 2.6V | 00:00:00 | 00:00:00 | 00:00:00 | |
| DO3MHA-11 | 2026-09-05 13:15:19 | 47.66255 | 13.76584 | 103° | 99km/h | 7481m | -3.8m/s | -21.3°C | 5.1% | 403.3hPa | 2.6V | 00:00:00 | 02:45:51 | 00:00:00 | |
| OE5REO-15 | 2026-09-05 13:15:18 | 47.66255 | 13.76584 | 104° | 99km/h | 7481m | -3.9m/s | -21.4°C | 4.5% | 403.4hPa | 2.6V | 07:39:00 | 00:00:00 | 00:00:00 | |
| OE5DXL-15 | 2026-09-05 13:15:17 | 47.66266 | 13.76513 | 102° | 100km/h | 7488m | -3.7m/s | -21.3°C | 5.1% | 402.9hPa | 2.6V | 00:00:00 | 00:00:00 | 00:00:00 | |
| OE5MMP-10 | 2026-09-05 13:15:12 | 47.66291 | 13.76331 | 102° | 100km/h | 7507m | -3.6m/s | -21.5°C | 5.3% | 401.9hPa | 2.6V | 00:00:00 | 02:45:44 | 00:00:00 | |
| OE5WHR-10 | 2026-09-05 13:15:11 | 47.66295 | 13.76294 | 102° | 102km/h | 7510m | -3.6m/s | -21.5°C | 5.3% | 401.7hPa | 2.6V | 00:00:00 | 00:00:00 | 00:00:00 | |
| OE8JPQ-2 | 2026-09-05 13:15:10 | 47.66301 | 13.76257 | 103° | 100km/h | 7514m | -3.7m/s | -21.6°C | 5.4% | 401.5hPa | 2.5V | 00:00:00 | 00:00:00 | 00:00:00 | |
| DO3MHA-11 | 2026-09-05 13:15:09 | 47.66306 | 13.76220 | 103° | 100km/h | 7518m | -3.7m/s | -21.6°C | 5.4% | 401.3hPa | 2.5V | 00:00:00 | 02:45:41 | 00:00:00 | |
| OE5MMP-10 | 2026-09-05 13:15:02 | 47.66346 | 13.75963 | 102° | 102km/h | 7543m | -3.7m/s | -21.8°C | 5.4% | 399.9hPa | 2.6V | 00:00:00 | 02:45:34 | 00:00:00 | |
| OE5DRO-10 | 2026-09-05 13:15:01 | 47.66351 | 13.75927 | 102° | 102km/h | 7547m | -3.5m/s | -21.8°C | 5.4% | 399.7hPa | 2.6V | 00:00:00 | 00:00:00 | 00:00:00 | |
| DO3MHA-11 | 2026-09-05 13:14:59 | 47.66362 | 13.75851 | 103° | 102km/h | 7554m | -3.6m/s | -21.9°C | 5.3% | 399.3hPa | 2.6V | 00:00:00 | 02:45:31 | 00:00:00 | |
| OE5HKT-10 | 2026-09-05 13:14:58 | 47.66368 | 13.75813 | 104° | 102km/h | 7558m | -3.6m/s | -22.0°C | 5.3% | 399.0hPa | 2.6V | 00:00:00 | 02:45:30 | 00:00:00 | |
| OE5MMP-10 | 2026-09-05 13:14:52 | 47.66406 | 13.75592 | 105° | 102km/h | 7579m | -3.6m/s | -22.1°C | 5.1% | 397.9hPa | 2.6V | 00:00:00 | 02:45:24 | 00:00:00 | |
| DO3MHA-11 | 2026-09-05 13:14:49 | 47.66425 | 13.75482 | 105° | 100km/h | 7590m | -3.5m/s | -22.2°C | 5.1% | 397.3hPa | 2.5V | 00:00:00 | 02:45:21 | 00:00:00 | |
| OE8JPQ-2 | 2026-09-05 13:14:48 | 47.66431 | 13.75445 | 105° | 102km/h | 7593m | -3.7m/s | -22.2°C | 5.1% | 397.1hPa | 2.5V | 00:00:00 | 02:45:20 | 00:00:00 | |
| OE5DXL-15 | 2026-09-05 13:14:47 | 47.66438 | 13.75408 | 105° | 104km/h | 7597m | -3.6m/s | -22.2°C | 5.2% | 397.0hPa | 2.5V | 00:00:00 | 00:00:00 | 00:00:00 | |
| OE5FHM-15 | 2026-09-05 13:14:42 | 47.66470 | 13.75222 | 106° | 104km/h | 7615m | -3.5m/s | -22.3°C | 5.3% | 395.9hPa | 2.5V | 00:00:00 | 02:45:14 | 00:00:00 | |
| PG1ADW-2 | 2026-09-05 13:14:38 | 47.66495 | 13.75074 | 106° | 104km/h | 7630m | -3.7m/s | -22.6°C | 5.3% | 395.2hPa | 2.5V | 07:40:00 | 00:00:00 | 00:00:00 | |
| OE5HKT-10 | 2026-09-05 13:14:37 | 47.66502 | 13.75037 | 106° | 104km/h | 7634m | -3.6m/s | -22.6°C | 5.3% | 395.0hPa | 2.5V | 00:00:00 | 00:00:00 | 00:00:00 | |
| OE5WHR-10 | 2026-09-05 13:14:34 | 47.66523 | 13.74925 | 106° | 104km/h | 7645m | -3.7m/s | -22.7°C | 5.2% | 394.3hPa | 2.6V | 00:00:00 | 00:00:00 | 00:00:00 | |
| OE5REO-15 | 2026-09-05 13:14:33 | 47.66523 | 13.74925 | 106° | 104km/h | 7645m | -3.7m/s | -22.8°C | 4.6% | 394.4hPa | 2.6V | 07:40:00 | 00:00:00 | 00:00:00 | |
| OE5MMP-10 | 2026-09-05 13:14:32 | 47.66538 | 13.74849 | 107° | 104km/h | 7652m | -3.6m/s | -22.7°C | 5.3% | 394.0hPa | 2.6V | 07:40:00 | 02:45:04 | 00:00:00 | |
| OE8JPQ-2 | 2026-09-05 13:14:28 | 47.66566 | 13.74699 | 106° | 104km/h | 7667m | -3.7m/s | -22.9°C | 5.3% | 393.1hPa | 2.6V | 07:40:00 | 00:00:00 | 00:00:00 | |
| OE5DRO-10 | 2026-09-05 13:14:23 | 47.66603 | 13.74512 | 107° | 104km/h | 7685m | -3.7m/s | -23.0°C | 5.3% | 392.2hPa | 2.6V | 00:00:00 | 00:00:00 | 00:00:00 | |
| OE5MMP-10 | 2026-09-05 13:14:22 | 47.66610 | 13.74475 | 107° | 104km/h | 7689m | -3.8m/s | -23.0°C | 5.3% | 392.0hPa | 2.6V | 00:00:00 | 02:44:54 | 00:00:00 | |
| PG1ADW-2 | 2026-09-05 13:14:18 | 47.66640 | 13.74325 | 107° | 104km/h | 7704m | -3.6m/s | -23.2°C | 5.4% | 391.1hPa | 2.5V | 00:00:00 | 00:00:00 | 00:00:00 | |
| OE5DXL-15 | 2026-09-05 13:14:17 | 47.66647 | 13.74287 | 107° | 104km/h | 7708m | -3.8m/s | -23.2°C | 5.4% | 391.0hPa | 2.6V | 00:00:00 | 00:00:00 | 00:00:00 | |
| OE5HKT-10 | 2026-09-05 13:14:16 | 47.66655 | 13.74250 | 107° | 104km/h | 7711m | -3.6m/s | -23.3°C | 5.4% | 390.7hPa | 2.6V | 07:40:00 | 00:00:00 | 00:00:00 | |
| S52SK | 2026-09-05 13:14:13 | 47.66669 | 13.74176 | 106° | 104km/h | 7719m | -3.7m/s | -23.5°C | 4.8% | 390.3hPa | 2.6V | 00:00:00 | 00:00:00 | 00:00:00 | |
| OE5FHM-15 | 2026-09-05 13:14:12 | 47.66683 | 13.74100 | 107° | 104km/h | 7726m | -3.5m/s | -23.4°C | 5.5% | 389.9hPa | 2.6V | 00:00:00 | 02:44:44 | 00:00:00 | |
| OE8JPQ-2 | 2026-09-05 13:14:08 | 47.66711 | 13.73950 | 105° | 104km/h | 7741m | -3.8m/s | -23.6°C | 5.5% | 389.2hPa | 2.5V | 00:00:00 | 00:00:00 | 00:00:00 | |
| OE5DRO-10 | 2026-09-05 13:14:04 | 47.66737 | 13.73800 | 104° | 104km/h | 7756m | -3.8m/s | -23.7°C | 5.5% | 388.4hPa | 2.5V | 07:41:00 | 00:00:00 | 00:00:00 | |
| OE5REO-15 | 2026-09-05 13:14:03 | 47.66737 | 13.73800 | 105° | 104km/h | 7756m | -3.8m/s | -23.7°C | 4.8% | 388.4hPa | 2.5V | 07:41:00 | 00:00:00 | 00:00:00 | |
| OE5MMP-10 | 2026-09-05 13:14:02 | 47.66750 | 13.73725 | 105° | 104km/h | 7763m | -3.7m/s | -23.7°C | 5.5% | 387.9hPa | 2.5V | 00:00:00 | 02:44:34 | 00:00:00 | |
| PG1ADW-2 | 2026-09-05 13:13:58 | 47.66775 | 13.73573 | 105° | 104km/h | 7778m | -3.6m/s | -23.8°C | 5.7% | 387.2hPa | 2.5V | 00:00:00 | 02:44:30 | 00:00:00 | |
| OE5HKT-10 | 2026-09-05 13:13:55 | 47.66793 | 13.73460 | 103° | 104km/h | 7789m | -3.8m/s | -23.9°C | 5.6% | 386.6hPa | 2.5V | 00:00:00 | 02:44:27 | 00:00:00 | |
| OE5WHR-10 | 2026-09-05 13:13:52 | 47.66811 | 13.73345 | 104° | 106km/h | 7801m | -3.7m/s | -23.9°C | 5.6% | 386.0hPa | 2.5V | 00:00:00 | 00:00:00 | 00:00:00 | |
| OE8JPQ-2 | 2026-09-05 13:13:48 | 47.66834 | 13.73192 | 103° | 106km/h | 7816m | -3.9m/s | -23.9°C | 5.4% | 385.2hPa | 2.5V | 00:00:00 | 02:44:20 | 00:00:00 | |
| OE5DXL-15 | 2026-09-05 13:13:47 | 47.66840 | 13.73153 | 103° | 106km/h | 7820m | -3.8m/s | -23.9°C | 5.4% | 385.0hPa | 2.5V | 00:00:00 | 00:00:00 | 00:00:00 | |
| OE5DRO-10 | 2026-09-05 13:13:45 | 47.66851 | 13.73076 | 102° | 106km/h | 7827m | -3.8m/s | -24.0°C | 5.4% | 384.5hPa | 2.5V | 00:00:00 | 00:00:00 | 00:00:00 | |
| OE5MMP-10 | 2026-09-05 13:13:42 | 47.66868 | 13.72960 | 104° | 104km/h | 7839m | -3.8m/s | -24.0°C | 5.4% | 383.9hPa | 2.5V | 00:00:00 | 02:44:14 | 00:00:00 | |
| PG1ADW-2 | 2026-09-05 13:13:38 | 47.66891 | 13.72808 | 103° | 106km/h | 7854m | -3.9m/s | -24.0°C | 5.4% | 383.1hPa | 2.5V | 00:00:00 | 00:00:00 | 00:00:00 | |
| OE3JTB-15 | 2026-09-05 13:13:36 | 47.66903 | 13.72732 | 103° | 108km/h | 7862m | -3.8m/s | -24.1°C | 5.3% | 382.7hPa | 2.5V | 00:00:00 | 02:44:08 | 00:00:00 | |
| OE5HKT-10 | 2026-09-05 13:13:34 | 47.66914 | 13.72656 | 102° | 108km/h | 7869m | -3.8m/s | -24.0°C | 5.5% | 382.3hPa | 2.5V | 00:00:00 | 00:00:00 | 00:00:00 | |
| OE5MMP-10 | 2026-09-05 13:13:32 | 47.66925 | 13.72578 | 103° | 108km/h | 7877m | -3.9m/s | -24.0°C | 5.8% | 381.9hPa | 2.6V | 00:00:00 | 02:44:04 | 00:00:00 | |
| OE5WHR-10 | 2026-09-05 13:13:29 | 47.66941 | 13.72460 | 102° | 110km/h | 7889m | -3.8m/s | -24.1°C | 5.6% | 381.3hPa | 2.6V | 07:41:00 | 00:00:00 | 00:00:00 | |
| OE8JPQ-2 | 2026-09-05 13:13:28 | 47.66947 | 13.72420 | 103° | 110km/h | 7892m | -3.8m/s | -24.1°C | 5.6% | 381.2hPa | 2.6V | 00:00:00 | 00:00:00 | 00:00:00 | |
| OE5DRO-10 | 2026-09-05 13:13:26 | 47.66960 | 13.72340 | 103° | 110km/h | 7900m | -4.0m/s | -24.2°C | 5.8% | 380.7hPa | 2.6V | 00:00:00 | 00:00:00 | 00:00:00 | |
| OE5MMP-10 | 2026-09-05 13:13:22 | 47.66983 | 13.72183 | 104° | 108km/h | 7916m | -3.7m/s | -24.3°C | 6.6% | 379.8hPa | 2.6V | 00:00:00 | 02:43:54 | 00:00:00 | |
| PG1ADW-2 | 2026-09-05 13:13:18 | 47.67007 | 13.72025 | 103° | 110km/h | 7931m | -3.9m/s | -24.4°C | 8.7% | 379.0hPa | 2.5V | 00:00:00 | 00:00:00 | 00:00:00 | |
| OE5DXL-15 | 2026-09-05 13:13:17 | 47.67013 | 13.71986 | 103° | 111km/h | 7935m | -4.0m/s | -24.4°C | 9.4% | 378.9hPa | 2.5V | 00:00:00 | 00:00:00 | 00:00:00 | |
| OE5REO-15 | 2026-09-05 13:13:16 | 47.67013 | 13.71986 | 104° | 108km/h | 7935m | -4.0m/s | -24.4°C | 8.5% | 378.9hPa | 2.5V | 07:42:00 | 00:00:00 | 00:00:00 | |
| OE5HKT-10 | 2026-09-05 13:13:13 | 47.67035 | 13.71826 | 102° | 111km/h | 7951m | -3.8m/s | -24.5°C | 12.0% | 378.0hPa | 2.5V | 00:00:00 | 00:00:00 | 00:00:00 | |
| OE5FHM-15 | 2026-09-05 13:13:12 | 47.67041 | 13.71785 | 103° | 113km/h | 7954m | -3.9m/s | -24.5°C | 12.6% | 377.8hPa | 2.5V | 00:00:00 | 02:43:44 | 00:00:00 | |
| OE8JPQ-2 | 2026-09-05 13:13:08 | 47.67066 | 13.71623 | 104° | 113km/h | 7971m | -4.3m/s | -24.5°C | 16.4% | 377.0hPa | 2.5V | 00:00:00 | 00:00:00 | 00:00:00 | |
| OE3JTB-15 | 2026-09-05 13:13:07 | 47.67073 | 13.71582 | 105° | 113km/h | 7975m | -4.1m/s | -24.6°C | 17.1% | 376.8hPa | 2.5V | 00:00:00 | 00:00:00 | 00:00:00 | |
| OE5WHR-10 | 2026-09-05 13:13:05 | 47.67087 | 13.71502 | 105° | 113km/h | 7983m | -4.0m/s | -24.5°C | 18.2% | 376.4hPa | 2.5V | 00:00:00 | 02:43:37 | 00:00:00 | |
| OE5MMP-10 | 2026-09-05 13:13:02 | 47.67106 | 13.71382 | 103° | 113km/h | 7995m | -3.7m/s | -24.6°C | 20.0% | 375.8hPa | 2.5V | 00:00:00 | 02:43:34 | 00:00:00 | |
| OE5REO-15 | 2026-09-05 13:13:00 | 47.67112 | 13.71342 | 104° | 111km/h | 7999m | -3.9m/s | -24.8°C | 19.4% | 375.6hPa | 2.5V | 07:42:00 | 00:00:00 | 00:00:00 | |
| PG1ADW-2 | 2026-09-05 13:12:58 | 47.67130 | 13.71218 | 103° | 115km/h | 8010m | -3.9m/s | -24.8°C | 21.7% | 375.0hPa | 2.5V | 00:00:00 | 00:00:00 | 00:00:00 | |
| OE5MMP-10 | 2026-09-05 13:12:52 | 47.67173 | 13.70969 | 105° | 113km/h | 8034m | -3.9m/s | -25.0°C | 27.2% | 373.8hPa | 2.5V | 00:00:00 | 02:43:24 | 00:00:00 | |
| OE8JPQ-2 | 2026-09-05 13:12:48 | 47.67203 | 13.70805 | 105° | 115km/h | 8050m | -4.1m/s | -25.0°C | 30.5% | 372.9hPa | 2.5V | 00:00:00 | 02:43:20 | 00:00:00 | |
| OE5DXL-15 | 2026-09-05 13:12:47 | 47.67210 | 13.70764 | 104° | 117km/h | 8054m | -3.9m/s | -25.1°C | 30.6% | 372.8hPa | 2.5V | 00:00:00 | 00:00:00 | 00:00:00 | |
| OE5REO-15 | 2026-09-05 13:12:45 | 47.67217 | 13.70723 | 105° | 115km/h | 8058m | -4.1m/s | -25.2°C | 28.9% | 372.6hPa | 2.6V | 07:42:00 | 00:00:00 | 00:00:00 | |
| OE5WHR-10 | 2026-09-05 13:12:44 | 47.67232 | 13.70639 | 106° | 117km/h | 8067m | -3.9m/s | -25.3°C | 31.1% | 372.1hPa | 2.6V | 00:00:00 | 00:00:00 | 00:00:00 | |
| OE5FHM-15 | 2026-09-05 13:12:42 | 47.67247 | 13.70557 | 105° | 119km/h | 8074m | -4.0m/s | -25.3°C | 31.2% | 371.7hPa | 2.5V | 00:00:00 | 02:43:14 | 00:00:00 | |
| PG1ADW-2 | 2026-09-05 13:12:38 | 47.67277 | 13.70390 | 106° | 119km/h | 8091m | -3.9m/s | -25.5°C | 33.3% | 370.9hPa | 2.5V | 00:00:00 | 02:43:10 | 00:00:00 | |
| OE5MMP-10 | 2026-09-05 13:12:32 | 47.67323 | 13.70137 | 105° | 119km/h | 8115m | -4.1m/s | -25.6°C | 34.5% | 369.6hPa | 2.5V | 00:00:00 | 02:43:04 | 00:00:00 | |
| OE5HKT-10 | 2026-09-05 13:12:31 | 47.67330 | 13.70095 | 105° | 119km/h | 8119m | -3.9m/s | -25.6°C | 34.9% | 369.4hPa | 2.5V | 00:00:00 | 00:00:00 | 00:00:00 | |
| OE5DRO-10 | 2026-09-05 13:12:29 | 47.67346 | 13.70009 | 106° | 120km/h | 8127m | -4.1m/s | -25.7°C | 35.1% | 369.0hPa | 2.6V | 00:00:00 | 00:00:00 | 00:00:00 | |
| OE8JPQ-2 | 2026-09-05 13:12:28 | 47.67354 | 13.69966 | 107° | 120km/h | 8131m | -4.1m/s | -25.7°C | 35.2% | 368.9hPa | 2.6V | 00:00:00 | 00:00:00 | 00:00:00 | |
| OE5WHR-10 | 2026-09-05 13:12:23 | 47.67395 | 13.69750 | 107° | 120km/h | 8151m | -4.2m/s | -25.9°C | 36.9% | 367.8hPa | 2.6V | 00:00:00 | 00:00:00 | 00:00:00 | |
| OE5MMP-10 | 2026-09-05 13:12:22 | 47.67404 | 13.69707 | 107° | 120km/h | 8155m | -4.0m/s | -25.9°C | 38.3% | 367.6hPa | 2.6V | 00:00:00 | 02:42:54 | 00:00:00 | |
| PG1ADW-2 | 2026-09-05 13:12:18 | 47.67439 | 13.69533 | 108° | 120km/h | 8171m | -4.1m/s | -26.0°C | 39.9% | 366.8hPa | 2.5V | 00:00:00 | 00:00:00 | 00:00:00 | |
| OE5DXL-15 | 2026-09-05 13:12:17 | 47.67448 | 13.69491 | 108° | 119km/h | 8175m | -4.0m/s | -26.0°C | 39.8% | 366.6hPa | 2.6V | 07:42:00 | 00:00:00 | 00:00:00 | |
| OE5REO-15 | 2026-09-05 13:12:14 | 47.67466 | 13.69406 | 107° | 119km/h | 8183m | -4.1m/s | -26.2°C | 38.6% | 366.2hPa | 2.6V | 07:43:00 | 00:00:00 | 00:00:00 | |
| OE5FHM-15 | 2026-09-05 13:12:12 | 47.67492 | 13.69277 | 108° | 119km/h | 8195m | -4.0m/s | -26.2°C | 42.6% | 365.5hPa | 2.6V | 00:00:00 | 02:42:44 | 00:00:00 | |
| OE5HKT-10 | 2026-09-05 13:12:10 | 47.67510 | 13.69192 | 107° | 120km/h | 8203m | -4.0m/s | -26.3°C | 43.9% | 365.2hPa | 2.6V | 00:00:00 | 00:00:00 | 00:00:00 | |
| OE3JTB-15 | 2026-09-05 13:12:09 | 47.67518 | 13.69149 | 106° | 119km/h | 8207m | -3.9m/s | -26.3°C | 44.9% | 364.9hPa | 2.6V | 00:00:00 | 02:42:41 | 00:00:00 | |
| OE8JPQ-2 | 2026-09-05 13:12:08 | 47.67527 | 13.69106 | 107° | 120km/h | 8212m | -4.2m/s | -26.4°C | 46.6% | 364.7hPa | 2.6V | 00:00:00 | 00:00:00 | 00:00:00 | |
| OE5MMP-10 | 2026-09-05 13:12:02 | 47.67581 | 13.68846 | 109° | 120km/h | 8236m | -4.1m/s | -26.2°C | 51.9% | 363.4hPa | 2.6V | 00:00:00 | 02:42:34 | 00:00:00 | |
| OE5REO-15 | 2026-09-05 13:11:59 | 47.67600 | 13.68762 | 109° | 119km/h | 8244m | -4.1m/s | -26.3°C | 50.0% | 363.1hPa | 2.6V | 07:43:00 | 00:00:00 | 00:00:00 | |
| PG1ADW-2 | 2026-09-05 13:11:58 | 47.67618 | 13.68676 | 108° | 119km/h | 8252m | -4.2m/s | 0°C | 0% | 0hPa | 2.6V | 07:43:00 | 00:00:00 | 00:00:00 | |
| OE5MMP-10 | 2026-09-05 13:11:52 | 47.67673 | 13.68420 | 109° | 119km/h | 8277m | -4.1m/s | -26.5°C | 57.0% | 361.4hPa | 2.6V | 07:43:00 | 02:42:24 | 00:00:00 | |
| OE5DRO-10 | 2026-09-05 13:11:51 | 47.67682 | 13.68378 | 108° | 119km/h | 8281m | -4.0m/s | -26.6°C | 57.1% | 361.2hPa | 2.6V | 00:00:00 | 00:00:00 | 00:00:00 | |
| OE5HKT-10 | 2026-09-05 13:11:49 | 47.67700 | 13.68293 | 107° | 119km/h | 8289m | -4.1m/s | -26.7°C | 57.5% | 360.9hPa | 2.6V | 00:00:00 | 02:42:21 | 00:00:00 | |
| OE8JPQ-2 | 2026-09-05 13:11:48 | 47.67709 | 13.68251 | 108° | 119km/h | 8293m | -4.0m/s | -26.7°C | 57.5% | 360.7hPa | 2.6V | 07:43:00 | 02:42:20 | 00:00:00 | |
| OE5DXL-15 | 2026-09-05 13:11:47 | 47.67718 | 13.68208 | 109° | 117km/h | 8297m | -4.1m/s | -26.8°C | 57.7% | 360.4hPa | 2.6V | 00:00:00 | 00:00:00 | 00:00:00 | |
| S52SK | 2026-09-05 13:11:46 | 47.67718 | 13.68208 | 110° | 119km/h | 8297m | -4.2m/s | -26.8°C | 55.0% | 360.4hPa | 2.6V | 00:00:00 | 00:00:00 | 00:00:00 | |
| OE5REO-15 | 2026-09-05 13:11:43 | 47.67746 | 13.68082 | 108° | 119km/h | 8309m | -4.2m/s | -26.8°C | 57.3% | 359.8hPa | 2.6V | 07:44:00 | 00:00:00 | 00:00:00 | |
| OE5MMP-10 | 2026-09-05 13:11:42 | 47.67764 | 13.67996 | 108° | 117km/h | 8318m | -4.0m/s | -26.8°C | 62.4% | 359.4hPa | 2.6V | 00:00:00 | 02:42:14 | 00:00:00 | |
| OE5WHR-10 | 2026-09-05 13:11:41 | 47.67773 | 13.67954 | 108° | 117km/h | 8322m | -4.0m/s | -26.8°C | 63.4% | 359.2hPa | 2.6V | 00:00:00 | 00:00:00 | 00:00:00 | |
| OE3JTB-15 | 2026-09-05 13:11:40 | 47.67781 | 13.67912 | 107° | 117km/h | 8326m | -4.0m/s | -26.9°C | 64.0% | 358.9hPa | 2.6V | 00:00:00 | 00:00:00 | 00:00:00 | |
| PG1ADW-2 | 2026-09-05 13:11:38 | 47.67797 | 13.67827 | 106° | 119km/h | 8334m | -4.1m/s | -26.9°C | 64.7% | 358.6hPa | 2.6V | 00:00:00 | 00:00:00 | 00:00:00 | |
| OE5MMP-10 | 2026-09-05 13:11:32 | 47.67845 | 13.67573 | 106° | 119km/h | 8359m | -4.1m/s | -27.1°C | 62.9% | 357.3hPa | 2.6V | 00:00:00 | 02:42:04 | 00:00:00 | |
| OE5HKT-10 | 2026-09-05 13:11:28 | 47.67879 | 13.67403 | 107° | 117km/h | 8375m | -4.1m/s | -27.2°C | 61.2% | 356.5hPa | 2.6V | 07:43:00 | 00:00:00 | 00:00:00 | |
| OE5REO-15 | 2026-09-05 13:11:27 | 47.67879 | 13.67403 | 107° | 119km/h | 8375m | -4.2m/s | -27.3°C | 58.3% | 356.6hPa | 2.5V | 07:44:00 | 00:00:00 | 00:00:00 | |
| OE5MMP-10 | 2026-09-05 13:11:22 | 47.67931 | 13.67151 | 107° | 117km/h | 8399m | -3.9m/s | -27.4°C | 58.1% | 355.3hPa | 2.5V | 00:00:00 | 02:41:54 | 00:00:00 | |
| OE5WHR-10 | 2026-09-05 13:11:17 | 47.67974 | 13.66941 | 107° | 113km/h | 8420m | -4.0m/s | -27.4°C | 52.0% | 354.4hPa | 2.5V | 00:00:00 | 00:00:00 | 00:00:00 | |
| PG1ADW-2 | 2026-09-05 13:11:14 | 47.68000 | 13.66814 | 108° | 115km/h | 8432m | -4.0m/s | -27.5°C | 50.0% | 353.7hPa | 2.5V | 00:00:00 | 02:41:46 | 00:00:00 | |
| OE5DRO-10 | 2026-09-05 13:11:13 | 47.68009 | 13.66773 | 108° | 115km/h | 8436m | -3.9m/s | -27.5°C | 50.0% | 353.6hPa | 2.5V | 00:00:00 | 00:00:00 | 00:00:00 | |
| OE5FHM-15 | 2026-09-05 13:11:12 | 47.68018 | 13.66732 | 107° | 115km/h | 8440m | -3.9m/s | -27.6°C | 50.3% | 353.3hPa | 2.5V | 00:00:00 | 02:41:44 | 00:00:00 | |
| OE3JTB-15 | 2026-09-05 13:11:11 | 47.68026 | 13.66690 | 108° | 115km/h | 8444m | -3.9m/s | -27.6°C | 50.1% | 353.2hPa | 2.5V | 00:00:00 | 00:00:00 | 00:00:00 | |
| OE8JPQ-2 | 2026-09-05 13:11:08 | 47.68052 | 13.66568 | 108° | 115km/h | 8456m | -4.0m/s | -27.7°C | 50.6% | 352.5hPa | 2.5V | 00:00:00 | 00:00:00 | 00:00:00 | |
| OE5HKT-10 | 2026-09-05 13:11:07 | 47.68061 | 13.66526 | 107° | 115km/h | 8460m | -4.2m/s | -27.7°C | 50.8% | 352.3hPa | 2.5V | 00:00:00 | 00:00:00 | 00:00:00 | |
| OE5MMP-10 | 2026-09-05 13:11:02 | 47.68106 | 13.66319 | 108° | 115km/h | 8480m | -3.8m/s | -27.9°C | 52.0% | 351.4hPa | 2.5V | 00:00:00 | 02:41:34 | 00:00:00 | |
| OE5REO-15 | 2026-09-05 13:10:56 | 47.68150 | 13.66114 | 108° | 113km/h | 8500m | -4.0m/s | -28.1°C | 50.0% | 350.4hPa | 2.5V | 07:45:00 | 00:00:00 | 00:00:00 | |
| OE5DRO-10 | 2026-09-05 13:10:54 | 47.68177 | 13.65992 | 108° | 113km/h | 8512m | -4.0m/s | -28.2°C | 53.0% | 349.8hPa | 2.5V | 00:00:00 | 00:00:00 | 00:00:00 | |
| PG1ADW-2 | 2026-09-05 13:10:53 | 47.68185 | 13.65952 | 108° | 113km/h | 8516m | -4.0m/s | -28.2°C | 52.9% | 349.6hPa | 2.6V | 00:00:00 | 00:00:00 | 00:00:00 | |
| OE5MMP-10 | 2026-09-05 13:10:52 | 47.68194 | 13.65911 | 108° | 113km/h | 8520m | -4.0m/s | -28.2°C | 52.6% | 349.4hPa | 2.6V | 00:00:00 | 02:41:24 | 00:00:00 | |
| OE8JPQ-2 | 2026-09-05 13:10:48 | 47.68231 | 13.65748 | 109° | 111km/h | 8537m | -4.1m/s | -28.4°C | 52.2% | 348.6hPa | 2.6V | 00:00:00 | 02:41:20 | 00:00:00 | |
| OE5DXL-15 | 2026-09-05 13:10:47 | 47.68240 | 13.65708 | 109° | 111km/h | 8541m | -4.0m/s | -28.4°C | 51.7% | 348.4hPa | 2.6V | 00:00:00 | 00:00:00 | 00:00:00 | |
| OE5HKT-10 | 2026-09-05 13:10:46 | 47.68249 | 13.65668 | 109° | 111km/h | 8545m | -4.0m/s | -28.4°C | 51.4% | 348.2hPa | 2.6V | 00:00:00 | 02:41:18 | 00:00:00 | |
| OE5FHM-15 | 2026-09-05 13:10:42 | 47.68286 | 13.65508 | 108° | 111km/h | 8561m | -3.8m/s | -28.5°C | 50.5% | 347.4hPa | 2.6V | 00:00:00 | 02:41:14 | 00:00:00 | |
| OE5REO-15 | 2026-09-05 13:10:41 | 47.68286 | 13.65508 | 109° | 111km/h | 8561m | -3.9m/s | -28.5°C | 47.8% | 347.4hPa | 2.6V | 07:45:00 | 00:00:00 | 00:00:00 | |
| OE5WHR-10 | 2026-09-05 13:10:37 | 47.68330 | 13.65310 | 109° | 111km/h | 8581m | -4.0m/s | -28.6°C | 49.8% | 346.5hPa | 2.6V | 00:00:00 | 02:41:09 | 00:00:00 | |
| OE5DRO-10 | 2026-09-05 13:10:35 | 47.68348 | 13.65230 | 110° | 111km/h | 8589m | -4.0m/s | -28.7°C | 48.9% | 346.1hPa | 2.6V | 00:00:00 | 00:00:00 | 00:00:00 | |
| PG1ADW-2 | 2026-09-05 13:10:33 | 47.68368 | 13.65152 | 111° | 111km/h | 8597m | -4.0m/s | -28.8°C | 47.9% | 345.7hPa | 2.6V | 00:00:00 | 00:00:00 | 00:00:00 | |
| OE5MMP-10 | 2026-09-05 13:10:32 | 47.68377 | 13.65114 | 110° | 111km/h | 8601m | -4.0m/s | -28.7°C | 46.9% | 345.5hPa | 2.6V | 07:44:00 | 02:41:04 | 00:00:00 | |
| OE8JPQ-2 | 2026-09-05 13:10:28 | 47.68414 | 13.64958 | 111° | 111km/h | 8616m | -3.8m/s | -28.8°C | 44.4% | 344.7hPa | 2.6V | 00:00:00 | 00:00:00 | 00:00:00 | |
| S52SK | 2026-09-05 13:10:27 | 47.68415 | 13.64958 | 111° | 111km/h | 8616m | -3.9m/s | -28.9°C | 41.8% | 344.8hPa | 2.5V | 00:00:00 | 00:00:00 | 00:00:00 | |
| OE5HKT-10 | 2026-09-05 13:10:25 | 47.68443 | 13.64840 | 110° | 111km/h | 8628m | -3.9m/s | -28.9°C | 43.2% | 344.1hPa | 2.5V | 00:00:00 | 00:00:00 | 00:00:00 | |
| OE5MMP-10 | 2026-09-05 13:10:22 | 47.68473 | 13.64723 | 111° | 111km/h | 8640m | -4.0m/s | -28.9°C | 42.5% | 343.5hPa | 2.6V | 00:00:00 | 02:40:54 | 00:00:00 | |
| S52SK | 2026-09-05 13:10:21 | 47.68473 | 13.64723 | 112° | 110km/h | 8640m | -4.1m/s | -29.0°C | 40.0% | 343.5hPa | 2.6V | 00:00:00 | 00:00:00 | 00:00:00 | |
| OE5DXL-15 | 2026-09-05 13:10:17 | 47.68521 | 13.64528 | 111° | 111km/h | 8661m | -4.0m/s | -29.0°C | 41.1% | 342.6hPa | 2.6V | 00:00:00 | 00:00:00 | 00:00:00 | |
| OE5WHR-10 | 2026-09-05 13:10:16 | 47.68531 | 13.64489 | 110° | 111km/h | 8665m | -4.0m/s | -29.0°C | 40.4% | 342.4hPa | 2.6V | 07:44:00 | 00:00:00 | 00:00:00 | |
| S52SK | 2026-09-05 13:10:15 | 47.68531 | 13.64489 | 111° | 111km/h | 8665m | -4.0m/s | -29.1°C | 38.0% | 342.4hPa | 2.5V | 00:00:00 | 00:00:00 | 00:00:00 | |
| OE3JTB-15 | 2026-09-05 13:10:13 | 47.68561 | 13.64370 | 112° | 113km/h | 8677m | -4.1m/s | -29.1°C | 39.3% | 341.8hPa | 2.5V | 00:00:00 | 00:00:00 | 00:00:00 | |
| OE5FHM-15 | 2026-09-05 13:10:12 | 47.68571 | 13.64331 | 113° | 113km/h | 8681m | -4.0m/s | -29.2°C | 39.3% | 341.7hPa | 2.6V | 00:00:00 | 02:40:44 | 00:00:00 | |
| OE5REO-15 | 2026-09-05 13:10:10 | 47.68582 | 13.64293 | 113° | 110km/h | 8685m | -3.9m/s | -29.3°C | 36.7% | 341.5hPa | 2.6V | 07:45:00 | 00:00:00 | 00:00:00 | |
| OE8JPQ-2 | 2026-09-05 13:10:08 | 47.68612 | 13.64177 | 112° | 113km/h | 8697m | -4.0m/s | -29.3°C | 38.3% | 340.9hPa | 2.6V | 00:00:00 | 00:00:00 | 00:00:00 | |
| OE5HKT-10 | 2026-09-05 13:10:04 | 47.68654 | 13.64024 | 112° | 113km/h | 8713m | -4.0m/s | -29.3°C | 38.0% | 340.2hPa | 2.6V | 00:00:00 | 00:00:00 | 00:00:00 | |
| OE5MMP-10 | 2026-09-05 13:10:02 | 47.68675 | 13.63945 | 113° | 113km/h | 8721m | -4.2m/s | -29.3°C | 37.9% | 339.8hPa | 2.6V | 00:00:00 | 02:40:34 | 00:00:00 | |
| OE5DRO-10 | 2026-09-05 13:09:57 | 47.68730 | 13.63750 | 112° | 113km/h | 8741m | -4.1m/s | -29.6°C | 38.2% | 338.8hPa | 2.6V | 00:00:00 | 00:00:00 | 00:00:00 | |
| OE5WHR-10 | 2026-09-05 13:09:56 | 47.68751 | 13.63670 | 112° | 113km/h | 8750m | -4.2m/s | -29.6°C | 38.3% | 338.4hPa | 2.6V | 00:00:00 | 00:00:00 | 00:00:00 | |
| PG1ADW-2 | 2026-09-05 13:09:53 | 47.68772 | 13.63592 | 111° | 113km/h | 8758m | -3.9m/s | -29.7°C | 38.2% | 337.9hPa | 2.6V | 00:00:00 | 02:40:25 | 00:00:00 | |
| OE5MMP-10 | 2026-09-05 13:09:52 | 47.68782 | 13.63552 | 112° | 113km/h | 8762m | -4.1m/s | -29.7°C | 37.9% | 337.8hPa | 2.6V | 00:00:00 | 02:40:24 | 00:00:00 | |
| OE8JPQ-2 | 2026-09-05 13:09:48 | 47.68827 | 13.63395 | 114° | 113km/h | 8778m | -3.9m/s | -29.9°C | 36.5% | 337.0hPa | 2.6V | 00:00:00 | 02:40:20 | 00:00:00 | |
| OE5DXL-15 | 2026-09-05 13:09:47 | 47.68838 | 13.63356 | 114° | 113km/h | 8782m | -4.0m/s | -29.9°C | 35.7% | 336.8hPa | 2.6V | 00:00:00 | 00:00:00 | 00:00:00 | |
| OE3JTB-15 | 2026-09-05 13:09:44 | 47.68873 | 13.63240 | 114° | 113km/h | 8794m | -4.1m/s | -29.9°C | 34.2% | 336.2hPa | 2.6V | 00:00:00 | 00:00:00 | 00:00:00 | |
| OE5HKT-10 | 2026-09-05 13:09:43 | 47.68884 | 13.63201 | 113° | 113km/h | 8798m | -4.1m/s | -29.9°C | 33.7% | 336.0hPa | 2.6V | 00:00:00 | 02:40:15 | 00:00:00 | |
| OE5FHM-15 | 2026-09-05 13:09:42 | 47.68894 | 13.63162 | 113° | 113km/h | 8803m | -4.0m/s | -29.9°C | 33.2% | 335.9hPa | 2.6V | 07:45:00 | 02:40:14 | 00:00:00 | |
| OE5REO-15 | 2026-09-05 13:09:40 | 47.68905 | 13.63123 | 114° | 115km/h | 8807m | -4.0m/s | -29.9°C | 30.6% | 335.7hPa | 2.6V | 07:45:00 | 00:00:00 | 00:00:00 | |
| OE5DRO-10 | 2026-09-05 13:09:38 | 47.68939 | 13.63006 | 113° | 113km/h | 8819m | -4.0m/s | -29.9°C | 32.0% | 335.1hPa | 2.6V | 00:00:00 | 00:00:00 | 00:00:00 | |
| OE5WHR-10 | 2026-09-05 13:09:34 | 47.68984 | 13.62848 | 115° | 113km/h | 8835m | -4.0m/s | -30.0°C | 31.4% | 334.3hPa | 2.6V | 00:00:00 | 02:40:06 | 00:00:00 | |
| PG1ADW-2 | 2026-09-05 13:09:33 | 47.68997 | 13.62809 | 115° | 113km/h | 8839m | -4.0m/s | -30.0°C | 31.1% | 334.1hPa | 2.6V | 00:00:00 | 00:00:00 | 00:00:00 | |
| OE5MMP-10 | 2026-09-05 13:09:32 | 47.69008 | 13.62771 | 114° | 113km/h | 8843m | -4.0m/s | -30.0°C | 30.8% | 333.9hPa | 2.6V | 00:00:00 | 02:40:04 | 00:00:00 | |
| OE8JPQ-2 | 2026-09-05 13:09:28 | 47.69054 | 13.62617 | 115° | 113km/h | 8859m | -4.1m/s | -30.2°C | 31.0% | 333.2hPa | 2.6V | 00:00:00 | 00:00:00 | 00:00:00 | |
| OE5REO-15 | 2026-09-05 13:09:24 | 47.69089 | 13.62501 | 115° | 115km/h | 8871m | -3.8m/s | -30.3°C | 28.8% | 332.7hPa | 2.6V | 07:45:00 | 00:00:00 | 00:00:00 | |
| OE5HKT-10 | 2026-09-05 13:09:22 | 47.69125 | 13.62384 | 115° | 113km/h | 8883m | -4.0m/s | -30.4°C | 31.2% | 332.1hPa | 2.6V | 00:00:00 | 00:00:00 | 00:00:00 | |
| OE5DRO-10 | 2026-09-05 13:09:19 | 47.69162 | 13.62266 | 116° | 113km/h | 8896m | -4.2m/s | -30.5°C | 31.4% | 331.5hPa | 2.5V | 00:00:00 | 00:00:00 | 00:00:00 | |
| OE5DXL-15 | 2026-09-05 13:09:17 | 47.69188 | 13.62188 | 117° | 113km/h | 8904m | -4.3m/s | -30.5°C | 31.5% | 331.1hPa | 2.5V | 00:00:00 | 00:00:00 | 00:00:00 | |
| OE3JTB-15 | 2026-09-05 13:09:15 | 47.69212 | 13.62114 | 114° | 113km/h | 8912m | -3.9m/s | -30.6°C | 31.7% | 330.7hPa | 2.5V | 00:00:00 | 02:39:47 | 00:00:00 | |
| PG1ADW-2 | 2026-09-05 13:09:13 | 47.69234 | 13.62037 | 113° | 113km/h | 8920m | -3.8m/s | -30.7°C | 32.1% | 330.4hPa | 2.5V | 07:45:00 | 00:00:00 | 00:00:00 | |
| OE5FHM-15 | 2026-09-05 13:09:12 | 47.69245 | 13.61998 | 114° | 115km/h | 8924m | -3.7m/s | -30.7°C | 32.2% | 330.2hPa | 2.6V | 00:00:00 | 02:39:44 | 00:00:00 | |
| OE5WHR-10 | 2026-09-05 13:09:11 | 47.69256 | 13.61959 | 114° | 115km/h | 8928m | -3.9m/s | -30.7°C | 32.2% | 330.0hPa | 2.6V | 00:00:00 | 00:00:00 | 00:00:00 | |
| OE5REO-15 | 2026-09-05 13:09:09 | 47.69268 | 13.61920 | 114° | 113km/h | 8932m | -3.9m/s | -30.9°C | 30.0% | 329.9hPa | 2.6V | 07:46:00 | 00:00:00 | 00:00:00 | |
| OE8JPQ-2 | 2026-09-05 13:09:08 | 47.69292 | 13.61840 | 116° | 115km/h | 8939m | -3.9m/s | -30.8°C | 32.3% | 329.4hPa | 2.6V | 07:46:00 | 00:00:00 | 00:00:00 | |
| OE5MMP-10 | 2026-09-05 13:09:02 | 47.69367 | 13.61610 | 115° | 115km/h | 8963m | -3.9m/s | -31.1°C | 33.2% | 328.3hPa | 2.6V | 00:00:00 | 02:39:34 | 00:00:00 | |
| OE5HKT-10 | 2026-09-05 13:09:01 | 47.69379 | 13.61572 | 115° | 115km/h | 8967m | -4.0m/s | -31.1°C | 33.3% | 328.2hPa | 2.6V | 00:00:00 | 00:00:00 | 00:00:00 | |
| S52SK | 2026-09-05 13:08:59 | 47.69391 | 13.61534 | 115° | 111km/h | 8971m | -4.1m/s | -31.2°C | 30.9% | 328.0hPa | 2.6V | 00:00:00 | 00:00:00 | 00:00:00 | |
| PG1ADW-2 | 2026-09-05 13:08:53 | 47.69475 | 13.61258 | 116° | 115km/h | 9000m | -3.8m/s | -31.4°C | 33.8% | 326.6hPa | 2.6V | 00:00:00 | 00:00:00 | 00:00:00 | |
| OE5MMP-10 | 2026-09-05 13:08:52 | 47.69488 | 13.61219 | 116° | 115km/h | 9003m | -4.1m/s | -31.5°C | 34.2% | 326.5hPa | 2.6V | 00:00:00 | 02:39:24 | 00:00:00 | |
| OE5WHR-10 | 2026-09-05 13:08:50 | 47.69514 | 13.61142 | 118° | 115km/h | 9012m | -4.0m/s | -31.5°C | 34.3% | 326.1hPa | 2.6V | 00:00:00 | 00:00:00 | 00:00:00 | |
| OE8JPQ-2 | 2026-09-05 13:08:48 | 47.69539 | 13.61066 | 115° | 115km/h | 9020m | -4.0m/s | -31.6°C | 34.5% | 325.8hPa | 2.6V | 00:00:00 | 02:39:20 | 00:00:00 | |
| OE5DXL-15 | 2026-09-05 13:08:47 | 47.69551 | 13.61027 | 115° | 115km/h | 9024m | -4.0m/s | -31.7°C | 34.7% | 325.6hPa | 2.6V | 00:00:00 | 02:39:19 | 00:00:00 | |
| OE3JTB-15 | 2026-09-05 13:08:46 | 47.69563 | 13.60988 | 115° | 115km/h | 9028m | -4.0m/s | -31.7°C | 34.9% | 325.4hPa | 2.6V | 07:46:00 | 00:00:00 | 00:00:00 | |
| OE5MMP-10 | 2026-09-05 13:08:42 | 47.69612 | 13.60833 | 115° | 117km/h | 9044m | -4.0m/s | -31.8°C | 35.1% | 324.6hPa | 2.5V | 00:00:00 | 02:39:14 | 00:00:00 | |
| OE5DRO-10 | 2026-09-05 13:08:41 | 47.69625 | 13.60793 | 115° | 115km/h | 9048m | -3.7m/s | -31.9°C | 35.0% | 324.5hPa | 2.5V | 00:00:00 | 00:00:00 | 00:00:00 | |
| OE5HKT-10 | 2026-09-05 13:08:40 | 47.69637 | 13.60753 | 116° | 115km/h | 9052m | -4.0m/s | -32.0°C | 35.5% | 324.3hPa | 2.5V | 07:46:00 | 02:39:12 | 00:00:00 | |
| OE5REO-15 | 2026-09-05 13:08:37 | 47.69663 | 13.60675 | 118° | 115km/h | 9060m | -3.9m/s | -32.0°C | 32.9% | 324.0hPa | 2.5V | 07:46:00 | 00:00:00 | 00:00:00 | |
| PG1ADW-2 | 2026-09-05 13:08:33 | 47.69728 | 13.60480 | 118° | 115km/h | 9080m | -4.0m/s | -32.2°C | 36.4% | 323.0hPa | 2.5V | 00:00:00 | 02:39:05 | 00:00:00 | |
| OE5MMP-10 | 2026-09-05 13:08:32 | 47.69741 | 13.60442 | 118° | 115km/h | 9084m | -4.0m/s | -32.2°C | 36.6% | 322.8hPa | 2.5V | 00:00:00 | 02:39:04 | 00:00:00 | |
| OE5WHR-10 | 2026-09-05 13:08:29 | 47.69781 | 13.60327 | 118° | 115km/h | 9096m | -4.1m/s | -32.3°C | 36.6% | 322.2hPa | 2.5V | 00:00:00 | 02:39:01 | 00:00:00 | |
| OE8JPQ-2 | 2026-09-05 13:08:28 | 47.69794 | 13.60289 | 118° | 115km/h | 9100m | -4.1m/s | -32.3°C | 36.8% | 322.1hPa | 2.5V | 00:00:00 | 00:00:00 | 00:00:00 | |
| PETON7-10 | 2026-09-05 13:08:22 | 47.69871 | 13.60058 | 117° | 117km/h | 9124m | -3.9m/s | -32.7°C | 38.3% | 321.0hPa | 2.5V | 00:00:00 | 00:00:00 | 00:00:00 | |
| OE5HKT-10 | 2026-09-05 13:08:19 | 47.69910 | 13.59942 | 117° | 115km/h | 9136m | -3.9m/s | -32.7°C | 38.6% | 320.4hPa | 2.5V | 00:00:00 | 00:00:00 | 00:00:00 | |
| OE5DXL-15 | 2026-09-05 13:08:17 | 47.69937 | 13.59863 | 118° | 117km/h | 9144m | -3.9m/s | -32.7°C | 39.3% | 320.0hPa | 2.6V | 07:46:00 | 00:00:00 | 00:00:00 | |
| OE5FHM-15 | 2026-09-05 13:08:12 | 47.70002 | 13.59669 | 117° | 117km/h | 9164m | -4.1m/s | -32.9°C | 39.7% | 319.2hPa | 2.5V | 00:00:00 | 02:38:44 | 00:00:00 | |
| OE8JPQ-2 | 2026-09-05 13:08:08 | 47.70053 | 13.59514 | 118° | 117km/h | 9180m | -4.1m/s | -33.1°C | 40.2% | 318.4hPa | 2.6V | 00:00:00 | 00:00:00 | 00:00:00 | |
| OE5REO-15 | 2026-09-05 13:08:07 | 47.70053 | 13.59514 | 118° | 117km/h | 9180m | -4.2m/s | -33.2°C | 37.3% | 318.5hPa | 2.6V | 07:47:00 | 00:00:00 | 00:00:00 | |
| OE5DRO-10 | 2026-09-05 13:08:03 | 47.70121 | 13.59321 | 118° | 117km/h | 9200m | -4.0m/s | -33.3°C | 40.8% | 317.5hPa | 2.6V | 00:00:00 | 00:00:00 | 00:00:00 | |
| OE5MMP-10 | 2026-09-05 13:08:02 | 47.70135 | 13.59282 | 119° | 117km/h | 9204m | -3.9m/s | -33.4°C | 41.2% | 317.3hPa | 2.6V | 00:00:00 | 02:38:34 | 00:00:00 | |
| OE5HKT-10 | 2026-09-05 13:07:58 | 47.70188 | 13.59129 | 117° | 117km/h | 9220m | -4.0m/s | -33.5°C | 42.0% | 316.6hPa | 2.6V | 00:00:00 | 00:00:00 | 00:00:00 | |
| OE5WHR-10 | 2026-09-05 13:07:57 | 47.70201 | 13.59089 | 117° | 119km/h | 9224m | -4.0m/s | -33.5°C | 42.0% | 316.4hPa | 2.6V | 00:00:00 | 00:00:00 | 00:00:00 | |
| OE5MMP-10 | 2026-09-05 13:07:52 | 47.70270 | 13.58893 | 119° | 117km/h | 9245m | -4.1m/s | -33.7°C | 43.1% | 315.5hPa | 2.6V | 07:47:00 | 02:38:24 | 00:00:00 | |
| OE5REO-15 | 2026-09-05 13:07:51 | 47.70271 | 13.58893 | 119° | 120km/h | 9245m | -4.1m/s | -33.8°C | 40.0% | 315.5hPa | 2.5V | 07:47:00 | 00:00:00 | 00:00:00 | |
| OE8JPQ-2 | 2026-09-05 13:07:48 | 47.70326 | 13.58738 | 117° | 117km/h | 9261m | -4.0m/s | -33.9°C | 43.7% | 314.7hPa | 2.5V | 00:00:00 | 02:38:20 | 00:00:00 | |
| OE5DXL-15 | 2026-09-05 13:07:47 | 47.70340 | 13.58699 | 117° | 117km/h | 9265m | -3.9m/s | -33.9°C | 43.7% | 314.5hPa | 2.5V | 00:00:00 | 00:00:00 | 00:00:00 | |
| OE5DRO-10 | 2026-09-05 13:07:44 | 47.70381 | 13.58582 | 118° | 117km/h | 9278m | -4.0m/s | -34.0°C | 44.3% | 314.0hPa | 2.5V | 00:00:00 | 00:00:00 | 00:00:00 | |
| OE5FHM-15 | 2026-09-05 13:07:42 | 47.70408 | 13.58503 | 117° | 119km/h | 9286m | -4.2m/s | -34.1°C | 44.2% | 313.6hPa | 2.5V | 00:00:00 | 02:38:14 | 00:00:00 | |
| OE5HKT-10 | 2026-09-05 13:07:37 | 47.70477 | 13.58308 | 117° | 119km/h | 9306m | -4.2m/s | -34.3°C | 45.0% | 312.7hPa | 2.5V | 00:00:00 | 02:38:09 | 00:00:00 | |
| PETON7-10 | 2026-09-05 13:07:35 | 47.70504 | 13.58230 | 118° | 128km/h | 9314m | -4.0m/s | -34.3°C | 45.0% | 312.3hPa | 2.5V | 00:00:00 | 02:38:07 | 00:00:00 | |
| OE5MMP-10 | 2026-09-05 13:07:32 | 47.70544 | 13.58113 | 117° | 119km/h | 9326m | -4.0m/s | -34.5°C | 45.5% | 311.8hPa | 2.5V | 00:00:00 | 02:38:04 | 00:00:00 | |
| OE8JPQ-2 | 2026-09-05 13:07:28 | 47.70600 | 13.57954 | 119° | 117km/h | 9343m | -4.2m/s | -34.6°C | 46.2% | 311.1hPa | 2.5V | 00:00:00 | 00:00:00 | 00:00:00 | |
| OE5MMP-10 | 2026-09-05 13:07:22 | 47.70683 | 13.57720 | 118° | 119km/h | 9367m | -4.0m/s | -34.8°C | 47.9% | 310.0hPa | 2.5V | 00:00:00 | 02:37:54 | 00:00:00 | |
| OE3JTB-15 | 2026-09-05 13:07:19 | 47.70723 | 13.57602 | 118° | 119km/h | 9379m | -4.0m/s | -35.0°C | 48.5% | 309.4hPa | 2.6V | 00:00:00 | 00:00:00 | 00:00:00 | |
| OE5DXL-15 | 2026-09-05 13:07:17 | 47.70750 | 13.57523 | 117° | 119km/h | 9387m | -3.9m/s | -35.1°C | 48.6% | 309.1hPa | 2.6V | 00:00:00 | 00:00:00 | 00:00:00 | |
| S52SK | 2026-09-05 13:07:13 | 47.70791 | 13.57403 | 119° | 119km/h | 9399m | -4.1m/s | -35.2°C | 45.8% | 308.6hPa | 2.6V | 00:00:00 | 00:00:00 | 00:00:00 | |
| OE5MMP-10 | 2026-09-05 13:07:12 | 47.70819 | 13.57326 | 119° | 119km/h | 9408m | -4.1m/s | -35.2°C | 49.9% | 308.1hPa | 2.6V | 00:00:00 | 02:37:44 | 00:00:00 | |
| OE8JPQ-2 | 2026-09-05 13:07:08 | 47.70875 | 13.57170 | 119° | 119km/h | 9424m | -4.2m/s | -35.4°C | 50.6% | 307.4hPa | 2.6V | 00:00:00 | 00:00:00 | 00:00:00 | |
| OE5DRO-10 | 2026-09-05 13:07:04 | 47.70945 | 13.56972 | 119° | 119km/h | 9445m | -4.2m/s | -35.6°C | 50.8% | 306.5hPa | 2.6V | 00:00:00 | 00:00:00 | 00:00:00 | |
| OE5MMP-10 | 2026-09-05 13:07:02 | 47.70960 | 13.56932 | 119° | 119km/h | 9448m | -4.0m/s | -35.7°C | 50.8% | 306.3hPa | 2.6V | 00:00:00 | 02:37:34 | 00:00:00 | |
| PG1ADW-2 | 2026-09-05 13:06:52 | 47.71102 | 13.56543 | 120° | 119km/h | 9490m | -4.2m/s | -36.0°C | 49.4% | 304.5hPa | 2.6V | 00:00:00 | 00:00:00 | 00:00:00 | |
| OE3JTB-15 | 2026-09-05 13:06:50 | 47.71131 | 13.56465 | 119° | 120km/h | 9498m | -4.1m/s | -36.0°C | 48.7% | 304.2hPa | 2.6V | 00:00:00 | 00:00:00 | 00:00:00 | |
| OE5REO-15 | 2026-09-05 13:06:48 | 47.71145 | 13.56426 | 119° | 119km/h | 9502m | -4.0m/s | -36.2°C | 45.0% | 304.0hPa | 2.6V | 07:48:00 | 00:00:00 | 00:00:00 | |
| OE5HKT-10 | 2026-09-05 13:06:47 | 47.71174 | 13.56347 | 119° | 120km/h | 9510m | -4.0m/s | -36.1°C | 48.4% | 303.7hPa | 2.6V | 00:00:00 | 00:00:00 | 00:00:00 | |
| OE8JPQ-2 | 2026-09-05 13:06:46 | 47.71189 | 13.56307 | 120° | 119km/h | 9514m | -4.1m/s | -36.2°C | 48.2% | 303.5hPa | 2.6V | 00:00:00 | 02:37:18 | 00:00:00 | |
| OE5DRO-10 | 2026-09-05 13:06:43 | 47.71232 | 13.56191 | 118° | 120km/h | 9527m | -3.9m/s | -36.3°C | 48.3% | 302.9hPa | 2.6V | 00:00:00 | 00:00:00 | 00:00:00 | |
| OE5FHM-15 | 2026-09-05 13:06:42 | 47.71246 | 13.56152 | 119° | 120km/h | 9531m | -4.0m/s | -36.4°C | 48.4% | 302.7hPa | 2.6V | 00:00:00 | 02:37:14 | 00:00:00 | |
| OE5MMP-10 | 2026-09-05 13:06:32 | 47.71395 | 13.55759 | 119° | 120km/h | 9572m | -4.1m/s | -36.7°C | 48.6% | 300.9hPa | 2.5V | 07:48:00 | 02:37:04 | 00:00:00 | |
| OE5HKT-10 | 2026-09-05 13:06:26 | 47.71483 | 13.55523 | 119° | 122km/h | 9596m | -4.0m/s | -36.9°C | 48.3% | 299.9hPa | 2.5V | 00:00:00 | 00:00:00 | 00:00:00 | |
| OE5DRO-10 | 2026-09-05 13:06:24 | 47.71513 | 13.55443 | 120° | 120km/h | 9604m | -4.1m/s | -36.9°C | 48.3% | 299.5hPa | 2.5V | 07:48:00 | 00:00:00 | 00:00:00 | |
| OE5MMP-10 | 2026-09-05 13:06:22 | 47.71543 | 13.55365 | 119° | 120km/h | 9612m | -4.0m/s | -37.1°C | 48.3% | 299.2hPa | 2.5V | 00:00:00 | 02:36:54 | 00:00:00 | |
| OE3JTB-15 | 2026-09-05 13:06:21 | 47.71558 | 13.55325 | 119° | 122km/h | 9616m | -4.0m/s | -37.1°C | 48.2% | 299.0hPa | 2.5V | 00:00:00 | 02:36:53 | 00:00:00 | |
| OE5WHR-10 | 2026-09-05 13:06:20 | 47.71572 | 13.55285 | 120° | 122km/h | 9620m | -4.0m/s | -37.1°C | 48.0% | 298.8hPa | 2.5V | 07:48:00 | 02:36:52 | 00:00:00 | |
| OE5DXL-15 | 2026-09-05 13:06:17 | 47.71618 | 13.55166 | 120° | 124km/h | 9632m | -3.7m/s | -37.2°C | 48.2% | 298.3hPa | 2.5V | 00:00:00 | 00:00:00 | 00:00:00 | |
| OE5REO-15 | 2026-09-05 13:06:16 | 47.71618 | 13.55166 | 120° | 120km/h | 9632m | -3.8m/s | -37.3°C | 44.5% | 298.3hPa | 2.5V | 07:49:00 | 00:00:00 | 00:00:00 | |
| OE5FHM-15 | 2026-09-05 13:06:12 | 47.71692 | 13.54968 | 119° | 124km/h | 9652m | -4.0m/s | -37.4°C | 48.1% | 297.4hPa | 2.5V | 00:00:00 | 02:36:44 | 00:00:00 | |
| OE8JPQ-2 | 2026-09-05 13:06:06 | 47.71781 | 13.54728 | 119° | 124km/h | 9677m | -4.0m/s | -37.7°C | 48.2% | 296.4hPa | 2.5V | 00:00:00 | 00:00:00 | 00:00:00 | |
| OE5DRO-10 | 2026-09-05 13:06:04 | 47.71811 | 13.54648 | 120° | 126km/h | 9685m | -4.1m/s | -37.7°C | 48.5% | 296.1hPa | 2.5V | 00:00:00 | 00:00:00 | 00:00:00 | |
| OE5HKT-10 | 2026-09-05 13:06:03 | 47.71826 | 13.54607 | 121° | 130km/h | 9689m | -3.8m/s | -37.7°C | 48.9% | 295.9hPa | 2.5V | 00:00:00 | 02:36:35 | 00:00:00 | |
| OE5REO-15 | 2026-09-05 13:06:02 | 47.71842 | 13.54567 | 121° | 122km/h | 9693m | -4.1m/s | -37.8°C | 45.2% | 295.8hPa | 2.5V | 07:49:00 | 00:00:00 | 00:00:00 | |
| OE5WHR-10 | 2026-09-05 13:05:57 | 47.71920 | 13.54364 | 121° | 126km/h | 9713m | -4.1m/s | -38.0°C | 50.7% | 294.8hPa | 2.5V | 00:00:00 | 00:00:00 | 00:00:00 | |
| OE5MMP-10 | 2026-09-05 13:05:52 | 47.71997 | 13.54158 | 120° | 128km/h | 9733m | -4.0m/s | -38.0°C | 50.8% | 294.0hPa | 2.6V | 00:00:00 | 02:36:24 | 00:00:00 | |
| OE5DXL-15 | 2026-09-05 13:05:47 | 47.72076 | 13.53952 | 121° | 130km/h | 9753m | -4.0m/s | -38.2°C | 50.1% | 293.1hPa | 2.5V | 00:00:00 | 00:00:00 | 00:00:00 | |
| OE8JPQ-2 | 2026-09-05 13:05:46 | 47.72092 | 13.53911 | 121° | 130km/h | 9757m | -4.0m/s | -38.3°C | 49.9% | 292.9hPa | 2.5V | 00:00:00 | 02:36:18 | 00:00:00 | |
| OE5DRO-10 | 2026-09-05 13:05:45 | 47.72108 | 13.53869 | 120° | 130km/h | 9761m | -3.9m/s | -38.3°C | 49.3% | 292.8hPa | 2.5V | 00:00:00 | 00:00:00 | 00:00:00 | |
| OE5FHM-15 | 2026-09-05 13:05:42 | 47.72156 | 13.53741 | 120° | 130km/h | 9773m | -4.1m/s | -38.4°C | 49.0% | 292.2hPa | 2.5V | 07:49:00 | 02:36:14 | 00:00:00 | |
| OE5WHR-10 | 2026-09-05 13:05:36 | 47.72250 | 13.53489 | 120° | 131km/h | 9796m | -3.9m/s | -38.5°C | 49.3% | 291.3hPa | 2.5V | 00:00:00 | 00:00:00 | 00:00:00 | |
| OE5MMP-10 | 2026-09-05 13:05:32 | 47.72312 | 13.53319 | 119° | 131km/h | 9812m | -3.9m/s | -38.6°C | 47.0% | 290.6hPa | 2.5V | 00:00:00 | 02:36:04 | 00:00:00 | |
| OE5REO-15 | 2026-09-05 13:05:29 | 47.72345 | 13.53233 | 121° | 131km/h | 9820m | -4.0m/s | -38.8°C | 43.1% | 290.3hPa | 2.5V | 07:50:00 | 00:00:00 | 00:00:00 | |
| OE5DRO-10 | 2026-09-05 13:05:26 | 47.72409 | 13.53061 | 120° | 131km/h | 9837m | -4.0m/s | -38.8°C | 45.2% | 289.5hPa | 2.5V | 00:00:00 | 00:00:00 | 00:00:00 | |
| OE8JPQ-2 | 2026-09-05 13:05:25 | 47.72425 | 13.53018 | 120° | 131km/h | 9840m | -3.9m/s | -38.9°C | 45.5% | 289.4hPa | 2.5V | 00:00:00 | 00:00:00 | 00:00:00 | |
| OE3JTB-15 | 2026-09-05 13:05:23 | 47.72457 | 13.52932 | 119° | 131km/h | 9848m | -3.9m/s | -38.8°C | 44.6% | 289.1hPa | 2.6V | 00:00:00 | 00:00:00 | 00:00:00 | |
| OE5MMP-10 | 2026-09-05 13:05:22 | 47.72472 | 13.52889 | 118° | 131km/h | 9852m | -3.9m/s | -38.9°C | 44.0% | 288.9hPa | 2.6V | 00:00:00 | 02:35:54 | 00:00:00 | |
| OE5DXL-15 | 2026-09-05 13:05:17 | 47.72551 | 13.52674 | 118° | 131km/h | 9872m | -4.0m/s | -39.0°C | 43.8% | 288.1hPa | 2.6V | 00:00:00 | 00:00:00 | 00:00:00 | |
| OE5WHR-10 | 2026-09-05 13:05:15 | 47.72584 | 13.52586 | 120° | 131km/h | 9880m | -4.1m/s | -39.1°C | 44.2% | 287.7hPa | 2.5V | 00:00:00 | 02:35:47 | 00:00:00 | |
| OE5REO-15 | 2026-09-05 13:05:14 | 47.72584 | 13.52586 | 120° | 133km/h | 9880m | -4.1m/s | -39.2°C | 40.4% | 287.8hPa | 2.5V | 07:50:00 | 00:00:00 | 00:00:00 | |
| OE5MMP-10 | 2026-09-05 13:05:12 | 47.72632 | 13.52458 | 119° | 131km/h | 9892m | -3.9m/s | -39.2°C | 44.1% | 287.2hPa | 2.5V | 07:49:00 | 02:35:44 | 00:00:00 | |
| OE5DRO-10 | 2026-09-05 13:05:07 | 47.72710 | 13.52242 | 118° | 131km/h | 9912m | -4.0m/s | -39.4°C | 43.4% | 286.4hPa | 2.5V | 00:00:00 | 00:00:00 | 00:00:00 | |
| OE5MMP-10 | 2026-09-05 13:05:02 | 47.72790 | 13.52023 | 120° | 131km/h | 9932m | -3.9m/s | -39.5°C | 43.0% | 285.6hPa | 2.5V | 00:00:00 | 02:35:34 | 00:00:00 | |
| OE5REO-15 | 2026-09-05 13:04:58 | 47.72839 | 13.51894 | 121° | 133km/h | 9944m | -4.1m/s | -39.7°C | 39.0% | 285.1hPa | 2.5V | 07:50:00 | 00:00:00 | 00:00:00 | |
| OE8JPQ-2 | 2026-09-05 13:04:55 | 47.72906 | 13.51723 | 119° | 131km/h | 9959m | -3.9m/s | -39.7°C | 41.8% | 284.4hPa | 2.5V | 00:00:00 | 00:00:00 | 00:00:00 | |
| OE5WHR-10 | 2026-09-05 13:04:54 | 47.72922 | 13.51679 | 120° | 131km/h | 9963m | -3.8m/s | -39.7°C | 41.6% | 284.3hPa | 2.5V | 00:00:00 | 00:00:00 | 00:00:00 | |
| OE5MMP-10 | 2026-09-05 13:04:52 | 47.72956 | 13.51593 | 121° | 131km/h | 9971m | -3.7m/s | -39.8°C | 41.6% | 284.0hPa | 2.5V | 00:00:00 | 02:35:24 | 00:00:00 | |
| OE5DRO-10 | 2026-09-05 13:04:48 | 47.73021 | 13.51423 | 120° | 131km/h | 9986m | -3.9m/s | -39.9°C | 41.6% | 283.3hPa | 2.5V | 00:00:00 | 00:00:00 | 00:00:00 | |
| OE5DXL-15 | 2026-09-05 13:04:47 | 47.73038 | 13.51379 | 120° | 131km/h | 9990m | -3.6m/s | -39.9°C | 41.7% | 283.2hPa | 2.5V | 00:00:00 | 00:00:00 | 00:00:00 | |
| OE5FHM-15 | 2026-09-05 13:04:42 | 47.73122 | 13.51165 | 121° | 131km/h | 10009m | -3.8m/s | -40.1°C | 41.6% | 282.3hPa | 2.5V | 00:00:00 | 02:35:14 | 00:00:00 | |
| PETON7-10 | 2026-09-05 13:04:40 | 47.73157 | 13.51079 | 123° | 131km/h | 10017m | -3.9m/s | -40.2°C | 42.1% | 282.0hPa | 2.5V | 00:00:00 | 00:00:00 | 00:00:00 | |
| OE8JPQ-2 | 2026-09-05 13:04:35 | 47.73242 | 13.50870 | 121° | 131km/h | 10036m | -3.8m/s | -40.4°C | 42.8% | 281.3hPa | 2.6V | 00:00:00 | 02:35:07 | 00:00:00 | |
| OE5WHR-10 | 2026-09-05 13:04:33 | 47.73275 | 13.50786 | 119° | 131km/h | 10043m | -3.8m/s | -40.4°C | 42.8% | 280.9hPa | 2.6V | 00:00:00 | 00:00:00 | 00:00:00 | |
| OE5MMP-10 | 2026-09-05 13:04:32 | 47.73291 | 13.50742 | 119° | 131km/h | 10047m | -3.9m/s | -40.5°C | 43.1% | 280.7hPa | 2.6V | 00:00:00 | 02:35:04 | 00:00:00 | |
| OE5DRO-10 | 2026-09-05 13:04:29 | 47.73341 | 13.50612 | 122° | 131km/h | 10059m | -3.8m/s | -40.6°C | 43.8% | 280.3hPa | 2.6V | 00:00:00 | 00:00:00 | 00:00:00 | |
| OE5REO-15 | 2026-09-05 13:04:27 | 47.73359 | 13.50570 | 123° | 131km/h | 10063m | -3.8m/s | -40.7°C | 39.8% | 280.2hPa | 2.6V | 07:50:00 | 00:00:00 | 00:00:00 | |
| PETON7-10 | 2026-09-05 13:04:25 | 47.73410 | 13.50444 | 122° | 131km/h | 10074m | -3.8m/s | -40.8°C | 44.3% | 279.7hPa | 2.6V | 00:00:00 | 00:00:00 | 00:00:00 | |
| OE5MMP-10 | 2026-09-05 13:04:22 | 47.73463 | 13.50319 | 123° | 130km/h | 10086m | -3.9m/s | -40.8°C | 44.9% | 279.2hPa | 2.6V | 00:00:00 | 02:34:54 | 00:00:00 | |
| S52SK | 2026-09-05 13:04:21 | 47.73463 | 13.50319 | 123° | 128km/h | 10086m | -3.9m/s | -40.9°C | 40.8% | 279.2hPa | 2.6V | 00:00:00 | 00:00:00 | 00:00:00 | |
| OE5DXL-15 | 2026-09-05 13:04:17 | 47.73549 | 13.50110 | 122° | 131km/h | 10105m | -3.8m/s | -41.0°C | 45.8% | 278.4hPa | 2.6V | 07:50:00 | 00:00:00 | 00:00:00 | |
| OE8JPQ-2 | 2026-09-05 13:04:15 | 47.73583 | 13.50027 | 121° | 131km/h | 10113m | -3.7m/s | -41.1°C | 46.3% | 278.1hPa | 2.6V | 00:00:00 | 00:00:00 | 00:00:00 | |
| OE5MMP-10 | 2026-09-05 13:04:12 | 47.73634 | 13.49901 | 122° | 130km/h | 10124m | -3.8m/s | -41.2°C | 46.6% | 277.7hPa | 2.5V | 00:00:00 | 02:34:44 | 00:00:00 | |
| OE5HKT-10 | 2026-09-05 13:04:11 | 47.73651 | 13.49859 | 122° | 131km/h | 10128m | -4.0m/s | -41.2°C | 46.8% | 277.5hPa | 2.5V | 00:00:00 | 02:34:43 | 00:00:00 | |
| PETON7-10 | 2026-09-05 13:04:10 | 47.73668 | 13.49818 | 121° | 139km/h | 10132m | -3.7m/s | -41.3°C | 46.9% | 277.4hPa | 2.5V | 00:00:00 | 02:34:42 | 00:00:00 | |
| OE5MMP-10 | 2026-09-05 13:04:02 | 47.73808 | 13.49485 | 122° | 131km/h | 10163m | -3.7m/s | -41.6°C | 48.4% | 276.0hPa | 2.5V | 00:00:00 | 02:34:34 | 00:00:00 | |
| OE5WHR-10 | 2026-09-05 13:04:00 | 47.73843 | 13.49401 | 123° | 133km/h | 10170m | -3.9m/s | -41.6°C | 48.5% | 275.7hPa | 2.5V | 00:00:00 | 02:34:32 | 00:00:00 | |
| OE3JTB-15 | 2026-09-05 13:03:56 | 47.73914 | 13.49233 | 123° | 133km/h | 10185m | -4.0m/s | -41.8°C | 48.8% | 275.2hPa | 2.5V | 00:00:00 | 00:00:00 | 00:00:00 | |
| OE8JPQ-2 | 2026-09-05 13:03:55 | 47.73932 | 13.49190 | 124° | 133km/h | 10189m | -3.9m/s | -41.8°C | 49.6% | 275.0hPa | 2.5V | 00:00:00 | 00:00:00 | 00:00:00 | |
| OE5MMP-10 | 2026-09-05 13:03:52 | 47.73986 | 13.49066 | 122° | 133km/h | 10200m | -3.7m/s | -41.9°C | 50.0% | 274.5hPa | 2.5V | 07:51:00 | 02:34:24 | 00:00:00 | |
| OE5DRO-10 | 2026-09-05 13:03:51 | 47.74004 | 13.49024 | 122° | 133km/h | 10204m | -3.7m/s | -42.0°C | 50.1% | 274.3hPa | 2.6V | 07:51:00 | 00:00:00 | 00:00:00 | |
| OE5HKT-10 | 2026-09-05 13:03:50 | 47.74021 | 13.48981 | 122° | 135km/h | 10208m | -3.9m/s | -42.0°C | 50.2% | 274.2hPa | 2.6V | 00:00:00 | 00:00:00 | 00:00:00 | |
| OE5DXL-15 | 2026-09-05 13:03:47 | 47.74075 | 13.48855 | 122° | 135km/h | 10219m | -3.6m/s | -42.1°C | 50.3% | 273.8hPa | 2.5V | 00:00:00 | 00:00:00 | 00:00:00 | |
| OE5FHM-15 | 2026-09-05 13:03:42 | 47.74166 | 13.48642 | 123° | 135km/h | 10238m | -3.8m/s | -42.2°C | 50.2% | 273.0hPa | 2.6V | 00:00:00 | 02:34:14 | 00:00:00 | |
| OE5REO-15 | 2026-09-05 13:03:41 | 47.74166 | 13.48642 | 124° | 133km/h | 10238m | -3.9m/s | -42.3°C | 45.6% | 273.0hPa | 2.6V | 07:51:00 | 00:00:00 | 00:00:00 | |
| OE8JPQ-2 | 2026-09-05 13:03:35 | 47.74295 | 13.48347 | 123° | 137km/h | 10265m | -3.7m/s | -42.4°C | 48.8% | 271.9hPa | 2.6V | 07:51:00 | 02:34:07 | 00:00:00 | |
| OE5MMP-10 | 2026-09-05 13:03:32 | 47.74350 | 13.48218 | 124° | 135km/h | 10277m | -3.8m/s | -42.4°C | 48.5% | 271.4hPa | 2.6V | 00:00:00 | 02:34:04 | 00:00:00 | |
| OE5WHR-10 | 2026-09-05 13:03:31 | 47.74369 | 13.48176 | 124° | 137km/h | 10280m | -3.6m/s | -42.5°C | 48.5% | 271.3hPa | 2.6V | 00:00:00 | 00:00:00 | 00:00:00 | |
| OE5HKT-10 | 2026-09-05 13:03:29 | 47.74407 | 13.48091 | 124° | 137km/h | 10288m | -3.7m/s | -42.5°C | 48.3% | 271.0hPa | 2.5V | 00:00:00 | 00:00:00 | 00:00:00 | |
| OE3JTB-15 | 2026-09-05 13:03:27 | 47.74445 | 13.48006 | 125° | 137km/h | 10295m | -3.7m/s | -42.6°C | 48.0% | 270.7hPa | 2.5V | 00:00:00 | 02:33:59 | 00:00:00 | |
| OE5REO-15 | 2026-09-05 13:03:25 | 47.74465 | 13.47963 | 126° | 137km/h | 10299m | -4.0m/s | -42.7°C | 43.9% | 270.6hPa | 2.5V | 07:51:00 | 00:00:00 | 00:00:00 | |
| OE5MMP-10 | 2026-09-05 13:03:22 | 47.74541 | 13.47794 | 124° | 137km/h | 10314m | -3.6m/s | -42.8°C | 48.0% | 269.9hPa | 2.5V | 00:00:00 | 02:33:54 | 00:00:00 | |
| OE5DXL-15 | 2026-09-05 13:03:17 | 47.74638 | 13.47581 | 124° | 137km/h | 10333m | -3.7m/s | -42.9°C | 48.2% | 269.2hPa | 2.5V | 00:00:00 | 00:00:00 | 00:00:00 | |
| OE8JPQ-2 | 2026-09-05 13:03:15 | 47.74677 | 13.47495 | 125° | 137km/h | 10340m | -3.8m/s | -43.0°C | 48.1% | 268.9hPa | 2.5V | 00:00:00 | 00:00:00 | 00:00:00 | |
| OE5DRO-10 | 2026-09-05 13:03:13 | 47.74717 | 13.47411 | 124° | 137km/h | 10348m | -3.7m/s | -43.0°C | 48.2% | 268.6hPa | 2.6V | 00:00:00 | 00:00:00 | 00:00:00 | |
| OE5MMP-10 | 2026-09-05 13:03:12 | 47.74736 | 13.47368 | 124° | 137km/h | 10352m | -3.7m/s | -43.1°C | 48.1% | 268.4hPa | 2.6V | 00:00:00 | 02:33:44 | 00:00:00 | |
| OE5WHR-10 | 2026-09-05 13:03:10 | 47.74775 | 13.47281 | 125° | 135km/h | 10359m | -3.8m/s | -43.1°C | 48.1% | 268.1hPa | 2.6V | 07:51:00 | 00:00:00 | 00:00:00 | |
| OE5REO-15 | 2026-09-05 13:03:09 | 47.74775 | 13.47281 | 126° | 141km/h | 10359m | -3.8m/s | -43.2°C | 43.6% | 268.2hPa | 2.6V | 07:52:00 | 00:00:00 | 00:00:00 | |
| OE5HKT-10 | 2026-09-05 13:03:08 | 47.74815 | 13.47197 | 125° | 135km/h | 10367m | -3.7m/s | -43.2°C | 48.5% | 267.8hPa | 2.6V | 00:00:00 | 02:33:40 | 00:00:00 | |
| OE5MMP-10 | 2026-09-05 13:03:02 | 47.74931 | 13.46946 | 125° | 137km/h | 10389m | -3.7m/s | -43.4°C | 48.1% | 267.0hPa | 2.6V | 00:00:00 | 02:33:34 | 00:00:00 | |
| OE3JTB-15 | 2026-09-05 13:02:56 | 47.75048 | 13.46693 | 125° | 133km/h | 10412m | -3.8m/s | -43.6°C | 48.5% | 266.1hPa | 2.6V | 00:00:00 | 00:00:00 | 00:00:00 | |
| OE8JPQ-2 | 2026-09-05 13:02:55 | 47.75068 | 13.46651 | 125° | 135km/h | 10416m | -3.8m/s | -43.6°C | 48.2% | 265.9hPa | 2.6V | 00:00:00 | 00:00:00 | 00:00:00 | |
| OE5REO-15 | 2026-09-05 13:02:54 | 47.75087 | 13.46609 | 126° | 139km/h | 10419m | -3.8m/s | -43.7°C | 43.2% | 265.8hPa | 2.6V | 07:52:00 | 00:00:00 | 00:00:00 | |
| OE5MMP-10 | 2026-09-05 13:02:52 | 47.75128 | 13.46526 | 126° | 135km/h | 10427m | -3.8m/s | -43.7°C | 47.5% | 265.5hPa | 2.6V | 00:00:00 | 02:33:24 | 00:00:00 | |
| S52SK | 2026-09-05 13:02:51 | 47.75128 | 13.46526 | 127° | 135km/h | 10427m | -3.8m/s | -43.7°C | 42.9% | 265.5hPa | 2.6V | 00:00:00 | 00:00:00 | 00:00:00 | |
| OE5WHR-10 | 2026-09-05 13:02:49 | 47.75185 | 13.46401 | 124° | 135km/h | 10438m | -3.8m/s | -43.8°C | 47.3% | 265.0hPa | 2.6V | 00:00:00 | 02:33:21 | 00:00:00 | |
| OE5HKT-10 | 2026-09-05 13:02:47 | 47.75223 | 13.46316 | 125° | 135km/h | 10446m | -3.6m/s | -43.9°C | 47.9% | 264.7hPa | 2.6V | 00:00:00 | 00:00:00 | 00:00:00 | |
| OE5MMP-10 | 2026-09-05 13:02:42 | 47.75320 | 13.46105 | 126° | 135km/h | 10465m | -3.7m/s | -44.1°C | 48.3% | 264.0hPa | 2.5V | 00:00:00 | 02:33:14 | 00:00:00 | |
| OE5REO-15 | 2026-09-05 13:02:37 | 47.75400 | 13.45940 | 125° | 135km/h | 10480m | -3.8m/s | -44.2°C | 43.3% | 263.4hPa | 2.5V | 07:52:00 | 00:00:00 | 00:00:00 | |
| OE8JPQ-2 | 2026-09-05 13:02:35 | 47.75458 | 13.45814 | 126° | 133km/h | 10492m | -3.9m/s | -44.2°C | 47.8% | 262.9hPa | 2.5V | 00:00:00 | 02:33:07 | 00:00:00 | |
| OE5MMP-10 | 2026-09-05 13:02:32 | 47.75515 | 13.45690 | 124° | 135km/h | 10503m | -3.9m/s | -44.3°C | 47.8% | 262.5hPa | 2.5V | 07:52:00 | 02:33:04 | 00:00:00 | |
| OE5WHR-10 | 2026-09-05 13:02:28 | 47.75591 | 13.45522 | 125° | 133km/h | 10519m | -3.7m/s | -44.5°C | 48.4% | 261.9hPa | 2.5V | 00:00:00 | 00:00:00 | 00:00:00 | |
| OE5HKT-10 | 2026-09-05 13:02:26 | 47.75629 | 13.45439 | 124° | 133km/h | 10527m | -3.9m/s | -44.6°C | 49.3% | 261.6hPa | 2.6V | 00:00:00 | 00:00:00 | 00:00:00 | |
| OE5MMP-10 | 2026-09-05 13:02:22 | 47.75707 | 13.45273 | 125° | 133km/h | 10542m | -3.9m/s | -44.7°C | 48.7% | 261.0hPa | 2.6V | 00:00:00 | 02:32:54 | 00:00:00 | |
| OE5REO-15 | 2026-09-05 13:02:21 | 47.75707 | 13.45273 | 126° | 131km/h | 10542m | -3.9m/s | -44.8°C | 43.9% | 261.0hPa | 2.6V | 07:53:00 | 00:00:00 | 00:00:00 | |
| OE5DXL-15 | 2026-09-05 13:02:17 | 47.75803 | 13.45067 | 125° | 135km/h | 10561m | -4.0m/s | -44.9°C | 50.4% | 260.2hPa | 2.6V | 00:00:00 | 00:00:00 | 00:00:00 | |
| OE5DRO-10 | 2026-09-05 13:02:16 | 47.75822 | 13.45025 | 124° | 135km/h | 10565m | -3.8m/s | -44.9°C | 50.2% | 260.1hPa | 2.6V | 00:00:00 | 00:00:00 | 00:00:00 | |
| OE8JPQ-2 | 2026-09-05 13:02:15 | 47.75840 | 13.44984 | 124° | 135km/h | 10569m | -3.8m/s | -45.0°C | 50.2% | 259.9hPa | 2.5V | 00:00:00 | 00:00:00 | 00:00:00 | |
| OE5FHM-15 | 2026-09-05 13:02:12 | 47.75898 | 13.44858 | 126° | 135km/h | 10581m | -3.9m/s | -45.1°C | 50.3% | 259.5hPa | 2.6V | 00:00:00 | 02:32:44 | 00:00:00 | |
| OE3JTB-15 | 2026-09-05 13:02:09 | 47.75956 | 13.44735 | 125° | 135km/h | 10593m | -3.8m/s | -45.2°C | 49.5% | 259.0hPa | 2.5V | 00:00:00 | 00:00:00 | 00:00:00 | |
| OE5WHR-10 | 2026-09-05 13:02:07 | 47.75996 | 13.44653 | 127° | 135km/h | 10601m | -4.0m/s | -45.3°C | 49.2% | 258.7hPa | 2.5V | 00:00:00 | 00:00:00 | 00:00:00 | |
| OE5REO-15 | 2026-09-05 13:02:06 | 47.75995 | 13.44653 | 127° | 133km/h | 10601m | -4.1m/s | -45.3°C | 44.2% | 258.7hPa | 2.5V | 07:53:00 | 00:00:00 | 00:00:00 | |
| OE5HKT-10 | 2026-09-05 13:02:05 | 47.76035 | 13.44571 | 126° | 135km/h | 10609m | -4.0m/s | -45.4°C | 49.5% | 258.4hPa | 2.5V | 00:00:00 | 02:32:37 | 00:00:00 | |
| OE5MMP-10 | 2026-09-05 13:02:02 | 47.76095 | 13.44446 | 127° | 135km/h | 10620m | -4.1m/s | -45.5°C | 49.5% | 257.9hPa | 2.5V | 00:00:00 | 02:32:34 | 00:00:00 | |
| OE5DRO-10 | 2026-09-05 13:01:57 | 47.76195 | 13.44241 | 126° | 135km/h | 10641m | -3.9m/s | -45.6°C | 50.6% | 257.2hPa | 2.5V | 00:00:00 | 00:00:00 | 00:00:00 | |
| OE8JPQ-2 | 2026-09-05 13:01:55 | 47.76235 | 13.44160 | 127° | 135km/h | 10648m | -3.9m/s | -45.7°C | 50.7% | 256.9hPa | 2.5V | 00:00:00 | 00:00:00 | 00:00:00 | |
| OE5REO-15 | 2026-09-05 13:01:50 | 47.76314 | 13.43997 | 127° | 137km/h | 10664m | -3.9m/s | -45.9°C | 44.7% | 256.3hPa | 2.5V | 07:53:00 | 00:00:00 | 00:00:00 | |
| OE5DXL-15 | 2026-09-05 13:01:47 | 47.76395 | 13.43834 | 127° | 137km/h | 10680m | -3.9m/s | -46.0°C | 49.6% | 255.6hPa | 2.5V | 00:00:00 | 00:00:00 | 00:00:00 | |
| OE5WHR-10 | 2026-09-05 13:01:46 | 47.76417 | 13.43793 | 128° | 137km/h | 10684m | -4.1m/s | -46.0°C | 49.2% | 255.4hPa | 2.5V | 00:00:00 | 02:32:18 | 00:00:00 | |
| OE5HKT-10 | 2026-09-05 13:01:44 | 47.76460 | 13.43712 | 129° | 137km/h | 10692m | -4.0m/s | -46.2°C | 49.5% | 255.1hPa | 2.5V | 07:53:00 | 00:00:00 | 00:00:00 | |
| OE5MMP-10 | 2026-09-05 13:01:42 | 47.76501 | 13.43631 | 128° | 135km/h | 10700m | -3.9m/s | -46.2°C | 49.1% | 254.9hPa | 2.5V | 00:00:00 | 02:32:14 | 00:00:00 | |
| OE5DRO-10 | 2026-09-05 13:01:38 | 47.76586 | 13.43469 | 128° | 137km/h | 10716m | -3.9m/s | -46.3°C | 48.7% | 254.2hPa | 2.5V | 00:00:00 | 00:00:00 | 00:00:00 | |
| OE3JTB-15 | 2026-09-05 13:01:36 | 47.76627 | 13.43387 | 127° | 137km/h | 10724m | -3.9m/s | -46.3°C | 48.0% | 253.9hPa | 2.5V | 00:00:00 | 02:32:08 | 00:00:00 | |
| OE8JPQ-2 | 2026-09-05 13:01:35 | 47.76648 | 13.43347 | 128° | 137km/h | 10728m | -3.9m/s | -46.3°C | 48.1% | 253.8hPa | 2.5V | 00:00:00 | 02:32:07 | 00:00:00 | |
| OE5MMP-10 | 2026-09-05 13:01:32 | 47.76710 | 13.43226 | 127° | 137km/h | 10740m | -4.0m/s | -46.3°C | 47.9% | 253.3hPa | 2.5V | 00:00:00 | 02:32:04 | 00:00:00 | |
| S52SK | 2026-09-05 13:01:31 | 47.76710 | 13.43226 | 128° | 135km/h | 10740m | -4.0m/s | -46.4°C | 42.8% | 253.4hPa | 2.5V | 00:00:00 | 00:00:00 | 00:00:00 | |
| S52SK | 2026-09-05 13:01:26 | 47.76817 | 13.43022 | 129° | 135km/h | 10760m | -4.0m/s | -46.6°C | 42.8% | 252.6hPa | 2.5V | 00:00:00 | 00:00:00 | 00:00:00 | |
| OE5WHR-10 | 2026-09-05 13:01:25 | 47.76859 | 13.42941 | 128° | 137km/h | 10768m | -4.0m/s | -46.6°C | 47.7% | 252.3hPa | 2.5V | 00:00:00 | 00:00:00 | 00:00:00 | |
| OE5HKT-10 | 2026-09-05 13:01:23 | 47.76902 | 13.42860 | 129° | 137km/h | 10776m | -3.9m/s | -46.6°C | 48.0% | 252.0hPa | 2.6V | 00:00:00 | 00:00:00 | 00:00:00 | |
| OE5MMP-10 | 2026-09-05 13:01:22 | 47.76923 | 13.42820 | 128° | 137km/h | 10780m | -3.9m/s | -46.6°C | 48.3% | 251.8hPa | 2.6V | 00:00:00 | 02:31:54 | 00:00:00 | |
| OE5REO-15 | 2026-09-05 13:01:20 | 47.76965 | 13.42739 | 128° | 137km/h | 10788m | -4.1m/s | -46.7°C | 42.9% | 251.5hPa | 2.5V | 07:54:00 | 00:00:00 | 00:00:00 | |
| OE5DRO-10 | 2026-09-05 13:01:19 | 47.76986 | 13.42698 | 128° | 137km/h | 10792m | -4.0m/s | -46.7°C | 48.1% | 251.4hPa | 2.5V | 07:53:00 | 00:00:00 | 00:00:00 | |
| OE5DXL-15 | 2026-09-05 13:01:17 | 47.77029 | 13.42617 | 128° | 139km/h | 10800m | -4.0m/s | -46.8°C | 48.1% | 251.1hPa | 2.5V | 00:00:00 | 00:00:00 | 00:00:00 | |
| OE8JPQ-2 | 2026-09-05 13:01:15 | 47.77071 | 13.42534 | 128° | 139km/h | 10808m | -4.0m/s | -46.9°C | 47.9% | 250.8hPa | 2.5V | 00:00:00 | 00:00:00 | 00:00:00 | |
| OE5FHM-15 | 2026-09-05 13:01:12 | 47.77135 | 13.42412 | 129° | 139km/h | 10820m | -4.0m/s | -47.0°C | 47.0% | 250.3hPa | 2.6V | 00:00:00 | 02:31:44 | 00:00:00 | |
| OE3JTB-15 | 2026-09-05 13:01:07 | 47.77243 | 13.42206 | 129° | 139km/h | 10840m | -4.0m/s | -47.2°C | 45.5% | 249.5hPa | 2.6V | 00:00:00 | 00:00:00 | 00:00:00 | |
| OE5WHR-10 | 2026-09-05 13:01:04 | 47.77305 | 13.42084 | 127° | 139km/h | 10853m | -3.9m/s | -47.2°C | 45.7% | 249.1hPa | 2.5V | 00:00:00 | 00:00:00 | 00:00:00 | |
| OE5REO-15 | 2026-09-05 13:01:03 | 47.77305 | 13.42084 | 127° | 137km/h | 10853m | -3.9m/s | -47.3°C | 40.5% | 249.1hPa | 2.5V | 07:54:00 | 00:00:00 | 00:00:00 | |
| OE5MMP-10 | 2026-09-05 13:01:02 | 47.77347 | 13.42000 | 128° | 139km/h | 10861m | -4.1m/s | -47.3°C | 46.0% | 248.7hPa | 2.5V | 00:00:00 | 02:31:34 | 00:00:00 | |
| OE5DRO-10 | 2026-09-05 13:01:00 | 47.77390 | 13.41918 | 128° | 139km/h | 10869m | -4.0m/s | -47.4°C | 45.7% | 248.4hPa | 2.5V | 00:00:00 | 00:00:00 | 00:00:00 | |
| OE8JPQ-2 | 2026-09-05 13:00:55 | 47.77497 | 13.41712 | 129° | 139km/h | 10889m | -4.0m/s | -47.5°C | 46.5% | 247.7hPa | 2.5V | 07:54:00 | 00:00:00 | 00:00:00 | |
| OE5MMP-10 | 2026-09-05 13:00:51 | 47.77581 | 13.41546 | 128° | 141km/h | 10905m | -4.0m/s | -47.7°C | 45.5% | 247.1hPa | 2.5V | 00:00:00 | 02:31:23 | 00:00:00 | |
| OE5REO-15 | 2026-09-05 13:00:48 | 47.77624 | 13.41462 | 128° | 139km/h | 10913m | -4.0m/s | -47.8°C | 41.0% | 246.8hPa | 2.5V | 07:54:00 | 00:00:00 | 00:00:00 | |
| OE5DXL-15 | 2026-09-05 13:00:47 | 47.77667 | 13.41378 | 127° | 141km/h | 10922m | -4.0m/s | -47.8°C | 45.8% | 246.5hPa | 2.5V | 00:00:00 | 00:00:00 | 00:00:00 | |
| OE5WHR-10 | 2026-09-05 13:00:43 | 47.77753 | 13.41212 | 128° | 139km/h | 10938m | -3.9m/s | -47.9°C | 46.1% | 245.8hPa | 2.5V | 00:00:00 | 02:31:15 | 00:00:00 | |
| OE5FHM-15 | 2026-09-05 13:00:42 | 47.77774 | 13.41171 | 128° | 141km/h | 10942m | -4.3m/s | -47.9°C | 45.7% | 245.7hPa | 2.5V | 00:00:00 | 02:31:14 | 00:00:00 | |
| OE5MMP-10 | 2026-09-05 13:00:41 | 47.77796 | 13.41129 | 128° | 139km/h | 10946m | -4.2m/s | -48.0°C | 45.9% | 245.5hPa | 2.5V | 00:00:00 | 02:31:13 | 00:00:00 | |
| OE3JTB-15 | 2026-09-05 13:00:38 | 47.77860 | 13.41006 | 127° | 141km/h | 10958m | -3.9m/s | -48.0°C | 45.6% | 245.1hPa | 2.5V | 07:54:00 | 00:00:00 | 00:00:00 | |
| OE8JPQ-2 | 2026-09-05 13:00:35 | 47.77923 | 13.40880 | 128° | 141km/h | 10971m | -4.0m/s | -48.1°C | 46.1% | 244.6hPa | 2.5V | 00:00:00 | 02:31:07 | 00:00:00 | |
| OE5REO-15 | 2026-09-05 13:00:33 | 47.77945 | 13.40838 | 129° | 142km/h | 10975m | -4.1m/s | -48.2°C | 40.6% | 244.5hPa | 2.5V | 07:55:00 | 00:00:00 | 00:00:00 | |
| OE5MMP-10 | 2026-09-05 13:00:31 | 47.78011 | 13.40712 | 128° | 139km/h | 10987m | -4.0m/s | -48.2°C | 46.0% | 244.0hPa | 2.5V | 00:00:00 | 02:31:03 | 00:00:00 | |
| OE5WHR-10 | 2026-09-05 13:00:22 | 47.78205 | 13.40341 | 128° | 142km/h | 11024m | -4.1m/s | -48.5°C | 46.7% | 242.7hPa | 2.5V | 07:54:00 | 00:00:00 | 00:00:00 | |
| OE5MMP-10 | 2026-09-05 13:00:20 | 47.78248 | 13.40257 | 127° | 141km/h | 11032m | -4.2m/s | -48.6°C | 46.5% | 242.4hPa | 2.6V | 00:00:00 | 02:30:52 | 00:00:00 | |
| OE5DXL-15 | 2026-09-05 13:00:19 | 47.78314 | 13.40128 | 129° | 142km/h | 11045m | -4.2m/s | -48.7°C | 46.5% | 241.9hPa | 2.5V | 07:54:00 | 00:00:00 | 00:00:00 | |
| OE5MMP-10 | 2026-09-05 13:00:10 | 47.78466 | 13.39836 | 128° | 142km/h | 11074m | -4.0m/s | -48.9°C | 48.8% | 240.8hPa | 2.5V | 00:00:00 | 02:30:42 | 00:00:00 | |
| OE3JTB-15 | 2026-09-05 13:00:09 | 47.78488 | 13.39793 | 128° | 144km/h | 11078m | -4.0m/s | 0°C | 0% | 0hPa | 2.5V | 00:00:00 | 02:30:41 | 00:00:00 | |
| S52SK | 2026-09-05 13:00:08 | 47.78488 | 13.39793 | 129° | 142km/h | 11078m | -4.0m/s | -49.0°C | 43.4% | 240.7hPa | 2.5V | 00:00:00 | 00:00:00 | 00:00:00 | |
| OE5WHR-10 | 2026-09-05 13:00:01 | 47.78664 | 13.39451 | 127° | 144km/h | 11110m | -4.1m/s | -49.4°C | 52.3% | 239.4hPa | 2.5V | 00:00:00 | 00:00:00 | 00:00:00 | |
| OE5MMP-10 | 2026-09-05 13:00:00 | 47.78685 | 13.39409 | 127° | 142km/h | 11115m | -4.1m/s | -49.4°C | 52.6% | 239.3hPa | 2.5V | 00:00:00 | 02:30:32 | 00:00:00 | |
| OE5HKT-10 | 2026-09-05 12:59:59 | 47.78707 | 13.39366 | 127° | 144km/h | 11119m | -4.1m/s | -49.4°C | 52.8% | 239.1hPa | 2.5V | 00:00:00 | 02:30:31 | 00:00:00 | |
| OE8JPQ-2 | 2026-09-05 12:59:54 | 47.78812 | 13.39152 | 126° | 146km/h | 11140m | -4.3m/s | -49.5°C | 52.5% | 238.4hPa | 2.5V | 00:00:00 | 00:00:00 | 00:00:00 | |
| OE5MMP-10 | 2026-09-05 12:59:50 | 47.78901 | 13.38976 | 128° | 146km/h | 11156m | -4.1m/s | -49.5°C | 54.4% | 237.7hPa | 2.5V | 07:55:00 | 02:30:22 | 00:00:00 | |
| OE5DXL-15 | 2026-09-05 12:59:47 | 47.78969 | 13.38845 | 129° | 146km/h | 11168m | -4.1m/s | -49.7°C | 56.3% | 237.3hPa | 2.5V | 00:00:00 | 00:00:00 | 00:00:00 | |
| OE5REO-15 | 2026-09-05 12:59:46 | 47.78969 | 13.38845 | 129° | 146km/h | 11168m | -4.1m/s | -49.7°C | 50.1% | 237.4hPa | 2.5V | 07:56:00 | 00:00:00 | 00:00:00 | |
| OE5DRO-10 | 2026-09-05 12:59:44 | 47.79035 | 13.38716 | 126° | 146km/h | 11181m | -3.9m/s | -49.8°C | 58.6% | 236.9hPa | 2.5V | 00:00:00 | 00:00:00 | 00:00:00 | |
| OE5FHM-15 | 2026-09-05 12:59:42 | 47.79077 | 13.38627 | 126° | 148km/h | 11189m | -4.3m/s | -49.9°C | 59.5% | 236.6hPa | 2.5V | 00:00:00 | 02:30:14 | 00:00:00 | |
| OE5WHR-10 | 2026-09-05 12:59:40 | 47.79121 | 13.38538 | 128° | 146km/h | 11197m | -4.0m/s | -50.0°C | 60.8% | 236.3hPa | 2.5V | 00:00:00 | 02:30:12 | 00:00:00 | |
| OE5HKT-10 | 2026-09-05 12:59:38 | 47.79164 | 13.38452 | 127° | 146km/h | 11205m | -4.2m/s | -50.0°C | 61.3% | 235.9hPa | 2.5V | 00:00:00 | 00:00:00 | 00:00:00 | |
| OE8JPQ-2 | 2026-09-05 12:59:34 | 47.79251 | 13.38278 | 128° | 148km/h | 11222m | -4.2m/s | -50.3°C | 62.3% | 235.4hPa | 2.5V | 00:00:00 | 02:30:06 | 00:00:00 | |
| PETON7-10 | 2026-09-05 12:59:33 | 47.79273 | 13.38235 | 127° | 148km/h | 11226m | -4.3m/s | -50.3°C | 62.3% | 235.2hPa | 2.5V | 00:00:00 | 00:00:00 | 00:00:00 | |
| OE5REO-15 | 2026-09-05 12:59:31 | 47.79295 | 13.38192 | 128° | 146km/h | 11230m | -4.2m/s | -50.3°C | 55.4% | 235.1hPa | 2.5V | 07:56:00 | 00:00:00 | 00:00:00 | |
| OE5MMP-10 | 2026-09-05 12:59:30 | 47.79340 | 13.38103 | 129° | 148km/h | 11239m | -4.2m/s | -50.3°C | 62.1% | 234.7hPa | 2.5V | 00:00:00 | 02:30:02 | 00:00:00 | |
| OE5DRO-10 | 2026-09-05 12:59:25 | 47.79454 | 13.37884 | 127° | 150km/h | 11259m | -4.0m/s | -50.5°C | 63.5% | 234.0hPa | 2.5V | 00:00:00 | 00:00:00 | 00:00:00 | |
| OE5MMP-10 | 2026-09-05 12:59:20 | 47.79566 | 13.37662 | 127° | 151km/h | 11280m | -4.0m/s | -50.7°C | 62.4% | 233.3hPa | 2.6V | 00:00:00 | 02:29:52 | 00:00:00 | |
| OE5WHR-10 | 2026-09-05 12:59:19 | 47.79589 | 13.37617 | 127° | 151km/h | 11284m | -4.4m/s | -50.7°C | 62.2% | 233.1hPa | 2.5V | 00:00:00 | 00:00:00 | 00:00:00 | |
| OE5HKT-10 | 2026-09-05 12:59:17 | 47.79636 | 13.37528 | 129° | 153km/h | 11293m | -4.0m/s | -50.7°C | 62.6% | 232.8hPa | 2.5V | 00:00:00 | 00:00:00 | 00:00:00 | |
| OE5REO-15 | 2026-09-05 12:59:16 | 47.79636 | 13.37527 | 130° | 150km/h | 11293m | -4.1m/s | -50.8°C | 55.8% | 232.9hPa | 2.5V | 07:56:00 | 00:00:00 | 00:00:00 | |
| OE8JPQ-2 | 2026-09-05 12:59:14 | 47.79706 | 13.37394 | 128° | 153km/h | 11305m | -4.0m/s | -50.8°C | 60.6% | 232.4hPa | 2.5V | 00:00:00 | 00:00:00 | 00:00:00 | |
| OE5FHM-15 | 2026-09-05 12:59:12 | 47.79754 | 13.37304 | 129° | 155km/h | 11313m | -4.2m/s | -50.8°C | 59.8% | 232.1hPa | 2.5V | 00:00:00 | 02:29:44 | 00:00:00 | |
| PG1ADW-2 | 2026-09-05 12:59:11 | 47.79777 | 13.37260 | 129° | 157km/h | 11317m | -4.0m/s | -50.9°C | 60.1% | 231.9hPa | 2.6V | 00:00:00 | 00:00:00 | 00:00:00 | |
| OE5MMP-10 | 2026-09-05 12:59:10 | 47.79801 | 13.37215 | 128° | 153km/h | 11321m | -4.1m/s | -50.9°C | 60.1% | 231.7hPa | 2.5V | 00:00:00 | 02:29:42 | 00:00:00 | |
| OE5DRO-10 | 2026-09-05 12:59:06 | 47.79895 | 13.37032 | 129° | 155km/h | 11338m | -4.0m/s | -51.0°C | 60.0% | 231.2hPa | 2.5V | 00:00:00 | 00:00:00 | 00:00:00 | |
| PETON7-10 | 2026-09-05 12:59:02 | 47.79992 | 13.36851 | 129° | 155km/h | 11354m | -4.0m/s | -51.1°C | 59.1% | 230.6hPa | 2.5V | 07:56:00 | 02:29:34 | 00:00:00 | |
| OE5MMP-10 | 2026-09-05 12:59:00 | 47.80041 | 13.36762 | 130° | 155km/h | 11362m | -4.0m/s | -51.2°C | 60.2% | 230.3hPa | 2.5V | 00:00:00 | 02:29:32 | 00:00:00 | |
| OE5WHR-10 | 2026-09-05 12:58:58 | 47.80090 | 13.36673 | 129° | 157km/h | 11371m | -4.2m/s | -51.2°C | 59.2% | 230.0hPa | 2.5V | 00:00:00 | 00:00:00 | 00:00:00 | |
| OE5HKT-10 | 2026-09-05 12:58:56 | 47.80139 | 13.36581 | 130° | 157km/h | 11379m | -4.1m/s | -51.4°C | 59.8% | 229.7hPa | 2.5V | 07:56:00 | 02:29:28 | 00:00:00 | |
| OE8JPQ-2 | 2026-09-05 12:58:54 | 47.80189 | 13.36492 | 129° | 157km/h | 11387m | -4.0m/s | -51.3°C | 59.5% | 229.4hPa | 2.5V | 00:00:00 | 00:00:00 | 00:00:00 | |
| OE3JTB-15 | 2026-09-05 12:58:53 | 47.80213 | 13.36447 | 128° | 159km/h | 11392m | -4.2m/s | 0°C | 0% | 0hPa | 2.5V | 00:00:00 | 00:00:00 | 00:00:00 | |
| OE5MMP-10 | 2026-09-05 12:58:50 | 47.80286 | 13.36306 | 129° | 159km/h | 11404m | -4.1m/s | -51.6°C | 59.0% | 228.8hPa | 2.5V | 00:00:00 | 02:29:22 | 00:00:00 | |
| PETON7-10 | 2026-09-05 12:58:47 | 47.80362 | 13.36169 | 129° | 159km/h | 11416m | -4.1m/s | -51.7°C | 58.7% | 228.4hPa | 2.5V | 00:00:00 | 00:00:00 | 00:00:00 | |
| OE5REO-15 | 2026-09-05 12:58:44 | 47.80413 | 13.36076 | 130° | 161km/h | 11424m | -4.3m/s | -51.8°C | 52.1% | 228.1hPa | 2.6V | 07:56:00 | 00:00:00 | 00:00:00 | |
| OE5FHM-15 | 2026-09-05 12:58:42 | 47.80488 | 13.35938 | 129° | 161km/h | 11436m | -4.1m/s | -51.8°C | 58.7% | 227.7hPa | 2.6V | 00:00:00 | 02:29:14 | 00:00:00 | |
| OE5MMP-10 | 2026-09-05 12:58:40 | 47.80538 | 13.35845 | 129° | 159km/h | 11445m | -4.2m/s | -51.9°C | 59.5% | 227.4hPa | 2.6V | 00:00:00 | 02:29:12 | 00:00:00 | |
| OE5WHR-10 | 2026-09-05 12:58:37 | 47.80614 | 13.35707 | 130° | 161km/h | 11457m | -4.2m/s | -51.9°C | 58.6% | 226.9hPa | 2.6V | 00:00:00 | 02:29:09 | 00:00:00 | |
| S52SK | 2026-09-05 12:58:36 | 47.80614 | 13.35707 | 130° | 155km/h | 11457m | -4.3m/s | -52.0°C | 51.8% | 227.0hPa | 2.6V | 00:00:00 | 00:00:00 | 00:00:00 | |
| OE5HKT-10 | 2026-09-05 12:58:35 | 47.80664 | 13.35615 | 129° | 161km/h | 11466m | -4.1m/s | -52.0°C | 57.8% | 226.7hPa | 2.6V | 00:00:00 | 00:00:00 | 00:00:00 | |
| PETON7-10 | 2026-09-05 12:58:32 | 47.80741 | 13.35475 | 130° | 161km/h | 11478m | -4.1m/s | -52.0°C | 58.3% | 226.2hPa | 2.6V | 00:00:00 | 00:00:00 | 00:00:00 | |
| OE8JPQ-2 | 2026-09-05 12:58:31 | 47.80766 | 13.35429 | 129° | 161km/h | 11482m | -4.2m/s | -52.1°C | 58.2% | 226.1hPa | 2.6V | 00:00:00 | 02:29:03 | 00:00:00 | |
| OE5MMP-10 | 2026-09-05 12:58:30 | 47.80792 | 13.35382 | 129° | 161km/h | 11486m | -4.0m/s | -52.1°C | 58.0% | 225.9hPa | 2.6V | 07:56:00 | 02:29:02 | 00:00:00 | |
| OE5DRO-10 | 2026-09-05 12:58:28 | 47.80869 | 13.35240 | 130° | 161km/h | 11499m | -4.0m/s | -52.2°C | 58.5% | 225.5hPa | 2.6V | 00:00:00 | 00:00:00 | 00:00:00 | |
| PG1ADW-2 | 2026-09-05 12:58:27 | 47.80869 | 13.35240 | 130° | 161km/h | 11499m | -4.0m/s | -52.2°C | 58.5% | 225.5hPa | 2.5V | 00:00:00 | 02:28:59 | 00:00:00 | |
| OE3JTB-15 | 2026-09-05 12:58:21 | 47.81022 | 13.34959 | 130° | 161km/h | 11524m | -4.1m/s | 0°C | 0% | 0hPa | 2.5V | 00:00:00 | 02:28:53 | 00:00:00 | |
| OE5MMP-10 | 2026-09-05 12:58:20 | 47.81047 | 13.34912 | 130° | 161km/h | 11528m | -4.2m/s | -52.4°C | 59.9% | 224.5hPa | 2.5V | 00:00:00 | 02:28:52 | 00:00:00 | |
| OE5WHR-10 | 2026-09-05 12:58:16 | 47.81149 | 13.34724 | 130° | 161km/h | 11545m | -4.2m/s | -52.6°C | 58.9% | 223.9hPa | 2.5V | 00:00:00 | 00:00:00 | 00:00:00 | |
| OE5HKT-10 | 2026-09-05 12:58:14 | 47.81199 | 13.34630 | 128° | 161km/h | 11553m | -4.1m/s | -52.7°C | 58.0% | 223.6hPa | 2.6V | 00:00:00 | 00:00:00 | 00:00:00 | |
| OE5REO-15 | 2026-09-05 12:58:13 | 47.81199 | 13.34630 | 129° | 159km/h | 11553m | -4.2m/s | -52.7°C | 51.1% | 223.7hPa | 2.6V | 07:56:00 | 00:00:00 | 00:00:00 | |
| OE5FHM-15 | 2026-09-05 12:58:12 | 47.81249 | 13.34535 | 129° | 161km/h | 11561m | -4.2m/s | -52.7°C | 58.3% | 223.3hPa | 2.6V | 00:00:00 | 02:28:44 | 00:00:00 | |
| OE8JPQ-2 | 2026-09-05 12:58:11 | 47.81274 | 13.34487 | 129° | 161km/h | 11566m | -4.2m/s | -52.7°C | 58.7% | 223.2hPa | 2.6V | 07:56:00 | 00:00:00 | 00:00:00 | |
| OE5MMP-10 | 2026-09-05 12:58:10 | 47.81299 | 13.34440 | 129° | 161km/h | 11570m | -4.3m/s | -52.7°C | 58.9% | 223.0hPa | 2.6V | 00:00:00 | 02:28:42 | 00:00:00 | |
| OE5DRO-10 | 2026-09-05 12:58:09 | 47.81325 | 13.34393 | 129° | 161km/h | 11574m | -4.3m/s | -52.8°C | 59.2% | 222.9hPa | 2.6V | 00:00:00 | 00:00:00 | 00:00:00 | |
| PG1ADW-2 | 2026-09-05 12:58:07 | 47.81374 | 13.34299 | 128° | 161km/h | 11583m | -4.2m/s | -52.9°C | 59.3% | 222.6hPa | 2.6V | 00:00:00 | 00:00:00 | 00:00:00 | |
| PETON7-10 | 2026-09-05 12:58:02 | 47.81501 | 13.34061 | 128° | 161km/h | 11604m | -4.1m/s | -53.1°C | 58.9% | 221.9hPa | 2.6V | 00:00:00 | 00:00:00 | 00:00:00 | |
| OE5MMP-10 | 2026-09-05 12:58:00 | 47.81552 | 13.33964 | 129° | 161km/h | 11613m | -4.3m/s | -53.2°C | 60.0% | 221.5hPa | 2.6V | 00:00:00 | 02:28:32 | 00:00:00 | |
| OE5REO-15 | 2026-09-05 12:57:57 | 47.81602 | 13.33870 | 129° | 159km/h | 11621m | -4.2m/s | -53.2°C | 53.3% | 221.3hPa | 2.6V | 07:57:00 | 00:00:00 | 00:00:00 | |
| OE5WHR-10 | 2026-09-05 12:57:55 | 47.81677 | 13.33726 | 129° | 162km/h | 11634m | -4.2m/s | -53.3°C | 61.6% | 220.8hPa | 2.6V | 00:00:00 | 00:00:00 | 00:00:00 | |
| OE5HKT-10 | 2026-09-05 12:57:53 | 47.81728 | 13.33632 | 129° | 162km/h | 11642m | -4.1m/s | -53.4°C | 62.1% | 220.5hPa | 2.6V | 00:00:00 | 02:28:25 | 00:00:00 | |
| OE3JTB-15 | 2026-09-05 12:57:52 | 47.81753 | 13.33585 | 129° | 146km/h | 11647m | -4.4m/s | 0°C | 0% | 0hPa | 2.6V | 00:00:00 | 00:00:00 | 00:00:00 | |
| OE8JPQ-2 | 2026-09-05 12:57:51 | 47.81778 | 13.33538 | 128° | 166km/h | 11651m | -4.1m/s | -53.5°C | 61.9% | 220.2hPa | 2.6V | 00:00:00 | 00:00:00 | 00:00:00 | |
| OE5MMP-10 | 2026-09-05 12:57:50 | 47.81803 | 13.33490 | 128° | 162km/h | 11655m | -4.3m/s | -53.5°C | 61.9% | 220.1hPa | 2.6V | 00:00:00 | 02:28:22 | 00:00:00 | |
| OE5DXL-15 | 2026-09-05 12:57:47 | 47.81879 | 13.33346 | 129° | 166km/h | 11668m | -4.2m/s | -53.6°C | 61.4% | 219.7hPa | 2.5V | 00:00:00 | 00:00:00 | 00:00:00 | |
| PETON7-10 | 2026-09-05 12:57:46 | 47.81904 | 13.33298 | 128° | 162km/h | 11672m | -4.1m/s | -53.6°C | 60.3% | 219.5hPa | 2.5V | 00:00:00 | 00:00:00 | 00:00:00 | |
| OE5FHM-15 | 2026-09-05 12:57:42 | 47.82005 | 13.33102 | 129° | 166km/h | 11689m | -4.2m/s | -53.9°C | 62.0% | 218.9hPa | 2.5V | 07:57:00 | 02:28:14 | 00:00:00 | |
| OE5REO-15 | 2026-09-05 12:57:41 | 47.82005 | 13.33102 | 130° | 164km/h | 11689m | -4.2m/s | -53.9°C | 54.4% | 218.9hPa | 2.5V | 07:57:00 | 00:00:00 | 00:00:00 | |
| OE5MMP-10 | 2026-09-05 12:57:40 | 47.82056 | 13.33006 | 128° | 164km/h | 11697m | -4.2m/s | -53.8°C | 61.4% | 218.7hPa | 2.5V | 00:00:00 | 02:28:12 | 00:00:00 | |
| OE5WHR-10 | 2026-09-05 12:57:34 | 47.82208 | 13.32713 | 128° | 168km/h | 11723m | -4.3m/s | -54.0°C | 61.3% | 217.7hPa | 2.5V | 07:57:00 | 02:28:06 | 00:00:00 | |
| OE5HKT-10 | 2026-09-05 12:57:32 | 47.82260 | 13.32614 | 129° | 168km/h | 11731m | -4.2m/s | -54.0°C | 61.2% | 217.4hPa | 2.5V | 00:00:00 | 00:00:00 | 00:00:00 | |
| PETON7-10 | 2026-09-05 12:57:31 | 47.82286 | 13.32565 | 129° | 166km/h | 11735m | -4.2m/s | -54.1°C | 61.4% | 217.3hPa | 2.5V | 00:00:00 | 02:28:03 | 00:00:00 | |
| OE5MMP-10 | 2026-09-05 12:57:30 | 47.82312 | 13.32516 | 129° | 166km/h | 11740m | -4.2m/s | -54.2°C | 61.6% | 217.2hPa | 2.5V | 00:00:00 | 02:28:02 | 00:00:00 | |
| PG1ADW-2 | 2026-09-05 12:57:27 | 47.82388 | 13.32369 | 128° | 168km/h | 11752m | -3.9m/s | -54.3°C | 61.2% | 216.8hPa | 2.5V | 00:00:00 | 00:00:00 | 00:00:00 | |
| OE5REO-15 | 2026-09-05 12:57:26 | 47.82388 | 13.32369 | 128° | 168km/h | 11752m | -3.9m/s | -54.3°C | 53.7% | 216.8hPa | 2.5V | 07:57:00 | 00:00:00 | 00:00:00 | |
| OE5MMP-10 | 2026-09-05 12:57:20 | 47.82569 | 13.32018 | 128° | 168km/h | 11781m | -4.3m/s | -54.6°C | 62.8% | 215.7hPa | 2.5V | 00:00:00 | 02:27:52 | 00:00:00 | |
| OE5DXL-15 | 2026-09-05 12:57:17 | 47.82646 | 13.31869 | 127° | 170km/h | 11794m | -4.1m/s | -54.6°C | 62.8% | 215.3hPa | 2.6V | 00:00:00 | 00:00:00 | 00:00:00 | |
| PETON7-10 | 2026-09-05 12:57:16 | 47.82672 | 13.31818 | 128° | 172km/h | 11799m | -4.4m/s | -54.7°C | 62.3% | 215.1hPa | 2.6V | 00:00:00 | 00:00:00 | 00:00:00 | |
| OE5WHR-10 | 2026-09-05 12:57:13 | 47.82751 | 13.31667 | 129° | 170km/h | 11812m | -4.2m/s | -54.8°C | 62.7% | 214.7hPa | 2.5V | 00:00:00 | 00:00:00 | 00:00:00 | |
| OE5FHM-15 | 2026-09-05 12:57:12 | 47.82777 | 13.31618 | 129° | 170km/h | 11816m | -4.1m/s | -54.9°C | 62.8% | 214.6hPa | 2.5V | 00:00:00 | 02:27:44 | 00:00:00 | |
| OE5HKT-10 | 2026-09-05 12:57:11 | 47.82804 | 13.31569 | 128° | 170km/h | 11820m | -4.1m/s | -54.9°C | 62.5% | 214.4hPa | 2.5V | 00:00:00 | 00:00:00 | 00:00:00 | |
| OE5MMP-10 | 2026-09-05 12:57:10 | 47.82830 | 13.31519 | 129° | 170km/h | 11824m | -4.2m/s | -54.9°C | 62.8% | 214.3hPa | 2.5V | 07:57:00 | 02:27:42 | 00:00:00 | |
| PG1ADW-2 | 2026-09-05 12:57:07 | 47.82911 | 13.31371 | 130° | 170km/h | 11837m | -4.5m/s | -55.0°C | 63.8% | 213.9hPa | 2.5V | 00:00:00 | 02:27:39 | 00:00:00 | |
| OE5MMP-10 | 2026-09-05 12:57:00 | 47.83098 | 13.31019 | 130° | 170km/h | 11868m | -4.1m/s | -55.2°C | 63.6% | 212.9hPa | 2.5V | 00:00:00 | 02:27:32 | 00:00:00 | |
| OE5REO-15 | 2026-09-05 12:56:54 | 47.83234 | 13.30770 | 130° | 168km/h | 11889m | -4.3m/s | -55.5°C | 54.4% | 212.2hPa | 2.5V | 07:58:00 | 00:00:00 | 00:00:00 | |
| OE5DRO-10 | 2026-09-05 12:56:53 | 47.83313 | 13.30620 | 128° | 173km/h | 11902m | -4.4m/s | -55.5°C | 62.1% | 211.7hPa | 2.5V | 00:00:00 | 00:00:00 | 00:00:00 | |
| OE5WHR-10 | 2026-09-05 12:56:52 | 47.83313 | 13.30620 | 128° | 173km/h | 11902m | -4.4m/s | -55.5°C | 62.1% | 211.7hPa | 2.5V | 00:00:00 | 00:00:00 | 00:00:00 | |
| OE5MMP-10 | 2026-09-05 12:56:50 | 47.83368 | 13.30518 | 130° | 172km/h | 11911m | -4.1m/s | -55.6°C | 62.8% | 211.4hPa | 2.5V | 00:00:00 | 02:27:22 | 00:00:00 | |
| PG1ADW-2 | 2026-09-05 12:56:47 | 47.83449 | 13.30367 | 129° | 173km/h | 11923m | -4.1m/s | -55.7°C | 63.9% | 211.0hPa | 2.6V | 00:00:00 | 00:00:00 | 00:00:00 | |
| OE5FHM-15 | 2026-09-05 12:56:42 | 47.83586 | 13.30116 | 128° | 173km/h | 11945m | -4.2m/s | -55.9°C | 65.3% | 210.3hPa | 2.5V | 00:00:00 | 02:27:14 | 00:00:00 | |
| OE5MMP-10 | 2026-09-05 12:56:40 | 47.83640 | 13.30013 | 129° | 173km/h | 11953m | -4.3m/s | -56.0°C | 64.0% | 210.0hPa | 2.5V | 00:00:00 | 02:27:12 | 00:00:00 | |
| OE5WHR-10 | 2026-09-05 12:56:31 | 47.83886 | 13.29555 | 129° | 173km/h | 11991m | -4.2m/s | -56.4°C | 61.7% | 208.7hPa | 2.5V | 00:00:00 | 02:27:03 | 00:00:00 | |
| OE5MMP-10 | 2026-09-05 12:56:30 | 47.83914 | 13.29504 | 129° | 173km/h | 11996m | -4.3m/s | -56.5°C | 62.0% | 208.6hPa | 2.5V | 00:00:00 | 02:27:02 | 00:00:00 | |
| OE5HKT-10 | 2026-09-05 12:56:29 | 47.83941 | 13.29454 | 130° | 175km/h | 12000m | -4.4m/s | -56.5°C | 62.5% | 208.5hPa | 2.5V | 00:00:00 | 00:00:00 | 00:00:00 | |
| PG1ADW-2 | 2026-09-05 12:56:27 | 47.83996 | 13.29355 | 129° | 175km/h | 12009m | -4.4m/s | -56.5°C | 62.9% | 208.1hPa | 2.6V | 00:00:00 | 00:00:00 | 00:00:00 | |
| OE5MMP-10 | 2026-09-05 12:56:20 | 47.84188 | 13.28998 | 129° | 175km/h | 12041m | -4.4m/s | -56.8°C | 62.5% | 207.1hPa | 2.6V | 00:00:00 | 02:26:52 | 00:00:00 | |
| OE5DXL-15 | 2026-09-05 12:56:17 | 47.84271 | 13.28843 | 130° | 175km/h | 12054m | -4.5m/s | -56.9°C | 62.0% | 206.7hPa | 2.5V | 07:58:00 | 00:00:00 | 00:00:00 | |
| OE5DRO-10 | 2026-09-05 12:56:15 | 47.84327 | 13.28742 | 129° | 175km/h | 12063m | -4.5m/s | -57.1°C | 61.0% | 206.4hPa | 2.5V | 07:58:00 | 00:00:00 | 00:00:00 | |
| OE8JPQ-2 | 2026-09-05 12:56:13 | 47.84383 | 13.28639 | 130° | 175km/h | 12072m | -4.5m/s | -57.2°C | 61.6% | 206.1hPa | 2.5V | 00:00:00 | 02:26:45 | 00:00:00 | |
| OE5MMP-10 | 2026-09-05 12:56:10 | 47.84468 | 13.28488 | 130° | 175km/h | 12086m | -4.5m/s | -57.3°C | 61.4% | 205.6hPa | 2.5V | 00:00:00 | 02:26:42 | 00:00:00 | |
| PG1ADW-2 | 2026-09-05 12:56:07 | 47.84552 | 13.28334 | 130° | 175km/h | 12100m | -4.5m/s | -57.5°C | 60.9% | 205.2hPa | 2.5V | 00:00:00 | 00:00:00 | 00:00:00 | |
| OE5HKT-10 | 2026-09-05 12:56:06 | 47.84580 | 13.28283 | 131° | 175km/h | 12104m | -4.5m/s | -57.5°C | 60.9% | 205.1hPa | 2.5V | 07:59:00 | 00:00:00 | 00:00:00 | |
| PETON7-10 | 2026-09-05 12:56:02 | 47.84694 | 13.28079 | 131° | 175km/h | 12122m | -4.6m/s | -57.5°C | 60.5% | 204.4hPa | 2.5V | 00:00:00 | 02:26:34 | 00:00:00 | |
| OE5MMP-10 | 2026-09-05 12:56:00 | 47.84751 | 13.27978 | 131° | 173km/h | 12132m | -4.5m/s | -57.6°C | 60.1% | 204.1hPa | 2.5V | 00:00:00 | 02:26:32 | 00:00:00 | |
| OE5DRO-10 | 2026-09-05 12:55:56 | 47.84864 | 13.27775 | 131° | 175km/h | 12150m | -4.5m/s | -57.8°C | 60.0% | 203.5hPa | 2.5V | 00:00:00 | 00:00:00 | 00:00:00 | |
| OE5MMP-10 | 2026-09-05 12:55:50 | 47.85034 | 13.27472 | 130° | 173km/h | 12178m | -4.7m/s | -58.0°C | 60.3% | 202.6hPa | 2.5V | 07:59:00 | 02:26:22 | 00:00:00 | |
| OE5WHR-10 | 2026-09-05 12:55:49 | 47.85062 | 13.27421 | 131° | 173km/h | 12183m | -4.6m/s | -58.1°C | 61.0% | 202.5hPa | 2.6V | 00:00:00 | 00:00:00 | 00:00:00 | |
| S52SK | 2026-09-05 12:55:48 | 47.85062 | 13.27421 | 131° | 175km/h | 12183m | -4.7m/s | -58.1°C | 52.3% | 202.5hPa | 2.6V | 07:59:00 | 00:00:00 | 00:00:00 | |
| PETON7-10 | 2026-09-05 12:55:47 | 47.85118 | 13.27321 | 129° | 173km/h | 12192m | -4.7m/s | -58.1°C | 61.0% | 202.2hPa | 2.6V | 00:00:00 | 00:00:00 | 00:00:00 | |
| OE5HKT-10 | 2026-09-05 12:55:45 | 47.85174 | 13.27218 | 130° | 173km/h | 12202m | -4.7m/s | -58.1°C | 59.8% | 201.9hPa | 2.6V | 00:00:00 | 02:26:17 | 00:00:00 | |
| S52SK | 2026-09-05 12:55:43 | 47.85203 | 13.27167 | 131° | 175km/h | 12207m | -4.7m/s | -58.2°C | 51.1% | 201.8hPa | 2.6V | 07:59:00 | 00:00:00 | 00:00:00 | |
| OE5FHM-15 | 2026-09-05 12:55:42 | 47.85259 | 13.27067 | 130° | 173km/h | 12216m | -4.5m/s | -58.2°C | 59.5% | 201.4hPa | 2.6V | 00:00:00 | 02:26:14 | 00:00:00 | |
| OE5MMP-10 | 2026-09-05 12:55:40 | 47.85314 | 13.26965 | 130° | 173km/h | 12226m | -4.8m/s | -58.3°C | 59.5% | 201.1hPa | 2.6V | 00:00:00 | 02:26:12 | 00:00:00 | |
| OE5DRO-10 | 2026-09-05 12:55:37 | 47.85397 | 13.26814 | 130° | 173km/h | 12240m | -4.7m/s | -58.4°C | 59.5% | 200.6hPa | 2.6V | 00:00:00 | 00:00:00 | 00:00:00 | |
| PETON7-10 | 2026-09-05 12:55:31 | 47.85565 | 13.26512 | 129° | 173km/h | 12269m | -4.9m/s | -58.6°C | 60.2% | 199.7hPa | 2.5V | 00:00:00 | 00:00:00 | 00:00:00 | |
| OE5MMP-10 | 2026-09-05 12:55:30 | 47.85592 | 13.26461 | 129° | 172km/h | 12274m | -5.0m/s | -58.7°C | 60.7% | 199.5hPa | 2.5V | 00:00:00 | 02:26:02 | 00:00:00 | |
| OE5WHR-10 | 2026-09-05 12:55:28 | 47.85649 | 13.26358 | 130° | 172km/h | 12284m | -4.8m/s | -58.7°C | 60.5% | 199.2hPa | 2.5V | 00:00:00 | 02:26:00 | 00:00:00 | |
| PG1ADW-2 | 2026-09-05 12:55:27 | 47.85676 | 13.26308 | 130° | 172km/h | 12289m | -4.9m/s | -58.8°C | 60.2% | 199.1hPa | 2.5V | 00:00:00 | 00:00:00 | 00:00:00 | |
| OE5HKT-10 | 2026-09-05 12:55:24 | 47.85757 | 13.26157 | 128° | 173km/h | 12304m | -4.9m/s | -58.9°C | 59.4% | 198.6hPa | 2.5V | 00:00:00 | 00:00:00 | 00:00:00 | |
| OE5MMP-10 | 2026-09-05 12:55:20 | 47.85864 | 13.25954 | 128° | 173km/h | 12323m | -5.0m/s | -58.9°C | 58.3% | 198.0hPa | 2.6V | 00:00:00 | 02:25:52 | 00:00:00 | |
| OE5DRO-10 | 2026-09-05 12:55:18 | 47.85917 | 13.25850 | 128° | 173km/h | 12333m | -4.8m/s | -59.0°C | 58.7% | 197.6hPa | 2.5V | 00:00:00 | 00:00:00 | 00:00:00 | |
| OE5DXL-15 | 2026-09-05 12:55:17 | 47.85944 | 13.25799 | 129° | 173km/h | 12338m | -4.8m/s | -59.1°C | 58.8% | 197.5hPa | 2.5V | 00:00:00 | 00:00:00 | 00:00:00 | |
| PETON7-10 | 2026-09-05 12:55:16 | 47.85971 | 13.25748 | 129° | 172km/h | 12343m | -4.9m/s | -59.1°C | 59.3% | 197.4hPa | 2.5V | 00:00:00 | 02:25:48 | 00:00:00 | |
| OE5REO-15 | 2026-09-05 12:55:14 | 47.85999 | 13.25698 | 129° | 170km/h | 12348m | -4.9m/s | -59.1°C | 50.8% | 197.3hPa | 2.5V | 08:00:00 | 00:00:00 | 00:00:00 | |
| OE5FHM-15 | 2026-09-05 12:55:12 | 47.86079 | 13.25543 | 129° | 172km/h | 12363m | -4.9m/s | -59.0°C | 60.4% | 196.8hPa | 2.5V | 00:00:00 | 02:25:44 | 00:00:00 | |
| OE5MMP-10 | 2026-09-05 12:55:10 | 47.86133 | 13.25441 | 129° | 173km/h | 12373m | -4.8m/s | -59.1°C | 61.6% | 196.4hPa | 2.5V | 00:00:00 | 02:25:42 | 00:00:00 | |
| OE8JPQ-2 | 2026-09-05 12:55:08 | 47.86186 | 13.25338 | 127° | 173km/h | 12383m | -4.9m/s | -59.2°C | 61.4% | 196.1hPa | 2.5V | 00:00:00 | 02:25:40 | 00:00:00 | |
| OE5WHR-10 | 2026-09-05 12:55:07 | 47.86212 | 13.25286 | 128° | 172km/h | 12387m | -4.9m/s | -59.2°C | 61.1% | 196.0hPa | 2.5V | 00:00:00 | 00:00:00 | 00:00:00 | |
| OE5HKT-10 | 2026-09-05 12:55:03 | 47.86319 | 13.25081 | 128° | 172km/h | 12407m | -4.9m/s | -59.5°C | 60.3% | 195.4hPa | 2.5V | 00:00:00 | 00:00:00 | 00:00:00 | |
| PETON7-10 | 2026-09-05 12:55:01 | 47.86373 | 13.24978 | 129° | 172km/h | 12417m | -4.8m/s | -59.5°C | 59.9% | 195.1hPa | 2.5V | 08:00:00 | 00:00:00 | 00:00:00 | |
| OE5MMP-10 | 2026-09-05 12:55:00 | 47.86399 | 13.24927 | 129° | 173km/h | 12422m | -5.0m/s | -59.6°C | 59.7% | 194.9hPa | 2.5V | 00:00:00 | 02:25:32 | 00:00:00 | |
| OE5REO-15 | 2026-09-05 12:54:58 | 47.86427 | 13.24877 | 129° | 172km/h | 12427m | -5.2m/s | -59.7°C | 50.4% | 194.8hPa | 2.5V | 08:00:00 | 00:00:00 | 00:00:00 | |
| OE5MMP-10 | 2026-09-05 12:54:50 | 47.86669 | 13.24415 | 129° | 172km/h | 12472m | -5.0m/s | -60.0°C | 61.7% | 193.4hPa | 2.5V | 00:00:00 | 02:25:22 | 00:00:00 | |
| OE8JPQ-2 | 2026-09-05 12:54:48 | 47.86721 | 13.24314 | 127° | 172km/h | 12482m | -4.8m/s | -60.1°C | 61.8% | 193.0hPa | 2.5V | 00:00:00 | 00:00:00 | 00:00:00 | |
| PG1ADW-2 | 2026-09-05 12:54:47 | 47.86747 | 13.24263 | 127° | 172km/h | 12486m | -4.8m/s | -60.1°C | 60.9% | 192.9hPa | 2.6V | 00:00:00 | 00:00:00 | 00:00:00 | |
| PETON7-10 | 2026-09-05 12:54:46 | 47.86772 | 13.24211 | 127° | 172km/h | 12491m | -4.8m/s | -60.1°C | 60.3% | 192.7hPa | 2.6V | 00:00:00 | 00:00:00 | 00:00:00 | |
| OE5REO-15 | 2026-09-05 12:54:43 | 47.86824 | 13.24107 | 127° | 170km/h | 12501m | -5.1m/s | -60.2°C | 49.4% | 192.5hPa | 2.6V | 08:01:00 | 00:00:00 | 00:00:00 | |
| OE5FHM-15 | 2026-09-05 12:54:42 | 47.86875 | 13.24003 | 126° | 173km/h | 12511m | -5.1m/s | -60.3°C | 57.5% | 192.1hPa | 2.6V | 00:00:00 | 02:25:14 | 00:00:00 | |
| OE5MMP-10 | 2026-09-05 12:54:40 | 47.86926 | 13.23896 | 127° | 172km/h | 12521m | -5.0m/s | -60.3°C | 57.5% | 191.8hPa | 2.5V | 00:00:00 | 02:25:12 | 00:00:00 | |
| DB0UT-7 | 2026-09-05 12:54:35 | 47.87054 | 13.23634 | 126° | 184km/h | 12547m | -4.9m/s | -60.2°C | 53.9% | 191.0hPa | 2.5V | 00:00:00 | 00:00:00 | 00:00:00 | |
| PETON7-10 | 2026-09-05 12:54:31 | 47.87154 | 13.23423 | 125° | 173km/h | 12566m | -5.0m/s | -60.2°C | 51.5% | 190.4hPa | 2.5V | 00:00:00 | 02:25:03 | 00:00:00 | |
| OE5MMP-10 | 2026-09-05 12:54:30 | 47.87179 | 13.23370 | 125° | 173km/h | 12571m | -5.0m/s | -60.2°C | 51.5% | 190.2hPa | 2.5V | 00:00:00 | 02:25:02 | 00:00:00 | |
| DG1MJG | 2026-09-05 12:54:29 | 47.87203 | 13.23316 | 126° | 175km/h | 12577m | -5.1m/s | -60.2°C | 43.1% | 190.1hPa | 2.5V | 08:01:00 | 00:00:00 | 00:00:00 | |
| OE5REO-15 | 2026-09-05 12:54:28 | 47.87203 | 13.23316 | 126° | 175km/h | 12577m | -5.1m/s | -60.2°C | 43.1% | 190.1hPa | 2.5V | 08:01:00 | 00:00:00 | 00:00:00 | |
| PG1ADW-2 | 2026-09-05 12:54:27 | 47.87253 | 13.23209 | 125° | 173km/h | 12586m | -5.0m/s | -60.2°C | 51.8% | 189.8hPa | 2.5V | 00:00:00 | 02:24:59 | 00:00:00 | |
| OE5HKT-10 | 2026-09-05 12:54:21 | 47.87402 | 13.22887 | 124° | 173km/h | 12617m | -5.0m/s | -60.4°C | 51.0% | 188.9hPa | 2.5V | 00:00:00 | 00:00:00 | 00:00:00 | |
| OE5MMP-10 | 2026-09-05 12:54:20 | 47.87426 | 13.22832 | 123° | 173km/h | 12621m | -5.0m/s | -60.4°C | 50.8% | 188.8hPa | 2.6V | 00:00:00 | 02:24:52 | 00:00:00 | |
| PETON7-10 | 2026-09-05 12:54:16 | 47.87522 | 13.22613 | 124° | 173km/h | 12642m | -4.7m/s | -60.6°C | 50.5% | 188.1hPa | 2.5V | 00:00:00 | 00:00:00 | 00:00:00 | |
| OE5FHM-15 | 2026-09-05 12:54:12 | 47.87617 | 13.22394 | 124° | 173km/h | 12661m | -4.9m/s | -60.6°C | 50.2% | 187.6hPa | 2.6V | 00:00:00 | 02:24:44 | 00:00:00 | |
| OE5MMP-10 | 2026-09-05 12:54:10 | 47.87665 | 13.22286 | 123° | 173km/h | 12671m | -5.0m/s | -60.6°C | 49.2% | 187.2hPa | 2.6V | 00:00:00 | 02:24:42 | 00:00:00 | |
| OE5WHR-10 | 2026-09-05 12:54:04 | 47.87804 | 13.21956 | 122° | 173km/h | 12701m | -4.8m/s | -60.6°C | 47.8% | 186.3hPa | 2.6V | 00:00:00 | 00:00:00 | 00:00:00 | |
| OE5DRO-10 | 2026-09-05 12:54:02 | 47.87849 | 13.21844 | 122° | 173km/h | 12710m | -5.0m/s | -60.6°C | 47.7% | 186.0hPa | 2.5V | 00:00:00 | 00:00:00 | 00:00:00 | |
| PETON7-10 | 2026-09-05 12:54:01 | 47.87872 | 13.21788 | 122° | 173km/h | 12716m | -4.9m/s | -60.6°C | 47.6% | 185.9hPa | 2.5V | 00:00:00 | 00:00:00 | 00:00:00 | |
| OE5HKT-10 | 2026-09-05 12:54:00 | 47.87895 | 13.21733 | 122° | 173km/h | 12721m | -4.9m/s | -60.7°C | 47.2% | 185.7hPa | 2.5V | 00:00:00 | 00:00:00 | 00:00:00 | |
| OE5REO-15 | 2026-09-05 12:53:57 | 47.87939 | 13.21622 | 121° | 173km/h | 12731m | -5.1m/s | -60.8°C | 38.7% | 185.5hPa | 2.5V | 08:01:00 | 00:00:00 | 00:00:00 | |
| DG1MJG | 2026-09-05 12:53:56 | 47.87962 | 13.21566 | 122° | 175km/h | 12735m | -4.8m/s | -60.8°C | 38.6% | 185.4hPa | 2.5V | 08:02:00 | 00:00:00 | 00:00:00 | |
| OE8JPQ-2 | 2026-09-05 12:53:51 | 47.88097 | 13.21235 | 122° | 177km/h | 12765m | -4.9m/s | -60.9°C | 46.6% | 184.4hPa | 2.5V | 00:00:00 | 00:00:00 | 00:00:00 | |
| OE5MMP-10 | 2026-09-05 12:53:50 | 47.88120 | 13.21180 | 122° | 173km/h | 12770m | -5.0m/s | -60.9°C | 46.1% | 184.3hPa | 2.5V | 08:01:00 | 02:24:22 | 00:00:00 | |
| PG1ADW-2 | 2026-09-05 12:53:48 | 47.88164 | 13.21068 | 121° | 177km/h | 12780m | -5.0m/s | -61.0°C | 46.1% | 184.0hPa | 2.6V | 00:00:00 | 00:00:00 | 00:00:00 | |
| PETON7-10 | 2026-09-05 12:53:46 | 47.88210 | 13.20954 | 122° | 177km/h | 12790m | -4.9m/s | -61.0°C | 45.5% | 183.7hPa | 2.6V | 00:00:00 | 02:24:18 | 00:00:00 | |
| OE5WHR-10 | 2026-09-05 12:53:43 | 47.88279 | 13.20787 | 121° | 179km/h | 12805m | -5.0m/s | -61.0°C | 45.3% | 183.2hPa | 2.6V | 00:00:00 | 00:00:00 | 00:00:00 | |
| OE5FHM-15 | 2026-09-05 12:53:42 | 47.88301 | 13.20731 | 121° | 181km/h | 12810m | -4.8m/s | -61.1°C | 45.3% | 183.1hPa | 2.6V | 00:00:00 | 02:24:14 | 00:00:00 | |
| OE5REO-15 | 2026-09-05 12:53:41 | 47.88301 | 13.20731 | 121° | 173km/h | 12810m | -4.9m/s | -61.1°C | 37.0% | 183.1hPa | 2.6V | 08:02:00 | 00:00:00 | 00:00:00 | |
| OE5MMP-10 | 2026-09-05 12:53:40 | 47.88345 | 13.20618 | 121° | 179km/h | 12819m | -5.0m/s | -61.2°C | 44.8% | 182.8hPa | 2.6V | 00:00:00 | 02:24:12 | 00:00:00 | |
| OE5HKT-10 | 2026-09-05 12:53:39 | 47.88368 | 13.20561 | 121° | 181km/h | 12824m | -4.8m/s | -61.1°C | 44.3% | 182.7hPa | 2.6V | 00:00:00 | 02:24:11 | 00:00:00 | |
| S52SK | 2026-09-05 12:53:32 | 47.88506 | 13.20214 | 123° | 179km/h | 12854m | -5.0m/s | -61.3°C | 35.6% | 181.8hPa | 2.6V | 00:00:00 | 00:00:00 | 00:00:00 | |
| PETON7-10 | 2026-09-05 12:53:31 | 47.88553 | 13.20100 | 122° | 183km/h | 12864m | -4.8m/s | -61.2°C | 43.2% | 181.5hPa | 2.6V | 00:00:00 | 00:00:00 | 00:00:00 | |
| OE5MMP-10 | 2026-09-05 12:53:30 | 47.88577 | 13.20042 | 123° | 181km/h | 12869m | -5.0m/s | -61.2°C | 43.2% | 181.3hPa | 2.5V | 00:00:00 | 02:24:02 | 00:00:00 | |
| OE8JPQ-2 | 2026-09-05 12:53:29 | 47.88602 | 13.19985 | 123° | 184km/h | 12874m | -5.0m/s | -61.2°C | 43.0% | 181.2hPa | 2.5V | 00:00:00 | 02:24:01 | 00:00:00 | |
| S52SK | 2026-09-05 12:53:27 | 47.88626 | 13.19928 | 123° | 179km/h | 12879m | -4.9m/s | -61.2°C | 34.9% | 181.1hPa | 2.5V | 00:00:00 | 00:00:00 | 00:00:00 | |
| DG1MJG | 2026-09-05 12:53:26 | 47.88674 | 13.19814 | 122° | 179km/h | 12888m | -4.9m/s | -61.2°C | 34.3% | 180.8hPa | 2.5V | 08:02:00 | 00:00:00 | 00:00:00 | |
| OE5REO-15 | 2026-09-05 12:53:25 | 47.88674 | 13.19814 | 122° | 179km/h | 12888m | -4.9m/s | -61.2°C | 34.3% | 180.8hPa | 2.5V | 08:02:00 | 00:00:00 | 00:00:00 | |
| OE5DRO-10 | 2026-09-05 12:53:24 | 47.88721 | 13.19697 | 123° | 186km/h | 12898m | -4.8m/s | -61.2°C | 41.8% | 180.5hPa | 2.5V | 00:00:00 | 00:00:00 | 00:00:00 | |
| OE5WHR-10 | 2026-09-05 12:53:22 | 47.88771 | 13.19580 | 123° | 186km/h | 12908m | -4.7m/s | -61.2°C | 40.8% | 180.2hPa | 2.5V | 00:00:00 | 02:23:54 | 00:00:00 | |
| OE5MMP-10 | 2026-09-05 12:53:20 | 47.88821 | 13.19462 | 124° | 186km/h | 12918m | -5.3m/s | -61.3°C | 40.7% | 179.9hPa | 2.5V | 00:00:00 | 02:23:52 | 00:00:00 | |
| OE5HKT-10 | 2026-09-05 12:53:18 | 47.88874 | 13.19346 | 126° | 186km/h | 12928m | -5.3m/s | -61.3°C | 40.4% | 179.6hPa | 2.5V | 00:00:00 | 00:00:00 | 00:00:00 | |
| PETON7-10 | 2026-09-05 12:53:16 | 47.88927 | 13.19233 | 125° | 111km/h | 12939m | -4.9m/s | -61.3°C | 40.2% | 179.3hPa | 2.5V | 00:00:00 | 00:00:00 | 00:00:00 | |
| OE5FHM-15 | 2026-09-05 12:53:12 | 47.89032 | 13.19001 | 125° | 188km/h | 12959m | -5.3m/s | -61.1°C | 38.5% | 178.7hPa | 2.5V | 00:00:00 | 02:23:44 | 00:00:00 | |
| OE5MMP-10 | 2026-09-05 12:53:10 | 47.89085 | 13.18886 | 124° | 188km/h | 12969m | -5.2m/s | -61.0°C | 37.0% | 178.4hPa | 2.6V | 00:00:00 | 02:23:42 | 00:00:00 | |
| OE8JPQ-2 | 2026-09-05 12:53:09 | 47.89111 | 13.18826 | 124° | 188km/h | 12974m | -4.9m/s | -61.0°C | 36.6% | 178.2hPa | 2.6V | 08:02:00 | 00:00:00 | 00:00:00 | |
| PG1ADW-2 | 2026-09-05 12:53:07 | 47.89167 | 13.18708 | 127° | 161km/h | 12985m | -5.5m/s | -61.1°C | 37.0% | 177.9hPa | 2.5V | 00:00:00 | 00:00:00 | 00:00:00 | |
| OE5DRO-10 | 2026-09-05 12:53:06 | 47.89223 | 13.18595 | 127° | 186km/h | 12996m | -5.3m/s | -60.9°C | 36.2% | 177.6hPa | 2.5V | 00:00:00 | 00:00:00 | 00:00:00 | |
| DB0UT-7 | 2026-09-05 12:53:03 | 47.89278 | 13.18482 | 127° | 186km/h | 13006m | -5.3m/s | -61.0°C | 35.8% | 177.3hPa | 2.5V | 00:00:00 | 02:23:35 | 00:00:00 | |
| OE5WHR-10 | 2026-09-05 12:53:01 | 47.89334 | 13.18369 | 128° | 186km/h | 13017m | -5.3m/s | -60.9°C | 35.0% | 177.0hPa | 2.6V | 08:02:00 | 00:00:00 | 00:00:00 | |
| OE5MMP-10 | 2026-09-05 12:53:00 | 47.89362 | 13.18313 | 127° | 188km/h | 13022m | -5.4m/s | -61.0°C | 35.1% | 176.9hPa | 2.5V | 00:00:00 | 02:23:32 | 00:00:00 | |
| OE5HKT-10 | 2026-09-05 12:52:57 | 47.89447 | 13.18144 | 127° | 186km/h | 13038m | -5.0m/s | -61.0°C | 34.2% | 176.4hPa | 2.5V | 00:00:00 | 00:00:00 | 00:00:00 | |
| DG1MJG | 2026-09-05 12:52:55 | 47.89476 | 13.18087 | 129° | 192km/h | 13043m | -5.4m/s | -61.1°C | 26.6% | 176.3hPa | 2.5V | 08:02:00 | 00:00:00 | 00:00:00 | |
| OE5REO-15 | 2026-09-05 12:52:53 | 47.89536 | 13.17975 | 130° | 188km/h | 13054m | -5.6m/s | -61.2°C | 27.1% | 176.0hPa | 2.5V | 08:02:00 | 00:00:00 | 00:00:00 | |
| OE5MMP-10 | 2026-09-05 12:52:50 | 47.89657 | 13.17758 | 131° | 186km/h | 13076m | -5.5m/s | -61.0°C | 33.9% | 175.3hPa | 2.5V | 00:00:00 | 02:23:22 | 00:00:00 | |
| OE5DRO-10 | 2026-09-05 12:52:46 | 47.89773 | 13.17544 | 129° | 184km/h | 13098m | -5.5m/s | -60.9°C | 31.9% | 174.7hPa | 2.5V | 00:00:00 | 00:00:00 | 00:00:00 | |
| OE5DXL-15 | 2026-09-05 12:52:45 | 47.89803 | 13.17489 | 130° | 179km/h | 13103m | -5.5m/s | -60.8°C | 31.4% | 174.6hPa | 2.6V | 00:00:00 | 00:00:00 | 00:00:00 | |
| OE5FHM-15 | 2026-09-05 12:52:42 | 47.89895 | 13.17327 | 131° | 179km/h | 13120m | -5.7m/s | -60.7°C | 30.4% | 174.1hPa | 2.6V | 00:00:00 | 02:23:14 | 00:00:00 | |
| OE5WHR-10 | 2026-09-05 12:52:40 | 47.89958 | 13.17219 | 132° | 179km/h | 13131m | -5.5m/s | -60.6°C | 30.5% | 173.8hPa | 2.6V | 00:00:00 | 00:00:00 | 00:00:00 | |
| OE5REO-15 | 2026-09-05 12:52:38 | 47.89991 | 13.17166 | 134° | 192km/h | 13136m | -5.6m/s | -60.6°C | 24.0% | 173.7hPa | 2.6V | 08:02:00 | 00:00:00 | 00:00:00 | |
| OE5HKT-10 | 2026-09-05 12:52:35 | 47.90121 | 13.16967 | 134° | 175km/h | 13159m | -5.3m/s | -60.6°C | 30.9% | 173.0hPa | 2.6V | 00:00:00 | 02:23:07 | 00:00:00 | |
| DB0UT-7 | 2026-09-05 12:52:33 | 47.90183 | 13.16870 | 134° | 159km/h | 13169m | -5.2m/s | -60.6°C | 29.8% | 172.7hPa | 2.6V | 00:00:00 | 00:00:00 | 00:00:00 | |
| OE5MMP-10 | 2026-09-05 12:52:30 | 47.90277 | 13.16725 | 135° | 175km/h | 13185m | -5.3m/s | -60.6°C | 28.6% | 172.2hPa | 2.6V | 00:00:00 | 02:23:02 | 00:00:00 | |
| OE8JPQ-2 | 2026-09-05 12:52:29 | 47.90308 | 13.16678 | 135° | 173km/h | 13191m | -5.2m/s | -60.7°C | 28.1% | 172.1hPa | 2.6V | 00:00:00 | 02:23:01 | 00:00:00 | |
| OE5DRO-10 | 2026-09-05 12:52:27 | 47.90435 | 13.16490 | 137° | 170km/h | 13211m | -5.4m/s | -60.3°C | 26.0% | 171.5hPa | 2.6V | 00:00:00 | 00:00:00 | 00:00:00 | |
| DG1MJG | 2026-09-05 12:52:24 | 47.90435 | 13.16490 | 137° | 175km/h | 13211m | -5.5m/s | -60.4°C | 19.8% | 171.6hPa | 2.6V | 08:02:00 | 00:00:00 | 00:00:00 | |
| OE5REO-15 | 2026-09-05 12:52:22 | 47.90498 | 13.16399 | 137° | 173km/h | 13222m | -5.2m/s | -60.2°C | 19.2% | 171.3hPa | 2.6V | 08:02:00 | 00:00:00 | 00:00:00 | |
| OE5MMP-10 | 2026-09-05 12:52:20 | 47.90593 | 13.16262 | 136° | 172km/h | 13238m | -5.4m/s | -60.0°C | 24.4% | 170.8hPa | 2.6V | 08:02:00 | 02:22:52 | 00:00:00 | |
| OE5WHR-10 | 2026-09-05 12:52:19 | 47.90624 | 13.16216 | 135° | 168km/h | 13243m | -5.2m/s | -60.0°C | 24.4% | 170.7hPa | 2.6V | 00:00:00 | 02:22:51 | 00:00:00 | |
| OE5DXL-15 | 2026-09-05 12:52:15 | 47.90747 | 13.16030 | 137° | 164km/h | 13264m | -5.3m/s | -60.1°C | 23.9% | 170.1hPa | 2.6V | 00:00:00 | 00:00:00 | 00:00:00 | |
| OE5FHM-15 | 2026-09-05 12:52:12 | 47.90841 | 13.15899 | 137° | 162km/h | 13280m | -5.2m/s | -60.2°C | 23.5% | 169.6hPa | 2.6V | 00:00:00 | 02:22:44 | 00:00:00 | |
| OE5MMP-10 | 2026-09-05 12:52:10 | 47.90901 | 13.15812 | 136° | 168km/h | 13290m | -5.1m/s | -60.4°C | 23.3% | 169.3hPa | 2.6V | 00:00:00 | 02:22:42 | 00:00:00 | |
| OE8JPQ-2 | 2026-09-05 12:52:09 | 47.90932 | 13.15768 | 137° | 164km/h | 13295m | -4.9m/s | -60.4°C | 23.1% | 169.2hPa | 2.6V | 00:00:00 | 00:00:00 | 00:00:00 | |
| OE5REO-15 | 2026-09-05 12:52:06 | 47.90993 | 13.15681 | 138° | 166km/h | 13306m | -5.4m/s | -60.5°C | 16.8% | 169.0hPa | 2.6V | 08:03:00 | 00:00:00 | 00:00:00 | |
| OE5MMP-10 | 2026-09-05 12:52:00 | 47.91209 | 13.15381 | 137° | 162km/h | 13342m | -5.3m/s | -60.7°C | 21.2% | 167.9hPa | 2.6V | 00:00:00 | 02:22:32 | 00:00:00 | |
| OE5WHR-10 | 2026-09-05 12:51:58 | 47.91269 | 13.15297 | 138° | 159km/h | 13353m | -5.1m/s | -60.7°C | 20.8% | 167.7hPa | 2.6V | 00:00:00 | 00:00:00 | 00:00:00 | |
| DG1MJG | 2026-09-05 12:51:54 | 47.91359 | 13.15173 | 138° | 161km/h | 13369m | -5.4m/s | -60.7°C | 14.9% | 167.3hPa | 2.5V | 08:03:00 | 00:00:00 | 00:00:00 | |
| OE5HKT-10 | 2026-09-05 12:51:53 | 47.91420 | 13.15089 | 138° | 157km/h | 13379m | -5.4m/s | -60.7°C | 20.1% | 166.9hPa | 2.5V | 00:00:00 | 00:00:00 | 00:00:00 | |
| OE5MMP-10 | 2026-09-05 12:51:50 | 47.91512 | 13.14968 | 139° | 157km/h | 13395m | -5.3m/s | -60.8°C | 19.7% | 166.5hPa | 2.5V | 00:00:00 | 02:22:22 | 00:00:00 | |
| OE5DRO-10 | 2026-09-05 12:51:48 | 47.91571 | 13.14888 | 138° | 155km/h | 13406m | -5.4m/s | -60.9°C | 19.5% | 166.2hPa | 2.5V | 08:03:00 | 00:00:00 | 00:00:00 | |
| S52SK | 2026-09-05 12:51:47 | 47.91571 | 13.14888 | 138° | 159km/h | 13406m | -5.4m/s | -61.0°C | 13.9% | 166.2hPa | 2.5V | 00:00:00 | 00:00:00 | 00:00:00 | |
| OE5DXL-15 | 2026-09-05 12:51:45 | 47.91660 | 13.14768 | 139° | 151km/h | 13422m | -5.4m/s | -61.0°C | 18.9% | 165.8hPa | 2.5V | 00:00:00 | 00:00:00 | 00:00:00 | |
| OE8JPQ-2 | 2026-09-05 12:51:43 | 47.91718 | 13.14689 | 137° | 150km/h | 13433m | -5.3m/s | -61.1°C | 18.7% | 165.5hPa | 2.5V | 00:00:00 | 00:00:00 | 00:00:00 | |
| S52SK | 2026-09-05 12:51:42 | 47.91747 | 13.14649 | 138° | 157km/h | 13438m | -5.5m/s | -61.1°C | 13.0% | 165.4hPa | 2.5V | 00:00:00 | 00:00:00 | 00:00:00 | |
| OE5MMP-10 | 2026-09-05 12:51:40 | 47.91806 | 13.14569 | 139° | 153km/h | 13449m | -5.4m/s | -61.1°C | 17.9% | 165.1hPa | 2.5V | 00:00:00 | 02:22:12 | 00:00:00 | |
| OE5HKT-10 | 2026-09-05 12:51:32 | 47.92038 | 13.14264 | 138° | 146km/h | 13492m | -5.5m/s | -61.4°C | 16.7% | 163.9hPa | 2.5V | 00:00:00 | 02:22:04 | 00:00:00 | |
| OE5MMP-10 | 2026-09-05 12:51:30 | 47.92094 | 13.14186 | 138° | 151km/h | 13503m | -5.6m/s | -61.5°C | 16.8% | 163.6hPa | 2.5V | 00:00:00 | 02:22:02 | 00:00:00 | |
| OE5DRO-10 | 2026-09-05 12:51:29 | 47.92123 | 13.14147 | 139° | 146km/h | 13509m | -5.5m/s | -61.5°C | 16.7% | 163.5hPa | 2.5V | 00:00:00 | 00:00:00 | 00:00:00 | |
| DG1MJG | 2026-09-05 12:51:24 | 47.92269 | 13.13958 | 140° | 151km/h | 13536m | -5.2m/s | -61.8°C | 10.9% | 162.8hPa | 2.5V | 08:04:00 | 00:00:00 | 00:00:00 | |
| OE5MMP-10 | 2026-09-05 12:51:20 | 47.92380 | 13.13812 | 137° | 142km/h | 13557m | -5.1m/s | -61.8°C | 15.3% | 162.2hPa | 2.5V | 00:00:00 | 02:21:52 | 00:00:00 | |
| OE5REO-15 | 2026-09-05 12:51:19 | 47.92380 | 13.13812 | 138° | 144km/h | 13557m | -5.2m/s | -61.8°C | 10.2% | 162.3hPa | 2.5V | 08:04:00 | 00:00:00 | 00:00:00 | |
| OE5WHR-10 | 2026-09-05 12:51:16 | 47.92488 | 13.13667 | 138° | 137km/h | 13578m | -5.6m/s | -61.9°C | 14.7% | 161.7hPa | 2.5V | 00:00:00 | 02:21:48 | 00:00:00 | |
| OE5DXL-15 | 2026-09-05 12:51:15 | 47.92514 | 13.13632 | 137° | 133km/h | 13583m | -5.2m/s | -61.9°C | 14.6% | 161.5hPa | 2.5V | 00:00:00 | 00:00:00 | 00:00:00 | |
| OE8JPQ-2 | 2026-09-05 12:51:14 | 47.92540 | 13.13596 | 138° | 133km/h | 13589m | -5.1m/s | -61.9°C | 14.4% | 161.4hPa | 2.5V | 00:00:00 | 02:21:46 | 00:00:00 | |
| OE5FHM-15 | 2026-09-05 12:51:12 | 47.92593 | 13.13524 | 139° | 131km/h | 13599m | -5.5m/s | -62.0°C | 14.3% | 161.1hPa | 2.5V | 00:00:00 | 02:21:44 | 00:00:00 | |
| OE5HKT-10 | 2026-09-05 12:51:11 | 47.92619 | 13.13490 | 138° | 133km/h | 13605m | -5.5m/s | -62.0°C | 14.2% | 161.0hPa | 2.5V | 00:00:00 | 00:00:00 | 00:00:00 | |
| OE5MMP-10 | 2026-09-05 12:51:10 | 47.92645 | 13.13455 | 137° | 139km/h | 13610m | -5.4m/s | -62.0°C | 14.0% | 160.8hPa | 2.5V | 00:00:00 | 02:21:42 | 00:00:00 | |
| OE5REO-15 | 2026-09-05 12:51:04 | 47.92772 | 13.13275 | 137° | 137km/h | 13636m | -5.6m/s | -62.1°C | 8.4% | 160.2hPa | 2.5V | 08:04:00 | 00:00:00 | 00:00:00 | |
| PG1ADW-2 | 2026-09-05 12:51:01 | 47.92898 | 13.13095 | 138° | 126km/h | 13664m | -5.5m/s | -62.1°C | 12.5% | 159.4hPa | 2.5V | 08:04:00 | 00:00:00 | 00:00:00 | |
| OE5MMP-10 | 2026-09-05 12:51:00 | 47.92898 | 13.13095 | 138° | 128km/h | 13664m | -5.5m/s | -62.1°C | 12.5% | 159.4hPa | 2.5V | 00:00:00 | 02:21:32 | 00:00:00 | |
| OE5WHR-10 | 2026-09-05 12:50:55 | 47.93016 | 13.12927 | 137° | 124km/h | 13691m | -4.9m/s | -62.3°C | 12.0% | 158.7hPa | 2.5V | 00:00:00 | 00:00:00 | 00:00:00 | |
| DG1MJG | 2026-09-05 12:50:53 | 47.93039 | 13.12893 | 136° | 126km/h | 13696m | -5.5m/s | -62.3°C | 7.1% | 158.6hPa | 2.5V | 08:04:00 | 00:00:00 | 00:00:00 | |
| OE8JPQ-2 | 2026-09-05 12:50:52 | 47.93083 | 13.12825 | 133° | 119km/h | 13707m | -5.7m/s | -62.2°C | 11.6% | 158.3hPa | 2.5V | 00:00:00 | 00:00:00 | 00:00:00 | |
| OE5DRO-10 | 2026-09-05 12:50:51 | 47.93105 | 13.12789 | 133° | 122km/h | 13713m | -5.6m/s | -62.3°C | 11.6% | 158.1hPa | 2.6V | 00:00:00 | 00:00:00 | 00:00:00 | |
| OE5MMP-10 | 2026-09-05 12:50:50 | 47.93127 | 13.12752 | 134° | 124km/h | 13718m | -5.7m/s | -62.3°C | 11.5% | 158.0hPa | 2.6V | 08:04:00 | 02:21:22 | 00:00:00 | |
| DB0UT-7 | 2026-09-05 12:50:48 | 47.93174 | 13.12682 | 137° | 115km/h | 13730m | -5.4m/s | -62.4°C | 11.3% | 157.7hPa | 2.5V | 08:04:00 | 00:00:00 | 00:00:00 | |
| OE5REO-15 | 2026-09-05 12:50:47 | 47.93174 | 13.12682 | 138° | 130km/h | 13730m | -5.5m/s | -62.4°C | 6.6% | 157.7hPa | 2.5V | 08:04:00 | 00:00:00 | 00:00:00 | |
| OE5DXL-15 | 2026-09-05 12:50:45 | 47.93242 | 13.12588 | 135° | 117km/h | 13745m | -5.6m/s | -62.3°C | 11.0% | 157.3hPa | 2.5V | 00:00:00 | 00:00:00 | 00:00:00 | |
| OE5FHM-15 | 2026-09-05 12:50:42 | 47.93302 | 13.12488 | 131° | 115km/h | 13762m | -5.0m/s | -62.2°C | 10.7% | 156.9hPa | 2.5V | 00:00:00 | 02:21:14 | 00:00:00 | |
| OE5MMP-10 | 2026-09-05 12:50:40 | 47.93342 | 13.12419 | 132° | 119km/h | 13771m | -5.1m/s | -62.3°C | 10.6% | 156.6hPa | 2.5V | 00:00:00 | 02:21:12 | 00:00:00 | |
| OE5WHR-10 | 2026-09-05 12:50:34 | 47.93463 | 13.12215 | 134° | 113km/h | 13802m | -5.0m/s | -62.4°C | 10.0% | 155.9hPa | 2.5V | 00:00:00 | 00:00:00 | 00:00:00 | |
| OE5DRO-10 | 2026-09-05 12:50:32 | 47.93502 | 13.12151 | 131° | 113km/h | 13813m | -5.3m/s | -62.4°C | 9.6% | 155.6hPa | 2.5V | 00:00:00 | 00:00:00 | 00:00:00 | |
| OE5REO-15 | 2026-09-05 12:50:31 | 47.93502 | 13.12151 | 131° | 113km/h | 13813m | -5.3m/s | -62.4°C | 5.3% | 155.7hPa | 2.5V | 08:05:00 | 00:00:00 | 00:00:00 | |
| OE5HKT-10 | 2026-09-05 12:50:30 | 47.93555 | 13.12049 | 127° | 113km/h | 13828m | -4.9m/s | -62.3°C | 9.3% | 155.2hPa | 2.5V | 00:00:00 | 02:21:01 | 00:00:00 | |
| OE8JPQ-2 | 2026-09-05 12:50:28 | 47.93573 | 13.12014 | 128° | 113km/h | 13834m | -5.0m/s | -62.2°C | 9.3% | 155.1hPa | 2.5V | 00:00:00 | 00:00:00 | 00:00:00 | |
| DG1MJG | 2026-09-05 12:50:22 | 47.93661 | 13.11835 | 128° | 119km/h | 13859m | -5.1m/s | -62.2°C | 4.8% | 154.5hPa | 2.5V | 08:05:00 | 00:00:00 | 00:00:00 | |
| OE5MMP-10 | 2026-09-05 12:50:20 | 47.93713 | 13.11733 | 126° | 111km/h | 13874m | -5.2m/s | -62.2°C | 8.9% | 154.1hPa | 2.5V | 00:00:00 | 02:20:52 | 00:00:00 | |
| OE5REO-15 | 2026-09-05 12:50:16 | 47.93759 | 13.11629 | 124° | 111km/h | 13890m | -5.3m/s | -62.2°C | 4.6% | 153.7hPa | 2.5V | 08:05:00 | 00:00:00 | 00:00:00 | |
| OE5DXL-15 | 2026-09-05 12:50:15 | 47.93790 | 13.11560 | 123° | 111km/h | 13900m | -5.3m/s | -62.2°C | 8.8% | 153.5hPa | 2.5V | 00:00:00 | 00:00:00 | 00:00:00 | |
| OE5WHR-10 | 2026-09-05 12:50:13 | 47.93819 | 13.11489 | 120° | 111km/h | 13911m | -5.5m/s | -62.2°C | 8.7% | 153.2hPa | 2.6V | 00:00:00 | 02:20:45 | 00:00:00 | |
| OE5FHM-15 | 2026-09-05 12:50:12 | 47.93833 | 13.11451 | 120° | 111km/h | 13917m | -5.5m/s | -62.2°C | 8.7% | 153.0hPa | 2.6V | 00:00:00 | 02:20:44 | 00:00:00 | |
| OE5MMP-10 | 2026-09-05 12:50:10 | 47.93864 | 13.11376 | 123° | 110km/h | 13927m | -5.0m/s | -62.2°C | 8.7% | 152.8hPa | 2.5V | 00:00:00 | 02:20:42 | 00:00:00 | |
| OE8JPQ-2 | 2026-09-05 12:50:08 | 47.93894 | 13.11303 | 122° | 110km/h | 13938m | -5.4m/s | -62.2°C | 8.6% | 152.5hPa | 2.5V | 00:00:00 | 02:20:40 | 00:00:00 | |
| OE5REO-15 | 2026-09-05 12:50:01 | 47.93980 | 13.11092 | 118° | 108km/h | 13969m | -5.2m/s | -62.1°C | 4.0% | 151.8hPa | 2.5V | 08:05:00 | 00:00:00 | 00:00:00 | |
| OE5MMP-10 | 2026-09-05 12:50:00 | 47.94006 | 13.11019 | 119° | 111km/h | 13979m | -4.8m/s | -62.0°C | 8.2% | 151.5hPa | 2.5V | 00:00:00 | 02:20:32 | 00:00:00 | |
| OE5DRO-10 | 2026-09-05 12:49:54 | 47.94087 | 13.10792 | 121° | 110km/h | 14009m | -5.4m/s | -61.7°C | 8.0% | 150.7hPa | 2.5V | 00:00:00 | 00:00:00 | 00:00:00 | |
| OE5MMP-10 | 2026-09-05 12:49:50 | 47.94139 | 13.10651 | 117° | 111km/h | 14030m | -5.2m/s | -61.6°C | 7.9% | 150.3hPa | 2.5V | 00:00:00 | 02:20:22 | 00:00:00 | |
| OE8JPQ-2 | 2026-09-05 12:49:48 | 47.94164 | 13.10580 | 118° | 110km/h | 14041m | -5.5m/s | -61.4°C | 7.7% | 150.0hPa | 2.5V | 08:05:00 | 00:00:00 | 00:00:00 | |
| OE5HKT-10 | 2026-09-05 12:49:47 | 47.94176 | 13.10543 | 116° | 111km/h | 14046m | -5.5m/s | -61.4°C | 7.7% | 149.9hPa | 2.5V | 00:00:00 | 00:00:00 | 00:00:00 | |
| DB0UT-7 | 2026-09-05 12:49:46 | 47.94187 | 13.10507 | 115° | 117km/h | 14052m | -5.5m/s | -61.4°C | 7.6% | 149.7hPa | 2.5V | 00:00:00 | 02:20:18 | 00:00:00 | |
| OE5DXL-15 | 2026-09-05 12:49:45 | 47.94199 | 13.10468 | 115° | 111km/h | 14057m | -5.3m/s | -61.4°C | 7.6% | 149.6hPa | 2.5V | 00:00:00 | 00:00:00 | 00:00:00 | |
| S52SK | 2026-09-05 12:49:44 | 47.94199 | 13.10468 | 116° | 113km/h | 14057m | -5.3m/s | -61.4°C | 3.7% | 149.7hPa | 2.5V | 00:00:00 | 00:00:00 | 00:00:00 | |
| OE5FHM-15 | 2026-09-05 12:49:42 | 47.94238 | 13.10351 | 118° | 113km/h | 14073m | -4.9m/s | -61.3°C | 7.7% | 149.2hPa | 2.5V | 00:00:00 | 02:20:14 | 00:00:00 | |
| OE5MMP-10 | 2026-09-05 12:49:40 | 47.94264 | 13.10276 | 116° | 110km/h | 14083m | -5.1m/s | -61.3°C | 7.6% | 149.0hPa | 2.5V | 00:00:00 | 02:20:12 | 00:00:00 | |
| S52SK | 2026-09-05 12:49:39 | 47.94264 | 13.10276 | 117° | 110km/h | 14083m | -5.2m/s | -61.3°C | 3.6% | 149.0hPa | 2.5V | 00:00:00 | 00:00:00 | 00:00:00 | |
| OE5DRO-10 | 2026-09-05 12:49:35 | 47.94338 | 13.10010 | 112° | 113km/h | 14120m | -5.7m/s | -61.1°C | 7.4% | 148.1hPa | 2.5V | 00:00:00 | 00:00:00 | 00:00:00 | |
| OE5REO-15 | 2026-09-05 12:49:31 | 47.94360 | 13.09931 | 114° | 113km/h | 14131m | -5.7m/s | -61.1°C | 3.5% | 147.9hPa | 2.5V | 08:06:00 | 00:00:00 | 00:00:00 | |
| OE5MMP-10 | 2026-09-05 12:49:30 | 47.94371 | 13.09892 | 112° | 111km/h | 14137m | -5.1m/s | -61.0°C | 7.3% | 147.7hPa | 2.5V | 00:00:00 | 02:20:02 | 00:00:00 | |
| OE8JPQ-2 | 2026-09-05 12:49:27 | 47.94399 | 13.09777 | 109° | 115km/h | 14153m | -5.6m/s | -60.9°C | 7.2% | 147.3hPa | 2.5V | 00:00:00 | 00:00:00 | 00:00:00 | |
| OE5HKT-10 | 2026-09-05 12:49:24 | 47.94427 | 13.09656 | 110° | 117km/h | 14169m | -5.2m/s | -60.9°C | 7.1% | 147.0hPa | 2.5V | 00:00:00 | 02:19:56 | 00:00:00 | |
| OE5MMP-10 | 2026-09-05 12:49:20 | 47.94462 | 13.09495 | 108° | 117km/h | 14190m | -5.7m/s | -60.9°C | 7.0% | 146.4hPa | 2.5V | 08:05:00 | 02:19:52 | 00:00:00 | |
| OE5DXL-15 | 2026-09-05 12:49:15 | 47.94501 | 13.09284 | 105° | 128km/h | 14217m | -5.5m/s | -60.8°C | 6.9% | 145.8hPa | 2.6V | 00:00:00 | 00:00:00 | 00:00:00 | |
| OE5REO-15 | 2026-09-05 12:49:14 | 47.94501 | 13.09284 | 105° | 120km/h | 14217m | -5.5m/s | -60.9°C | 3.1% | 145.8hPa | 2.6V | 08:06:00 | 00:00:00 | 00:00:00 | |
| OE5FHM-15 | 2026-09-05 12:49:12 | 47.94526 | 13.09154 | 106° | 126km/h | 14233m | -5.3m/s | -60.7°C | 6.9% | 145.4hPa | 2.6V | 00:00:00 | 02:19:44 | 00:00:00 | |
| OE5WHR-10 | 2026-09-05 12:49:10 | 47.94541 | 13.09068 | 106° | 126km/h | 14244m | -5.2m/s | -60.7°C | 7.0% | 145.2hPa | 2.6V | 00:00:00 | 02:19:42 | 00:00:00 | |
| OE8JPQ-2 | 2026-09-05 12:49:06 | 47.94569 | 13.08897 | 101° | 130km/h | 14266m | -5.6m/s | -60.5°C | 6.8% | 144.7hPa | 2.6V | 00:00:00 | 02:19:38 | 00:00:00 | |
| OE5HKT-10 | 2026-09-05 12:49:03 | 47.94588 | 13.08758 | 103° | 128km/h | 14282m | -5.6m/s | -60.6°C | 6.8% | 144.2hPa | 2.6V | 08:06:00 | 00:00:00 | 00:00:00 | |
| OE5MMP-10 | 2026-09-05 12:49:00 | 47.94611 | 13.08618 | 104° | 130km/h | 14299m | -5.6m/s | -60.7°C | 6.9% | 143.9hPa | 2.6V | 00:00:00 | 02:19:32 | 00:00:00 | |
| PG1ADW-2 | 2026-09-05 12:48:58 | 47.94627 | 13.08524 | 106° | 130km/h | 14310m | -5.7m/s | -60.8°C | 6.9% | 143.6hPa | 2.6V | 00:00:00 | 00:00:00 | 00:00:00 | |
| OE5MMP-10 | 2026-09-05 12:48:50 | 47.94695 | 13.08147 | 107° | 128km/h | 14355m | -5.7m/s | -59.6°C | 6.1% | 142.6hPa | 2.5V | 00:00:00 | 02:19:22 | 00:00:00 | |
| OE5WHR-10 | 2026-09-05 12:48:49 | 47.94705 | 13.08098 | 109° | 126km/h | 14361m | -5.6m/s | -59.6°C | 6.1% | 142.4hPa | 2.5V | 00:00:00 | 00:00:00 | 00:00:00 | |
| OE5DXL-15 | 2026-09-05 12:48:45 | 47.94767 | 13.07827 | 108° | 120km/h | 14395m | -5.7m/s | -59.3°C | 6.1% | 141.7hPa | 2.5V | 08:06:00 | 00:00:00 | 00:00:00 | |
| OE5HKT-10 | 2026-09-05 12:48:42 | 47.94777 | 13.07781 | 109° | 115km/h | 14401m | -5.6m/s | -59.3°C | 6.1% | 141.6hPa | 2.6V | 00:00:00 | 00:00:00 | 00:00:00 | |
| OE5FHM-15 | 2026-09-05 12:48:41 | 47.94788 | 13.07736 | 110° | 120km/h | 14406m | -5.6m/s | -59.3°C | 6.1% | 141.4hPa | 2.6V | 00:00:00 | 02:19:13 | 00:00:00 | |
| OE5MMP-10 | 2026-09-05 12:48:40 | 47.94798 | 13.07690 | 110° | 126km/h | 14412m | -5.5m/s | -59.3°C | 6.0% | 141.3hPa | 2.5V | 00:00:00 | 02:19:12 | 00:00:00 | |
| OE8JPQ-2 | 2026-09-05 12:48:39 | 47.94809 | 13.07644 | 109° | 113km/h | 14418m | -5.4m/s | -59.3°C | 6.1% | 141.2hPa | 2.5V | 00:00:00 | 00:00:00 | 00:00:00 | |
| PG1ADW-2 | 2026-09-05 12:48:38 | 47.94820 | 13.07598 | 110° | 115km/h | 14423m | -5.6m/s | -59.4°C | 6.0% | 141.0hPa | 2.5V | 00:00:00 | 02:19:10 | 00:00:00 | |
| OE5MMP-10 | 2026-09-05 12:48:30 | 47.94917 | 13.07251 | 114° | 124km/h | 14469m | -5.7m/s | -59.5°C | 6.3% | 140.0hPa | 2.5V | 00:00:00 | 02:19:02 | 00:00:00 | |
| OE5WHR-10 | 2026-09-05 12:48:28 | 47.94940 | 13.07167 | 111° | 119km/h | 14480m | -5.6m/s | -59.5°C | 6.3% | 139.8hPa | 2.5V | 00:00:00 | 00:00:00 | 00:00:00 | |
| OE5REO-15 | 2026-09-05 12:48:26 | 47.94962 | 13.07078 | 112° | 131km/h | 14491m | -5.7m/s | -59.4°C | 2.6% | 139.6hPa | 2.5V | 08:07:00 | 00:00:00 | 00:00:00 | |
| DO7DH-14 | 2026-09-05 12:48:21 | 47.95035 | 13.06866 | 122° | 110km/h | 14519m | -5.9m/s | -58.9°C | 6.2% | 138.9hPa | 2.5V | 00:00:00 | 02:18:53 | 00:00:00 | |
| OE5MMP-10 | 2026-09-05 12:48:20 | 47.95049 | 13.06830 | 121° | 110km/h | 14526m | -6.1m/s | -58.7°C | 6.1% | 138.7hPa | 2.5V | 00:00:00 | 02:18:52 | 00:00:00 | |
| OE5DXL-15 | 2026-09-05 12:48:14 | 47.95115 | 13.06575 | 105° | 113km/h | 14568m | -5.6m/s | -58.0°C | 5.4% | 137.8hPa | 2.6V | 00:00:00 | 00:00:00 | 00:00:00 | |
| OE5REO-15 | 2026-09-05 12:48:11 | 47.95133 | 13.06486 | 110° | 128km/h | 14579m | -6.0m/s | -58.1°C | 2.2% | 137.6hPa | 2.6V | 08:07:00 | 00:00:00 | 00:00:00 | |
| OE5MMP-10 | 2026-09-05 12:48:10 | 47.95145 | 13.06441 | 113° | 108km/h | 14585m | -5.8m/s | -57.9°C | 5.5% | 137.4hPa | 2.6V | 00:00:00 | 02:18:42 | 00:00:00 | |
| OE5WHR-10 | 2026-09-05 12:48:07 | 47.95188 | 13.06318 | 123° | 106km/h | 14601m | -5.4m/s | -57.5°C | 5.4% | 137.1hPa | 2.6V | 00:00:00 | 02:18:39 | 00:00:00 | |
| OE5MMP-10 | 2026-09-05 12:48:00 | 47.95264 | 13.06082 | 105° | 115km/h | 14644m | -5.7m/s | -57.4°C | 5.1% | 136.1hPa | 2.6V | 00:00:00 | 02:18:32 | 00:00:00 | |
| OE5REO-15 | 2026-09-05 12:47:54 | 47.95312 | 13.05867 | 116° | 126km/h | 14673m | -5.9m/s | -57.5°C | 2.1% | 135.6hPa | 2.6V | 08:07:00 | 00:00:00 | 00:00:00 | |
| DB0UT-7 | 2026-09-05 12:47:53 | 47.95341 | 13.05787 | 121° | 108km/h | 14685m | -5.6m/s | -57.6°C | 5.4% | 135.3hPa | 2.6V | 00:00:00 | 00:00:00 | 00:00:00 | |
| DO7DH-14 | 2026-09-05 12:47:51 | 47.95368 | 13.05718 | 120° | 102km/h | 14696m | -5.7m/s | -57.6°C | 5.4% | 135.1hPa | 2.6V | 00:00:00 | 02:18:23 | 00:00:00 | |
| OE5MMP-10 | 2026-09-05 12:47:50 | 47.95379 | 13.05687 | 117° | 106km/h | 14702m | -5.5m/s | -57.6°C | 5.4% | 134.9hPa | 2.6V | 08:07:00 | 02:18:22 | 00:00:00 | |
| DG1MJG | 2026-09-05 12:47:49 | 47.95379 | 13.05687 | 117° | 93km/h | 14702m | -5.5m/s | -57.7°C | 2.1% | 135.0hPa | 2.5V | 08:07:00 | 00:00:00 | 00:00:00 | |
| OE5WHR-10 | 2026-09-05 12:47:46 | 47.95409 | 13.05551 | 104° | 111km/h | 14725m | -5.9m/s | -57.7°C | 5.3% | 134.4hPa | 2.5V | 00:00:00 | 00:00:00 | 00:00:00 | |
| OE5DXL-15 | 2026-09-05 12:47:44 | 47.95424 | 13.05470 | 107° | 104km/h | 14736m | -5.6m/s | -57.8°C | 5.4% | 134.2hPa | 2.5V | 00:00:00 | 00:00:00 | 00:00:00 | |
| OE5DRO-10 | 2026-09-05 12:47:42 | 47.95445 | 13.05387 | 114° | 111km/h | 14748m | -5.4m/s | -57.7°C | 5.5% | 133.9hPa | 2.5V | 00:00:00 | 00:00:00 | 00:00:00 | |
| OE5FHM-15 | 2026-09-05 12:47:41 | 47.95457 | 13.05348 | 118° | 110km/h | 14753m | -5.2m/s | -57.7°C | 5.5% | 133.8hPa | 2.6V | 00:00:00 | 02:18:13 | 00:00:00 | |
| OE5REO-15 | 2026-09-05 12:47:40 | 47.95470 | 13.05311 | 119° | 106km/h | 14759m | -5.8m/s | -57.8°C | 2.2% | 133.8hPa | 2.6V | 08:07:00 | 00:00:00 | 00:00:00 | |
| OE8JPQ-2 | 2026-09-05 12:47:35 | 47.95516 | 13.05142 | 104° | 108km/h | 14788m | -5.5m/s | -57.7°C | 5.4% | 133.1hPa | 2.6V | 00:00:00 | 02:18:07 | 00:00:00 | |
| OE5MMP-10 | 2026-09-05 12:47:30 | 47.95558 | 13.04926 | 113° | 106km/h | 14818m | -6.2m/s | -57.3°C | 5.1% | 132.4hPa | 2.6V | 00:00:00 | 02:18:02 | 00:00:00 | |
| OE5WHR-10 | 2026-09-05 12:47:25 | 47.95630 | 13.04734 | 124° | 102km/h | 14849m | -6.3m/s | -57.0°C | 5.2% | 131.8hPa | 2.6V | 00:00:00 | 00:00:00 | 00:00:00 | |
| OE5REO-15 | 2026-09-05 12:47:24 | 47.95644 | 13.04703 | 123° | 97km/h | 14855m | -6.4m/s | -57.0°C | 2.1% | 131.7hPa | 2.6V | 08:07:00 | 00:00:00 | 00:00:00 | |
| DB0UT-7 | 2026-09-05 12:47:23 | 47.95656 | 13.04672 | 120° | 93km/h | 14861m | -6.1m/s | -57.0°C | 5.1% | 131.5hPa | 2.6V | 00:00:00 | 02:17:55 | 00:00:00 | |
| PG1ADW-2 | 2026-09-05 12:47:21 | 47.95675 | 13.04611 | 110° | 106km/h | 14873m | -5.5m/s | -57.0°C | 5.0% | 131.3hPa | 2.5V | 00:00:00 | 00:00:00 | 00:00:00 | |
| OE5MMP-10 | 2026-09-05 12:47:20 | 47.95682 | 13.04577 | 106° | 113km/h | 14879m | -5.7m/s | -57.0°C | 5.0% | 131.2hPa | 2.5V | 00:00:00 | 02:17:52 | 00:00:00 | |
| DG1MJG | 2026-09-05 12:47:19 | 47.95682 | 13.04577 | 106° | 95km/h | 14879m | -5.8m/s | -57.0°C | 1.9% | 131.2hPa | 2.5V | 08:07:00 | 00:00:00 | 00:00:00 | |
| OE8JPQ-2 | 2026-09-05 12:47:15 | 47.95720 | 13.04374 | 112° | 106km/h | 14910m | -6.0m/s | -57.3°C | 5.1% | 130.6hPa | 2.5V | 00:00:00 | 00:00:00 | 00:00:00 | |
| DG1MFX-10 | 2026-09-05 12:47:14 | 47.95720 | 13.04374 | 112° | 124km/h | 14910m | -6.1m/s | -57.4°C | 2.0% | 130.6hPa | 2.6V | 00:00:00 | 00:00:00 | 00:00:00 | |
| OE5DXL-15 | 2026-09-05 12:47:12 | 47.95775 | 13.04218 | 123° | 100km/h | 14933m | -5.9m/s | -57.3°C | 5.2% | 130.1hPa | 2.6V | 00:00:00 | 00:00:00 | 00:00:00 | |
| OE5FHM-15 | 2026-09-05 12:47:11 | 47.95775 | 13.04218 | 123° | 100km/h | 14933m | -5.9m/s | -57.3°C | 5.2% | 130.1hPa | 2.6V | 08:07:00 | 02:17:43 | 00:00:00 | |
| OE5MMP-10 | 2026-09-05 12:47:10 | 47.95788 | 13.04186 | 122° | 100km/h | 14939m | -6.1m/s | -57.3°C | 5.2% | 129.9hPa | 2.6V | 00:00:00 | 02:17:42 | 00:00:00 | |
| OE5HKT-10 | 2026-09-05 12:47:08 | 47.95810 | 13.04125 | 115° | 97km/h | 14951m | -6.3m/s | -57.2°C | 5.2% | 129.7hPa | 2.6V | 00:00:00 | 02:17:40 | 00:00:00 | |
| OE5REO-15 | 2026-09-05 12:47:07 | 47.95811 | 13.04125 | 116° | 88km/h | 14951m | -6.4m/s | -57.3°C | 2.0% | 129.7hPa | 2.6V | 08:08:00 | 00:00:00 | 00:00:00 | |
| OE5WHR-10 | 2026-09-05 12:47:04 | 47.95838 | 13.03991 | 103° | 100km/h | 14976m | -6.1m/s | -57.6°C | 5.2% | 129.2hPa | 2.6V | 00:00:00 | 02:17:36 | 00:00:00 | |
| OE5MMP-10 | 2026-09-05 12:47:00 | 47.95871 | 13.03829 | 114° | 93km/h | 15000m | -5.8m/s | -57.5°C | 5.3% | 128.7hPa | 2.6V | 00:00:00 | 02:17:32 | 00:00:00 | |
| BAUMI2-15 | 2026-09-05 12:46:56 | 47.95921 | 13.03691 | 121° | 84km/h | 15025m | -6.5m/s | -57.4°C | 5.3% | 128.1hPa | 2.6V | 00:00:00 | 02:17:28 | 00:00:00 | |
| OE8JPQ-2 | 2026-09-05 12:46:55 | 47.95932 | 13.03662 | 119° | 97km/h | 15032m | -6.8m/s | -57.3°C | 5.2% | 128.0hPa | 2.6V | 00:00:00 | 00:00:00 | 00:00:00 | |
| BAUMI2-15 | 2026-09-05 12:46:51 | 47.95962 | 13.03548 | 103° | 106km/h | 15059m | -6.2m/s | -57.1°C | 5.0% | 127.5hPa | 2.6V | 00:00:00 | 02:17:23 | 00:00:00 | |
| OE5MMP-10 | 2026-09-05 12:46:50 | 47.95966 | 13.03516 | 100° | 108km/h | 15065m | -6.0m/s | -57.0°C | 4.9% | 127.3hPa | 2.6V | 00:00:00 | 02:17:22 | 00:00:00 | |
| DG1MJG | 2026-09-05 12:46:48 | 47.95970 | 13.03481 | 100° | 97km/h | 15071m | -5.9m/s | -57.1°C | 1.9% | 127.2hPa | 2.5V | 08:08:00 | 00:00:00 | 00:00:00 | |
| OE5HKT-10 | 2026-09-05 12:46:47 | 47.95978 | 13.03404 | 102° | 75km/h | 15083m | -6.0m/s | -57.1°C | 5.0% | 127.0hPa | 2.5V | 00:00:00 | 00:00:00 | 00:00:00 | |
| OE5DRO-10 | 2026-09-05 12:46:45 | 47.95992 | 13.03321 | 107° | 108km/h | 15096m | -6.5m/s | -57.0°C | 5.0% | 126.7hPa | 2.6V | 00:00:00 | 00:00:00 | 00:00:00 | |
| BAUMI2-15 | 2026-09-05 12:46:44 | 47.96002 | 13.03279 | 111° | 108km/h | 15103m | -6.8m/s | -56.9°C | 5.0% | 126.6hPa | 2.5V | 00:00:00 | 02:17:16 | 00:00:00 | |
| OE5WHR-10 | 2026-09-05 12:46:43 | 47.96013 | 13.03239 | 113° | 104km/h | 15109m | -6.4m/s | -56.7°C | 5.0% | 126.5hPa | 2.5V | 08:08:00 | 00:00:00 | 00:00:00 | |
| OE5FHM-15 | 2026-09-05 12:46:41 | 47.96036 | 13.03165 | 117° | 100km/h | 15123m | -6.6m/s | -56.5°C | 4.9% | 126.2hPa | 2.5V | 00:00:00 | 02:17:13 | 00:00:00 | |
| OE5MMP-10 | 2026-09-05 12:46:40 | 47.96047 | 13.03131 | 117° | 102km/h | 15129m | -5.9m/s | -56.6°C | 4.9% | 126.1hPa | 2.5V | 00:00:00 | 02:17:12 | 00:00:00 | |
| BAUMI2-15 | 2026-09-05 12:46:39 | 47.96058 | 13.03100 | 114° | 91km/h | 15135m | -5.7m/s | -56.7°C | 4.9% | 126.0hPa | 2.5V | 00:00:00 | 02:17:11 | 00:00:00 | |
| OE8JPQ-2 | 2026-09-05 12:46:35 | 47.96079 | 13.02969 | 98° | 100km/h | 15160m | -6.2m/s | -57.0°C | 4.8% | 125.5hPa | 2.5V | 00:00:00 | 02:17:07 | 00:00:00 | |
| DO3MHA-11 | 2026-09-05 12:46:34 | 47.96083 | 13.02929 | 99° | 104km/h | 15166m | -6.2m/s | -56.9°C | 4.8% | 125.3hPa | 2.5V | 00:00:00 | 02:17:06 | 00:00:00 | |
| OE5MMP-10 | 2026-09-05 12:46:30 | 47.96112 | 13.02758 | 111° | 100km/h | 15192m | -6.4m/s | -56.9°C | 4.8% | 124.8hPa | 2.5V | 00:00:00 | 02:17:02 | 00:00:00 | |
| BAUMI2-15 | 2026-09-05 12:46:29 | 47.96124 | 13.02717 | 114° | 110km/h | 15199m | -6.7m/s | -57.0°C | 4.9% | 124.6hPa | 2.5V | 00:00:00 | 02:17:01 | 00:00:00 | |
| DG1MFX-10 | 2026-09-05 12:46:27 | 47.96136 | 13.02677 | 117° | 115km/h | 15206m | -6.9m/s | -57.0°C | 1.9% | 124.6hPa | 2.5V | 08:08:00 | 00:00:00 | 00:00:00 | |
| OE5DRO-10 | 2026-09-05 12:46:26 | 47.96163 | 13.02604 | 121° | 95km/h | 15220m | -6.9m/s | -57.0°C | 5.1% | 124.3hPa | 2.5V | 00:00:00 | 00:00:00 | 00:00:00 | |
| BAUMI2-15 | 2026-09-05 12:46:24 | 47.96188 | 13.02541 | 120° | 84km/h | 15234m | -6.4m/s | -57.1°C | 5.1% | 124.0hPa | 2.5V | 00:00:00 | 02:16:56 | 00:00:00 | |
| OE5WHR-10 | 2026-09-05 12:46:22 | 47.96207 | 13.02484 | 113° | 89km/h | 15248m | -7.0m/s | -56.9°C | 5.0% | 123.7hPa | 2.5V | 00:00:00 | 00:00:00 | 00:00:00 | |
| OE5REO-15 | 2026-09-05 12:46:21 | 47.96206 | 13.02484 | 113° | 80km/h | 15248m | -7.0m/s | -56.9°C | 1.8% | 123.8hPa | 2.5V | 08:08:00 | 00:00:00 | 00:00:00 | |
| OE5MMP-10 | 2026-09-05 12:46:20 | 47.96219 | 13.02427 | 103° | 100km/h | 15261m | -6.8m/s | -56.6°C | 4.8% | 123.5hPa | 2.5V | 08:08:00 | 02:16:52 | 00:00:00 | |
| DG1MJG | 2026-09-05 12:46:19 | 47.96223 | 13.02396 | 101° | 86km/h | 15268m | -6.9m/s | -56.6°C | 1.8% | 123.4hPa | 2.5V | 08:08:00 | 00:00:00 | 00:00:00 | |
| OE8JPQ-2 | 2026-09-05 12:46:15 | 47.96240 | 13.02251 | 103° | 86km/h | 15296m | -6.4m/s | -56.8°C | 4.9% | 122.8hPa | 2.5V | 08:08:00 | 00:00:00 | 00:00:00 | |
| BAUMI2-15 | 2026-09-05 12:46:14 | 47.96247 | 13.02210 | 108° | 104km/h | 15302m | -6.3m/s | -56.8°C | 4.9% | 122.8hPa | 2.5V | 00:00:00 | 02:16:46 | 00:00:00 | |
| DB0UT-7 | 2026-09-05 12:46:13 | 47.96256 | 13.02171 | 112° | 89km/h | 15309m | -6.2m/s | -56.9°C | 4.9% | 122.6hPa | 2.5V | 00:00:00 | 00:00:00 | 00:00:00 | |
| OE5DXL-15 | 2026-09-05 12:46:12 | 47.96268 | 13.02134 | 117° | 88km/h | 15315m | -6.2m/s | -56.8°C | 4.8% | 122.5hPa | 2.5V | 00:00:00 | 00:00:00 | 00:00:00 | |
| OE5FHM-15 | 2026-09-05 12:46:11 | 47.96280 | 13.02099 | 120° | 88km/h | 15322m | -6.5m/s | -56.8°C | 4.8% | 122.4hPa | 2.5V | 00:00:00 | 02:16:43 | 00:00:00 | |
| OE5MMP-10 | 2026-09-05 12:46:10 | 47.96293 | 13.02068 | 123° | 82km/h | 15329m | -6.6m/s | -56.7°C | 4.8% | 122.3hPa | 2.5V | 00:00:00 | 02:16:42 | 00:00:00 | |
| BAUMI2-15 | 2026-09-05 12:46:09 | 47.96306 | 13.02039 | 123° | 77km/h | 15336m | -7.0m/s | -56.5°C | 4.7% | 122.1hPa | 2.5V | 00:00:00 | 02:16:41 | 00:00:00 | |
| OE5DRO-10 | 2026-09-05 12:46:07 | 47.96327 | 13.01987 | 119° | 82km/h | 15350m | -6.9m/s | -56.5°C | 4.8% | 121.8hPa | 2.5V | 00:00:00 | 00:00:00 | 00:00:00 | |
| OE5REO-15 | 2026-09-05 12:46:06 | 47.96327 | 13.01987 | 120° | 75km/h | 15350m | -6.9m/s | -56.5°C | 1.7% | 121.9hPa | 2.5V | 08:09:00 | 00:00:00 | 00:00:00 | |
| BAUMI2-15 | 2026-09-05 12:46:04 | 47.96347 | 13.01911 | 106° | 89km/h | 15371m | -6.3m/s | -56.3°C | 4.7% | 121.5hPa | 2.5V | 00:00:00 | 02:16:36 | 00:00:00 | |
| OE5WHR-10 | 2026-09-05 12:46:01 | 47.96361 | 13.01816 | 105° | 89km/h | 15389m | -6.1m/s | -56.4°C | 4.6% | 121.1hPa | 2.5V | 00:00:00 | 02:16:33 | 00:00:00 | |
| OE5MMP-10 | 2026-09-05 12:46:00 | 47.96369 | 13.01780 | 110° | 84km/h | 15396m | -6.2m/s | -56.4°C | 4.6% | 121.0hPa | 2.5V | 00:00:00 | 02:16:32 | 00:00:00 | |
| BAUMI2-15 | 2026-09-05 12:45:59 | 47.96379 | 13.01745 | 116° | 91km/h | 15402m | -6.0m/s | -56.5°C | 4.7% | 120.8hPa | 2.5V | 00:00:00 | 02:16:31 | 00:00:00 | |
| BAUMI2-15 | 2026-09-05 12:45:54 | 47.96435 | 13.01602 | 121° | 71km/h | 15437m | -7.0m/s | -56.5°C | 4.8% | 120.1hPa | 2.5V | 00:00:00 | 02:16:26 | 00:00:00 | |
| OE8JPQ-2 | 2026-09-05 12:45:52 | 47.96450 | 13.01556 | 109° | 82km/h | 15451m | -6.4m/s | -56.6°C | 4.8% | 119.9hPa | 2.5V | 00:00:00 | 00:00:00 | 00:00:00 | |
| OE5MMP-10 | 2026-09-05 12:45:50 | 47.96458 | 13.01503 | 100° | 93km/h | 15463m | -6.4m/s | -56.7°C | 4.8% | 119.6hPa | 2.5V | 00:00:00 | 02:16:22 | 00:00:00 | |
| BAUMI2-15 | 2026-09-05 12:45:49 | 47.96461 | 13.01472 | 99° | 97km/h | 15470m | -6.3m/s | -56.7°C | 4.7% | 119.5hPa | 2.5V | 00:00:00 | 02:16:21 | 00:00:00 | |
| OE5DRO-10 | 2026-09-05 12:45:48 | 47.96464 | 13.01439 | 99° | 86km/h | 15477m | -6.2m/s | -56.7°C | 4.7% | 119.4hPa | 2.6V | 08:09:00 | 00:00:00 | 00:00:00 | |
| DO7DH-14 | 2026-09-05 12:45:46 | 47.96475 | 13.01366 | 106° | 91km/h | 15490m | -6.8m/s | -56.7°C | 4.7% | 119.1hPa | 2.5V | 08:09:00 | 02:16:18 | 00:00:00 | |
| BAUMI2-15 | 2026-09-05 12:45:44 | 47.96493 | 13.01293 | 117° | 88km/h | 15504m | -6.2m/s | -56.8°C | 4.8% | 118.9hPa | 2.5V | 00:00:00 | 02:16:16 | 00:00:00 | |
| DB0UT-7 | 2026-09-05 12:45:43 | 47.96505 | 13.01261 | 121° | 68km/h | 15510m | -6.5m/s | -56.8°C | 4.8% | 118.8hPa | 2.5V | 00:00:00 | 02:16:15 | 00:00:00 | |
| S52SK | 2026-09-05 12:45:42 | 47.96505 | 13.01261 | 121° | 95km/h | 15510m | -6.5m/s | -56.8°C | 1.8% | 118.8hPa | 2.5V | 00:00:00 | 00:00:00 | 00:00:00 | |
| OE5FHM-15 | 2026-09-05 12:45:41 | 47.96529 | 13.01205 | 123° | 77km/h | 15524m | -7.4m/s | -56.8°C | 4.8% | 118.5hPa | 2.5V | 00:00:00 | 02:16:13 | 00:00:00 | |
| OE5WHR-10 | 2026-09-05 12:45:40 | 47.96539 | 13.01180 | 122° | 75km/h | 15532m | -7.3m/s | -56.8°C | 4.8% | 118.4hPa | 2.5V | 00:00:00 | 00:00:00 | 00:00:00 | |
| BAUMI2-15 | 2026-09-05 12:45:39 | 47.96548 | 13.01157 | 117° | 69km/h | 15539m | -6.8m/s | -56.7°C | 4.8% | 118.2hPa | 2.5V | 00:00:00 | 02:16:11 | 00:00:00 | |
| OE5REO-15 | 2026-09-05 12:45:35 | 47.96561 | 13.01085 | 97° | 71km/h | 15559m | -6.9m/s | -56.9°C | 1.7% | 118.0hPa | 2.5V | 08:09:00 | 00:00:00 | 00:00:00 | |
| BAUMI2-15 | 2026-09-05 12:45:34 | 47.96566 | 13.01027 | 100° | 91km/h | 15573m | -6.6m/s | -56.9°C | 4.8% | 117.6hPa | 2.5V | 08:09:00 | 02:16:06 | 00:00:00 | |
| OE8JPQ-2 | 2026-09-05 12:45:32 | 47.96577 | 13.00960 | 108° | 75km/h | 15586m | -5.8m/s | -56.9°C | 4.8% | 117.4hPa | 2.5V | 00:00:00 | 02:16:04 | 00:00:00 | |
| OE5MMP-10 | 2026-09-05 12:45:30 | 47.96596 | 13.00895 | 118° | 69km/h | 15598m | -6.6m/s | -56.9°C | 4.8% | 117.2hPa | 2.5V | 00:00:00 | 02:16:02 | 00:00:00 | |
| BAUMI2-15 | 2026-09-05 12:45:29 | 47.96608 | 13.00865 | 125° | 71km/h | 15605m | -6.9m/s | -56.9°C | 4.8% | 117.1hPa | 2.5V | 00:00:00 | 02:16:01 | 00:00:00 | |
| BAUMI2-15 | 2026-09-05 12:45:24 | 47.96657 | 13.00759 | 113° | 64km/h | 15639m | -6.3m/s | -57.1°C | 4.9% | 116.4hPa | 2.5V | 00:00:00 | 02:15:56 | 00:00:00 | |
| OE5MMP-10 | 2026-09-05 12:45:20 | 47.96668 | 13.00664 | 98° | 80km/h | 15666m | -6.8m/s | -57.2°C | 4.9% | 115.9hPa | 2.5V | 00:00:00 | 02:15:52 | 00:00:00 | |
| OE5WHR-10 | 2026-09-05 12:45:19 | 47.96671 | 13.00633 | 101° | 75km/h | 15673m | -6.4m/s | -57.2°C | 4.9% | 115.9hPa | 2.5V | 00:00:00 | 00:00:00 | 00:00:00 | |
| DG1MJG | 2026-09-05 12:45:18 | 47.96671 | 13.00633 | 102° | 88km/h | 15673m | -6.5m/s | -57.2°C | 1.8% | 115.9hPa | 2.5V | 08:10:00 | 00:00:00 | 00:00:00 | |
| BAUMI2-15 | 2026-09-05 12:45:14 | 47.96718 | 13.00480 | 124° | 66km/h | 15706m | -6.7m/s | -57.0°C | 4.9% | 115.2hPa | 2.5V | 00:00:00 | 02:15:46 | 00:00:00 | |
| OE5FHM-15 | 2026-09-05 12:45:11 | 47.96749 | 13.00418 | 124° | 66km/h | 15727m | -6.7m/s | -57.1°C | 4.9% | 114.9hPa | 2.5V | 00:00:00 | 02:15:43 | 00:00:00 | |
| OE5MMP-10 | 2026-09-05 12:45:10 | 47.96756 | 13.00400 | 121° | 69km/h | 15734m | -6.9m/s | -57.2°C | 4.9% | 114.7hPa | 2.5V | 00:00:00 | 02:15:42 | 00:00:00 | |
| BAUMI2-15 | 2026-09-05 12:45:09 | 47.96762 | 13.00382 | 110° | 60km/h | 15741m | -6.9m/s | -57.3°C | 5.0% | 114.6hPa | 2.5V | 00:00:00 | 02:15:41 | 00:00:00 | |
| DO7DH-14 | 2026-09-05 12:45:04 | 47.96771 | 13.00265 | 98° | 80km/h | 15776m | -6.4m/s | -57.3°C | 4.9% | 113.9hPa | 2.5V | 00:00:00 | 02:15:36 | 00:00:00 | |
| OE5REO-15 | 2026-09-05 12:45:03 | 47.96771 | 13.00265 | 99° | 82km/h | 15776m | -6.4m/s | -57.3°C | 1.8% | 114.0hPa | 2.5V | 08:10:00 | 00:00:00 | 00:00:00 | |
| OE5MMP-10 | 2026-09-05 12:45:00 | 47.96799 | 13.00146 | 122° | 57km/h | 15803m | -6.4m/s | -57.2°C | 5.0% | 113.5hPa | 2.5V | 00:00:00 | 02:15:32 | 00:00:00 | |
| OE5WHR-10 | 2026-09-05 12:44:58 | 47.96819 | 13.00102 | 128° | 60km/h | 15816m | -6.5m/s | -57.1°C | 4.8% | 113.2hPa | 2.5V | 00:00:00 | 02:15:30 | 00:00:00 | |
| OE8JPQ-2 | 2026-09-05 12:44:51 | 47.96843 | 12.99977 | 88° | 62km/h | 15867m | -6.5m/s | -57.3°C | 4.8% | 112.3hPa | 2.5V | 00:00:00 | 00:00:00 | 00:00:00 | |
| OE5MMP-10 | 2026-09-05 12:44:50 | 47.96843 | 12.99951 | 92° | 64km/h | 15873m | -5.7m/s | -57.3°C | 4.9% | 112.2hPa | 2.5V | 08:10:00 | 02:15:22 | 00:00:00 | |
| DG1MJG | 2026-09-05 12:44:48 | 47.96849 | 12.99892 | 107° | 82km/h | 15886m | -6.1m/s | -57.5°C | 1.8% | 112.0hPa | 2.6V | 08:10:00 | 00:00:00 | 00:00:00 | |
| OE5REO-15 | 2026-09-05 12:44:47 | 47.96849 | 12.99892 | 107° | 82km/h | 15886m | -6.1m/s | -57.5°C | 1.8% | 112.0hPa | 2.6V | 08:10:00 | 00:00:00 | 00:00:00 | |
| OE5FHM-15 | 2026-09-05 12:44:41 | 47.96908 | 12.99732 | 116° | 60km/h | 15936m | -6.0m/s | -57.6°C | 5.2% | 111.1hPa | 2.6V | 00:00:00 | 02:15:13 | 00:00:00 | |
| OE5MMP-10 | 2026-09-05 12:44:40 | 47.96912 | 12.99717 | 105° | 68km/h | 15942m | -6.1m/s | -57.6°C | 5.2% | 111.0hPa | 2.6V | 00:00:00 | 02:15:12 | 00:00:00 | |
| OE5DXL-15 | 2026-09-05 12:44:39 | 47.96914 | 12.99701 | 95° | 57km/h | 15948m | -6.4m/s | -57.6°C | 5.1% | 110.8hPa | 2.6V | 00:00:00 | 00:00:00 | 00:00:00 | |
| OE5WHR-10 | 2026-09-05 12:44:37 | 47.96914 | 12.99662 | 86° | 68km/h | 15962m | -7.1m/s | -57.6°C | 5.1% | 110.6hPa | 2.6V | 00:00:00 | 00:00:00 | 00:00:00 | |
| DO7DH-14 | 2026-09-05 12:44:34 | 47.96917 | 12.99580 | 100° | 77km/h | 15983m | -7.2m/s | -57.7°C | 5.1% | 110.2hPa | 2.6V | 00:00:00 | 02:15:06 | 00:00:00 | |
| OE5REO-15 | 2026-09-05 12:44:32 | 47.96922 | 12.99550 | 108° | 86km/h | 15990m | -6.8m/s | -57.7°C | 1.8% | 110.1hPa | 2.6V | 08:11:00 | 00:00:00 | 00:00:00 | |
| OE5MMP-10 | 2026-09-05 12:44:30 | 47.96948 | 12.99470 | 122° | 57km/h | 16011m | -7.5m/s | -57.5°C | 5.1% | 109.7hPa | 2.6V | 00:00:00 | 02:15:02 | 00:00:00 | |
| OE8JPQ-2 | 2026-09-05 12:44:28 | 47.96966 | 12.99432 | 122° | 49km/h | 16025m | -7.3m/s | -57.2°C | 4.9% | 109.5hPa | 2.6V | 00:00:00 | 02:15:00 | 00:00:00 | |
| DB0UT-7 | 2026-09-05 12:44:27 | 47.96972 | 12.99416 | 117° | 60km/h | 16032m | -6.6m/s | -57.2°C | 4.9% | 109.4hPa | 2.6V | 00:00:00 | 00:00:00 | 00:00:00 | |
| OE5MMP-10 | 2026-09-05 12:44:20 | 47.96973 | 12.99270 | 93° | 60km/h | 16082m | -6.5m/s | -57.4°C | 4.9% | 108.5hPa | 2.5V | 00:00:00 | 02:14:52 | 00:00:00 | |
| OE5DRO-10 | 2026-09-05 12:44:19 | 47.96975 | 12.99240 | 103° | 77km/h | 16088m | -6.2m/s | -57.5°C | 5.0% | 108.3hPa | 2.5V | 00:00:00 | 00:00:00 | 00:00:00 | |
| DG1MJG | 2026-09-05 12:44:18 | 47.96981 | 12.99211 | 109° | 77km/h | 16095m | -6.6m/s | -57.6°C | 1.8% | 108.3hPa | 2.5V | 08:11:00 | 00:00:00 | 00:00:00 | |
| OE5WHR-10 | 2026-09-05 12:44:16 | 47.96995 | 12.99160 | 121° | 58km/h | 16109m | -7.1m/s | -57.7°C | 5.1% | 108.0hPa | 2.5V | 00:00:00 | 00:00:00 | 00:00:00 | |
| OE5FHM-15 | 2026-09-05 12:44:11 | 47.97017 | 12.99083 | 88° | 66km/h | 16145m | -7.0m/s | -57.8°C | 5.1% | 107.4hPa | 2.5V | 00:00:00 | 02:14:43 | 00:00:00 | |
| OE5MMP-10 | 2026-09-05 12:44:10 | 47.97015 | 12.99068 | 77° | 69km/h | 16152m | -6.9m/s | -57.9°C | 5.2% | 107.3hPa | 2.6V | 00:00:00 | 02:14:42 | 00:00:00 | |
| OE8JPQ-2 | 2026-09-05 12:44:08 | 47.97008 | 12.99029 | 73° | 57km/h | 16166m | -7.4m/s | -57.9°C | 5.0% | 107.0hPa | 2.6V | 00:00:00 | 00:00:00 | 00:00:00 | |
| DO7DH-14 | 2026-09-05 12:44:04 | 47.96995 | 12.98919 | 93° | 86km/h | 16197m | -6.5m/s | -58.1°C | 5.0% | 106.5hPa | 2.5V | 00:00:00 | 02:14:36 | 00:00:00 | |
| OE5REO-15 | 2026-09-05 12:44:02 | 47.97001 | 12.98859 | 105° | 75km/h | 16211m | -6.8m/s | -58.1°C | 1.8% | 106.3hPa | 2.5V | 08:11:00 | 00:00:00 | 00:00:00 | |
| OE5MMP-10 | 2026-09-05 12:44:00 | 47.97013 | 12.98810 | 115° | 58km/h | 16226m | -6.8m/s | -58.0°C | 5.2% | 106.1hPa | 2.5V | 00:00:00 | 02:14:32 | 00:00:00 | |
| DB0UT-7 | 2026-09-05 12:43:58 | 47.97025 | 12.98756 | 98° | 57km/h | 16248m | -7.4m/s | -57.9°C | 5.3% | 105.7hPa | 2.5V | 00:00:00 | 02:14:29 | 00:00:00 | |
| OE5WHR-10 | 2026-09-05 12:43:55 | 47.97022 | 12.98723 | 78° | 69km/h | 16262m | -6.4m/s | -57.9°C | 5.3% | 105.4hPa | 2.5V | 00:00:00 | 02:14:27 | 00:00:00 | |
| OE5MMP-10 | 2026-09-05 12:43:50 | 47.97005 | 12.98587 | 90° | 69km/h | 16300m | -6.8m/s | -58.0°C | 5.0% | 104.8hPa | 2.5V | 00:00:00 | 02:14:22 | 00:00:00 | |
| S52SK | 2026-09-05 12:43:48 | 47.97006 | 12.98554 | 97° | 86km/h | 16307m | -6.4m/s | -58.1°C | 1.8% | 104.8hPa | 2.5V | 08:11:00 | 00:00:00 | 00:00:00 | |
| DG1MJG | 2026-09-05 12:43:47 | 47.97010 | 12.98522 | 104° | 86km/h | 16313m | -6.5m/s | -58.1°C | 1.7% | 104.6hPa | 2.5V | 08:11:00 | 00:00:00 | 00:00:00 | |
| OE5REO-15 | 2026-09-05 12:43:46 | 47.97016 | 12.98492 | 110° | 82km/h | 16320m | -6.9m/s | -58.1°C | 1.8% | 104.5hPa | 2.5V | 08:11:00 | 00:00:00 | 00:00:00 | |
| S52SK | 2026-09-05 12:43:42 | 47.97046 | 12.98397 | 118° | 57km/h | 16349m | -7.9m/s | -58.2°C | 1.8% | 104.0hPa | 2.5V | 00:00:00 | 00:00:00 | 00:00:00 | |
| OE5FHM-15 | 2026-09-05 12:43:41 | 47.97054 | 12.98361 | 100° | 60km/h | 16363m | -6.7m/s | -58.1°C | 5.2% | 103.7hPa | 2.5V | 00:00:00 | 02:14:13 | 00:00:00 | |
| OE5MMP-10 | 2026-09-05 12:43:40 | 47.97055 | 12.98343 | 90° | 73km/h | 16370m | -6.3m/s | -58.1°C | 5.3% | 103.6hPa | 2.5V | 00:00:00 | 02:14:12 | 00:00:00 | |
| OE5DXL-15 | 2026-09-05 12:43:39 | 47.97054 | 12.98323 | 85° | 62km/h | 16377m | -6.4m/s | -58.1°C | 5.3% | 103.5hPa | 2.5V | 00:00:00 | 00:00:00 | 00:00:00 | |
| DG1MFX-10 | 2026-09-05 12:43:36 | 47.97049 | 12.98245 | 93° | 80km/h | 16397m | -7.1m/s | -58.3°C | 1.9% | 103.2hPa | 2.5V | 08:12:00 | 00:00:00 | 00:00:00 | |
| OE5WHR-10 | 2026-09-05 12:43:34 | 47.97054 | 12.98182 | 106° | 64km/h | 16411m | -6.7m/s | -58.3°C | 5.3% | 103.0hPa | 2.5V | 08:11:00 | 00:00:00 | 00:00:00 | |
| OE5HKT-10 | 2026-09-05 12:43:32 | 47.97069 | 12.98123 | 116° | 57km/h | 16426m | -6.7m/s | -58.3°C | 5.4% | 102.7hPa | 2.5V | 00:00:00 | 02:14:04 | 00:00:00 | |
| OE5REO-15 | 2026-09-05 12:43:31 | 47.97077 | 12.98100 | 124° | 69km/h | 16433m | -6.6m/s | -58.3°C | 1.9% | 102.7hPa | 2.5V | 00:00:00 | 00:00:00 | 00:00:00 | |
| OE5MMP-10 | 2026-09-05 12:43:30 | 47.97086 | 12.98080 | 124° | 55km/h | 16439m | -7.3m/s | -58.0°C | 5.3% | 102.5hPa | 2.5V | 00:00:00 | 02:14:02 | 00:00:00 | |
| OE5MMP-10 | 2026-09-05 12:43:20 | 47.97093 | 12.97881 | 87° | 62km/h | 16512m | -7.4m/s | -57.8°C | 5.1% | 101.3hPa | 2.5V | 08:11:00 | 02:13:52 | 00:00:00 | |
| OE5DRO-10 | 2026-09-05 12:43:17 | 47.97102 | 12.97792 | 108° | 75km/h | 16533m | -6.4m/s | -57.5°C | 5.1% | 100.9hPa | 2.5V | 00:00:00 | 00:00:00 | 00:00:00 | |
| DG1MJG | 2026-09-05 12:43:16 | 47.97102 | 12.97792 | 109° | 73km/h | 16533m | -6.5m/s | -57.6°C | 1.7% | 101.0hPa | 2.5V | 08:12:00 | 00:00:00 | 00:00:00 | |
| DG1MFX-10 | 2026-09-05 12:43:15 | 47.97114 | 12.97744 | 116° | 57km/h | 16548m | -6.6m/s | -57.4°C | 1.8% | 100.8hPa | 2.5V | 08:12:00 | 00:00:00 | 00:00:00 | |
| OE5REO-15 | 2026-09-05 12:43:14 | 47.97114 | 12.97744 | 116° | 57km/h | 16548m | -6.6m/s | -57.4°C | 1.7% | 100.8hPa | 2.5V | 00:00:00 | 00:00:00 | 00:00:00 | |
| OE5WHR-10 | 2026-09-05 12:43:13 | 47.97123 | 12.97709 | 102° | 62km/h | 16561m | -6.7m/s | -57.2°C | 5.0% | 100.5hPa | 2.5V | 00:00:00 | 00:00:00 | 00:00:00 | |
| OE5HKT-10 | 2026-09-05 12:43:11 | 47.97123 | 12.97681 | 76° | 69km/h | 16575m | -7.5m/s | -56.9°C | 4.8% | 100.3hPa | 2.5V | 08:11:00 | 00:00:00 | 00:00:00 | |
| OE5FHM-15 | 2026-09-05 12:43:10 | 47.97120 | 12.97665 | 68° | 58km/h | 16583m | -7.4m/s | -56.9°C | 4.7% | 100.1hPa | 2.6V | 00:00:00 | 02:13:42 | 00:00:00 | |
| OE5DXL-15 | 2026-09-05 12:43:09 | 47.97115 | 12.97647 | 66° | 68km/h | 16590m | -7.8m/s | -56.9°C | 4.7% | 100.0hPa | 2.6V | 00:00:00 | 00:00:00 | 00:00:00 | |
| OE5MMP-10 | 2026-09-05 12:43:00 | 47.97097 | 12.97392 | 104° | 62km/h | 16658m | -7.7m/s | -57.1°C | 4.9% | 99.0hPa | 2.6V | 00:00:00 | 02:13:32 | 00:00:00 | |
| OE5REO-15 | 2026-09-05 12:42:59 | 47.97097 | 12.97392 | 104° | 64km/h | 16658m | -7.7m/s | -57.2°C | 1.7% | 99.0hPa | 2.6V | 00:00:00 | 00:00:00 | 00:00:00 | |
| BAUMI2-15 | 2026-09-05 12:42:58 | 47.97101 | 12.97353 | 91° | 51km/h | 16673m | -6.9m/s | -57.3°C | 5.1% | 98.8hPa | 2.6V | 00:00:00 | 02:13:30 | 00:00:00 | |
| DG1MFX-10 | 2026-09-05 12:42:55 | 47.97092 | 12.97302 | 64° | 57km/h | 16695m | -7.3m/s | -57.3°C | 1.7% | 98.4hPa | 2.6V | 08:12:00 | 00:00:00 | 00:00:00 | |
| BAUMI2-15 | 2026-09-05 12:42:53 | 47.97076 | 12.97258 | 62° | 86km/h | 16710m | -7.6m/s | -57.1°C | 4.8% | 98.2hPa | 2.6V | 00:00:00 | 02:13:25 | 00:00:00 | |
| OE5WHR-10 | 2026-09-05 12:42:52 | 47.97068 | 12.97231 | 67° | 77km/h | 16717m | -7.8m/s | -57.1°C | 4.8% | 98.0hPa | 2.6V | 00:00:00 | 02:13:24 | 00:00:00 | |
| OE5MMP-10 | 2026-09-05 12:42:50 | 47.97054 | 12.97167 | 77° | 71km/h | 16733m | -7.4m/s | -57.2°C | 4.8% | 97.8hPa | 2.6V | 00:00:00 | 02:13:22 | 00:00:00 | |
| PG1ADW-2 | 2026-09-05 12:42:49 | 47.97051 | 12.97132 | 84° | 75km/h | 16740m | -7.3m/s | -57.2°C | 4.8% | 97.7hPa | 2.5V | 00:00:00 | 00:00:00 | 00:00:00 | |
| BAUMI2-15 | 2026-09-05 12:42:48 | 47.97049 | 12.97098 | 90° | 77km/h | 16748m | -7.3m/s | -57.3°C | 4.9% | 97.5hPa | 2.5V | 08:12:00 | 02:13:20 | 00:00:00 | |
| DO7DH-14 | 2026-09-05 12:42:47 | 47.97051 | 12.97065 | 95° | 86km/h | 16755m | -7.4m/s | -57.3°C | 4.9% | 97.5hPa | 2.5V | 00:00:00 | 02:13:19 | 00:00:00 | |
| OE5REO-15 | 2026-09-05 12:42:45 | 47.97056 | 12.97007 | 102° | 69km/h | 16771m | -7.2m/s | -57.3°C | 1.7% | 97.3hPa | 2.5V | 08:13:00 | 00:00:00 | 00:00:00 | |
| BAUMI2-15 | 2026-09-05 12:42:43 | 47.97061 | 12.96962 | 94° | 53km/h | 16785m | -7.1m/s | -56.9°C | 4.9% | 97.0hPa | 2.5V | 00:00:00 | 02:13:15 | 00:00:00 | |
| OE5MMP-10 | 2026-09-05 12:42:40 | 47.97053 | 12.96909 | 63° | 78km/h | 16807m | -7.6m/s | -56.9°C | 4.8% | 96.6hPa | 2.5V | 00:00:00 | 02:13:12 | 00:00:00 | |
| OE5DXL-15 | 2026-09-05 12:42:38 | 47.97038 | 12.96868 | 62° | 64km/h | 16823m | -7.5m/s | -56.9°C | 4.7% | 96.4hPa | 2.5V | 00:00:00 | 00:00:00 | 00:00:00 | |
| DG1MFX-10 | 2026-09-05 12:42:34 | 47.97017 | 12.96781 | 79° | 91km/h | 16844m | -7.0m/s | -57.0°C | 1.6% | 96.2hPa | 2.6V | 08:13:00 | 00:00:00 | 00:00:00 | |
| BAUMI2-15 | 2026-09-05 12:42:33 | 47.97011 | 12.96712 | 89° | 77km/h | 16859m | -7.5m/s | -57.1°C | 4.7% | 95.9hPa | 2.6V | 00:00:00 | 02:13:05 | 00:00:00 | |
| OE5FHM-15 | 2026-09-05 12:42:32 | 47.97012 | 12.96679 | 95° | 68km/h | 16867m | -8.1m/s | -57.1°C | 4.7% | 95.8hPa | 2.5V | 08:12:00 | 02:13:04 | 00:00:00 | |
| OE5WHR-10 | 2026-09-05 12:42:31 | 47.97015 | 12.96649 | 101° | 68km/h | 16875m | -8.0m/s | -57.2°C | 4.7% | 95.6hPa | 2.5V | 00:00:00 | 00:00:00 | 00:00:00 | |
| OE5MMP-10 | 2026-09-05 12:42:30 | 47.97019 | 12.96621 | 105° | 60km/h | 16883m | -8.1m/s | -57.2°C | 4.8% | 95.5hPa | 2.5V | 00:00:00 | 02:13:02 | 00:00:00 | |
| PG1ADW-2 | 2026-09-05 12:42:29 | 47.97023 | 12.96599 | 105° | 60km/h | 16892m | -7.7m/s | -57.3°C | 4.8% | 95.4hPa | 2.5V | 00:00:00 | 02:13:01 | 00:00:00 | |
| BAUMI2-15 | 2026-09-05 12:42:28 | 47.97027 | 12.96580 | 102° | 49km/h | 16899m | -7.5m/s | -57.3°C | 4.8% | 95.3hPa | 2.5V | 00:00:00 | 02:13:00 | 00:00:00 | |
| OE5HKT-10 | 2026-09-05 12:42:24 | 47.97017 | 12.96513 | 60° | 62km/h | 16929m | -7.8m/s | -57.4°C | 4.9% | 94.8hPa | 2.5V | 00:00:00 | 02:12:56 | 00:00:00 | |
| BAUMI2-15 | 2026-09-05 12:42:23 | 47.97008 | 12.96491 | 60° | 86km/h | 16937m | -7.6m/s | -57.4°C | 4.8% | 94.7hPa | 2.5V | 00:00:00 | 02:12:55 | 00:00:00 | |
| OE8JPQ-2 | 2026-09-05 12:42:22 | 47.97000 | 12.96466 | 66° | 69km/h | 16945m | -7.5m/s | -57.4°C | 4.8% | 94.6hPa | 2.5V | 00:00:00 | 02:12:54 | 00:00:00 | |
| OE5MMP-10 | 2026-09-05 12:42:20 | 47.96984 | 12.96404 | 74° | 73km/h | 16960m | -7.1m/s | -57.6°C | 4.8% | 94.3hPa | 2.5V | 00:00:00 | 02:12:52 | 00:00:00 | |
| BAUMI2-15 | 2026-09-05 12:42:18 | 47.96977 | 12.96334 | 86° | 68km/h | 16974m | -7.6m/s | -57.7°C | 4.9% | 94.1hPa | 2.6V | 00:00:00 | 02:12:50 | 00:00:00 | |
| DG1MJG | 2026-09-05 12:42:15 | 47.96980 | 12.96268 | 98° | 84km/h | 16989m | -8.2m/s | -57.8°C | 1.7% | 93.9hPa | 2.6V | 08:13:00 | 00:00:00 | 00:00:00 | |
| OE5REO-15 | 2026-09-05 12:42:12 | 47.96989 | 12.96190 | 102° | 55km/h | 17013m | -8.3m/s | -57.8°C | 1.7% | 93.6hPa | 2.6V | 08:13:00 | 00:00:00 | 00:00:00 | |
| BAUMI2-15 | 2026-09-05 12:42:11 | 47.96991 | 12.96156 | 82° | 53km/h | 17029m | -8.2m/s | -57.9°C | 5.1% | 93.3hPa | 2.6V | 00:00:00 | 02:12:43 | 00:00:00 | |
| OE5WHR-10 | 2026-09-05 12:42:10 | 47.96988 | 12.96139 | 70° | 69km/h | 17037m | -8.4m/s | -57.8°C | 5.1% | 93.2hPa | 2.6V | 00:00:00 | 00:00:00 | 00:00:00 | |
| DO7DH-14 | 2026-09-05 12:42:08 | 47.96976 | 12.96102 | 61° | 80km/h | 17053m | -8.2m/s | -57.7°C | 5.0% | 92.9hPa | 2.6V | 00:00:00 | 02:12:40 | 00:00:00 | |
| BAUMI2-15 | 2026-09-05 12:42:06 | 47.96959 | 12.96051 | 68° | 89km/h | 17069m | -8.0m/s | -57.8°C | 5.0% | 92.7hPa | 2.6V | 00:00:00 | 02:12:38 | 00:00:00 | |
| OE5DXL-15 | 2026-09-05 12:42:05 | 47.96943 | 12.95948 | 87° | 69km/h | 17093m | -8.3m/s | -57.6°C | 4.9% | 92.4hPa | 2.6V | 00:00:00 | 00:00:00 | 00:00:00 | |
| OE5FHM-15 | 2026-09-05 12:42:02 | 47.96943 | 12.95913 | 94° | 69km/h | 17102m | -8.5m/s | -57.6°C | 4.9% | 92.2hPa | 2.6V | 00:00:00 | 02:12:34 | 00:00:00 | |
| PG1ADW-2 | 2026-09-05 12:42:01 | 47.96946 | 12.95880 | 100° | 66km/h | 17111m | -8.5m/s | -57.7°C | 5.0% | 92.1hPa | 2.6V | 00:00:00 | 00:00:00 | 00:00:00 | |
| OE5MMP-10 | 2026-09-05 12:42:00 | 47.96950 | 12.95851 | 105° | 57km/h | 17120m | -7.8m/s | -57.7°C | 5.1% | 92.0hPa | 2.5V | 00:00:00 | 02:12:32 | 00:00:00 | |
| OE5DRO-10 | 2026-09-05 12:41:58 | 47.96958 | 12.95808 | 104° | 64km/h | 17135m | -7.0m/s | -57.5°C | 5.1% | 91.8hPa | 2.5V | 00:00:00 | 00:00:00 | 00:00:00 | |
| OE5REO-15 | 2026-09-05 12:41:57 | 47.96961 | 12.95790 | 97° | 44km/h | 17142m | -7.8m/s | -57.5°C | 1.6% | 91.7hPa | 2.5V | 08:13:00 | 00:00:00 | 00:00:00 | |
| OE5HKT-10 | 2026-09-05 12:41:56 | 47.96961 | 12.95775 | 85° | 49km/h | 17150m | -8.3m/s | -57.4°C | 5.0% | 91.5hPa | 2.5V | 00:00:00 | 00:00:00 | 00:00:00 | |
| S52SK | 2026-09-05 12:41:55 | 47.96959 | 12.95762 | 71° | 40km/h | 17159m | -8.9m/s | -57.5°C | 1.6% | 91.5hPa | 2.5V | 00:00:00 | 00:00:00 | 00:00:00 | |
| DG1MFX-10 | 2026-09-05 12:41:54 | 47.96959 | 12.95762 | 71° | 40km/h | 17159m | -8.9m/s | -57.5°C | 1.7% | 91.5hPa | 2.5V | 08:13:00 | 00:00:00 | 00:00:00 | |
| OE5WHR-10 | 2026-09-05 12:41:49 | 47.96916 | 12.95623 | 78° | 73km/h | 17210m | -6.6m/s | -57.5°C | 4.8% | 90.7hPa | 2.5V | 00:00:00 | 02:12:21 | 00:00:00 | |
| S52SK | 2026-09-05 12:41:48 | 47.96916 | 12.95623 | 78° | 88km/h | 17210m | -6.6m/s | -57.6°C | 1.6% | 90.8hPa | 2.5V | 00:00:00 | 00:00:00 | 00:00:00 | |
| DG1MJG | 2026-09-05 12:41:46 | 47.96914 | 12.95527 | 98° | 78km/h | 17233m | -7.3m/s | -57.1°C | 1.5% | 90.5hPa | 2.5V | 08:13:00 | 00:00:00 | 00:00:00 | |
| BAUMI2-15 | 2026-09-05 12:41:45 | 47.96917 | 12.95499 | 102° | 55km/h | 17240m | -7.4m/s | -57.0°C | 4.7% | 90.3hPa | 2.5V | 00:00:00 | 02:12:17 | 00:00:00 | |
| OE5REO-15 | 2026-09-05 12:41:41 | 47.96927 | 12.95436 | 99° | 44km/h | 17263m | -7.6m/s | -56.9°C | 1.6% | 90.0hPa | 2.5V | 08:13:00 | 00:00:00 | 00:00:00 | |
| OE5MMP-10 | 2026-09-05 12:41:40 | 47.96925 | 12.95407 | 70° | 78km/h | 17278m | -7.4m/s | -56.7°C | 4.7% | 89.7hPa | 2.5V | 00:00:00 | 02:12:12 | 00:00:00 | |
| OE5HKT-10 | 2026-09-05 12:41:35 | 47.96891 | 12.95288 | 77° | 68km/h | 17319m | -7.7m/s | -56.7°C | 4.4% | 89.2hPa | 2.5V | 00:00:00 | 00:00:00 | 00:00:00 | |
| OE5DXL-15 | 2026-09-05 12:41:34 | 47.96886 | 12.95185 | 94° | 71km/h | 17343m | -8.7m/s | -56.9°C | 4.4% | 88.8hPa | 2.5V | 00:00:00 | 00:00:00 | 00:00:00 | |
| PG1ADW-2 | 2026-09-05 12:41:32 | 47.96886 | 12.95185 | 94° | 69km/h | 17343m | -8.7m/s | -56.9°C | 4.4% | 88.8hPa | 2.5V | 00:00:00 | 00:00:00 | 00:00:00 | |
| OE5MMP-10 | 2026-09-05 12:41:30 | 47.96893 | 12.95118 | 105° | 66km/h | 17361m | -8.3m/s | -57.0°C | 4.6% | 88.6hPa | 2.5V | 00:00:00 | 02:12:02 | 00:00:00 | |
| OE5WHR-10 | 2026-09-05 12:41:28 | 47.96905 | 12.95067 | 108° | 68km/h | 17377m | -7.0m/s | -57.1°C | 4.7% | 88.3hPa | 2.5V | 00:00:00 | 00:00:00 | 00:00:00 | |
| OE5REO-15 | 2026-09-05 12:41:27 | 47.96909 | 12.95047 | 103° | 51km/h | 17384m | -7.0m/s | -57.2°C | 1.5% | 88.3hPa | 2.5V | 08:13:00 | 00:00:00 | 00:00:00 | |
| BAUMI2-15 | 2026-09-05 12:41:25 | 47.96909 | 12.95011 | 76° | 69km/h | 17399m | -8.0m/s | -57.3°C | 4.8% | 88.0hPa | 2.5V | 00:00:00 | 02:11:57 | 00:00:00 | |
| DF7PN | 2026-09-05 12:41:24 | 47.96882 | 12.94878 | 81° | 97km/h | 17441m | -7.7m/s | -57.6°C | -1.0% | 87.5hPa | 2.5V | 00:00:00 | 00:00:00 | 00:00:00 | |
| OE8JPQ-2 | 2026-09-05 12:41:21 | 47.96882 | 12.94877 | 82° | 62km/h | 17441m | -7.6m/s | -57.5°C | 4.9% | 87.4hPa | 2.5V | 00:00:00 | 02:11:52 | 00:00:00 | |
| OE5MMP-10 | 2026-09-05 12:41:20 | 47.96882 | 12.94877 | 82° | 78km/h | 17441m | -7.6m/s | -57.5°C | 4.9% | 87.4hPa | 2.5V | 00:00:00 | 02:11:52 | 00:00:00 | |
| OE5DRO-10 | 2026-09-05 12:41:19 | 47.96880 | 12.94840 | 88° | 73km/h | 17449m | -7.4m/s | -57.6°C | 4.9% | 87.4hPa | 2.5V | 00:00:00 | 00:00:00 | 00:00:00 | |
| DG1MJG | 2026-09-05 12:41:16 | 47.96890 | 12.94735 | 108° | 88km/h | 17472m | -7.8m/s | -57.6°C | 1.6% | 87.1hPa | 2.5V | 08:13:00 | 00:00:00 | 00:00:00 | |
| BAUMI2-15 | 2026-09-05 12:41:15 | 47.96897 | 12.94705 | 111° | 60km/h | 17480m | -8.9m/s | -57.5°C | 4.8% | 86.9hPa | 2.5V | 08:13:00 | 02:11:47 | 00:00:00 | |
| DG1MFX-10 | 2026-09-05 12:41:13 | 47.96904 | 12.94678 | 114° | 71km/h | 17489m | -9.3m/s | -57.4°C | 1.5% | 86.8hPa | 2.5V | 08:13:00 | 00:00:00 | 00:00:00 | |
| OE5MMP-10 | 2026-09-05 12:41:10 | 47.96921 | 12.94606 | 88° | 69km/h | 17522m | -7.7m/s | -57.4°C | 4.9% | 86.3hPa | 2.5V | 00:00:00 | 02:11:42 | 00:00:00 | |
| OE5WHR-10 | 2026-09-05 12:41:07 | 47.96910 | 12.94550 | 70° | 66km/h | 17547m | -8.2m/s | -57.2°C | 4.8% | 86.0hPa | 2.5V | 00:00:00 | 00:00:00 | 00:00:00 | |
| PG1ADW-2 | 2026-09-05 12:41:06 | 47.96904 | 12.94524 | 74° | 71km/h | 17556m | -7.4m/s | -57.2°C | 4.8% | 85.9hPa | 2.5V | 00:00:00 | 00:00:00 | 00:00:00 | |
| BAUMI2-15 | 2026-09-05 12:41:05 | 47.96899 | 12.94495 | 79° | 77km/h | 17563m | -7.2m/s | -57.1°C | 4.8% | 85.8hPa | 2.5V | 00:00:00 | 02:11:37 | 00:00:00 | |
| OE5DXL-15 | 2026-09-05 12:41:02 | 47.96899 | 12.94400 | 102° | 53km/h | 17584m | -7.4m/s | -57.1°C | 4.8% | 85.4hPa | 2.5V | 00:00:00 | 00:00:00 | 00:00:00 | |
| OE5FHM-15 | 2026-09-05 12:41:01 | 47.96904 | 12.94371 | 108° | 55km/h | 17591m | -7.6m/s | -57.0°C | 4.8% | 85.4hPa | 2.5V | 00:00:00 | 02:11:33 | 00:00:00 | |
| OE5MMP-10 | 2026-09-05 12:41:00 | 47.96911 | 12.94345 | 114° | 49km/h | 17599m | -8.2m/s | -56.9°C | 4.7% | 85.2hPa | 2.5V | 00:00:00 | 02:11:32 | 00:00:00 | |
| OE8JPQ-2 | 2026-09-05 12:40:57 | 47.96929 | 12.94290 | 115° | 46km/h | 17626m | -8.6m/s | -56.7°C | 4.7% | 84.9hPa | 2.5V | 00:00:00 | 00:00:00 | 00:00:00 | |
| OE5REO-15 | 2026-09-05 12:40:55 | 47.96931 | 12.94266 | 79° | 33km/h | 17642m | -8.2m/s | -56.6°C | 1.5% | 84.7hPa | 2.5V | 08:14:00 | 00:00:00 | 00:00:00 | |
| DG1MFX-10 | 2026-09-05 12:40:53 | 47.96925 | 12.94237 | 69° | 47km/h | 17659m | -8.0m/s | -56.5°C | 1.5% | 84.4hPa | 2.5V | 08:14:00 | 00:00:00 | 00:00:00 | |
| OE5MMP-10 | 2026-09-05 12:40:50 | 47.96910 | 12.94172 | 76° | 62km/h | 17681m | -7.9m/s | -56.3°C | 4.5% | 84.1hPa | 2.5V | 00:00:00 | 02:11:22 | 00:00:00 | |
| OE5WHR-10 | 2026-09-05 12:40:46 | 47.96916 | 12.94053 | 113° | 53km/h | 17714m | -8.2m/s | -56.2°C | 4.5% | 83.7hPa | 2.6V | 00:00:00 | 02:11:18 | 00:00:00 | |
| DG1MJG | 2026-09-05 12:40:45 | 47.96916 | 12.94053 | 114° | 75km/h | 17714m | -8.2m/s | -56.3°C | 1.4% | 83.7hPa | 2.6V | 08:14:00 | 00:00:00 | 00:00:00 | |
| OE5DRO-10 | 2026-09-05 12:40:41 | 47.96951 | 12.93974 | 117° | 47km/h | 17756m | -7.6m/s | -56.1°C | 4.5% | 83.2hPa | 2.6V | 00:00:00 | 00:00:00 | 00:00:00 | |
| OE5MMP-10 | 2026-09-05 12:40:40 | 47.96953 | 12.93966 | 93° | 55km/h | 17764m | -8.1m/s | -56.1°C | 4.5% | 83.0hPa | 2.5V | 00:00:00 | 02:11:12 | 00:00:00 | |
| OE5REO-15 | 2026-09-05 12:40:39 | 47.96953 | 12.93966 | 93° | 22km/h | 17764m | -8.2m/s | -56.2°C | 1.4% | 83.0hPa | 2.5V | 08:14:00 | 00:00:00 | 00:00:00 | |
| DB0UT-7 | 2026-09-05 12:40:35 | 47.96930 | 12.93894 | 71° | 44km/h | 17808m | -8.8m/s | -56.1°C | 4.3% | 82.4hPa | 2.5V | 00:00:00 | 00:00:00 | 00:00:00 | |
| OE5DXL-15 | 2026-09-05 12:40:32 | 47.96923 | 12.93815 | 94° | 55km/h | 17833m | -7.7m/s | -56.1°C | 4.2% | 82.1hPa | 2.5V | 00:00:00 | 00:00:00 | 00:00:00 | |
| OE5FHM-15 | 2026-09-05 12:40:31 | 47.96925 | 12.93787 | 102° | 53km/h | 17841m | -7.7m/s | -56.0°C | 4.3% | 82.0hPa | 2.5V | 00:00:00 | 02:11:03 | 00:00:00 | |
| OE5MMP-10 | 2026-09-05 12:40:30 | 47.96930 | 12.93761 | 110° | 46km/h | 17849m | -7.9m/s | -56.1°C | 4.4% | 81.9hPa | 2.5V | 00:00:00 | 02:11:02 | 00:00:00 | |
| OE5WHR-10 | 2026-09-05 12:40:25 | 47.96953 | 12.93686 | 83° | 55km/h | 17889m | -8.2m/s | -56.1°C | 4.5% | 81.4hPa | 2.5V | 08:14:00 | 00:00:00 | 00:00:00 | |
| OE5REO-15 | 2026-09-05 12:40:24 | 47.96953 | 12.93686 | 84° | 24km/h | 17889m | -8.3m/s | -56.1°C | 1.4% | 81.4hPa | 2.6V | 08:14:00 | 00:00:00 | 00:00:00 | |
| OE5DRO-10 | 2026-09-05 12:40:22 | 47.96939 | 12.93651 | 55° | 58km/h | 17914m | -8.4m/s | -56.4°C | 4.4% | 81.0hPa | 2.6V | 00:00:00 | 00:00:00 | 00:00:00 | |
| OE5MMP-10 | 2026-09-05 12:40:20 | 47.96924 | 12.93612 | 65° | 66km/h | 17932m | -8.5m/s | -56.5°C | 4.3% | 80.8hPa | 2.6V | 08:14:00 | 02:10:52 | 00:00:00 | |
| DG1MJG | 2026-09-05 12:40:14 | 47.96913 | 12.93472 | 102° | 73km/h | 17974m | -8.4m/s | -56.7°C | 0% | 80.3hPa | 2.5V | 08:15:00 | 00:00:00 | 00:00:00 | |
| DG1MFX-10 | 2026-09-05 12:40:11 | 47.96928 | 12.93406 | 116° | 47km/h | 17998m | -8.0m/s | -56.7°C | 1.4% | 80.0hPa | 2.5V | 08:15:00 | 00:00:00 | 00:00:00 | |
| OE5MMP-10 | 2026-09-05 12:40:10 | 47.96934 | 12.93380 | 97° | 58km/h | 18015m | -8.2m/s | -56.8°C | 4.6% | 79.8hPa | 2.5V | 00:00:00 | 02:10:42 | 00:00:00 | |
| OE5REO-15 | 2026-09-05 12:40:08 | 47.96934 | 12.93370 | 75° | 29km/h | 18023m | -8.0m/s | -57.0°C | 0% | 0hPa | 2.5V | 08:15:00 | 00:00:00 | 00:00:00 | |
| OE5WHR-10 | 2026-09-05 12:40:04 | 47.96903 | 12.93282 | 71° | 71km/h | 18064m | -8.1m/s | -57.4°C | 4.5% | 79.1hPa | 2.5V | 00:00:00 | 00:00:00 | 00:00:00 | |
| OE5DRO-10 | 2026-09-05 12:40:03 | 47.96898 | 12.93254 | 77° | 69km/h | 18072m | -8.1m/s | -57.5°C | 4.5% | 79.0hPa | 2.5V | 00:00:00 | 00:00:00 | 00:00:00 | |
| DF7PN | 2026-09-05 12:39:51 | 47.96909 | 12.92989 | 63° | 60km/h | 18169m | -8.0m/s | -58.3°C | -1.0% | -1.0hPa | 2.5V | 00:00:00 | 00:00:00 | 00:00:00 | |
| OE5MMP-10 | 2026-09-05 12:39:50 | 47.96901 | 12.92966 | 67° | 84km/h | 18177m | -8.2m/s | -58.3°C | 5.1% | 77.7hPa | 2.5V | 00:00:00 | 02:10:22 | 00:00:00 | |
| OE5WHR-10 | 2026-09-05 12:39:43 | 47.96891 | 12.92740 | 108° | 60km/h | 18236m | -8.3m/s | -57.8°C | 5.0% | 77.0hPa | 2.5V | 00:00:00 | 02:10:15 | 00:00:00 | |
| OE5MMP-10 | 2026-09-05 12:39:40 | 47.96913 | 12.92666 | 119° | 53km/h | 18261m | -8.7m/s | -57.3°C | 4.9% | 76.7hPa | 2.5V | 00:00:00 | 02:10:12 | 00:00:00 | |
| OE5REO-15 | 2026-09-05 12:39:37 | 47.96923 | 12.92634 | 109° | 38km/h | 18279m | -9.2m/s | 0°C | 0% | 0hPa | 2.5V | 08:15:00 | 00:00:00 | 00:00:00 | |
| DO7DH-14 | 2026-09-05 12:39:32 | 47.96906 | 12.92527 | 78° | 51km/h | 18329m | -8.0m/s | -57.3°C | 4.8% | 75.9hPa | 2.5V | 00:00:00 | 02:10:04 | 00:00:00 | |
| OE5FHM-15 | 2026-09-05 12:39:31 | 47.96903 | 12.92498 | 85° | 53km/h | 18338m | -8.1m/s | -57.4°C | 4.9% | 75.8hPa | 2.5V | 00:00:00 | 02:10:03 | 00:00:00 | |
| OE5MMP-10 | 2026-09-05 12:39:30 | 47.96903 | 12.92467 | 93° | 57km/h | 18346m | -8.3m/s | -57.2°C | 4.9% | 75.7hPa | 2.5V | 00:00:00 | 02:10:02 | 00:00:00 | |
| OE5DRO-10 | 2026-09-05 12:39:25 | 47.96935 | 12.92338 | 128° | 42km/h | 18388m | -8.2m/s | -56.6°C | 5.0% | 75.1hPa | 2.5V | 00:00:00 | 00:00:00 | 00:00:00 | |
| OE5WHR-10 | 2026-09-05 12:39:22 | 47.96951 | 12.92304 | 109° | 47km/h | 18413m | -8.5m/s | -56.4°C | 4.9% | 74.8hPa | 2.5V | 00:00:00 | 00:00:00 | 00:00:00 | |
| OE8JPQ-2 | 2026-09-05 12:39:21 | 47.96952 | 12.92295 | 83° | 49km/h | 18422m | -8.6m/s | -56.3°C | 4.8% | 74.7hPa | 2.5V | 00:00:00 | 00:00:00 | 00:00:00 | |
| OE5MMP-10 | 2026-09-05 12:39:20 | 47.96950 | 12.92285 | 67° | 64km/h | 18431m | -9.0m/s | -56.1°C | 4.7% | 74.7hPa | 2.5V | 00:00:00 | 02:09:52 | 00:00:00 | |
| DG1MJG | 2026-09-05 12:39:14 | 47.96927 | 12.92157 | 94° | 78km/h | 18482m | -8.4m/s | -55.6°C | 1.3% | 74.1hPa | 2.5V | 08:16:00 | 00:00:00 | 00:00:00 | |
| DG1MFX-10 | 2026-09-05 12:39:11 | 47.96942 | 12.92076 | 119° | 68km/h | 18509m | -9.2m/s | -55.0°C | 1.3% | 73.8hPa | 2.5V | 08:16:00 | 00:00:00 | 00:00:00 | |
| OE5MMP-10 | 2026-09-05 12:39:10 | 47.96950 | 12.92056 | 125° | 38km/h | 18518m | -9.1m/s | -54.5°C | 4.1% | 73.6hPa | 2.5V | 00:00:00 | 02:09:42 | 00:00:00 | |
| OE5REO-15 | 2026-09-05 12:39:07 | 47.96965 | 12.92028 | 135° | 37km/h | 18536m | -8.7m/s | 0°C | 0% | 0hPa | 2.5V | 00:00:00 | 00:00:00 | 00:00:00 | |
| DO7DH-14 | 2026-09-05 12:39:02 | 47.96960 | 12.91974 | 60° | 53km/h | 18589m | -8.9m/s | 0°C | 0% | 0hPa | 2.5V | 00:00:00 | 02:09:34 | 00:00:00 | |
| OE5FHM-15 | 2026-09-05 12:39:01 | 47.96953 | 12.91955 | 67° | 49km/h | 18599m | -8.7m/s | -54.9°C | 3.9% | 72.7hPa | 2.5V | 00:00:00 | 02:09:33 | 00:00:00 | |
| OE5MMP-10 | 2026-09-05 12:39:00 | 47.96948 | 12.91933 | 75° | 57km/h | 18607m | -8.7m/s | -55.0°C | 3.9% | 72.6hPa | 2.7V | 00:00:00 | 02:09:32 | 00:00:00 | |
| DO3MHA-11 | 2026-09-05 12:38:56 | 47.96950 | 12.91828 | 111° | 42km/h | 18642m | -8.3m/s | -55.1°C | 4.0% | 72.2hPa | 2.7V | 00:00:00 | 02:09:28 | 00:00:00 | |
| BAUMI2-15 | 2026-09-05 12:38:55 | 47.96957 | 12.91805 | 119° | 44km/h | 18650m | -8.5m/s | -55.1°C | 4.1% | 72.1hPa | 2.7V | 00:00:00 | 02:09:27 | 00:00:00 | |
| OE5REO-15 | 2026-09-05 12:38:51 | 47.96979 | 12.91761 | 134° | 33km/h | 18677m | -9.2m/s | 0°C | 0% | 0hPa | 2.7V | 00:00:00 | 00:00:00 | 00:00:00 | |
| DG1MFX-10 | 2026-09-05 12:38:50 | 47.96986 | 12.91746 | 98° | 16km/h | 18696m | -8.9m/s | -55.4°C | 1.3% | 71.7hPa | 2.7V | 08:16:00 | 00:00:00 | 00:00:00 | |
| BAUMI2-15 | 2026-09-05 12:38:45 | 47.96962 | 12.91685 | 67° | 69km/h | 18740m | -9.2m/s | -55.8°C | 4.2% | 71.1hPa | 2.7V | 00:00:00 | 02:09:17 | 00:00:00 | |
| DO3MHA-11 | 2026-09-05 12:38:44 | 47.96957 | 12.91662 | 76° | 53km/h | 18749m | -9.1m/s | -55.9°C | 4.2% | 71.0hPa | 2.7V | 00:00:00 | 02:09:16 | 00:00:00 | |
| DG1MJG | 2026-09-05 12:38:42 | 47.96953 | 12.91636 | 84° | 73km/h | 18758m | -9.0m/s | -55.9°C | 1.2% | 71.0hPa | 2.7V | 08:16:00 | 00:00:00 | 00:00:00 | |
| OE8JPQ-2 | 2026-09-05 12:38:41 | 47.96955 | 12.91582 | 103° | 49km/h | 18776m | -9.0m/s | -55.9°C | 4.3% | 70.7hPa | 2.7V | 00:00:00 | 00:00:00 | 00:00:00 | |
| OE5WHR-10 | 2026-09-05 12:38:40 | 47.96960 | 12.91556 | 112° | 47km/h | 18785m | -8.9m/s | -55.9°C | 4.3% | 70.6hPa | 2.5V | 00:00:00 | 02:09:12 | 00:00:00 | |
| OE5HKT-10 | 2026-09-05 12:38:38 | 47.96976 | 12.91514 | 128° | 46km/h | 18803m | -9.4m/s | -55.9°C | 4.4% | 70.4hPa | 2.5V | 00:00:00 | 02:09:10 | 00:00:00 | |
| BAUMI2-15 | 2026-09-05 12:38:35 | 47.97000 | 12.91480 | 143° | 22km/h | 18832m | -9.4m/s | -55.9°C | 4.5% | 70.0hPa | 2.5V | 00:00:00 | 02:09:07 | 00:00:00 | |
| DO7DH-14 | 2026-09-05 12:38:32 | 47.97006 | 12.91464 | 65° | 27km/h | 18860m | -9.0m/s | 0°C | 0% | 0hPa | 2.5V | 00:00:00 | 02:09:04 | 08:30:00 | |
| OE5FHM-15 | 2026-09-05 12:38:31 | 47.97003 | 12.91456 | 57° | 46km/h | 18869m | -9.2m/s | -56.0°C | 4.5% | 69.7hPa | 2.5V | 00:00:00 | 02:09:03 | 00:00:00 | |
| OE5MMP-10 | 2026-09-05 12:38:30 | 47.96998 | 12.91445 | 59° | 58km/h | 18878m | -9.2m/s | -56.1°C | 4.4% | 69.6hPa | 2.5V | 00:00:00 | 02:09:02 | 00:00:00 | |
| DG1MFX-10 | 2026-09-05 12:38:29 | 47.96998 | 12.91445 | 60° | 40km/h | 18878m | -9.3m/s | -56.1°C | 1.3% | 69.6hPa | 2.5V | 08:17:00 | 00:00:00 | 00:00:00 | |
| OE5DXL-15 | 2026-09-05 12:38:28 | 47.96984 | 12.91388 | 83° | 38km/h | 18906m | -9.2m/s | -56.1°C | 4.5% | 69.3hPa | 2.5V | 00:00:00 | 00:00:00 | 00:00:00 | |
| BAUMI2-15 | 2026-09-05 12:38:22 | 47.97006 | 12.91271 | 129° | 35km/h | 18952m | -9.1m/s | -55.9°C | 4.7% | 68.8hPa | 2.5V | 08:16:00 | 02:08:54 | 00:00:00 | |
| OE8JPQ-2 | 2026-09-05 12:38:21 | 47.97014 | 12.91257 | 138° | 38km/h | 18962m | -8.9m/s | -55.8°C | 4.7% | 68.7hPa | 2.6V | 00:00:00 | 00:00:00 | 00:00:00 | |
| OE5MMP-10 | 2026-09-05 12:38:20 | 47.97023 | 12.91247 | 146° | 29km/h | 18970m | -8.9m/s | -55.7°C | 4.7% | 68.6hPa | 2.6V | 00:00:00 | 02:08:52 | 00:00:00 | |
| OE5WHR-10 | 2026-09-05 12:38:19 | 47.97029 | 12.91241 | 154° | 35km/h | 18979m | -9.0m/s | -55.5°C | 4.6% | 68.5hPa | 2.5V | 00:00:00 | 00:00:00 | 00:00:00 | |
| BAUMI2-15 | 2026-09-05 12:38:17 | 47.97034 | 12.91236 | 73° | 24km/h | 18999m | -10.2m/s | -55.3°C | 4.5% | 68.2hPa | 2.6V | 00:00:00 | 02:08:49 | 00:00:00 | |
| BAUMI2-15 | 2026-09-05 12:38:12 | 47.97007 | 12.91201 | 55° | 58km/h | 19050m | -9.1m/s | -55.5°C | 4.5% | 67.7hPa | 2.6V | 00:00:00 | 02:08:44 | 00:00:00 | |
| DG1MJG | 2026-09-05 12:38:11 | 47.97007 | 12.91201 | 56° | 51km/h | 19050m | -9.2m/s | -55.6°C | 1.3% | 67.8hPa | 2.6V | 08:17:00 | 00:00:00 | 00:00:00 | |
| OE5MMP-10 | 2026-09-05 12:38:10 | 47.96996 | 12.91162 | 79° | 46km/h | 19068m | -9.1m/s | -55.1°C | 4.3% | 67.5hPa | 2.6V | 00:00:00 | 02:08:42 | 00:00:00 | |
| DG1MFX-10 | 2026-09-05 12:38:09 | 47.96995 | 12.91140 | 91° | 62km/h | 19077m | -9.5m/s | -54.9°C | 1.2% | 67.5hPa | 2.6V | 08:17:00 | 00:00:00 | 00:00:00 | |
| DO3MHA-11 | 2026-09-05 12:38:08 | 47.96996 | 12.91117 | 102° | 42km/h | 19087m | -9.9m/s | -54.6°C | 4.1% | 67.3hPa | 2.6V | 00:00:00 | 02:08:40 | 00:00:00 | |
| BAUMI2-15 | 2026-09-05 12:38:07 | 47.97001 | 12.91096 | 114° | 46km/h | 19097m | -10.3m/s | -54.3°C | 4.1% | 67.2hPa | 2.7V | 00:00:00 | 02:08:39 | 00:00:00 | |
| BAUMI2-15 | 2026-09-05 12:38:02 | 47.97039 | 12.91043 | 168° | 18km/h | 19148m | -9.4m/s | -53.8°C | 4.1% | 66.7hPa | 2.6V | 00:00:00 | 02:08:34 | 00:00:00 | |
| OE8JPQ-2 | 2026-09-05 12:38:01 | 47.97043 | 12.91042 | 171° | 27km/h | 19157m | -8.9m/s | -53.7°C | 4.1% | 66.6hPa | 2.6V | 00:00:00 | 02:08:33 | 00:00:00 | |
| OE5MMP-10 | 2026-09-05 12:38:00 | 47.97044 | 12.91041 | 86° | 44km/h | 19166m | -8.5m/s | -53.7°C | 4.1% | 66.5hPa | 2.6V | 00:00:00 | 02:08:32 | 00:00:00 | |
| OE5WHR-10 | 2026-09-05 12:37:58 | 47.97039 | 12.91032 | 51° | 40km/h | 19183m | -9.2m/s | -53.8°C | 4.0% | 66.3hPa | 2.6V | 00:00:00 | 00:00:00 | 00:00:00 | |
| BAUMI2-15 | 2026-09-05 12:37:57 | 47.97034 | 12.91022 | 61° | 55km/h | 19193m | -9.7m/s | -53.9°C | 4.0% | 66.2hPa | 2.6V | 00:00:00 | 02:08:29 | 00:00:00 | |
| OE5HKT-10 | 2026-09-05 12:37:56 | 47.97030 | 12.91007 | 72° | 46km/h | 19203m | -10.2m/s | -53.9°C | 4.0% | 66.1hPa | 2.6V | 00:00:00 | 00:00:00 | 00:00:00 | |
| OE5DXL-15 | 2026-09-05 12:37:54 | 47.97028 | 12.90943 | 104° | 33km/h | 19232m | -9.4m/s | -53.6°C | 3.9% | 65.8hPa | 2.6V | 00:00:00 | 00:00:00 | 00:00:00 | |
| BAUMI2-15 | 2026-09-05 12:37:51 | 47.97041 | 12.90902 | 126° | 42km/h | 19251m | -9.5m/s | -53.6°C | 4.0% | 65.6hPa | 2.5V | 00:00:00 | 02:08:23 | 00:00:00 | |
| OE5MMP-10 | 2026-09-05 12:37:50 | 47.97050 | 12.90886 | 138° | 27km/h | 19261m | -9.4m/s | -53.5°C | 4.0% | 65.6hPa | 2.5V | 00:00:00 | 02:08:22 | 00:00:00 | |
| DG1MFX-10 | 2026-09-05 12:37:48 | 47.97060 | 12.90875 | 150° | 44km/h | 19270m | -9.3m/s | -53.5°C | 1.1% | 65.5hPa | 2.6V | 08:17:00 | 00:00:00 | 00:00:00 | |
| BAUMI2-15 | 2026-09-05 12:37:46 | 47.97080 | 12.90867 | 196° | 16km/h | 19299m | -9.6m/s | -53.3°C | 4.1% | 65.1hPa | 2.6V | 00:00:00 | 02:08:18 | 00:00:00 | |
| DG1MJG | 2026-09-05 12:37:41 | 47.97064 | 12.90862 | 37° | 37km/h | 19349m | -9.5m/s | -53.5°C | 1.1% | 64.6hPa | 2.6V | 08:18:00 | 00:00:00 | 00:00:00 | |
| OE5MMP-10 | 2026-09-05 12:37:40 | 47.97057 | 12.90851 | 49° | 51km/h | 19358m | -9.2m/s | -53.5°C | 4.0% | 64.5hPa | 2.6V | 00:00:00 | 02:08:12 | 00:00:00 | |
| OE5WHR-10 | 2026-09-05 12:37:37 | 47.97042 | 12.90797 | 85° | 38km/h | 19386m | -9.4m/s | -53.5°C | 3.9% | 64.2hPa | 2.6V | 00:00:00 | 02:08:09 | 00:00:00 | |
| OE5HKT-10 | 2026-09-05 12:37:35 | 47.97045 | 12.90753 | 108° | 37km/h | 19405m | -9.3m/s | -53.4°C | 3.9% | 64.0hPa | 2.6V | 00:00:00 | 02:08:07 | 00:00:00 | |
| OE5FHM-15 | 2026-09-05 12:37:31 | 47.97077 | 12.90699 | 160° | 33km/h | 19443m | -9.3m/s | -53.1°C | 4.1% | 63.6hPa | 2.6V | 08:17:00 | 02:08:03 | 00:00:00 | |
| OE5MMP-10 | 2026-09-05 12:37:30 | 47.97084 | 12.90695 | 174° | 26km/h | 19452m | -9.3m/s | -53.2°C | 4.2% | 63.6hPa | 2.5V | 00:00:00 | 02:08:02 | 00:00:00 | |
| BAUMI2-15 | 2026-09-05 12:37:25 | 47.97088 | 12.90694 | 42° | 37km/h | 19499m | -9.4m/s | -53.1°C | 4.0% | 63.1hPa | 2.5V | 00:00:00 | 02:07:57 | 00:00:00 | |
| OE5DXL-15 | 2026-09-05 12:37:24 | 47.97079 | 12.90660 | 89° | 37km/h | 19529m | -10.2m/s | -52.3°C | 3.7% | 62.8hPa | 2.5V | 00:00:00 | 00:00:00 | 00:00:00 | |
| OE8JPQ-2 | 2026-09-05 12:37:21 | 47.97081 | 12.90644 | 105° | 31km/h | 19539m | -9.6m/s | -51.9°C | 3.5% | 62.8hPa | 2.5V | 00:00:00 | 00:00:00 | 00:00:00 | |
| OE5MMP-10 | 2026-09-05 12:37:20 | 47.97085 | 12.90628 | 122° | 40km/h | 19548m | -9.3m/s | -51.7°C | 3.5% | 62.6hPa | 2.5V | 08:17:00 | 02:07:52 | 00:00:00 | |
| DG1MFX-10 | 2026-09-05 12:37:19 | 47.97086 | 12.90628 | 123° | 49km/h | 19548m | -9.3m/s | -51.8°C | 1.0% | 62.7hPa | 2.6V | 00:00:00 | 00:00:00 | 00:00:00 | |
| OE5WHR-10 | 2026-09-05 12:37:16 | 47.97127 | 12.90596 | 184° | 33km/h | 19589m | -11.2m/s | -51.6°C | 3.6% | 62.3hPa | 2.6V | 08:17:00 | 00:00:00 | 00:00:00 | |
| BAUMI2-15 | 2026-09-05 12:37:15 | 47.97138 | 12.90599 | 200° | 33km/h | 19600m | -10.8m/s | -51.2°C | 3.5% | 62.1hPa | 2.6V | 00:00:00 | 02:07:47 | 00:00:00 | |
| OE5HKT-10 | 2026-09-05 12:37:14 | 47.97147 | 12.90606 | 216° | 33km/h | 19611m | -10.2m/s | -51.3°C | 3.5% | 62.0hPa | 2.6V | 08:17:00 | 00:00:00 | 00:00:00 | |
| DG1MJG | 2026-09-05 12:37:10 | 47.97152 | 12.90640 | 321° | 20km/h | 19651m | -10.3m/s | -51.8°C | 1.0% | 61.7hPa | 2.7V | 08:18:00 | 00:00:00 | 00:00:00 | |
| DO7DH-14 | 2026-09-05 12:37:07 | 47.97138 | 12.90635 | 57° | 26km/h | 19683m | -10.3m/s | 0°C | 0% | 0hPa | 2.7V | 00:00:00 | 02:07:39 | 00:00:00 | |
| BAUMI2-15 | 2026-09-05 12:37:05 | 47.97136 | 12.90615 | 102° | 38km/h | 19703m | -10.0m/s | -52.1°C | 3.4% | 61.1hPa | 2.7V | 00:00:00 | 02:07:37 | 00:00:00 | |
| OE5FHM-15 | 2026-09-05 12:37:01 | 47.97166 | 12.90580 | 176° | 33km/h | 19742m | -9.4m/s | -52.3°C | 3.6% | 60.7hPa | 2.5V | 00:00:00 | 02:07:33 | 00:00:00 | |
| OE5MMP-10 | 2026-09-05 12:37:00 | 47.97177 | 12.90582 | 192° | 33km/h | 19752m | -9.4m/s | -52.4°C | 3.7% | 60.7hPa | 2.5V | 00:00:00 | 02:07:32 | 00:00:00 | |
| OE8JPQ-2 | 2026-09-05 12:36:56 | 47.97201 | 12.90619 | 270° | 29km/h | 19790m | -9.7m/s | -52.8°C | 3.8% | 60.3hPa | 2.5V | 00:00:00 | 02:07:28 | 00:00:00 | |
| OE5WHR-10 | 2026-09-05 12:36:55 | 47.97200 | 12.90629 | 295° | 31km/h | 19800m | -9.7m/s | -52.9°C | 3.7% | 60.2hPa | 2.5V | 00:00:00 | 00:00:00 | 00:00:00 | |
| OE5DXL-15 | 2026-09-05 12:36:54 | 47.97196 | 12.90636 | 324° | 33km/h | 19810m | -9.8m/s | -53.0°C | 3.6% | 60.1hPa | 2.5V | 00:00:00 | 00:00:00 | 00:00:00 | |
| OE5HKT-10 | 2026-09-05 12:36:53 | 47.97190 | 12.90640 | 353° | 33km/h | 19820m | -10.1m/s | -53.1°C | 3.6% | 60.0hPa | 2.5V | 00:00:00 | 00:00:00 | 00:00:00 | |
| DG1MFX-10 | 2026-09-05 12:36:52 | 47.97190 | 12.90640 | 353° | 26km/h | 19820m | -10.1m/s | -53.2°C | 1.1% | 60.1hPa | 2.5V | 08:19:00 | 00:00:00 | 00:00:00 | |
| OE5MMP-10 | 2026-09-05 12:36:50 | 47.97173 | 12.90625 | 66° | 35km/h | 19850m | -10.1m/s | -53.4°C | 3.6% | 59.7hPa | 2.5V | 00:00:00 | 02:07:22 | 00:00:00 | |
| OE5DRO-10 | 2026-09-05 12:36:48 | 47.97172 | 12.90600 | 106° | 35km/h | 19871m | -10.1m/s | -53.4°C | 3.6% | 59.6hPa | 2.6V | 08:18:00 | 00:00:00 | 00:00:00 | |
| OE5MMP-10 | 2026-09-05 12:36:40 | 47.97222 | 12.90601 | 272° | 33km/h | 19952m | -10.2m/s | -54.2°C | 4.1% | 58.8hPa | 2.5V | 00:00:00 | 02:07:12 | 00:00:00 | |
| DG1MJG | 2026-09-05 12:36:38 | 47.97220 | 12.90611 | 299° | 27km/h | 19962m | -10.4m/s | -54.3°C | 1.2% | 58.8hPa | 2.5V | 08:19:00 | 00:00:00 | 00:00:00 | |
| OE5WHR-10 | 2026-09-05 12:36:34 | 47.97188 | 12.90607 | 57° | 37km/h | 20014m | -10.5m/s | -54.6°C | 4.0% | 58.3hPa | 2.5V | 00:00:00 | 02:07:06 | 00:00:00 | |
| OE5HKT-10 | 2026-09-05 12:36:32 | 47.97183 | 12.90580 | 94° | 37km/h | 20035m | -9.9m/s | -54.7°C | 4.0% | 58.0hPa | 2.5V | 00:00:00 | 02:07:04 | 00:00:00 | |
| OE5FHM-15 | 2026-09-05 12:36:31 | 47.97186 | 12.90565 | 112° | 35km/h | 20045m | -10.0m/s | -54.6°C | 4.0% | 57.9hPa | 2.5V | 00:00:00 | 02:07:03 | 00:00:00 | |
| OE5MMP-10 | 2026-09-05 12:36:30 | 47.97190 | 12.90553 | 130° | 29km/h | 20054m | -9.9m/s | -54.6°C | 4.1% | 57.9hPa | 2.5V | 00:00:00 | 02:07:02 | 00:00:00 | |
| OE5DRO-10 | 2026-09-05 12:36:29 | 47.97197 | 12.90543 | 148° | 31km/h | 20064m | -9.7m/s | -54.6°C | 4.2% | 57.8hPa | 2.5V | 00:00:00 | 00:00:00 | 00:00:00 | |
| OE5MMP-10 | 2026-09-05 12:36:20 | 47.97200 | 12.90577 | 17° | 42km/h | 20156m | -9.5m/s | -54.8°C | 4.2% | 57.0hPa | 2.5V | 00:00:00 | 02:06:52 | 00:00:00 | |
| OE5WHR-10 | 2026-09-05 12:36:13 | 47.97185 | 12.90478 | 130° | 35km/h | 20227m | -9.8m/s | -54.9°C | 4.4% | 56.3hPa | 2.6V | 00:00:00 | 00:00:00 | 00:00:00 | |
| OE5HKT-10 | 2026-09-05 12:36:11 | 47.97200 | 12.90461 | 163° | 33km/h | 20246m | -9.5m/s | -54.9°C | 4.6% | 56.1hPa | 2.7V | 00:00:00 | 00:00:00 | 00:00:00 | |
| OE5MMP-10 | 2026-09-05 12:36:10 | 47.97207 | 12.90460 | 185° | 33km/h | 20256m | -9.8m/s | -55.0°C | 4.8% | 56.0hPa | 2.6V | 00:00:00 | 02:06:42 | 00:00:00 | |
| OE8JPQ-2 | 2026-09-05 12:36:07 | 47.97210 | 12.90469 | 339° | 40km/h | 20286m | -10.0m/s | -54.8°C | 4.6% | 55.8hPa | 2.6V | 00:00:00 | 00:00:00 | 00:00:00 | |
| DG1MFX-10 | 2026-09-05 12:36:06 | 47.97210 | 12.90469 | 339° | 18km/h | 20286m | -10.1m/s | -54.9°C | 1.4% | 55.9hPa | 2.6V | 08:19:00 | 00:00:00 | 00:00:00 | |
| OE5FHM-15 | 2026-09-05 12:36:01 | 47.97166 | 12.90410 | 77° | 38km/h | 20349m | -10.6m/s | -53.4°C | 3.8% | 55.2hPa | 2.6V | 00:00:00 | 02:06:33 | 00:00:00 | |
| OE5MMP-10 | 2026-09-05 12:36:00 | 47.97164 | 12.90390 | 90° | 33km/h | 20360m | -10.4m/s | -53.2°C | 3.8% | 55.1hPa | 2.6V | 00:00:00 | 02:06:32 | 00:00:00 | |
| OE5WHR-10 | 2026-09-05 12:35:52 | 47.97192 | 12.90337 | 319° | 38km/h | 20442m | -10.6m/s | -52.8°C | 3.8% | 54.5hPa | 2.6V | 00:00:00 | 00:00:00 | 00:00:00 | |
| OE5DXL-15 | 2026-09-05 12:35:51 | 47.97187 | 12.90342 | 342° | 26km/h | 20453m | -10.4m/s | -52.8°C | 3.8% | 54.4hPa | 2.6V | 00:00:00 | 00:00:00 | 00:00:00 | |
| OE5MMP-10 | 2026-09-05 12:35:50 | 47.97179 | 12.90343 | 360° | 51km/h | 20463m | -10.3m/s | -52.9°C | 3.7% | 54.3hPa | 2.6V | 08:19:00 | 02:06:22 | 00:00:00 | |
| DG1MFX-10 | 2026-09-05 12:35:47 | 47.97145 | 12.90322 | 43° | 57km/h | 20495m | -10.7m/s | -53.2°C | 1.1% | 54.1hPa | 2.7V | 00:00:00 | 00:00:00 | 00:00:00 | |
| OE5MMP-10 | 2026-09-05 12:35:40 | 47.97133 | 12.90203 | 135° | 33km/h | 20569m | -10.2m/s | -53.7°C | 4.0% | 53.4hPa | 2.7V | 00:00:00 | 02:06:12 | 00:00:00 | |
| DG1MJG | 2026-09-05 12:35:37 | 47.97141 | 12.90197 | 203° | 9km/h | 20590m | -10.4m/s | -53.9°C | 1.1% | 53.2hPa | 2.7V | 08:19:00 | 00:00:00 | 00:00:00 | |
| OE5WHR-10 | 2026-09-05 12:35:31 | 47.97088 | 12.90199 | 30° | 47km/h | 20663m | -10.2m/s | -54.5°C | 4.0% | 52.6hPa | 2.7V | 00:00:00 | 02:06:03 | 00:00:00 | |
| OE5MMP-10 | 2026-09-05 12:35:30 | 47.97075 | 12.90185 | 42° | 46km/h | 20674m | -10.4m/s | -54.6°C | 4.0% | 52.5hPa | 2.7V | 00:00:00 | 02:06:02 | 00:00:00 | |
| OE5HKT-10 | 2026-09-05 12:35:29 | 47.97064 | 12.90167 | 53° | 47km/h | 20684m | -10.4m/s | -54.6°C | 4.0% | 52.4hPa | 2.7V | 00:00:00 | 02:06:01 | 00:00:00 | |
| DG1MFX-10 | 2026-09-05 12:35:25 | 47.97047 | 12.90102 | 87° | 57km/h | 20715m | -10.5m/s | -54.7°C | 1.2% | 52.2hPa | 2.7V | 00:00:00 | 00:00:00 | 00:00:00 | |
| OE5MMP-10 | 2026-09-05 12:35:20 | 47.97060 | 12.90045 | 322° | 40km/h | 20779m | -10.3m/s | -54.6°C | 4.3% | 51.7hPa | 2.7V | 00:00:00 | 02:05:52 | 00:00:00 | |
| OE5DXL-15 | 2026-09-05 12:35:17 | 47.97031 | 12.90041 | 25° | 37km/h | 20820m | -10.5m/s | -54.9°C | 4.3% | 51.3hPa | 2.7V | 00:00:00 | 00:00:00 | 00:00:00 | |
| OE5WHR-10 | 2026-09-05 12:35:10 | 47.96987 | 12.89919 | 95° | 46km/h | 20885m | -10.3m/s | -54.6°C | 4.0% | 50.8hPa | 2.7V | 00:00:00 | 00:00:00 | 00:00:00 | |
| OE5HKT-10 | 2026-09-05 12:35:08 | 47.96995 | 12.89874 | 119° | 44km/h | 20906m | -11.2m/s | -54.6°C | 4.1% | 50.6hPa | 2.6V | 00:00:00 | 00:00:00 | 00:00:00 | |
| DG1MJG | 2026-09-05 12:35:07 | 47.97003 | 12.89858 | 131° | 49km/h | 20918m | -11.2m/s | -54.7°C | 1.2% | 50.6hPa | 2.6V | 08:20:00 | 00:00:00 | 00:00:00 | |
| DG1MFX-10 | 2026-09-05 12:35:04 | 47.97024 | 12.89835 | 166° | 20km/h | 20950m | -10.5m/s | -54.8°C | 1.3% | 50.3hPa | 2.6V | 08:20:00 | 00:00:00 | 00:00:00 | |
| OE5FHM-15 | 2026-09-05 12:35:01 | 47.97025 | 12.89833 | 21° | 46km/h | 20981m | -10.5m/s | -54.7°C | 4.3% | 50.0hPa | 2.6V | 00:00:00 | 02:05:33 | 00:00:00 | |
| OE5MMP-10 | 2026-09-05 12:35:00 | 47.97019 | 12.89828 | 34° | 57km/h | 20992m | -10.5m/s | -54.7°C | 4.2% | 49.9hPa | 2.6V | 00:00:00 | 02:05:32 | 00:00:00 | |
| BAUMI2-15 | 2026-09-05 12:34:59 | 47.97013 | 12.89819 | 48° | 57km/h | 21003m | -10.6m/s | -54.9°C | 4.3% | 49.8hPa | 2.6V | 00:00:00 | 02:05:31 | 00:00:00 | |
| BAUMI2-15 | 2026-09-05 12:34:54 | 47.97002 | 12.89716 | 110° | 62km/h | 21057m | -11.1m/s | -54.8°C | 4.2% | 49.5hPa | 2.6V | 00:00:00 | 02:05:26 | 00:00:00 | |
| OE5DRO-10 | 2026-09-05 12:34:51 | 47.97031 | 12.89659 | 145° | 47km/h | 21091m | -11.0m/s | -54.5°C | 4.3% | 49.2hPa | 2.6V | 00:00:00 | 00:00:00 | 00:00:00 | |
| OE5MMP-10 | 2026-09-05 12:34:50 | 47.97043 | 12.89649 | 158° | 29km/h | 21102m | -11.1m/s | -54.5°C | 4.3% | 49.1hPa | 2.6V | 00:00:00 | 02:05:22 | 00:00:00 | |
| OE5WHR-10 | 2026-09-05 12:34:49 | 47.97054 | 12.89643 | 171° | 37km/h | 21113m | -10.8m/s | -54.5°C | 4.4% | 49.0hPa | 2.7V | 00:00:00 | 00:00:00 | 00:00:00 | |
| OE5HKT-10 | 2026-09-05 12:34:47 | 47.97070 | 12.89645 | 204° | 35km/h | 21134m | -10.8m/s | -54.6°C | 4.4% | 48.9hPa | 2.7V | 00:00:00 | 00:00:00 | 00:00:00 | |
| BAUMI2-15 | 2026-09-05 12:34:44 | 47.97069 | 12.89650 | 15° | 40km/h | 21168m | -11.4m/s | -54.5°C | 4.3% | 48.6hPa | 2.7V | 00:00:00 | 02:05:16 | 00:00:00 | |
| DG1MFX-10 | 2026-09-05 12:34:43 | 47.97069 | 12.89650 | 15° | 20km/h | 21168m | -11.5m/s | -54.6°C | 1.2% | 48.7hPa | 2.7V | 08:20:00 | 00:00:00 | 00:00:00 | |
| OE5MMP-10 | 2026-09-05 12:34:40 | 47.97044 | 12.89605 | 72° | 51km/h | 21214m | -11.2m/s | -54.6°C | 4.1% | 48.2hPa | 2.7V | 00:00:00 | 02:05:12 | 00:00:00 | |
| BAUMI2-15 | 2026-09-05 12:34:39 | 47.97041 | 12.89584 | 84° | 62km/h | 21226m | -11.0m/s | -54.6°C | 4.1% | 48.1hPa | 2.7V | 00:00:00 | 02:05:11 | 00:00:00 | |
| DG1MJG | 2026-09-05 12:34:36 | 47.97044 | 12.89536 | 110° | 64km/h | 21247m | -10.2m/s | -54.4°C | 1.2% | 48.0hPa | 2.7V | 08:20:00 | 00:00:00 | 00:00:00 | |
| BAUMI2-15 | 2026-09-05 12:34:34 | 47.97071 | 12.89486 | 150° | 31km/h | 21280m | -11.2m/s | -54.3°C | 4.3% | 47.7hPa | 2.7V | 00:00:00 | 02:05:06 | 00:00:00 | |
| OE5FHM-15 | 2026-09-05 12:34:31 | 47.97096 | 12.89478 | 200° | 38km/h | 21313m | -10.7m/s | -54.1°C | 4.3% | 47.4hPa | 2.6V | 00:00:00 | 02:05:03 | 00:00:00 | |
| OE5MMP-10 | 2026-09-05 12:34:30 | 47.97099 | 12.89481 | 235° | 38km/h | 21324m | -10.5m/s | -54.1°C | 4.3% | 47.4hPa | 2.7V | 00:00:00 | 02:05:02 | 00:00:00 | |
| BAUMI2-15 | 2026-09-05 12:34:29 | 47.97099 | 12.89484 | 318° | 27km/h | 21334m | -10.9m/s | -54.1°C | 4.2% | 47.3hPa | 2.7V | 00:00:00 | 02:05:01 | 00:00:00 | |
| OE5WHR-10 | 2026-09-05 12:34:28 | 47.97096 | 12.89485 | 7° | 40km/h | 21345m | -11.1m/s | -54.0°C | 4.2% | 47.2hPa | 2.7V | 00:00:00 | 02:05:00 | 00:00:00 | |
| OE5HKT-10 | 2026-09-05 12:34:26 | 47.97085 | 12.89474 | 49° | 42km/h | 21367m | -11.2m/s | -54.1°C | 4.1% | 47.0hPa | 2.7V | 00:00:00 | 02:04:58 | 00:00:00 | |
| BAUMI2-15 | 2026-09-05 12:34:24 | 47.97075 | 12.89444 | 79° | 58km/h | 21390m | -11.0m/s | -54.0°C | 4.1% | 46.9hPa | 2.7V | 00:00:00 | 02:04:56 | 00:00:00 | |
| OE5DRO-10 | 2026-09-05 12:34:22 | 47.97077 | 12.89402 | 106° | 51km/h | 21412m | -11.4m/s | -53.7°C | 4.0% | 46.7hPa | 2.7V | 00:00:00 | 00:00:00 | 00:00:00 | |
| OE5MMP-10 | 2026-09-05 12:34:20 | 47.97091 | 12.89363 | 134° | 38km/h | 21435m | -11.8m/s | -53.6°C | 4.1% | 46.6hPa | 2.7V | 08:20:00 | 02:04:52 | 00:00:00 | |
| BAUMI2-15 | 2026-09-05 12:34:19 | 47.97102 | 12.89350 | 148° | 44km/h | 21447m | -11.7m/s | -53.6°C | 4.1% | 46.5hPa | 2.6V | 00:00:00 | 02:04:51 | 00:00:00 | |
| BAUMI2-15 | 2026-09-05 12:34:14 | 47.97147 | 12.89356 | 250° | 27km/h | 21505m | -12.0m/s | -53.3°C | 4.1% | 46.0hPa | 2.7V | 00:00:00 | 02:04:46 | 00:00:00 | |
| OE5MMP-10 | 2026-09-05 12:34:10 | 47.97132 | 12.89375 | 14° | 38km/h | 21552m | -11.8m/s | -53.1°C | 3.8% | 45.7hPa | 2.7V | 00:00:00 | 02:04:42 | 00:00:00 | |
| BAUMI2-15 | 2026-09-05 12:34:09 | 47.97123 | 12.89369 | 34° | 46km/h | 21564m | -11.8m/s | -53.2°C | 3.8% | 45.6hPa | 2.7V | 00:00:00 | 02:04:41 | 00:00:00 | |
| OE5WHR-10 | 2026-09-05 12:34:07 | 47.97110 | 12.89345 | 68° | 42km/h | 21587m | -11.7m/s | -53.2°C | 3.8% | 45.4hPa | 2.7V | 08:21:00 | 00:00:00 | 00:00:00 | |
| OE5HKT-10 | 2026-09-05 12:34:05 | 47.97108 | 12.89309 | 99° | 38km/h | 21610m | -11.4m/s | -53.3°C | 3.8% | 45.3hPa | 2.6V | 08:21:00 | 00:00:00 | 00:00:00 | |
| BAUMI2-15 | 2026-09-05 12:34:04 | 47.97111 | 12.89292 | 115° | 38km/h | 21622m | -11.5m/s | -53.3°C | 3.9% | 45.2hPa | 2.6V | 08:21:00 | 02:04:36 | 00:00:00 | |
| OE5DRO-10 | 2026-09-05 12:34:03 | 47.97117 | 12.89277 | 133° | 44km/h | 21633m | -11.7m/s | -53.1°C | 3.9% | 45.1hPa | 2.6V | 00:00:00 | 00:00:00 | 00:00:00 | |
| OE5FHM-15 | 2026-09-05 12:34:01 | 47.97134 | 12.89264 | 176° | 37km/h | 21657m | -12.2m/s | -53.0°C | 4.0% | 45.0hPa | 2.6V | 00:00:00 | 02:04:33 | 00:00:00 | |
| BAUMI2-15 | 2026-09-05 12:33:59 | 47.97147 | 12.89271 | 232° | 31km/h | 21681m | -11.8m/s | -53.0°C | 4.0% | 44.8hPa | 2.6V | 00:00:00 | 02:04:31 | 00:00:00 | |
| OE5MMP-10 | 2026-09-05 12:33:58 | 47.97149 | 12.89280 | 264° | 38km/h | 21693m | -11.7m/s | -53.0°C | 4.0% | 44.7hPa | 2.6V | 00:00:00 | 02:04:30 | 00:00:00 | |
| BAUMI2-15 | 2026-09-05 12:33:54 | 47.97126 | 12.89306 | 6° | 47km/h | 21741m | -12.5m/s | -53.1°C | 3.9% | 44.4hPa | 2.6V | 00:00:00 | 02:04:26 | 00:00:00 | |
| BAUMI2-15 | 2026-09-05 12:33:49 | 47.97090 | 12.89242 | 91° | 46km/h | 21802m | -11.8m/s | -53.0°C | 3.8% | 43.9hPa | 2.6V | 00:00:00 | 02:04:21 | 00:00:00 | |
| OE5MMP-10 | 2026-09-05 12:33:48 | 47.97091 | 12.89223 | 106° | 31km/h | 21814m | -11.9m/s | -53.0°C | 3.8% | 43.9hPa | 2.6V | 00:00:00 | 02:04:20 | 00:00:00 | |
| OE5WHR-10 | 2026-09-05 12:33:45 | 47.97112 | 12.89187 | 159° | 38km/h | 21850m | -12.0m/s | -52.8°C | 3.9% | 43.6hPa | 2.6V | 00:00:00 | 00:00:00 | 00:00:00 | |
| OE5HKT-10 | 2026-09-05 12:33:44 | 47.97120 | 12.89184 | 181° | 37km/h | 21862m | -12.0m/s | -52.9°C | 4.0% | 43.5hPa | 2.6V | 00:00:00 | 00:00:00 | 00:00:00 | |
| DG1MFX-10 | 2026-09-05 12:33:40 | 47.97135 | 12.89200 | 267° | 22km/h | 21898m | -11.5m/s | -53.0°C | 1.2% | 43.3hPa | 2.6V | 08:21:00 | 00:00:00 | 00:00:00 | |
| BAUMI2-15 | 2026-09-05 12:33:39 | 47.97129 | 12.89213 | 338° | 37km/h | 21921m | -11.8m/s | -53.0°C | 4.1% | 43.1hPa | 2.6V | 00:00:00 | 02:04:11 | 00:00:00 | |
| OE5MMP-10 | 2026-09-05 12:33:38 | 47.97122 | 12.89214 | 6° | 44km/h | 21933m | -12.2m/s | -53.1°C | 4.1% | 43.0hPa | 2.6V | 00:00:00 | 02:04:10 | 00:00:00 | |
| DG1MJG | 2026-09-05 12:33:36 | 47.97106 | 12.89201 | 49° | 44km/h | 21957m | -12.4m/s | -53.0°C | 1.1% | 42.9hPa | 2.6V | 08:21:00 | 00:00:00 | 00:00:00 | |
| BAUMI2-15 | 2026-09-05 12:33:34 | 47.97097 | 12.89169 | 83° | 51km/h | 21982m | -12.6m/s | -52.8°C | 3.9% | 42.7hPa | 2.6V | 00:00:00 | 02:04:06 | 00:00:00 | |
| OE5DRO-10 | 2026-09-05 12:33:32 | 47.97101 | 12.89131 | 116° | 51km/h | 22007m | -12.2m/s | -52.8°C | 4.0% | 42.6hPa | 2.7V | 08:21:00 | 00:00:00 | 00:00:00 | |
| OE5FHM-15 | 2026-09-05 12:33:31 | 47.97108 | 12.89115 | 133° | 44km/h | 22020m | -11.9m/s | -52.7°C | 4.0% | 42.5hPa | 2.6V | 00:00:00 | 02:04:03 | 00:00:00 | |
| BAUMI2-15 | 2026-09-05 12:33:29 | 47.97128 | 12.89098 | 172° | 40km/h | 22044m | -12.4m/s | -52.4°C | 4.1% | 42.3hPa | 2.6V | 00:00:00 | 02:04:01 | 00:00:00 | |
| OE5MMP-10 | 2026-09-05 12:33:25 | 47.97157 | 12.89127 | 265° | 40km/h | 22093m | -12.6m/s | -51.4°C | 3.7% | 42.0hPa | 2.6V | 00:00:00 | 02:03:57 | 00:00:00 | |
| OE5WHR-10 | 2026-09-05 12:33:24 | 47.97156 | 12.89141 | 289° | 38km/h | 22106m | -12.6m/s | -51.4°C | 3.6% | 41.9hPa | 2.6V | 00:00:00 | 02:03:56 | 00:00:00 | |
| DG1MFX-10 | 2026-09-05 12:33:20 | 47.97133 | 12.89168 | 353° | 44km/h | 22144m | -12.7m/s | -51.7°C | 1.0% | 41.7hPa | 2.6V | 08:22:00 | 00:00:00 | 00:00:00 | |
| BAUMI2-15 | 2026-09-05 12:33:19 | 47.97111 | 12.89161 | 29° | 44km/h | 22169m | -12.3m/s | -51.7°C | 3.6% | 41.5hPa | 2.6V | 08:21:00 | 02:03:51 | 00:00:00 | |
| BAUMI2-15 | 2026-09-05 12:33:14 | 47.97097 | 12.89092 | 125° | 29km/h | 22230m | -12.4m/s | -51.8°C | 3.6% | 41.1hPa | 2.7V | 00:00:00 | 02:03:46 | 00:00:00 | |
| OE5HKT-10 | 2026-09-05 12:33:13 | 47.97104 | 12.89082 | 148° | 33km/h | 22242m | -12.3m/s | -51.7°C | 3.7% | 41.0hPa | 2.7V | 00:00:00 | 02:03:45 | 00:00:00 | |
| OE5DXL-15 | 2026-09-05 12:33:09 | 47.97126 | 12.89093 | 262° | 38km/h | 22292m | -12.5m/s | -51.7°C | 3.9% | 40.7hPa | 2.7V | 00:00:00 | 00:00:00 | 00:00:00 | |
| BAUMI2-15 | 2026-09-05 12:33:08 | 47.97125 | 12.89103 | 292° | 37km/h | 22304m | -12.6m/s | -51.7°C | 3.9% | 40.6hPa | 2.7V | 00:00:00 | 02:03:40 | 00:00:00 | |
| DG1MJG | 2026-09-05 12:33:05 | 47.97103 | 12.89120 | 6° | 42km/h | 22342m | -12.6m/s | -51.9°C | 1.0% | 40.4hPa | 2.7V | 08:22:00 | 00:00:00 | 00:00:00 | |
| OE5WHR-10 | 2026-09-05 12:33:03 | 47.97083 | 12.89106 | 42° | 44km/h | 22367m | -12.2m/s | -51.7°C | 3.7% | 40.2hPa | 2.7V | 00:00:00 | 00:00:00 | 00:00:00 | |
| DG1MFX-10 | 2026-09-05 12:32:59 | 47.97069 | 12.89054 | 96° | 53km/h | 22404m | -13.3m/s | -51.3°C | 1.0% | 40.0hPa | 2.6V | 08:22:00 | 00:00:00 | 00:00:00 | |
| OE5FHM-15 | 2026-09-05 12:32:57 | 47.97088 | 12.89007 | 149° | 44km/h | 22443m | -12.7m/s | -51.1°C | 3.6% | 39.7hPa | 2.6V | 08:22:00 | 02:03:29 | 00:00:00 | |
| OE5HKT-10 | 2026-09-05 12:32:53 | 47.97125 | 12.89028 | 269° | 38km/h | 22506m | -12.4m/s | -50.9°C | 3.6% | 39.3hPa | 2.7V | 00:00:00 | 00:00:00 | 00:00:00 | |
| OE5WHR-10 | 2026-09-05 12:32:42 | 47.97067 | 12.88990 | 113° | 46km/h | 22630m | -12.6m/s | -50.9°C | 3.4% | 38.5hPa | 2.6V | 00:00:00 | 00:00:00 | 00:00:00 | |
| OE5MMP-10 | 2026-09-05 12:32:40 | 47.97080 | 12.88968 | 155° | 46km/h | 22655m | -12.6m/s | -50.9°C | 3.5% | 38.4hPa | 2.6V | 00:00:00 | 02:03:12 | 08:30:00 | |
| DG1MFX-10 | 2026-09-05 12:32:39 | 47.97080 | 12.88968 | 155° | 37km/h | 22655m | -12.6m/s | -50.9°C | 1.0% | 38.4hPa | 2.7V | 08:23:00 | 00:00:00 | 00:00:00 | |
| OE5DXL-15 | 2026-09-05 12:32:34 | 47.97083 | 12.89008 | 354° | 55km/h | 22744m | -13.4m/s | -51.5°C | 3.8% | 37.9hPa | 2.7V | 00:00:00 | 00:00:00 | 00:00:00 | |
| DO7DH-14 | 2026-09-05 12:32:33 | 47.97083 | 12.89008 | 354° | 40km/h | 22744m | -13.4m/s | 0°C | 0% | 0hPa | 2.7V | 00:00:00 | 02:03:05 | 00:00:00 | |
| OE5MMP-10 | 2026-09-05 12:32:23 | 47.97079 | 12.88871 | 178° | 40km/h | 22874m | -13.8m/s | -50.9°C | 3.5% | 37.1hPa | 2.7V | 00:00:00 | 02:02:55 | 00:00:00 | |
| OE5WHR-10 | 2026-09-05 12:32:21 | 47.97101 | 12.88881 | 219° | 46km/h | 22901m | -12.7m/s | -50.7°C | 3.5% | 37.0hPa | 2.7V | 00:00:00 | 02:02:53 | 00:00:00 | |
| OE5FHM-15 | 2026-09-05 12:32:10 | 47.97105 | 12.88857 | 150° | 58km/h | 23044m | -13.5m/s | -50.8°C | 3.4% | 36.2hPa | 2.7V | 00:00:00 | 02:02:42 | 00:00:00 | |
| DG1MJG | 2026-09-05 12:32:04 | 47.97186 | 12.88889 | 246° | 55km/h | 23127m | -12.2m/s | -51.1°C | 1.0% | 35.7hPa | 2.7V | 08:23:00 | 00:00:00 | 00:00:00 | |
| OE5WHR-10 | 2026-09-05 12:32:00 | 47.97177 | 12.88940 | 349° | 46km/h | 23178m | -14.3m/s | -51.2°C | 3.5% | 35.4hPa | 2.7V | 00:00:00 | 00:00:00 | 00:00:00 | |
| DO7DH-14 | 2026-09-05 12:31:59 | 47.97169 | 12.88940 | 17° | 46km/h | 23191m | -13.6m/s | 0°C | 0% | 0hPa | 2.6V | 00:00:00 | 02:02:31 | 00:00:00 | |
| DG1MFX-10 | 2026-09-05 12:31:57 | 47.97162 | 12.88933 | 53° | 33km/h | 23204m | -13.0m/s | -51.3°C | 0.9% | 35.3hPa | 2.6V | 08:23:00 | 00:00:00 | 00:00:00 | |
| OE5HKT-10 | 2026-09-05 12:31:51 | 47.97198 | 12.88870 | 205° | 46km/h | 23302m | -14.1m/s | -51.7°C | 3.7% | 34.7hPa | 2.6V | 00:00:00 | 02:02:23 | 00:00:00 | |
| OE5DRO-10 | 2026-09-05 12:31:45 | 47.97193 | 12.88950 | 340° | 47km/h | 23384m | -14.0m/s | -51.8°C | 3.8% | 34.3hPa | 2.6V | 00:00:00 | 00:00:00 | 00:00:00 | |
| OE5WHR-10 | 2026-09-05 12:31:39 | 47.97140 | 12.88894 | 101° | 44km/h | 23466m | -15.6m/s | -51.9°C | 3.7% | 33.9hPa | 2.6V | 00:00:00 | 00:00:00 | 00:00:00 | |
| OE5FHM-15 | 2026-09-05 12:31:38 | 47.97144 | 12.88878 | 122° | 38km/h | 23481m | -15.7m/s | -51.8°C | 3.6% | 33.7hPa | 2.6V | 00:00:00 | 02:02:10 | 00:00:00 | |
| DG1MFX-10 | 2026-09-05 12:31:37 | 47.97152 | 12.88865 | 141° | 46km/h | 23496m | -15.4m/s | -51.8°C | 1.0% | 33.7hPa | 2.6V | 08:24:00 | 00:00:00 | 00:00:00 | |
| DG1MJG | 2026-09-05 12:31:34 | 47.97181 | 12.88864 | 216° | 42km/h | 23539m | -15.5m/s | -51.9°C | 1.0% | 33.5hPa | 2.6V | 08:24:00 | 00:00:00 | 00:00:00 | |
| OE5DXL-15 | 2026-09-05 12:31:32 | 47.97193 | 12.88892 | 259° | 46km/h | 23568m | -13.1m/s | -51.9°C | 3.9% | 33.3hPa | 2.6V | 00:00:00 | 00:00:00 | 00:00:00 | |
| OE5HKT-10 | 2026-09-05 12:31:30 | 47.97190 | 12.88926 | 299° | 44km/h | 23594m | -14.4m/s | -51.8°C | 3.8% | 33.2hPa | 2.7V | 00:00:00 | 00:00:00 | 00:00:00 | |
| DO7DH-14 | 2026-09-05 12:31:28 | 47.97171 | 12.88948 | 343° | 58km/h | 23623m | -13.7m/s | 0°C | 0% | 0hPa | 2.7V | 00:00:00 | 02:02:00 | 00:00:00 | |
| OE5DRO-10 | 2026-09-05 12:31:26 | 47.97149 | 12.88946 | 26° | 47km/h | 23651m | -15.3m/s | -51.4°C | 3.5% | 32.9hPa | 2.7V | 00:00:00 | 00:00:00 | 00:00:00 | |
| OE5WHR-10 | 2026-09-05 12:31:18 | 47.97181 | 12.88898 | 225° | 46km/h | 23767m | -13.6m/s | -51.4°C | 3.7% | 32.3hPa | 2.6V | 00:00:00 | 02:01:50 | 00:00:00 | |
| DG1MFX-10 | 2026-09-05 12:31:15 | 47.97192 | 12.88933 | 263° | 57km/h | 23796m | -14.5m/s | -51.4°C | 1.0% | 32.2hPa | 2.6V | 08:24:00 | 00:00:00 | 00:00:00 | |
| OE5DRO-10 | 2026-09-05 12:31:07 | 47.97132 | 12.88960 | 105° | 42km/h | 23923m | -14.8m/s | -51.7°C | 3.5% | 31.5hPa | 2.6V | 00:00:00 | 00:00:00 | 00:00:00 | |
| OE5HKT-10 | 2026-09-05 12:31:04 | 47.97150 | 12.88941 | 196° | 42km/h | 23968m | -15.4m/s | -51.7°C | 3.7% | 31.3hPa | 2.6V | 00:00:00 | 00:00:00 | 00:00:00 | |
| DF7PN | 2026-09-05 12:31:03 | 47.97088 | 12.88949 | 294° | 38km/h | 24266m | -15.8m/s | 0°C | -1.0% | -1.0hPa | 2.6V | 00:00:00 | 00:00:00 | 00:00:00 | |
| OE5DXL-15 | 2026-09-05 12:31:01 | 47.97166 | 12.88975 | 268° | 40km/h | 24014m | -16.1m/s | -51.6°C | 3.7% | 31.1hPa | 2.6V | 00:00:00 | 00:00:00 | 00:00:00 | |
| OE5WHR-10 | 2026-09-05 12:30:57 | 47.97131 | 12.89036 | 346° | 53km/h | 24071m | -14.7m/s | -52.0°C | 3.8% | 30.8hPa | 2.6V | 08:24:00 | 00:00:00 | 00:00:00 | |
| BAUMI2-15 | 2026-09-05 12:30:56 | 47.97099 | 12.89033 | 19° | 62km/h | 24100m | -15.8m/s | -52.3°C | 3.8% | 30.6hPa | 2.6V | 00:00:00 | 02:01:27 | 00:00:00 | |
| BAUMI2-15 | 2026-09-05 12:30:50 | 47.97065 | 12.88944 | 109° | 33km/h | 24174m | -15.2m/s | -52.1°C | 3.7% | 30.3hPa | 2.6V | 00:00:00 | 02:01:22 | 00:00:00 | |
| OE5DRO-10 | 2026-09-05 12:30:48 | 47.97088 | 12.88927 | 237° | 44km/h | 24237m | -14.3m/s | -52.0°C | 3.8% | 30.0hPa | 2.6V | 00:00:00 | 00:00:00 | 00:00:00 | |
| BAUMI2-15 | 2026-09-05 12:30:45 | 47.97090 | 12.88936 | 271° | 47km/h | 24251m | -14.8m/s | -52.0°C | 3.9% | 30.0hPa | 2.6V | 00:00:00 | 02:01:17 | 00:00:00 | |
| OE5HKT-10 | 2026-09-05 12:30:43 | 47.97082 | 12.88962 | 316° | 57km/h | 24282m | -15.8m/s | -52.1°C | 3.9% | 29.8hPa | 2.7V | 00:00:00 | 02:01:15 | 00:00:00 | |
| BAUMI2-15 | 2026-09-05 12:30:41 | 47.97042 | 12.88978 | 9° | 62km/h | 24325m | -14.6m/s | -51.9°C | 3.8% | 29.6hPa | 2.7V | 00:00:00 | 02:01:12 | 00:00:00 | |
| OE5WHR-10 | 2026-09-05 12:30:36 | 47.96997 | 12.88921 | 76° | 51km/h | 24386m | -14.4m/s | -51.8°C | 3.7% | 29.3hPa | 2.7V | 00:00:00 | 00:00:00 | 00:00:00 | |
| DG1MJG | 2026-09-05 12:30:34 | 47.96998 | 12.88885 | 118° | 44km/h | 24415m | -16.0m/s | -51.8°C | 1.0% | 29.3hPa | 2.7V | 08:24:00 | 00:00:00 | 00:00:00 | |
| BAUMI2-15 | 2026-09-05 12:30:31 | 47.97026 | 12.88881 | 242° | 47km/h | 24477m | -14.8m/s | -51.5°C | 3.8% | 28.9hPa | 2.7V | 08:24:00 | 02:01:02 | 00:00:00 | |
| OE5FHM-15 | 2026-09-05 12:30:30 | 47.97026 | 12.88881 | 242° | 44km/h | 24477m | -14.8m/s | -51.5°C | 3.8% | 28.9hPa | 2.7V | 00:00:00 | 02:01:02 | 00:00:00 | |
| OE5DXL-15 | 2026-09-05 12:30:29 | 47.97029 | 12.88895 | 269° | 51km/h | 24492m | -15.0m/s | -51.5°C | 3.9% | 28.9hPa | 2.6V | 00:00:00 | 00:00:00 | 00:00:00 | |
| BAUMI2-15 | 2026-09-05 12:30:26 | 47.96998 | 12.88947 | 351° | 64km/h | 24552m | -17.1m/s | -51.5°C | 3.8% | 28.6hPa | 2.6V | 00:00:00 | 02:00:57 | 00:00:00 | |
| OE5DRO-10 | 2026-09-05 12:30:20 | 47.96942 | 12.88859 | 102° | 58km/h | 24644m | -15.6m/s | -51.2°C | 3.7% | 28.2hPa | 2.6V | 00:00:00 | 00:00:00 | 00:00:00 | |
| OE5WHR-10 | 2026-09-05 12:30:16 | 47.96974 | 12.88814 | 190° | 49km/h | 24708m | -15.5m/s | -50.7°C | 3.6% | 27.9hPa | 2.6V | 00:00:00 | 02:00:47 | 00:00:00 | |
| BAUMI2-15 | 2026-09-05 12:30:14 | 47.96981 | 12.88818 | 218° | 33km/h | 24724m | -15.4m/s | -50.8°C | 3.7% | 27.9hPa | 2.6V | 00:00:00 | 02:00:46 | 00:00:00 | |
| DG1MFX-10 | 2026-09-05 12:30:13 | 47.96981 | 12.88818 | 219° | 27km/h | 24724m | -15.5m/s | -50.8°C | 1.0% | 27.9hPa | 2.7V | 08:24:00 | 00:00:00 | 00:00:00 | |
| BAUMI2-15 | 2026-09-05 12:30:10 | 47.96959 | 12.88852 | 10° | 58km/h | 24800m | -15.3m/s | -50.9°C | 3.8% | 27.5hPa | 2.7V | 00:00:00 | 02:00:41 | 00:00:00 | |
| BAUMI2-15 | 2026-09-05 12:30:05 | 47.96922 | 12.88768 | 103° | 60km/h | 24881m | -16.8m/s | -50.0°C | 3.4% | 27.2hPa | 2.7V | 00:00:00 | 02:00:36 | 00:00:00 | |
| BAUMI2-15 | 2026-09-05 12:30:00 | 47.96975 | 12.88722 | 205° | 51km/h | 24966m | -16.2m/s | -50.1°C | 3.5% | 26.8hPa | 2.7V | 00:00:00 | 02:00:31 | 00:00:00 | |
| OE5DXL-15 | 2026-09-05 12:29:59 | 47.96975 | 12.88722 | 205° | 46km/h | 24966m | -16.2m/s | -50.1°C | 3.5% | 26.8hPa | 2.7V | 08:25:00 | 00:00:00 | 00:00:00 | |
| OE5HKT-10 | 2026-09-05 12:29:58 | 47.96986 | 12.88733 | 226° | 49km/h | 24982m | -15.4m/s | -50.0°C | 3.5% | 26.7hPa | 2.7V | 08:25:00 | 00:00:00 | 00:00:00 | |
| OE5WHR-10 | 2026-09-05 12:29:54 | 47.96985 | 12.88797 | 324° | 53km/h | 25041m | -15.0m/s | -49.6°C | 3.4% | 26.5hPa | 2.7V | 00:00:00 | 00:00:00 | 00:00:00 | |
| DG1MFX-10 | 2026-09-05 12:29:53 | 47.96985 | 12.88797 | 324° | 47km/h | 25041m | -15.1m/s | -49.7°C | 0.9% | 26.6hPa | 2.6V | 08:25:00 | 00:00:00 | 00:00:00 | |
| BAUMI2-15 | 2026-09-05 12:29:49 | 47.96931 | 12.88770 | 67° | 49km/h | 25118m | -17.4m/s | -49.5°C | 3.2% | 26.2hPa | 2.6V | 00:00:00 | 02:00:21 | 00:00:00 | |
| OE5DRO-10 | 2026-09-05 12:29:48 | 47.96928 | 12.88750 | 89° | 33km/h | 25135m | -18.3m/s | -49.5°C | 3.2% | 26.1hPa | 2.6V | 00:00:00 | 00:00:00 | 00:00:00 | |
| BAUMI2-15 | 2026-09-05 12:29:44 | 47.96954 | 12.88704 | 190° | 46km/h | 25204m | -15.4m/s | -49.6°C | 3.4% | 25.8hPa | 2.6V | 08:25:00 | 02:00:16 | 00:00:00 | |
| OE5FHM-15 | 2026-09-05 12:29:42 | 47.96968 | 12.88723 | 248° | 42km/h | 25235m | -15.1m/s | -49.6°C | 3.4% | 25.8hPa | 2.7V | 00:00:00 | 02:00:14 | 00:00:00 | |
| BAUMI2-15 | 2026-09-05 12:29:40 | 47.96958 | 12.88774 | 315° | 62km/h | 25282m | -16.0m/s | -49.7°C | 3.5% | 25.5hPa | 2.7V | 00:00:00 | 02:00:11 | 00:00:00 | |
| BAUMI2-15 | 2026-09-05 12:29:34 | 47.96887 | 12.88771 | 46° | 57km/h | 25358m | -15.9m/s | -49.8°C | 3.4% | 25.2hPa | 2.7V | 00:00:00 | 02:00:06 | 00:00:00 | |
| OE5WHR-10 | 2026-09-05 12:29:33 | 47.96878 | 12.88751 | 67° | 53km/h | 25374m | -17.1m/s | -49.8°C | 3.3% | 25.2hPa | 2.7V | 00:00:00 | 00:00:00 | 00:00:00 | |
| DG1MJG | 2026-09-05 12:29:32 | 47.96878 | 12.88751 | 67° | 60km/h | 25374m | -17.1m/s | -49.8°C | 0.9% | 25.2hPa | 2.7V | 08:25:00 | 00:00:00 | 00:00:00 | |
| BAUMI2-15 | 2026-09-05 12:29:29 | 47.96886 | 12.88681 | 144° | 35km/h | 25443m | -17.9m/s | -49.6°C | 3.4% | 24.9hPa | 2.7V | 00:00:00 | 02:00:01 | 00:00:00 | |
| OE5HKT-10 | 2026-09-05 12:29:28 | 47.96893 | 12.88677 | 178° | 37km/h | 25460m | -17.2m/s | -49.7°C | 3.5% | 24.8hPa | 2.6V | 00:00:00 | 00:00:00 | 00:00:00 | |
| OE5DXL-15 | 2026-09-05 12:29:27 | 47.96900 | 12.88680 | 217° | 49km/h | 25477m | -16.7m/s | -49.7°C | 3.5% | 24.8hPa | 2.6V | 00:00:00 | 00:00:00 | 00:00:00 | |
| BAUMI2-15 | 2026-09-05 12:29:24 | 47.96899 | 12.88717 | 311° | 62km/h | 25528m | -16.7m/s | -50.0°C | 3.7% | 24.6hPa | 2.6V | 00:00:00 | 01:59:56 | 00:00:00 | |
| BAUMI2-15 | 2026-09-05 12:29:19 | 47.96825 | 12.88720 | 40° | 64km/h | 25606m | -17.0m/s | -49.6°C | 3.5% | 24.3hPa | 2.6V | 00:00:00 | 01:59:51 | 00:00:00 | |
| BAUMI2-15 | 2026-09-05 12:29:14 | 47.96808 | 12.88619 | 122° | 35km/h | 25693m | -18.0m/s | -49.0°C | 3.4% | 24.0hPa | 2.6V | 00:00:00 | 01:59:46 | 00:00:00 | |
| OE5WHR-10 | 2026-09-05 12:29:12 | 47.96821 | 12.88607 | 186° | 53km/h | 25728m | -15.8m/s | -48.7°C | 3.4% | 23.9hPa | 2.6V | 00:00:00 | 01:59:44 | 00:00:00 | |
| OE5FHM-15 | 2026-09-05 12:29:10 | 47.96829 | 12.88621 | 269° | 37km/h | 25761m | -15.7m/s | -48.6°C | 3.4% | 23.7hPa | 2.6V | 00:00:00 | 01:59:42 | 00:00:00 | |
| BAUMI2-15 | 2026-09-05 12:29:08 | 47.96819 | 12.88644 | 325° | 66km/h | 25793m | -16.6m/s | -48.5°C | 3.4% | 23.6hPa | 2.6V | 00:00:00 | 01:59:40 | 00:00:00 | |
| BAUMI2-15 | 2026-09-05 12:29:03 | 47.96743 | 12.88617 | 54° | 55km/h | 25876m | -17.3m/s | -48.6°C | 3.3% | 23.3hPa | 2.6V | 00:00:00 | 01:59:35 | 00:00:00 | |
| DG1MJG | 2026-09-05 12:29:02 | 47.96742 | 12.88617 | 54° | 78km/h | 25876m | -17.4m/s | -48.7°C | 0.8% | 23.3hPa | 2.6V | 08:26:00 | 00:00:00 | 00:00:00 | |
| OE5DXL-15 | 2026-09-05 12:28:56 | 47.96766 | 12.88464 | 174° | 53km/h | 26001m | -16.9m/s | -47.6°C | 3.1% | 22.9hPa | 2.6V | 00:00:00 | 00:00:00 | 00:00:00 | |
| OE5HKT-10 | 2026-09-05 12:28:52 | 47.96783 | 12.88489 | 315° | 44km/h | 26066m | -15.8m/s | -47.7°C | 3.2% | 22.6hPa | 2.6V | 00:00:00 | 01:59:24 | 00:00:00 | |
| OE5WHR-10 | 2026-09-05 12:28:51 | 47.96776 | 12.88495 | 346° | 55km/h | 26082m | -16.3m/s | -47.8°C | 3.2% | 22.6hPa | 2.6V | 00:00:00 | 00:00:00 | 00:00:00 | |
| OE5FHM-15 | 2026-09-05 12:28:39 | 47.96786 | 12.88355 | 222° | 49km/h | 26296m | -17.5m/s | -47.8°C | 3.2% | 21.9hPa | 2.6V | 00:00:00 | 01:59:11 | 00:00:00 | |
| DG1MFX-10 | 2026-09-05 12:28:33 | 47.96765 | 12.88423 | 11° | 46km/h | 26399m | -17.2m/s | -48.0°C | 0.8% | 21.6hPa | 2.7V | 08:26:00 | 00:00:00 | 00:00:00 | |
| DG1MJG | 2026-09-05 12:28:32 | 47.96765 | 12.88423 | 11° | 46km/h | 26399m | -17.2m/s | -48.0°C | 0.8% | 21.6hPa | 2.7V | 08:26:00 | 00:00:00 | 00:00:00 | |
| OE5WHR-10 | 2026-09-05 12:28:30 | 47.96740 | 12.88384 | 79° | 53km/h | 26450m | -16.9m/s | -48.0°C | 3.1% | 21.3hPa | 2.7V | 00:00:00 | 00:00:00 | 00:00:00 | |
| OE5DXL-15 | 2026-09-05 12:28:24 | 47.96796 | 12.88311 | 199° | 53km/h | 26557m | -17.4m/s | -47.8°C | 3.1% | 21.0hPa | 2.7V | 00:00:00 | 00:00:00 | 00:00:00 | |
| OM5KV | 2026-09-05 12:28:19 | 47.96807 | 12.88382 | 324° | 47km/h | 26641m | -17.3m/s | 0°C | 0% | 0hPa | 2.6V | 00:00:00 | 00:00:00 | 00:00:00 | |
| DG1MFX-10 | 2026-09-05 12:28:11 | 47.96759 | 12.88317 | 118° | 49km/h | 26758m | -19.0m/s | -47.7°C | 0.8% | 20.4hPa | 2.6V | 08:27:00 | 00:00:00 | 00:00:00 | |
| OE5WHR-10 | 2026-09-05 12:28:09 | 47.96787 | 12.88293 | 191° | 55km/h | 26814m | -20.1m/s | -47.6°C | 3.0% | 20.1hPa | 2.6V | 00:00:00 | 01:58:41 | 00:00:00 | |
| OE5HKT-10 | 2026-09-05 12:28:08 | 47.96796 | 12.88299 | 217° | 53km/h | 26834m | -19.1m/s | -47.6°C | 3.1% | 20.1hPa | 2.6V | 00:00:00 | 00:00:00 | 00:00:00 | |
| DG1MJG | 2026-09-05 12:28:01 | 47.96770 | 12.88377 | 3° | 58km/h | 26944m | -19.6m/s | -47.8°C | 0.8% | 19.8hPa | 2.7V | 08:27:00 | 00:00:00 | 00:00:00 | |
| OE5DXL-15 | 2026-09-05 12:27:52 | 47.96796 | 12.88269 | 212° | 55km/h | 27126m | -18.3m/s | -48.0°C | 3.2% | 19.2hPa | 2.7V | 00:00:00 | 00:00:00 | 00:00:00 | |
| DG1MFX-10 | 2026-09-05 12:27:50 | 47.96806 | 12.88282 | 234° | 49km/h | 27143m | -18.6m/s | -48.0°C | 0.8% | 19.2hPa | 2.7V | 08:27:00 | 00:00:00 | 00:00:00 | |
| OE5WHR-10 | 2026-09-05 12:27:48 | 47.96810 | 12.88329 | 303° | 57km/h | 27197m | -18.9m/s | -48.0°C | 3.3% | 19.0hPa | 2.7V | 08:27:00 | 00:00:00 | 00:00:00 | |
| DG1MJG | 2026-09-05 12:27:31 | 47.96839 | 12.88336 | 318° | 62km/h | 27510m | -18.0m/s | -48.0°C | 0.8% | 18.2hPa | 2.7V | 00:00:00 | 00:00:00 | 00:00:00 | |
| OM5KV | 2026-09-05 12:27:30 | 47.96808 | 12.88353 | 360° | 71km/h | 27546m | -18.3m/s | 0°C | 0% | 0hPa | 2.7V | 00:00:00 | 00:00:00 | 00:00:00 | |
| OE5WHR-10 | 2026-09-05 12:27:27 | 47.96761 | 12.88318 | 55° | 51km/h | 27603m | -19.3m/s | -48.2°C | 3.2% | 17.8hPa | 2.7V | 00:00:00 | 00:00:00 | 00:00:00 | |
| OM5KV | 2026-09-05 12:27:25 | 47.96751 | 12.88274 | 90° | 57km/h | 27641m | -18.9m/s | 0°C | 0% | 0hPa | 2.7V | 00:00:00 | 00:00:00 | 00:00:00 | |
| OE5FHM-15 | 2026-09-05 12:27:23 | 47.96758 | 12.88241 | 133° | 53km/h | 27679m | -19.0m/s | -48.2°C | 3.1% | 17.7hPa | 2.7V | 00:00:00 | 01:57:55 | 00:00:00 | |
| OE5DXL-15 | 2026-09-05 12:27:20 | 47.96775 | 12.88241 | 241° | 33km/h | 27736m | -19.2m/s | -48.0°C | 3.2% | 17.5hPa | 2.7V | 00:00:00 | 00:00:00 | 00:00:00 | |
| DG1MFX-10 | 2026-09-05 12:27:10 | 47.96685 | 12.88256 | 71° | 64km/h | 27922m | -20.1m/s | -48.4°C | 0.9% | 17.1hPa | 2.7V | 08:28:00 | 00:00:00 | 00:00:00 | |
| OE5WHR-10 | 2026-09-05 12:27:06 | 47.96683 | 12.88172 | 112° | 42km/h | 28008m | -21.9m/s | -48.1°C | 3.3% | 16.8hPa | 2.7V | 00:00:00 | 01:57:38 | 00:00:00 | |
| DG1MJG | 2026-09-05 12:27:00 | 47.96710 | 12.88139 | 218° | 16km/h | 28104m | -20.7m/s | -48.0°C | 0.8% | 16.6hPa | 2.7V | 00:00:00 | 00:00:00 | 00:00:00 | |
| BAUMI2-15 | 2026-09-05 12:26:54 | 47.96679 | 12.88153 | 22° | 57km/h | 28242m | -20.3m/s | -47.4°C | 3.3% | 16.2hPa | 2.7V | 08:28:00 | 01:57:26 | 00:00:00 | |
| BAUMI2-15 | 2026-09-05 12:26:49 | 47.96636 | 12.88068 | 77° | 69km/h | 28339m | -20.6m/s | -47.3°C | 3.3% | 16.0hPa | 2.6V | 00:00:00 | 01:57:21 | 00:00:00 | |
| OE5WHR-10 | 2026-09-05 12:26:45 | 47.96645 | 12.87966 | 118° | 46km/h | 28420m | -20.0m/s | -46.9°C | 3.3% | 15.7hPa | 2.6V | 00:00:00 | 00:00:00 | 00:00:00 | |
| BAUMI2-15 | 2026-09-05 12:26:44 | 47.96654 | 12.87944 | 129° | 55km/h | 28440m | -20.1m/s | -46.8°C | 3.2% | 15.7hPa | 2.7V | 00:00:00 | 01:57:16 | 00:00:00 | |
| OE5FHM-15 | 2026-09-05 12:26:41 | 47.96690 | 12.87902 | 163° | 58km/h | 28497m | -18.3m/s | -46.3°C | 3.1% | 15.6hPa | 2.7V | 00:00:00 | 01:57:13 | 08:30:00 | |
| BAUMI2-15 | 2026-09-05 12:26:38 | 47.96724 | 12.87899 | 202° | 26km/h | 28555m | -19.1m/s | -45.8°C | 3.0% | 15.4hPa | 2.6V | 00:00:00 | 01:57:10 | 00:00:00 | |
| BAUMI2-15 | 2026-09-05 12:26:33 | 47.96732 | 12.87926 | 349° | 37km/h | 28655m | -20.2m/s | -45.2°C | 3.0% | 15.2hPa | 2.7V | 00:00:00 | 01:57:05 | 00:00:00 | |
| DG1MFX-10 | 2026-09-05 12:26:29 | 47.96713 | 12.87905 | 60° | 46km/h | 28717m | -22.6m/s | -44.9°C | 0.8% | 15.1hPa | 2.7V | 08:29:00 | 00:00:00 | 00:00:00 | |
| BAUMI2-15 | 2026-09-05 12:26:28 | 47.96706 | 12.87869 | 82° | 62km/h | 28759m | -20.9m/s | -44.9°C | 2.9% | 14.9hPa | 2.7V | 00:00:00 | 01:57:00 | 00:00:00 | |
| OE5WHR-10 | 2026-09-05 12:26:24 | 47.96726 | 12.87781 | 132° | 55km/h | 28842m | -21.2m/s | -44.9°C | 2.9% | 14.8hPa | 2.7V | 00:00:00 | 00:00:00 | 00:00:00 | |
| BAUMI2-15 | 2026-09-05 12:26:23 | 47.96737 | 12.87766 | 146° | 55km/h | 28863m | -22.4m/s | -44.9°C | 2.9% | 14.7hPa | 2.7V | 00:00:00 | 01:56:55 | 00:00:00 | |
| OE5HKT-10 | 2026-09-05 12:26:22 | 47.96750 | 12.87757 | 168° | 57km/h | 28886m | -23.2m/s | -44.8°C | 2.9% | 14.7hPa | 2.6V | 00:00:00 | 00:00:00 | 00:00:00 | |
| BAUMI2-15 | 2026-09-05 12:26:18 | 47.96797 | 12.87777 | 233° | 46km/h | 28969m | -18.7m/s | -44.2°C | 2.8% | 14.5hPa | 2.6V | 00:00:00 | 01:56:50 | 00:00:00 | |
| BAUMI2-15 | 2026-09-05 12:26:13 | 47.96787 | 12.87844 | 348° | 55km/h | 29073m | -22.5m/s | -43.5°C | 2.7% | 14.2hPa | 2.6V | 00:00:00 | 01:56:45 | 00:00:00 | |
| DG1MFX-10 | 2026-09-05 12:26:09 | 47.96755 | 12.87819 | 59° | 62km/h | 29139m | -23.4m/s | -43.5°C | 0.7% | 14.2hPa | 2.6V | 08:29:00 | 00:00:00 | 00:00:00 | |
| OE5FHM-15 | 2026-09-05 12:26:04 | 47.96772 | 12.87687 | 153° | 66km/h | 29277m | -23.7m/s | -43.4°C | 2.6% | 13.8hPa | 2.6V | 00:00:00 | 01:56:36 | 00:00:00 | |
| OE5WHR-10 | 2026-09-05 12:26:03 | 47.96786 | 12.87680 | 173° | 60km/h | 29301m | -22.6m/s | -43.4°C | 2.6% | 13.7hPa | 2.6V | 00:00:00 | 01:56:35 | 00:00:00 | |
| DF7PN | 2026-09-05 12:25:52 | 47.96780 | 12.87621 | 119° | 75km/h | 29626m | -21.1m/s | 0°C | -1.0% | -1.0hPa | 2.6V | 00:00:00 | 00:00:00 | 00:00:00 | |
| DG1MFX-10 | 2026-09-05 12:25:50 | 47.96771 | 12.87702 | 81° | 73km/h | 29566m | -19.8m/s | -43.0°C | 0.7% | 13.2hPa | 2.6V | 00:00:00 | 00:00:00 | 00:00:00 | |
| BAUMI2-15 | 2026-09-05 12:25:48 | 47.96773 | 12.87647 | 106° | 71km/h | 29605m | -20.6m/s | -42.8°C | 2.5% | 13.1hPa | 2.6V | 00:00:00 | 01:56:20 | 00:00:00 | |
| BAUMI2-15 | 2026-09-05 12:25:43 | 47.96833 | 12.87566 | 181° | 47km/h | 29709m | -19.6m/s | -43.0°C | 2.5% | 12.9hPa | 2.6V | 00:00:00 | 01:56:15 | 00:00:00 | |
| OE5WHR-10 | 2026-09-05 12:25:42 | 47.96847 | 12.87569 | 199° | 55km/h | 29729m | -19.2m/s | -43.0°C | 2.6% | 12.9hPa | 2.6V | 00:00:00 | 00:00:00 | 00:00:00 | |
| BAUMI2-15 | 2026-09-05 12:25:38 | 47.96869 | 12.87615 | 286° | 47km/h | 29805m | -20.1m/s | -42.9°C | 2.6% | 12.7hPa | 2.6V | 00:00:00 | 01:56:10 | 00:00:00 | |
| BAUMI2-15 | 2026-09-05 12:25:33 | 47.96818 | 12.87640 | 23° | 60km/h | 29905m | -21.5m/s | -42.8°C | 2.6% | 12.6hPa | 2.7V | 00:00:00 | 01:56:05 | 00:00:00 | |
| BAUMI2-15 | 2026-09-05 12:25:28 | 47.96779 | 12.87553 | 93° | 64km/h | 30008m | -21.2m/s | -42.7°C | 2.5% | 12.4hPa | 2.7V | 00:00:00 | 01:56:00 | 00:00:00 | |
| OE5FHM-15 | 2026-09-05 12:25:23 | 47.96822 | 12.87461 | 156° | 55km/h | 30108m | -19.7m/s | -42.7°C | 2.5% | 12.2hPa | 2.7V | 00:00:00 | 01:55:55 | 00:00:00 | |
| OE5WHR-10 | 2026-09-05 12:25:21 | 47.96850 | 12.87456 | 190° | 53km/h | 30148m | -20.0m/s | -42.7°C | 2.4% | 12.1hPa | 2.7V | 00:00:00 | 00:00:00 | 00:00:00 | |
| PG1ADW-2 | 2026-09-05 12:25:20 | 47.96862 | 12.87461 | 200° | 60km/h | 30168m | -20.4m/s | -42.7°C | 2.5% | 12.1hPa | 2.7V | 00:00:00 | 00:00:00 | 08:30:00 | |
| OE5HKT-10 | 2026-09-05 12:25:19 | 47.96873 | 12.87470 | 214° | 53km/h | 30189m | -20.0m/s | -42.7°C | 2.5% | 12.0hPa | 2.6V | 00:00:00 | 00:00:00 | 00:00:00 | |
| OE5DXL-15 | 2026-09-05 12:25:18 | 47.96883 | 12.87482 | 231° | 37km/h | 30208m | -18.8m/s | -42.7°C | 2.5% | 12.0hPa | 2.6V | 00:00:00 | 00:00:00 | 08:30:00 | |
| BAUMI2-15 | 2026-09-05 12:25:13 | 47.96880 | 12.87551 | 320° | 55km/h | 30299m | -17.2m/s | -42.8°C | 2.5% | 11.8hPa | 2.7V | 00:00:00 | 01:55:45 | 00:00:00 | |
| BAUMI2-15 | 2026-09-05 12:25:08 | 47.96811 | 12.87569 | 10° | 64km/h | 30386m | -18.3m/s | -43.2°C | 2.6% | 11.6hPa | 2.7V | 00:00:00 | 01:55:40 | 00:00:00 | |
| DG1MFX-10 | 2026-09-05 12:25:07 | 47.96811 | 12.87569 | 10° | 69km/h | 30386m | -18.3m/s | -43.3°C | 0.7% | 11.7hPa | 2.6V | 00:00:00 | 00:00:00 | 00:00:00 | |
| BAUMI2-15 | 2026-09-05 12:25:03 | 47.96738 | 12.87523 | 44° | 35km/h | 30475m | -16.5m/s | -43.3°C | 2.6% | 11.5hPa | 2.6V | 00:00:00 | 01:55:35 | 00:00:00 | |
| OE5WHR-10 | 2026-09-05 12:25:00 | 47.96717 | 12.87475 | 74° | 51km/h | 30523m | -16.1m/s | -43.4°C | 2.6% | 11.4hPa | 2.6V | 00:00:00 | 01:55:32 | 00:00:00 | |
| OE5HKT-10 | 2026-09-05 12:24:58 | 47.96711 | 12.87434 | 83° | 51km/h | 30558m | -17.9m/s | -43.4°C | 2.6% | 11.4hPa | 2.6V | 00:00:00 | 01:55:30 | 00:00:00 | |
| PG1ADW-2 | 2026-09-05 12:24:51 | 47.96692 | 12.87275 | 63° | 38km/h | 30697m | -16.9m/s | -43.5°C | 2.6% | 11.1hPa | 2.6V | 00:00:00 | 01:55:23 | 00:00:00 | |
| DG1MFX-10 | 2026-09-05 12:24:46 | 47.96653 | 12.87238 | 25° | 58km/h | 30795m | -37.3m/s | -43.3°C | 0.7% | 11.1hPa | 2.6V | 00:00:00 | 00:00:00 | 00:00:00 | |
| OE5FHM-15 | 2026-09-05 12:24:45 | 47.96630 | 12.87217 | 39° | 33km/h | 30871m | -36.8m/s | -43.4°C | 2.7% | 10.8hPa | 2.6V | 00:00:00 | 01:55:17 | 00:00:00 | |
| OE5WHR-10 | 2026-09-05 12:24:39 | 47.96606 | 12.87143 | 74° | 37km/h | 30998m | 2.4m/s | -43.6°C | 2.9% | 10.6hPa | 2.7V | 00:00:00 | 00:00:00 | 08:30:00 | |
| OE5HKT-10 | 2026-09-05 12:24:37 | 47.96600 | 12.87113 | 78° | 37km/h | 30988m | 6.3m/s | -43.6°C | 2.9% | 10.6hPa | 2.6V | 00:00:00 | 00:00:00 | 08:30:00 | |
| OE8JPQ-2 | 2026-09-05 12:24:32 | 47.96573 | 12.87046 | 34° | 33km/h | 30958m | 6.0m/s | -43.5°C | 2.9% | 10.7hPa | 2.6V | 00:00:00 | 01:55:04 | 00:00:00 | |
| IN3HCDX | 2026-09-05 12:24:29 | 47.96550 | 12.87027 | 33° | 26km/h | 30941m | 6.6m/s | -43.4°C | 0.7% | 10.8hPa | 2.6V | 00:00:00 | 00:00:00 | 00:00:00 | |
| DG1MFX-10 | 2026-09-05 12:24:26 | 47.96543 | 12.87015 | 70° | 20km/h | 30929m | 5.0m/s | -43.3°C | 0.7% | 10.8hPa | 2.6V | 00:00:00 | 00:00:00 | 00:00:00 | |
| OE5WHR-10 | 2026-09-05 12:24:18 | 47.96505 | 12.86913 | 46° | 31km/h | 30875m | 4.9m/s | -43.3°C | 2.8% | 10.8hPa | 2.6V | 00:00:00 | 00:00:00 | 00:00:00 | |
| OE5HKT-10 | 2026-09-05 12:24:16 | 47.96491 | 12.86898 | 29° | 29km/h | 30863m | 7.2m/s | -43.1°C | 2.8% | 10.8hPa | 2.6V | 00:00:00 | 00:00:00 | 00:00:00 | |
| OE5FHM-15 | 2026-09-05 12:24:15 | 47.96484 | 12.86893 | 24° | 27km/h | 30857m | 5.7m/s | -43.1°C | 2.7% | 10.8hPa | 2.6V | 00:00:00 | 01:54:47 | 00:00:00 | |
| OE8JPQ-2 | 2026-09-05 12:24:12 | 47.96467 | 12.86877 | 52° | 29km/h | 30839m | 6.9m/s | -43.2°C | 2.8% | 10.9hPa | 2.6V | 00:00:00 | 00:00:00 | 00:00:00 | |
| PG1ADW-2 | 2026-09-05 12:24:07 | 47.96453 | 12.86825 | 60° | 31km/h | 30809m | 6.0m/s | -43.4°C | 2.8% | 10.9hPa | 2.6V | 00:00:00 | 00:00:00 | 00:00:00 | |
| DG1MFX-10 | 2026-09-05 12:24:06 | 47.96448 | 12.86812 | 54° | 40km/h | 30803m | 5.2m/s | -43.4°C | 0.7% | 11.0hPa | 2.6V | 00:00:00 | 00:00:00 | 00:00:00 | |
| OE5DXL-15 | 2026-09-05 12:24:01 | 47.96413 | 12.86766 | 14° | 27km/h | 30767m | 7.3m/s | -43.3°C | 2.8% | 11.0hPa | 2.6V | 00:00:00 | 00:00:00 | 00:00:00 | |
| OE5WHR-10 | 2026-09-05 12:23:57 | 47.96397 | 12.86762 | 21° | 27km/h | 30750m | 5.0m/s | -43.2°C | 2.8% | 11.0hPa | 2.6V | 00:00:00 | 01:54:29 | 00:00:00 | |
| OE5HKT-10 | 2026-09-05 12:23:55 | 47.96390 | 12.86753 | 62° | 29km/h | 30737m | 6.6m/s | -43.4°C | 2.8% | 11.0hPa | 2.6V | 00:00:00 | 01:54:27 | 00:00:00 | |
| OE8JPQ-2 | 2026-09-05 12:23:51 | 47.96373 | 12.86708 | 49° | 27km/h | 30712m | 5.7m/s | -43.3°C | 2.8% | 11.1hPa | 2.6V | 00:00:00 | 00:00:00 | 00:00:00 | |
| PG1ADW-2 | 2026-09-05 12:23:47 | 47.96344 | 12.86677 | 21° | 24km/h | 30689m | 6.7m/s | -43.2°C | 2.8% | 11.1hPa | 2.6V | 00:00:00 | 00:00:00 | 00:00:00 | |
| DG1MFX-10 | 2026-09-05 12:23:46 | 47.96338 | 12.86675 | 7° | 22km/h | 30682m | 6.6m/s | -43.3°C | 0.7% | 11.2hPa | 2.6V | 00:00:00 | 00:00:00 | 00:00:00 | |
| IN3HCDX | 2026-09-05 12:23:45 | 47.96333 | 12.86675 | 355° | 20km/h | 30675m | 6.4m/s | -43.2°C | 0.7% | 11.2hPa | 2.6V | 00:00:00 | 00:00:00 | 00:00:00 | |
| OE5WHR-10 | 2026-09-05 12:23:36 | 47.96290 | 12.86640 | 40° | 24km/h | 30620m | 5.5m/s | -43.4°C | 2.8% | 11.2hPa | 2.6V | 00:00:00 | 00:00:00 | 00:00:00 | |
| OE5HKT-10 | 2026-09-05 12:23:34 | 47.96276 | 12.86626 | 26° | 20km/h | 30609m | 5.7m/s | -43.3°C | 2.8% | 11.3hPa | 2.7V | 00:00:00 | 00:00:00 | 00:00:00 | |
| OE5DXL-15 | 2026-09-05 12:23:31 | 47.96255 | 12.86632 | 321° | 24km/h | 30577m | 6.4m/s | -42.9°C | 2.7% | 11.3hPa | 2.7V | 00:00:00 | 00:00:00 | 00:00:00 | |
| PG1ADW-2 | 2026-09-05 12:23:27 | 47.96246 | 12.86637 | 358° | 22km/h | 30566m | 4.5m/s | -42.9°C | 2.7% | 11.3hPa | 2.7V | 00:00:00 | 01:53:59 | 00:00:00 | |
| DG1MFX-10 | 2026-09-05 12:23:25 | 47.96242 | 12.86636 | 27° | 18km/h | 30561m | 5.6m/s | -43.1°C | 0.8% | 11.4hPa | 2.7V | 00:00:00 | 00:00:00 | 00:00:00 | |
| IN3HCDX | 2026-09-05 12:23:24 | 47.96234 | 12.86624 | 65° | 27km/h | 30547m | 6.8m/s | -43.2°C | 0.7% | 11.4hPa | 2.7V | 00:00:00 | 00:00:00 | 00:00:00 | |
| OE5FHM-15 | 2026-09-05 12:23:15 | 47.96199 | 12.86578 | 306° | 18km/h | 30492m | 5.5m/s | -43.0°C | 2.8% | 11.5hPa | 2.7V | 00:00:00 | 01:53:47 | 00:00:00 | |
| OE5HKT-10 | 2026-09-05 12:23:13 | 47.96195 | 12.86583 | 343° | 22km/h | 30482m | 5.9m/s | -42.8°C | 2.8% | 11.5hPa | 2.6V | 00:00:00 | 00:00:00 | 00:00:00 | |
| OE8JPQ-2 | 2026-09-05 12:23:11 | 47.96186 | 12.86581 | 26° | 24km/h | 30470m | 5.8m/s | -42.7°C | 2.7% | 11.5hPa | 2.6V | 00:00:00 | 00:00:00 | 08:30:00 | |
| PG1ADW-2 | 2026-09-05 12:23:07 | 47.96166 | 12.86549 | 58° | 18km/h | 30445m | 4.7m/s | -42.8°C | 2.7% | 11.5hPa | 2.6V | 00:00:00 | 00:00:00 | 00:00:00 | |
| DG1MFX-10 | 2026-09-05 12:23:04 | 47.96158 | 12.86534 | 36° | 22km/h | 30435m | 6.4m/s | -43.1°C | 0.7% | 11.6hPa | 2.6V | 00:00:00 | 00:00:00 | 00:00:00 | |
| IN3HCDX | 2026-09-05 12:23:02 | 47.96149 | 12.86533 | 337° | 18km/h | 30423m | 5.6m/s | -43.1°C | 0.7% | 11.6hPa | 2.6V | 00:00:00 | 00:00:00 | 00:00:00 | |
| DG1MJG | 2026-09-05 12:23:00 | 47.96139 | 12.86549 | 294° | 16km/h | 30404m | 6.2m/s | -43.0°C | 0.7% | 11.7hPa | 2.6V | 00:00:00 | 00:00:00 | 00:00:00 | |
| OE5WHR-10 | 2026-09-05 12:22:54 | 47.96120 | 12.86544 | 31° | 18km/h | 30370m | 5.3m/s | -42.8°C | 2.7% | 11.7hPa | 2.6V | 00:00:00 | 01:53:26 | 00:00:00 | |
| OE5HKT-10 | 2026-09-05 12:22:52 | 47.96108 | 12.86533 | 36° | 15km/h | 30361m | 4.2m/s | -42.8°C | 2.7% | 11.7hPa | 2.6V | 00:00:00 | 01:53:24 | 00:00:00 | |
| OE8JPQ-2 | 2026-09-05 12:22:51 | 47.96104 | 12.86528 | 46° | 18km/h | 30355m | 5.8m/s | -42.8°C | 2.8% | 11.7hPa | 2.6V | 00:00:00 | 00:00:00 | 00:00:00 | |
| BAUMI2-15 | 2026-09-05 12:22:49 | 47.96102 | 12.86520 | 131° | 11km/h | 30342m | 6.6m/s | -42.6°C | 2.7% | 11.7hPa | 2.6V | 00:00:00 | 01:53:21 | 00:00:00 | |
| PG1ADW-2 | 2026-09-05 12:22:47 | 47.96108 | 12.86517 | 185° | 16km/h | 30331m | 5.4m/s | -42.5°C | 2.7% | 11.7hPa | 2.6V | 00:00:00 | 00:00:00 | 00:00:00 | |
| OE5FHM-15 | 2026-09-05 12:22:45 | 47.96112 | 12.86521 | 258° | 13km/h | 30319m | 5.8m/s | -42.4°C | 2.7% | 11.8hPa | 2.6V | 00:00:00 | 01:53:17 | 00:00:00 | |
| BAUMI2-15 | 2026-09-05 12:22:44 | 47.96111 | 12.86524 | 300° | 15km/h | 30313m | 5.3m/s | -42.4°C | 2.7% | 11.8hPa | 2.6V | 00:00:00 | 01:53:16 | 00:00:00 | |
| IN3HCDX | 2026-09-05 12:22:42 | 47.96106 | 12.86528 | 360° | 13km/h | 30302m | 6.2m/s | -42.5°C | 0.7% | 11.9hPa | 2.6V | 00:00:00 | 00:00:00 | 00:00:00 | |
| BAUMI2-15 | 2026-09-05 12:22:39 | 47.96097 | 12.86515 | 60° | 27km/h | 30283m | 5.5m/s | -42.3°C | 2.6% | 11.8hPa | 2.6V | 00:00:00 | 01:53:11 | 00:00:00 | |
| OE5DXL-15 | 2026-09-05 12:22:35 | 47.96084 | 12.86471 | 92° | 11km/h | 30255m | 6.5m/s | -42.4°C | 2.7% | 11.9hPa | 2.6V | 00:00:00 | 01:53:06 | 00:00:00 | |
| BAUMI2-15 | 2026-09-05 12:22:34 | 47.96084 | 12.86471 | 92° | 13km/h | 30255m | 6.5m/s | -42.4°C | 2.7% | 11.9hPa | 2.6V | 00:00:00 | 01:53:06 | 08:30:00 | |
| OE5WHR-10 | 2026-09-05 12:22:33 | 47.96085 | 12.86464 | 116° | 11km/h | 30248m | 7.0m/s | -42.3°C | 2.7% | 11.9hPa | 2.7V | 00:00:00 | 00:00:00 | 00:00:00 | |
| OE8JPQ-2 | 2026-09-05 12:22:31 | 47.96090 | 12.86458 | 162° | 9km/h | 30236m | 4.9m/s | -42.2°C | 2.6% | 11.9hPa | 2.6V | 00:00:00 | 01:53:03 | 00:00:00 | |
| OE5HKT-10 | 2026-09-05 12:22:29 | 47.96092 | 12.86457 | 356° | 7km/h | 30225m | 6.1m/s | -42.3°C | 2.7% | 11.9hPa | 2.6V | 00:00:00 | 00:00:00 | 00:00:00 | |
| DG1MJG | 2026-09-05 12:22:28 | 47.96092 | 12.86457 | 356° | 2km/h | 30225m | 6.2m/s | -42.3°C | 0.7% | 12.0hPa | 2.6V | 00:00:00 | 00:00:00 | 00:00:00 | |
| PG1ADW-2 | 2026-09-05 12:22:27 | 47.96087 | 12.86455 | 25° | 11km/h | 30214m | 5.1m/s | -42.3°C | 2.6% | 12.0hPa | 2.6V | 00:00:00 | 00:00:00 | 00:00:00 | |
| BAUMI2-15 | 2026-09-05 12:22:24 | 47.96077 | 12.86439 | 72° | 15km/h | 30197m | 5.6m/s | -42.4°C | 2.7% | 12.0hPa | 2.6V | 00:00:00 | 01:52:56 | 00:00:00 | |
| IN3HCDX | 2026-09-05 12:22:20 | 47.96078 | 12.86420 | 109° | 13km/h | 30180m | 6.1m/s | -42.5°C | 0.7% | 12.1hPa | 2.6V | 00:00:00 | 00:00:00 | 00:00:00 | |
| BAUMI2-15 | 2026-09-05 12:22:19 | 47.96080 | 12.86415 | 142° | 4km/h | 30168m | 5.9m/s | -42.3°C | 2.6% | 12.1hPa | 2.6V | 00:00:00 | 01:52:51 | 00:00:00 | |
| DF7PN | 2026-09-05 12:22:15 | 47.96083 | 12.86411 | 26° | 2km/h | 30140m | 5.6m/s | -42.5°C | 0.7% | 12.2hPa | 2.6V | 00:00:00 | 00:00:00 | 00:00:00 | |
| BAUMI2-15 | 2026-09-05 12:22:14 | 47.96083 | 12.86411 | 27° | 7km/h | 30140m | 5.5m/s | -42.4°C | 2.7% | 12.1hPa | 2.6V | 00:00:00 | 01:52:46 | 00:00:00 | |
| OE5WHR-10 | 2026-09-05 12:22:12 | 47.96079 | 12.86411 | 356° | 11km/h | 30127m | 5.8m/s | -42.4°C | 2.7% | 12.1hPa | 2.6V | 00:00:00 | 00:00:00 | 00:00:00 | |
| OE8JPQ-2 | 2026-09-05 12:22:11 | 47.96077 | 12.86411 | 3° | 9km/h | 30122m | 4.6m/s | -42.4°C | 2.7% | 12.1hPa | 2.6V | 00:00:00 | 00:00:00 | 00:00:00 | |
| OE5FHM-15 | 2026-09-05 12:22:09 | 47.96073 | 12.86409 | 81° | 13km/h | 30110m | 6.6m/s | -42.4°C | 2.7% | 12.2hPa | 2.7V | 00:00:00 | 01:52:41 | 00:00:00 | |
| PG1ADW-2 | 2026-09-05 12:22:07 | 47.96076 | 12.86401 | 131° | 11km/h | 30098m | 4.8m/s | -42.5°C | 2.7% | 12.2hPa | 2.7V | 00:00:00 | 01:52:39 | 08:30:00 | |
| OE5HKT-10 | 2026-09-05 12:22:06 | 47.96079 | 12.86397 | 135° | 13km/h | 30093m | 5.9m/s | -42.4°C | 2.7% | 12.2hPa | 2.6V | 00:00:00 | 00:00:00 | 00:00:00 | |
| BAUMI2-15 | 2026-09-05 12:22:04 | 47.96082 | 12.86390 | 121° | 9km/h | 30081m | 5.5m/s | -42.5°C | 2.7% | 12.2hPa | 2.6V | 00:00:00 | 01:52:36 | 00:00:00 | |
| BAUMI2-15 | 2026-09-05 12:22:00 | 47.96079 | 12.86375 | 42° | 9km/h | 30052m | 4.8m/s | -42.5°C | 2.7% | 12.3hPa | 2.6V | 00:00:00 | 01:52:31 | 00:00:00 | |
| DG1MJG | 2026-09-05 12:21:58 | 47.96077 | 12.86372 | 19° | 11km/h | 30046m | 6.3m/s | -42.6°C | 0.6% | 12.3hPa | 2.6V | 00:00:00 | 00:00:00 | 00:00:00 | |
| BAUMI2-15 | 2026-09-05 12:21:54 | 47.96069 | 12.86375 | 173° | 13km/h | 30024m | 6.6m/s | -42.6°C | 2.7% | 12.3hPa | 2.6V | 00:00:00 | 01:52:26 | 00:00:00 | |
| OE5WHR-10 | 2026-09-05 12:21:51 | 47.96077 | 12.86366 | 140° | 15km/h | 30006m | 5.3m/s | -42.6°C | 2.7% | 12.3hPa | 2.6V | 00:00:00 | 01:52:23 | 00:00:00 | |
| BAUMI2-15 | 2026-09-05 12:21:49 | 47.96084 | 12.86357 | 126° | 13km/h | 29994m | 6.0m/s | -42.6°C | 2.7% | 12.4hPa | 2.6V | 00:00:00 | 01:52:21 | 08:30:00 | |
| PG1ADW-2 | 2026-09-05 12:21:47 | 47.96085 | 12.86349 | 70° | 15km/h | 29983m | 5.1m/s | -42.6°C | 2.7% | 12.4hPa | 2.6V | 00:00:00 | 00:00:00 | 00:00:00 | |
| OE5HKT-10 | 2026-09-05 12:21:45 | 47.96081 | 12.86340 | 55° | 15km/h | 29972m | 6.5m/s | -42.7°C | 2.7% | 12.4hPa | 2.6V | 00:00:00 | 01:52:17 | 00:00:00 | |
| BAUMI2-15 | 2026-09-05 12:21:44 | 47.96079 | 12.86335 | 61° | 13km/h | 29966m | 6.0m/s | -42.6°C | 2.7% | 12.4hPa | 2.6V | 00:00:00 | 01:52:16 | 00:00:00 | |
| DF7PN | 2026-09-05 12:21:43 | 47.96077 | 12.86329 | 66° | 16km/h | 29960m | 5.4m/s | -42.7°C | 0.7% | 12.5hPa | 2.6V | 00:00:00 | 00:00:00 | 00:00:00 | |
| OE5FHM-15 | 2026-09-05 12:21:39 | 47.96074 | 12.86315 | 119° | 13km/h | 29938m | 5.1m/s | -42.8°C | 2.7% | 12.5hPa | 2.6V | 00:00:00 | 01:52:11 | 08:30:00 | |
| IN3HCDX | 2026-09-05 12:21:38 | 47.96074 | 12.86315 | 120° | 4km/h | 29938m | 5.2m/s | -42.8°C | 0% | 12.5hPa | 2.7V | 00:00:00 | 00:00:00 | 00:00:00 | |
| DG1MFX-10 | 2026-09-05 12:21:37 | 47.96075 | 12.86313 | 140° | 7km/h | 29933m | 5.2m/s | -42.9°C | 0.7% | 12.5hPa | 2.7V | 00:00:00 | 00:00:00 | 00:00:00 | |
| OE5DXL-15 | 2026-09-05 12:21:34 | 47.96083 | 12.86279 | 73° | 18km/h | 29897m | 5.4m/s | -42.8°C | 2.7% | 12.6hPa | 2.7V | 00:00:00 | 00:00:00 | 00:00:00 | |
| OE8JPQ-2 | 2026-09-05 12:21:31 | 47.96081 | 12.86272 | 62° | 18km/h | 29892m | 5.0m/s | -42.8°C | 2.7% | 12.6hPa | 2.7V | 00:00:00 | 01:52:03 | 00:00:00 | |
| OE5WHR-10 | 2026-09-05 12:21:30 | 47.96079 | 12.86265 | 59° | 18km/h | 29887m | 5.3m/s | -42.9°C | 2.7% | 12.6hPa | 2.7V | 00:00:00 | 00:00:00 | 08:30:00 | |
| BAUMI2-15 | 2026-09-05 12:21:29 | 47.96076 | 12.86258 | 64° | 20km/h | 29881m | 6.3m/s | -43.0°C | 2.7% | 12.6hPa | 2.6V | 00:00:00 | 01:52:01 | 00:00:00 | |
| DG1MJG | 2026-09-05 12:21:28 | 47.96074 | 12.86251 | 74° | 22km/h | 29875m | 5.8m/s | -43.0°C | 0.7% | 12.6hPa | 2.6V | 00:00:00 | 00:00:00 | 00:00:00 | |
| PG1ADW-2 | 2026-09-05 12:21:27 | 47.96073 | 12.86243 | 84° | 15km/h | 29869m | 5.1m/s | -42.9°C | 2.7% | 12.6hPa | 2.6V | 00:00:00 | 00:00:00 | 00:00:00 | |
| BAUMI2-15 | 2026-09-05 12:21:24 | 47.96073 | 12.86228 | 114° | 9km/h | 29853m | 6.4m/s | -43.0°C | 2.7% | 12.6hPa | 2.6V | 00:00:00 | 01:51:56 | 00:00:00 | |
| OE5HKT-10 | 2026-09-05 12:21:23 | 47.96074 | 12.86226 | 129° | 16km/h | 29847m | 5.3m/s | -43.0°C | 2.8% | 12.7hPa | 2.6V | 00:00:00 | 00:00:00 | 08:30:00 | |
| BAUMI2-15 | 2026-09-05 12:21:19 | 47.96078 | 12.86209 | 94° | 26km/h | 29825m | 5.5m/s | -43.1°C | 2.8% | 12.7hPa | 2.6V | 00:00:00 | 01:51:51 | 00:00:00 | |
| DG1MFX-10 | 2026-09-05 12:21:17 | 47.96077 | 12.86201 | 83° | 26km/h | 29819m | 5.2m/s | -43.1°C | 0.7% | 12.8hPa | 2.6V | 00:00:00 | 00:00:00 | 00:00:00 | |
| IN3HCDX | 2026-09-05 12:21:16 | 47.96076 | 12.86191 | 74° | 27km/h | 29813m | 6.5m/s | -43.1°C | 0% | 12.8hPa | 2.6V | 00:00:00 | 00:00:00 | 00:00:00 | |
| BAUMI2-15 | 2026-09-05 12:21:14 | 47.96068 | 12.86162 | 72° | 16km/h | 29796m | 6.2m/s | -43.1°C | 2.8% | 12.8hPa | 2.6V | 00:00:00 | 01:51:46 | 00:00:00 | |
| OE8JPQ-2 | 2026-09-05 12:21:11 | 47.96067 | 12.86140 | 106° | 18km/h | 29780m | 5.8m/s | -43.2°C | 2.8% | 12.8hPa | 2.6V | 00:00:00 | 00:00:00 | 00:00:00 | |
| OE5WHR-10 | 2026-09-05 12:21:09 | 47.96069 | 12.86133 | 136° | 18km/h | 29767m | 5.2m/s | -43.3°C | 2.8% | 12.8hPa | 2.6V | 00:00:00 | 00:00:00 | 00:00:00 | |
| PG1ADW-2 | 2026-09-05 12:21:07 | 47.96072 | 12.86130 | 130° | 18km/h | 29757m | 5.7m/s | -43.2°C | 2.8% | 12.8hPa | 2.6V | 00:00:00 | 00:00:00 | 00:00:00 | |
| BAUMI2-15 | 2026-09-05 12:21:04 | 47.96076 | 12.86112 | 93° | 24km/h | 29741m | 4.9m/s | -43.1°C | 2.7% | 12.9hPa | 2.6V | 00:00:00 | 01:51:36 | 08:30:00 | |
| IN3HCDX | 2026-09-05 12:20:57 | 47.96068 | 12.86052 | 104° | 22km/h | 29702m | 5.6m/s | -43.0°C | 0% | 13.0hPa | 2.6V | 00:00:00 | 00:00:00 | 00:00:00 | |
| DG1MFX-10 | 2026-09-05 12:20:56 | 47.96068 | 12.86052 | 104° | 22km/h | 29702m | 5.6m/s | -43.0°C | 0.7% | 13.0hPa | 2.6V | 00:00:00 | 00:00:00 | 00:00:00 | |
| OE5DXL-15 | 2026-09-05 12:20:52 | 47.96071 | 12.86018 | 76° | 15km/h | 29670m | 5.2m/s | -43.1°C | 2.7% | 13.0hPa | 2.6V | 00:00:00 | 00:00:00 | 00:00:00 | |
| OE8JPQ-2 | 2026-09-05 12:20:51 | 47.96071 | 12.86018 | 76° | 15km/h | 29670m | 5.2m/s | -43.1°C | 2.7% | 13.0hPa | 2.7V | 00:00:00 | 00:00:00 | 00:00:00 | |
| OE5WHR-10 | 2026-09-05 12:20:48 | 47.96070 | 12.85998 | 92° | 15km/h | 29653m | 4.9m/s | -43.3°C | 2.7% | 13.0hPa | 2.7V | 00:00:00 | 01:51:20 | 00:00:00 | |
| OE5HKT-10 | 2026-09-05 12:20:45 | 47.96071 | 12.85980 | 99° | 16km/h | 29636m | 5.2m/s | -43.2°C | 2.7% | 13.1hPa | 2.7V | 00:00:00 | 00:00:00 | 00:00:00 | |
| DF7PN | 2026-09-05 12:20:41 | 47.96074 | 12.85965 | 109° | 11km/h | 29613m | 4.8m/s | -43.3°C | 0.7% | 13.2hPa | 2.7V | 00:00:00 | 00:00:00 | 00:00:00 | |
| OE5FHM-15 | 2026-09-05 12:20:38 | 47.96076 | 12.85954 | 109° | 16km/h | 29597m | 5.2m/s | -43.4°C | 2.8% | 13.1hPa | 2.7V | 00:00:00 | 01:51:10 | 00:00:00 | |
| IN3HCDX | 2026-09-05 12:20:36 | 47.96077 | 12.85952 | 111° | 9km/h | 29592m | 4.5m/s | 0°C | 0% | 0hPa | 2.7V | 00:00:00 | 00:00:00 | 00:00:00 | |
| DG1MFX-10 | 2026-09-05 12:20:35 | 47.96078 | 12.85948 | 109° | 13km/h | 29587m | 5.3m/s | -43.6°C | 0.7% | 13.2hPa | 2.7V | 00:00:00 | 00:00:00 | 00:00:00 | |
| OE8JPQ-2 | 2026-09-05 12:20:31 | 47.96087 | 12.85908 | 102° | 15km/h | 29560m | 6.1m/s | -43.7°C | 2.8% | 13.2hPa | 2.7V | 00:00:00 | 01:51:03 | 00:00:00 | |
| DG1MJG | 2026-09-05 12:20:27 | 47.96083 | 12.85886 | 59° | 16km/h | 29539m | 6.1m/s | -43.8°C | 0.7% | 13.3hPa | 2.7V | 00:00:00 | 00:00:00 | 00:00:00 | |
| PG1ADW-2 | 2026-09-05 12:20:25 | 47.96079 | 12.85872 | 74° | 15km/h | 29528m | 4.9m/s | -43.8°C | 2.8% | 13.3hPa | 2.7V | 00:00:00 | 00:00:00 | 00:00:00 | |
| OE5DXL-15 | 2026-09-05 12:20:19 | 47.96079 | 12.85836 | 115° | 18km/h | 29496m | 6.0m/s | -43.9°C | 2.9% | 13.3hPa | 2.7V | 00:00:00 | 00:00:00 | 00:00:00 | |
| IN3HCDX | 2026-09-05 12:20:16 | 47.96084 | 12.85818 | 116° | 16km/h | 29479m | 4.8m/s | 0°C | 0% | 0hPa | 2.7V | 00:00:00 | 00:00:00 | 00:00:00 | |
| DG1MFX-10 | 2026-09-05 12:20:15 | 47.96084 | 12.85818 | 116° | 16km/h | 29479m | 4.8m/s | -43.9°C | 0.8% | 13.4hPa | 2.7V | 00:00:00 | 00:00:00 | 00:00:00 | |
| OE5HKT-10 | 2026-09-05 12:20:14 | 47.96088 | 12.85809 | 127° | 18km/h | 29467m | 6.0m/s | -43.9°C | 2.9% | 13.4hPa | 2.7V | 00:00:00 | 01:50:46 | 00:00:00 | |
| OE8JPQ-2 | 2026-09-05 12:20:11 | 47.96093 | 12.85801 | 142° | 18km/h | 29450m | 6.4m/s | -43.9°C | 2.9% | 13.5hPa | 2.7V | 00:00:00 | 00:00:00 | 08:30:00 | |
| DF7PN | 2026-09-05 12:20:10 | 47.96097 | 12.85798 | 142° | 16km/h | 29444m | 5.4m/s | -44.0°C | 0.7% | 13.5hPa | 2.7V | 00:00:00 | 00:00:00 | 00:00:00 | |
| OE5FHM-15 | 2026-09-05 12:20:07 | 47.96108 | 12.85786 | 152° | 22km/h | 29428m | 6.0m/s | -43.9°C | 2.9% | 13.5hPa | 2.7V | 00:00:00 | 01:50:39 | 00:00:00 | |
| OE5WHR-10 | 2026-09-05 12:20:06 | 47.96112 | 12.85783 | 149° | 20km/h | 29422m | 4.6m/s | -43.9°C | 2.9% | 13.5hPa | 2.6V | 00:00:00 | 00:00:00 | 00:00:00 | |
| PG1ADW-2 | 2026-09-05 12:20:03 | 47.96120 | 12.85767 | 107° | 22km/h | 29406m | 6.8m/s | -43.7°C | 2.8% | 13.5hPa | 2.6V | 00:00:00 | 00:00:00 | 00:00:00 | |
| DG1MJG | 2026-09-05 12:19:57 | 47.96118 | 12.85717 | 75° | 16km/h | 29372m | 5.2m/s | -44.1°C | 0.7% | 13.7hPa | 2.6V | 00:00:00 | 00:00:00 | 00:00:00 | |
| OE5HKT-10 | 2026-09-05 12:19:53 | 47.96118 | 12.85692 | 109° | 22km/h | 29349m | 6.5m/s | -43.9°C | 2.8% | 13.6hPa | 2.6V | 00:00:00 | 00:00:00 | 00:00:00 | |
| OE8JPQ-2 | 2026-09-05 12:19:51 | 47.96121 | 12.85683 | 114° | 22km/h | 29337m | 4.5m/s | -43.8°C | 2.8% | 13.7hPa | 2.7V | 00:00:00 | 00:00:00 | 00:00:00 | |
| OE5WHR-10 | 2026-09-05 12:19:45 | 47.96120 | 12.85624 | 68° | 20km/h | 29304m | 6.4m/s | -44.0°C | 2.8% | 13.8hPa | 2.7V | 00:00:00 | 01:50:17 | 00:00:00 | |
| PG1ADW-2 | 2026-09-05 12:19:43 | 47.96112 | 12.85605 | 49° | 20km/h | 29292m | 4.6m/s | -43.9°C | 2.7% | 13.8hPa | 2.7V | 00:00:00 | 00:00:00 | 00:00:00 | |
| DF7PN | 2026-09-05 12:19:39 | 47.96101 | 12.85578 | 89° | 16km/h | 29271m | 5.2m/s | -44.1°C | 0.7% | 13.9hPa | 2.7V | 00:00:00 | 00:00:00 | 00:00:00 | |
| OE5FHM-15 | 2026-09-05 12:19:37 | 47.96103 | 12.85567 | 118° | 13km/h | 29260m | 6.4m/s | -44.1°C | 2.8% | 13.8hPa | 2.7V | 00:00:00 | 01:50:09 | 00:00:00 | |
| IN3HCDX | 2026-09-05 12:19:34 | 47.96108 | 12.85551 | 106° | 18km/h | 29245m | 5.9m/s | 0°C | 0% | 0hPa | 2.7V | 00:00:00 | 00:00:00 | 00:00:00 | |
| DG1MFX-10 | 2026-09-05 12:19:33 | 47.96108 | 12.85551 | 106° | 18km/h | 29245m | 5.9m/s | -44.1°C | 0.8% | 13.9hPa | 2.7V | 00:00:00 | 00:00:00 | 00:00:00 | |
| OE5HKT-10 | 2026-09-05 12:19:32 | 47.96109 | 12.85533 | 89° | 15km/h | 29232m | 5.6m/s | -44.0°C | 2.8% | 13.9hPa | 2.7V | 00:00:00 | 00:00:00 | 00:00:00 | |
| OE8JPQ-2 | 2026-09-05 12:19:31 | 47.96108 | 12.85523 | 80° | 15km/h | 29227m | 4.6m/s | -43.9°C | 2.8% | 13.9hPa | 2.7V | 00:00:00 | 01:50:03 | 00:00:00 | |
| DG1MJG | 2026-09-05 12:19:26 | 47.96102 | 12.85497 | 75° | 7km/h | 29205m | 4.9m/s | -44.0°C | 0.7% | 14.0hPa | 2.7V | 00:00:00 | 00:00:00 | 00:00:00 | |
| PG1ADW-2 | 2026-09-05 12:19:15 | 47.96118 | 12.85443 | 89° | 11km/h | 29138m | 6.5m/s | -44.3°C | 2.8% | 14.1hPa | 2.7V | 00:00:00 | 01:49:47 | 00:00:00 | |
| OE5DXL-15 | 2026-09-05 12:19:13 | 47.96115 | 12.85436 | 64° | 18km/h | 29122m | 4.1m/s | -44.5°C | 2.8% | 14.1hPa | 2.7V | 00:00:00 | 00:00:00 | 08:30:00 | |
| IN3HCDX | 2026-09-05 12:19:11 | 47.96115 | 12.85434 | 100° | 9km/h | 29117m | 6.2m/s | 0°C | 0% | 0hPa | 2.7V | 00:00:00 | 00:00:00 | 00:00:00 | |
| OE5WHR-10 | 2026-09-05 12:19:03 | 47.96129 | 12.85387 | 100° | 18km/h | 29072m | 4.4m/s | -44.5°C | 2.8% | 14.2hPa | 2.7V | 00:00:00 | 00:00:00 | 00:00:00 | |
| OE5FHM-15 | 2026-09-05 12:19:01 | 47.96131 | 12.85378 | 120° | 18km/h | 29061m | 6.1m/s | -44.7°C | 2.9% | 14.3hPa | 2.7V | 00:00:00 | 01:49:33 | 00:00:00 | |
| BAUMI2-15 | 2026-09-05 12:18:57 | 47.96140 | 12.85351 | 102° | 20km/h | 29038m | 6.6m/s | -45.0°C | 2.9% | 14.3hPa | 2.7V | 00:00:00 | 01:49:29 | 00:00:00 | |
| DG1MJG | 2026-09-05 12:18:56 | 47.96140 | 12.85351 | 102° | 22km/h | 29038m | 6.6m/s | 0°C | 0% | 0hPa | 2.7V | 00:00:00 | 00:00:00 | 00:00:00 | |
| BAUMI2-15 | 2026-09-05 12:18:52 | 47.96145 | 12.85315 | 125° | 16km/h | 29009m | 5.4m/s | -45.1°C | 2.9% | 14.4hPa | 2.7V | 00:00:00 | 01:49:24 | 00:00:00 | |
| DG1MFX-10 | 2026-09-05 12:18:51 | 47.96145 | 12.85315 | 126° | 20km/h | 29009m | 5.4m/s | -45.2°C | 0.8% | 14.4hPa | 2.7V | 00:00:00 | 00:00:00 | 00:00:00 | |
| OE8JPQ-2 | 2026-09-05 12:18:49 | 47.96153 | 12.85299 | 129° | 16km/h | 28993m | 6.2m/s | -45.3°C | 3.0% | 14.4hPa | 2.7V | 00:00:00 | 00:00:00 | 00:00:00 | |
| BAUMI2-15 | 2026-09-05 12:18:47 | 47.96157 | 12.85291 | 127° | 16km/h | 28982m | 5.1m/s | -45.3°C | 3.0% | 14.4hPa | 2.7V | 00:00:00 | 01:49:19 | 00:00:00 | |
| OE5WHR-10 | 2026-09-05 12:18:42 | 47.96173 | 12.85270 | 148° | 20km/h | 28954m | 6.9m/s | -45.1°C | 3.0% | 14.5hPa | 2.7V | 00:00:00 | 01:49:14 | 00:00:00 | |
| OM5KV | 2026-09-05 12:18:41 | 47.96173 | 12.85270 | 149° | 13km/h | 28954m | 7.0m/s | 0°C | 0% | 0hPa | 2.7V | 00:00:00 | 00:00:00 | 00:00:00 | |
| BAUMI2-15 | 2026-09-05 12:18:37 | 47.96188 | 12.85261 | 155° | 20km/h | 28924m | 5.8m/s | -45.0°C | 2.9% | 14.6hPa | 2.7V | 00:00:00 | 01:49:09 | 00:00:00 | |
| BAUMI2-15 | 2026-09-05 12:18:32 | 47.96209 | 12.85239 | 137° | 22km/h | 28895m | 5.6m/s | -45.1°C | 2.9% | 14.6hPa | 2.7V | 00:00:00 | 01:49:04 | 00:00:00 | |
| DG1MFX-10 | 2026-09-05 12:18:31 | 47.96213 | 12.85234 | 138° | 22km/h | 28889m | 6.7m/s | -45.2°C | 0.8% | 14.7hPa | 2.6V | 00:00:00 | 00:00:00 | 00:00:00 | |
| BAUMI2-15 | 2026-09-05 12:18:27 | 47.96230 | 12.85214 | 152° | 20km/h | 28865m | 5.9m/s | -45.2°C | 2.9% | 14.7hPa | 2.6V | 00:00:00 | 01:48:59 | 00:00:00 | |
| OE8JPQ-2 | 2026-09-05 12:18:26 | 47.96234 | 12.85212 | 159° | 26km/h | 28860m | 4.8m/s | -45.3°C | 2.9% | 14.7hPa | 2.6V | 00:00:00 | 01:48:58 | 00:00:00 | |
| BAUMI2-15 | 2026-09-05 12:18:22 | 47.96256 | 12.85199 | 157° | 27km/h | 28836m | 5.4m/s | -45.3°C | 2.9% | 14.8hPa | 2.6V | 00:00:00 | 01:48:54 | 00:00:00 | |
| OE5WHR-10 | 2026-09-05 12:18:21 | 47.96262 | 12.85195 | 154° | 27km/h | 28831m | 5.7m/s | -45.3°C | 2.9% | 14.8hPa | 2.6V | 00:00:00 | 00:00:00 | 08:30:00 | |
| BAUMI2-15 | 2026-09-05 12:18:17 | 47.96284 | 12.85176 | 149° | 31km/h | 28807m | 6.3m/s | -45.2°C | 2.9% | 14.9hPa | 2.7V | 00:00:00 | 01:48:49 | 08:30:00 | |
| BAUMI2-15 | 2026-09-05 12:18:12 | 47.96319 | 12.85151 | 159° | 26km/h | 28778m | 5.8m/s | -45.3°C | 2.9% | 14.9hPa | 2.7V | 00:00:00 | 01:48:44 | 00:00:00 | |
| DG1MFX-10 | 2026-09-05 12:18:09 | 47.96330 | 12.85143 | 151° | 24km/h | 28767m | 5.8m/s | -45.3°C | 0.8% | 15.0hPa | 2.7V | 00:00:00 | 00:00:00 | 00:00:00 | |
| BAUMI2-15 | 2026-09-05 12:18:07 | 47.96346 | 12.85123 | 130° | 26km/h | 28749m | 5.6m/s | -45.3°C | 2.9% | 15.0hPa | 2.7V | 00:00:00 | 01:48:39 | 00:00:00 | |
| DF7PN | 2026-09-05 12:18:06 | 47.96350 | 12.85115 | 123° | 27km/h | 28742m | 6.5m/s | 0°C | -1.0% | 15.0hPa | 2.7V | 00:00:00 | 00:00:00 | 00:00:00 | |
| OE8JPQ-2 | 2026-09-05 12:18:03 | 47.96360 | 12.85090 | 122° | 29km/h | 28726m | 4.8m/s | -45.4°C | 3.0% | 15.0hPa | 2.7V | 00:00:00 | 00:00:00 | 00:00:00 | |
| BAUMI2-15 | 2026-09-05 12:18:02 | 47.96363 | 12.85082 | 129° | 29km/h | 28720m | 6.8m/s | -45.3°C | 2.9% | 15.0hPa | 2.7V | 00:00:00 | 01:48:34 | 00:00:00 | |
| OE5WHR-10 | 2026-09-05 12:18:00 | 47.96373 | 12.85066 | 137° | 33km/h | 28707m | 5.6m/s | -45.3°C | 2.9% | 15.1hPa | 2.7V | 00:00:00 | 00:00:00 | 00:00:00 | |
| BAUMI2-15 | 2026-09-05 12:17:57 | 47.96390 | 12.85042 | 132° | 33km/h | 28690m | 4.6m/s | -45.3°C | 3.0% | 15.1hPa | 2.7V | 00:00:00 | 01:48:29 | 00:00:00 | |
| OE5FHM-15 | 2026-09-05 12:17:52 | 47.96418 | 12.84993 | 128° | 31km/h | 28662m | 5.7m/s | -45.4°C | 2.9% | 15.2hPa | 2.7V | 00:00:00 | 01:48:24 | 00:00:00 | |
| DG1MFX-10 | 2026-09-05 12:17:49 | 47.96425 | 12.84975 | 118° | 24km/h | 28649m | 5.4m/s | -45.5°C | 0.8% | 15.2hPa | 2.7V | 00:00:00 | 00:00:00 | 00:00:00 | |
| BAUMI2-15 | 2026-09-05 12:17:47 | 47.96434 | 12.84949 | 117° | 35km/h | 28632m | 6.2m/s | -45.6°C | 3.0% | 15.2hPa | 2.7V | 00:00:00 | 01:48:19 | 00:00:00 | |
| OE8JPQ-2 | 2026-09-05 12:17:43 | 47.96449 | 12.84902 | 114° | 26km/h | 28609m | 4.9m/s | -45.6°C | 3.0% | 15.3hPa | 2.7V | 00:00:00 | 00:00:00 | 00:00:00 | |
| BAUMI2-15 | 2026-09-05 12:17:42 | 47.96453 | 12.84890 | 116° | 35km/h | 28603m | 5.4m/s | -45.7°C | 3.0% | 15.3hPa | 2.7V | 00:00:00 | 01:48:14 | 00:00:00 | |
| OE5WHR-10 | 2026-09-05 12:17:39 | 47.96466 | 12.84854 | 120° | 27km/h | 28586m | 4.8m/s | -45.8°C | 3.0% | 15.3hPa | 2.7V | 00:00:00 | 01:48:11 | 00:00:00 | |
| BAUMI2-15 | 2026-09-05 12:17:37 | 47.96473 | 12.84833 | 117° | 24km/h | 28574m | 6.8m/s | -45.7°C | 3.0% | 15.4hPa | 2.7V | 00:00:00 | 01:48:09 | 00:00:00 | |
| DF7PN | 2026-09-05 12:17:35 | 47.96481 | 12.84810 | 121° | 22km/h | 28556m | 6.2m/s | 0°C | -1.0% | -1.0hPa | 2.7V | 00:00:00 | 00:00:00 | 00:00:00 | |
| BAUMI2-15 | 2026-09-05 12:17:32 | 47.96489 | 12.84793 | 124° | 31km/h | 28545m | 5.1m/s | -45.8°C | 3.0% | 15.4hPa | 2.7V | 00:00:00 | 01:48:04 | 08:30:00 | |
| DG1MFX-10 | 2026-09-05 12:17:27 | 47.96504 | 12.84740 | 105° | 35km/h | 28516m | 6.8m/s | -46.2°C | 0.8% | 15.6hPa | 2.7V | 00:00:00 | 00:00:00 | 00:00:00 | |
| OE5FHM-15 | 2026-09-05 12:17:22 | 47.96506 | 12.84683 | 82° | 24km/h | 28487m | 5.3m/s | -46.2°C | 3.0% | 15.6hPa | 2.7V | 00:00:00 | 01:47:54 | 00:00:00 | |
| OE5WHR-10 | 2026-09-05 12:17:18 | 47.96511 | 12.84653 | 121° | 26km/h | 28463m | 5.6m/s | -46.5°C | 3.1% | 15.6hPa | 2.7V | 00:00:00 | 00:00:00 | 00:00:00 | |
| BAUMI2-15 | 2026-09-05 12:17:17 | 47.96514 | 12.84645 | 121° | 27km/h | 28458m | 5.4m/s | -46.5°C | 3.1% | 15.6hPa | 2.7V | 00:00:00 | 01:47:49 | 00:00:00 | |
| BAUMI2-15 | 2026-09-05 12:17:12 | 47.96526 | 12.84595 | 104° | 20km/h | 28428m | 6.3m/s | -46.8°C | 3.1% | 15.7hPa | 2.7V | 00:00:00 | 01:47:44 | 00:00:00 | |
| DG1MFX-10 | 2026-09-05 12:17:07 | 47.96525 | 12.84561 | 65° | 13km/h | 28399m | 5.0m/s | -46.9°C | 0.8% | 15.9hPa | 2.7V | 00:00:00 | 00:00:00 | 00:00:00 | |
| BAUMI2-15 | 2026-09-05 12:17:02 | 47.96528 | 12.84524 | 101° | 31km/h | 28369m | 6.4m/s | -46.9°C | 3.2% | 15.9hPa | 2.7V | 00:00:00 | 01:47:34 | 00:00:00 | |
| OE8JPQ-2 | 2026-09-05 12:17:01 | 47.96530 | 12.84513 | 100° | 29km/h | 28363m | 5.5m/s | -46.9°C | 3.2% | 15.9hPa | 2.6V | 00:00:00 | 01:47:33 | 00:00:00 | |
| OE5WHR-10 | 2026-09-05 12:16:57 | 47.96536 | 12.84462 | 100° | 26km/h | 28341m | 4.3m/s | -47.1°C | 3.2% | 15.9hPa | 2.6V | 00:00:00 | 00:00:00 | 00:00:00 | |
| OE5FHM-15 | 2026-09-05 12:16:51 | 47.96528 | 12.84411 | 73° | 27km/h | 28305m | 5.7m/s | -47.1°C | 3.2% | 16.0hPa | 2.6V | 00:00:00 | 01:47:23 | 08:30:00 | |
| OE5DXL-15 | 2026-09-05 12:16:47 | 47.96529 | 12.84368 | 106° | 27km/h | 28278m | 5.0m/s | -46.9°C | 3.2% | 16.1hPa | 2.7V | 00:00:00 | 00:00:00 | 00:00:00 | |
| DG1MFX-10 | 2026-09-05 12:16:45 | 47.96529 | 12.84369 | 106° | 29km/h | 28278m | 5.1m/s | -47.0°C | 0.9% | 16.1hPa | 2.7V | 00:00:00 | 00:00:00 | 00:00:00 | |
| OE5HKT-10 | 2026-09-05 12:16:41 | 47.96541 | 12.84310 | 90° | 22km/h | 28249m | 6.3m/s | -47.2°C | 3.2% | 16.2hPa | 2.7V | 00:00:00 | 00:00:00 | 00:00:00 | |
| DG1MJG | 2026-09-05 12:16:37 | 47.96533 | 12.84286 | 49° | 26km/h | 28232m | 5.3m/s | -47.1°C | 0.8% | 16.3hPa | 2.6V | 00:00:00 | 00:00:00 | 00:00:00 | |
| OE5WHR-10 | 2026-09-05 12:16:36 | 47.96525 | 12.84271 | 66° | 27km/h | 28221m | 5.6m/s | -47.0°C | 3.1% | 16.2hPa | 2.6V | 00:00:00 | 01:47:08 | 00:00:00 | |
| DG1MFX-10 | 2026-09-05 12:16:26 | 47.96525 | 12.84164 | 77° | 31km/h | 28164m | 6.1m/s | -47.7°C | 0.9% | 16.4hPa | 2.6V | 00:00:00 | 00:00:00 | 00:00:00 | |
| OE5FHM-15 | 2026-09-05 12:16:21 | 47.96508 | 12.84120 | 67° | 18km/h | 28134m | 5.6m/s | -47.5°C | 3.2% | 16.5hPa | 2.6V | 00:00:00 | 01:46:53 | 00:00:00 | |
| OE5WHR-10 | 2026-09-05 12:16:15 | 47.96500 | 12.84070 | 73° | 16km/h | 28100m | 5.9m/s | -47.7°C | 3.2% | 16.5hPa | 2.6V | 00:00:00 | 00:00:00 | 00:00:00 | |
| OE5MMP-10 | 2026-09-05 12:16:07 | 47.96473 | 12.84027 | 46° | 18km/h | 28055m | 6.0m/s | -47.7°C | 3.2% | 16.7hPa | 2.6V | 00:00:00 | 01:46:39 | 00:00:00 | |
| DG1MJG | 2026-09-05 12:16:06 | 47.96473 | 12.84027 | 47° | 11km/h | 28055m | 6.0m/s | -47.7°C | 0.8% | 16.7hPa | 2.6V | 00:00:00 | 00:00:00 | 00:00:00 | |
| DG1MFX-10 | 2026-09-05 12:16:05 | 47.96471 | 12.84019 | 89° | 13km/h | 28044m | 4.9m/s | -47.7°C | 0.9% | 16.7hPa | 2.6V | 00:00:00 | 00:00:00 | 00:00:00 | |
| OE5WHR-10 | 2026-09-05 12:15:54 | 47.96455 | 12.83970 | 2° | 26km/h | 27984m | 4.4m/s | -48.0°C | 3.2% | 16.8hPa | 2.6V | 00:00:00 | 00:00:00 | 00:00:00 | |
| OE5FHM-15 | 2026-09-05 12:15:51 | 47.96441 | 12.83962 | 50° | 27km/h | 27969m | 5.7m/s | -48.1°C | 3.2% | 16.9hPa | 2.6V | 00:00:00 | 01:46:23 | 00:00:00 | |
| DG1MFX-10 | 2026-09-05 12:15:44 | 47.96440 | 12.83904 | 90° | 29km/h | 27935m | 5.7m/s | -48.1°C | 0.9% | 17.0hPa | 2.6V | 00:00:00 | 00:00:00 | 00:00:00 | |
| OE5DXL-15 | 2026-09-05 12:15:43 | 47.96436 | 12.83886 | 51° | 26km/h | 27925m | 4.9m/s | -48.3°C | 3.4% | 17.0hPa | 2.6V | 00:00:00 | 00:00:00 | 00:00:00 | |
| OE8JPQ-2 | 2026-09-05 12:15:41 | 47.96426 | 12.83877 | 7° | 26km/h | 27912m | 7.3m/s | -48.3°C | 3.4% | 17.0hPa | 2.7V | 00:00:00 | 00:00:00 | 08:30:00 | |
| DG1MJG | 2026-09-05 12:15:35 | 47.96393 | 12.83875 | 38° | 26km/h | 27885m | 5.4m/s | -48.1°C | 0.9% | 17.2hPa | 2.7V | 00:00:00 | 00:00:00 | 00:00:00 | |
| OE5WHR-10 | 2026-09-05 12:15:33 | 47.96383 | 12.83849 | 76° | 27km/h | 27867m | 5.4m/s | -47.9°C | 3.3% | 17.2hPa | 2.7V | 00:00:00 | 01:46:05 | 00:00:00 | |
| DG1MFX-10 | 2026-09-05 12:15:23 | 47.96337 | 12.83811 | 344° | 31km/h | 27819m | 4.3m/s | -47.8°C | 0.9% | 17.3hPa | 2.7V | 00:00:00 | 00:00:00 | 00:00:00 | |
| OE5FHM-15 | 2026-09-05 12:15:21 | 47.96316 | 12.83812 | 23° | 24km/h | 27803m | 5.2m/s | -47.9°C | 3.3% | 17.3hPa | 2.7V | 00:00:00 | 01:45:53 | 00:00:00 | |
| OE5WHR-10 | 2026-09-05 12:15:12 | 47.96275 | 12.83764 | 4° | 24km/h | 27755m | 5.0m/s | -48.2°C | 3.4% | 17.5hPa | 2.6V | 00:00:00 | 00:00:00 | 08:30:00 | |
| OE5DXL-15 | 2026-09-05 12:15:11 | 47.96262 | 12.83765 | 347° | 16km/h | 27744m | 5.3m/s | -48.0°C | 3.4% | 17.5hPa | 2.6V | 00:00:00 | 00:00:00 | 00:00:00 | |
| DG1MJG | 2026-09-05 12:15:05 | 47.96235 | 12.83764 | 26° | 24km/h | 27717m | 5.4m/s | -48.1°C | 0.9% | 17.6hPa | 2.6V | 00:00:00 | 00:00:00 | 00:00:00 | |
| OE5HKT-10 | 2026-09-05 12:14:58 | 47.96195 | 12.83749 | 358° | 16km/h | 27679m | 5.4m/s | -48.0°C | 3.3% | 17.7hPa | 2.6V | 00:00:00 | 00:00:00 | 00:00:00 | |
| BAUMI2-15 | 2026-09-05 12:14:57 | 47.96187 | 12.83751 | 348° | 22km/h | 27673m | 6.4m/s | -47.9°C | 3.3% | 17.7hPa | 2.6V | 00:00:00 | 01:45:29 | 00:00:00 | |
| OE8JPQ-2 | 2026-09-05 12:14:56 | 47.96181 | 12.83753 | 338° | 18km/h | 27667m | 5.5m/s | -47.8°C | 3.3% | 17.7hPa | 2.6V | 00:00:00 | 00:00:00 | 00:00:00 | |
| OM5KV | 2026-09-05 12:14:53 | 47.96166 | 12.83762 | 350° | 18km/h | 27651m | 6.1m/s | -48.0°C | 0.9% | 17.8hPa | 2.6V | 00:00:00 | 00:00:00 | 00:00:00 | |
| BAUMI2-15 | 2026-09-05 12:14:52 | 47.96162 | 12.83763 | 4° | 15km/h | 27646m | 5.2m/s | -48.1°C | 3.4% | 17.7hPa | 2.6V | 00:00:00 | 01:45:24 | 00:00:00 | |
| OE5WHR-10 | 2026-09-05 12:14:51 | 47.96158 | 12.83762 | 13° | 15km/h | 27640m | 5.1m/s | -48.1°C | 3.4% | 17.8hPa | 2.6V | 00:00:00 | 00:00:00 | 00:00:00 | |
| OM5KV | 2026-09-05 12:14:48 | 47.96151 | 12.83760 | 13° | 13km/h | 27628m | 5.6m/s | -48.1°C | 0.9% | 17.9hPa | 2.6V | 00:00:00 | 00:00:00 | 00:00:00 | |
| BAUMI2-15 | 2026-09-05 12:14:47 | 47.96143 | 12.83758 | 13° | 20km/h | 27618m | 5.6m/s | -48.0°C | 3.3% | 17.8hPa | 2.6V | 00:00:00 | 01:45:19 | 08:30:00 | |
| OM5KV | 2026-09-05 12:14:45 | 47.96139 | 12.83756 | 13° | 20km/h | 27612m | 6.3m/s | -48.1°C | 0.9% | 17.9hPa | 2.6V | 00:00:00 | 00:00:00 | 00:00:00 | |
| OM5KV | 2026-09-05 12:14:42 | 47.96118 | 12.83755 | 340° | 18km/h | 27590m | 6.2m/s | -48.1°C | 0.9% | 17.9hPa | 2.6V | 00:00:00 | 00:00:00 | 00:00:00 | |
| OM5KV | 2026-09-05 12:14:40 | 47.96110 | 12.83762 | 324° | 16km/h | 27580m | 4.8m/s | -48.2°C | 0.9% | 18.0hPa | 2.6V | 00:00:00 | 00:00:00 | 00:00:00 | |
| BAUMI2-15 | 2026-09-05 12:14:37 | 47.96099 | 12.83769 | 351° | 9km/h | 27563m | 4.6m/s | -47.9°C | 3.2% | 18.0hPa | 2.6V | 00:00:00 | 01:45:09 | 00:00:00 | |
| OE8JPQ-2 | 2026-09-05 12:14:35 | 47.96093 | 12.83770 | 349° | 7km/h | 27551m | 6.7m/s | -48.0°C | 3.3% | 18.0hPa | 2.6V | 00:00:00 | 01:45:07 | 00:00:00 | |
| OM5KV | 2026-09-05 12:14:34 | 47.96091 | 12.83771 | 354° | 5km/h | 27545m | 5.6m/s | -48.1°C | 0.9% | 18.1hPa | 2.6V | 00:00:00 | 00:00:00 | 00:00:00 | |
| BAUMI2-15 | 2026-09-05 12:14:32 | 47.96089 | 12.83769 | 43° | 7km/h | 27534m | 6.5m/s | -48.0°C | 3.3% | 18.0hPa | 2.6V | 00:00:00 | 01:45:04 | 00:00:00 | |
| OE5WHR-10 | 2026-09-05 12:14:30 | 47.96086 | 12.83765 | 41° | 7km/h | 27523m | 4.1m/s | -48.0°C | 3.3% | 18.1hPa | 2.7V | 00:00:00 | 01:45:02 | 00:00:00 | |
| OM5KV | 2026-09-05 12:14:29 | 47.96084 | 12.83763 | 24° | 7km/h | 27518m | 5.3m/s | -48.1°C | 0.9% | 18.1hPa | 2.7V | 00:00:00 | 00:00:00 | 00:00:00 | |
| BAUMI2-15 | 2026-09-05 12:14:27 | 47.96082 | 12.83764 | 305° | 11km/h | 27506m | 5.7m/s | -48.2°C | 3.3% | 18.1hPa | 2.7V | 00:00:00 | 01:44:59 | 00:00:00 | |
| OM5KV | 2026-09-05 12:14:24 | 47.96076 | 12.83774 | 328° | 13km/h | 27489m | 5.8m/s | -48.1°C | 0.9% | 18.2hPa | 2.7V | 00:00:00 | 00:00:00 | 00:00:00 | |
| BAUMI2-15 | 2026-09-05 12:14:22 | 47.96070 | 12.83778 | 335° | 7km/h | 27479m | 4.6m/s | -48.1°C | 3.3% | 18.2hPa | 2.7V | 00:00:00 | 01:44:54 | 00:00:00 | |
| OE5FHM-15 | 2026-09-05 12:14:21 | 47.96068 | 12.83780 | 326° | 11km/h | 27473m | 6.4m/s | -48.1°C | 3.3% | 18.2hPa | 2.7V | 00:00:00 | 01:44:53 | 00:00:00 | |
| DG1MFX-10 | 2026-09-05 12:14:20 | 47.96067 | 12.83780 | 326° | 11km/h | 27473m | 6.5m/s | -48.2°C | 0.9% | 18.3hPa | 2.7V | 00:00:00 | 00:00:00 | 00:00:00 | |
| OM5KV | 2026-09-05 12:14:18 | 47.96066 | 12.83786 | 214° | 4km/h | 27455m | 5.9m/s | -47.9°C | 0.9% | 18.3hPa | 2.7V | 00:00:00 | 00:00:00 | 00:00:00 | |
| BAUMI2-15 | 2026-09-05 12:14:17 | 47.96067 | 12.83786 | 163° | 5km/h | 27449m | 6.3m/s | -47.9°C | 3.3% | 18.3hPa | 2.7V | 00:00:00 | 01:44:49 | 00:00:00 | |
| OE8JPQ-2 | 2026-09-05 12:14:15 | 47.96069 | 12.83785 | 167° | 9km/h | 27439m | 5.0m/s | -48.0°C | 3.3% | 18.3hPa | 2.6V | 00:00:00 | 00:00:00 | 00:00:00 | |
| OM5KV | 2026-09-05 12:14:12 | 47.96073 | 12.83789 | 250° | 9km/h | 27420m | 5.5m/s | -48.2°C | 0.9% | 18.4hPa | 2.7V | 00:00:00 | 00:00:00 | 00:00:00 | |
| OM5KV | 2026-09-05 12:14:10 | 47.96073 | 12.83795 | 283° | 5km/h | 27408m | 5.9m/s | -48.2°C | 0.9% | 18.5hPa | 2.7V | 00:00:00 | 00:00:00 | 00:00:00 | |
| OE5WHR-10 | 2026-09-05 12:14:09 | 47.96073 | 12.83797 | 282° | 13km/h | 27403m | 4.8m/s | -48.2°C | 3.3% | 18.4hPa | 2.7V | 00:00:00 | 00:00:00 | 00:00:00 | |
| BAUMI2-15 | 2026-09-05 12:14:07 | 47.96074 | 12.83801 | 241° | 13km/h | 27392m | 6.5m/s | -48.1°C | 3.3% | 18.5hPa | 2.7V | 00:00:00 | 01:44:39 | 00:00:00 | |
| OM5KV | 2026-09-05 12:14:06 | 47.96074 | 12.83801 | 241° | 7km/h | 27392m | 6.5m/s | -48.1°C | 0.9% | 18.5hPa | 2.7V | 00:00:00 | 00:00:00 | 00:00:00 | |
| BAUMI2-15 | 2026-09-05 12:14:02 | 47.96088 | 12.83800 | 137° | 11km/h | 27364m | 4.7m/s | -48.2°C | 3.4% | 18.6hPa | 2.7V | 00:00:00 | 01:44:34 | 08:30:00 | |
| OE5DXL-15 | 2026-09-05 12:14:00 | 47.96095 | 12.83792 | 170° | 11km/h | 27348m | 5.9m/s | -48.2°C | 3.4% | 18.6hPa | 2.6V | 00:00:00 | 00:00:00 | 08:30:00 | |
| BAUMI2-15 | 2026-09-05 12:13:57 | 47.96099 | 12.83793 | 200° | 15km/h | 27337m | 5.3m/s | -48.1°C | 3.4% | 18.6hPa | 2.7V | 00:00:00 | 01:44:29 | 00:00:00 | |
| OM5KV | 2026-09-05 12:13:55 | 47.96106 | 12.83795 | 185° | 16km/h | 27326m | 5.1m/s | -48.2°C | 0.9% | 18.7hPa | 2.7V | 00:00:00 | 00:00:00 | 00:00:00 | |
| BAUMI2-15 | 2026-09-05 12:13:52 | 47.96119 | 12.83795 | 176° | 15km/h | 27309m | 5.6m/s | -48.2°C | 3.4% | 18.7hPa | 2.7V | 00:00:00 | 01:44:24 | 00:00:00 | |
| OM5KV | 2026-09-05 12:13:50 | 47.96124 | 12.83791 | 131° | 15km/h | 27298m | 6.6m/s | -48.2°C | 0.9% | 18.8hPa | 2.7V | 00:00:00 | 00:00:00 | 00:00:00 | |
| OE5HKT-10 | 2026-09-05 12:13:48 | 47.96128 | 12.83780 | 104° | 9km/h | 27286m | 4.2m/s | -48.1°C | 3.3% | 18.8hPa | 2.7V | 00:00:00 | 00:00:00 | 00:00:00 | |
| OE5FHM-15 | 2026-09-05 12:13:47 | 47.96129 | 12.83773 | 101° | 9km/h | 27281m | 5.2m/s | -48.2°C | 3.3% | 18.8hPa | 2.7V | 00:00:00 | 01:44:19 | 00:00:00 | |
| DB0UT-7 | 2026-09-05 12:13:46 | 47.96129 | 12.83767 | 99° | 9km/h | 27276m | 6.2m/s | -48.3°C | 3.4% | 18.8hPa | 2.7V | 00:00:00 | 01:44:18 | 08:30:00 | |
| OM5KV | 2026-09-05 12:13:44 | 47.96130 | 12.83761 | 147° | 4km/h | 27264m | 4.8m/s | -48.4°C | 0.9% | 18.9hPa | 2.7V | 00:00:00 | 00:00:00 | 00:00:00 | |
| BAUMI2-15 | 2026-09-05 12:13:42 | 47.96133 | 12.83761 | 179° | 13km/h | 27254m | 5.8m/s | -48.4°C | 3.4% | 18.9hPa | 2.7V | 00:00:00 | 01:44:14 | 00:00:00 | |
| DG1MFX-10 | 2026-09-05 12:13:40 | 47.96139 | 12.83758 | 154° | 15km/h | 27243m | 5.4m/s | -48.4°C | 0.9% | 19.0hPa | 2.7V | 00:00:00 | 00:00:00 | 00:00:00 | |
| OM5KV | 2026-09-05 12:13:38 | 47.96145 | 12.83752 | 141° | 13km/h | 27233m | 4.7m/s | -48.4°C | 0.9% | 19.0hPa | 2.7V | 00:00:00 | 00:00:00 | 00:00:00 | |
| BAUMI2-15 | 2026-09-05 12:13:37 | 47.96147 | 12.83749 | 134° | 5km/h | 27228m | 5.9m/s | -48.4°C | 3.4% | 18.9hPa | 2.7V | 00:00:00 | 01:44:09 | 00:00:00 | |
| DO3MHA-11 | 2026-09-05 12:13:35 | 47.96149 | 12.83746 | 94° | 5km/h | 27217m | 4.5m/s | -48.4°C | 3.4% | 19.0hPa | 2.7V | 00:00:00 | 01:44:07 | 00:00:00 | |
| OE8JPQ-2 | 2026-09-05 12:13:33 | 47.96149 | 12.83742 | 101° | 7km/h | 27206m | 6.1m/s | -48.4°C | 3.4% | 19.0hPa | 2.7V | 00:00:00 | 01:44:05 | 00:00:00 | |
| BAUMI2-15 | 2026-09-05 12:13:32 | 47.96149 | 12.83740 | 107° | 5km/h | 27201m | 5.1m/s | -48.4°C | 3.4% | 19.0hPa | 2.7V | 00:00:00 | 01:44:04 | 00:00:00 | |
| OM5KV | 2026-09-05 12:13:30 | 47.96151 | 12.83734 | 101° | 7km/h | 27191m | 6.0m/s | -48.4°C | 0.9% | 19.1hPa | 2.7V | 00:00:00 | 00:00:00 | 00:00:00 | |
| OE5DXL-15 | 2026-09-05 12:13:29 | 47.96151 | 12.83730 | 78° | 5km/h | 27179m | 5.1m/s | -48.3°C | 3.5% | 19.1hPa | 2.7V | 00:00:00 | 00:00:00 | 00:00:00 | |
| OE5HKT-10 | 2026-09-05 12:13:27 | 47.96151 | 12.83729 | 104° | 7km/h | 27174m | 4.9m/s | -48.3°C | 3.5% | 19.1hPa | 2.7V | 00:00:00 | 01:43:59 | 00:00:00 | |
| OM5KV | 2026-09-05 12:13:26 | 47.96151 | 12.83729 | 105° | 5km/h | 27174m | 4.9m/s | -48.3°C | 0.9% | 19.1hPa | 2.7V | 00:00:00 | 00:00:00 | 00:00:00 | |
| DO3MHA-11 | 2026-09-05 12:13:25 | 47.96153 | 12.83723 | 125° | 11km/h | 27162m | 5.3m/s | -48.3°C | 3.5% | 19.1hPa | 2.7V | 00:00:00 | 01:43:57 | 08:30:00 | |
| BAUMI2-15 | 2026-09-05 12:13:22 | 47.96158 | 12.83712 | 127° | 5km/h | 27147m | 6.3m/s | -48.3°C | 3.5% | 19.2hPa | 2.6V | 00:00:00 | 01:43:54 | 00:00:00 | |
| OM5KV | 2026-09-05 12:13:20 | 47.96160 | 12.83709 | 119° | 5km/h | 27141m | 5.6m/s | -48.3°C | 0.9% | 19.2hPa | 2.6V | 00:00:00 | 00:00:00 | 00:00:00 | |
| DG1MFX-10 | 2026-09-05 12:13:18 | 47.96160 | 12.83706 | 103° | 5km/h | 27130m | 5.7m/s | -48.3°C | 1.0% | 19.3hPa | 2.6V | 00:00:00 | 00:00:00 | 00:00:00 | |
| OE5FHM-15 | 2026-09-05 12:13:17 | 47.96161 | 12.83701 | 111° | 7km/h | 27119m | 4.8m/s | -48.2°C | 3.5% | 19.3hPa | 2.6V | 00:00:00 | 01:43:49 | 00:00:00 | |
| DB0UT-7 | 2026-09-05 12:13:16 | 47.96162 | 12.83699 | 103° | 9km/h | 27114m | 4.5m/s | -48.1°C | 3.5% | 19.3hPa | 2.6V | 00:00:00 | 00:00:00 | 00:00:00 | |
| OM5KV | 2026-09-05 12:13:15 | 47.96162 | 12.83699 | 103° | 5km/h | 27114m | 4.5m/s | -48.2°C | 0.9% | 19.3hPa | 2.6V | 00:00:00 | 00:00:00 | 00:00:00 | |
| OE8JPQ-2 | 2026-09-05 12:13:13 | 47.96160 | 12.83697 | 357° | 7km/h | 27096m | 4.6m/s | -48.0°C | 3.4% | 19.3hPa | 2.6V | 00:00:00 | 00:00:00 | 00:00:00 | |
| BAUMI2-15 | 2026-09-05 12:13:12 | 47.96159 | 12.83697 | 9° | 5km/h | 27092m | 5.4m/s | -48.1°C | 3.4% | 19.3hPa | 2.7V | 00:00:00 | 01:43:44 | 00:00:00 | |
| OM5KV | 2026-09-05 12:13:11 | 47.96158 | 12.83697 | 10° | 4km/h | 27092m | 5.5m/s | -48.1°C | 0.9% | 19.4hPa | 2.7V | 00:00:00 | 00:00:00 | 00:00:00 | |
| OM5KV | 2026-09-05 12:13:07 | 47.96156 | 12.83688 | 31° | 9km/h | 27063m | 6.6m/s | -48.0°C | 0.9% | 19.5hPa | 2.7V | 00:00:00 | 00:00:00 | 00:00:00 | |
| OE5WHR-10 | 2026-09-05 12:13:06 | 47.96153 | 12.83687 | 16° | 9km/h | 27057m | 5.7m/s | -48.0°C | 3.4% | 19.4hPa | 2.7V | 00:00:00 | 00:00:00 | 00:00:00 | |
| OE5HKT-10 | 2026-09-05 12:13:05 | 47.96151 | 12.83686 | 18° | 11km/h | 27052m | 4.8m/s | -47.9°C | 3.4% | 19.5hPa | 2.7V | 00:00:00 | 00:00:00 | 00:00:00 | |
| OM5KV | 2026-09-05 12:13:04 | 47.96151 | 12.83686 | 19° | 11km/h | 27052m | 4.9m/s | -48.0°C | 0.9% | 19.5hPa | 2.6V | 00:00:00 | 00:00:00 | 00:00:00 | |
| BAUMI2-15 | 2026-09-05 12:13:02 | 47.96144 | 12.83681 | 32° | 5km/h | 27036m | 4.7m/s | -48.0°C | 3.4% | 19.5hPa | 2.6V | 00:00:00 | 01:43:34 | 00:00:00 | |
| OM5KV | 2026-09-05 12:13:01 | 47.96142 | 12.83680 | 12° | 5km/h | 27030m | 6.4m/s | -48.0°C | 0.9% | 19.6hPa | 2.6V | 00:00:00 | 00:00:00 | 00:00:00 | |
| OM5KV | 2026-09-05 12:12:59 | 47.96141 | 12.83680 | 341° | 5km/h | 27024m | 6.3m/s | -48.0°C | 0.9% | 19.6hPa | 2.6V | 00:00:00 | 00:00:00 | 00:00:00 | |
| DG1MFX-10 | 2026-09-05 12:12:57 | 47.96138 | 12.83682 | 336° | 5km/h | 27013m | 5.4m/s | -47.9°C | 0.9% | 19.6hPa | 2.6V | 00:00:00 | 00:00:00 | 00:00:00 | |
| OE5DXL-15 | 2026-09-05 12:12:55 | 47.96133 | 12.83677 | 32° | 16km/h | 26992m | 6.1m/s | -47.8°C | 3.3% | 19.6hPa | 2.6V | 00:00:00 | 00:00:00 | 00:00:00 | |
| OE8JPQ-2 | 2026-09-05 12:12:53 | 47.96130 | 12.83675 | 18° | 15km/h | 26986m | 5.6m/s | -47.8°C | 3.3% | 19.6hPa | 2.6V | 00:00:00 | 00:00:00 | 00:00:00 | |
| PG1ADW-2 | 2026-09-05 12:12:51 | 47.96122 | 12.83672 | 10° | 15km/h | 26976m | 4.5m/s | -47.8°C | 3.3% | 19.7hPa | 2.6V | 00:00:00 | 01:43:23 | 00:00:00 | |
| OM5KV | 2026-09-05 12:12:49 | 47.96119 | 12.83671 | 21° | 11km/h | 26971m | 6.1m/s | -47.8°C | 0.9% | 19.8hPa | 2.6V | 00:00:00 | 00:00:00 | 00:00:00 | |
| OE5FHM-15 | 2026-09-05 12:12:47 | 47.96114 | 12.83663 | 55° | 16km/h | 26955m | 4.9m/s | -47.8°C | 3.2% | 19.8hPa | 2.6V | 00:00:00 | 01:43:19 | 00:00:00 | |
| OE5WHR-10 | 2026-09-05 12:12:45 | 47.96109 | 12.83656 | 32° | 16km/h | 26943m | 5.8m/s | -47.8°C | 3.2% | 19.8hPa | 2.6V | 00:00:00 | 00:00:00 | 00:00:00 | |
| OE5HKT-10 | 2026-09-05 12:12:44 | 47.96106 | 12.83653 | 27° | 16km/h | 26937m | 5.5m/s | -47.8°C | 3.2% | 19.8hPa | 2.6V | 00:00:00 | 00:00:00 | 00:00:00 | |
| OM5KV | 2026-09-05 12:12:41 | 47.96098 | 12.83648 | 26° | 15km/h | 26926m | 5.3m/s | -48.0°C | 0.9% | 19.9hPa | 2.6V | 00:00:00 | 00:00:00 | 00:00:00 | |
| OM5KV | 2026-09-05 12:12:39 | 47.96091 | 12.83646 | 358° | 15km/h | 26916m | 5.0m/s | -47.9°C | 0.9% | 19.9hPa | 2.6V | 00:00:00 | 00:00:00 | 00:00:00 | |
| DG1MFX-10 | 2026-09-05 12:12:36 | 47.96078 | 12.83652 | 336° | 20km/h | 26899m | 4.7m/s | -47.7°C | 0.9% | 20.0hPa | 2.6V | 00:00:00 | 00:00:00 | 00:00:00 | |
| OM5KV | 2026-09-05 12:12:35 | 47.96074 | 12.83655 | 339° | 16km/h | 26894m | 5.4m/s | -47.7°C | 0.8% | 20.0hPa | 2.6V | 00:00:00 | 00:00:00 | 00:00:00 | |
| OM5KV | 2026-09-05 12:12:33 | 47.96068 | 12.83656 | 18° | 11km/h | 26882m | 5.4m/s | -47.7°C | 0.8% | 20.0hPa | 2.6V | 00:00:00 | 00:00:00 | 00:00:00 | |
| PG1ADW-2 | 2026-09-05 12:12:31 | 47.96057 | 12.83648 | 28° | 13km/h | 26865m | 5.8m/s | -47.9°C | 3.2% | 20.0hPa | 2.6V | 00:00:00 | 00:00:00 | 00:00:00 | |
| OM5KV | 2026-09-05 12:12:30 | 47.96052 | 12.83644 | 26° | 24km/h | 26860m | 4.7m/s | -47.9°C | 0.8% | 20.1hPa | 2.6V | 00:00:00 | 00:00:00 | 00:00:00 | |
| OM5KV | 2026-09-05 12:12:27 | 47.96042 | 12.83637 | 25° | 20km/h | 26849m | 5.6m/s | -47.9°C | 0.8% | 20.1hPa | 2.6V | 00:00:00 | 00:00:00 | 00:00:00 | |
| OE5DXL-15 | 2026-09-05 12:12:25 | 47.96027 | 12.83642 | 311° | 9km/h | 26826m | 4.8m/s | -47.8°C | 3.2% | 20.1hPa | 2.6V | 00:00:00 | 00:00:00 | 00:00:00 | |
| OE5WHR-10 | 2026-09-05 12:12:24 | 47.96027 | 12.83642 | 311° | 9km/h | 26826m | 4.8m/s | -47.8°C | 3.2% | 20.1hPa | 2.7V | 00:00:00 | 01:42:56 | 00:00:00 | |
| OE5HKT-10 | 2026-09-05 12:12:23 | 47.96024 | 12.83647 | 302° | 11km/h | 26821m | 5.2m/s | -47.8°C | 3.2% | 20.2hPa | 2.7V | 00:00:00 | 01:42:55 | 00:00:00 | |
| OM5KV | 2026-09-05 12:12:22 | 47.96024 | 12.83647 | 303° | 16km/h | 26821m | 5.3m/s | -47.8°C | 0.9% | 20.2hPa | 2.7V | 00:00:00 | 00:00:00 | 00:00:00 | |
| OE5FHM-15 | 2026-09-05 12:12:17 | 47.96020 | 12.83651 | 61° | 9km/h | 26787m | 4.9m/s | -47.9°C | 3.2% | 20.3hPa | 2.7V | 00:00:00 | 01:42:49 | 08:30:00 | |
| DG1MFX-10 | 2026-09-05 12:12:16 | 47.96020 | 12.83651 | 61° | 11km/h | 26787m | 4.9m/s | -47.9°C | 0.9% | 20.3hPa | 2.6V | 00:00:00 | 00:00:00 | 00:00:00 | |
| OE8JPQ-2 | 2026-09-05 12:12:13 | 47.96016 | 12.83640 | 3° | 9km/h | 26767m | 5.4m/s | -48.1°C | 3.2% | 20.3hPa | 2.6V | 00:00:00 | 00:00:00 | 08:30:00 | |
| OM5KV | 2026-09-05 12:12:12 | 47.96015 | 12.83641 | 319° | 9km/h | 26761m | 6.7m/s | -48.2°C | 0.8% | 20.4hPa | 2.6V | 00:00:00 | 00:00:00 | 00:00:00 | |
| PG1ADW-2 | 2026-09-05 12:12:11 | 47.96014 | 12.83644 | 301° | 9km/h | 26755m | 5.0m/s | -48.3°C | 3.3% | 20.3hPa | 2.6V | 00:00:00 | 00:00:00 | 00:00:00 | |
| OM5KV | 2026-09-05 12:12:10 | 47.96014 | 12.83644 | 301° | 13km/h | 26755m | 5.0m/s | -48.3°C | 0.9% | 20.4hPa | 2.6V | 00:00:00 | 00:00:00 | 00:00:00 | |
| OM5KV | 2026-09-05 12:12:06 | 47.96015 | 12.83661 | 176° | 9km/h | 26730m | 4.7m/s | -48.4°C | 0.9% | 20.5hPa | 2.6V | 00:00:00 | 00:00:00 | 00:00:00 | |
| OM5KV | 2026-09-05 12:12:05 | 47.96015 | 12.83661 | 176° | 9km/h | 26730m | 4.7m/s | -48.4°C | 0.9% | 20.5hPa | 2.6V | 00:00:00 | 00:00:00 | 00:00:00 | |
| OE5WHR-10 | 2026-09-05 12:12:03 | 47.96020 | 12.83655 | 117° | 9km/h | 26713m | 4.8m/s | -48.5°C | 3.4% | 20.5hPa | 2.6V | 00:00:00 | 00:00:00 | 08:30:00 | |
| DG1MJG | 2026-09-05 12:12:00 | 47.96023 | 12.83647 | 115° | 15km/h | 26702m | 6.4m/s | -48.5°C | 0.9% | 20.6hPa | 2.7V | 00:00:00 | 00:00:00 | 00:00:00 | |
| OE5HKT-10 | 2026-09-05 12:11:59 | 47.96026 | 12.83637 | 119° | 7km/h | 26691m | 4.2m/s | -48.5°C | 3.4% | 20.6hPa | 2.7V | 00:00:00 | 00:00:00 | 00:00:00 | |
| DG1MFX-10 | 2026-09-05 12:11:57 | 47.96029 | 12.83629 | 104° | 9km/h | 26681m | 6.8m/s | -48.5°C | 1.0% | 20.7hPa | 2.6V | 00:00:00 | 00:00:00 | 00:00:00 | |
| OE5DXL-15 | 2026-09-05 12:11:54 | 47.96028 | 12.83624 | 155° | 9km/h | 26665m | 5.6m/s | -48.3°C | 3.4% | 20.7hPa | 2.6V | 00:00:00 | 00:00:00 | 00:00:00 | |
| OE8JPQ-2 | 2026-09-05 12:11:53 | 47.96029 | 12.83624 | 169° | 9km/h | 26659m | 5.8m/s | -48.2°C | 3.3% | 20.7hPa | 2.6V | 00:00:00 | 00:00:00 | 00:00:00 | |
| DB0UT-7 | 2026-09-05 12:11:52 | 47.96031 | 12.83623 | 162° | 16km/h | 26653m | 4.9m/s | -48.2°C | 3.3% | 20.7hPa | 2.6V | 00:00:00 | 01:42:24 | 00:00:00 | |
| PG1ADW-2 | 2026-09-05 12:11:51 | 47.96033 | 12.83622 | 150° | 9km/h | 26649m | 4.5m/s | -48.2°C | 3.3% | 20.7hPa | 2.6V | 00:00:00 | 00:00:00 | 00:00:00 | |
| OM5KV | 2026-09-05 12:11:48 | 47.96036 | 12.83617 | 110° | 9km/h | 26637m | 6.1m/s | -48.2°C | 0.9% | 20.8hPa | 2.6V | 00:00:00 | 00:00:00 | 00:00:00 | |
| OE5FHM-15 | 2026-09-05 12:11:44 | 47.96038 | 12.83600 | 88° | 7km/h | 26610m | 5.8m/s | -48.5°C | 3.3% | 20.8hPa | 2.6V | 00:00:00 | 01:42:16 | 00:00:00 | |
| OE5WHR-10 | 2026-09-05 12:11:42 | 47.96037 | 12.83596 | 55° | 7km/h | 26599m | 4.3m/s | -48.5°C | 3.4% | 20.9hPa | 2.6V | 00:00:00 | 00:00:00 | 00:00:00 | |
| OM5KV | 2026-09-05 12:11:37 | 47.96042 | 12.83593 | 164° | 13km/h | 26578m | 4.9m/s | -48.4°C | 0.9% | 21.0hPa | 2.6V | 00:00:00 | 00:00:00 | 00:00:00 | |
| DG1MFX-10 | 2026-09-05 12:11:36 | 47.96047 | 12.83588 | 129° | 11km/h | 26566m | 5.8m/s | -48.5°C | 0.9% | 21.0hPa | 2.6V | 00:00:00 | 00:00:00 | 00:00:00 | |
| OE8JPQ-2 | 2026-09-05 12:11:33 | 47.96050 | 12.83579 | 112° | 9km/h | 26550m | 5.9m/s | -48.4°C | 3.3% | 21.0hPa | 2.6V | 00:00:00 | 01:42:05 | 00:00:00 | |
| OM5KV | 2026-09-05 12:11:32 | 47.96050 | 12.83578 | 112° | 7km/h | 26550m | 6.0m/s | -48.4°C | 0.9% | 21.1hPa | 2.6V | 00:00:00 | 00:00:00 | 00:00:00 | |
| PG1ADW-2 | 2026-09-05 12:11:31 | 47.96051 | 12.83575 | 101° | 9km/h | 26539m | 4.7m/s | -48.5°C | 3.4% | 21.1hPa | 2.6V | 00:00:00 | 01:42:03 | 00:00:00 | |
| DG1MJG | 2026-09-05 12:11:30 | 47.96051 | 12.83573 | 69° | 4km/h | 26533m | 6.6m/s | -48.7°C | 0.9% | 21.1hPa | 2.6V | 00:00:00 | 00:00:00 | 00:00:00 | |
| OE5WHR-10 | 2026-09-05 12:11:21 | 47.96060 | 12.83549 | 103° | 11km/h | 26485m | 4.8m/s | -48.4°C | 3.3% | 21.2hPa | 2.6V | 00:00:00 | 01:41:53 | 00:00:00 | |
| OM5KV | 2026-09-05 12:11:19 | 47.96060 | 12.83542 | 105° | 16km/h | 26480m | 5.1m/s | -48.4°C | 0.9% | 21.3hPa | 2.6V | 00:00:00 | 00:00:00 | 00:00:00 | |
| OE5HKT-10 | 2026-09-05 12:11:15 | 47.96065 | 12.83529 | 349° | 9km/h | 26451m | 5.7m/s | -48.1°C | 3.2% | 21.3hPa | 2.6V | 00:00:00 | 01:41:47 | 00:00:00 | |
| OE5FHM-15 | 2026-09-05 12:11:14 | 47.96064 | 12.83529 | 323° | 9km/h | 26446m | 4.9m/s | -48.1°C | 3.2% | 21.4hPa | 2.6V | 00:00:00 | 01:41:46 | 00:00:00 | |
| OE8JPQ-2 | 2026-09-05 12:11:13 | 47.96063 | 12.83531 | 295° | 9km/h | 26441m | 5.3m/s | -48.2°C | 3.3% | 21.4hPa | 2.6V | 00:00:00 | 00:00:00 | 00:00:00 | |
| PG1ADW-2 | 2026-09-05 12:11:11 | 47.96064 | 12.83535 | 231° | 11km/h | 26430m | 4.6m/s | -48.3°C | 3.3% | 21.4hPa | 2.6V | 00:00:00 | 00:00:00 | 00:00:00 | |
| OM5KV | 2026-09-05 12:11:05 | 47.96069 | 12.83523 | 116° | 18km/h | 26403m | 6.4m/s | -48.5°C | 0.9% | 21.5hPa | 2.6V | 00:00:00 | 00:00:00 | 00:00:00 | |
| OM5KV | 2026-09-05 12:11:00 | 47.96077 | 12.83491 | 80° | 5km/h | 26370m | 5.3m/s | -48.4°C | 0.9% | 21.7hPa | 2.6V | 00:00:00 | 00:00:00 | 00:00:00 | |
| DG1MJG | 2026-09-05 12:10:59 | 47.96077 | 12.83491 | 80° | 5km/h | 26370m | 5.3m/s | -48.4°C | 0.9% | 21.7hPa | 2.6V | 00:00:00 | 00:00:00 | 00:00:00 | |
| BAUMI2-15 | 2026-09-05 12:10:58 | 47.96077 | 12.83488 | 132° | 5km/h | 26359m | 5.1m/s | -48.3°C | 3.3% | 21.6hPa | 2.6V | 00:00:00 | 01:41:30 | 00:00:00 | |
| OM5KV | 2026-09-05 12:10:55 | 47.96077 | 12.83486 | 89° | 4km/h | 26348m | 6.0m/s | -48.2°C | 0.9% | 21.7hPa | 2.6V | 00:00:00 | 00:00:00 | 00:00:00 | |
| DG1MFX-10 | 2026-09-05 12:10:54 | 47.96078 | 12.83480 | 105° | 13km/h | 26338m | 4.9m/s | -48.2°C | 0.9% | 21.8hPa | 2.6V | 00:00:00 | 00:00:00 | 00:00:00 | |
| OE8JPQ-2 | 2026-09-05 12:10:53 | 47.96079 | 12.83474 | 113° | 18km/h | 26332m | 6.7m/s | -48.2°C | 3.3% | 21.7hPa | 2.6V | 00:00:00 | 00:00:00 | 00:00:00 | |
| OE5DXL-15 | 2026-09-05 12:10:52 | 47.96081 | 12.83467 | 117° | 20km/h | 26326m | 5.4m/s | -48.1°C | 3.3% | 21.8hPa | 2.6V | 00:00:00 | 00:00:00 | 00:00:00 | |
| PG1ADW-2 | 2026-09-05 12:10:51 | 47.96084 | 12.83458 | 116° | 18km/h | 26321m | 4.2m/s | -48.2°C | 3.3% | 21.8hPa | 2.6V | 00:00:00 | 00:00:00 | 08:30:00 | |
| OM5KV | 2026-09-05 12:10:49 | 47.96086 | 12.83449 | 111° | 26km/h | 26316m | 5.1m/s | -48.3°C | 0.9% | 21.8hPa | 2.7V | 00:00:00 | 00:00:00 | 00:00:00 | |
| BAUMI2-15 | 2026-09-05 12:10:48 | 47.96088 | 12.83435 | 85° | 9km/h | 26306m | 4.5m/s | -48.0°C | 3.3% | 21.8hPa | 2.7V | 00:00:00 | 01:41:20 | 00:00:00 | |
| OM5KV | 2026-09-05 12:10:43 | 47.96088 | 12.83422 | 125° | 9km/h | 26280m | 4.7m/s | -48.0°C | 0.8% | 22.0hPa | 2.7V | 00:00:00 | 00:00:00 | 00:00:00 | |
| BAUMI2-15 | 2026-09-05 12:10:42 | 47.96090 | 12.83418 | 109° | 22km/h | 26275m | 5.2m/s | -48.0°C | 3.2% | 21.9hPa | 2.7V | 00:00:00 | 01:41:14 | 00:00:00 | |
| OE5WHR-10 | 2026-09-05 12:10:39 | 47.96090 | 12.83395 | 88° | 26km/h | 26259m | 4.3m/s | -48.1°C | 3.2% | 22.0hPa | 2.7V | 00:00:00 | 00:00:00 | 00:00:00 | |
| OM5KV | 2026-09-05 12:10:37 | 47.96091 | 12.83375 | 98° | 26km/h | 26248m | 5.8m/s | -48.4°C | 0.9% | 22.1hPa | 2.7V | 00:00:00 | 00:00:00 | 00:00:00 | |
| OE5HKT-10 | 2026-09-05 12:10:33 | 47.96094 | 12.83342 | 91° | 26km/h | 26226m | 5.2m/s | -48.4°C | 3.3% | 22.1hPa | 2.7V | 00:00:00 | 00:00:00 | 00:00:00 | |
| BAUMI2-15 | 2026-09-05 12:10:32 | 47.96094 | 12.83336 | 89° | 16km/h | 26221m | 4.1m/s | -48.4°C | 3.3% | 22.1hPa | 2.7V | 00:00:00 | 01:41:04 | 08:30:00 | |
| PG1ADW-2 | 2026-09-05 12:10:31 | 47.96094 | 12.83330 | 94° | 27km/h | 26216m | 5.5m/s | -48.4°C | 3.3% | 22.1hPa | 2.7V | 00:00:00 | 00:00:00 | 00:00:00 | |
| OM5KV | 2026-09-05 12:10:30 | 47.96094 | 12.83330 | 95° | 15km/h | 26216m | 5.6m/s | -48.5°C | 0.9% | 22.2hPa | 2.7V | 00:00:00 | 00:00:00 | 00:00:00 | |
| DG1MJG | 2026-09-05 12:10:29 | 47.96095 | 12.83324 | 104° | 15km/h | 26210m | 6.3m/s | -48.5°C | 0.9% | 22.2hPa | 2.7V | 00:00:00 | 00:00:00 | 00:00:00 | |
| BAUMI2-15 | 2026-09-05 12:10:27 | 47.96097 | 12.83304 | 92° | 29km/h | 26193m | 6.5m/s | -48.5°C | 3.3% | 22.2hPa | 2.7V | 00:00:00 | 01:40:59 | 00:00:00 | |
| OM5KV | 2026-09-05 12:10:26 | 47.96097 | 12.83303 | 92° | 24km/h | 26193m | 6.6m/s | -48.6°C | 0.9% | 22.3hPa | 2.7V | 00:00:00 | 00:00:00 | 00:00:00 | |
| DB0UT-7 | 2026-09-05 12:10:25 | 47.96096 | 12.83283 | 83° | 27km/h | 26181m | 5.5m/s | -48.5°C | 3.4% | 22.3hPa | 2.7V | 00:00:00 | 00:00:00 | 00:00:00 | |
| BAUMI2-15 | 2026-09-05 12:10:22 | 47.96094 | 12.83246 | 88° | 35km/h | 26164m | 4.4m/s | -48.2°C | 3.3% | 22.3hPa | 2.6V | 00:00:00 | 01:40:54 | 00:00:00 | |
| OM5KV | 2026-09-05 12:10:20 | 47.96094 | 12.83232 | 87° | 37km/h | 26159m | 6.0m/s | -48.2°C | 0.9% | 22.4hPa | 2.6V | 00:00:00 | 00:00:00 | 00:00:00 | |
| OM5KV | 2026-09-05 12:10:19 | 47.96092 | 12.83218 | 84° | 38km/h | 26153m | 6.1m/s | -48.2°C | 0.9% | 22.4hPa | 2.6V | 00:00:00 | 00:00:00 | 00:00:00 | |
| OE5WHR-10 | 2026-09-05 12:10:18 | 47.96090 | 12.83192 | 85° | 27km/h | 26143m | 5.3m/s | -48.2°C | 3.2% | 22.4hPa | 2.6V | 00:00:00 | 01:40:50 | 00:00:00 | |
| BAUMI2-15 | 2026-09-05 12:10:17 | 47.96090 | 12.83182 | 88° | 22km/h | 26137m | 6.3m/s | -48.3°C | 3.2% | 22.4hPa | 2.6V | 00:00:00 | 01:40:49 | 00:00:00 | |
| OM5KV | 2026-09-05 12:10:15 | 47.96090 | 12.83173 | 92° | 22km/h | 26131m | 5.2m/s | -48.3°C | 0.9% | 22.5hPa | 2.6V | 00:00:00 | 00:00:00 | 00:00:00 | |
| OE5FHM-15 | 2026-09-05 12:10:13 | 47.96089 | 12.83149 | 78° | 24km/h | 26115m | 5.7m/s | -48.1°C | 3.2% | 22.5hPa | 2.6V | 00:00:00 | 01:40:45 | 00:00:00 | |
| OE5HKT-10 | 2026-09-05 12:10:12 | 47.96087 | 12.83140 | 76° | 27km/h | 26109m | 5.2m/s | -48.1°C | 3.2% | 22.5hPa | 2.6V | 00:00:00 | 01:40:44 | 00:00:00 | |
| PG1ADW-2 | 2026-09-05 12:10:11 | 47.96086 | 12.83130 | 78° | 27km/h | 26104m | 5.6m/s | -48.1°C | 3.2% | 22.5hPa | 2.6V | 00:00:00 | 01:40:43 | 00:00:00 | |
| OM5KV | 2026-09-05 12:10:09 | 47.96084 | 12.83120 | 82° | 27km/h | 26098m | 6.4m/s | -48.1°C | 0.9% | 22.6hPa | 2.6V | 00:00:00 | 00:00:00 | 00:00:00 | |
| OM5KV | 2026-09-05 12:10:08 | 47.96083 | 12.83099 | 86° | 29km/h | 26087m | 4.9m/s | -48.1°C | 0.8% | 22.6hPa | 2.6V | 00:00:00 | 00:00:00 | 00:00:00 | |
| BAUMI2-15 | 2026-09-05 12:10:07 | 47.96082 | 12.83087 | 83° | 33km/h | 26081m | 6.2m/s | -48.1°C | 3.2% | 22.6hPa | 2.6V | 00:00:00 | 01:40:39 | 00:00:00 | |
| OM5KV | 2026-09-05 12:10:03 | 47.96078 | 12.83049 | 83° | 33km/h | 26065m | 5.5m/s | -48.3°C | 0.9% | 22.7hPa | 2.6V | 00:00:00 | 00:00:00 | 00:00:00 | |
| BAUMI2-15 | 2026-09-05 12:10:02 | 47.96076 | 12.83027 | 87° | 24km/h | 26053m | 5.5m/s | -48.3°C | 3.2% | 22.7hPa | 2.6V | 00:00:00 | 01:40:34 | 00:00:00 | |
| OM5KV | 2026-09-05 12:10:01 | 47.96077 | 12.83027 | 87° | 26km/h | 26053m | 5.6m/s | -48.3°C | 0.9% | 22.8hPa | 2.7V | 00:00:00 | 00:00:00 | 00:00:00 | |
| DG1MJG | 2026-09-05 12:09:58 | 47.96072 | 12.83003 | 63° | 22km/h | 26036m | 5.2m/s | -48.3°C | 0.8% | 22.8hPa | 2.7V | 00:00:00 | 00:00:00 | 00:00:00 | |
| OE5WHR-10 | 2026-09-05 12:09:57 | 47.96066 | 12.82988 | 58° | 29km/h | 26025m | 6.5m/s | -48.4°C | 3.2% | 22.8hPa | 2.7V | 00:00:00 | 00:00:00 | 00:00:00 | |
| OM5KV | 2026-09-05 12:09:56 | 47.96064 | 12.82981 | 60° | 22km/h | 26019m | 5.5m/s | -48.6°C | 0% | 22.9hPa | 2.7V | 00:00:00 | 00:00:00 | 00:00:00 | |
| BAUMI2-15 | 2026-09-05 12:09:52 | 47.96049 | 12.82942 | 65° | 37km/h | 25996m | 4.6m/s | -48.9°C | 3.3% | 22.9hPa | 2.7V | 00:00:00 | 01:40:24 | 00:00:00 | |
| OE5DXL-15 | 2026-09-05 12:09:51 | 47.96042 | 12.82915 | 72° | 29km/h | 25985m | 6.3m/s | -49.0°C | 3.4% | 22.9hPa | 2.7V | 00:00:00 | 00:00:00 | 00:00:00 | |
| DB0UT-7 | 2026-09-05 12:09:50 | 47.96042 | 12.82915 | 72° | 26km/h | 25985m | 6.3m/s | -49.0°C | 3.4% | 22.9hPa | 2.7V | 00:00:00 | 01:40:22 | 00:00:00 | |
| OM5KV | 2026-09-05 12:09:49 | 47.96042 | 12.82915 | 72° | 37km/h | 25985m | 6.3m/s | -49.1°C | 0% | 23.0hPa | 2.7V | 00:00:00 | 00:00:00 | 00:00:00 | |
| BAUMI2-15 | 2026-09-05 12:09:47 | 47.96035 | 12.82878 | 74° | 26km/h | 25968m | 6.4m/s | -49.0°C | 3.4% | 23.0hPa | 2.7V | 00:00:00 | 01:40:19 | 08:30:00 | |
| OM5KV | 2026-09-05 12:09:44 | 47.96029 | 12.82859 | 62° | 26km/h | 25957m | 4.5m/s | -49.1°C | 0% | 23.1hPa | 2.6V | 00:00:00 | 00:00:00 | 00:00:00 | |
| BAUMI2-15 | 2026-09-05 12:09:42 | 47.96020 | 12.82840 | 41° | 27km/h | 25940m | 5.2m/s | -49.1°C | 3.4% | 23.1hPa | 2.6V | 00:00:00 | 01:40:14 | 00:00:00 | |
| OE5MMP-10 | 2026-09-05 12:09:41 | 47.96016 | 12.82835 | 39° | 27km/h | 25934m | 5.3m/s | -49.2°C | 3.5% | 23.1hPa | 2.6V | 00:00:00 | 01:40:13 | 00:00:00 | |
| OE5FHM-15 | 2026-09-05 12:09:40 | 47.96011 | 12.82830 | 40° | 29km/h | 25928m | 6.8m/s | -49.1°C | 3.4% | 23.1hPa | 2.6V | 00:00:00 | 01:40:12 | 00:00:00 | |
| OM5KV | 2026-09-05 12:09:39 | 47.96005 | 12.82823 | 41° | 33km/h | 25922m | 5.4m/s | -49.1°C | 0% | 23.2hPa | 2.6V | 00:00:00 | 00:00:00 | 00:00:00 | |
| BAUMI2-15 | 2026-09-05 12:09:37 | 47.95992 | 12.82805 | 44° | 31km/h | 25912m | 6.0m/s | -49.0°C | 3.4% | 23.2hPa | 2.6V | 00:00:00 | 01:40:09 | 00:00:00 | |
| OE5WHR-10 | 2026-09-05 12:09:36 | 47.95986 | 12.82797 | 46° | 29km/h | 25905m | 6.0m/s | -49.0°C | 3.4% | 23.2hPa | 2.6V | 00:00:00 | 00:00:00 | 00:00:00 | |
| OM5KV | 2026-09-05 12:09:33 | 47.95976 | 12.82780 | 50° | 29km/h | 25894m | 5.7m/s | -49.0°C | 0% | 0hPa | 2.6V | 00:00:00 | 00:00:00 | 00:00:00 | |
| BAUMI2-15 | 2026-09-05 12:09:32 | 47.95966 | 12.82762 | 50° | 26km/h | 25882m | 5.1m/s | -48.9°C | 3.4% | 23.3hPa | 2.6V | 00:00:00 | 01:40:04 | 00:00:00 | |
| PG1ADW-2 | 2026-09-05 12:09:31 | 47.95962 | 12.82754 | 52° | 29km/h | 25876m | 5.4m/s | -48.8°C | 3.4% | 23.3hPa | 2.7V | 00:00:00 | 00:00:00 | 00:00:00 | |
| OE5HKT-10 | 2026-09-05 12:09:30 | 47.95958 | 12.82747 | 53° | 29km/h | 25870m | 6.7m/s | -48.8°C | 3.4% | 23.4hPa | 2.7V | 00:00:00 | 00:00:00 | 00:00:00 | |
| BAUMI2-15 | 2026-09-05 12:09:27 | 47.95945 | 12.82726 | 43° | 31km/h | 25853m | 6.6m/s | -48.8°C | 3.4% | 23.4hPa | 2.7V | 00:00:00 | 01:39:59 | 00:00:00 | |
| OM5KV | 2026-09-05 12:09:25 | 47.95933 | 12.82711 | 37° | 33km/h | 25841m | 5.7m/s | -48.9°C | 0% | 0hPa | 2.7V | 00:00:00 | 00:00:00 | 00:00:00 | |
| OE8JPQ-2 | 2026-09-05 12:09:23 | 47.95919 | 12.82697 | 33° | 26km/h | 25829m | 6.0m/s | -48.7°C | 3.3% | 23.5hPa | 2.7V | 00:00:00 | 00:00:00 | 00:00:00 | |
| BAUMI2-15 | 2026-09-05 12:09:22 | 47.95913 | 12.82692 | 32° | 31km/h | 25823m | 5.1m/s | -48.6°C | 3.3% | 23.5hPa | 2.7V | 00:00:00 | 01:39:54 | 00:00:00 | |
| OM5KV | 2026-09-05 12:09:21 | 47.95907 | 12.82686 | 34° | 31km/h | 25817m | 6.4m/s | -48.7°C | 0% | 0hPa | 2.7V | 00:00:00 | 00:00:00 | 00:00:00 | |
| BAUMI2-15 | 2026-09-05 12:09:17 | 47.95882 | 12.82659 | 40° | 27km/h | 25793m | 6.4m/s | -48.7°C | 3.3% | 23.6hPa | 2.7V | 00:00:00 | 01:39:49 | 00:00:00 | |
| OE5WHR-10 | 2026-09-05 12:09:15 | 47.95873 | 12.82647 | 41° | 26km/h | 25782m | 6.1m/s | -48.7°C | 3.3% | 23.7hPa | 2.7V | 00:00:00 | 01:39:47 | 00:00:00 | |
| OM5KV | 2026-09-05 12:09:13 | 47.95868 | 12.82640 | 40° | 29km/h | 25775m | 5.8m/s | -48.7°C | 0% | 0hPa | 2.7V | 00:00:00 | 00:00:00 | 00:00:00 | |
| OM5KV | 2026-09-05 12:09:12 | 47.95856 | 12.82627 | 33° | 29km/h | 25765m | 5.5m/s | -48.8°C | 0% | 0hPa | 2.7V | 00:00:00 | 00:00:00 | 00:00:00 | |
| PG1ADW-2 | 2026-09-05 12:09:11 | 47.95849 | 12.82622 | 26° | 37km/h | 25759m | 6.5m/s | -48.7°C | 3.2% | 23.8hPa | 2.7V | 00:00:00 | 00:00:00 | 00:00:00 | |
| DG1MFX-10 | 2026-09-05 12:09:10 | 47.95849 | 12.82622 | 26° | 27km/h | 25759m | 6.6m/s | -48.7°C | 0.9% | 23.8hPa | 2.7V | 00:00:00 | 00:00:00 | 00:00:00 | |
| OE5HKT-10 | 2026-09-05 12:09:09 | 47.95836 | 12.82616 | 16° | 22km/h | 25748m | 5.1m/s | -48.8°C | 3.3% | 23.8hPa | 2.7V | 00:00:00 | 01:39:41 | 00:00:00 | |
| OM5KV | 2026-09-05 12:09:08 | 47.95829 | 12.82612 | 17° | 31km/h | 25742m | 6.4m/s | -48.9°C | 0% | 0hPa | 2.7V | 00:00:00 | 00:00:00 | 00:00:00 | |
| OE5MMP-10 | 2026-09-05 12:09:07 | 47.95821 | 12.82609 | 17° | 24km/h | 25736m | 5.6m/s | -48.9°C | 3.3% | 23.8hPa | 2.7V | 00:00:00 | 01:39:39 | 00:00:00 | |
| OE5FHM-15 | 2026-09-05 12:09:06 | 47.95813 | 12.82606 | 19° | 20km/h | 25731m | 4.4m/s | -49.1°C | 3.3% | 23.9hPa | 2.7V | 00:00:00 | 01:39:38 | 00:00:00 | |
| BAUMI2-15 | 2026-09-05 12:09:02 | 47.95792 | 12.82593 | 26° | 15km/h | 25707m | 5.3m/s | -49.1°C | 3.4% | 24.0hPa | 2.6V | 00:00:00 | 01:39:34 | 08:30:00 | |
| OM5KV | 2026-09-05 12:09:00 | 47.95788 | 12.82591 | 31° | 16km/h | 25701m | 6.8m/s | 0°C | 0% | 0hPa | 2.6V | 00:00:00 | 00:00:00 | 00:00:00 | |
| OM5KV | 2026-09-05 12:08:59 | 47.95784 | 12.82587 | 31° | 20km/h | 25695m | 5.6m/s | 0°C | 0% | 0hPa | 2.6V | 00:00:00 | 00:00:00 | 00:00:00 | |
| OE8JPQ-2 | 2026-09-05 12:08:58 | 47.95773 | 12.82579 | 23° | 20km/h | 25685m | 5.2m/s | -49.1°C | 3.3% | 24.0hPa | 2.6V | 00:00:00 | 00:00:00 | 00:00:00 | |
| OE5MMP-10 | 2026-09-05 12:08:57 | 47.95768 | 12.82576 | 18° | 20km/h | 25679m | 6.8m/s | -49.1°C | 3.3% | 24.1hPa | 2.6V | 00:00:00 | 01:39:29 | 00:00:00 | |
| OM5KV | 2026-09-05 12:08:56 | 47.95768 | 12.82576 | 19° | 24km/h | 25679m | 6.9m/s | 0°C | 0% | 0hPa | 2.7V | 00:00:00 | 00:00:00 | 00:00:00 | |
| OE5WHR-10 | 2026-09-05 12:08:54 | 47.95750 | 12.82569 | 17° | 18km/h | 25661m | 6.6m/s | -49.2°C | 3.4% | 24.1hPa | 2.7V | 00:00:00 | 00:00:00 | 08:30:00 | |
| OE5DXL-15 | 2026-09-05 12:08:51 | 47.95733 | 12.82560 | 23° | 20km/h | 25646m | 6.0m/s | -49.5°C | 3.4% | 24.2hPa | 2.7V | 00:00:00 | 00:00:00 | 00:00:00 | |
| DO3MHA-11 | 2026-09-05 12:08:50 | 47.95729 | 12.82558 | 19° | 18km/h | 25640m | 6.2m/s | -49.5°C | 3.5% | 24.2hPa | 2.7V | 00:00:00 | 01:39:22 | 00:00:00 | |
| OE5HKT-10 | 2026-09-05 12:08:48 | 47.95723 | 12.82555 | 11° | 20km/h | 25629m | 5.0m/s | -49.5°C | 3.5% | 24.2hPa | 2.7V | 00:00:00 | 00:00:00 | 00:00:00 | |
| OM5KV | 2026-09-05 12:08:47 | 47.95720 | 12.82554 | 19° | 13km/h | 25623m | 5.9m/s | 0°C | 0% | 0hPa | 2.7V | 00:00:00 | 00:00:00 | 00:00:00 | |
| OM5KV | 2026-09-05 12:08:45 | 47.95717 | 12.82552 | 29° | 16km/h | 25618m | 5.9m/s | 0°C | 0% | 0hPa | 2.7V | 00:00:00 | 00:00:00 | 00:00:00 | |
| OE5MMP-10 | 2026-09-05 12:08:37 | 47.95674 | 12.82533 | 18° | 22km/h | 25570m | 5.4m/s | -49.7°C | 3.5% | 24.5hPa | 2.7V | 00:00:00 | 01:39:09 | 00:00:00 | |
| OE8JPQ-2 | 2026-09-05 12:08:35 | 47.95667 | 12.82527 | 37° | 22km/h | 25559m | 5.4m/s | -49.6°C | 3.5% | 24.5hPa | 2.7V | 00:00:00 | 01:39:07 | 00:00:00 | |
| OE5FHM-15 | 2026-09-05 12:08:34 | 47.95664 | 12.82524 | 43° | 22km/h | 25554m | 5.0m/s | -49.6°C | 3.5% | 24.5hPa | 2.7V | 00:00:00 | 01:39:06 | 00:00:00 | |
| OE5WHR-10 | 2026-09-05 12:08:33 | 47.95661 | 12.82520 | 45° | 24km/h | 25548m | 5.4m/s | -49.7°C | 3.6% | 24.5hPa | 2.7V | 00:00:00 | 00:00:00 | 00:00:00 | |
| DG1MFX-10 | 2026-09-05 12:08:30 | 47.95654 | 12.82510 | 45° | 24km/h | 25537m | 5.5m/s | -49.7°C | 1.0% | 24.6hPa | 2.7V | 00:00:00 | 00:00:00 | 00:00:00 | |
| OE5HKT-10 | 2026-09-05 12:08:27 | 47.95636 | 12.82479 | 50° | 22km/h | 25516m | 5.2m/s | -49.5°C | 3.6% | 24.7hPa | 2.7V | 00:00:00 | 00:00:00 | 00:00:00 | |
| OE5MMP-10 | 2026-09-05 12:08:26 | 47.95632 | 12.82473 | 41° | 24km/h | 25510m | 5.7m/s | -49.5°C | 3.6% | 24.7hPa | 2.7V | 00:00:00 | 01:38:58 | 08:30:00 | |
| OE5DXL-15 | 2026-09-05 12:08:21 | 47.95604 | 12.82453 | 36° | 20km/h | 25484m | 6.0m/s | -49.4°C | 3.4% | 24.8hPa | 2.7V | 00:00:00 | 00:00:00 | 00:00:00 | |
| DB0UT-7 | 2026-09-05 12:08:15 | 47.95582 | 12.82413 | 46° | 16km/h | 25449m | 5.7m/s | -49.1°C | 3.4% | 24.9hPa | 2.7V | 00:00:00 | 00:00:00 | 00:00:00 | |
| OE8JPQ-2 | 2026-09-05 12:08:14 | 47.95577 | 12.82407 | 39° | 18km/h | 25444m | 4.8m/s | -49.1°C | 3.3% | 25.0hPa | 2.7V | 00:00:00 | 00:00:00 | 08:30:00 | |
| OE5WHR-10 | 2026-09-05 12:08:12 | 47.95568 | 12.82397 | 31° | 18km/h | 25434m | 5.7m/s | -49.2°C | 3.4% | 25.0hPa | 2.6V | 00:00:00 | 01:38:44 | 00:00:00 | |
| DG1MFX-10 | 2026-09-05 12:08:10 | 47.95564 | 12.82393 | 30° | 16km/h | 25428m | 5.8m/s | -49.1°C | 1.0% | 25.1hPa | 2.6V | 00:00:00 | 00:00:00 | 00:00:00 | |
| OE5HKT-10 | 2026-09-05 12:08:06 | 47.95543 | 12.82382 | 16° | 16km/h | 25400m | 5.4m/s | -49.2°C | 3.4% | 25.1hPa | 2.6V | 00:00:00 | 01:38:38 | 00:00:00 | |
| OE5MMP-10 | 2026-09-05 12:08:04 | 47.95534 | 12.82379 | 13° | 16km/h | 25389m | 5.2m/s | -49.3°C | 3.4% | 25.2hPa | 2.6V | 00:00:00 | 01:38:36 | 00:00:00 | |
| OE5FHM-15 | 2026-09-05 12:08:03 | 47.95529 | 12.82377 | 12° | 15km/h | 25383m | 5.2m/s | -49.2°C | 3.4% | 25.2hPa | 2.6V | 00:00:00 | 01:38:35 | 00:00:00 | |
| OE5DRO-10 | 2026-09-05 12:08:02 | 47.95524 | 12.82376 | 11° | 16km/h | 25378m | 6.3m/s | -49.3°C | 3.4% | 25.2hPa | 2.6V | 00:00:00 | 00:00:00 | 00:00:00 | |
| DG1MJG | 2026-09-05 12:07:56 | 47.95502 | 12.82368 | 22° | 11km/h | 25351m | 4.6m/s | -49.5°C | 0.9% | 25.3hPa | 2.6V | 00:00:00 | 00:00:00 | 00:00:00 | |
| OE5MMP-10 | 2026-09-05 12:07:54 | 47.95492 | 12.82363 | 14° | 15km/h | 25335m | 5.4m/s | -49.5°C | 3.4% | 25.4hPa | 2.6V | 00:00:00 | 01:38:26 | 00:00:00 | |
| OE5WHR-10 | 2026-09-05 12:07:51 | 47.95479 | 12.82364 | 341° | 15km/h | 25318m | 5.6m/s | -49.5°C | 3.4% | 25.4hPa | 2.7V | 00:00:00 | 00:00:00 | 00:00:00 | |
| DG1MFX-10 | 2026-09-05 12:07:49 | 47.95476 | 12.82366 | 337° | 15km/h | 25313m | 4.5m/s | -49.6°C | 1.0% | 25.5hPa | 2.7V | 00:00:00 | 00:00:00 | 00:00:00 | |
| OE5HKT-10 | 2026-09-05 12:07:45 | 47.95458 | 12.82373 | 345° | 13km/h | 25284m | 5.5m/s | -49.5°C | 3.5% | 25.6hPa | 2.7V | 00:00:00 | 00:00:00 | 08:30:00 | |
| OE5MMP-10 | 2026-09-05 12:07:44 | 47.95455 | 12.82374 | 354° | 15km/h | 25279m | 4.3m/s | -49.6°C | 3.5% | 25.6hPa | 2.7V | 00:00:00 | 01:38:16 | 00:00:00 | |
| OE5DRO-10 | 2026-09-05 12:07:39 | 47.95433 | 12.82365 | 18° | 11km/h | 25252m | 6.0m/s | -49.5°C | 3.5% | 25.7hPa | 2.7V | 00:00:00 | 00:00:00 | 08:30:00 | |
| OE8JPQ-2 | 2026-09-05 12:07:36 | 47.95418 | 12.82363 | 360° | 9km/h | 25226m | 4.8m/s | -49.3°C | 3.5% | 25.8hPa | 2.7V | 00:00:00 | 01:38:06 | 00:00:00 | |
| OE5FHM-15 | 2026-09-05 12:07:34 | 47.95415 | 12.82363 | 354° | 7km/h | 25221m | 4.7m/s | -49.4°C | 3.4% | 25.8hPa | 2.7V | 00:00:00 | 01:38:05 | 08:30:00 | |
| OE5WHR-10 | 2026-09-05 12:07:30 | 47.95410 | 12.82367 | 326° | 7km/h | 25204m | 4.9m/s | -49.2°C | 3.4% | 25.9hPa | 2.6V | 00:00:00 | 00:00:00 | 00:00:00 | |
| DG1MFX-10 | 2026-09-05 12:07:29 | 47.95410 | 12.82367 | 326° | 7km/h | 25204m | 4.9m/s | -49.3°C | 1.0% | 25.9hPa | 2.6V | 00:00:00 | 00:00:00 | 00:00:00 | |
| DG1MJG | 2026-09-05 12:07:25 | 47.95398 | 12.82368 | 10° | 15km/h | 25182m | 5.4m/s | -49.3°C | 0.9% | 26.0hPa | 2.6V | 00:00:00 | 00:00:00 | 00:00:00 | |
| OE5HKT-10 | 2026-09-05 12:07:24 | 47.95392 | 12.82367 | 8° | 5km/h | 25170m | 5.7m/s | -49.2°C | 3.4% | 26.0hPa | 2.6V | 00:00:00 | 00:00:00 | 00:00:00 | |
| OE5DXL-15 | 2026-09-05 12:07:21 | 47.95385 | 12.82364 | 18° | 5km/h | 25154m | 4.2m/s | -49.1°C | 3.3% | 26.1hPa | 2.6V | 00:00:00 | 00:00:00 | 00:00:00 | |
| OE5DRO-10 | 2026-09-05 12:07:17 | 47.95380 | 12.82364 | 350° | 4km/h | 25132m | 5.0m/s | -49.1°C | 3.3% | 26.2hPa | 2.6V | 00:00:00 | 00:00:00 | 00:00:00 | |
| OE5MMP-10 | 2026-09-05 12:07:14 | 47.95374 | 12.82363 | 11° | 5km/h | 25117m | 4.4m/s | -49.2°C | 3.3% | 26.3hPa | 2.6V | 00:00:00 | 01:37:46 | 00:00:00 | |
| DL6DJ-15 | 2026-09-05 12:07:11 | 47.95370 | 12.82362 | 42° | 0km/h | 25101m | 5.3m/s | 0°C | -1.0% | -1.0hPa | 2.6V | 00:00:00 | 00:00:00 | 00:00:00 | |
| OE5WHR-10 | 2026-09-05 12:07:09 | 47.95371 | 12.82360 | 96° | 5km/h | 25091m | 5.8m/s | -49.3°C | 3.3% | 26.3hPa | 2.6V | 00:00:00 | 01:37:41 | 00:00:00 | |
| DG1MFX-10 | 2026-09-05 12:07:08 | 47.95370 | 12.82360 | 97° | 5km/h | 25091m | 5.9m/s | -49.4°C | 0.9% | 26.4hPa | 2.6V | 00:00:00 | 00:00:00 | 00:00:00 | |
| OE5MMP-10 | 2026-09-05 12:07:04 | 47.95368 | 12.82353 | 294° | 5km/h | 25064m | 4.6m/s | -49.6°C | 3.4% | 26.5hPa | 2.6V | 00:00:00 | 01:37:36 | 00:00:00 | |
| OE5FHM-15 | 2026-09-05 12:07:03 | 47.95368 | 12.82353 | 320° | 11km/h | 25059m | 5.3m/s | -49.7°C | 3.4% | 26.5hPa | 2.6V | 00:00:00 | 01:37:35 | 00:00:00 | |
| OE5MMP-10 | 2026-09-05 12:06:54 | 47.95374 | 12.82354 | 126° | 9km/h | 25011m | 4.2m/s | -50.1°C | 3.5% | 26.7hPa | 2.6V | 00:00:00 | 01:37:26 | 08:30:00 | |
| BAUMI2-15 | 2026-09-05 12:06:53 | 47.95375 | 12.82351 | 131° | 9km/h | 25006m | 5.7m/s | -50.2°C | 3.5% | 26.7hPa | 2.6V | 00:00:00 | 01:37:25 | 00:00:00 | |
| OE5DXL-15 | 2026-09-05 12:06:51 | 47.95379 | 12.82347 | 161° | 15km/h | 24995m | 4.8m/s | -50.2°C | 3.5% | 26.7hPa | 2.6V | 00:00:00 | 00:00:00 | 00:00:00 | |
| OE5WHR-10 | 2026-09-05 12:06:48 | 47.95386 | 12.82341 | 121° | 11km/h | 24979m | 5.8m/s | -50.1°C | 3.5% | 26.8hPa | 2.6V | 00:00:00 | 00:00:00 | 00:00:00 | |
| OE5MMP-10 | 2026-09-05 12:06:44 | 47.95387 | 12.82329 | 81° | 11km/h | 24959m | 5.5m/s | -50.1°C | 3.5% | 26.9hPa | 2.6V | 00:00:00 | 01:37:16 | 00:00:00 | |
| BAUMI2-15 | 2026-09-05 12:06:43 | 47.95387 | 12.82327 | 53° | 7km/h | 24954m | 4.6m/s | -50.1°C | 3.5% | 26.9hPa | 2.6V | 00:00:00 | 01:37:15 | 00:00:00 | |
| DL6DJ-15 | 2026-09-05 12:06:40 | 47.95386 | 12.82321 | 91° | 11km/h | 24938m | 5.0m/s | 0°C | -1.0% | -1.0hPa | 2.7V | 00:00:00 | 00:00:00 | 00:00:00 | |
| BAUMI2-15 | 2026-09-05 12:06:38 | 47.95387 | 12.82310 | 104° | 16km/h | 24928m | 5.6m/s | -49.9°C | 3.4% | 27.0hPa | 2.7V | 00:00:00 | 01:37:10 | 00:00:00 | |
| OE5HKT-10 | 2026-09-05 12:06:37 | 47.95388 | 12.82305 | 110° | 20km/h | 24923m | 5.2m/s | -49.9°C | 3.4% | 27.0hPa | 2.7V | 00:00:00 | 00:00:00 | 00:00:00 | |
| OE8JPQ-2 | 2026-09-05 12:06:34 | 47.95390 | 12.82288 | 91° | 20km/h | 24908m | 5.9m/s | -50.0°C | 3.4% | 27.1hPa | 2.7V | 00:00:00 | 01:37:06 | 00:00:00 | |
| BAUMI2-15 | 2026-09-05 12:06:33 | 47.95390 | 12.82281 | 83° | 15km/h | 24902m | 4.2m/s | -50.0°C | 3.4% | 27.1hPa | 2.7V | 00:00:00 | 01:37:05 | 00:00:00 | |
| OE5FHM-15 | 2026-09-05 12:06:31 | 47.95389 | 12.82269 | 84° | 20km/h | 24893m | 5.9m/s | -50.1°C | 3.4% | 27.2hPa | 2.7V | 00:00:00 | 01:37:03 | 00:00:00 | |
| BAUMI2-15 | 2026-09-05 12:06:28 | 47.95392 | 12.82255 | 118° | 22km/h | 24878m | 5.3m/s | -50.3°C | 3.5% | 27.2hPa | 2.7V | 00:00:00 | 01:37:00 | 00:00:00 | |
| OE5WHR-10 | 2026-09-05 12:06:27 | 47.95393 | 12.82249 | 111° | 24km/h | 24872m | 5.6m/s | -50.4°C | 3.5% | 27.3hPa | 2.6V | 00:00:00 | 00:00:00 | 00:00:00 | |
| OE5MMP-10 | 2026-09-05 12:06:24 | 47.95397 | 12.82223 | 98° | 22km/h | 24856m | 5.9m/s | -50.6°C | 3.5% | 27.3hPa | 2.6V | 00:00:00 | 01:36:56 | 00:00:00 | |
| BAUMI2-15 | 2026-09-05 12:06:23 | 47.95398 | 12.82214 | 95° | 24km/h | 24850m | 5.2m/s | -50.6°C | 3.6% | 27.3hPa | 2.7V | 00:00:00 | 01:36:55 | 00:00:00 | |
| OE5DXL-15 | 2026-09-05 12:06:21 | 47.95398 | 12.82198 | 85° | 20km/h | 24840m | 6.2m/s | -50.8°C | 3.6% | 27.4hPa | 2.7V | 00:00:00 | 00:00:00 | 00:00:00 | |
| BAUMI2-15 | 2026-09-05 12:06:18 | 47.95395 | 12.82171 | 82° | 22km/h | 24823m | 6.2m/s | -51.0°C | 3.6% | 27.5hPa | 2.6V | 00:00:00 | 01:36:50 | 00:00:00 | |
| OE5HKT-10 | 2026-09-05 12:06:15 | 47.95395 | 12.82148 | 92° | 18km/h | 24807m | 5.9m/s | -51.0°C | 3.6% | 27.5hPa | 2.6V | 00:00:00 | 00:00:00 | 00:00:00 | |
| OE5MMP-10 | 2026-09-05 12:06:14 | 47.95395 | 12.82139 | 96° | 24km/h | 24801m | 5.4m/s | -51.0°C | 3.6% | 27.6hPa | 2.6V | 00:00:00 | 01:36:46 | 00:00:00 | |
| BAUMI2-15 | 2026-09-05 12:06:13 | 47.95396 | 12.82129 | 99° | 24km/h | 24796m | 5.3m/s | -51.0°C | 3.6% | 27.6hPa | 2.6V | 00:00:00 | 01:36:45 | 08:30:00 | |
| BAUMI2-15 | 2026-09-05 12:06:08 | 47.95398 | 12.82084 | 79° | 20km/h | 24769m | 6.3m/s | -50.9°C | 3.6% | 27.7hPa | 2.7V | 00:00:00 | 01:36:40 | 00:00:00 | |
| DG1MFX-10 | 2026-09-05 12:06:07 | 47.95397 | 12.82077 | 70° | 22km/h | 24763m | 5.0m/s | -51.0°C | 1.0% | 27.8hPa | 2.7V | 00:00:00 | 00:00:00 | 00:00:00 | |
| OE5WHR-10 | 2026-09-05 12:06:06 | 47.95394 | 12.82069 | 62° | 15km/h | 24758m | 5.0m/s | -50.9°C | 3.5% | 27.8hPa | 2.7V | 00:00:00 | 01:36:38 | 00:00:00 | |
| OE5MMP-10 | 2026-09-05 12:06:04 | 47.95389 | 12.82058 | 53° | 16km/h | 24746m | 5.3m/s | -51.0°C | 3.5% | 27.8hPa | 2.7V | 00:00:00 | 01:36:36 | 00:00:00 | |
| BAUMI2-15 | 2026-09-05 12:06:03 | 47.95387 | 12.82054 | 57° | 15km/h | 24742m | 4.8m/s | -51.1°C | 3.5% | 27.8hPa | 2.7V | 00:00:00 | 01:36:35 | 00:00:00 | |
| OE5FHM-15 | 2026-09-05 12:06:01 | 47.95384 | 12.82043 | 74° | 13km/h | 24731m | 4.7m/s | -51.2°C | 3.6% | 27.9hPa | 2.7V | 00:00:00 | 01:36:33 | 00:00:00 | |
| BAUMI2-15 | 2026-09-05 12:05:58 | 47.95382 | 12.82026 | 88° | 16km/h | 24714m | 5.2m/s | -51.4°C | 3.6% | 27.9hPa | 2.6V | 00:00:00 | 01:36:30 | 00:00:00 | |
| OE5MMP-10 | 2026-09-05 12:05:54 | 47.95380 | 12.82000 | 78° | 13km/h | 24693m | 4.8m/s | -51.5°C | 3.7% | 28.0hPa | 2.6V | 00:00:00 | 01:36:26 | 00:00:00 | |
| OE8JPQ-2 | 2026-09-05 12:05:53 | 47.95379 | 12.81992 | 75° | 13km/h | 24688m | 5.9m/s | -51.6°C | 3.7% | 28.1hPa | 2.7V | 00:00:00 | 00:00:00 | 00:00:00 | |
| OE5DXL-15 | 2026-09-05 12:05:51 | 47.95376 | 12.81982 | 65° | 9km/h | 24676m | 4.6m/s | -51.7°C | 3.7% | 28.1hPa | 2.7V | 00:00:00 | 00:00:00 | 00:00:00 | |
| OE5WHR-10 | 2026-09-05 12:05:46 | 47.95366 | 12.81967 | 351° | 9km/h | 24646m | 5.5m/s | -51.9°C | 3.8% | 28.2hPa | 2.7V | 00:00:00 | 00:00:00 | 08:30:00 | |
| OE5MMP-10 | 2026-09-05 12:05:44 | 47.95364 | 12.81968 | 339° | 11km/h | 24641m | 4.8m/s | -51.8°C | 3.8% | 28.3hPa | 2.7V | 00:00:00 | 01:36:16 | 00:00:00 | |
| BAUMI2-15 | 2026-09-05 12:05:43 | 47.95363 | 12.81969 | 6° | 7km/h | 24636m | 5.5m/s | -51.9°C | 3.8% | 28.3hPa | 2.7V | 00:00:00 | 01:36:15 | 00:00:00 | |
| BAUMI2-15 | 2026-09-05 12:05:38 | 47.95360 | 12.81955 | 44° | 16km/h | 24608m | 4.7m/s | -51.9°C | 3.8% | 28.4hPa | 2.7V | 00:00:00 | 01:36:10 | 00:00:00 | |
| OE5MMP-10 | 2026-09-05 12:05:34 | 47.95347 | 12.81942 | 23° | 9km/h | 24588m | 4.1m/s | -51.8°C | 3.7% | 28.5hPa | 2.7V | 00:00:00 | 01:36:06 | 00:00:00 | |
| BAUMI2-15 | 2026-09-05 12:05:33 | 47.95343 | 12.81940 | 7° | 13km/h | 24583m | 5.6m/s | -51.8°C | 3.7% | 28.5hPa | 2.7V | 00:00:00 | 01:36:05 | 00:00:00 | |
| OE5HKT-10 | 2026-09-05 12:05:32 | 47.95339 | 12.81941 | 343° | 9km/h | 24578m | 6.0m/s | -51.8°C | 3.7% | 28.5hPa | 2.7V | 00:00:00 | 00:00:00 | 00:00:00 | |
| OE5FHM-15 | 2026-09-05 12:05:31 | 47.95336 | 12.81943 | 319° | 9km/h | 24572m | 4.6m/s | -51.9°C | 3.7% | 28.6hPa | 2.6V | 00:00:00 | 01:36:03 | 00:00:00 | |
| BAUMI2-15 | 2026-09-05 12:05:28 | 47.95332 | 12.81952 | 292° | 4km/h | 24557m | 5.1m/s | -52.0°C | 3.8% | 28.6hPa | 2.6V | 00:00:00 | 01:36:00 | 08:30:00 | |
| DG1MFX-10 | 2026-09-05 12:05:25 | 47.95331 | 12.81953 | 25° | 4km/h | 24546m | 5.8m/s | -51.9°C | 1.1% | 28.7hPa | 2.6V | 00:00:00 | 00:00:00 | 00:00:00 | |
| DG1MJG | 2026-09-05 12:05:24 | 47.95328 | 12.81951 | 15° | 7km/h | 24535m | 5.3m/s | -51.9°C | 1.1% | 28.8hPa | 2.6V | 00:00:00 | 00:00:00 | 00:00:00 | |
| BAUMI2-15 | 2026-09-05 12:05:23 | 47.95326 | 12.81951 | 23° | 11km/h | 24530m | 5.0m/s | -51.9°C | 3.9% | 28.8hPa | 2.6V | 00:00:00 | 01:35:55 | 00:00:00 | |
| OE5DXL-15 | 2026-09-05 12:05:21 | 47.95321 | 12.81946 | 33° | 9km/h | 24518m | 4.9m/s | -52.0°C | 3.8% | 28.8hPa | 2.6V | 00:00:00 | 00:00:00 | 00:00:00 | |
| BAUMI2-15 | 2026-09-05 12:05:18 | 47.95313 | 12.81945 | 338° | 7km/h | 24502m | 5.3m/s | -52.1°C | 3.9% | 28.9hPa | 2.6V | 00:00:00 | 01:35:50 | 00:00:00 | |
| S52SK | 2026-09-05 12:05:16 | 47.95309 | 12.81949 | 320° | 7km/h | 24491m | 6.1m/s | -52.1°C | 1.1% | 29.0hPa | 2.6V | 00:00:00 | 00:00:00 | 00:00:00 | |
| OE5MMP-10 | 2026-09-05 12:05:14 | 47.95307 | 12.81953 | 289° | 9km/h | 24480m | 5.4m/s | -52.1°C | 3.8% | 29.0hPa | 2.6V | 00:00:00 | 01:35:46 | 00:00:00 | |
| BAUMI2-15 | 2026-09-05 12:05:13 | 47.95306 | 12.81954 | 294° | 5km/h | 24474m | 6.1m/s | -52.1°C | 3.8% | 29.0hPa | 2.6V | 00:00:00 | 01:35:45 | 00:00:00 | |
| OE5HKT-10 | 2026-09-05 12:05:11 | 47.95305 | 12.81955 | 45° | 13km/h | 24464m | 4.9m/s | -52.1°C | 3.8% | 29.0hPa | 2.6V | 00:00:00 | 00:00:00 | 00:00:00 | |
| OE8JPQ-2 | 2026-09-05 12:05:10 | 47.95305 | 12.81953 | 74° | 11km/h | 24458m | 6.1m/s | -52.1°C | 3.8% | 29.1hPa | 2.6V | 00:00:00 | 00:00:00 | 08:30:00 | |
| BAUMI2-15 | 2026-09-05 12:05:08 | 47.95303 | 12.81945 | 61° | 16km/h | 24447m | 5.1m/s | -52.0°C | 3.8% | 29.1hPa | 2.6V | 00:00:00 | 01:35:40 | 00:00:00 | |
| DG1MFX-10 | 2026-09-05 12:05:06 | 47.95297 | 12.81936 | 35° | 18km/h | 24436m | 5.4m/s | -52.1°C | 1.1% | 29.2hPa | 2.6V | 00:00:00 | 00:00:00 | 00:00:00 | |
| OE5MMP-10 | 2026-09-05 12:05:04 | 47.95290 | 12.81931 | 25° | 9km/h | 24425m | 5.8m/s | -52.2°C | 3.8% | 29.2hPa | 2.6V | 00:00:00 | 01:35:36 | 00:00:00 | |
| OE5WHR-10 | 2026-09-05 12:05:03 | 47.95287 | 12.81929 | 11° | 11km/h | 24420m | 4.7m/s | -52.2°C | 3.9% | 29.3hPa | 2.6V | 00:00:00 | 01:35:35 | 00:00:00 | |
| OE5FHM-15 | 2026-09-05 12:05:01 | 47.95282 | 12.81931 | 336° | 13km/h | 24408m | 6.6m/s | -52.1°C | 3.9% | 29.3hPa | 2.6V | 00:00:00 | 01:35:33 | 00:00:00 | |
| OE5MMP-10 | 2026-09-05 12:04:54 | 47.95272 | 12.81938 | 33° | 15km/h | 24372m | 6.1m/s | -52.0°C | 3.9% | 29.5hPa | 2.6V | 00:00:00 | 01:35:26 | 00:00:00 | |
| DG1MJG | 2026-09-05 12:04:52 | 47.95270 | 12.81936 | 24° | 13km/h | 24366m | 5.6m/s | -52.1°C | 1.1% | 29.5hPa | 2.7V | 00:00:00 | 00:00:00 | 00:00:00 | |
| OE5DXL-15 | 2026-09-05 12:04:51 | 47.95263 | 12.81932 | 20° | 15km/h | 24355m | 5.5m/s | -52.1°C | 3.9% | 29.5hPa | 2.7V | 00:00:00 | 00:00:00 | 08:30:00 | |
| OE5HKT-10 | 2026-09-05 12:04:46 | 47.95245 | 12.81927 | 352° | 15km/h | 24327m | 5.6m/s | -51.8°C | 3.8% | 29.7hPa | 2.6V | 00:00:00 | 01:35:18 | 00:00:00 | |
| OE5MMP-10 | 2026-09-05 12:04:44 | 47.95239 | 12.81928 | 355° | 13km/h | 24317m | 5.3m/s | -52.0°C | 3.9% | 29.7hPa | 2.6V | 00:00:00 | 01:35:16 | 00:00:00 | |
| OE5WHR-10 | 2026-09-05 12:04:42 | 47.95236 | 12.81927 | 54° | 15km/h | 24306m | 4.5m/s | -52.0°C | 3.9% | 29.8hPa | 2.6V | 00:00:00 | 00:00:00 | 00:00:00 | |
| OE5MMP-10 | 2026-09-05 12:04:34 | 47.95210 | 12.81903 | 34° | 15km/h | 24263m | 5.5m/s | -51.9°C | 3.8% | 29.9hPa | 2.7V | 00:00:00 | 01:35:06 | 00:00:00 | |
| OE5FHM-15 | 2026-09-05 12:04:31 | 47.95198 | 12.81894 | 25° | 15km/h | 24245m | 4.7m/s | -52.0°C | 3.9% | 30.0hPa | 2.7V | 00:00:00 | 01:35:03 | 00:00:00 | |
| OE5MMP-10 | 2026-09-05 12:04:24 | 47.95180 | 12.81883 | 349° | 16km/h | 24208m | 4.5m/s | -52.0°C | 3.9% | 30.3hPa | 2.6V | 00:00:00 | 01:34:56 | 00:00:00 | |
| OE5HKT-10 | 2026-09-05 12:04:23 | 47.95175 | 12.81884 | 353° | 16km/h | 24203m | 5.5m/s | -52.0°C | 3.9% | 30.3hPa | 2.6V | 00:00:00 | 00:00:00 | 08:30:00 | |
| OE5WHR-10 | 2026-09-05 12:04:21 | 47.95168 | 12.81884 | 14° | 16km/h | 24191m | 5.1m/s | -52.0°C | 3.9% | 30.3hPa | 2.6V | 00:00:00 | 00:00:00 | 00:00:00 | |
| OE5MMP-10 | 2026-09-05 12:04:14 | 47.95140 | 12.81870 | 22° | 18km/h | 24152m | 4.2m/s | -52.1°C | 3.9% | 30.5hPa | 2.6V | 00:00:00 | 01:34:46 | 00:00:00 | |
| OE8JPQ-2 | 2026-09-05 12:04:09 | 47.95117 | 12.81872 | 347° | 11km/h | 24124m | 6.0m/s | -51.9°C | 3.9% | 30.6hPa | 2.6V | 00:00:00 | 00:00:00 | 00:00:00 | |
| DG1MFX-10 | 2026-09-05 12:04:04 | 47.95096 | 12.81876 | 354° | 16km/h | 24096m | 5.0m/s | -51.8°C | 1.1% | 30.8hPa | 2.6V | 00:00:00 | 00:00:00 | 00:00:00 | |
| OE5HKT-10 | 2026-09-05 12:04:02 | 47.95090 | 12.81877 | 351° | 13km/h | 24084m | 5.7m/s | -51.8°C | 3.8% | 30.8hPa | 2.6V | 00:00:00 | 00:00:00 | 00:00:00 | |
| OE5FHM-15 | 2026-09-05 12:04:01 | 47.95088 | 12.81878 | 337° | 13km/h | 24079m | 4.9m/s | -51.8°C | 3.9% | 30.8hPa | 2.6V | 00:00:00 | 01:34:33 | 00:00:00 | |
| OE5WHR-10 | 2026-09-05 12:04:00 | 47.95086 | 12.81879 | 322° | 13km/h | 24074m | 5.3m/s | -51.7°C | 3.9% | 30.9hPa | 2.6V | 00:00:00 | 01:34:32 | 00:00:00 | |
| OE5MMP-10 | 2026-09-05 12:03:54 | 47.95064 | 12.81895 | 351° | 11km/h | 24041m | 4.2m/s | -51.5°C | 3.8% | 31.0hPa | 2.6V | 00:00:00 | 01:34:26 | 08:30:00 | |
| DG1MJG | 2026-09-05 12:03:52 | 47.95058 | 12.81897 | 331° | 13km/h | 24030m | 5.8m/s | -51.6°C | 1.1% | 31.1hPa | 2.7V | 00:00:00 | 00:00:00 | 00:00:00 | |
| OE5DXL-15 | 2026-09-05 12:03:51 | 47.95055 | 12.81900 | 315° | 13km/h | 24025m | 5.1m/s | -51.4°C | 3.9% | 31.1hPa | 2.7V | 00:00:00 | 00:00:00 | 00:00:00 | |
| OE5MMP-10 | 2026-09-05 12:03:44 | 47.95043 | 12.81921 | 306° | 13km/h | 23987m | 5.7m/s | -51.3°C | 3.8% | 31.3hPa | 2.7V | 00:00:00 | 01:34:16 | 00:00:00 | |
| DG1MFX-10 | 2026-09-05 12:03:42 | 47.95040 | 12.81927 | 304° | 18km/h | 23982m | 4.9m/s | -51.4°C | 1.1% | 31.4hPa | 2.7V | 00:00:00 | 00:00:00 | 00:00:00 | |
| OE5HKT-10 | 2026-09-05 12:03:41 | 47.95035 | 12.81937 | 304° | 13km/h | 23971m | 5.9m/s | -51.2°C | 3.7% | 31.4hPa | 2.7V | 00:00:00 | 01:34:13 | 00:00:00 | |
| OE5WHR-10 | 2026-09-05 12:03:39 | 47.95032 | 12.81945 | 292° | 13km/h | 23960m | 5.5m/s | -51.4°C | 3.7% | 31.4hPa | 2.7V | 00:00:00 | 00:00:00 | 00:00:00 | |
| OE5MMP-10 | 2026-09-05 12:03:34 | 47.95032 | 12.81963 | 242° | 13km/h | 23933m | 4.6m/s | -51.2°C | 3.7% | 31.6hPa | 2.6V | 00:00:00 | 01:34:06 | 00:00:00 | |
| PETON7-10 | 2026-09-05 12:03:32 | 47.95034 | 12.81968 | 264° | 16km/h | 23923m | 6.4m/s | -51.3°C | 3.8% | 31.6hPa | 2.6V | 00:00:00 | 01:34:04 | 00:00:00 | |
| OE5FHM-15 | 2026-09-05 12:03:31 | 47.95034 | 12.81973 | 269° | 16km/h | 23917m | 5.0m/s | -51.2°C | 3.7% | 31.6hPa | 2.6V | 00:00:00 | 01:34:03 | 00:00:00 | |
| OE5MMP-10 | 2026-09-05 12:03:24 | 47.95037 | 12.82011 | 248° | 18km/h | 23880m | 5.2m/s | -51.1°C | 3.8% | 31.8hPa | 2.6V | 00:00:00 | 01:33:56 | 00:00:00 | |
| DG1MFX-10 | 2026-09-05 12:03:22 | 47.95039 | 12.82016 | 238° | 16km/h | 23874m | 5.6m/s | -51.2°C | 1.1% | 31.9hPa | 2.7V | 00:00:00 | 00:00:00 | 00:00:00 | |
| DB0UT-7 | 2026-09-05 12:03:21 | 47.95045 | 12.82025 | 215° | 13km/h | 23863m | 4.8m/s | -51.0°C | 3.8% | 31.9hPa | 2.7V | 00:00:00 | 01:33:53 | 00:00:00 | |
| OE5HKT-10 | 2026-09-05 12:03:20 | 47.95048 | 12.82029 | 218° | 16km/h | 23858m | 4.8m/s | -51.0°C | 3.8% | 31.9hPa | 2.7V | 00:00:00 | 00:00:00 | 00:00:00 | |
| OE5WHR-10 | 2026-09-05 12:03:18 | 47.95055 | 12.82039 | 234° | 15km/h | 23847m | 5.2m/s | -50.9°C | 3.7% | 32.0hPa | 2.6V | 00:00:00 | 00:00:00 | 00:00:00 | |
| PETON7-10 | 2026-09-05 12:03:17 | 47.95058 | 12.82045 | 235° | 16km/h | 23841m | 5.4m/s | -50.8°C | 3.7% | 32.0hPa | 2.6V | 00:00:00 | 00:00:00 | 08:30:00 | |
| OE5MMP-10 | 2026-09-05 12:03:14 | 47.95066 | 12.82061 | 241° | 15km/h | 23826m | 4.7m/s | -50.8°C | 3.6% | 32.1hPa | 2.7V | 00:00:00 | 01:33:46 | 00:00:00 | |
| OE5MMP-10 | 2026-09-05 12:03:04 | 47.95088 | 12.82102 | 230° | 11km/h | 23773m | 4.1m/s | -50.8°C | 3.7% | 32.3hPa | 2.7V | 00:00:00 | 01:33:36 | 00:00:00 | |
| PETON7-10 | 2026-09-05 12:03:02 | 47.95093 | 12.82110 | 226° | 9km/h | 23763m | 5.6m/s | -50.8°C | 3.7% | 32.4hPa | 2.7V | 00:00:00 | 00:00:00 | 00:00:00 | |
| OE5FHM-15 | 2026-09-05 12:03:01 | 47.95095 | 12.82114 | 223° | 9km/h | 23758m | 4.9m/s | -50.7°C | 3.7% | 32.4hPa | 2.7V | 00:00:00 | 01:33:33 | 08:30:00 | |
| OE5HKT-10 | 2026-09-05 12:02:59 | 47.95099 | 12.82120 | 248° | 9km/h | 23748m | 6.1m/s | -50.8°C | 3.7% | 32.5hPa | 2.7V | 00:00:00 | 00:00:00 | 00:00:00 | |
| OE5WHR-10 | 2026-09-05 12:02:57 | 47.95099 | 12.82127 | 263° | 9km/h | 23737m | 4.5m/s | -50.7°C | 3.7% | 32.6hPa | 2.7V | 00:00:00 | 01:33:29 | 00:00:00 | |
| OE5MMP-10 | 2026-09-05 12:02:54 | 47.95102 | 12.82136 | 212° | 9km/h | 23721m | 3.9m/s | -50.7°C | 3.6% | 32.6hPa | 2.7V | 00:00:00 | 01:33:26 | 00:00:00 | |
| DG1MJG | 2026-09-05 12:02:51 | 47.95107 | 12.82141 | 226° | 9km/h | 23706m | 5.3m/s | -50.7°C | 1.0% | 32.7hPa | 2.6V | 00:00:00 | 00:00:00 | 00:00:00 | |
| BAUMI2-15 | 2026-09-05 12:02:49 | 47.95110 | 12.82145 | 207° | 11km/h | 23694m | 4.7m/s | -50.6°C | 3.6% | 32.7hPa | 2.6V | 00:00:00 | 01:33:21 | 00:00:00 | |
| PETON7-10 | 2026-09-05 12:02:47 | 47.95114 | 12.82149 | 229° | 11km/h | 23685m | 6.1m/s | -50.7°C | 3.7% | 32.8hPa | 2.6V | 00:00:00 | 01:33:19 | 00:00:00 | |
| OE5MMP-10 | 2026-09-05 12:02:44 | 47.95120 | 12.82163 | 235° | 7km/h | 23669m | 4.5m/s | -50.6°C | 3.7% | 32.9hPa | 2.6V | 00:00:00 | 01:33:16 | 00:00:00 | |
| BAUMI2-15 | 2026-09-05 12:02:39 | 47.95127 | 12.82173 | 286° | 5km/h | 23642m | 5.5m/s | -50.4°C | 3.6% | 33.0hPa | 2.6V | 00:00:00 | 01:33:11 | 08:30:00 | |
| OE5HKT-10 | 2026-09-05 12:02:38 | 47.95127 | 12.82175 | 285° | 13km/h | 23638m | 4.2m/s | -50.4°C | 3.6% | 33.0hPa | 2.7V | 00:00:00 | 01:33:10 | 00:00:00 | |
| OE5WHR-10 | 2026-09-05 12:02:36 | 47.95128 | 12.82178 | 221° | 13km/h | 23627m | 5.3m/s | -50.3°C | 3.5% | 33.1hPa | 2.7V | 00:00:00 | 00:00:00 | 08:30:00 | |
| OE5MMP-10 | 2026-09-05 12:02:34 | 47.95133 | 12.82183 | 220° | 15km/h | 23617m | 5.1m/s | -50.4°C | 3.5% | 33.1hPa | 2.6V | 00:00:00 | 01:33:06 | 00:00:00 | |
| PETON7-10 | 2026-09-05 12:02:32 | 47.95139 | 12.82192 | 230° | 11km/h | 23606m | 5.1m/s | -50.3°C | 3.5% | 33.2hPa | 2.6V | 00:00:00 | 00:00:00 | 00:00:00 | |
| OE5FHM-15 | 2026-09-05 12:02:31 | 47.95142 | 12.82198 | 225° | 9km/h | 23601m | 5.3m/s | -50.3°C | 3.5% | 33.2hPa | 2.7V | 00:00:00 | 01:33:03 | 00:00:00 | |
| BAUMI2-15 | 2026-09-05 12:02:29 | 47.95150 | 12.82206 | 205° | 11km/h | 23590m | 4.2m/s | -50.3°C | 3.5% | 33.3hPa | 2.7V | 00:00:00 | 01:33:01 | 00:00:00 | |
| OE5MMP-10 | 2026-09-05 12:02:24 | 47.95160 | 12.82216 | 222° | 9km/h | 23565m | 5.3m/s | -50.7°C | 3.6% | 33.4hPa | 2.7V | 00:00:00 | 01:32:56 | 08:30:00 | |
| OE5DXL-15 | 2026-09-05 12:02:21 | 47.95166 | 12.82218 | 185° | 7km/h | 23549m | 4.5m/s | -50.7°C | 3.7% | 33.5hPa | 2.6V | 00:00:00 | 00:00:00 | 00:00:00 | |
| BAUMI2-15 | 2026-09-05 12:02:19 | 47.95170 | 12.82220 | 219° | 11km/h | 23538m | 6.0m/s | -50.9°C | 3.7% | 33.5hPa | 2.6V | 00:00:00 | 01:32:51 | 00:00:00 | |
| PETON7-10 | 2026-09-05 12:02:17 | 47.95174 | 12.82226 | 233° | 9km/h | 23526m | 6.3m/s | -50.8°C | 3.6% | 33.6hPa | 2.6V | 00:00:00 | 00:00:00 | 00:00:00 | |
| OE5WHR-10 | 2026-09-05 12:02:15 | 47.95178 | 12.82234 | 232° | 7km/h | 23516m | 4.4m/s | -50.8°C | 3.7% | 33.6hPa | 2.6V | 00:00:00 | 00:00:00 | 00:00:00 | |
| OE5MMP-10 | 2026-09-05 12:02:14 | 47.95179 | 12.82237 | 238° | 7km/h | 23510m | 6.2m/s | -50.8°C | 3.7% | 33.7hPa | 2.6V | 00:00:00 | 01:32:46 | 00:00:00 | |
| BAUMI2-15 | 2026-09-05 12:02:08 | 47.95188 | 12.82234 | 119° | 7km/h | 23477m | 5.8m/s | -50.8°C | 3.7% | 33.9hPa | 2.6V | 00:00:00 | 01:32:40 | 00:00:00 | |
| OE5MMP-10 | 2026-09-05 12:02:04 | 47.95192 | 12.82226 | 163° | 7km/h | 23455m | 4.7m/s | -50.7°C | 3.6% | 34.0hPa | 2.6V | 00:00:00 | 01:32:36 | 00:00:00 | |
| BAUMI2-15 | 2026-09-05 12:02:03 | 47.95194 | 12.82226 | 173° | 4km/h | 23450m | 4.9m/s | -50.7°C | 3.6% | 34.0hPa | 2.6V | 00:00:00 | 01:32:35 | 00:00:00 | |
| PETON7-10 | 2026-09-05 12:02:02 | 47.95195 | 12.82225 | 174° | 5km/h | 23445m | 6.1m/s | -50.7°C | 3.6% | 34.0hPa | 2.6V | 00:00:00 | 01:32:34 | 00:00:00 | |
| OE5FHM-15 | 2026-09-05 12:02:01 | 47.95195 | 12.82225 | 43° | 7km/h | 23439m | 5.3m/s | -50.6°C | 3.6% | 34.1hPa | 2.6V | 00:00:00 | 01:32:33 | 00:00:00 | |
| DG1MFX-10 | 2026-09-05 12:02:00 | 47.95195 | 12.82225 | 44° | 4km/h | 23434m | 4.4m/s | -50.7°C | 1.1% | 34.1hPa | 2.6V | 00:00:00 | 00:00:00 | 00:00:00 | |
| BAUMI2-15 | 2026-09-05 12:01:58 | 47.95193 | 12.82221 | 82° | 9km/h | 23423m | 5.2m/s | -50.6°C | 3.6% | 34.1hPa | 2.6V | 00:00:00 | 01:32:30 | 00:00:00 | |
| OE5HKT-10 | 2026-09-05 12:01:55 | 47.95192 | 12.82210 | 65° | 7km/h | 23407m | 5.6m/s | -50.7°C | 3.6% | 34.2hPa | 2.6V | 00:00:00 | 00:00:00 | 00:00:00 | |
| OE5MMP-10 | 2026-09-05 12:01:54 | 47.95191 | 12.82207 | 56° | 5km/h | 23402m | 5.2m/s | -50.7°C | 3.6% | 34.3hPa | 2.6V | 00:00:00 | 01:32:26 | 00:00:00 | |
| BAUMI2-15 | 2026-09-05 12:01:53 | 47.95190 | 12.82204 | 58° | 4km/h | 23397m | 4.7m/s | -50.7°C | 3.7% | 34.3hPa | 2.7V | 00:00:00 | 01:32:25 | 08:30:00 | |
| OE5DXL-15 | 2026-09-05 12:01:51 | 47.95189 | 12.82201 | 136° | 7km/h | 23385m | 4.6m/s | -50.8°C | 3.7% | 34.3hPa | 2.6V | 00:00:00 | 00:00:00 | 00:00:00 | |
| BAUMI2-15 | 2026-09-05 12:01:48 | 47.95190 | 12.82200 | 9° | 5km/h | 23370m | 4.7m/s | -50.7°C | 3.7% | 34.4hPa | 2.7V | 00:00:00 | 01:32:20 | 00:00:00 | |
| PETON7-10 | 2026-09-05 12:01:47 | 47.95189 | 12.82200 | 13° | 7km/h | 23365m | 4.4m/s | -50.7°C | 3.7% | 34.5hPa | 2.7V | 00:00:00 | 00:00:00 | 00:00:00 | |
| OE5MMP-10 | 2026-09-05 12:01:44 | 47.95185 | 12.82197 | 37° | 13km/h | 23350m | 4.2m/s | -50.5°C | 3.7% | 34.5hPa | 2.6V | 00:00:00 | 01:32:16 | 00:00:00 | |
| DB0UT-7 | 2026-09-05 12:01:43 | 47.95183 | 12.82195 | 24° | 7km/h | 23345m | 5.2m/s | -50.6°C | 3.6% | 34.6hPa | 2.6V | 00:00:00 | 01:32:15 | 00:00:00 | |
| BAUMI2-15 | 2026-09-05 12:01:38 | 47.95167 | 12.82190 | 18° | 11km/h | 23317m | 4.5m/s | -50.4°C | 3.6% | 34.7hPa | 2.6V | 00:00:00 | 01:32:10 | 00:00:00 | |
| DG1MFX-10 | 2026-09-05 12:01:37 | 47.95167 | 12.82190 | 18° | 11km/h | 23317m | 4.5m/s | -50.5°C | 1.1% | 34.8hPa | 2.6V | 00:00:00 | 00:00:00 | 00:00:00 | |
| OE8JPQ-2 | 2026-09-05 12:01:35 | 47.95158 | 12.82188 | 4° | 9km/h | 23301m | 5.2m/s | -50.5°C | 3.6% | 34.8hPa | 2.6V | 00:00:00 | 01:32:07 | 00:00:00 | |
| OE5MMP-10 | 2026-09-05 12:01:34 | 47.95155 | 12.82187 | 8° | 5km/h | 23296m | 4.6m/s | -50.6°C | 3.6% | 34.8hPa | 2.6V | 00:00:00 | 01:32:06 | 00:00:00 | |
| OE5WHR-10 | 2026-09-05 12:01:33 | 47.95153 | 12.82186 | 26° | 7km/h | 23291m | 6.0m/s | -50.5°C | 3.6% | 34.9hPa | 2.6V | 00:00:00 | 00:00:00 | 00:00:00 | |
| PETON7-10 | 2026-09-05 12:01:32 | 47.95152 | 12.82185 | 76° | 7km/h | 23285m | 5.6m/s | -50.5°C | 3.6% | 34.9hPa | 2.6V | 00:00:00 | 00:00:00 | 00:00:00 | |
| OE5FHM-15 | 2026-09-05 12:01:31 | 47.95152 | 12.82183 | 105° | 7km/h | 23280m | 4.1m/s | -50.5°C | 3.6% | 34.9hPa | 2.6V | 00:00:00 | 01:32:03 | 00:00:00 | |
| BAUMI2-15 | 2026-09-05 12:01:28 | 47.95153 | 12.82177 | 73° | 5km/h | 23264m | 4.7m/s | -50.5°C | 3.6% | 35.0hPa | 2.6V | 00:00:00 | 01:32:00 | 00:00:00 | |
| OE5DRO-10 | 2026-09-05 12:01:25 | 47.95151 | 12.82172 | 54° | 9km/h | 23248m | 5.0m/s | -50.6°C | 3.7% | 35.1hPa | 2.6V | 00:00:00 | 00:00:00 | 00:00:00 | |
| OE5MMP-10 | 2026-09-05 12:01:24 | 47.95151 | 12.82171 | 21° | 7km/h | 23243m | 6.4m/s | -50.6°C | 3.7% | 35.1hPa | 2.6V | 00:00:00 | 01:31:56 | 00:00:00 | |
| BAUMI2-15 | 2026-09-05 12:01:23 | 47.95149 | 12.82170 | 355° | 5km/h | 23237m | 5.2m/s | -50.6°C | 3.7% | 35.2hPa | 2.6V | 00:00:00 | 01:31:55 | 00:00:00 | |
| BAUMI2-15 | 2026-09-05 12:01:18 | 47.95148 | 12.82168 | 133° | 9km/h | 23211m | 5.3m/s | -50.5°C | 3.7% | 35.3hPa | 2.6V | 00:00:00 | 01:31:50 | 00:00:00 | |
| DG1MFX-10 | 2026-09-05 12:01:17 | 47.95148 | 12.82168 | 134° | 9km/h | 23211m | 5.4m/s | -50.6°C | 1.1% | 35.4hPa | 2.6V | 00:00:00 | 00:00:00 | 00:00:00 | |
| OE5MMP-10 | 2026-09-05 12:01:14 | 47.95151 | 12.82155 | 118° | 11km/h | 23189m | 5.8m/s | -50.3°C | 3.5% | 35.4hPa | 2.6V | 00:00:00 | 01:31:46 | 00:00:00 | |
| BAUMI2-15 | 2026-09-05 12:01:13 | 47.95153 | 12.82152 | 138° | 9km/h | 23183m | 5.6m/s | -50.4°C | 3.5% | 35.4hPa | 2.6V | 00:00:00 | 01:31:45 | 00:00:00 | |
| OE5WHR-10 | 2026-09-05 12:01:12 | 47.95155 | 12.82150 | 163° | 15km/h | 23179m | 4.5m/s | -50.3°C | 3.5% | 35.5hPa | 2.6V | 00:00:00 | 00:00:00 | 00:00:00 | |
| OE8JPQ-2 | 2026-09-05 12:01:11 | 47.95157 | 12.82150 | 185° | 13km/h | 23173m | 6.5m/s | -50.3°C | 3.5% | 35.5hPa | 2.6V | 00:00:00 | 00:00:00 | 00:00:00 | |
| PETON7-10 | 2026-09-05 12:01:10 | 47.95159 | 12.82151 | 213° | 16km/h | 23167m | 5.5m/s | -50.3°C | 3.5% | 35.5hPa | 2.7V | 00:00:00 | 01:31:42 | 00:00:00 | |
| BAUMI2-15 | 2026-09-05 12:01:08 | 47.95164 | 12.82156 | 216° | 13km/h | 23156m | 5.9m/s | -50.3°C | 3.6% | 35.6hPa | 2.7V | 00:00:00 | 01:31:40 | 08:30:00 | |
| OE5DRO-10 | 2026-09-05 12:01:05 | 47.95173 | 12.82161 | 187° | 18km/h | 23142m | 5.2m/s | -50.3°C | 3.6% | 35.7hPa | 2.6V | 00:00:00 | 00:00:00 | 00:00:00 | |
| OE5MMP-10 | 2026-09-05 12:01:04 | 47.95176 | 12.82161 | 174° | 15km/h | 23136m | 5.8m/s | -50.3°C | 3.6% | 35.7hPa | 2.6V | 00:00:00 | 01:31:36 | 00:00:00 | |
| BAUMI2-15 | 2026-09-05 12:01:03 | 47.95178 | 12.82160 | 157° | 13km/h | 23130m | 5.1m/s | -50.4°C | 3.6% | 35.7hPa | 2.6V | 00:00:00 | 01:31:35 | 00:00:00 | |
| OE5FHM-15 | 2026-09-05 12:01:01 | 47.95182 | 12.82156 | 147° | 20km/h | 23120m | 6.1m/s | -50.4°C | 3.6% | 35.8hPa | 2.6V | 00:00:00 | 01:31:33 | 00:00:00 | |
| OE5MMP-10 | 2026-09-05 12:00:54 | 47.95214 | 12.82144 | 185° | 24km/h | 23083m | 6.2m/s | -50.3°C | 3.5% | 36.0hPa | 2.6V | 00:00:00 | 01:31:26 | 08:30:00 | |
| OE5WHR-10 | 2026-09-05 12:00:51 | 47.95231 | 12.82144 | 175° | 20km/h | 23066m | 6.0m/s | -50.3°C | 3.5% | 36.1hPa | 2.7V | 00:00:00 | 01:31:23 | 00:00:00 | |
| DG1MJG | 2026-09-05 12:00:48 | 47.95247 | 12.82137 | 158° | 26km/h | 23050m | 5.5m/s | -50.3°C | 1.0% | 36.2hPa | 2.7V | 00:00:00 | 00:00:00 | 00:00:00 | |
| OE5DRO-10 | 2026-09-05 12:00:46 | 47.95258 | 12.82129 | 152° | 20km/h | 23040m | 5.9m/s | -50.3°C | 3.6% | 36.2hPa | 2.7V | 00:00:00 | 00:00:00 | 00:00:00 | |
| OE5MMP-10 | 2026-09-05 12:00:44 | 47.95267 | 12.82122 | 154° | 20km/h | 23029m | 4.9m/s | -50.3°C | 3.5% | 36.3hPa | 2.7V | 00:00:00 | 01:31:16 | 00:00:00 | |
| PETON7-10 | 2026-09-05 12:00:38 | 47.95295 | 12.82113 | 170° | 18km/h | 22997m | 4.8m/s | -50.5°C | 3.6% | 36.5hPa | 2.7V | 00:00:00 | 00:00:00 | 00:00:00 | |
| OE5MMP-10 | 2026-09-05 12:00:34 | 47.95314 | 12.82103 | 150° | 20km/h | 22976m | 4.7m/s | -50.5°C | 3.5% | 36.6hPa | 2.7V | 00:00:00 | 01:31:06 | 00:00:00 | |
| OE5FHM-15 | 2026-09-05 12:00:31 | 47.95326 | 12.82086 | 127° | 18km/h | 22960m | 5.3m/s | -50.5°C | 3.5% | 36.7hPa | 2.7V | 00:00:00 | 01:31:03 | 00:00:00 | |
| OE5WHR-10 | 2026-09-05 12:00:30 | 47.95329 | 12.82080 | 127° | 18km/h | 22954m | 5.8m/s | -50.5°C | 3.5% | 36.7hPa | 2.7V | 00:00:00 | 00:00:00 | 00:00:00 | |
| DG1MFX-10 | 2026-09-05 12:00:28 | 47.95332 | 12.82073 | 125° | 22km/h | 22949m | 4.2m/s | -50.6°C | 1.0% | 36.8hPa | 2.6V | 00:00:00 | 00:00:00 | 00:00:00 | |
| OE5DRO-10 | 2026-09-05 12:00:26 | 47.95338 | 12.82055 | 110° | 16km/h | 22934m | 5.0m/s | -50.5°C | 3.5% | 36.9hPa | 2.6V | 00:00:00 | 00:00:00 | 00:00:00 | |
| OE5HKT-10 | 2026-09-05 12:00:25 | 47.95340 | 12.82050 | 116° | 16km/h | 22929m | 4.4m/s | -50.5°C | 3.6% | 36.9hPa | 2.6V | 00:00:00 | 01:30:57 | 00:00:00 | |
| OE5MMP-10 | 2026-09-05 12:00:24 | 47.95342 | 12.82045 | 124° | 16km/h | 22924m | 5.9m/s | -50.6°C | 3.6% | 36.9hPa | 2.6V | 00:00:00 | 01:30:56 | 00:00:00 | |
| PETON7-10 | 2026-09-05 12:00:22 | 47.95347 | 12.82035 | 133° | 16km/h | 22914m | 4.5m/s | -50.6°C | 3.6% | 36.9hPa | 2.7V | 00:00:00 | 01:30:54 | 00:00:00 | |
| OE5DXL-15 | 2026-09-05 12:00:21 | 47.95350 | 12.82030 | 130° | 18km/h | 22909m | 5.6m/s | -50.7°C | 3.6% | 37.0hPa | 2.7V | 00:00:00 | 00:00:00 | 08:30:00 | |
| DG1MJG | 2026-09-05 12:00:19 | 47.95358 | 12.82017 | 136° | 16km/h | 22894m | 5.8m/s | -50.9°C | 1.0% | 37.1hPa | 2.7V | 00:00:00 | 00:00:00 | 00:00:00 | |
| OE5MMP-10 | 2026-09-05 12:00:14 | 47.95365 | 12.81996 | 96° | 18km/h | 22873m | 4.3m/s | -50.9°C | 3.5% | 37.2hPa | 2.7V | 00:00:00 | 01:30:46 | 00:00:00 | |
| OE5WHR-10 | 2026-09-05 12:00:09 | 47.95371 | 12.81961 | 109° | 18km/h | 22849m | 5.1m/s | -51.2°C | 3.6% | 37.3hPa | 2.7V | 00:00:00 | 00:00:00 | 00:00:00 | |
| PETON7-10 | 2026-09-05 12:00:07 | 47.95372 | 12.81949 | 88° | 18km/h | 22838m | 4.9m/s | -51.2°C | 3.7% | 37.4hPa | 2.7V | 00:00:00 | 00:00:00 | 00:00:00 | |
| OE5MMP-10 | 2026-09-05 12:00:04 | 47.95372 | 12.81930 | 86° | 20km/h | 22823m | 4.3m/s | -51.2°C | 3.8% | 37.5hPa | 2.7V | 00:00:00 | 01:30:36 | 00:00:00 | |
| OE5HKT-10 | 2026-09-05 12:00:02 | 47.95369 | 12.81916 | 66° | 18km/h | 22812m | 5.7m/s | -51.3°C | 3.7% | 37.5hPa | 2.7V | 00:00:00 | 00:00:00 | 00:00:00 | |
| OE5FHM-15 | 2026-09-05 12:00:01 | 47.95367 | 12.81908 | 61° | 15km/h | 22807m | 4.9m/s | -51.4°C | 3.7% | 37.6hPa | 2.7V | 00:00:00 | 01:30:33 | 00:00:00 | |
| DB0UT-7 | 2026-09-05 12:00:00 | 47.95364 | 12.81901 | 62° | 13km/h | 22802m | 5.0m/s | -51.5°C | 3.7% | 37.6hPa | 2.7V | 00:00:00 | 01:30:32 | 00:00:00 | |
| OE5MMP-10 | 2026-09-05 11:59:54 | 47.95354 | 12.81858 | 71° | 18km/h | 22771m | 5.2m/s | -51.5°C | 3.8% | 37.8hPa | 2.7V | 00:00:00 | 01:30:26 | 00:00:00 | |
| PETON7-10 | 2026-09-05 11:59:52 | 47.95351 | 12.81848 | 66° | 15km/h | 22761m | 4.6m/s | -51.5°C | 3.8% | 37.8hPa | 2.6V | 00:00:00 | 00:00:00 | 00:00:00 | |
| OE5DXL-15 | 2026-09-05 11:59:51 | 47.95349 | 12.81843 | 57° | 11km/h | 22756m | 5.1m/s | -51.5°C | 3.8% | 37.9hPa | 2.6V | 00:00:00 | 00:00:00 | 00:00:00 | |
| OE5DRO-10 | 2026-09-05 11:59:48 | 47.95340 | 12.81827 | 48° | 11km/h | 22741m | 4.6m/s | -51.3°C | 3.8% | 38.0hPa | 2.6V | 00:00:00 | 00:00:00 | 00:00:00 | |
| DG1MJG | 2026-09-05 11:59:47 | 47.95336 | 12.81821 | 51° | 18km/h | 22735m | 5.5m/s | -51.4°C | 1.1% | 38.0hPa | 2.6V | 00:00:00 | 00:00:00 | 00:00:00 | |
| OE5MMP-10 | 2026-09-05 11:59:44 | 47.95328 | 12.81805 | 50° | 9km/h | 22720m | 4.8m/s | -51.3°C | 3.7% | 38.1hPa | 2.6V | 00:00:00 | 01:30:16 | 00:00:00 | |
| OE5HKT-10 | 2026-09-05 11:59:41 | 47.95323 | 12.81794 | 89° | 7km/h | 22705m | 4.7m/s | -51.4°C | 3.7% | 38.2hPa | 2.6V | 00:00:00 | 00:00:00 | 00:00:00 | |
| PETON7-10 | 2026-09-05 11:59:37 | 47.95321 | 12.81785 | 53° | 7km/h | 22686m | 4.2m/s | -51.4°C | 3.7% | 38.3hPa | 2.6V | 00:00:00 | 01:30:09 | 00:00:00 | |
| OE5MMP-10 | 2026-09-05 11:59:34 | 47.95318 | 12.81777 | 61° | 9km/h | 22672m | 4.0m/s | -51.4°C | 3.6% | 38.4hPa | 2.6V | 00:00:00 | 01:30:06 | 00:00:00 | |
| OE5FHM-15 | 2026-09-05 11:59:31 | 47.95312 | 12.81768 | 32° | 7km/h | 22657m | 3.9m/s | -51.5°C | 3.8% | 38.4hPa | 2.6V | 00:00:00 | 01:30:03 | 00:00:00 | |
| OE5DRO-10 | 2026-09-05 11:59:29 | 47.95308 | 12.81764 | 37° | 7km/h | 22648m | 5.0m/s | -51.6°C | 3.7% | 38.5hPa | 2.6V | 00:00:00 | 00:00:00 | 00:00:00 | |
| DB0UT-7 | 2026-09-05 11:59:28 | 47.95307 | 12.81763 | 101° | 11km/h | 22644m | 4.3m/s | -51.6°C | 3.7% | 38.5hPa | 2.6V | 00:00:00 | 00:00:00 | 00:00:00 | |
| OE5WHR-10 | 2026-09-05 11:59:27 | 47.95308 | 12.81762 | 136° | 9km/h | 22640m | 4.2m/s | -51.7°C | 3.8% | 38.6hPa | 2.6V | 00:00:00 | 00:00:00 | 08:30:00 | |
| OE5MMP-10 | 2026-09-05 11:59:24 | 47.95310 | 12.81757 | 136° | 5km/h | 22625m | 3.9m/s | -51.7°C | 3.7% | 38.7hPa | 2.7V | 00:00:00 | 01:29:56 | 08:30:00 | |
| PETON7-10 | 2026-09-05 11:59:22 | 47.95311 | 12.81758 | 241° | 9km/h | 22615m | 5.2m/s | -51.8°C | 3.8% | 38.7hPa | 2.6V | 00:00:00 | 00:00:00 | 00:00:00 | |
| OE5DXL-15 | 2026-09-05 11:59:21 | 47.95312 | 12.81760 | 263° | 11km/h | 22610m | 4.4m/s | -51.8°C | 3.7% | 38.7hPa | 2.6V | 00:00:00 | 01:29:53 | 00:00:00 | |
| OE5HKT-10 | 2026-09-05 11:59:20 | 47.95312 | 12.81762 | 289° | 9km/h | 22605m | 5.8m/s | -51.9°C | 3.8% | 38.8hPa | 2.6V | 00:00:00 | 01:29:52 | 00:00:00 | |
| DG1MJG | 2026-09-05 11:59:18 | 47.95308 | 12.81767 | 331° | 5km/h | 22589m | 5.9m/s | -52.0°C | 1.1% | 38.9hPa | 2.6V | 00:00:00 | 00:00:00 | 00:00:00 | |
| OE5MMP-10 | 2026-09-05 11:59:14 | 47.95308 | 12.81763 | 104° | 11km/h | 22574m | 5.8m/s | -51.8°C | 3.7% | 39.0hPa | 2.6V | 00:00:00 | 01:29:46 | 00:00:00 | |
| OE5DRO-10 | 2026-09-05 11:59:10 | 47.95317 | 12.81743 | 140° | 13km/h | 22553m | 4.7m/s | -52.0°C | 3.7% | 39.1hPa | 2.6V | 00:00:00 | 00:00:00 | 08:30:00 | |
| PETON7-10 | 2026-09-05 11:59:07 | 47.95324 | 12.81734 | 131° | 13km/h | 22538m | 4.2m/s | -52.1°C | 3.8% | 39.2hPa | 2.6V | 00:00:00 | 00:00:00 | 00:00:00 | |
| OE5WHR-10 | 2026-09-05 11:59:06 | 47.95325 | 12.81733 | 162° | 13km/h | 22533m | 6.0m/s | -52.1°C | 3.8% | 39.2hPa | 2.6V | 00:00:00 | 00:00:00 | 00:00:00 | |
| OE5MMP-10 | 2026-09-05 11:59:04 | 47.95324 | 12.81734 | 348° | 16km/h | 22523m | 4.5m/s | -52.3°C | 3.8% | 39.3hPa | 2.6V | 00:00:00 | 01:29:36 | 00:00:00 | |
| OE5FHM-15 | 2026-09-05 11:59:01 | 47.95319 | 12.81727 | 67° | 15km/h | 22509m | 3.4m/s | -52.2°C | 3.8% | 39.4hPa | 2.6V | 00:00:00 | 01:29:33 | 00:00:00 | |
| OE5HKT-10 | 2026-09-05 11:58:59 | 47.95318 | 12.81716 | 108° | 15km/h | 22500m | 5.6m/s | -52.3°C | 3.9% | 39.4hPa | 2.6V | 00:00:00 | 00:00:00 | 00:00:00 | |
| BAUMI2-15 | 2026-09-05 11:58:58 | 47.95321 | 12.81709 | 124° | 18km/h | 22495m | 4.6m/s | -52.3°C | 3.8% | 39.4hPa | 2.7V | 00:00:00 | 01:29:30 | 00:00:00 | |
| OE5MMP-10 | 2026-09-05 11:58:54 | 47.95333 | 12.81689 | 147° | 13km/h | 22476m | 4.2m/s | -52.5°C | 3.9% | 39.6hPa | 2.7V | 00:00:00 | 01:29:26 | 00:00:00 | |
| BAUMI2-15 | 2026-09-05 11:58:53 | 47.95336 | 12.81687 | 160° | 9km/h | 22471m | 5.1m/s | -52.5°C | 3.9% | 39.6hPa | 2.7V | 00:00:00 | 01:29:25 | 00:00:00 | |
| PETON7-10 | 2026-09-05 11:58:52 | 47.95338 | 12.81686 | 162° | 13km/h | 22466m | 4.6m/s | -52.6°C | 3.9% | 39.6hPa | 2.6V | 00:00:00 | 01:29:24 | 00:00:00 | |
| OE5DXL-15 | 2026-09-05 11:58:51 | 47.95340 | 12.81684 | 126° | 13km/h | 22462m | 4.3m/s | -52.6°C | 3.9% | 39.6hPa | 2.6V | 00:00:00 | 00:00:00 | 00:00:00 | |
| BAUMI2-15 | 2026-09-05 11:58:48 | 47.95337 | 12.81672 | 61° | 18km/h | 22446m | 5.4m/s | -52.7°C | 3.9% | 39.7hPa | 2.6V | 00:00:00 | 01:29:20 | 00:00:00 | |
| DG1MJG | 2026-09-05 11:58:46 | 47.95333 | 12.81660 | 59° | 18km/h | 22435m | 4.7m/s | -52.9°C | 1.1% | 39.8hPa | 2.6V | 00:00:00 | 00:00:00 | 00:00:00 | |
| OE5MMP-10 | 2026-09-05 11:58:43 | 47.95326 | 12.81642 | 68° | 11km/h | 22419m | 3.8m/s | -52.8°C | 3.9% | 39.9hPa | 2.6V | 00:00:00 | 01:29:15 | 00:00:00 | |
| OE5HKT-10 | 2026-09-05 11:58:38 | 47.95322 | 12.81627 | 57° | 13km/h | 22395m | 5.5m/s | -52.7°C | 4.0% | 40.1hPa | 2.6V | 00:00:00 | 00:00:00 | 00:00:00 | |
| PETON7-10 | 2026-09-05 11:58:37 | 47.95321 | 12.81625 | 50° | 11km/h | 22391m | 4.6m/s | -52.7°C | 4.0% | 40.1hPa | 2.6V | 00:00:00 | 00:00:00 | 08:30:00 | |
| OE5MMP-10 | 2026-09-05 11:58:33 | 47.95307 | 12.81610 | 32° | 13km/h | 22370m | 4.4m/s | -52.8°C | 3.8% | 40.2hPa | 2.6V | 00:00:00 | 01:29:05 | 00:00:00 | |
| OE5DRO-10 | 2026-09-05 11:58:32 | 47.95304 | 12.81606 | 41° | 13km/h | 22365m | 5.8m/s | -52.8°C | 3.9% | 40.2hPa | 2.6V | 00:00:00 | 00:00:00 | 00:00:00 | |
| OE5FHM-15 | 2026-09-05 11:58:31 | 47.95301 | 12.81602 | 54° | 11km/h | 22360m | 4.4m/s | -52.8°C | 3.9% | 40.3hPa | 2.6V | 00:00:00 | 01:29:03 | 08:30:00 | |
| BAUMI2-15 | 2026-09-05 11:58:28 | 47.95296 | 12.81593 | 28° | 5km/h | 22345m | 4.9m/s | -52.8°C | 3.9% | 40.4hPa | 2.6V | 00:00:00 | 01:29:00 | 00:00:00 | |
| OE5WHR-10 | 2026-09-05 11:58:24 | 47.95291 | 12.81591 | 31° | 13km/h | 22326m | 4.6m/s | -53.0°C | 4.0% | 40.5hPa | 2.6V | 00:00:00 | 00:00:00 | 00:00:00 | |
| BAUMI2-15 | 2026-09-05 11:58:23 | 47.95289 | 12.81590 | 23° | 13km/h | 22321m | 5.2m/s | -53.0°C | 4.0% | 40.5hPa | 2.6V | 00:00:00 | 01:28:55 | 08:30:00 | |
| PETON7-10 | 2026-09-05 11:58:22 | 47.95287 | 12.81589 | 12° | 15km/h | 22315m | 6.1m/s | -52.9°C | 4.0% | 40.6hPa | 2.7V | 00:00:00 | 00:00:00 | 00:00:00 | |
| OE5DXL-15 | 2026-09-05 11:58:21 | 47.95284 | 12.81588 | 13° | 11km/h | 22310m | 4.7m/s | -52.9°C | 4.0% | 40.6hPa | 2.7V | 00:00:00 | 00:00:00 | 00:00:00 | |
| BAUMI2-15 | 2026-09-05 11:58:18 | 47.95271 | 12.81581 | 21° | 20km/h | 22294m | 3.9m/s | -53.1°C | 4.0% | 40.7hPa | 2.7V | 00:00:00 | 01:28:50 | 00:00:00 | |
| OE5MMP-10 | 2026-09-05 11:58:15 | 47.95256 | 12.81579 | 345° | 9km/h | 22278m | 4.9m/s | -53.2°C | 4.0% | 40.8hPa | 2.7V | 00:00:00 | 01:28:47 | 00:00:00 | |
| DG1MJG | 2026-09-05 11:58:14 | 47.95257 | 12.81579 | 345° | 18km/h | 22278m | 4.9m/s | -53.3°C | 1.1% | 40.8hPa | 2.6V | 00:00:00 | 00:00:00 | 00:00:00 | |
| BAUMI2-15 | 2026-09-05 11:58:13 | 47.95249 | 12.81584 | 333° | 9km/h | 22268m | 5.9m/s | -53.1°C | 3.9% | 40.8hPa | 2.6V | 00:00:00 | 01:28:45 | 00:00:00 | |
| BAUMI2-15 | 2026-09-05 11:58:08 | 47.95240 | 12.81593 | 333° | 7km/h | 22241m | 5.3m/s | -53.0°C | 3.9% | 41.0hPa | 2.6V | 00:00:00 | 01:28:40 | 00:00:00 | |
| PETON7-10 | 2026-09-05 11:58:07 | 47.95239 | 12.81593 | 41° | 7km/h | 22235m | 6.2m/s | -53.0°C | 3.9% | 41.1hPa | 2.6V | 00:00:00 | 01:28:39 | 00:00:00 | |
| OE5WHR-10 | 2026-09-05 11:58:03 | 47.95235 | 12.81585 | 15° | 9km/h | 22214m | 5.0m/s | -52.9°C | 3.9% | 41.2hPa | 2.6V | 00:00:00 | 00:00:00 | 00:00:00 | |
| OE5FHM-15 | 2026-09-05 11:58:01 | 47.95231 | 12.81585 | 351° | 11km/h | 22205m | 5.7m/s | -52.9°C | 3.8% | 41.3hPa | 2.6V | 00:00:00 | 01:28:33 | 00:00:00 | |
| BAUMI2-15 | 2026-09-05 11:57:58 | 47.95226 | 12.81587 | 327° | 7km/h | 22190m | 4.7m/s | -53.3°C | 3.8% | 41.3hPa | 2.6V | 00:00:00 | 01:28:30 | 00:00:00 | |
| OE5DRO-10 | 2026-09-05 11:57:54 | 47.95229 | 12.81592 | 171° | 13km/h | 22168m | 5.9m/s | -53.8°C | 4.0% | 41.5hPa | 2.6V | 00:00:00 | 00:00:00 | 00:00:00 | |
| OE5MMP-10 | 2026-09-05 11:57:53 | 47.95232 | 12.81590 | 158° | 11km/h | 22163m | 4.3m/s | -54.0°C | 4.1% | 41.5hPa | 2.6V | 00:00:00 | 01:28:25 | 00:00:00 | |
| PETON7-10 | 2026-09-05 11:57:52 | 47.95236 | 12.81588 | 154° | 11km/h | 22158m | 4.3m/s | -54.0°C | 4.1% | 41.5hPa | 2.6V | 00:00:00 | 00:00:00 | 00:00:00 | |
| OE5DXL-15 | 2026-09-05 11:57:51 | 47.95240 | 12.81585 | 154° | 11km/h | 22153m | 5.7m/s | -54.1°C | 4.1% | 41.6hPa | 2.7V | 00:00:00 | 00:00:00 | 00:00:00 | |
| OE5HKT-10 | 2026-09-05 11:57:50 | 47.95243 | 12.81582 | 153° | 11km/h | 22147m | 5.3m/s | -54.1°C | 4.1% | 41.6hPa | 2.7V | 00:00:00 | 00:00:00 | 08:30:00 | |
| BAUMI2-15 | 2026-09-05 11:57:48 | 47.95247 | 12.81579 | 145° | 7km/h | 22138m | 5.1m/s | -54.3°C | 4.1% | 41.7hPa | 2.6V | 00:00:00 | 01:28:20 | 00:00:00 | |
| DG1MJG | 2026-09-05 11:57:44 | 47.95251 | 12.81571 | 118° | 7km/h | 22121m | 4.9m/s | -54.5°C | 1.2% | 41.9hPa | 2.6V | 00:00:00 | 00:00:00 | 00:00:00 | |
| BAUMI2-15 | 2026-09-05 11:57:43 | 47.95252 | 12.81567 | 84° | 13km/h | 22110m | 6.0m/s | -54.4°C | 4.2% | 41.9hPa | 2.6V | 00:00:00 | 01:28:15 | 00:00:00 | |
| OE5WHR-10 | 2026-09-05 11:57:42 | 47.95252 | 12.81564 | 87° | 13km/h | 22105m | 3.7m/s | -54.5°C | 4.2% | 41.9hPa | 2.6V | 00:00:00 | 01:28:14 | 00:00:00 | |
| BAUMI2-15 | 2026-09-05 11:57:38 | 47.95256 | 12.81542 | 113° | 16km/h | 22085m | 4.2m/s | -54.6°C | 4.3% | 42.0hPa | 2.6V | 00:00:00 | 01:28:10 | 08:30:00 | |
| PETON7-10 | 2026-09-05 11:57:37 | 47.95258 | 12.81535 | 111° | 13km/h | 22080m | 5.1m/s | -54.5°C | 4.3% | 42.1hPa | 2.7V | 00:00:00 | 00:00:00 | 00:00:00 | |
| OE5DRO-10 | 2026-09-05 11:57:35 | 47.95260 | 12.81524 | 100° | 11km/h | 22070m | 5.8m/s | -54.5°C | 4.3% | 42.1hPa | 2.7V | 00:00:00 | 00:00:00 | 00:00:00 | |
| BAUMI2-15 | 2026-09-05 11:57:33 | 47.95261 | 12.81516 | 94° | 9km/h | 22058m | 6.0m/s | -54.5°C | 4.3% | 42.2hPa | 2.7V | 00:00:00 | 01:28:05 | 00:00:00 | |
| OE5MMP-10 | 2026-09-05 11:57:32 | 47.95261 | 12.81512 | 96° | 13km/h | 22053m | 4.8m/s | -54.5°C | 4.2% | 42.2hPa | 2.7V | 00:00:00 | 01:28:04 | 08:30:00 | |
| OE5FHM-15 | 2026-09-05 11:57:31 | 47.95261 | 12.81508 | 89° | 11km/h | 22048m | 5.0m/s | -54.5°C | 4.2% | 42.3hPa | 2.6V | 00:00:00 | 01:28:03 | 00:00:00 | |
| OE5HKT-10 | 2026-09-05 11:57:29 | 47.95260 | 12.81501 | 71° | 13km/h | 22037m | 4.8m/s | -54.6°C | 4.3% | 42.4hPa | 2.6V | 00:00:00 | 00:00:00 | 00:00:00 | |
| BAUMI2-15 | 2026-09-05 11:57:28 | 47.95260 | 12.81497 | 81° | 15km/h | 22032m | 5.2m/s | -54.6°C | 4.3% | 42.4hPa | 2.6V | 00:00:00 | 01:28:00 | 00:00:00 | |
| BAUMI2-15 | 2026-09-05 11:57:23 | 47.95260 | 12.81471 | 100° | 5km/h | 22006m | 5.3m/s | -54.6°C | 4.3% | 42.6hPa | 2.6V | 00:00:00 | 01:27:55 | 00:00:00 | |
| PETON7-10 | 2026-09-05 11:57:22 | 47.95261 | 12.81469 | 104° | 13km/h | 22001m | 5.1m/s | -54.5°C | 4.3% | 42.6hPa | 2.6V | 00:00:00 | 01:27:54 | 00:00:00 | |
| OE5WHR-10 | 2026-09-05 11:57:21 | 47.95261 | 12.81467 | 114° | 11km/h | 21996m | 5.5m/s | -54.6°C | 4.3% | 42.6hPa | 2.6V | 00:00:00 | 00:00:00 | 00:00:00 | |
| BAUMI2-15 | 2026-09-05 11:57:18 | 47.95262 | 12.81460 | 64° | 13km/h | 21980m | 5.8m/s | -54.5°C | 4.3% | 42.7hPa | 2.6V | 00:00:00 | 01:27:50 | 00:00:00 | |
| OE5DRO-10 | 2026-09-05 11:57:16 | 47.95258 | 12.81454 | 46° | 13km/h | 21969m | 4.5m/s | -54.5°C | 4.3% | 42.8hPa | 2.6V | 00:00:00 | 00:00:00 | 00:00:00 | |
| BAUMI2-15 | 2026-09-05 11:57:13 | 47.95251 | 12.81440 | 61° | 16km/h | 21954m | 4.4m/s | -54.4°C | 4.3% | 42.9hPa | 2.6V | 00:00:00 | 01:27:45 | 00:00:00 | |
| OE5HKT-10 | 2026-09-05 11:57:08 | 47.95241 | 12.81416 | 70° | 9km/h | 21927m | 5.0m/s | -54.4°C | 4.3% | 43.1hPa | 2.6V | 00:00:00 | 01:27:40 | 00:00:00 | |
| PETON7-10 | 2026-09-05 11:57:07 | 47.95240 | 12.81412 | 66° | 11km/h | 21922m | 5.1m/s | -54.3°C | 4.3% | 43.1hPa | 2.6V | 00:00:00 | 00:00:00 | 00:00:00 | |
| DG1MFX-10 | 2026-09-05 11:57:06 | 47.95240 | 12.81412 | 66° | 9km/h | 21922m | 5.1m/s | -54.4°C | 1.3% | 43.2hPa | 2.6V | 00:00:00 | 00:00:00 | 00:00:00 | |
| BAUMI2-15 | 2026-09-05 11:57:03 | 47.95233 | 12.81405 | 35° | 15km/h | 21900m | 5.7m/s | -54.3°C | 4.4% | 43.3hPa | 2.6V | 00:00:00 | 01:27:35 | 00:00:00 | |
| OE5FHM-15 | 2026-09-05 11:57:01 | 47.95229 | 12.81401 | 29° | 9km/h | 21890m | 5.7m/s | -54.2°C | 4.3% | 43.3hPa | 2.6V | 00:00:00 | 01:27:33 | 00:00:00 | |
| OE5WHR-10 | 2026-09-05 11:57:00 | 47.95226 | 12.81399 | 23° | 9km/h | 21884m | 5.5m/s | -54.2°C | 4.3% | 43.4hPa | 2.6V | 00:00:00 | 00:00:00 | 00:00:00 | |
| OE5DRO-10 | 2026-09-05 11:56:57 | 47.95217 | 12.81392 | 46° | 9km/h | 21869m | 5.9m/s | -54.2°C | 4.3% | 43.5hPa | 2.6V | 00:00:00 | 00:00:00 | 00:00:00 | |
| PETON7-10 | 2026-09-05 11:56:52 | 47.95209 | 12.81376 | 55° | 7km/h | 21842m | 5.6m/s | -54.1°C | 4.2% | 43.7hPa | 2.6V | 00:00:00 | 00:00:00 | 00:00:00 | |
| OE5DXL-15 | 2026-09-05 11:56:51 | 47.95208 | 12.81373 | 66° | 7km/h | 21837m | 5.1m/s | -54.0°C | 4.2% | 43.7hPa | 2.6V | 00:00:00 | 00:00:00 | 00:00:00 | |
| OE5HKT-10 | 2026-09-05 11:56:47 | 47.95203 | 12.81368 | 20° | 9km/h | 21816m | 4.5m/s | -54.0°C | 4.2% | 43.8hPa | 2.6V | 00:00:00 | 00:00:00 | 00:00:00 | |
| DG1MJG | 2026-09-05 11:56:43 | 47.95199 | 12.81361 | 54° | 11km/h | 21801m | 4.3m/s | -54.0°C | 1.3% | 44.0hPa | 2.6V | 00:00:00 | 00:00:00 | 00:00:00 | |
| DG1MFX-10 | 2026-09-05 11:56:41 | 47.95195 | 12.81356 | 41° | 9km/h | 21791m | 5.0m/s | -54.0°C | 1.2% | 44.1hPa | 2.6V | 00:00:00 | 00:00:00 | 00:00:00 | |
| OE5WHR-10 | 2026-09-05 11:56:39 | 47.95191 | 12.81348 | 74° | 7km/h | 21776m | 5.7m/s | -54.0°C | 4.2% | 44.1hPa | 2.6V | 00:00:00 | 01:27:11 | 00:00:00 | |
| OE5DRO-10 | 2026-09-05 11:56:38 | 47.95191 | 12.81345 | 91° | 7km/h | 21771m | 4.8m/s | -54.0°C | 4.3% | 44.2hPa | 2.6V | 00:00:00 | 00:00:00 | 00:00:00 | |
| PETON7-10 | 2026-09-05 11:56:37 | 47.95191 | 12.81342 | 97° | 7km/h | 21765m | 5.5m/s | -54.0°C | 4.3% | 44.2hPa | 2.6V | 00:00:00 | 01:27:09 | 00:00:00 | |
| DB0UT-7 | 2026-09-05 11:56:36 | 47.95191 | 12.81340 | 97° | 7km/h | 21760m | 5.9m/s | -54.0°C | 4.3% | 44.2hPa | 2.6V | 00:00:00 | 00:00:00 | 00:00:00 | |
| OE5FHM-15 | 2026-09-05 11:56:31 | 47.95188 | 12.81335 | 357° | 9km/h | 21733m | 6.0m/s | -53.9°C | 4.2% | 44.4hPa | 2.6V | 00:00:00 | 01:27:03 | 00:00:00 | |
| OE5HKT-10 | 2026-09-05 11:56:26 | 47.95175 | 12.81329 | 46° | 7km/h | 21708m | 4.9m/s | -53.8°C | 4.1% | 44.6hPa | 2.6V | 00:00:00 | 00:00:00 | 00:00:00 | |
| OE5DXL-15 | 2026-09-05 11:56:21 | 47.95174 | 12.81319 | 122° | 11km/h | 21683m | 4.3m/s | -53.7°C | 4.1% | 44.8hPa | 2.6V | 00:00:00 | 00:00:00 | 00:00:00 | |
| DG1MFX-10 | 2026-09-05 11:56:20 | 47.95173 | 12.81319 | 122° | 9km/h | 21683m | 4.4m/s | -53.8°C | 1.2% | 44.8hPa | 2.6V | 00:00:00 | 00:00:00 | 00:00:00 | |
| OE5DRO-10 | 2026-09-05 11:56:19 | 47.95176 | 12.81314 | 131° | 9km/h | 21673m | 5.6m/s | -53.8°C | 4.2% | 44.9hPa | 2.6V | 00:00:00 | 00:00:00 | 08:30:00 | |
| OE5WHR-10 | 2026-09-05 11:56:18 | 47.95177 | 12.81313 | 117° | 11km/h | 21668m | 4.3m/s | -53.8°C | 4.2% | 44.9hPa | 2.6V | 00:00:00 | 00:00:00 | 08:30:00 | |
| DG1MJG | 2026-09-05 11:56:12 | 47.95174 | 12.81299 | 76° | 9km/h | 21644m | 4.7m/s | -54.0°C | 1.2% | 45.1hPa | 2.6V | 00:00:00 | 00:00:00 | 00:00:00 | |
| PETON7-10 | 2026-09-05 11:56:07 | 47.95173 | 12.81283 | 97° | 15km/h | 21615m | 4.6m/s | -53.8°C | 4.2% | 45.3hPa | 2.6V | 00:00:00 | 00:00:00 | 00:00:00 | |
| DB0UT-7 | 2026-09-05 11:56:06 | 47.95173 | 12.81278 | 98° | 20km/h | 21609m | 5.2m/s | -53.7°C | 4.2% | 45.3hPa | 2.6V | 00:00:00 | 01:26:38 | 00:00:00 | |
| OE5HKT-10 | 2026-09-05 11:56:05 | 47.95174 | 12.81274 | 108° | 15km/h | 21605m | 4.7m/s | -53.7°C | 4.2% | 45.3hPa | 2.6V | 00:00:00 | 01:26:37 | 00:00:00 | |
| OE5MMP-10 | 2026-09-05 11:56:03 | 47.95177 | 12.81266 | 126° | 15km/h | 21595m | 5.3m/s | -53.7°C | 4.2% | 45.4hPa | 2.6V | 00:00:00 | 01:26:35 | 00:00:00 | |
| OE5FHM-15 | 2026-09-05 11:56:01 | 47.95181 | 12.81256 | 123° | 16km/h | 21585m | 4.0m/s | -53.6°C | 4.1% | 45.5hPa | 2.6V | 00:00:00 | 01:26:33 | 00:00:00 | |
| DG1MFX-10 | 2026-09-05 11:56:00 | 47.95184 | 12.81251 | 124° | 16km/h | 21581m | 4.7m/s | -53.7°C | 1.3% | 45.6hPa | 2.6V | 00:00:00 | 00:00:00 | 00:00:00 | |
| OE5WHR-10 | 2026-09-05 11:55:57 | 47.95189 | 12.81240 | 134° | 16km/h | 21567m | 3.6m/s | -53.7°C | 4.1% | 45.6hPa | 2.6V | 00:00:00 | 00:00:00 | 00:00:00 | |
| PETON7-10 | 2026-09-05 11:55:52 | 47.95199 | 12.81217 | 121° | 16km/h | 21543m | 5.4m/s | -53.6°C | 4.1% | 45.8hPa | 2.6V | 00:00:00 | 01:26:24 | 00:00:00 | |
| OE5DXL-15 | 2026-09-05 11:55:51 | 47.95201 | 12.81212 | 126° | 22km/h | 21538m | 4.2m/s | -53.7°C | 4.1% | 45.8hPa | 2.6V | 00:00:00 | 00:00:00 | 08:30:00 | |
| OE5HKT-10 | 2026-09-05 11:55:44 | 47.95221 | 12.81184 | 139° | 22km/h | 21503m | 5.7m/s | -53.9°C | 4.1% | 46.1hPa | 2.6V | 00:00:00 | 00:00:00 | 00:00:00 | |
| DG1MJG | 2026-09-05 11:55:42 | 47.95224 | 12.81179 | 135° | 20km/h | 21498m | 4.9m/s | -53.9°C | 1.2% | 46.2hPa | 2.7V | 00:00:00 | 00:00:00 | 00:00:00 | |
| OE5DRO-10 | 2026-09-05 11:55:41 | 47.95231 | 12.81169 | 131° | 24km/h | 21488m | 5.7m/s | -53.8°C | 4.0% | 46.2hPa | 2.7V | 00:00:00 | 00:00:00 | 00:00:00 | |
| DG1MFX-10 | 2026-09-05 11:55:39 | 47.95234 | 12.81164 | 127° | 16km/h | 21483m | 4.6m/s | -54.0°C | 1.2% | 46.2hPa | 2.7V | 00:00:00 | 00:00:00 | 00:00:00 | |
| OE5MMP-10 | 2026-09-05 11:55:38 | 47.95238 | 12.81153 | 124° | 24km/h | 21473m | 5.4m/s | -53.8°C | 4.0% | 46.3hPa | 2.7V | 00:00:00 | 01:26:10 | 00:00:00 | |
| PETON7-10 | 2026-09-05 11:55:37 | 47.95241 | 12.81147 | 124° | 26km/h | 21468m | 4.0m/s | -53.9°C | 4.1% | 46.3hPa | 2.7V | 00:00:00 | 00:00:00 | 00:00:00 | |
| OE5WHR-10 | 2026-09-05 11:55:36 | 47.95244 | 12.81141 | 129° | 27km/h | 21463m | 5.3m/s | -53.9°C | 4.1% | 46.4hPa | 2.7V | 00:00:00 | 01:26:08 | 00:00:00 | |
| OE5FHM-15 | 2026-09-05 11:55:31 | 47.95264 | 12.81112 | 135° | 27km/h | 21439m | 3.8m/s | -53.9°C | 4.1% | 46.5hPa | 2.7V | 00:00:00 | 01:26:03 | 00:00:00 | |
| OE5MMP-10 | 2026-09-05 11:55:28 | 47.95277 | 12.81090 | 129° | 29km/h | 21425m | 3.9m/s | -54.2°C | 4.1% | 46.6hPa | 2.6V | 00:00:00 | 01:26:00 | 00:00:00 | |
| OE5HKT-10 | 2026-09-05 11:55:23 | 47.95296 | 12.81045 | 122° | 27km/h | 21401m | 5.0m/s | -54.5°C | 4.2% | 46.8hPa | 2.6V | 00:00:00 | 00:00:00 | 00:00:00 | |
| PETON7-10 | 2026-09-05 11:55:22 | 47.95300 | 12.81036 | 122° | 27km/h | 21396m | 4.7m/s | -54.5°C | 4.2% | 46.8hPa | 2.6V | 00:00:00 | 00:00:00 | 00:00:00 | |
| OE5DXL-15 | 2026-09-05 11:55:21 | 47.95304 | 12.81026 | 120° | 27km/h | 21392m | 3.4m/s | -54.5°C | 4.2% | 46.9hPa | 2.6V | 00:00:00 | 00:00:00 | 00:00:00 | |
| DG1MFX-10 | 2026-09-05 11:55:19 | 47.95308 | 12.81017 | 119° | 29km/h | 21388m | 4.7m/s | -54.5°C | 1.3% | 46.9hPa | 2.6V | 00:00:00 | 00:00:00 | 00:00:00 | |
| OE5MMP-10 | 2026-09-05 11:55:18 | 47.95314 | 12.80996 | 114° | 26km/h | 21378m | 4.1m/s | -54.5°C | 4.3% | 47.0hPa | 2.6V | 00:00:00 | 01:25:50 | 00:00:00 | |
| OE5WHR-10 | 2026-09-05 11:55:16 | 47.95322 | 12.80967 | 112° | 27km/h | 21365m | 5.1m/s | -54.7°C | 4.3% | 47.1hPa | 2.7V | 00:00:00 | 00:00:00 | 00:00:00 | |
| DG1MJG | 2026-09-05 11:55:11 | 47.95330 | 12.80943 | 121° | 27km/h | 21350m | 4.6m/s | -54.8°C | 1.3% | 47.2hPa | 2.6V | 00:00:00 | 00:00:00 | 00:00:00 | |
| OE5MMP-10 | 2026-09-05 11:55:08 | 47.95342 | 12.80906 | 108° | 27km/h | 21332m | 3.8m/s | -54.8°C | 4.3% | 47.3hPa | 2.6V | 00:00:00 | 01:25:40 | 00:00:00 | |
| PETON7-10 | 2026-09-05 11:55:07 | 47.95344 | 12.80896 | 106° | 27km/h | 21328m | 4.8m/s | -54.8°C | 4.3% | 47.3hPa | 2.6V | 00:00:00 | 01:25:39 | 00:00:00 | |
| OE5DRO-10 | 2026-09-05 11:55:03 | 47.95351 | 12.80853 | 99° | 27km/h | 21309m | 4.6m/s | -54.7°C | 4.4% | 47.5hPa | 2.6V | 00:00:00 | 00:00:00 | 00:00:00 | |
| OE5HKT-10 | 2026-09-05 11:55:02 | 47.95351 | 12.80845 | 95° | 27km/h | 21305m | 3.4m/s | -54.7°C | 4.4% | 47.5hPa | 2.6V | 00:00:00 | 01:25:34 | 00:00:00 | |
| OE5FHM-15 | 2026-09-05 11:55:01 | 47.95351 | 12.80836 | 93° | 27km/h | 21300m | 5.3m/s | -54.7°C | 4.4% | 47.6hPa | 2.6V | 00:00:00 | 01:25:33 | 00:00:00 | |
| OE5MMP-10 | 2026-09-05 11:54:58 | 47.95350 | 12.80806 | 81° | 29km/h | 21285m | 5.6m/s | -54.7°C | 4.3% | 47.7hPa | 2.6V | 00:00:00 | 01:25:30 | 00:00:00 | |
| BAUMI2-15 | 2026-09-05 11:54:57 | 47.95349 | 12.80795 | 76° | 31km/h | 21280m | 4.9m/s | -54.8°C | 4.3% | 47.7hPa | 2.6V | 00:00:00 | 01:25:29 | 00:00:00 | |
| OE5WHR-10 | 2026-09-05 11:54:54 | 47.95344 | 12.80763 | 83° | 27km/h | 21266m | 4.9m/s | -54.9°C | 4.3% | 47.8hPa | 2.6V | 00:00:00 | 00:00:00 | 00:00:00 | |
| PETON7-10 | 2026-09-05 11:54:52 | 47.95342 | 12.80739 | 84° | 27km/h | 21256m | 5.3m/s | -54.9°C | 4.2% | 47.9hPa | 2.6V | 00:00:00 | 00:00:00 | 00:00:00 | |
| OE5DXL-15 | 2026-09-05 11:54:51 | 47.95341 | 12.80728 | 82° | 27km/h | 21252m | 4.8m/s | -55.0°C | 4.3% | 47.9hPa | 2.7V | 00:00:00 | 00:00:00 | 00:00:00 | |
| OE5MMP-10 | 2026-09-05 11:54:48 | 47.95340 | 12.80699 | 94° | 22km/h | 21236m | 4.6m/s | -54.9°C | 4.3% | 48.0hPa | 2.7V | 00:00:00 | 01:25:20 | 08:30:00 | |
| BAUMI2-15 | 2026-09-05 11:54:47 | 47.95340 | 12.80689 | 93° | 26km/h | 21232m | 4.7m/s | -54.9°C | 4.3% | 48.1hPa | 2.7V | 00:00:00 | 01:25:19 | 00:00:00 | |
| OE5DRO-10 | 2026-09-05 11:54:44 | 47.95340 | 12.80661 | 88° | 27km/h | 21218m | 3.7m/s | -55.0°C | 4.4% | 48.2hPa | 2.7V | 00:00:00 | 00:00:00 | 00:00:00 | |
| BAUMI2-15 | 2026-09-05 11:54:42 | 47.95340 | 12.80639 | 96° | 29km/h | 21209m | 4.5m/s | -55.0°C | 4.4% | 48.2hPa | 2.7V | 00:00:00 | 01:25:14 | 00:00:00 | |
| OE5HKT-10 | 2026-09-05 11:54:41 | 47.95341 | 12.80627 | 98° | 27km/h | 21205m | 4.0m/s | -55.1°C | 4.4% | 48.3hPa | 2.7V | 00:00:00 | 00:00:00 | 08:30:00 | |
| DG1MJG | 2026-09-05 11:54:40 | 47.95341 | 12.80627 | 99° | 33km/h | 21205m | 4.0m/s | -55.1°C | 1.3% | 48.3hPa | 2.6V | 00:00:00 | 00:00:00 | 00:00:00 | |
| PETON7-10 | 2026-09-05 11:54:37 | 47.95344 | 12.80585 | 95° | 27km/h | 21187m | 3.8m/s | -55.1°C | 4.5% | 48.4hPa | 2.6V | 00:00:00 | 00:00:00 | 00:00:00 | |
| OE5WHR-10 | 2026-09-05 11:54:33 | 47.95348 | 12.80551 | 103° | 31km/h | 21167m | 5.2m/s | -55.1°C | 4.4% | 48.6hPa | 2.6V | 00:00:00 | 01:25:05 | 00:00:00 | |
| BAUMI2-15 | 2026-09-05 11:54:32 | 47.95349 | 12.80543 | 107° | 27km/h | 21162m | 4.1m/s | -55.1°C | 4.4% | 48.6hPa | 2.6V | 00:00:00 | 01:25:04 | 00:00:00 | |
| OE5FHM-15 | 2026-09-05 11:54:31 | 47.95351 | 12.80536 | 109° | 33km/h | 21158m | 4.1m/s | -55.1°C | 4.4% | 48.6hPa | 2.6V | 00:00:00 | 01:25:03 | 00:00:00 | |
| OE5MMP-10 | 2026-09-05 11:54:30 | 47.95353 | 12.80527 | 109° | 33km/h | 21153m | 5.0m/s | -55.1°C | 4.4% | 48.7hPa | 2.6V | 00:00:00 | 01:25:02 | 00:00:00 | |
| BAUMI2-15 | 2026-09-05 11:54:27 | 47.95359 | 12.80492 | 100° | 31km/h | 21138m | 5.4m/s | -55.0°C | 4.3% | 48.8hPa | 2.6V | 00:00:00 | 01:24:59 | 00:00:00 | |
| OE5DRO-10 | 2026-09-05 11:54:25 | 47.95362 | 12.80468 | 103° | 26km/h | 21129m | 5.6m/s | -55.1°C | 4.4% | 48.9hPa | 2.6V | 00:00:00 | 00:00:00 | 00:00:00 | |
| BAUMI2-15 | 2026-09-05 11:54:17 | 47.95381 | 12.80389 | 106° | 38km/h | 21089m | 4.8m/s | -55.1°C | 4.4% | 49.2hPa | 2.7V | 00:00:00 | 01:24:49 | 00:00:00 | |
| DG1MFX-10 | 2026-09-05 11:54:16 | 47.95381 | 12.80389 | 106° | 37km/h | 21089m | 4.8m/s | -55.1°C | 1.4% | 49.2hPa | 2.7V | 00:00:00 | 00:00:00 | 00:00:00 | |
| OE5MMP-10 | 2026-09-05 11:54:13 | 47.95388 | 12.80330 | 101° | 35km/h | 21070m | 5.2m/s | -55.1°C | 4.3% | 49.3hPa | 2.7V | 00:00:00 | 01:24:45 | 00:00:00 | |
| OE5WHR-10 | 2026-09-05 11:54:12 | 47.95390 | 12.80316 | 103° | 35km/h | 21065m | 4.3m/s | -55.0°C | 4.3% | 49.4hPa | 2.7V | 00:00:00 | 00:00:00 | 00:00:00 | |
| DG1MJG | 2026-09-05 11:54:10 | 47.95392 | 12.80301 | 104° | 37km/h | 21060m | 5.3m/s | -55.2°C | 1.3% | 49.4hPa | 2.7V | 00:00:00 | 00:00:00 | 00:00:00 | |
| PETON7-10 | 2026-09-05 11:54:07 | 47.95401 | 12.80256 | 113° | 35km/h | 21040m | 4.9m/s | -55.3°C | 4.5% | 49.6hPa | 2.7V | 00:00:00 | 00:00:00 | 08:30:00 | |
| OE8JPQ-2 | 2026-09-05 11:54:05 | 47.95406 | 12.80234 | 106° | 37km/h | 21031m | 5.4m/s | -55.3°C | 4.5% | 49.6hPa | 2.7V | 00:00:00 | 01:24:37 | 00:00:00 | |
| OE5MMP-10 | 2026-09-05 11:54:02 | 47.95410 | 12.80196 | 97° | 37km/h | 21016m | 6.1m/s | -55.4°C | 4.5% | 49.7hPa | 2.7V | 00:00:00 | 01:24:34 | 00:00:00 | |
| OE5FHM-15 | 2026-09-05 11:54:01 | 47.95411 | 12.80182 | 97° | 37km/h | 21010m | 4.9m/s | -55.3°C | 4.5% | 49.8hPa | 2.6V | 00:00:00 | 01:24:33 | 08:30:00 | |
| BAUMI2-15 | 2026-09-05 11:53:57 | 47.95413 | 12.80125 | 93° | 33km/h | 20992m | 4.1m/s | -55.3°C | 4.5% | 49.9hPa | 2.7V | 00:00:00 | 01:24:29 | 00:00:00 | |
| DG1MFX-10 | 2026-09-05 11:53:56 | 47.95413 | 12.80125 | 93° | 35km/h | 20992m | 4.1m/s | -55.3°C | 1.4% | 50.0hPa | 2.7V | 00:00:00 | 00:00:00 | 00:00:00 | |
| OE5MMP-10 | 2026-09-05 11:53:52 | 47.95414 | 12.80061 | 84° | 38km/h | 20967m | 4.6m/s | -55.2°C | 4.4% | 50.1hPa | 2.7V | 00:00:00 | 01:24:24 | 00:00:00 | |
| OE5WHR-10 | 2026-09-05 11:53:51 | 47.95414 | 12.80047 | 84° | 37km/h | 20963m | 5.6m/s | -55.2°C | 4.5% | 50.2hPa | 2.7V | 00:00:00 | 00:00:00 | 00:00:00 | |
| BAUMI2-15 | 2026-09-05 11:53:47 | 47.95409 | 12.79987 | 80° | 38km/h | 20942m | 4.2m/s | -55.1°C | 4.4% | 50.3hPa | 2.7V | 00:00:00 | 01:24:19 | 00:00:00 | |
| OE8JPQ-2 | 2026-09-05 11:53:44 | 47.95406 | 12.79943 | 90° | 31km/h | 20928m | 4.6m/s | -55.0°C | 4.4% | 50.4hPa | 2.7V | 00:00:00 | 00:00:00 | 00:00:00 | |
| OE5MMP-10 | 2026-09-05 11:53:42 | 47.95405 | 12.79917 | 87° | 35km/h | 20918m | 5.4m/s | -55.0°C | 4.4% | 50.5hPa | 2.7V | 00:00:00 | 01:24:14 | 00:00:00 | |
| DG1MJG | 2026-09-05 11:53:39 | 47.95404 | 12.79894 | 83° | 31km/h | 20909m | 4.7m/s | -55.1°C | 1.3% | 50.6hPa | 2.7V | 00:00:00 | 00:00:00 | 00:00:00 | |
| PETON7-10 | 2026-09-05 11:53:37 | 47.95399 | 12.79858 | 75° | 37km/h | 20894m | 5.4m/s | -54.9°C | 4.4% | 50.7hPa | 2.7V | 00:00:00 | 01:24:09 | 00:00:00 | |
| DG1MFX-10 | 2026-09-05 11:53:35 | 47.95397 | 12.79846 | 69° | 37km/h | 20889m | 4.6m/s | -55.0°C | 1.4% | 50.8hPa | 2.7V | 00:00:00 | 00:00:00 | 00:00:00 | |
| BAUMI2-15 | 2026-09-05 11:53:32 | 47.95384 | 12.79790 | 79° | 40km/h | 20869m | 4.5m/s | -54.9°C | 4.4% | 50.9hPa | 2.7V | 00:00:00 | 01:24:04 | 00:00:00 | |
| OE5FHM-15 | 2026-09-05 11:53:31 | 47.95382 | 12.79774 | 79° | 31km/h | 20865m | 3.9m/s | -54.9°C | 4.4% | 50.9hPa | 2.7V | 00:00:00 | 01:24:03 | 00:00:00 | |
| OE5WHR-10 | 2026-09-05 11:53:30 | 47.95379 | 12.79759 | 76° | 31km/h | 20861m | 4.5m/s | -54.9°C | 4.4% | 51.0hPa | 2.7V | 00:00:00 | 01:24:02 | 00:00:00 | |
| PETON7-10 | 2026-09-05 11:53:22 | 47.95352 | 12.79677 | 55° | 29km/h | 20820m | 4.9m/s | -54.8°C | 4.4% | 51.3hPa | 2.7V | 00:00:00 | 00:00:00 | 00:00:00 | |
| OE5DXL-15 | 2026-09-05 11:53:21 | 47.95349 | 12.79669 | 58° | 33km/h | 20815m | 4.6m/s | -54.8°C | 4.4% | 51.3hPa | 2.7V | 00:00:00 | 00:00:00 | 00:00:00 | |
| BAUMI2-15 | 2026-09-05 11:53:17 | 47.95336 | 12.79630 | 63° | 33km/h | 20795m | 5.8m/s | -54.8°C | 4.3% | 51.5hPa | 2.7V | 00:00:00 | 01:23:49 | 00:00:00 | |
| DG1MFX-10 | 2026-09-05 11:53:14 | 47.95328 | 12.79609 | 57° | 33km/h | 20785m | 5.1m/s | -54.8°C | 1.3% | 51.6hPa | 2.7V | 00:00:00 | 00:00:00 | 00:00:00 | |
| OE5MMP-10 | 2026-09-05 11:53:12 | 47.95315 | 12.79578 | 58° | 31km/h | 20768m | 6.1m/s | -54.7°C | 4.4% | 51.7hPa | 2.7V | 00:00:00 | 01:23:44 | 00:00:00 | |
| OE5WHR-10 | 2026-09-05 11:53:09 | 47.95301 | 12.79550 | 53° | 31km/h | 20753m | 4.8m/s | -54.8°C | 4.4% | 51.8hPa | 2.7V | 00:00:00 | 00:00:00 | 08:30:00 | |
| DG1MJG | 2026-09-05 11:53:08 | 47.95301 | 12.79550 | 53° | 29km/h | 20753m | 4.9m/s | -54.8°C | 1.3% | 51.9hPa | 2.7V | 00:00:00 | 00:00:00 | 00:00:00 | |
| PETON7-10 | 2026-09-05 11:53:07 | 47.95292 | 12.79532 | 57° | 35km/h | 20743m | 4.8m/s | -54.7°C | 4.4% | 51.9hPa | 2.7V | 00:00:00 | 00:00:00 | 00:00:00 | |
| OE8JPQ-2 | 2026-09-05 11:53:04 | 47.95277 | 12.79506 | 42° | 31km/h | 20727m | 3.9m/s | -54.6°C | 4.4% | 52.1hPa | 2.7V | 00:00:00 | 00:00:00 | 00:00:00 | |
| OE5MMP-10 | 2026-09-05 11:53:02 | 47.95265 | 12.79489 | 44° | 35km/h | 20718m | 6.3m/s | -54.7°C | 4.4% | 52.1hPa | 2.7V | 00:00:00 | 01:23:34 | 08:30:00 | |
| OE5FHM-15 | 2026-09-05 11:53:01 | 47.95258 | 12.79480 | 48° | 29km/h | 20712m | 5.0m/s | -54.7°C | 4.4% | 52.2hPa | 2.6V | 00:00:00 | 01:23:33 | 00:00:00 | |
| DG1MFX-10 | 2026-09-05 11:52:54 | 47.95216 | 12.79429 | 33° | 35km/h | 20682m | 5.6m/s | -54.7°C | 1.3% | 52.5hPa | 2.6V | 00:00:00 | 00:00:00 | 00:00:00 | |
| PETON7-10 | 2026-09-05 11:52:52 | 47.95195 | 12.79413 | 21° | 27km/h | 20665m | 4.7m/s | -54.5°C | 4.3% | 52.6hPa | 2.6V | 00:00:00 | 01:23:24 | 00:00:00 | |
| OE5DXL-15 | 2026-09-05 11:52:51 | 47.95189 | 12.79409 | 21° | 26km/h | 20661m | 4.2m/s | -54.4°C | 4.4% | 52.6hPa | 2.6V | 00:00:00 | 00:00:00 | 00:00:00 | |
| OE5WHR-10 | 2026-09-05 11:52:48 | 47.95173 | 12.79395 | 43° | 27km/h | 20645m | 4.7m/s | -54.4°C | 4.5% | 52.7hPa | 2.6V | 00:00:00 | 00:00:00 | 00:00:00 | |
| OE8JPQ-2 | 2026-09-05 11:52:43 | 47.95145 | 12.79368 | 25° | 24km/h | 20618m | 6.3m/s | -54.3°C | 4.3% | 53.0hPa | 2.6V | 00:00:00 | 01:23:15 | 00:00:00 | |
| OE5MMP-10 | 2026-09-05 11:52:42 | 47.95138 | 12.79362 | 24° | 29km/h | 20612m | 5.0m/s | -54.2°C | 4.3% | 53.0hPa | 2.6V | 00:00:00 | 01:23:14 | 00:00:00 | |
| DG1MJG | 2026-09-05 11:52:38 | 47.95114 | 12.79351 | 10° | 29km/h | 20596m | 6.0m/s | -54.2°C | 1.3% | 53.2hPa | 2.6V | 00:00:00 | 00:00:00 | 00:00:00 | |
| PETON7-10 | 2026-09-05 11:52:37 | 47.95101 | 12.79349 | 10° | 24km/h | 20585m | 5.3m/s | -54.1°C | 4.3% | 53.3hPa | 2.6V | 00:00:00 | 00:00:00 | 00:00:00 | |
| DB0UT-7 | 2026-09-05 11:52:35 | 47.95088 | 12.79343 | 25° | 26km/h | 20574m | 5.2m/s | -54.0°C | 4.3% | 53.3hPa | 2.7V | 00:00:00 | 00:00:00 | 00:00:00 | |
| DG1MFX-10 | 2026-09-05 11:52:34 | 47.95088 | 12.79343 | 25° | 27km/h | 20574m | 5.2m/s | -54.1°C | 1.3% | 53.4hPa | 2.7V | 00:00:00 | 00:00:00 | 00:00:00 | |
| OE5HKT-10 | 2026-09-05 11:52:33 | 47.95077 | 12.79334 | 30° | 22km/h | 20564m | 5.6m/s | -54.0°C | 4.3% | 53.4hPa | 2.7V | 00:00:00 | 00:00:00 | 00:00:00 | |
| OE5MMP-10 | 2026-09-05 11:52:32 | 47.95071 | 12.79330 | 30° | 22km/h | 20558m | 5.7m/s | -53.9°C | 4.3% | 53.5hPa | 2.7V | 00:00:00 | 01:23:04 | 00:00:00 | |
| OE5FHM-15 | 2026-09-05 11:52:31 | 47.95067 | 12.79325 | 36° | 20km/h | 20553m | 4.6m/s | -53.8°C | 4.3% | 53.5hPa | 2.6V | 00:00:00 | 01:23:03 | 00:00:00 | |
| OE5WHR-10 | 2026-09-05 11:52:27 | 47.95051 | 12.79298 | 57° | 20km/h | 20531m | 4.8m/s | -53.7°C | 4.3% | 53.7hPa | 2.6V | 00:00:00 | 01:22:59 | 00:00:00 | |
| OE8JPQ-2 | 2026-09-05 11:52:23 | 47.95038 | 12.79278 | 32° | 18km/h | 20511m | 6.4m/s | -53.5°C | 4.2% | 53.8hPa | 2.6V | 00:00:00 | 00:00:00 | 08:30:00 | |
| PETON7-10 | 2026-09-05 11:52:22 | 47.95034 | 12.79274 | 32° | 20km/h | 20505m | 5.1m/s | -53.4°C | 4.2% | 53.9hPa | 2.7V | 00:00:00 | 00:00:00 | 00:00:00 | |
| OE5DXL-15 | 2026-09-05 11:52:21 | 47.95029 | 12.79270 | 32° | 18km/h | 20500m | 3.8m/s | -53.3°C | 4.2% | 53.9hPa | 2.7V | 00:00:00 | 00:00:00 | 00:00:00 | |
| OE5MMP-10 | 2026-09-05 11:52:12 | 47.94998 | 12.79222 | 70° | 16km/h | 20453m | 5.1m/s | -53.0°C | 4.0% | 54.3hPa | 2.7V | 00:00:00 | 01:22:44 | 00:00:00 | |
| OE5HKT-10 | 2026-09-05 11:52:11 | 47.94996 | 12.79214 | 67° | 22km/h | 20448m | 4.6m/s | -53.0°C | 4.0% | 54.4hPa | 2.7V | 00:00:00 | 00:00:00 | 00:00:00 | |
| DG1MJG | 2026-09-05 11:52:08 | 47.94992 | 12.79202 | 53° | 16km/h | 20438m | 4.7m/s | -53.0°C | 1.2% | 54.5hPa | 2.7V | 00:00:00 | 00:00:00 | 00:00:00 | |
| PETON7-10 | 2026-09-05 11:52:07 | 47.94987 | 12.79194 | 47° | 16km/h | 20428m | 5.7m/s | -52.9°C | 4.0% | 54.5hPa | 2.7V | 00:00:00 | 01:22:39 | 00:00:00 | |
| OE5WHR-10 | 2026-09-05 11:52:06 | 47.94985 | 12.79191 | 48° | 16km/h | 20423m | 4.4m/s | -52.9°C | 4.0% | 54.6hPa | 2.7V | 00:00:00 | 00:00:00 | 00:00:00 | |
| OE8JPQ-2 | 2026-09-05 11:52:03 | 47.94976 | 12.79178 | 49° | 18km/h | 20407m | 4.7m/s | -52.7°C | 4.0% | 54.7hPa | 2.6V | 00:00:00 | 00:00:00 | 00:00:00 | |
| OE5MMP-10 | 2026-09-05 11:52:02 | 47.94973 | 12.79172 | 53° | 16km/h | 20401m | 6.0m/s | -52.7°C | 3.9% | 54.8hPa | 2.6V | 00:00:00 | 01:22:34 | 00:00:00 | |
| OE5FHM-15 | 2026-09-05 11:52:01 | 47.94970 | 12.79166 | 57° | 20km/h | 20396m | 4.8m/s | -52.6°C | 3.9% | 54.8hPa | 2.6V | 00:00:00 | 01:22:33 | 00:00:00 | |
| DG1MFX-10 | 2026-09-05 11:52:00 | 47.94970 | 12.79166 | 58° | 20km/h | 20396m | 4.9m/s | -52.7°C | 1.2% | 54.9hPa | 2.6V | 00:00:00 | 00:00:00 | 00:00:00 | |
| OE5MMP-10 | 2026-09-05 11:51:52 | 47.94947 | 12.79125 | 47° | 20km/h | 20347m | 4.7m/s | -52.8°C | 3.7% | 55.3hPa | 2.6V | 00:00:00 | 01:22:24 | 00:00:00 | |
| OE5DXL-15 | 2026-09-05 11:51:51 | 47.94945 | 12.79121 | 58° | 24km/h | 20343m | 4.0m/s | -53.0°C | 3.8% | 55.3hPa | 2.6V | 00:00:00 | 00:00:00 | 00:00:00 | |
| OE5WHR-10 | 2026-09-05 11:51:45 | 47.94942 | 12.79077 | 90° | 26km/h | 20308m | 5.7m/s | -53.6°C | 3.9% | 55.6hPa | 2.6V | 00:00:00 | 00:00:00 | 00:00:00 | |
| OE8JPQ-2 | 2026-09-05 11:51:43 | 47.94943 | 12.79060 | 96° | 26km/h | 20295m | 6.2m/s | -53.8°C | 4.0% | 55.7hPa | 2.6V | 00:00:00 | 01:22:15 | 00:00:00 | |
| OE5MMP-10 | 2026-09-05 11:51:42 | 47.94943 | 12.79052 | 94° | 22km/h | 20290m | 3.8m/s | -54.0°C | 3.9% | 55.7hPa | 2.6V | 00:00:00 | 01:22:14 | 00:00:00 | |
| DG1MFX-10 | 2026-09-05 11:51:39 | 47.94943 | 12.79036 | 87° | 18km/h | 20279m | 5.5m/s | -54.2°C | 1.3% | 55.9hPa | 2.6V | 00:00:00 | 00:00:00 | 00:00:00 | |
| PETON7-10 | 2026-09-05 11:51:37 | 47.94943 | 12.79014 | 96° | 26km/h | 20263m | 5.1m/s | -54.4°C | 4.1% | 56.0hPa | 2.6V | 00:00:00 | 00:00:00 | 00:00:00 | |
| OE5MMP-10 | 2026-09-05 11:51:32 | 47.94942 | 12.78970 | 86° | 27km/h | 20237m | 4.3m/s | -54.4°C | 4.2% | 56.2hPa | 2.6V | 00:00:00 | 01:22:04 | 08:30:00 | |
| OE5FHM-15 | 2026-09-05 11:51:31 | 47.94941 | 12.78959 | 82° | 16km/h | 20232m | 4.5m/s | -54.5°C | 4.2% | 56.2hPa | 2.7V | 00:00:00 | 01:22:03 | 00:00:00 | |
| OE5WHR-10 | 2026-09-05 11:51:24 | 47.94925 | 12.78886 | 91° | 13km/h | 20197m | 4.7m/s | -55.0°C | 4.4% | 56.6hPa | 2.7V | 00:00:00 | 01:21:56 | 00:00:00 | |
| OE8JPQ-2 | 2026-09-05 11:51:23 | 47.94925 | 12.78878 | 96° | 13km/h | 20191m | 5.7m/s | -55.0°C | 4.3% | 56.6hPa | 2.7V | 00:00:00 | 00:00:00 | 00:00:00 | |
| OE5MMP-10 | 2026-09-05 11:51:22 | 47.94925 | 12.78872 | 95° | 15km/h | 20186m | 5.1m/s | -55.0°C | 4.3% | 56.7hPa | 2.6V | 00:00:00 | 01:21:54 | 00:00:00 | |
| OE5DXL-15 | 2026-09-05 11:51:21 | 47.94926 | 12.78866 | 93° | 9km/h | 20181m | 4.6m/s | -54.9°C | 4.3% | 56.7hPa | 2.6V | 00:00:00 | 00:00:00 | 08:30:00 | |
| OE5MMP-10 | 2026-09-05 11:51:12 | 47.94920 | 12.78817 | 91° | 9km/h | 20136m | 5.6m/s | -54.7°C | 4.4% | 57.1hPa | 2.6V | 00:00:00 | 01:21:44 | 00:00:00 | |
| PETON7-10 | 2026-09-05 11:51:07 | 47.94922 | 12.78804 | 104° | 7km/h | 20110m | 3.7m/s | -54.6°C | 4.4% | 57.3hPa | 2.6V | 00:00:00 | 00:00:00 | 00:00:00 | |
| DG1MJG | 2026-09-05 11:51:06 | 47.94922 | 12.78804 | 105° | 11km/h | 20110m | 3.8m/s | -54.7°C | 1.3% | 57.4hPa | 2.7V | 00:00:00 | 00:00:00 | 00:00:00 | |
| OE5DRO-10 | 2026-09-05 11:51:04 | 47.94922 | 12.78791 | 81° | 5km/h | 20094m | 4.8m/s | -54.4°C | 4.3% | 57.5hPa | 2.7V | 00:00:00 | 00:00:00 | 00:00:00 | |
| OE5WHR-10 | 2026-09-05 11:51:03 | 47.94921 | 12.78786 | 87° | 4km/h | 20089m | 5.1m/s | -54.4°C | 4.2% | 57.5hPa | 2.7V | 00:00:00 | 00:00:00 | 00:00:00 | |
| OE5MMP-10 | 2026-09-05 11:51:02 | 47.94921 | 12.78782 | 90° | 4km/h | 20085m | 3.9m/s | -54.4°C | 4.2% | 57.6hPa | 2.7V | 00:00:00 | 01:21:34 | 00:00:00 | |
| OE5FHM-15 | 2026-09-05 11:51:01 | 47.94921 | 12.78779 | 85° | 5km/h | 20080m | 5.8m/s | -54.4°C | 4.2% | 57.6hPa | 2.7V | 00:00:00 | 01:21:33 | 00:00:00 | |
| BAUMI2-15 | 2026-09-05 11:50:57 | 47.94921 | 12.78774 | 168° | 2km/h | 20059m | 4.1m/s | -54.4°C | 4.4% | 57.8hPa | 2.7V | 00:00:00 | 01:21:29 | 00:00:00 | |
| OE5HKT-10 | 2026-09-05 11:50:56 | 47.94922 | 12.78774 | 190° | 7km/h | 20055m | 4.7m/s | -54.4°C | 4.4% | 57.9hPa | 2.7V | 00:00:00 | 00:00:00 | 00:00:00 | |
| OE5MMP-10 | 2026-09-05 11:50:52 | 47.94921 | 12.78773 | 87° | 4km/h | 20034m | 5.3m/s | -54.2°C | 4.2% | 58.1hPa | 2.6V | 00:00:00 | 01:21:24 | 00:00:00 | |
| OE5DXL-15 | 2026-09-05 11:50:51 | 47.94921 | 12.78771 | 95° | 7km/h | 20029m | 4.3m/s | -54.3°C | 4.3% | 58.1hPa | 2.6V | 00:00:00 | 00:00:00 | 00:00:00 | |
| S52SK | 2026-09-05 11:50:50 | 47.94921 | 12.78771 | 95° | 5km/h | 20029m | 4.3m/s | -54.3°C | 1.3% | 58.1hPa | 2.6V | 00:00:00 | 00:00:00 | 00:00:00 | |
| BAUMI2-15 | 2026-09-05 11:50:47 | 47.94918 | 12.78763 | 48° | 4km/h | 20010m | 4.3m/s | -54.5°C | 4.3% | 58.3hPa | 2.6V | 00:00:00 | 01:21:19 | 00:00:00 | |
| OE5DRO-10 | 2026-09-05 11:50:45 | 47.94917 | 12.78760 | 99° | 7km/h | 20000m | 4.4m/s | -54.4°C | 4.2% | 58.3hPa | 2.6V | 00:00:00 | 00:00:00 | 08:30:00 | |
| S52SK | 2026-09-05 11:50:44 | 47.94917 | 12.78760 | 100° | 2km/h | 20000m | 4.4m/s | -54.4°C | 1.3% | 58.4hPa | 2.6V | 00:00:00 | 00:00:00 | 00:00:00 | |
| OE8JPQ-2 | 2026-09-05 11:50:43 | 47.94918 | 12.78760 | 204° | 7km/h | 19990m | 5.3m/s | -54.4°C | 4.3% | 58.4hPa | 2.6V | 00:00:00 | 01:21:15 | 00:00:00 | |
| OE5MMP-10 | 2026-09-05 11:50:42 | 47.94918 | 12.78760 | 170° | 7km/h | 19985m | 4.3m/s | -54.4°C | 4.3% | 58.5hPa | 2.6V | 00:00:00 | 01:21:14 | 00:00:00 | |
| S52SK | 2026-09-05 11:50:38 | 47.94921 | 12.78757 | 137° | 7km/h | 19970m | 3.9m/s | -54.1°C | 1.3% | 58.7hPa | 2.6V | 00:00:00 | 00:00:00 | 00:00:00 | |
| PETON7-10 | 2026-09-05 11:50:37 | 47.94923 | 12.78752 | 106° | 9km/h | 19960m | 4.8m/s | -54.0°C | 4.3% | 58.7hPa | 2.6V | 00:00:00 | 01:21:09 | 00:00:00 | |
| DG1MJG | 2026-09-05 11:50:35 | 47.94924 | 12.78749 | 105° | 9km/h | 19955m | 4.4m/s | -54.1°C | 1.3% | 58.8hPa | 2.6V | 00:00:00 | 00:00:00 | 00:00:00 | |
| OE5MMP-10 | 2026-09-05 11:50:32 | 47.94927 | 12.78734 | 112° | 7km/h | 19934m | 4.1m/s | -54.0°C | 4.2% | 59.0hPa | 2.6V | 00:00:00 | 01:21:04 | 00:00:00 | |
| OE5FHM-15 | 2026-09-05 11:50:31 | 47.94929 | 12.78731 | 124° | 11km/h | 19930m | 4.0m/s | -54.0°C | 4.2% | 59.0hPa | 2.6V | 00:00:00 | 01:21:03 | 00:00:00 | |
| BAUMI2-15 | 2026-09-05 11:50:27 | 47.94935 | 12.78722 | 142° | 5km/h | 19911m | 5.1m/s | -53.8°C | 4.2% | 59.2hPa | 2.6V | 00:00:00 | 01:20:59 | 00:00:00 | |
| OE5HKT-10 | 2026-09-05 11:50:26 | 47.94936 | 12.78721 | 155° | 13km/h | 19906m | 4.2m/s | -53.8°C | 4.2% | 59.2hPa | 2.6V | 00:00:00 | 00:00:00 | 00:00:00 | |
| S52SK | 2026-09-05 11:50:25 | 47.94937 | 12.78721 | 155° | 5km/h | 19906m | 4.3m/s | -53.9°C | 1.3% | 59.3hPa | 2.6V | 00:00:00 | 00:00:00 | 00:00:00 | |
| OE8JPQ-2 | 2026-09-05 11:50:23 | 47.94941 | 12.78718 | 139° | 11km/h | 19892m | 3.6m/s | -53.6°C | 4.2% | 59.3hPa | 2.6V | 00:00:00 | 00:00:00 | 00:00:00 | |
| BAUMI2-15 | 2026-09-05 11:50:22 | 47.94942 | 12.78716 | 116° | 13km/h | 19888m | 5.5m/s | -53.6°C | 4.1% | 59.4hPa | 2.6V | 00:00:00 | 01:20:54 | 00:00:00 | |
| OE5WHR-10 | 2026-09-05 11:50:21 | 47.94942 | 12.78712 | 95° | 13km/h | 19882m | 4.8m/s | -53.6°C | 4.1% | 59.4hPa | 2.6V | 00:00:00 | 01:20:53 | 00:00:00 | |
| S52SK | 2026-09-05 11:50:20 | 47.94942 | 12.78712 | 96° | 11km/h | 19882m | 4.8m/s | -53.6°C | 1.2% | 59.5hPa | 2.6V | 00:00:00 | 00:00:00 | 00:00:00 | |
| BAUMI2-15 | 2026-09-05 11:50:17 | 47.94946 | 12.78690 | 114° | 11km/h | 19864m | 3.6m/s | -53.5°C | 4.2% | 59.6hPa | 2.6V | 00:00:00 | 01:20:49 | 00:00:00 | |
| BAUMI2-15 | 2026-09-05 11:50:13 | 47.94951 | 12.78672 | 138° | 9km/h | 19840m | 4.6m/s | -53.3°C | 4.1% | 59.8hPa | 2.6V | 00:00:00 | 01:20:44 | 00:00:00 | |
| OE5MMP-10 | 2026-09-05 11:50:12 | 47.94951 | 12.78672 | 138° | 11km/h | 19840m | 4.6m/s | -53.3°C | 4.1% | 59.8hPa | 2.6V | 00:00:00 | 01:20:44 | 00:00:00 | |
| DF7PN | 2026-09-05 11:50:08 | 47.94956 | 12.78661 | 109° | 9km/h | 19821m | 4.5m/s | 0°C | -1.0% | 60.0hPa | 2.6V | 00:00:00 | 00:00:00 | 00:00:00 | |
| PETON7-10 | 2026-09-05 11:50:07 | 47.94957 | 12.78656 | 114° | 15km/h | 19817m | 5.3m/s | -53.3°C | 4.1% | 60.0hPa | 2.6V | 00:00:00 | 00:00:00 | 00:00:00 | |
| DG1MJG | 2026-09-05 11:50:04 | 47.94960 | 12.78646 | 107° | 15km/h | 19807m | 4.8m/s | -53.2°C | 1.2% | 60.2hPa | 2.6V | 00:00:00 | 00:00:00 | 00:00:00 | |
| OE8JPQ-2 | 2026-09-05 11:50:03 | 47.94961 | 12.78635 | 94° | 15km/h | 19798m | 3.9m/s | -53.1°C | 3.9% | 60.2hPa | 2.6V | 00:00:00 | 00:00:00 | 00:00:00 | |
| OE5MMP-10 | 2026-09-05 11:50:02 | 47.94961 | 12.78630 | 100° | 15km/h | 19794m | 4.1m/s | -53.1°C | 4.0% | 60.2hPa | 2.6V | 00:00:00 | 01:20:34 | 08:30:00 | |
| OE5FHM-15 | 2026-09-05 11:50:01 | 47.94962 | 12.78626 | 114° | 16km/h | 19789m | 4.8m/s | -53.1°C | 4.0% | 60.3hPa | 2.7V | 00:00:00 | 01:20:33 | 00:00:00 | |
| BAUMI2-15 | 2026-09-05 11:49:57 | 47.94971 | 12.78606 | 117° | 16km/h | 19771m | 4.5m/s | -52.9°C | 4.0% | 60.4hPa | 2.7V | 00:00:00 | 01:20:29 | 00:00:00 | |
| OE5MMP-10 | 2026-09-05 11:49:52 | 47.94982 | 12.78581 | 123° | 13km/h | 19748m | 5.4m/s | -52.9°C | 4.0% | 60.7hPa | 2.7V | 00:00:00 | 01:20:24 | 00:00:00 | |
| OE5DXL-15 | 2026-09-05 11:49:51 | 47.94983 | 12.78577 | 117° | 18km/h | 19743m | 4.4m/s | -52.8°C | 4.0% | 60.7hPa | 2.7V | 00:00:00 | 00:00:00 | 00:00:00 | |
| OE5DRO-10 | 2026-09-05 11:49:48 | 47.94989 | 12.78567 | 144° | 18km/h | 19729m | 4.1m/s | -52.8°C | 3.9% | 60.9hPa | 2.6V | 00:00:00 | 00:00:00 | 00:00:00 | |
| BAUMI2-15 | 2026-09-05 11:49:47 | 47.94992 | 12.78564 | 144° | 13km/h | 19725m | 4.3m/s | -52.8°C | 3.9% | 60.9hPa | 2.7V | 00:00:00 | 01:20:19 | 00:00:00 | |
| OE8JPQ-2 | 2026-09-05 11:49:43 | 47.95001 | 12.78552 | 147° | 22km/h | 19706m | 5.9m/s | -52.6°C | 3.8% | 61.1hPa | 2.7V | 00:00:00 | 01:20:15 | 00:00:00 | |
| OE5MMP-10 | 2026-09-05 11:49:42 | 47.95004 | 12.78549 | 151° | 22km/h | 19701m | 5.0m/s | -52.6°C | 3.8% | 61.1hPa | 2.7V | 00:00:00 | 01:20:14 | 00:00:00 | |
| OE5WHR-10 | 2026-09-05 11:49:39 | 47.95016 | 12.78536 | 135° | 26km/h | 19686m | 3.6m/s | -52.6°C | 3.9% | 61.3hPa | 2.7V | 00:00:00 | 00:00:00 | 00:00:00 | |
| PETON7-10 | 2026-09-05 11:49:37 | 47.95025 | 12.78523 | 137° | 24km/h | 19677m | 5.5m/s | -52.6°C | 3.9% | 61.4hPa | 2.7V | 00:00:00 | 00:00:00 | 08:30:00 | |
| DG1MJG | 2026-09-05 11:49:34 | 47.95034 | 12.78509 | 132° | 24km/h | 19667m | 5.0m/s | -52.9°C | 1.2% | 61.5hPa | 2.7V | 00:00:00 | 00:00:00 | 00:00:00 | |
| OE5MMP-10 | 2026-09-05 11:49:32 | 47.95043 | 12.78492 | 132° | 26km/h | 19654m | 4.5m/s | -52.9°C | 3.7% | 61.6hPa | 2.7V | 00:00:00 | 01:20:04 | 00:00:00 | |
| OE5FHM-15 | 2026-09-05 11:49:31 | 47.95046 | 12.78488 | 142° | 33km/h | 19649m | 5.7m/s | -53.1°C | 3.7% | 61.6hPa | 2.7V | 00:00:00 | 01:20:03 | 08:30:00 | |
| OE5DRO-10 | 2026-09-05 11:49:29 | 47.95053 | 12.78480 | 141° | 33km/h | 19639m | 4.4m/s | -53.1°C | 3.7% | 61.7hPa | 2.7V | 00:00:00 | 00:00:00 | 00:00:00 | |
| BAUMI2-15 | 2026-09-05 11:49:27 | 47.95062 | 12.78467 | 126° | 31km/h | 19629m | 4.4m/s | -53.0°C | 3.7% | 61.8hPa | 2.7V | 00:00:00 | 01:19:59 | 00:00:00 | |
| OE8JPQ-2 | 2026-09-05 11:49:23 | 47.95078 | 12.78427 | 114° | 37km/h | 19611m | 4.1m/s | -53.2°C | 3.8% | 62.0hPa | 2.7V | 00:00:00 | 00:00:00 | 08:30:00 | |
| OE5MMP-10 | 2026-09-05 11:49:22 | 47.95080 | 12.78416 | 108° | 33km/h | 19607m | 5.6m/s | -53.3°C | 3.8% | 62.0hPa | 2.7V | 00:00:00 | 01:19:54 | 00:00:00 | |
| PETON7-10 | 2026-09-05 11:49:21 | 47.95082 | 12.78406 | 102° | 38km/h | 19601m | 5.0m/s | -53.5°C | 3.9% | 62.1hPa | 2.7V | 00:00:00 | 00:00:00 | 00:00:00 | |
| OE5WHR-10 | 2026-09-05 11:49:18 | 47.95088 | 12.78376 | 112° | 37km/h | 19588m | 3.2m/s | -54.3°C | 4.1% | 62.2hPa | 2.7V | 00:00:00 | 01:19:50 | 00:00:00 | |
| BAUMI2-15 | 2026-09-05 11:49:17 | 47.95090 | 12.78366 | 112° | 40km/h | 19584m | 4.1m/s | -54.4°C | 4.2% | 62.2hPa | 2.7V | 00:00:00 | 01:19:49 | 00:00:00 | |
| OE5MMP-10 | 2026-09-05 11:49:12 | 47.95110 | 12.78295 | 117° | 40km/h | 19561m | 3.3m/s | -54.5°C | 4.1% | 62.5hPa | 2.7V | 00:00:00 | 01:19:44 | 00:00:00 | |
| OE5DRO-10 | 2026-09-05 11:49:10 | 47.95120 | 12.78263 | 109° | 33km/h | 19554m | 5.1m/s | -54.6°C | 4.2% | 62.6hPa | 2.7V | 00:00:00 | 00:00:00 | 00:00:00 | |
| DB0UT-7 | 2026-09-05 11:49:09 | 47.95123 | 12.78247 | 101° | 31km/h | 19549m | 4.2m/s | -54.5°C | 4.1% | 62.6hPa | 2.7V | 00:00:00 | 00:00:00 | 00:00:00 | |
| BAUMI2-15 | 2026-09-05 11:49:07 | 47.95125 | 12.78216 | 94° | 35km/h | 19540m | 5.1m/s | -54.6°C | 4.2% | 62.7hPa | 2.6V | 00:00:00 | 01:19:39 | 08:30:00 | |
| PETON7-10 | 2026-09-05 11:49:06 | 47.95125 | 12.78202 | 93° | 33km/h | 19535m | 4.1m/s | -54.5°C | 4.2% | 62.7hPa | 2.7V | 00:00:00 | 01:19:38 | 00:00:00 | |
| OE8JPQ-2 | 2026-09-05 11:49:03 | 47.95126 | 12.78164 | 95° | 27km/h | 19522m | 4.1m/s | -54.5°C | 4.2% | 62.9hPa | 2.7V | 00:00:00 | 00:00:00 | 00:00:00 | |
| OE5MMP-10 | 2026-09-05 11:49:02 | 47.95127 | 12.78153 | 100° | 33km/h | 19517m | 5.3m/s | -54.6°C | 4.2% | 62.9hPa | 2.7V | 00:00:00 | 01:19:34 | 00:00:00 | |
| OE5FHM-15 | 2026-09-05 11:49:01 | 47.95129 | 12.78142 | 107° | 26km/h | 19512m | 4.3m/s | -54.7°C | 4.3% | 63.0hPa | 2.7V | 00:00:00 | 01:19:33 | 00:00:00 | |
| OE5WHR-10 | 2026-09-05 11:48:57 | 47.95138 | 12.78095 | 104° | 26km/h | 19495m | 3.6m/s | -55.0°C | 4.4% | 63.1hPa | 2.7V | 00:00:00 | 00:00:00 | 00:00:00 | |
| OE5MMP-10 | 2026-09-05 11:48:52 | 47.95141 | 12.78034 | 75° | 22km/h | 19473m | 4.8m/s | -54.9°C | 4.3% | 63.3hPa | 2.6V | 00:00:00 | 01:19:24 | 00:00:00 | |
| PETON7-10 | 2026-09-05 11:48:51 | 47.95139 | 12.78023 | 69° | 22km/h | 19468m | 4.2m/s | -54.9°C | 4.3% | 63.4hPa | 2.6V | 00:00:00 | 00:00:00 | 00:00:00 | |
| OE5DRO-10 | 2026-09-05 11:48:49 | 47.95134 | 12.78006 | 72° | 20km/h | 19459m | 4.1m/s | -54.9°C | 4.3% | 63.5hPa | 2.7V | 00:00:00 | 00:00:00 | 00:00:00 | |
| OE8JPQ-2 | 2026-09-05 11:48:43 | 47.95130 | 12.77966 | 100° | 24km/h | 19431m | 5.4m/s | -54.8°C | 4.3% | 63.8hPa | 2.6V | 00:00:00 | 01:19:15 | 00:00:00 | |
| OE5MMP-10 | 2026-09-05 11:48:42 | 47.95131 | 12.77959 | 106° | 22km/h | 19426m | 3.5m/s | 0°C | 0% | 0hPa | 2.6V | 00:00:00 | 01:19:14 | 00:00:00 | |
| OE5HKT-10 | 2026-09-05 11:48:36 | 47.95137 | 12.77907 | 91° | 27km/h | 19395m | 6.3m/s | -54.7°C | 4.2% | 64.1hPa | 2.6V | 00:00:00 | 00:00:00 | 00:00:00 | |
| OE5MMP-10 | 2026-09-05 11:48:32 | 47.95137 | 12.77876 | 108° | 26km/h | 19375m | 4.6m/s | 0°C | 0% | 0hPa | 2.6V | 00:00:00 | 01:19:04 | 08:30:00 | |
| OE5FHM-15 | 2026-09-05 11:48:31 | 47.95138 | 12.77871 | 120° | 29km/h | 19371m | 3.5m/s | -55.0°C | 4.2% | 64.4hPa | 2.6V | 00:00:00 | 01:19:03 | 00:00:00 | |
| OE5DRO-10 | 2026-09-05 11:48:30 | 47.95140 | 12.77865 | 119° | 29km/h | 19366m | 5.5m/s | -55.2°C | 4.3% | 64.4hPa | 2.6V | 00:00:00 | 00:00:00 | 00:00:00 | |
| S52SK | 2026-09-05 11:48:26 | 47.95149 | 12.77842 | 127° | 27km/h | 19350m | 5.9m/s | -55.3°C | 1.3% | 64.6hPa | 2.6V | 00:00:00 | 00:00:00 | 00:00:00 | |
| OE8JPQ-2 | 2026-09-05 11:48:23 | 47.95167 | 12.77800 | 114° | 29km/h | 19331m | 4.9m/s | -55.2°C | 4.4% | 64.8hPa | 2.6V | 00:00:00 | 00:00:00 | 00:00:00 | |
| OE5MMP-10 | 2026-09-05 11:48:22 | 47.95171 | 12.77788 | 112° | 31km/h | 19326m | 4.4m/s | 0°C | 0% | 0hPa | 2.7V | 00:00:00 | 01:18:54 | 00:00:00 | |
| PETON7-10 | 2026-09-05 11:48:21 | 47.95173 | 12.77777 | 112° | 31km/h | 19321m | 4.6m/s | -55.2°C | 4.5% | 64.9hPa | 2.7V | 00:00:00 | 01:18:53 | 00:00:00 | |
| OE5DXL-15 | 2026-09-05 11:48:20 | 47.95176 | 12.77766 | 112° | 26km/h | 19317m | 3.5m/s | -55.2°C | 4.5% | 64.9hPa | 2.7V | 00:00:00 | 00:00:00 | 00:00:00 | |
| OE5HKT-10 | 2026-09-05 11:48:15 | 47.95189 | 12.77714 | 117° | 27km/h | 19293m | 4.2m/s | -55.1°C | 4.3% | 65.2hPa | 2.7V | 00:00:00 | 01:18:47 | 00:00:00 | |
| OE5MMP-10 | 2026-09-05 11:48:12 | 47.95200 | 12.77679 | 114° | 27km/h | 19279m | 4.1m/s | 0°C | 0% | 0hPa | 2.7V | 00:00:00 | 01:18:44 | 00:00:00 | |
| OE5DRO-10 | 2026-09-05 11:48:11 | 47.95204 | 12.77667 | 117° | 26km/h | 19275m | 5.1m/s | -55.2°C | 4.4% | 65.4hPa | 2.7V | 00:00:00 | 00:00:00 | 00:00:00 | |
| PETON7-10 | 2026-09-05 11:48:06 | 47.95215 | 12.77616 | 95° | 24km/h | 19252m | 4.5m/s | -55.0°C | 4.4% | 65.6hPa | 2.7V | 00:00:00 | 00:00:00 | 00:00:00 | |
| OE8JPQ-2 | 2026-09-05 11:48:03 | 47.95217 | 12.77591 | 95° | 24km/h | 19238m | 4.0m/s | -55.0°C | 4.4% | 65.7hPa | 2.7V | 00:00:00 | 00:00:00 | 00:00:00 | |
| DG1MJG | 2026-09-05 11:48:02 | 47.95217 | 12.77582 | 95° | 24km/h | 19233m | 5.9m/s | -55.0°C | 1.4% | 65.8hPa | 2.7V | 00:00:00 | 00:00:00 | 00:00:00 | |
| OE5FHM-15 | 2026-09-05 11:47:59 | 47.95220 | 12.77552 | 107° | 22km/h | 19219m | 5.4m/s | -54.8°C | 4.3% | 65.9hPa | 2.7V | 00:00:00 | 01:18:31 | 00:00:00 | |
| OE5HKT-10 | 2026-09-05 11:47:54 | 47.95229 | 12.77507 | 92° | 20km/h | 19196m | 5.0m/s | -54.7°C | 4.1% | 66.2hPa | 2.7V | 00:00:00 | 00:00:00 | 00:00:00 | |
| OE5DRO-10 | 2026-09-05 11:47:52 | 47.95229 | 12.77493 | 85° | 22km/h | 19187m | 3.2m/s | -54.6°C | 4.1% | 66.3hPa | 2.7V | 00:00:00 | 00:00:00 | 08:30:00 | |
| PETON7-10 | 2026-09-05 11:47:51 | 47.95228 | 12.77486 | 81° | 20km/h | 19183m | 4.0m/s | -54.6°C | 4.1% | 66.3hPa | 2.6V | 00:00:00 | 00:00:00 | 00:00:00 | |
| OE5DXL-15 | 2026-09-05 11:47:50 | 47.95227 | 12.77480 | 81° | 22km/h | 19178m | 5.3m/s | -54.6°C | 4.1% | 66.4hPa | 2.6V | 00:00:00 | 00:00:00 | 00:00:00 | |
| PETON7-10 | 2026-09-05 11:47:36 | 47.95232 | 12.77379 | 74° | 27km/h | 19113m | 4.0m/s | -55.8°C | 4.4% | 67.0hPa | 2.6V | 00:00:00 | 01:18:08 | 00:00:00 | |
| OE5WHR-10 | 2026-09-05 11:47:33 | 47.95230 | 12.77355 | 90° | 31km/h | 19099m | 3.4m/s | -55.8°C | 4.3% | 67.2hPa | 2.6V | 00:00:00 | 00:00:00 | 00:00:00 | |
| OE5DRO-10 | 2026-09-05 11:47:32 | 47.95230 | 12.77346 | 92° | 33km/h | 19095m | 5.7m/s | -55.8°C | 4.3% | 67.2hPa | 2.6V | 00:00:00 | 00:00:00 | 00:00:00 | |
| DG1MJG | 2026-09-05 11:47:31 | 47.95230 | 12.77346 | 92° | 24km/h | 19095m | 5.7m/s | -55.8°C | 1.3% | 67.3hPa | 2.6V | 00:00:00 | 00:00:00 | 00:00:00 | |
| OE5FHM-15 | 2026-09-05 11:47:28 | 47.95232 | 12.77306 | 98° | 38km/h | 19073m | 5.9m/s | -55.7°C | 4.4% | 67.5hPa | 2.6V | 00:00:00 | 01:18:00 | 00:00:00 | |
| DB0UT-7 | 2026-09-05 11:47:27 | 47.95233 | 12.77297 | 99° | 51km/h | 19068m | 4.3m/s | -55.7°C | 4.4% | 67.5hPa | 2.6V | 00:00:00 | 00:00:00 | 00:00:00 | |
| OE8JPQ-2 | 2026-09-05 11:47:23 | 47.95235 | 12.77251 | 96° | 40km/h | 19049m | 3.4m/s | -55.8°C | 4.4% | 67.7hPa | 2.6V | 00:00:00 | 00:00:00 | 00:00:00 | |
| PETON7-10 | 2026-09-05 11:47:21 | 47.95238 | 12.77225 | 104° | 38km/h | 19039m | 4.7m/s | -55.8°C | 4.4% | 67.8hPa | 2.6V | 00:00:00 | 00:00:00 | 08:30:00 | |
| OE5DXL-15 | 2026-09-05 11:47:20 | 47.95240 | 12.77212 | 107° | 44km/h | 19035m | 3.7m/s | -55.9°C | 4.4% | 67.9hPa | 2.6V | 00:00:00 | 00:00:00 | 00:00:00 | |
| OE5WHR-10 | 2026-09-05 11:47:12 | 47.95257 | 12.77110 | 104° | 47km/h | 18997m | 5.6m/s | -56.4°C | 4.5% | 68.3hPa | 2.6V | 00:00:00 | 01:17:44 | 00:00:00 | |
| OE5DRO-10 | 2026-09-05 11:47:11 | 47.95259 | 12.77095 | 103° | 47km/h | 18991m | 4.7m/s | -56.4°C | 4.5% | 68.4hPa | 2.6V | 00:00:00 | 00:00:00 | 00:00:00 | |
| PETON7-10 | 2026-09-05 11:47:06 | 47.95275 | 12.77010 | 104° | 47km/h | 18966m | 5.5m/s | -56.8°C | 4.8% | 68.6hPa | 2.6V | 00:00:00 | 00:00:00 | 00:00:00 | |
| OE8JPQ-2 | 2026-09-05 11:47:03 | 47.95283 | 12.76960 | 105° | 49km/h | 18951m | 5.0m/s | -56.8°C | 4.8% | 68.8hPa | 2.6V | 00:00:00 | 00:00:00 | 00:00:00 | |
| OE5MMP-10 | 2026-09-05 11:47:02 | 47.95286 | 12.76944 | 107° | 49km/h | 18946m | 4.3m/s | 0°C | 0% | 0hPa | 2.6V | 00:00:00 | 01:17:34 | 00:00:00 | |
| DG1MJG | 2026-09-05 11:47:00 | 47.95289 | 12.76928 | 106° | 44km/h | 18942m | 4.8m/s | -56.8°C | 1.5% | 68.9hPa | 2.6V | 00:00:00 | 00:00:00 | 00:00:00 | |
| OE5FHM-15 | 2026-09-05 11:46:58 | 47.95297 | 12.76876 | 103° | 51km/h | 18926m | 5.6m/s | -56.6°C | 4.8% | 69.1hPa | 2.6V | 00:00:00 | 01:17:30 | 00:00:00 | |
| BAUMI2-15 | 2026-09-05 11:46:57 | 47.95300 | 12.76858 | 105° | 49km/h | 18920m | 4.8m/s | -56.5°C | 4.7% | 69.1hPa | 2.6V | 00:00:00 | 01:17:29 | 00:00:00 | |
| BAUMI2-15 | 2026-09-05 11:46:52 | 47.95314 | 12.76767 | 104° | 47km/h | 18896m | 5.9m/s | -56.4°C | 4.7% | 69.4hPa | 2.6V | 00:00:00 | 01:17:24 | 00:00:00 | |
| OE5WHR-10 | 2026-09-05 11:46:51 | 47.95317 | 12.76750 | 105° | 51km/h | 18891m | 3.5m/s | -56.3°C | 4.7% | 69.4hPa | 2.7V | 00:00:00 | 00:00:00 | 08:30:00 | |
| OE5DXL-15 | 2026-09-05 11:46:50 | 47.95320 | 12.76733 | 104° | 53km/h | 18887m | 3.6m/s | -56.3°C | 4.6% | 69.5hPa | 2.7V | 00:00:00 | 00:00:00 | 08:30:00 | |
| BAUMI2-15 | 2026-09-05 11:46:47 | 47.95325 | 12.76677 | 94° | 53km/h | 18872m | 3.8m/s | -56.2°C | 4.6% | 69.6hPa | 2.7V | 00:00:00 | 01:17:19 | 00:00:00 | |
| OE5MMP-10 | 2026-09-05 11:46:44 | 47.95329 | 12.76616 | 101° | 51km/h | 18857m | 4.6m/s | 0°C | 0% | 0hPa | 2.7V | 00:00:00 | 01:17:16 | 00:00:00 | |
| OE8JPQ-2 | 2026-09-05 11:46:43 | 47.95332 | 12.76597 | 101° | 53km/h | 18852m | 5.5m/s | -56.2°C | 4.6% | 69.9hPa | 2.7V | 00:00:00 | 01:17:15 | 00:00:00 | |
| BAUMI2-15 | 2026-09-05 11:46:42 | 47.95334 | 12.76579 | 99° | 49km/h | 18846m | 6.0m/s | -56.1°C | 4.6% | 69.9hPa | 2.7V | 00:00:00 | 01:17:14 | 00:00:00 | |
| BAUMI2-15 | 2026-09-05 11:46:37 | 47.95340 | 12.76486 | 94° | 58km/h | 18822m | 4.6m/s | -56.0°C | 4.6% | 70.2hPa | 2.7V | 00:00:00 | 01:17:09 | 00:00:00 | |
| PETON7-10 | 2026-09-05 11:46:36 | 47.95341 | 12.76466 | 90° | 55km/h | 18817m | 6.1m/s | -55.8°C | 4.5% | 70.3hPa | 2.7V | 00:00:00 | 00:00:00 | 00:00:00 | |
| OE5MMP-10 | 2026-09-05 11:46:34 | 47.95340 | 12.76422 | 87° | 55km/h | 18808m | 3.5m/s | 0°C | 0% | 0hPa | 2.7V | 00:00:00 | 01:17:06 | 00:00:00 | |
| BAUMI2-15 | 2026-09-05 11:46:32 | 47.95339 | 12.76378 | 93° | 51km/h | 18798m | 4.6m/s | -55.8°C | 4.3% | 70.5hPa | 2.7V | 00:00:00 | 01:17:04 | 00:00:00 | |
| OE5WHR-10 | 2026-09-05 11:46:30 | 47.95341 | 12.76338 | 94° | 58km/h | 18789m | 4.9m/s | -55.9°C | 4.4% | 70.6hPa | 2.7V | 00:00:00 | 00:00:00 | 00:00:00 | |
| DG1MJG | 2026-09-05 11:46:29 | 47.95341 | 12.76339 | 95° | 51km/h | 18789m | 5.0m/s | -55.9°C | 1.4% | 70.6hPa | 2.7V | 00:00:00 | 00:00:00 | 00:00:00 | |
| OE5FHM-15 | 2026-09-05 11:46:28 | 47.95342 | 12.76301 | 90° | 58km/h | 18779m | 4.8m/s | -56.0°C | 4.4% | 70.7hPa | 2.7V | 00:00:00 | 01:17:00 | 00:00:00 | |
| BAUMI2-15 | 2026-09-05 11:46:27 | 47.95341 | 12.76282 | 89° | 57km/h | 18774m | 4.5m/s | -56.0°C | 4.5% | 70.7hPa | 2.7V | 00:00:00 | 01:16:59 | 00:00:00 | |
| OE8JPQ-2 | 2026-09-05 11:46:23 | 47.95341 | 12.76198 | 88° | 60km/h | 18755m | 5.4m/s | -56.4°C | 4.7% | 70.9hPa | 2.7V | 00:00:00 | 00:00:00 | 08:30:00 | |
| BAUMI2-15 | 2026-09-05 11:46:22 | 47.95340 | 12.76176 | 86° | 62km/h | 18750m | 4.2m/s | -56.4°C | 4.7% | 71.0hPa | 2.7V | 00:00:00 | 01:16:54 | 08:30:00 | |
| OE5MMP-10 | 2026-09-05 11:46:21 | 47.95339 | 12.76153 | 86° | 58km/h | 18746m | 4.5m/s | 0°C | 0% | 0hPa | 2.7V | 00:00:00 | 01:16:53 | 00:00:00 | |
| PETON7-10 | 2026-09-05 11:46:20 | 47.95338 | 12.76130 | 87° | 60km/h | 18741m | 4.9m/s | -56.3°C | 4.7% | 71.1hPa | 2.7V | 00:00:00 | 00:00:00 | 00:00:00 | |
| BAUMI2-15 | 2026-09-05 11:46:17 | 47.95334 | 12.76060 | 84° | 62km/h | 18728m | 4.3m/s | -56.5°C | 4.7% | 71.3hPa | 2.7V | 00:00:00 | 01:16:49 | 00:00:00 | |
| DB0UT-7 | 2026-09-05 11:46:14 | 47.95330 | 12.75989 | 86° | 53km/h | 18714m | 3.7m/s | -56.5°C | 4.7% | 71.4hPa | 2.7V | 00:00:00 | 01:16:46 | 00:00:00 | |
| BAUMI2-15 | 2026-09-05 11:46:12 | 47.95326 | 12.75943 | 83° | 58km/h | 18705m | 4.8m/s | -56.5°C | 4.6% | 71.5hPa | 2.7V | 00:00:00 | 01:16:44 | 00:00:00 | |
| OE5WHR-10 | 2026-09-05 11:46:09 | 47.95321 | 12.75878 | 86° | 55km/h | 18691m | 4.3m/s | -56.3°C | 4.6% | 71.7hPa | 2.7V | 00:00:00 | 01:16:41 | 00:00:00 | |
| BAUMI2-15 | 2026-09-05 11:46:07 | 47.95319 | 12.75834 | 86° | 58km/h | 18683m | 5.0m/s | -56.3°C | 4.6% | 71.8hPa | 2.7V | 00:00:00 | 01:16:39 | 00:00:00 | |
| PETON7-10 | 2026-09-05 11:46:05 | 47.95317 | 12.75791 | 88° | 55km/h | 18674m | 4.7m/s | -56.2°C | 4.7% | 71.9hPa | 2.6V | 00:00:00 | 01:16:37 | 00:00:00 | |
| OE5MMP-10 | 2026-09-05 11:46:03 | 47.95317 | 12.75747 | 93° | 55km/h | 18664m | 4.3m/s | 0°C | 0% | 0hPa | 2.6V | 00:00:00 | 01:16:35 | 00:00:00 | |
| BAUMI2-15 | 2026-09-05 11:46:02 | 47.95318 | 12.75725 | 92° | 57km/h | 18660m | 4.3m/s | -56.1°C | 4.7% | 72.0hPa | 2.6V | 00:00:00 | 01:16:34 | 00:00:00 | |
| DF7PN | 2026-09-05 11:46:00 | 47.95317 | 12.75464 | 86° | 53km/h | 18600m | 4.5m/s | -56.0°C | -1.0% | -1.0hPa | 2.6V | 00:00:00 | 00:00:00 | 00:00:00 | |
| OE5FHM-15 | 2026-09-05 11:45:58 | 47.95319 | 12.75639 | 93° | 51km/h | 18642m | 4.6m/s | -56.1°C | 4.6% | 72.2hPa | 2.6V | 00:00:00 | 01:16:30 | 00:00:00 | |
| BAUMI2-15 | 2026-09-05 11:45:57 | 47.95319 | 12.75618 | 93° | 51km/h | 18637m | 4.2m/s | -56.2°C | 4.6% | 72.3hPa | 2.6V | 00:00:00 | 01:16:29 | 00:00:00 | |
| OE5MMP-10 | 2026-09-05 11:45:53 | 47.95318 | 12.75541 | 89° | 51km/h | 18620m | 5.3m/s | 0°C | 0% | 0hPa | 2.6V | 00:00:00 | 01:16:25 | 00:00:00 | |
| BAUMI2-15 | 2026-09-05 11:45:52 | 47.95318 | 12.75523 | 90° | 53km/h | 18614m | 4.6m/s | -56.1°C | 4.6% | 72.6hPa | 2.6V | 00:00:00 | 01:16:24 | 00:00:00 | |
| PETON7-10 | 2026-09-05 11:45:50 | 47.95318 | 12.75484 | 89° | 49km/h | 18606m | 5.5m/s | -56.0°C | 4.6% | 72.7hPa | 2.6V | 00:00:00 | 00:00:00 | 00:00:00 | |
| OE5HKT-10 | 2026-09-05 11:45:48 | 47.95316 | 12.75443 | 88° | 49km/h | 18596m | 3.5m/s | -56.0°C | 4.5% | 72.8hPa | 2.7V | 00:00:00 | 00:00:00 | 08:30:00 | |
| BAUMI2-15 | 2026-09-05 11:45:47 | 47.95316 | 12.75422 | 90° | 55km/h | 18592m | 5.5m/s | -56.0°C | 4.5% | 72.8hPa | 2.6V | 00:00:00 | 01:16:19 | 00:00:00 | |
| DB0UT-7 | 2026-09-05 11:45:44 | 47.95316 | 12.75360 | 90° | 51km/h | 18577m | 4.6m/s | -55.9°C | 4.6% | 73.0hPa | 2.6V | 00:00:00 | 00:00:00 | 00:00:00 | |
| OE8JPQ-2 | 2026-09-05 11:45:43 | 47.95317 | 12.75341 | 91° | 47km/h | 18573m | 4.0m/s | -55.9°C | 4.6% | 73.0hPa | 2.6V | 00:00:00 | 01:16:15 | 00:00:00 | |
| BAUMI2-15 | 2026-09-05 11:45:42 | 47.95317 | 12.75322 | 93° | 46km/h | 18568m | 5.7m/s | -56.0°C | 4.7% | 73.1hPa | 2.6V | 00:00:00 | 01:16:14 | 00:00:00 | |
| OE5DRO-10 | 2026-09-05 11:45:41 | 47.95318 | 12.75304 | 96° | 55km/h | 18563m | 4.1m/s | -56.0°C | 4.7% | 73.1hPa | 2.6V | 00:00:00 | 00:00:00 | 00:00:00 | |
| BAUMI2-15 | 2026-09-05 11:45:37 | 47.95318 | 12.75237 | 87° | 49km/h | 18545m | 4.6m/s | -56.0°C | 4.6% | 73.4hPa | 2.6V | 00:00:00 | 01:16:09 | 08:30:00 | |
| PETON7-10 | 2026-09-05 11:45:35 | 47.95317 | 12.75202 | 88° | 47km/h | 18535m | 4.3m/s | -56.1°C | 4.6% | 73.5hPa | 2.6V | 00:00:00 | 00:00:00 | 00:00:00 | |
| BAUMI2-15 | 2026-09-05 11:45:32 | 47.95312 | 12.75145 | 82° | 51km/h | 18521m | 3.7m/s | -56.0°C | 4.6% | 73.6hPa | 2.6V | 00:00:00 | 01:16:04 | 00:00:00 | |
| DG1MJG | 2026-09-05 11:45:28 | 47.95308 | 12.75088 | 87° | 49km/h | 18507m | 3.8m/s | -55.8°C | 1.4% | 73.8hPa | 2.6V | 00:00:00 | 00:00:00 | 00:00:00 | |
| OE5HKT-10 | 2026-09-05 11:45:27 | 47.95306 | 12.75051 | 86° | 42km/h | 18499m | 4.0m/s | -55.8°C | 4.6% | 73.9hPa | 2.6V | 00:00:00 | 00:00:00 | 00:00:00 | |
| OE5FHM-15 | 2026-09-05 11:45:26 | 47.95306 | 12.75033 | 88° | 42km/h | 18494m | 4.9m/s | -55.7°C | 4.7% | 74.0hPa | 2.6V | 00:00:00 | 01:15:58 | 00:00:00 | |
| BAUMI2-15 | 2026-09-05 11:45:22 | 47.95304 | 12.74967 | 85° | 42km/h | 18474m | 3.9m/s | -55.5°C | 4.5% | 74.2hPa | 2.6V | 00:00:00 | 01:15:54 | 00:00:00 | |
| PETON7-10 | 2026-09-05 11:45:20 | 47.95302 | 12.74936 | 85° | 42km/h | 18465m | 5.9m/s | -55.6°C | 4.4% | 74.3hPa | 2.6V | 00:00:00 | 01:15:52 | 00:00:00 | |
| BAUMI2-15 | 2026-09-05 11:45:18 | 47.95299 | 12.74890 | 82° | 42km/h | 18451m | 5.3m/s | -55.5°C | 4.4% | 74.4hPa | 2.6V | 00:00:00 | 01:15:49 | 00:00:00 | |
| BAUMI2-15 | 2026-09-05 11:45:12 | 47.95293 | 12.74812 | 92° | 42km/h | 18429m | 3.6m/s | -55.2°C | 4.3% | 74.7hPa | 2.6V | 00:00:00 | 01:15:44 | 00:00:00 | |
| BAUMI2-15 | 2026-09-05 11:45:07 | 47.95291 | 12.74734 | 89° | 44km/h | 18405m | 5.7m/s | -55.4°C | 4.3% | 75.0hPa | 2.6V | 00:00:00 | 01:15:39 | 00:00:00 | |
| OE5HKT-10 | 2026-09-05 11:45:06 | 47.95291 | 12.74718 | 92° | 42km/h | 18399m | 5.1m/s | -55.4°C | 4.3% | 75.1hPa | 2.7V | 00:00:00 | 01:15:38 | 00:00:00 | |
| PETON7-10 | 2026-09-05 11:45:05 | 47.95292 | 12.74701 | 91° | 40km/h | 18394m | 5.6m/s | -55.4°C | 4.3% | 75.1hPa | 2.7V | 00:00:00 | 00:00:00 | 08:30:00 | |
| BAUMI2-15 | 2026-09-05 11:45:02 | 47.95291 | 12.74650 | 88° | 38km/h | 18378m | 6.0m/s | -55.6°C | 4.3% | 75.3hPa | 2.6V | 00:00:00 | 01:15:34 | 00:00:00 | |
| DG1MJG | 2026-09-05 11:44:57 | 47.95291 | 12.74594 | 93° | 35km/h | 18356m | 4.9m/s | -56.2°C | 1.5% | 75.6hPa | 2.6V | 00:00:00 | 00:00:00 | 00:00:00 | |
| OE5FHM-15 | 2026-09-05 11:44:56 | 47.95293 | 12.74569 | 103° | 51km/h | 18347m | 5.6m/s | -56.4°C | 4.6% | 75.7hPa | 2.6V | 00:00:00 | 01:15:28 | 08:30:00 | |
| PETON7-10 | 2026-09-05 11:44:50 | 47.95312 | 12.74482 | 103° | 51km/h | 18317m | 6.6m/s | -56.5°C | 4.7% | 76.0hPa | 2.7V | 00:00:00 | 00:00:00 | 00:00:00 | |
| S52SK | 2026-09-05 11:44:48 | 47.95316 | 12.74447 | 96° | 46km/h | 18306m | 5.1m/s | -56.5°C | 1.5% | 76.2hPa | 2.7V | 00:00:00 | 00:00:00 | 00:00:00 | |
| OE5WHR-10 | 2026-09-05 11:44:45 | 47.95318 | 12.74391 | 94° | 57km/h | 18290m | 4.1m/s | -56.5°C | 4.5% | 76.4hPa | 2.7V | 00:00:00 | 00:00:00 | 00:00:00 | |
| OE5HKT-10 | 2026-09-05 11:44:44 | 47.95319 | 12.74371 | 97° | 57km/h | 18284m | 6.1m/s | -56.4°C | 4.5% | 76.4hPa | 2.7V | 00:00:00 | 00:00:00 | 00:00:00 | |
| S52SK | 2026-09-05 11:44:41 | 47.95323 | 12.74334 | 104° | 49km/h | 18273m | 4.8m/s | -56.4°C | 1.4% | 76.6hPa | 2.6V | 00:00:00 | 00:00:00 | 00:00:00 | |
| S52SK | 2026-09-05 11:44:37 | 47.95336 | 12.74234 | 99° | 58km/h | 18246m | 5.4m/s | -56.6°C | 1.5% | 76.9hPa | 2.6V | 00:00:00 | 00:00:00 | 00:00:00 | |
| PETON7-10 | 2026-09-05 11:44:35 | 47.95339 | 12.74189 | 94° | 60km/h | 18235m | 6.0m/s | -56.8°C | 4.7% | 77.0hPa | 2.6V | 00:00:00 | 01:15:07 | 00:00:00 | |
| DG1MJG | 2026-09-05 11:44:27 | 47.95352 | 12.74036 | 105° | 58km/h | 18201m | 4.8m/s | -57.0°C | 1.5% | 77.5hPa | 2.6V | 00:00:00 | 00:00:00 | 00:00:00 | |
| OE5FHM-15 | 2026-09-05 11:44:26 | 47.95358 | 12.73993 | 102° | 64km/h | 18191m | 4.7m/s | -57.4°C | 4.8% | 77.5hPa | 2.6V | 00:00:00 | 01:14:58 | 00:00:00 | |
| OE5WHR-10 | 2026-09-05 11:44:24 | 47.95364 | 12.73951 | 101° | 66km/h | 18182m | 5.1m/s | -57.7°C | 4.8% | 77.7hPa | 2.6V | 00:00:00 | 00:00:00 | 00:00:00 | |
| OE5HKT-10 | 2026-09-05 11:44:23 | 47.95367 | 12.73929 | 101° | 66km/h | 18176m | 5.8m/s | -57.7°C | 4.9% | 77.7hPa | 2.6V | 00:00:00 | 00:00:00 | 00:00:00 | |
| PETON7-10 | 2026-09-05 11:44:20 | 47.95372 | 12.73853 | 92° | 68km/h | 18160m | 5.4m/s | -57.7°C | 4.9% | 77.9hPa | 2.6V | 00:00:00 | 00:00:00 | 00:00:00 | |
| PETON7-10 | 2026-09-05 11:44:05 | 47.95357 | 12.73478 | 84° | 60km/h | 18087m | 4.1m/s | -57.9°C | 5.1% | 78.8hPa | 2.6V | 00:00:00 | 00:00:00 | 00:00:00 | |
| OE5WHR-10 | 2026-09-05 11:44:03 | 47.95352 | 12.73432 | 80° | 60km/h | 18077m | 4.6m/s | -57.9°C | 5.0% | 79.0hPa | 2.6V | 00:00:00 | 01:14:35 | 00:00:00 | |
| OE5HKT-10 | 2026-09-05 11:44:02 | 47.95349 | 12.73408 | 79° | 60km/h | 18072m | 5.6m/s | -57.9°C | 5.1% | 79.1hPa | 2.6V | 00:00:00 | 01:14:34 | 00:00:00 | |
| OE8JPQ-2 | 2026-09-05 11:43:58 | 47.95336 | 12.73316 | 77° | 57km/h | 18053m | 4.5m/s | -57.9°C | 5.1% | 79.3hPa | 2.6V | 00:00:00 | 01:14:30 | 00:00:00 | |
| OE5FHM-15 | 2026-09-05 11:43:56 | 47.95330 | 12.73273 | 81° | 58km/h | 18044m | 5.4m/s | -57.9°C | 5.1% | 79.4hPa | 2.6V | 00:00:00 | 01:14:28 | 00:00:00 | |
| OE5DRO-10 | 2026-09-05 11:43:53 | 47.95325 | 12.73208 | 86° | 57km/h | 18029m | 5.3m/s | -57.9°C | 5.1% | 79.6hPa | 2.6V | 00:00:00 | 00:00:00 | 00:00:00 | |
| PETON7-10 | 2026-09-05 11:43:50 | 47.95321 | 12.73141 | 85° | 58km/h | 18015m | 5.4m/s | -57.7°C | 5.1% | 79.8hPa | 2.6V | 00:00:00 | 01:14:22 | 00:00:00 | |
| OE5WHR-10 | 2026-09-05 11:43:42 | 47.95303 | 12.72958 | 85° | 55km/h | 17976m | 5.5m/s | -57.5°C | 5.0% | 80.2hPa | 2.6V | 00:00:00 | 00:00:00 | 08:30:00 | |
| OE5HKT-10 | 2026-09-05 11:43:41 | 47.95302 | 12.72938 | 85° | 55km/h | 17971m | 5.0m/s | -57.6°C | 5.0% | 80.3hPa | 2.6V | 00:00:00 | 00:00:00 | 00:00:00 | |
| OE8JPQ-2 | 2026-09-05 11:43:37 | 47.95300 | 12.72860 | 87° | 55km/h | 17952m | 5.7m/s | -57.5°C | 5.0% | 80.6hPa | 2.6V | 00:00:00 | 00:00:00 | 00:00:00 | |
| PETON7-10 | 2026-09-05 11:43:35 | 47.95297 | 12.72819 | 84° | 57km/h | 17942m | 4.6m/s | -57.4°C | 5.0% | 80.7hPa | 2.6V | 00:00:00 | 00:00:00 | 00:00:00 | |
| OE5DRO-10 | 2026-09-05 11:43:32 | 47.95293 | 12.72751 | 85° | 55km/h | 17928m | 5.3m/s | -57.3°C | 4.9% | 80.9hPa | 2.7V | 00:00:00 | 00:00:00 | 00:00:00 | |
| OE5FHM-15 | 2026-09-05 11:43:26 | 47.95287 | 12.72621 | 84° | 57km/h | 17899m | 5.1m/s | -57.1°C | 4.8% | 81.2hPa | 2.7V | 00:00:00 | 01:13:58 | 00:00:00 | |
| DG1MJG | 2026-09-05 11:43:25 | 47.95287 | 12.72621 | 84° | 51km/h | 17899m | 5.1m/s | -57.1°C | 1.6% | 81.3hPa | 2.6V | 00:00:00 | 00:00:00 | 00:00:00 | |
| OE5WHR-10 | 2026-09-05 11:43:21 | 47.95282 | 12.72524 | 88° | 57km/h | 17876m | 4.9m/s | -57.0°C | 4.8% | 81.5hPa | 2.6V | 00:00:00 | 00:00:00 | 00:00:00 | |
| PETON7-10 | 2026-09-05 11:43:20 | 47.95281 | 12.72503 | 87° | 57km/h | 17871m | 4.5m/s | -57.0°C | 4.8% | 81.6hPa | 2.6V | 00:00:00 | 00:00:00 | 00:00:00 | |
| OE5HKT-10 | 2026-09-05 11:43:17 | 47.95280 | 12.72442 | 92° | 58km/h | 17857m | 4.7m/s | -57.1°C | 4.8% | 81.8hPa | 2.6V | 00:00:00 | 00:00:00 | 00:00:00 | |
| OE5DRO-10 | 2026-09-05 11:43:13 | 47.95280 | 12.72356 | 89° | 58km/h | 17837m | 3.2m/s | -57.2°C | 4.8% | 82.0hPa | 2.6V | 00:00:00 | 00:00:00 | 00:00:00 | |
| S52SK | 2026-09-05 11:43:07 | 47.95286 | 12.72231 | 99° | 57km/h | 17807m | 4.1m/s | -57.6°C | 1.7% | 82.5hPa | 2.6V | 00:00:00 | 00:00:00 | 00:00:00 | |
| PETON7-10 | 2026-09-05 11:43:06 | 47.95291 | 12.72190 | 101° | 58km/h | 17797m | 4.7m/s | -57.8°C | 5.0% | 82.6hPa | 2.6V | 00:00:00 | 01:13:37 | 00:00:00 | |
| DB0UT-7 | 2026-09-05 11:43:01 | 47.95299 | 12.72103 | 97° | 58km/h | 17779m | 4.6m/s | -57.8°C | 5.0% | 82.8hPa | 2.6V | 00:00:00 | 01:13:33 | 00:00:00 | |
| OE5WHR-10 | 2026-09-05 11:43:00 | 47.95301 | 12.72080 | 98° | 57km/h | 17774m | 4.9m/s | -57.9°C | 5.1% | 82.9hPa | 2.6V | 00:00:00 | 01:13:32 | 00:00:00 | |
| OE8JPQ-2 | 2026-09-05 11:42:57 | 47.95307 | 12.72012 | 95° | 57km/h | 17761m | 5.1m/s | 0°C | 0% | 0hPa | 2.6V | 00:00:00 | 01:13:29 | 00:00:00 | |
| OE5FHM-15 | 2026-09-05 11:42:56 | 47.95308 | 12.71989 | 93° | 57km/h | 17756m | 4.2m/s | -57.8°C | 5.0% | 83.1hPa | 2.6V | 00:00:00 | 01:13:28 | 00:00:00 | |
| OE5DRO-10 | 2026-09-05 11:42:54 | 47.95310 | 12.71944 | 93° | 55km/h | 17746m | 4.9m/s | -57.9°C | 5.1% | 83.3hPa | 2.6V | 00:00:00 | 00:00:00 | 00:00:00 | |
| BAUMI2-15 | 2026-09-05 11:42:52 | 47.95310 | 12.71902 | 90° | 55km/h | 17737m | 5.5m/s | -57.8°C | 5.0% | 83.4hPa | 2.6V | 00:00:00 | 01:13:24 | 08:30:00 | |
| PETON7-10 | 2026-09-05 11:42:50 | 47.95310 | 12.71859 | 89° | 55km/h | 17727m | 5.6m/s | -57.8°C | 5.1% | 83.5hPa | 2.6V | 00:00:00 | 00:00:00 | 08:30:00 | |
| BAUMI2-15 | 2026-09-05 11:42:47 | 47.95309 | 12.71798 | 90° | 57km/h | 17713m | 5.1m/s | -57.8°C | 5.0% | 83.7hPa | 2.6V | 00:00:00 | 01:13:19 | 00:00:00 | |
| BAUMI2-15 | 2026-09-05 11:42:42 | 47.95309 | 12.71694 | 91° | 53km/h | 17690m | 3.9m/s | -57.8°C | 5.0% | 84.0hPa | 2.6V | 00:00:00 | 01:13:14 | 00:00:00 | |
| OE5MMP-10 | 2026-09-05 11:42:40 | 47.95309 | 12.71655 | 89° | 58km/h | 17681m | 5.5m/s | -58.0°C | 5.1% | 84.1hPa | 2.6V | 00:00:00 | 01:13:12 | 00:00:00 | |
| OE5WHR-10 | 2026-09-05 11:42:39 | 47.95308 | 12.71635 | 88° | 60km/h | 17676m | 4.5m/s | -58.0°C | 5.2% | 84.2hPa | 2.6V | 00:00:00 | 00:00:00 | 00:00:00 | |
| OE8JPQ-2 | 2026-09-05 11:42:37 | 47.95308 | 12.71593 | 93° | 60km/h | 17666m | 5.8m/s | 0°C | 0% | 0hPa | 2.7V | 00:00:00 | 00:00:00 | 08:30:00 | |
| OE5HKT-10 | 2026-09-05 11:42:35 | 47.95311 | 12.71551 | 98° | 62km/h | 17656m | 5.6m/s | -58.0°C | 5.1% | 84.4hPa | 2.7V | 00:00:00 | 00:00:00 | 08:30:00 | |
| PETON7-10 | 2026-09-05 11:42:34 | 47.95313 | 12.71528 | 99° | 60km/h | 17650m | 5.2m/s | -58.0°C | 5.1% | 84.5hPa | 2.7V | 00:00:00 | 00:00:00 | 00:00:00 | |
| BAUMI2-15 | 2026-09-05 11:42:32 | 47.95319 | 12.71482 | 101° | 60km/h | 17640m | 5.0m/s | -57.9°C | 5.0% | 84.6hPa | 2.7V | 00:00:00 | 01:13:04 | 00:00:00 | |
| DB0UT-7 | 2026-09-05 11:42:31 | 47.95321 | 12.71460 | 100° | 57km/h | 17635m | 4.5m/s | -57.9°C | 5.0% | 84.7hPa | 2.7V | 00:00:00 | 00:00:00 | 00:00:00 | |
| OE5MMP-10 | 2026-09-05 11:42:30 | 47.95323 | 12.71438 | 98° | 62km/h | 17631m | 5.4m/s | -57.9°C | 5.0% | 84.8hPa | 2.7V | 00:00:00 | 01:13:02 | 00:00:00 | |
| BAUMI2-15 | 2026-09-05 11:42:27 | 47.95327 | 12.71370 | 93° | 62km/h | 17615m | 6.0m/s | -57.9°C | 5.0% | 85.0hPa | 2.6V | 00:00:00 | 01:12:59 | 00:00:00 | |
| OE5FHM-15 | 2026-09-05 11:42:26 | 47.95327 | 12.71348 | 92° | 68km/h | 17610m | 4.3m/s | -57.8°C | 5.0% | 85.1hPa | 2.6V | 00:00:00 | 01:12:58 | 00:00:00 | |
| DG1MJG | 2026-09-05 11:42:23 | 47.95328 | 12.71301 | 92° | 64km/h | 17599m | 4.9m/s | -57.7°C | 1.7% | 85.3hPa | 2.6V | 00:00:00 | 00:00:00 | 00:00:00 | |
| BAUMI2-15 | 2026-09-05 11:42:22 | 47.95330 | 12.71252 | 94° | 64km/h | 17591m | 5.7m/s | -57.8°C | 5.0% | 85.3hPa | 2.6V | 00:00:00 | 01:12:54 | 00:00:00 | |
| OE5DXL-15 | 2026-09-05 11:42:20 | 47.95332 | 12.71205 | 95° | 66km/h | 17580m | 3.8m/s | -58.0°C | 5.1% | 85.5hPa | 2.6V | 00:00:00 | 00:00:00 | 08:30:00 | |
| OE5WHR-10 | 2026-09-05 11:42:19 | 47.95334 | 12.71158 | 93° | 68km/h | 17571m | 5.1m/s | -58.2°C | 5.1% | 85.6hPa | 2.7V | 00:00:00 | 00:00:00 | 00:00:00 | |
| OE8JPQ-2 | 2026-09-05 11:42:17 | 47.95335 | 12.71133 | 94° | 66km/h | 17566m | 4.5m/s | 0°C | 0% | 0hPa | 2.7V | 00:00:00 | 00:00:00 | 00:00:00 | |
| OE5DRO-10 | 2026-09-05 11:42:16 | 47.95336 | 12.71107 | 94° | 68km/h | 17560m | 5.8m/s | -58.2°C | 5.2% | 85.7hPa | 2.7V | 00:00:00 | 00:00:00 | 00:00:00 | |
| BAUMI2-15 | 2026-09-05 11:42:12 | 47.95340 | 12.71000 | 92° | 69km/h | 17539m | 4.6m/s | -58.3°C | 5.3% | 86.0hPa | 2.7V | 00:00:00 | 01:12:44 | 00:00:00 | |
| BAUMI2-15 | 2026-09-05 11:42:07 | 47.95342 | 12.70870 | 90° | 64km/h | 17513m | 6.7m/s | -58.2°C | 5.4% | 86.4hPa | 2.7V | 00:00:00 | 01:12:39 | 08:30:00 | |
| OE5MMP-10 | 2026-09-05 11:42:02 | 47.95338 | 12.70748 | 86° | 64km/h | 17486m | 4.6m/s | -58.2°C | 5.3% | 86.8hPa | 2.7V | 00:00:00 | 01:12:34 | 00:00:00 | |
| OE5WHR-10 | 2026-09-05 11:41:57 | 47.95322 | 12.70621 | 79° | 58km/h | 17457m | 4.3m/s | -58.1°C | 5.2% | 87.2hPa | 2.7V | 00:00:00 | 01:12:29 | 00:00:00 | |
| OE5FHM-15 | 2026-09-05 11:41:56 | 47.95318 | 12.70597 | 78° | 57km/h | 17452m | 5.7m/s | -58.1°C | 5.1% | 87.2hPa | 2.7V | 00:00:00 | 01:12:28 | 00:00:00 | |
| OE5HKT-10 | 2026-09-05 11:41:53 | 47.95309 | 12.70532 | 81° | 57km/h | 17436m | 5.3m/s | -57.8°C | 5.2% | 87.5hPa | 2.6V | 00:00:00 | 01:12:25 | 00:00:00 | |
| OE5MMP-10 | 2026-09-05 11:41:52 | 47.95307 | 12.70511 | 84° | 58km/h | 17431m | 5.3m/s | -57.8°C | 5.1% | 87.5hPa | 2.6V | 00:00:00 | 01:12:24 | 08:30:00 | |
| OE5DXL-15 | 2026-09-05 11:41:50 | 47.95304 | 12.70471 | 83° | 57km/h | 17421m | 5.5m/s | -57.8°C | 5.2% | 87.7hPa | 2.6V | 00:00:00 | 00:00:00 | 00:00:00 | |
| BAUMI2-15 | 2026-09-05 11:41:47 | 47.95297 | 12.70409 | 81° | 60km/h | 17407m | 5.2m/s | -57.6°C | 5.2% | 87.9hPa | 2.6V | 00:00:00 | 01:12:19 | 00:00:00 | |
| OE5MMP-10 | 2026-09-05 11:41:42 | 47.95284 | 12.70297 | 82° | 57km/h | 17382m | 5.0m/s | -57.4°C | 5.2% | 88.2hPa | 2.6V | 00:00:00 | 01:12:14 | 00:00:00 | |
| OE5DRO-10 | 2026-09-05 11:41:38 | 47.95273 | 12.70210 | 81° | 55km/h | 17363m | 5.4m/s | -57.3°C | 5.0% | 88.5hPa | 2.6V | 00:00:00 | 00:00:00 | 00:00:00 | |
| BAUMI2-15 | 2026-09-05 11:41:37 | 47.95271 | 12.70190 | 82° | 55km/h | 17358m | 4.8m/s | -57.3°C | 5.0% | 88.5hPa | 2.6V | 00:00:00 | 01:12:09 | 00:00:00 | |
| OE5WHR-10 | 2026-09-05 11:41:36 | 47.95269 | 12.70169 | 82° | 55km/h | 17353m | 4.4m/s | -57.3°C | 5.0% | 88.6hPa | 2.7V | 00:00:00 | 00:00:00 | 00:00:00 | |
| S52SK | 2026-09-05 11:41:30 | 47.95258 | 12.70067 | 81° | 57km/h | 17330m | 4.3m/s | -57.2°C | 1.8% | 89.0hPa | 2.7V | 00:00:00 | 00:00:00 | 00:00:00 | |
| BAUMI2-15 | 2026-09-05 11:41:27 | 47.95245 | 12.69983 | 80° | 53km/h | 17310m | 4.8m/s | -57.0°C | 5.0% | 89.2hPa | 2.7V | 00:00:00 | 01:11:59 | 00:00:00 | |
| OE5FHM-15 | 2026-09-05 11:41:26 | 47.95243 | 12.69963 | 81° | 53km/h | 17306m | 3.7m/s | -57.1°C | 5.1% | 89.3hPa | 2.7V | 00:00:00 | 01:11:58 | 00:00:00 | |
| OE5MMP-10 | 2026-09-05 11:41:22 | 47.95233 | 12.69885 | 79° | 53km/h | 17287m | 5.0m/s | -57.2°C | 5.0% | 89.6hPa | 2.7V | 00:00:00 | 01:11:54 | 00:00:00 | |
| OE5DXL-15 | 2026-09-05 11:41:20 | 47.95227 | 12.69847 | 76° | 53km/h | 17278m | 4.9m/s | -57.2°C | 4.9% | 89.6hPa | 2.6V | 00:00:00 | 00:00:00 | 00:00:00 | |
| OE5DRO-10 | 2026-09-05 11:41:19 | 47.95223 | 12.69828 | 73° | 53km/h | 17273m | 5.0m/s | -57.1°C | 4.9% | 89.7hPa | 2.6V | 00:00:00 | 00:00:00 | 00:00:00 | |
| BAUMI2-15 | 2026-09-05 11:41:17 | 47.95215 | 12.69790 | 73° | 55km/h | 17264m | 4.1m/s | -57.1°C | 5.0% | 89.9hPa | 2.6V | 00:00:00 | 01:11:49 | 00:00:00 | |
| OE5WHR-10 | 2026-09-05 11:41:15 | 47.95208 | 12.69749 | 80° | 53km/h | 17255m | 3.6m/s | -56.9°C | 5.0% | 90.0hPa | 2.6V | 00:00:00 | 00:00:00 | 00:00:00 | |
| DB0UT-7 | 2026-09-05 11:41:14 | 47.95206 | 12.69729 | 82° | 62km/h | 17251m | 4.0m/s | -56.9°C | 5.0% | 90.0hPa | 2.6V | 00:00:00 | 01:11:46 | 00:00:00 | |
| OE5MMP-10 | 2026-09-05 11:41:12 | 47.95202 | 12.69691 | 81° | 51km/h | 17243m | 4.2m/s | -56.9°C | 5.0% | 90.2hPa | 2.7V | 00:00:00 | 01:11:44 | 00:00:00 | |
| OE5HKT-10 | 2026-09-05 11:41:11 | 47.95200 | 12.69672 | 80° | 53km/h | 17238m | 4.8m/s | -57.0°C | 5.0% | 90.3hPa | 2.7V | 00:00:00 | 00:00:00 | 00:00:00 | |
| OE8JPQ-2 | 2026-09-05 11:41:07 | 47.95190 | 12.69599 | 80° | 57km/h | 17219m | 4.3m/s | 0°C | 0% | 0hPa | 2.7V | 00:00:00 | 01:11:39 | 00:00:00 | |
| BAUMI2-15 | 2026-09-05 11:41:02 | 47.95177 | 12.69501 | 81° | 60km/h | 17194m | 6.0m/s | -57.3°C | 5.2% | 90.8hPa | 2.7V | 00:00:00 | 01:11:34 | 00:00:00 | |
| OE5DRO-10 | 2026-09-05 11:41:00 | 47.95174 | 12.69457 | 85° | 58km/h | 17184m | 5.0m/s | -57.4°C | 5.2% | 91.0hPa | 2.7V | 00:00:00 | 00:00:00 | 00:00:00 | |
| OE5FHM-15 | 2026-09-05 11:40:56 | 47.95175 | 12.69370 | 98° | 58km/h | 17165m | 3.9m/s | -57.2°C | 5.1% | 91.3hPa | 2.7V | 00:00:00 | 01:11:28 | 00:00:00 | |
| OE5WHR-10 | 2026-09-05 11:40:54 | 47.95178 | 12.69330 | 98° | 58km/h | 17156m | 4.2m/s | -57.1°C | 5.2% | 91.4hPa | 2.7V | 00:00:00 | 01:11:26 | 00:00:00 | |
| OE5MMP-10 | 2026-09-05 11:40:52 | 47.95180 | 12.69290 | 92° | 58km/h | 17149m | 5.0m/s | -57.0°C | 5.2% | 91.5hPa | 2.7V | 00:00:00 | 01:11:24 | 00:00:00 | |
| DG1MJG | 2026-09-05 11:40:51 | 47.95180 | 12.69290 | 92° | 53km/h | 17149m | 5.1m/s | -57.1°C | 1.8% | 91.6hPa | 2.6V | 00:00:00 | 00:00:00 | 00:00:00 | |
| OE5HKT-10 | 2026-09-05 11:40:50 | 47.95179 | 12.69250 | 83° | 60km/h | 17140m | 4.1m/s | -56.9°C | 5.1% | 91.7hPa | 2.6V | 00:00:00 | 01:11:22 | 00:00:00 | |
| OE5MMP-10 | 2026-09-05 11:40:42 | 47.95148 | 12.69073 | 76° | 58km/h | 17096m | 5.5m/s | -56.6°C | 4.9% | 92.3hPa | 2.6V | 00:00:00 | 01:11:14 | 00:00:00 | |
| OE5DRO-10 | 2026-09-05 11:40:41 | 47.95145 | 12.69052 | 80° | 58km/h | 17090m | 4.4m/s | -56.6°C | 4.9% | 92.4hPa | 2.6V | 00:00:00 | 00:00:00 | 00:00:00 | |
| PETON7-10 | 2026-09-05 11:40:37 | 47.95138 | 12.68967 | 81° | 58km/h | 17071m | 6.2m/s | -56.5°C | 4.8% | 92.7hPa | 2.6V | 00:00:00 | 01:11:09 | 00:00:00 | |
| OE5WHR-10 | 2026-09-05 11:40:33 | 47.95121 | 12.68880 | 72° | 58km/h | 17052m | 5.5m/s | -56.5°C | 4.8% | 92.9hPa | 2.6V | 00:00:00 | 00:00:00 | 08:30:00 | |
| OE5MMP-10 | 2026-09-05 11:40:32 | 47.95116 | 12.68858 | 76° | 57km/h | 17047m | 4.8m/s | -56.4°C | 4.8% | 93.0hPa | 2.6V | 00:00:00 | 01:11:04 | 00:00:00 | |
| OE5HKT-10 | 2026-09-05 11:40:29 | 47.95106 | 12.68796 | 77° | 60km/h | 17033m | 4.8m/s | -56.6°C | 4.8% | 93.3hPa | 2.6V | 00:00:00 | 00:00:00 | 00:00:00 | |
| OE5FHM-15 | 2026-09-05 11:40:26 | 47.95097 | 12.68736 | 82° | 62km/h | 17019m | 3.7m/s | -56.6°C | 4.7% | 93.4hPa | 2.7V | 00:00:00 | 01:10:58 | 08:30:00 | |
| OE5MMP-10 | 2026-09-05 11:40:22 | 47.95085 | 12.68651 | 76° | 62km/h | 17002m | 4.0m/s | -57.4°C | 5.1% | 93.7hPa | 2.6V | 00:00:00 | 01:10:54 | 08:30:00 | |
| OE5DXL-15 | 2026-09-05 11:40:20 | 47.95078 | 12.68608 | 80° | 64km/h | 16992m | 4.8m/s | -57.5°C | 5.1% | 93.9hPa | 2.7V | 00:00:00 | 00:00:00 | 00:00:00 | |
| PETON7-10 | 2026-09-05 11:40:19 | 47.95076 | 12.68586 | 82° | 64km/h | 16987m | 3.2m/s | -57.5°C | 5.1% | 93.9hPa | 2.7V | 00:00:00 | 00:00:00 | 00:00:00 | |
| OE5WHR-10 | 2026-09-05 11:40:12 | 47.95059 | 12.68419 | 85° | 64km/h | 16954m | 5.5m/s | -57.8°C | 5.3% | 94.4hPa | 2.6V | 00:00:00 | 00:00:00 | 00:00:00 | |
| OE5HKT-10 | 2026-09-05 11:40:08 | 47.95054 | 12.68320 | 89° | 66km/h | 16935m | 4.7m/s | -57.7°C | 5.3% | 94.7hPa | 2.6V | 00:00:00 | 00:00:00 | 00:00:00 | |
| PETON7-10 | 2026-09-05 11:40:04 | 47.95049 | 12.68224 | 82° | 64km/h | 16916m | 4.2m/s | -57.7°C | 5.2% | 95.0hPa | 2.6V | 00:00:00 | 00:00:00 | 00:00:00 | |
| OE5DRO-10 | 2026-09-05 11:40:03 | 47.95047 | 12.68201 | 81° | 66km/h | 16912m | 5.0m/s | -57.7°C | 5.2% | 95.0hPa | 2.6V | 00:00:00 | 00:00:00 | 00:00:00 | |
| OE5MMP-10 | 2026-09-05 11:40:02 | 47.95044 | 12.68177 | 82° | 64km/h | 16907m | 4.8m/s | -57.7°C | 5.2% | 95.1hPa | 2.6V | 00:00:00 | 01:10:34 | 00:00:00 | |
| OE5FHM-15 | 2026-09-05 11:39:56 | 47.95036 | 12.68033 | 90° | 68km/h | 16878m | 4.1m/s | -57.5°C | 5.2% | 95.6hPa | 2.6V | 00:00:00 | 01:10:28 | 00:00:00 | |
| OE5MMP-10 | 2026-09-05 11:39:52 | 47.95032 | 12.67935 | 83° | 69km/h | 16860m | 3.4m/s | -57.3°C | 5.1% | 95.8hPa | 2.6V | 00:00:00 | 01:10:24 | 00:00:00 | |
| OE5WHR-10 | 2026-09-05 11:39:51 | 47.95030 | 12.67910 | 82° | 68km/h | 16855m | 5.6m/s | -57.3°C | 5.1% | 95.9hPa | 2.6V | 00:00:00 | 01:10:23 | 00:00:00 | |
| OE5DXL-15 | 2026-09-05 11:39:50 | 47.95027 | 12.67885 | 82° | 68km/h | 16850m | 5.2m/s | -57.3°C | 5.0% | 96.0hPa | 2.6V | 00:00:00 | 00:00:00 | 00:00:00 | |
| PETON7-10 | 2026-09-05 11:39:49 | 47.95025 | 12.67859 | 81° | 68km/h | 16845m | 4.3m/s | 0°C | 0% | 0hPa | 2.6V | 00:00:00 | 01:10:21 | 00:00:00 | |
| OE5HKT-10 | 2026-09-05 11:39:47 | 47.95018 | 12.67806 | 81° | 68km/h | 16836m | 4.7m/s | -57.2°C | 4.9% | 96.2hPa | 2.6V | 00:00:00 | 01:10:19 | 00:00:00 | |
| OE5DRO-10 | 2026-09-05 11:39:44 | 47.95012 | 12.67728 | 87° | 68km/h | 16821m | 5.7m/s | -57.1°C | 4.8% | 96.4hPa | 2.6V | 00:00:00 | 00:00:00 | 08:30:00 | |
| OE5MMP-10 | 2026-09-05 11:39:42 | 47.95010 | 12.67677 | 86° | 66km/h | 16810m | 6.1m/s | -57.0°C | 4.9% | 96.6hPa | 2.7V | 00:00:00 | 01:10:14 | 00:00:00 | |
| DO7DH-14 | 2026-09-05 11:39:40 | 47.95006 | 12.67628 | 82° | 64km/h | 16801m | 4.8m/s | 0°C | 0% | 0hPa | 2.7V | 00:00:00 | 01:10:12 | 00:00:00 | |
| PETON7-10 | 2026-09-05 11:39:34 | 47.94985 | 12.67482 | 77° | 69km/h | 16770m | 5.9m/s | 0°C | 0% | 0hPa | 2.7V | 00:00:00 | 00:00:00 | 00:00:00 | |
| OE5MMP-10 | 2026-09-05 11:39:32 | 47.94979 | 12.67432 | 82° | 68km/h | 16761m | 3.9m/s | -57.6°C | 5.2% | 97.4hPa | 2.7V | 00:00:00 | 01:10:04 | 00:00:00 | |
| OE5WHR-10 | 2026-09-05 11:39:30 | 47.94975 | 12.67382 | 85° | 64km/h | 16751m | 5.1m/s | -57.5°C | 5.2% | 97.5hPa | 2.7V | 00:00:00 | 00:00:00 | 00:00:00 | |
| OE5FHM-15 | 2026-09-05 11:39:26 | 47.94970 | 12.67279 | 85° | 60km/h | 16731m | 6.2m/s | -57.4°C | 5.0% | 97.8hPa | 2.6V | 00:00:00 | 01:09:58 | 00:00:00 | |
| PG1ADW-2 | 2026-09-05 11:39:24 | 47.94966 | 12.67232 | 81° | 58km/h | 16721m | 4.2m/s | -57.5°C | 5.0% | 98.0hPa | 2.6V | 00:00:00 | 01:09:56 | 00:00:00 | |
| DB0UT-7 | 2026-09-05 11:39:23 | 47.94964 | 12.67209 | 80° | 58km/h | 16716m | 6.5m/s | -57.6°C | 5.1% | 98.1hPa | 2.7V | 00:00:00 | 00:00:00 | 00:00:00 | |
| OE5MMP-10 | 2026-09-05 11:39:22 | 47.94961 | 12.67186 | 80° | 62km/h | 16710m | 4.9m/s | -57.7°C | 5.1% | 98.1hPa | 2.7V | 00:00:00 | 01:09:54 | 00:00:00 | |
| OE5DXL-15 | 2026-09-05 11:39:20 | 47.94955 | 12.67140 | 79° | 58km/h | 16700m | 5.3m/s | -57.9°C | 5.3% | 98.3hPa | 2.6V | 00:00:00 | 00:00:00 | 00:00:00 | |
| DG1MJG | 2026-09-05 11:39:19 | 47.94955 | 12.67140 | 80° | 60km/h | 16700m | 5.3m/s | -57.9°C | 1.9% | 98.4hPa | 2.6V | 00:00:00 | 00:00:00 | 00:00:00 | |
| OE5MMP-10 | 2026-09-05 11:39:12 | 47.94947 | 12.66955 | 88° | 57km/h | 16659m | 4.7m/s | -57.5°C | 5.2% | 98.9hPa | 2.6V | 00:00:00 | 01:09:44 | 00:00:00 | |
| DO7DH-14 | 2026-09-05 11:39:10 | 47.94946 | 12.66910 | 88° | 73km/h | 16649m | 4.5m/s | 0°C | 0% | 0hPa | 2.6V | 00:00:00 | 01:09:42 | 00:00:00 | |
| OE5WHR-10 | 2026-09-05 11:39:09 | 47.94945 | 12.66888 | 88° | 57km/h | 16644m | 4.5m/s | -57.4°C | 5.2% | 99.2hPa | 2.6V | 00:00:00 | 00:00:00 | 00:00:00 | |
| OE5DRO-10 | 2026-09-05 11:39:06 | 47.94942 | 12.66826 | 86° | 57km/h | 16629m | 5.5m/s | -57.2°C | 5.1% | 99.4hPa | 2.6V | 00:00:00 | 00:00:00 | 00:00:00 | |
| OE5MMP-10 | 2026-09-05 11:39:02 | 47.94940 | 12.66739 | 92° | 58km/h | 16606m | 4.7m/s | -57.0°C | 5.1% | 99.8hPa | 2.6V | 00:00:00 | 01:09:34 | 00:00:00 | |
| OE8JPQ-2 | 2026-09-05 11:38:58 | 47.94942 | 12.66649 | 91° | 58km/h | 16585m | 5.4m/s | 0°C | 0% | 0hPa | 2.6V | 00:00:00 | 00:00:00 | 00:00:00 | |
| BAUMI2-15 | 2026-09-05 11:38:57 | 47.94942 | 12.66628 | 88° | 57km/h | 16581m | 4.2m/s | -56.9°C | 5.0% | 100.2hPa | 2.6V | 00:00:00 | 01:09:29 | 00:00:00 | |
| OE5FHM-15 | 2026-09-05 11:38:56 | 47.94941 | 12.66607 | 86° | 55km/h | 16576m | 5.2m/s | -57.0°C | 5.0% | 100.2hPa | 2.6V | 00:00:00 | 01:09:28 | 00:00:00 | |
| DB0UT-7 | 2026-09-05 11:38:53 | 47.94938 | 12.66543 | 89° | 68km/h | 16561m | 5.5m/s | -57.0°C | 5.1% | 100.5hPa | 2.7V | 00:00:00 | 01:09:25 | 00:00:00 | |
| BAUMI2-15 | 2026-09-05 11:38:52 | 47.94938 | 12.66522 | 93° | 58km/h | 16556m | 4.2m/s | -57.0°C | 5.1% | 100.6hPa | 2.7V | 00:00:00 | 01:09:24 | 00:00:00 | |
| OE5DXL-15 | 2026-09-05 11:38:50 | 47.94940 | 12.66480 | 98° | 57km/h | 16545m | 5.4m/s | -57.0°C | 5.2% | 100.7hPa | 2.6V | 00:00:00 | 00:00:00 | 00:00:00 | |
| DG1MJG | 2026-09-05 11:38:49 | 47.94940 | 12.66480 | 99° | 58km/h | 16545m | 5.4m/s | -57.0°C | 1.9% | 100.8hPa | 2.6V | 00:00:00 | 00:00:00 | 00:00:00 | |
| OE5WHR-10 | 2026-09-05 11:38:48 | 47.94945 | 12.66436 | 102° | 55km/h | 16535m | 5.9m/s | -56.9°C | 5.1% | 100.9hPa | 2.6V | 00:00:00 | 01:09:20 | 00:00:00 | |
| BAUMI2-15 | 2026-09-05 11:38:47 | 47.94948 | 12.66415 | 101° | 55km/h | 16530m | 5.1m/s | -56.9°C | 5.1% | 101.0hPa | 2.6V | 00:00:00 | 01:09:19 | 00:00:00 | |
| OE5HKT-10 | 2026-09-05 11:38:44 | 47.94953 | 12.66354 | 92° | 57km/h | 16515m | 3.8m/s | -56.9°C | 5.0% | 101.2hPa | 2.6V | 00:00:00 | 01:09:16 | 00:00:00 | |
| OE5MMP-10 | 2026-09-05 11:38:42 | 47.94953 | 12.66315 | 92° | 55km/h | 16506m | 5.5m/s | -57.0°C | 5.0% | 101.4hPa | 2.6V | 00:00:00 | 01:09:14 | 00:00:00 | |
| BAUMI2-15 | 2026-09-05 11:38:37 | 47.94960 | 12.66216 | 99° | 58km/h | 16483m | 4.2m/s | -56.9°C | 5.1% | 101.7hPa | 2.6V | 00:00:00 | 01:09:09 | 08:30:00 | |
| BAUMI2-15 | 2026-09-05 11:38:32 | 47.94978 | 12.66108 | 105° | 57km/h | 16455m | 4.2m/s | -56.9°C | 5.0% | 102.2hPa | 2.7V | 00:00:00 | 01:09:04 | 00:00:00 | |
| OE5FHM-15 | 2026-09-05 11:38:26 | 47.94993 | 12.65983 | 99° | 69km/h | 16426m | 4.5m/s | -56.9°C | 5.0% | 102.6hPa | 2.7V | 00:00:00 | 01:08:58 | 00:00:00 | |
| PG1ADW-2 | 2026-09-05 11:38:24 | 47.94999 | 12.65940 | 107° | 66km/h | 16416m | 4.5m/s | -57.0°C | 5.1% | 102.8hPa | 2.7V | 00:00:00 | 00:00:00 | 00:00:00 | |
| OE5HKT-10 | 2026-09-05 11:38:23 | 47.95004 | 12.65918 | 110° | 71km/h | 16411m | 4.8m/s | -57.0°C | 5.1% | 102.9hPa | 2.7V | 00:00:00 | 00:00:00 | 00:00:00 | |
| OE5MMP-10 | 2026-09-05 11:38:22 | 47.95009 | 12.65895 | 111° | 68km/h | 16406m | 6.2m/s | -57.1°C | 5.1% | 103.0hPa | 2.7V | 00:00:00 | 01:08:54 | 00:00:00 | |
| OE5DXL-15 | 2026-09-05 11:38:20 | 47.95021 | 12.65846 | 112° | 71km/h | 16395m | 4.6m/s | -57.1°C | 5.1% | 103.1hPa | 2.6V | 00:00:00 | 00:00:00 | 00:00:00 | |
| DG1MJG | 2026-09-05 11:38:19 | 47.95021 | 12.65846 | 112° | 73km/h | 16395m | 4.7m/s | -57.1°C | 1.9% | 103.2hPa | 2.6V | 00:00:00 | 00:00:00 | 00:00:00 | |
| BAUMI2-15 | 2026-09-05 11:38:17 | 47.95042 | 12.65773 | 112° | 66km/h | 16381m | 4.2m/s | -57.1°C | 5.1% | 103.4hPa | 2.6V | 00:00:00 | 01:08:49 | 00:00:00 | |
| OE5MMP-10 | 2026-09-05 11:38:12 | 47.95070 | 12.65656 | 113° | 75km/h | 16356m | 4.4m/s | -57.3°C | 5.1% | 103.8hPa | 2.6V | 00:00:00 | 01:08:44 | 00:00:00 | |
| BAUMI2-15 | 2026-09-05 11:38:07 | 47.95108 | 12.65530 | 116° | 75km/h | 16333m | 4.6m/s | -57.4°C | 5.2% | 104.2hPa | 2.6V | 00:00:00 | 01:08:39 | 00:00:00 | |
| OE5WHR-10 | 2026-09-05 11:38:06 | 47.95116 | 12.65504 | 115° | 73km/h | 16328m | 4.3m/s | -57.4°C | 5.2% | 104.3hPa | 2.7V | 00:00:00 | 00:00:00 | 00:00:00 | |
| OE5MMP-10 | 2026-09-05 11:38:02 | 47.95142 | 12.65398 | 108° | 73km/h | 16309m | 5.1m/s | -57.6°C | 5.3% | 104.6hPa | 2.7V | 00:00:00 | 01:08:34 | 00:00:00 | |
| PETON7-10 | 2026-09-05 11:37:59 | 47.95158 | 12.65322 | 108° | 73km/h | 16295m | 4.8m/s | 0°C | 0% | 0hPa | 2.7V | 00:00:00 | 00:00:00 | 00:00:00 | |
| OE5FHM-15 | 2026-09-05 11:37:56 | 47.95177 | 12.65246 | 112° | 69km/h | 16281m | 4.4m/s | -57.9°C | 5.4% | 105.0hPa | 2.7V | 00:00:00 | 01:08:28 | 00:00:00 | |
| BAUMI2-15 | 2026-09-05 11:37:52 | 47.95204 | 12.65141 | 110° | 77km/h | 16262m | 5.3m/s | -57.8°C | 5.5% | 105.3hPa | 2.7V | 00:00:00 | 01:08:24 | 08:30:00 | |
| OE5DXL-15 | 2026-09-05 11:37:50 | 47.95216 | 12.65087 | 107° | 68km/h | 16253m | 4.9m/s | -57.8°C | 5.4% | 105.5hPa | 2.6V | 00:00:00 | 00:00:00 | 08:30:00 | |
| DG1MJG | 2026-09-05 11:37:49 | 47.95216 | 12.65087 | 107° | 77km/h | 16253m | 4.9m/s | -57.8°C | 2.0% | 105.5hPa | 2.7V | 00:00:00 | 00:00:00 | 00:00:00 | |
| BAUMI2-15 | 2026-09-05 11:37:47 | 47.95230 | 12.65004 | 103° | 71km/h | 16240m | 4.4m/s | -57.7°C | 5.4% | 105.7hPa | 2.7V | 00:00:00 | 01:08:19 | 00:00:00 | |
| DB0UT-7 | 2026-09-05 11:37:46 | 47.95234 | 12.64977 | 104° | 102km/h | 16236m | 4.7m/s | -57.7°C | 5.4% | 105.8hPa | 2.7V | 00:00:00 | 00:00:00 | 00:00:00 | |
| OE5WHR-10 | 2026-09-05 11:37:45 | 47.95238 | 12.64951 | 106° | 66km/h | 16231m | 5.1m/s | -57.7°C | 5.4% | 105.9hPa | 2.6V | 00:00:00 | 01:08:17 | 00:00:00 | |
| OE5MMP-10 | 2026-09-05 11:37:42 | 47.95254 | 12.64875 | 108° | 68km/h | 16218m | 4.7m/s | -57.6°C | 5.4% | 106.1hPa | 2.6V | 00:00:00 | 01:08:14 | 00:00:00 | |
| PETON7-10 | 2026-09-05 11:37:40 | 47.95264 | 12.64827 | 107° | 66km/h | 16209m | 5.1m/s | 0°C | 0% | 0hPa | 2.6V | 00:00:00 | 01:08:12 | 00:00:00 | |
| BAUMI2-15 | 2026-09-05 11:37:37 | 47.95278 | 12.64753 | 104° | 66km/h | 16196m | 4.8m/s | -57.5°C | 5.3% | 106.4hPa | 2.6V | 00:00:00 | 01:08:09 | 00:00:00 | |
| DO3MHA-11 | 2026-09-05 11:37:34 | 47.95290 | 12.64681 | 106° | 66km/h | 16183m | 4.2m/s | -57.4°C | 5.3% | 106.7hPa | 2.7V | 00:00:00 | 01:08:06 | 00:00:00 | |
| BAUMI2-15 | 2026-09-05 11:37:32 | 47.95299 | 12.64634 | 106° | 66km/h | 16174m | 4.8m/s | -57.3°C | 5.3% | 106.8hPa | 2.6V | 00:00:00 | 01:08:04 | 00:00:00 | |
| BAUMI2-15 | 2026-09-05 11:37:27 | 47.95321 | 12.64514 | 104° | 62km/h | 16152m | 4.1m/s | -57.1°C | 5.2% | 107.2hPa | 2.6V | 00:00:00 | 01:07:59 | 00:00:00 | |
| OE5FHM-15 | 2026-09-05 11:37:26 | 47.95325 | 12.64492 | 103° | 62km/h | 16148m | 3.4m/s | -57.1°C | 5.3% | 107.3hPa | 2.6V | 00:00:00 | 01:07:58 | 00:00:00 | |
| PETON7-10 | 2026-09-05 11:37:25 | 47.95328 | 12.64469 | 104° | 62km/h | 16144m | 4.6m/s | 0°C | 0% | 0hPa | 2.7V | 00:00:00 | 00:00:00 | 00:00:00 | |
| OE5WHR-10 | 2026-09-05 11:37:24 | 47.95332 | 12.64445 | 103° | 62km/h | 16140m | 3.6m/s | -57.0°C | 5.3% | 107.4hPa | 2.7V | 00:00:00 | 00:00:00 | 08:30:00 | |
| BAUMI2-15 | 2026-09-05 11:37:22 | 47.95339 | 12.64400 | 103° | 62km/h | 16132m | 5.0m/s | -56.9°C | 5.2% | 107.5hPa | 2.7V | 00:00:00 | 01:07:54 | 00:00:00 | |
| OE5DXL-15 | 2026-09-05 11:37:20 | 47.95346 | 12.64355 | 104° | 60km/h | 16123m | 4.8m/s | -56.9°C | 5.2% | 107.7hPa | 2.6V | 00:00:00 | 01:07:52 | 00:00:00 | |
| OE5HKT-10 | 2026-09-05 11:37:19 | 47.95350 | 12.64332 | 103° | 62km/h | 16119m | 3.0m/s | -56.8°C | 5.2% | 107.8hPa | 2.6V | 00:00:00 | 00:00:00 | 00:00:00 | |
| OE5DRO-10 | 2026-09-05 11:37:18 | 47.95353 | 12.64308 | 102° | 62km/h | 16115m | 3.6m/s | -56.8°C | 5.2% | 107.8hPa | 2.6V | 00:00:00 | 00:00:00 | 00:00:00 | |
| BAUMI2-15 | 2026-09-05 11:37:17 | 47.95356 | 12.64285 | 100° | 64km/h | 16111m | 4.8m/s | -56.8°C | 5.1% | 107.9hPa | 2.6V | 00:00:00 | 01:07:49 | 00:00:00 | |
| S52SK | 2026-09-05 11:37:15 | 47.95358 | 12.64261 | 100° | 64km/h | 16106m | 4.1m/s | -56.8°C | 1.9% | 108.0hPa | 2.6V | 00:00:00 | 00:00:00 | 00:00:00 | |
| DO3MHA-11 | 2026-09-05 11:37:14 | 47.95364 | 12.64214 | 100° | 62km/h | 16097m | 4.3m/s | -56.7°C | 5.1% | 108.1hPa | 2.6V | 00:00:00 | 01:07:46 | 00:00:00 | |
| PG1ADW-2 | 2026-09-05 11:37:13 | 47.95367 | 12.64190 | 102° | 60km/h | 16093m | 3.3m/s | -56.7°C | 5.1% | 108.2hPa | 2.6V | 00:00:00 | 00:00:00 | 08:30:00 | |
| OE5MMP-10 | 2026-09-05 11:37:12 | 47.95370 | 12.64167 | 102° | 60km/h | 16089m | 5.0m/s | -56.6°C | 5.1% | 108.3hPa | 2.6V | 00:00:00 | 01:07:44 | 00:00:00 | |
| S52SK | 2026-09-05 11:37:09 | 47.95377 | 12.64122 | 106° | 60km/h | 16080m | 5.1m/s | -56.6°C | 1.9% | 108.5hPa | 2.6V | 00:00:00 | 00:00:00 | 00:00:00 | |
| BAUMI2-15 | 2026-09-05 11:37:07 | 47.95390 | 12.64056 | 106° | 60km/h | 16067m | 3.9m/s | -56.4°C | 5.1% | 108.6hPa | 2.6V | 00:00:00 | 01:07:39 | 08:30:00 | |
| OE5WHR-10 | 2026-09-05 11:37:03 | 47.95404 | 12.63968 | 101° | 58km/h | 16052m | 3.8m/s | -56.4°C | 5.0% | 108.9hPa | 2.7V | 00:00:00 | 00:00:00 | 00:00:00 | |
| BAUMI2-15 | 2026-09-05 11:37:02 | 47.95406 | 12.63945 | 99° | 78km/h | 16048m | 4.7m/s | -56.3°C | 5.0% | 109.0hPa | 2.7V | 00:00:00 | 01:07:34 | 00:00:00 | |
| OE5DRO-10 | 2026-09-05 11:36:59 | 47.95414 | 12.63879 | 101° | 60km/h | 16035m | 4.2m/s | -56.3°C | 4.9% | 109.2hPa | 2.7V | 00:00:00 | 00:00:00 | 00:00:00 | |
| OE5HKT-10 | 2026-09-05 11:36:58 | 47.95417 | 12.63856 | 102° | 58km/h | 16032m | 2.8m/s | -56.2°C | 4.9% | 109.2hPa | 2.7V | 00:00:00 | 00:00:00 | 00:00:00 | |
| OE5FHM-15 | 2026-09-05 11:36:56 | 47.95422 | 12.63813 | 101° | 57km/h | 16023m | 4.1m/s | -56.2°C | 4.9% | 109.4hPa | 2.7V | 00:00:00 | 01:07:28 | 00:00:00 | |
| PG1ADW-2 | 2026-09-05 11:36:53 | 47.95430 | 12.63750 | 101° | 57km/h | 16010m | 5.1m/s | -56.3°C | 5.0% | 109.6hPa | 2.7V | 00:00:00 | 01:07:25 | 00:00:00 | |
| OE5MMP-10 | 2026-09-05 11:36:52 | 47.95433 | 12.63728 | 102° | 58km/h | 16006m | 3.4m/s | -56.2°C | 5.0% | 109.7hPa | 2.7V | 00:00:00 | 01:07:24 | 00:00:00 | |
| OE5DXL-15 | 2026-09-05 11:36:50 | 47.95438 | 12.63684 | 101° | 57km/h | 15997m | 4.2m/s | -56.2°C | 5.1% | 109.8hPa | 2.7V | 00:00:00 | 00:00:00 | 00:00:00 | |
| OE8JPQ-2 | 2026-09-05 11:36:48 | 47.95445 | 12.63640 | 103° | 55km/h | 15989m | 5.1m/s | 0°C | 0% | 0hPa | 2.7V | 00:00:00 | 00:00:00 | 00:00:00 | |
| OE5MMP-10 | 2026-09-05 11:36:42 | 47.95461 | 12.63515 | 100° | 57km/h | 15962m | 3.7m/s | -56.1°C | 4.9% | 110.4hPa | 2.7V | 00:00:00 | 01:07:14 | 00:00:00 | |
| OE5DRO-10 | 2026-09-05 11:36:38 | 47.95467 | 12.63433 | 98° | 57km/h | 15945m | 5.3m/s | -56.0°C | 4.9% | 110.7hPa | 2.7V | 00:00:00 | 00:00:00 | 00:00:00 | |
| OE5HKT-10 | 2026-09-05 11:36:36 | 47.95473 | 12.63388 | 107° | 58km/h | 15936m | 4.1m/s | -55.9°C | 4.9% | 110.9hPa | 2.7V | 00:00:00 | 01:07:08 | 00:00:00 | |
| PG1ADW-2 | 2026-09-05 11:36:33 | 47.95488 | 12.63329 | 115° | 58km/h | 15922m | 4.6m/s | -55.6°C | 4.8% | 111.1hPa | 2.7V | 00:00:00 | 00:00:00 | 00:00:00 | |
| OE5MMP-10 | 2026-09-05 11:36:32 | 47.95494 | 12.63312 | 116° | 55km/h | 15918m | 3.6m/s | -55.6°C | 4.8% | 111.2hPa | 2.7V | 00:00:00 | 01:07:04 | 00:00:00 | |
| OE8JPQ-2 | 2026-09-05 11:36:28 | 47.95508 | 12.63239 | 95° | 62km/h | 15902m | 4.2m/s | 0°C | 0% | 0hPa | 2.7V | 00:00:00 | 00:00:00 | 00:00:00 | |
| OE5FHM-15 | 2026-09-05 11:36:26 | 47.95510 | 12.63198 | 97° | 62km/h | 15893m | 4.2m/s | -55.7°C | 5.0% | 111.6hPa | 2.7V | 00:00:00 | 01:06:58 | 00:00:00 | |
| OE5MMP-10 | 2026-09-05 11:36:22 | 47.95525 | 12.63113 | 111° | 64km/h | 15874m | 7.5m/s | -55.7°C | 5.0% | 112.0hPa | 2.7V | 00:00:00 | 01:06:54 | 00:00:00 | |
| OE5WHR-10 | 2026-09-05 11:36:21 | 47.95530 | 12.63093 | 113° | 64km/h | 15867m | 5.2m/s | -55.7°C | 4.9% | 112.1hPa | 2.7V | 00:00:00 | 00:00:00 | 00:00:00 | |
| OE5DXL-15 | 2026-09-05 11:36:20 | 47.95536 | 12.63073 | 114° | 66km/h | 15863m | 3.8m/s | -55.7°C | 4.9% | 112.2hPa | 2.6V | 00:00:00 | 00:00:00 | 00:00:00 | |
| OE5DRO-10 | 2026-09-05 11:36:19 | 47.95542 | 12.63051 | 113° | 64km/h | 15858m | 6.9m/s | -55.8°C | 4.9% | 112.3hPa | 2.6V | 00:00:00 | 00:00:00 | 08:30:00 | |
| DG1MJG | 2026-09-05 11:36:18 | 47.95542 | 12.63051 | 114° | 64km/h | 15858m | 6.9m/s | -55.8°C | 0% | 0hPa | 2.6V | 00:00:00 | 00:00:00 | 00:00:00 | |
| OE5HKT-10 | 2026-09-05 11:36:15 | 47.95562 | 12.62953 | 104° | 64km/h | 15833m | 5.6m/s | -55.8°C | 4.7% | 112.7hPa | 2.6V | 00:00:00 | 00:00:00 | 08:30:00 | |
| PG1ADW-2 | 2026-09-05 11:36:13 | 47.95572 | 12.62908 | 114° | 68km/h | 15822m | 5.9m/s | -55.7°C | 4.7% | 112.9hPa | 2.6V | 00:00:00 | 00:00:00 | 00:00:00 | |
| OE5MMP-10 | 2026-09-05 11:36:12 | 47.95579 | 12.62888 | 117° | 64km/h | 15815m | 7.2m/s | -55.6°C | 4.7% | 113.0hPa | 2.6V | 00:00:00 | 01:06:44 | 00:00:00 | |
| OE8JPQ-2 | 2026-09-05 11:36:08 | 47.95608 | 12.62804 | 117° | 66km/h | 15793m | 4.2m/s | 0°C | 0% | 0hPa | 2.6V | 00:00:00 | 01:06:40 | 00:00:00 | |
| OE5MMP-10 | 2026-09-05 11:36:02 | 47.95654 | 12.62673 | 115° | 66km/h | 15768m | 4.2m/s | -55.8°C | 4.8% | 113.9hPa | 2.6V | 00:00:00 | 01:06:34 | 00:00:00 | |
| OE5WHR-10 | 2026-09-05 11:36:00 | 47.95667 | 12.62631 | 117° | 71km/h | 15759m | 3.4m/s | -55.8°C | 4.8% | 114.1hPa | 2.6V | 00:00:00 | 00:00:00 | 00:00:00 | |
| OE5FHM-15 | 2026-09-05 11:35:56 | 47.95695 | 12.62545 | 116° | 77km/h | 15742m | 4.2m/s | -56.0°C | 4.9% | 114.4hPa | 2.6V | 00:00:00 | 01:06:28 | 08:30:00 | |
| OE5HKT-10 | 2026-09-05 11:35:54 | 47.95712 | 12.62499 | 119° | 78km/h | 15733m | 3.7m/s | -56.0°C | 4.9% | 114.6hPa | 2.7V | 00:00:00 | 00:00:00 | 00:00:00 | |
| S52SK | 2026-09-05 11:35:53 | 47.95712 | 12.62499 | 120° | 71km/h | 15733m | 3.7m/s | -56.1°C | 1.9% | 114.6hPa | 2.7V | 00:00:00 | 00:00:00 | 00:00:00 | |
| OE5MMP-10 | 2026-09-05 11:35:52 | 47.95729 | 12.62451 | 118° | 73km/h | 15724m | 5.2m/s | -56.1°C | 5.0% | 114.7hPa | 2.7V | 00:00:00 | 01:06:24 | 08:30:00 | |
| OE5DXL-15 | 2026-09-05 11:35:50 | 47.95746 | 12.62402 | 119° | 78km/h | 15715m | 5.2m/s | -56.3°C | 5.0% | 114.9hPa | 2.7V | 00:00:00 | 00:00:00 | 00:00:00 | |
| OE8JPQ-2 | 2026-09-05 11:35:48 | 47.95764 | 12.62353 | 119° | 75km/h | 15706m | 4.4m/s | 0°C | 0% | 0hPa | 2.7V | 00:00:00 | 00:00:00 | 00:00:00 | |
| DG1MJG | 2026-09-05 11:35:47 | 47.95764 | 12.62353 | 119° | 73km/h | 15706m | 4.4m/s | -56.4°C | 0% | 0hPa | 2.7V | 00:00:00 | 00:00:00 | 00:00:00 | |
| S52SK | 2026-09-05 11:35:43 | 47.95798 | 12.62258 | 120° | 73km/h | 15689m | 4.2m/s | -56.5°C | 1.9% | 115.4hPa | 2.7V | 00:00:00 | 00:00:00 | 00:00:00 | |
| OE5MMP-10 | 2026-09-05 11:35:42 | 47.95816 | 12.62208 | 118° | 82km/h | 15680m | 4.0m/s | -56.4°C | 5.0% | 115.5hPa | 2.7V | 00:00:00 | 01:06:14 | 00:00:00 | |
| OE5DRO-10 | 2026-09-05 11:35:41 | 47.95825 | 12.62182 | 117° | 80km/h | 15676m | 3.8m/s | -56.4°C | 5.0% | 115.6hPa | 2.7V | 00:00:00 | 00:00:00 | 00:00:00 | |
| OE5WHR-10 | 2026-09-05 11:35:38 | 47.95854 | 12.62100 | 116° | 86km/h | 15663m | 4.7m/s | -56.4°C | 5.0% | 115.9hPa | 2.7V | 00:00:00 | 01:06:10 | 00:00:00 | |
| OE5HKT-10 | 2026-09-05 11:35:33 | 47.95896 | 12.61957 | 113° | 80km/h | 15639m | 5.2m/s | -56.5°C | 5.2% | 116.3hPa | 2.7V | 00:00:00 | 01:06:05 | 00:00:00 | |
| OE5MMP-10 | 2026-09-05 11:35:32 | 47.95904 | 12.61929 | 112° | 78km/h | 15634m | 4.5m/s | -56.6°C | 5.2% | 116.4hPa | 2.7V | 00:00:00 | 01:06:04 | 00:00:00 | |
| OE5FHM-15 | 2026-09-05 11:35:26 | 47.95953 | 12.61762 | 113° | 97km/h | 15607m | 3.7m/s | -56.7°C | 5.1% | 116.9hPa | 2.7V | 00:00:00 | 01:05:58 | 00:00:00 | |
| OE5MMP-10 | 2026-09-05 11:35:22 | 47.95984 | 12.61659 | 116° | 82km/h | 15589m | 5.2m/s | -56.6°C | 5.1% | 117.2hPa | 2.7V | 00:00:00 | 01:05:54 | 00:00:00 | |
| OE5DXL-15 | 2026-09-05 11:35:20 | 47.96001 | 12.61606 | 117° | 89km/h | 15580m | 3.7m/s | -56.6°C | 5.1% | 117.4hPa | 2.7V | 00:00:00 | 00:00:00 | 00:00:00 | |
| OE5HKT-10 | 2026-09-05 11:35:12 | 47.96077 | 12.61380 | 115° | 91km/h | 15542m | 4.2m/s | -56.6°C | 5.3% | 118.1hPa | 2.7V | 00:00:00 | 00:00:00 | 00:00:00 | |
| OE5WHR-10 | 2026-09-05 11:35:04 | 47.96155 | 12.61142 | 119° | 97km/h | 15509m | 3.4m/s | -56.7°C | 5.2% | 118.7hPa | 2.7V | 00:00:00 | 00:00:00 | 00:00:00 | |
| OE5DRO-10 | 2026-09-05 11:35:03 | 47.96165 | 12.61114 | 117° | 97km/h | 15505m | 5.4m/s | -56.7°C | 5.2% | 118.8hPa | 2.7V | 00:00:00 | 00:00:00 | 00:00:00 | |
| OE5MMP-10 | 2026-09-05 11:35:02 | 47.96175 | 12.61085 | 116° | 93km/h | 15499m | 5.8m/s | -56.8°C | 5.2% | 118.9hPa | 2.7V | 00:00:00 | 01:05:34 | 00:00:00 | |
| PG1ADW-2 | 2026-09-05 11:34:53 | 47.96261 | 12.60798 | 115° | 108km/h | 15454m | 2.8m/s | -57.1°C | 5.4% | 119.7hPa | 2.7V | 00:00:00 | 01:05:25 | 00:00:00 | |
| BAUMI2-15 | 2026-09-05 11:34:52 | 47.96272 | 12.60763 | 115° | 102km/h | 15450m | 5.0m/s | -57.2°C | 5.4% | 119.8hPa | 2.7V | 00:00:00 | 01:05:24 | 00:00:00 | |
| OE5HKT-10 | 2026-09-05 11:34:51 | 47.96283 | 12.60729 | 116° | 108km/h | 15445m | 4.1m/s | -57.1°C | 5.4% | 119.9hPa | 2.7V | 00:00:00 | 00:00:00 | 00:00:00 | |
| OE5DXL-15 | 2026-09-05 11:34:50 | 47.96294 | 12.60695 | 115° | 108km/h | 15441m | 3.7m/s | -57.1°C | 5.4% | 120.0hPa | 2.7V | 00:00:00 | 00:00:00 | 00:00:00 | |
| BAUMI2-15 | 2026-09-05 11:34:47 | 47.96325 | 12.60585 | 113° | 108km/h | 15427m | 4.0m/s | -57.1°C | 5.5% | 120.3hPa | 2.7V | 00:00:00 | 01:05:19 | 00:00:00 | |
| OE5DRO-10 | 2026-09-05 11:34:44 | 47.96357 | 12.60473 | 113° | 108km/h | 15414m | 3.7m/s | -57.0°C | 5.5% | 120.5hPa | 2.7V | 00:00:00 | 00:00:00 | 00:00:00 | |
| OE5WHR-10 | 2026-09-05 11:34:43 | 47.96367 | 12.60436 | 112° | 108km/h | 15409m | 4.8m/s | -56.9°C | 5.4% | 120.6hPa | 2.7V | 00:00:00 | 00:00:00 | 00:00:00 | |
| OE5MMP-10 | 2026-09-05 11:34:42 | 47.96377 | 12.60398 | 111° | 110km/h | 15405m | 4.5m/s | -56.9°C | 5.4% | 120.7hPa | 2.7V | 00:00:00 | 01:05:14 | 00:00:00 | |
| BAUMI2-15 | 2026-09-05 11:34:37 | 47.96424 | 12.60205 | 111° | 110km/h | 15383m | 4.5m/s | -56.8°C | 5.3% | 121.1hPa | 2.7V | 00:00:00 | 01:05:09 | 00:00:00 | |
| PG1ADW-2 | 2026-09-05 11:34:33 | 47.96462 | 12.60049 | 111° | 104km/h | 15364m | 4.1m/s | -56.8°C | 5.2% | 121.4hPa | 2.7V | 00:00:00 | 00:00:00 | 00:00:00 | |
| OE5MMP-10 | 2026-09-05 11:34:32 | 47.96471 | 12.60010 | 110° | 106km/h | 15359m | 5.3m/s | -56.8°C | 5.2% | 121.5hPa | 2.7V | 00:00:00 | 01:05:04 | 00:00:00 | |
| OE5HKT-10 | 2026-09-05 11:34:30 | 47.96489 | 12.59933 | 109° | 102km/h | 15350m | 3.9m/s | -56.7°C | 5.2% | 121.7hPa | 2.7V | 00:00:00 | 01:05:02 | 00:00:00 | |
| BAUMI2-15 | 2026-09-05 11:34:27 | 47.96516 | 12.59820 | 110° | 104km/h | 15336m | 5.2m/s | -56.7°C | 5.2% | 122.0hPa | 2.7V | 00:00:00 | 01:04:59 | 00:00:00 | |
| OE5DRO-10 | 2026-09-05 11:34:25 | 47.96534 | 12.59745 | 111° | 100km/h | 15327m | 5.5m/s | -56.7°C | 5.1% | 122.1hPa | 2.7V | 00:00:00 | 00:00:00 | 00:00:00 | |
| OE5WHR-10 | 2026-09-05 11:34:22 | 47.96560 | 12.59634 | 109° | 99km/h | 15313m | 5.1m/s | -56.9°C | 5.1% | 122.4hPa | 2.6V | 00:00:00 | 01:04:54 | 00:00:00 | |
| OE5DXL-15 | 2026-09-05 11:34:20 | 47.96576 | 12.59561 | 108° | 99km/h | 15305m | 4.3m/s | -56.9°C | 5.1% | 122.5hPa | 2.6V | 00:00:00 | 00:00:00 | 00:00:00 | |
| BAUMI2-15 | 2026-09-05 11:34:17 | 47.96601 | 12.59452 | 110° | 100km/h | 15291m | 5.5m/s | -57.0°C | 5.1% | 122.8hPa | 2.6V | 00:00:00 | 01:04:49 | 08:30:00 | |
| PG1ADW-2 | 2026-09-05 11:34:13 | 47.96636 | 12.59310 | 111° | 99km/h | 15272m | 4.5m/s | -57.4°C | 5.4% | 123.2hPa | 2.7V | 00:00:00 | 00:00:00 | 00:00:00 | |
| BAUMI2-15 | 2026-09-05 11:34:12 | 47.96644 | 12.59275 | 109° | 95km/h | 15268m | 4.0m/s | -57.4°C | 5.5% | 123.3hPa | 2.7V | 00:00:00 | 01:04:44 | 00:00:00 | |
| OE5HKT-10 | 2026-09-05 11:34:09 | 47.96666 | 12.59173 | 108° | 99km/h | 15255m | 4.4m/s | -57.6°C | 5.5% | 123.5hPa | 2.7V | 00:00:00 | 00:00:00 | 00:00:00 | |
| BAUMI2-15 | 2026-09-05 11:34:07 | 47.96680 | 12.59104 | 107° | 97km/h | 15246m | 2.9m/s | -57.7°C | 5.5% | 123.7hPa | 2.7V | 00:00:00 | 01:04:39 | 00:00:00 | |
| OE5DRO-10 | 2026-09-05 11:34:06 | 47.96688 | 12.59069 | 108° | 99km/h | 15242m | 4.5m/s | -57.8°C | 5.5% | 123.8hPa | 2.7V | 00:00:00 | 00:00:00 | 00:00:00 | |
| OE5MMP-10 | 2026-09-05 11:34:02 | 47.96719 | 12.58930 | 109° | 99km/h | 15223m | 4.6m/s | -58.0°C | 5.7% | 124.2hPa | 2.7V | 00:00:00 | 01:04:34 | 00:00:00 | |
| HARRO8 | 2026-09-05 11:33:57 | 47.96772 | 12.58680 | 105° | 97km/h | 15191m | 5.3m/s | 0°C | -1.0% | -1.0hPa | 2.7V | 00:00:00 | 00:00:00 | 00:00:00 | |
| PG1ADW-2 | 2026-09-05 11:33:53 | 47.96785 | 12.58609 | 106° | 93km/h | 15181m | 4.9m/s | -58.1°C | 5.7% | 125.0hPa | 2.7V | 00:00:00 | 00:00:00 | 00:00:00 | |
| OE5MMP-10 | 2026-09-05 11:33:52 | 47.96791 | 12.58573 | 104° | 95km/h | 15177m | 4.6m/s | -58.2°C | 5.8% | 125.1hPa | 2.7V | 00:00:00 | 01:04:24 | 00:00:00 | |
| OE5DXL-15 | 2026-09-05 11:33:50 | 47.96802 | 12.58502 | 103° | 91km/h | 15168m | 5.0m/s | -58.2°C | 5.8% | 125.2hPa | 2.7V | 00:00:00 | 00:00:00 | 00:00:00 | |
| OE5HKT-10 | 2026-09-05 11:33:48 | 47.96812 | 12.58432 | 102° | 102km/h | 15159m | 4.4m/s | -58.2°C | 5.8% | 125.4hPa | 2.7V | 00:00:00 | 00:00:00 | 00:00:00 | |
| BAUMI2-15 | 2026-09-05 11:33:47 | 47.96817 | 12.58397 | 101° | 93km/h | 15154m | 5.1m/s | -58.1°C | 5.8% | 125.5hPa | 2.7V | 00:00:00 | 01:04:19 | 00:00:00 | |
| BAUMI2-15 | 2026-09-05 11:33:42 | 47.96841 | 12.58225 | 103° | 89km/h | 15131m | 3.6m/s | -58.1°C | 5.9% | 126.0hPa | 2.7V | 00:00:00 | 01:04:14 | 00:00:00 | |
| OE5WHR-10 | 2026-09-05 11:33:40 | 47.96852 | 12.58159 | 103° | 89km/h | 15122m | 5.1m/s | -58.0°C | 6.0% | 126.2hPa | 2.7V | 00:00:00 | 00:00:00 | 00:00:00 | |
| BAUMI2-15 | 2026-09-05 11:33:37 | 47.96867 | 12.58062 | 102° | 93km/h | 15109m | 4.3m/s | -58.0°C | 5.9% | 126.4hPa | 2.7V | 00:00:00 | 01:04:09 | 00:00:00 | |
| PG1ADW-2 | 2026-09-05 11:33:33 | 47.96886 | 12.57926 | 103° | 91km/h | 15091m | 4.0m/s | -57.8°C | 5.8% | 126.8hPa | 2.7V | 00:00:00 | 01:04:05 | 08:30:00 | |
| BAUMI2-15 | 2026-09-05 11:33:32 | 47.96892 | 12.57891 | 103° | 91km/h | 15086m | 4.8m/s | -57.8°C | 5.8% | 126.9hPa | 2.7V | 00:00:00 | 01:04:04 | 08:30:00 | |
| OE5DRO-10 | 2026-09-05 11:33:28 | 47.96910 | 12.57757 | 102° | 91km/h | 15067m | 5.1m/s | -57.8°C | 5.8% | 127.2hPa | 2.7V | 00:00:00 | 00:00:00 | 08:30:00 | |
| BAUMI2-15 | 2026-09-05 11:33:27 | 47.96915 | 12.57724 | 103° | 86km/h | 15062m | 4.9m/s | -57.8°C | 5.7% | 127.3hPa | 2.7V | 00:00:00 | 01:03:59 | 00:00:00 | |
| OE5MMP-10 | 2026-09-05 11:33:22 | 47.96940 | 12.57567 | 105° | 93km/h | 15036m | 5.1m/s | -57.9°C | 5.8% | 127.9hPa | 2.7V | 00:00:00 | 01:03:54 | 00:00:00 | |
| OE5DXL-15 | 2026-09-05 11:33:20 | 47.96951 | 12.57499 | 104° | 95km/h | 15026m | 3.6m/s | -57.8°C | 5.7% | 128.1hPa | 2.7V | 00:00:00 | 00:00:00 | 08:30:00 | |
| OE5WHR-10 | 2026-09-05 11:33:19 | 47.96956 | 12.57464 | 104° | 93km/h | 15022m | 4.8m/s | -57.9°C | 5.7% | 128.2hPa | 2.7V | 00:00:00 | 01:03:51 | 00:00:00 | |
| BAUMI2-15 | 2026-09-05 11:33:17 | 47.96969 | 12.57396 | 108° | 93km/h | 15012m | 4.1m/s | -57.8°C | 5.7% | 128.4hPa | 2.7V | 00:00:00 | 01:03:49 | 00:00:00 | |
| PG1ADW-2 | 2026-09-05 11:33:13 | 47.96996 | 12.57262 | 106° | 95km/h | 14994m | 3.4m/s | -57.9°C | 5.7% | 128.7hPa | 2.7V | 00:00:00 | 00:00:00 | 00:00:00 | |
| OE5MMP-10 | 2026-09-05 11:33:12 | 47.97003 | 12.57227 | 108° | 95km/h | 14989m | 5.8m/s | -57.9°C | 5.7% | 128.8hPa | 2.7V | 00:00:00 | 01:03:44 | 00:00:00 | |
| OE5DRO-10 | 2026-09-05 11:33:09 | 47.97026 | 12.57127 | 110° | 95km/h | 14976m | 4.6m/s | -57.9°C | 5.9% | 129.1hPa | 2.7V | 00:00:00 | 00:00:00 | 00:00:00 | |
| BAUMI2-15 | 2026-09-05 11:33:07 | 47.97042 | 12.57060 | 109° | 95km/h | 14967m | 3.1m/s | -57.9°C | 5.9% | 129.3hPa | 2.7V | 00:00:00 | 01:03:39 | 00:00:00 | |
| BAUMI2-15 | 2026-09-05 11:33:02 | 47.97081 | 12.56894 | 108° | 89km/h | 14946m | 4.5m/s | -58.1°C | 5.8% | 129.7hPa | 2.7V | 00:00:00 | 01:03:34 | 00:00:00 | |
| OE5WHR-10 | 2026-09-05 11:32:58 | 47.97109 | 12.56764 | 109° | 104km/h | 14929m | 3.5m/s | -58.6°C | 5.9% | 130.1hPa | 2.7V | 00:00:00 | 00:00:00 | 00:00:00 | |
| S52SK | 2026-09-05 11:32:57 | 47.97109 | 12.56764 | 109° | 91km/h | 14929m | 3.6m/s | -58.6°C | 2.5% | 130.1hPa | 2.7V | 00:00:00 | 00:00:00 | 00:00:00 | |
| PG1ADW-2 | 2026-09-05 11:32:53 | 47.97149 | 12.56589 | 112° | 104km/h | 14907m | 4.8m/s | -58.5°C | 6.0% | 130.5hPa | 2.7V | 00:00:00 | 00:00:00 | 00:00:00 | |
| OE5MMP-10 | 2026-09-05 11:32:52 | 47.97158 | 12.56553 | 112° | 102km/h | 14902m | 5.4m/s | -58.5°C | 6.0% | 130.6hPa | 2.7V | 00:00:00 | 01:03:24 | 08:30:00 | |
| OE5FHM-15 | 2026-09-05 11:32:51 | 47.97168 | 12.56517 | 112° | 104km/h | 14896m | 5.0m/s | -58.5°C | 6.0% | 130.8hPa | 2.7V | 00:00:00 | 01:03:23 | 00:00:00 | |
| OE5DXL-15 | 2026-09-05 11:32:50 | 47.97177 | 12.56480 | 113° | 104km/h | 14893m | 2.7m/s | -58.5°C | 6.0% | 130.8hPa | 2.7V | 00:00:00 | 00:00:00 | 00:00:00 | |
| OE5MMP-10 | 2026-09-05 11:32:42 | 47.97259 | 12.56195 | 111° | 106km/h | 14857m | 4.4m/s | -58.4°C | 6.1% | 131.6hPa | 2.7V | 00:00:00 | 01:03:14 | 00:00:00 | |
| OE5WHR-10 | 2026-09-05 11:32:37 | 47.97303 | 12.56000 | 110° | 104km/h | 14835m | 4.3m/s | -58.3°C | 6.1% | 132.0hPa | 2.7V | 00:00:00 | 00:00:00 | 00:00:00 | |
| PG1ADW-2 | 2026-09-05 11:32:33 | 47.97336 | 12.55854 | 109° | 104km/h | 14816m | 5.1m/s | -58.2°C | 6.1% | 132.4hPa | 2.7V | 00:00:00 | 00:00:00 | 00:00:00 | |
| OE5MMP-10 | 2026-09-05 11:32:32 | 47.97344 | 12.55818 | 109° | 104km/h | 14812m | 3.9m/s | -58.2°C | 6.1% | 132.5hPa | 2.7V | 00:00:00 | 01:03:04 | 00:00:00 | |
| OE5DRO-10 | 2026-09-05 11:32:31 | 47.97352 | 12.55781 | 109° | 104km/h | 14808m | 3.3m/s | -58.2°C | 6.1% | 132.6hPa | 2.7V | 00:00:00 | 00:00:00 | 00:00:00 | |
| OE5MMP-10 | 2026-09-05 11:32:22 | 47.97423 | 12.55447 | 108° | 104km/h | 14765m | 3.8m/s | -58.0°C | 6.1% | 133.5hPa | 2.7V | 00:00:00 | 01:02:54 | 00:00:00 | |
| OE5DXL-15 | 2026-09-05 11:32:20 | 47.97438 | 12.55373 | 107° | 104km/h | 14758m | 4.7m/s | -58.0°C | 6.1% | 133.7hPa | 2.7V | 00:00:00 | 00:00:00 | 00:00:00 | |
| OE5FHM-15 | 2026-09-05 11:32:17 | 47.97460 | 12.55260 | 107° | 106km/h | 14743m | 3.9m/s | -57.9°C | 6.1% | 134.0hPa | 2.7V | 00:00:00 | 01:02:49 | 00:00:00 | |
| OE5WHR-10 | 2026-09-05 11:32:16 | 47.97467 | 12.55222 | 106° | 104km/h | 14738m | 5.0m/s | -57.9°C | 6.0% | 134.1hPa | 2.7V | 00:00:00 | 01:02:48 | 00:00:00 | |
| PG1ADW-2 | 2026-09-05 11:32:13 | 47.97487 | 12.55109 | 106° | 104km/h | 14723m | 5.4m/s | -57.9°C | 6.1% | 134.4hPa | 2.7V | 00:00:00 | 01:02:45 | 00:00:00 | |
| OE5MMP-10 | 2026-09-05 11:32:02 | 47.97567 | 12.54694 | 108° | 106km/h | 14673m | 4.1m/s | -57.6°C | 6.0% | 135.5hPa | 2.7V | 00:00:00 | 01:02:34 | 00:00:00 | |
| DL6DJ-15 | 2026-09-05 11:31:58 | 47.97604 | 12.54505 | 106° | 102km/h | 14648m | 3.6m/s | 0°C | -1.0% | -1.0hPa | 2.7V | 00:00:00 | 00:00:00 | 00:00:00 | |
| OE5WHR-10 | 2026-09-05 11:31:55 | 47.97619 | 12.54430 | 105° | 110km/h | 14639m | 5.3m/s | -57.5°C | 6.1% | 136.2hPa | 2.7V | 00:00:00 | 00:00:00 | 00:00:00 | |
| OE5DRO-10 | 2026-09-05 11:31:53 | 47.97632 | 12.54353 | 106° | 110km/h | 14630m | 4.8m/s | -57.5°C | 6.0% | 136.4hPa | 2.7V | 00:00:00 | 00:00:00 | 00:00:00 | |
| OE5MMP-10 | 2026-09-05 11:31:52 | 47.97640 | 12.54314 | 107° | 108km/h | 14625m | 4.6m/s | -57.5°C | 6.1% | 136.5hPa | 2.7V | 00:00:00 | 01:02:24 | 00:00:00 | |
| OE5DXL-15 | 2026-09-05 11:31:50 | 47.97656 | 12.54236 | 107° | 110km/h | 14617m | 4.6m/s | -57.6°C | 6.0% | 136.7hPa | 2.7V | 00:00:00 | 00:00:00 | 00:00:00 | |
| OE5FHM-15 | 2026-09-05 11:31:47 | 47.97676 | 12.54117 | 105° | 110km/h | 14604m | 5.3m/s | -57.7°C | 6.1% | 136.9hPa | 2.7V | 00:00:00 | 01:02:19 | 00:00:00 | |
| OE5MMP-10 | 2026-09-05 11:31:42 | 47.97710 | 12.53920 | 105° | 113km/h | 14581m | 3.6m/s | -57.7°C | 6.1% | 137.5hPa | 2.7V | 00:00:00 | 01:02:14 | 00:00:00 | |
| OE5HKT-10 | 2026-09-05 11:31:41 | 47.97718 | 12.53879 | 107° | 117km/h | 14577m | 4.9m/s | -57.8°C | 6.2% | 137.6hPa | 2.7V | 00:00:00 | 01:02:13 | 00:00:00 | |
| DG1MFX-10 | 2026-09-05 11:31:35 | 47.97760 | 12.53677 | 109° | 113km/h | 14554m | 5.5m/s | -58.0°C | 3.0% | 138.1hPa | 2.7V | 00:00:00 | 00:00:00 | 00:00:00 | |
| OE5WHR-10 | 2026-09-05 11:31:34 | 47.97778 | 12.53596 | 108° | 111km/h | 14545m | 4.0m/s | -58.0°C | 6.3% | 138.3hPa | 2.7V | 00:00:00 | 00:00:00 | 00:00:00 | |
| PG1ADW-2 | 2026-09-05 11:31:33 | 47.97786 | 12.53556 | 107° | 111km/h | 14541m | 5.0m/s | -58.1°C | 6.3% | 138.4hPa | 2.7V | 00:00:00 | 00:00:00 | 00:00:00 | |
| OE5MMP-10 | 2026-09-05 11:31:32 | 47.97793 | 12.53516 | 106° | 110km/h | 14537m | 3.3m/s | -58.1°C | 6.3% | 138.5hPa | 2.7V | 00:00:00 | 01:02:04 | 00:00:00 | |
| S52SK | 2026-09-05 11:31:29 | 47.97808 | 12.53438 | 107° | 108km/h | 14528m | 4.2m/s | -58.2°C | 0% | 0hPa | 2.7V | 00:00:00 | 00:00:00 | 00:00:00 | |
| S52SK | 2026-09-05 11:31:24 | 47.97849 | 12.53243 | 111° | 108km/h | 14506m | 3.9m/s | -58.5°C | 0% | 0hPa | 2.7V | 00:00:00 | 00:00:00 | 00:00:00 | |
| OE5MMP-10 | 2026-09-05 11:31:22 | 47.97877 | 12.53126 | 110° | 117km/h | 14493m | 3.9m/s | -58.8°C | 6.8% | 139.4hPa | 2.7V | 00:00:00 | 01:01:54 | 08:30:00 | |
| DO7DH-14 | 2026-09-05 11:31:20 | 47.97897 | 12.53047 | 112° | 120km/h | 14484m | 3.7m/s | 0°C | 0% | 0hPa | 2.7V | 00:00:00 | 01:01:52 | 00:00:00 | |
| OE5FHM-15 | 2026-09-05 11:31:17 | 47.97927 | 12.52927 | 112° | 126km/h | 14470m | 4.6m/s | -59.1°C | 7.1% | 139.9hPa | 2.7V | 00:00:00 | 01:01:49 | 00:00:00 | |
| OE5DRO-10 | 2026-09-05 11:31:15 | 47.97949 | 12.52845 | 112° | 128km/h | 14462m | 4.1m/s | -59.2°C | 7.0% | 140.2hPa | 2.7V | 00:00:00 | 00:00:00 | 00:00:00 | |
| OE5WHR-10 | 2026-09-05 11:31:13 | 47.97972 | 12.52758 | 112° | 126km/h | 14451m | 5.1m/s | -59.3°C | 7.0% | 140.4hPa | 2.7V | 00:00:00 | 01:01:45 | 00:00:00 | |
| OE5MMP-10 | 2026-09-05 11:31:12 | 47.97984 | 12.52714 | 113° | 128km/h | 14446m | 5.9m/s | -59.3°C | 7.0% | 140.5hPa | 2.7V | 00:00:00 | 01:01:44 | 00:00:00 | |
| OE5HKT-10 | 2026-09-05 11:31:10 | 47.98009 | 12.52623 | 112° | 126km/h | 14437m | 3.6m/s | -59.3°C | 7.2% | 140.7hPa | 2.7V | 00:00:00 | 00:00:00 | 08:30:00 | |
| DG1MFX-10 | 2026-09-05 11:31:07 | 47.98031 | 12.52531 | 109° | 128km/h | 14428m | 3.3m/s | -59.3°C | 3.7% | 141.0hPa | 2.7V | 00:00:00 | 00:00:00 | 00:00:00 | |
| OE5MMP-10 | 2026-09-05 11:31:02 | 47.98086 | 12.52261 | 106° | 126km/h | 14401m | 4.9m/s | -59.1°C | 7.5% | 141.5hPa | 2.7V | 00:00:00 | 01:01:34 | 00:00:00 | |
| BAUMI2-15 | 2026-09-05 11:30:56 | 47.98134 | 12.51979 | 107° | 122km/h | 14374m | 5.2m/s | -59.0°C | 7.3% | 142.1hPa | 2.7V | 00:00:00 | 01:01:28 | 00:00:00 | |
| PG1ADW-2 | 2026-09-05 11:30:53 | 47.98160 | 12.51847 | 105° | 128km/h | 14361m | 4.9m/s | -58.9°C | 7.3% | 142.5hPa | 2.7V | 00:00:00 | 01:01:25 | 00:00:00 | |
| OE5WHR-10 | 2026-09-05 11:30:52 | 47.98167 | 12.51802 | 104° | 130km/h | 14356m | 4.3m/s | -58.9°C | 7.3% | 142.5hPa | 2.7V | 00:00:00 | 00:00:00 | 08:30:00 | |
| OE5DXL-15 | 2026-09-05 11:30:50 | 47.98182 | 12.51707 | 104° | 131km/h | 14348m | 4.1m/s | -59.0°C | 7.4% | 142.8hPa | 2.7V | 00:00:00 | 00:00:00 | 00:00:00 | |
| OE5HKT-10 | 2026-09-05 11:30:49 | 47.98190 | 12.51660 | 104° | 130km/h | 14343m | 4.7m/s | -59.0°C | 7.4% | 142.8hPa | 2.7V | 00:00:00 | 00:00:00 | 00:00:00 | |
| OE5FHM-15 | 2026-09-05 11:30:47 | 47.98203 | 12.51567 | 102° | 131km/h | 14334m | 5.1m/s | -59.0°C | 7.4% | 143.0hPa | 2.7V | 00:00:00 | 01:01:19 | 00:00:00 | |
| DG1MFX-10 | 2026-09-05 11:30:46 | 47.98203 | 12.51567 | 103° | 124km/h | 14334m | 5.1m/s | -59.0°C | 3.9% | 143.1hPa | 2.7V | 00:00:00 | 00:00:00 | 00:00:00 | |
| DO7DH-14 | 2026-09-05 11:30:45 | 47.98215 | 12.51475 | 101° | 128km/h | 14326m | 4.1m/s | 0°C | 0% | 0hPa | 2.7V | 00:00:00 | 01:01:17 | 00:00:00 | |
| DG1MJG | 2026-09-05 11:30:44 | 47.98215 | 12.51475 | 102° | 124km/h | 14326m | 4.1m/s | 0°C | 0% | 0hPa | 2.7V | 00:00:00 | 00:00:00 | 00:00:00 | |
| OE5MMP-10 | 2026-09-05 11:30:42 | 47.98234 | 12.51335 | 102° | 131km/h | 14313m | 3.9m/s | -58.9°C | 7.4% | 143.5hPa | 2.7V | 00:00:00 | 01:01:14 | 00:00:00 | |
| BAUMI2-15 | 2026-09-05 11:30:40 | 47.98247 | 12.51239 | 102° | 133km/h | 14304m | 4.1m/s | -58.9°C | 7.3% | 143.7hPa | 2.7V | 00:00:00 | 01:01:12 | 00:00:00 | |
| OE5DRO-10 | 2026-09-05 11:30:37 | 47.98268 | 12.51092 | 104° | 133km/h | 14291m | 4.4m/s | -59.1°C | 7.3% | 144.1hPa | 2.7V | 00:00:00 | 00:00:00 | 08:30:00 | |
| BAUMI2-15 | 2026-09-05 11:30:35 | 47.98283 | 12.50994 | 103° | 130km/h | 14284m | 3.6m/s | -59.5°C | 7.5% | 144.2hPa | 2.7V | 00:00:00 | 01:01:07 | 00:00:00 | |
| PG1ADW-2 | 2026-09-05 11:30:33 | 47.98296 | 12.50899 | 101° | 133km/h | 14276m | 4.8m/s | -60.1°C | 7.9% | 144.4hPa | 2.7V | 00:00:00 | 00:00:00 | 08:30:00 | |
| OE5MMP-10 | 2026-09-05 11:30:32 | 47.98302 | 12.50851 | 100° | 133km/h | 14271m | 4.9m/s | -60.3°C | 8.2% | 144.5hPa | 2.7V | 00:00:00 | 01:01:04 | 00:00:00 | |
| OE5WHR-10 | 2026-09-05 11:30:31 | 47.98308 | 12.50803 | 99° | 131km/h | 14266m | 4.3m/s | -60.4°C | 8.2% | 144.6hPa | 2.7V | 00:00:00 | 00:00:00 | 00:00:00 | |
| BAUMI2-15 | 2026-09-05 11:30:30 | 47.98312 | 12.50754 | 99° | 133km/h | 14262m | 4.8m/s | -60.4°C | 8.3% | 144.7hPa | 2.7V | 00:00:00 | 01:01:02 | 00:00:00 | |
| OE5HKT-10 | 2026-09-05 11:30:28 | 47.98322 | 12.50656 | 99° | 117km/h | 14253m | 4.2m/s | 0°C | 0% | 0hPa | 2.7V | 00:00:00 | 01:01:00 | 00:00:00 | |
| DG1MFX-10 | 2026-09-05 11:30:26 | 47.98327 | 12.50607 | 99° | 133km/h | 14249m | 3.3m/s | -61.3°C | 4.9% | 145.1hPa | 2.7V | 00:00:00 | 00:00:00 | 00:00:00 | |
| BAUMI2-15 | 2026-09-05 11:30:25 | 47.98336 | 12.50506 | 97° | 135km/h | 14240m | 4.3m/s | -61.5°C | 9.3% | 145.2hPa | 2.7V | 00:00:00 | 01:00:57 | 00:00:00 | |
| OE5MMP-10 | 2026-09-05 11:30:22 | 47.98347 | 12.50354 | 96° | 133km/h | 14227m | 3.5m/s | -61.6°C | 9.2% | 145.5hPa | 2.7V | 00:00:00 | 01:00:54 | 00:00:00 | |
| BAUMI2-15 | 2026-09-05 11:30:20 | 47.98351 | 12.50252 | 93° | 135km/h | 14220m | 3.3m/s | -61.6°C | 9.1% | 145.7hPa | 2.7V | 00:00:00 | 01:00:52 | 00:00:00 | |
| OE5FHM-15 | 2026-09-05 11:30:19 | 47.98356 | 12.50098 | 93° | 124km/h | 14208m | 3.4m/s | -61.6°C | 9.1% | 146.0hPa | 2.7V | 00:00:00 | 01:00:49 | 00:00:00 | |
| BAUMI2-15 | 2026-09-05 11:30:15 | 47.98358 | 12.49999 | 92° | 126km/h | 14201m | 3.9m/s | -61.5°C | 9.2% | 146.2hPa | 2.7V | 00:00:00 | 01:00:47 | 00:00:00 | |
| PG1ADW-2 | 2026-09-05 11:30:13 | 47.98361 | 12.49904 | 95° | 128km/h | 14193m | 4.0m/s | -61.5°C | 9.4% | 146.4hPa | 2.7V | 00:00:00 | 00:00:00 | 00:00:00 | |
| OE5MMP-10 | 2026-09-05 11:30:12 | 47.98363 | 12.49858 | 96° | 128km/h | 14189m | 4.6m/s | -61.5°C | 9.5% | 146.5hPa | 2.7V | 00:00:00 | 01:00:44 | 00:00:00 | |
| OE5WHR-10 | 2026-09-05 11:30:10 | 47.98370 | 12.49765 | 97° | 126km/h | 14181m | 5.1m/s | -61.5°C | 9.6% | 146.6hPa | 2.7V | 00:00:00 | 01:00:42 | 00:00:00 | |
| BAUMI2-15 | 2026-09-05 11:30:09 | 47.98373 | 12.49718 | 96° | 128km/h | 14176m | 3.9m/s | -61.5°C | 9.7% | 146.7hPa | 2.7V | 00:00:00 | 01:00:41 | 00:00:00 | |
| DH7VM-15 | 2026-09-05 11:30:08 | 47.98373 | 12.49718 | 97° | 126km/h | 14176m | 4.0m/s | -61.6°C | 5.2% | 146.8hPa | 2.7V | 00:00:00 | 00:00:00 | 00:00:00 | |
| DG1MFX-10 | 2026-09-05 11:30:06 | 47.98378 | 12.49624 | 95° | 128km/h | 14167m | 2.2m/s | -61.6°C | 5.3% | 147.0hPa | 2.7V | 00:00:00 | 00:00:00 | 00:00:00 | |
| BAUMI2-15 | 2026-09-05 11:30:04 | 47.98386 | 12.49475 | 95° | 133km/h | 14154m | 5.6m/s | -61.5°C | 9.7% | 147.2hPa | 2.7V | 00:00:00 | 01:00:36 | 00:00:00 | |
| S52SK | 2026-09-05 11:30:03 | 47.98386 | 12.49476 | 95° | 133km/h | 14154m | 5.7m/s | -61.5°C | 0% | 0hPa | 2.7V | 00:00:00 | 00:00:00 | 00:00:00 | |
| OE5MMP-10 | 2026-09-05 11:30:02 | 47.98391 | 12.49376 | 96° | 126km/h | 14146m | 4.2m/s | -61.4°C | 9.6% | 147.5hPa | 2.7V | 00:00:00 | 01:00:34 | 00:00:00 | |
| BAUMI2-15 | 2026-09-05 11:29:59 | 47.98402 | 12.49227 | 96° | 126km/h | 14129m | 7.8m/s | -61.3°C | 9.3% | 147.9hPa | 2.7V | 00:00:00 | 01:00:31 | 08:30:00 | |
| S52SK | 2026-09-05 11:29:57 | 47.98405 | 12.49177 | 98° | 128km/h | 14122m | 6.1m/s | -61.3°C | 0% | 0hPa | 2.7V | 00:00:00 | 00:00:00 | 00:00:00 | |
| PG1ADW-2 | 2026-09-05 11:29:53 | 47.98442 | 12.48959 | 108° | 115km/h | 14082m | 7.3m/s | -60.9°C | 9.2% | 149.0hPa | 2.7V | 00:00:00 | 00:00:00 | 00:00:00 | |
| OE5MMP-10 | 2026-09-05 11:29:52 | 47.98451 | 12.48916 | 107° | 117km/h | 14076m | 5.8m/s | -60.9°C | 9.3% | 149.2hPa | 2.7V | 00:00:00 | 01:00:24 | 08:30:00 | |
| OE5DXL-15 | 2026-09-05 11:29:50 | 47.98466 | 12.48833 | 104° | 111km/h | 14064m | 5.4m/s | -60.8°C | 9.2% | 149.4hPa | 2.7V | 00:00:00 | 00:00:00 | 00:00:00 | |
| OE5WHR-10 | 2026-09-05 11:29:49 | 47.98473 | 12.48792 | 103° | 113km/h | 14058m | 7.1m/s | -60.7°C | 9.1% | 149.6hPa | 2.7V | 00:00:00 | 00:00:00 | 00:00:00 | |
| OE5FHM-15 | 2026-09-05 11:29:47 | 47.98484 | 12.48711 | 101° | 110km/h | 14046m | 6.9m/s | -60.7°C | 9.0% | 149.8hPa | 2.7V | 00:00:00 | 01:00:19 | 08:30:00 | |
| DG1MFX-10 | 2026-09-05 11:29:45 | 47.98489 | 12.48667 | 101° | 120km/h | 14040m | 5.7m/s | -60.6°C | 4.9% | 150.0hPa | 2.7V | 00:00:00 | 00:00:00 | 00:00:00 | |
| OE5DRO-10 | 2026-09-05 11:29:40 | 47.98520 | 12.48410 | 104° | 110km/h | 14010m | 4.5m/s | -60.3°C | 9.4% | 150.8hPa | 2.7V | 00:00:00 | 00:00:00 | 00:00:00 | |
| BAUMI2-15 | 2026-09-05 11:29:36 | 47.98545 | 12.48246 | 101° | 115km/h | 13989m | 2.9m/s | -60.1°C | 9.4% | 151.3hPa | 2.7V | 00:00:00 | 01:00:08 | 00:00:00 | |
| PG1ADW-2 | 2026-09-05 11:29:33 | 47.98562 | 12.48117 | 101° | 106km/h | 13973m | 3.2m/s | -60.0°C | 9.4% | 151.6hPa | 2.7V | 00:00:00 | 01:00:05 | 00:00:00 | |
| OE5MMP-10 | 2026-09-05 11:29:32 | 47.98567 | 12.48076 | 101° | 106km/h | 13968m | 6.6m/s | -60.0°C | 9.4% | 151.7hPa | 2.7V | 00:00:00 | 01:00:04 | 00:00:00 | |
| BAUMI2-15 | 2026-09-05 11:29:31 | 47.98572 | 12.48034 | 102° | 110km/h | 13961m | 6.3m/s | -60.0°C | 9.4% | 151.9hPa | 2.7V | 00:00:00 | 01:00:03 | 00:00:00 | |
| OE5WHR-10 | 2026-09-05 11:29:28 | 47.98589 | 12.47912 | 102° | 115km/h | 13946m | 5.5m/s | -59.9°C | 9.3% | 152.3hPa | 2.7V | 00:00:00 | 00:00:00 | 00:00:00 | |
| BAUMI2-15 | 2026-09-05 11:29:26 | 47.98601 | 12.47835 | 107° | 102km/h | 13933m | 6.9m/s | -59.8°C | 9.3% | 152.6hPa | 2.7V | 00:00:00 | 00:59:58 | 00:00:00 | |
| DG1MFX-10 | 2026-09-05 11:29:24 | 47.98609 | 12.47800 | 113° | 100km/h | 13927m | 4.2m/s | -59.8°C | 5.4% | 152.8hPa | 2.7V | 00:00:00 | 00:00:00 | 00:00:00 | |
| OE5HKT-10 | 2026-09-05 11:29:23 | 47.98630 | 12.47730 | 115° | 115km/h | 13915m | 4.5m/s | 0°C | 0% | 0hPa | 2.7V | 00:00:00 | 00:00:00 | 00:00:00 | |
| OE5MMP-10 | 2026-09-05 11:29:22 | 47.98640 | 12.47694 | 114° | 106km/h | 13909m | 6.1m/s | -59.6°C | 9.7% | 153.1hPa | 2.7V | 00:00:00 | 00:59:54 | 00:00:00 | |
| BAUMI2-15 | 2026-09-05 11:29:21 | 47.98651 | 12.47657 | 111° | 100km/h | 13905m | 3.6m/s | -59.5°C | 9.7% | 153.3hPa | 2.7V | 00:00:00 | 00:59:53 | 00:00:00 | |
| OE5DXL-15 | 2026-09-05 11:29:20 | 47.98659 | 12.47619 | 108° | 110km/h | 13899m | 6.7m/s | -59.5°C | 9.6% | 153.4hPa | 2.7V | 00:00:00 | 00:00:00 | 00:00:00 | |
| OE5FHM-15 | 2026-09-05 11:29:18 | 47.98677 | 12.47511 | 103° | 111km/h | 13880m | 2.6m/s | -59.6°C | 9.9% | 153.9hPa | 2.7V | 00:00:00 | 00:59:49 | 00:00:00 | |
| BAUMI2-15 | 2026-09-05 11:29:16 | 47.98682 | 12.47475 | 102° | 115km/h | 13875m | 6.5m/s | -59.6°C | 10.0% | 154.0hPa | 2.7V | 00:00:00 | 00:59:48 | 00:00:00 | |
| PG1ADW-2 | 2026-09-05 11:29:13 | 47.98702 | 12.47351 | 106° | 113km/h | 13860m | 6.6m/s | -59.5°C | 10.0% | 154.3hPa | 2.7V | 00:00:00 | 00:00:00 | 00:00:00 | |
| OE5MMP-10 | 2026-09-05 11:29:12 | 47.98710 | 12.47306 | 106° | 119km/h | 13853m | 7.1m/s | -59.5°C | 10.1% | 154.5hPa | 2.7V | 00:00:00 | 00:59:44 | 00:00:00 | |
| BAUMI2-15 | 2026-09-05 11:29:11 | 47.98718 | 12.47261 | 105° | 122km/h | 13847m | 4.9m/s | -59.4°C | 10.2% | 154.7hPa | 2.7V | 00:00:00 | 00:59:43 | 08:30:00 | |
| DB0UT-7 | 2026-09-05 11:29:09 | 47.98734 | 12.47171 | 104° | 113km/h | 13839m | 5.0m/s | -59.4°C | 10.3% | 154.9hPa | 2.7V | 00:00:00 | 00:59:41 | 00:00:00 | |
| BAUMI2-15 | 2026-09-05 11:29:06 | 47.98759 | 12.47038 | 109° | 111km/h | 13821m | 8.0m/s | -59.4°C | 10.4% | 155.4hPa | 2.7V | 00:00:00 | 00:59:38 | 00:00:00 | |
| DG1MFX-10 | 2026-09-05 11:29:03 | 47.98779 | 12.46957 | 113° | 113km/h | 13806m | 8.3m/s | -59.5°C | 6.3% | 155.7hPa | 2.7V | 00:00:00 | 00:00:00 | 00:00:00 | |
| OE5DRO-10 | 2026-09-05 11:29:02 | 47.98799 | 12.46881 | 110° | 110km/h | 13788m | 8.7m/s | -59.8°C | 10.5% | 156.2hPa | 2.7V | 00:00:00 | 00:00:00 | 00:00:00 | |
| OE5WHR-10 | 2026-09-05 11:29:01 | 47.98807 | 12.46846 | 111° | 110km/h | 13780m | 7.1m/s | -60.0°C | 11.0% | 156.4hPa | 2.7V | 00:00:00 | 00:59:33 | 00:00:00 | |
| PG1ADW-2 | 2026-09-05 11:28:53 | 47.98901 | 12.46566 | 117° | 113km/h | 13730m | 4.2m/s | -59.9°C | 11.9% | 157.6hPa | 2.7V | 00:00:00 | 00:00:00 | 00:00:00 | |
| OE5MMP-10 | 2026-09-05 11:28:52 | 47.98914 | 12.46529 | 117° | 113km/h | 13726m | 4.4m/s | -60.0°C | 12.2% | 157.7hPa | 2.7V | 00:00:00 | 00:59:24 | 00:00:00 | |
| OE5DXL-15 | 2026-09-05 11:28:50 | 47.98941 | 12.46452 | 119° | 117km/h | 13718m | 3.6m/s | -59.9°C | 12.5% | 158.0hPa | 2.7V | 00:00:00 | 00:00:00 | 08:30:00 | |
| OE5FHM-15 | 2026-09-05 11:28:47 | 47.98984 | 12.46340 | 122° | 117km/h | 13707m | 3.2m/s | -59.9°C | 12.8% | 158.2hPa | 2.7V | 00:00:00 | 00:59:19 | 00:00:00 | |
| OE5DRO-10 | 2026-09-05 11:28:43 | 47.99043 | 12.46192 | 121° | 115km/h | 13692m | 4.1m/s | -59.9°C | 13.2% | 158.6hPa | 2.7V | 00:00:00 | 00:00:00 | 00:00:00 | |
| OE5MMP-10 | 2026-09-05 11:28:42 | 47.99056 | 12.46157 | 121° | 115km/h | 13689m | 3.3m/s | -59.8°C | 13.4% | 158.7hPa | 2.7V | 00:00:00 | 00:59:14 | 00:00:00 | |
| OE5WHR-10 | 2026-09-05 11:28:40 | 47.99084 | 12.46087 | 122° | 119km/h | 13682m | 3.9m/s | -59.8°C | 14.0% | 158.8hPa | 2.7V | 00:00:00 | 00:00:00 | 00:00:00 | |
| DB0UT-7 | 2026-09-05 11:28:39 | 47.99099 | 12.46052 | 123° | 142km/h | 13678m | 3.1m/s | -59.8°C | 14.2% | 158.9hPa | 2.7V | 00:00:00 | 00:00:00 | 00:00:00 | |
| S52SK | 2026-09-05 11:28:37 | 47.99115 | 12.46015 | 123° | 119km/h | 13675m | 4.2m/s | -59.9°C | 0% | 0hPa | 2.7V | 00:00:00 | 00:00:00 | 00:00:00 | |
| PG1ADW-2 | 2026-09-05 11:28:33 | 47.99196 | 12.45824 | 124° | 120km/h | 13652m | 6.3m/s | -60.1°C | 15.2% | 159.6hPa | 2.7V | 00:00:00 | 00:00:00 | 00:00:00 | |
| OE5MMP-10 | 2026-09-05 11:28:32 | 47.99213 | 12.45786 | 124° | 117km/h | 13647m | 4.1m/s | -60.2°C | 15.4% | 159.7hPa | 2.7V | 00:00:00 | 00:59:04 | 00:00:00 | |
| S52SK | 2026-09-05 11:28:31 | 47.99213 | 12.45786 | 124° | 120km/h | 13647m | 4.2m/s | -60.3°C | 0% | 0hPa | 2.7V | 00:00:00 | 00:00:00 | 00:00:00 | |
| S52SK | 2026-09-05 11:28:26 | 47.99292 | 12.45607 | 125° | 115km/h | 13621m | 5.8m/s | -60.5°C | 0% | 0hPa | 2.7V | 00:00:00 | 00:00:00 | 00:00:00 | |
| OE5DRO-10 | 2026-09-05 11:28:24 | 47.99346 | 12.45499 | 129° | 128km/h | 13606m | 5.0m/s | -60.5°C | 17.9% | 160.8hPa | 2.7V | 00:00:00 | 00:00:00 | 00:00:00 | |
| OE5MMP-10 | 2026-09-05 11:28:22 | 47.99386 | 12.45426 | 129° | 124km/h | 13597m | 5.6m/s | -60.6°C | 17.8% | 161.0hPa | 2.7V | 00:00:00 | 00:58:54 | 08:30:00 | |
| DL6DJ-15 | 2026-09-05 11:28:21 | 47.99425 | 12.45350 | 126° | 124km/h | 13586m | 4.1m/s | -60.6°C | 12.5% | 161.3hPa | 2.7V | 00:00:00 | 00:00:00 | 00:00:00 | |
| OE5DXL-15 | 2026-09-05 11:28:20 | 47.99425 | 12.45350 | 127° | 133km/h | 13586m | 4.1m/s | -60.6°C | 17.8% | 161.3hPa | 2.7V | 00:00:00 | 00:00:00 | 00:00:00 | |
| OE5WHR-10 | 2026-09-05 11:28:19 | 47.99443 | 12.45313 | 127° | 131km/h | 13583m | 2.2m/s | -60.6°C | 17.7% | 161.3hPa | 2.7V | 00:00:00 | 00:00:00 | 00:00:00 | |
| OE5FHM-15 | 2026-09-05 11:28:17 | 47.99480 | 12.45242 | 131° | 135km/h | 13574m | 4.9m/s | -60.6°C | 18.2% | 161.5hPa | 2.7V | 00:00:00 | 00:58:49 | 00:00:00 | |
| PG1ADW-2 | 2026-09-05 11:28:13 | 47.99566 | 12.45104 | 133° | 161km/h | 13556m | 4.7m/s | -60.5°C | 19.3% | 162.0hPa | 2.7V | 00:00:00 | 00:58:45 | 00:00:00 | |
| OE5MMP-10 | 2026-09-05 11:28:12 | 47.99588 | 12.45068 | 132° | 135km/h | 13552m | 4.8m/s | -60.5°C | 19.7% | 162.1hPa | 2.7V | 00:00:00 | 00:58:44 | 00:00:00 | |
| OE5DRO-10 | 2026-09-05 11:28:05 | 47.99744 | 12.44794 | 133° | 139km/h | 13524m | 4.7m/s | -60.5°C | 21.9% | 162.9hPa | 2.7V | 00:00:00 | 00:00:00 | 00:00:00 | |
| OE5MMP-10 | 2026-09-05 11:28:02 | 47.99815 | 12.44685 | 135° | 139km/h | 13512m | 4.4m/s | -60.5°C | 22.8% | 163.2hPa | 2.7V | 00:00:00 | 00:58:34 | 00:00:00 | |
| DG1MFX-10 | 2026-09-05 11:28:01 | 47.99815 | 12.44685 | 136° | 133km/h | 13512m | 4.4m/s | -60.5°C | 16.9% | 163.2hPa | 2.7V | 00:00:00 | 00:00:00 | 00:00:00 | |
| DL6DJ-15 | 2026-09-05 11:27:50 | 48.00126 | 12.44190 | 137° | 141km/h | 13455m | 5.5m/s | -60.9°C | 19.9% | 164.7hPa | 2.7V | 00:00:00 | 00:00:00 | 00:00:00 | |
| OE5FHM-15 | 2026-09-05 11:27:47 | 48.00178 | 12.44116 | 136° | 157km/h | 13444m | 4.8m/s | -60.9°C | 27.4% | 164.9hPa | 2.7V | 00:00:00 | 00:58:19 | 00:00:00 | |
| OE5DRO-10 | 2026-09-05 11:27:46 | 48.00205 | 12.44077 | 136° | 153km/h | 13440m | 3.5m/s | -60.9°C | 27.7% | 165.1hPa | 2.7V | 00:00:00 | 00:00:00 | 08:30:00 | |
| OE5MMP-10 | 2026-09-05 11:27:42 | 48.00311 | 12.43916 | 134° | 153km/h | 13421m | 4.6m/s | -60.9°C | 30.5% | 165.5hPa | 2.7V | 00:00:00 | 00:58:14 | 00:00:00 | |
| DG1MFX-10 | 2026-09-05 11:27:41 | 48.00311 | 12.43916 | 134° | 151km/h | 13421m | 4.6m/s | -60.9°C | 23.6% | 165.6hPa | 2.7V | 00:00:00 | 00:00:00 | 00:00:00 | |
| OE5WHR-10 | 2026-09-05 11:27:37 | 48.00446 | 12.43708 | 134° | 161km/h | 13401m | 3.3m/s | -60.9°C | 32.7% | 166.1hPa | 2.7V | 00:00:00 | 00:00:00 | 08:30:00 | |
| OE5MMP-10 | 2026-09-05 11:27:32 | 48.00584 | 12.43506 | 138° | 162km/h | 13380m | 4.4m/s | -61.2°C | 34.0% | 166.6hPa | 2.7V | 00:00:00 | 00:58:04 | 00:00:00 | |
| DB0UT-7 | 2026-09-05 11:27:31 | 48.00612 | 12.43467 | 138° | 168km/h | 13376m | 3.9m/s | -61.3°C | 34.6% | 166.8hPa | 2.7V | 00:00:00 | 00:58:03 | 08:30:00 | |
| OE5DRO-10 | 2026-09-05 11:27:27 | 48.00728 | 12.43304 | 137° | 172km/h | 13358m | 6.8m/s | -61.6°C | 38.3% | 167.2hPa | 2.7V | 00:00:00 | 00:00:00 | 00:00:00 | |
| OE5MMP-10 | 2026-09-05 11:27:22 | 48.00873 | 12.43070 | 131° | 172km/h | 13334m | 4.7m/s | -61.6°C | 39.6% | 167.8hPa | 2.7V | 00:00:00 | 00:57:54 | 00:00:00 | |
| OE5DXL-15 | 2026-09-05 11:27:20 | 48.00926 | 12.42975 | 131° | 179km/h | 13325m | 5.1m/s | -61.5°C | 39.7% | 168.0hPa | 2.7V | 00:00:00 | 00:00:00 | 00:00:00 | |
| DL6DJ-15 | 2026-09-05 11:27:19 | 48.00980 | 12.42879 | 129° | 170km/h | 13316m | 5.0m/s | -61.6°C | 32.5% | 168.4hPa | 2.7V | 00:00:00 | 00:00:00 | 00:00:00 | |
| OE5FHM-15 | 2026-09-05 11:27:17 | 48.01008 | 12.42830 | 131° | 184km/h | 13312m | 3.2m/s | -61.5°C | 41.0% | 168.5hPa | 2.7V | 00:00:00 | 00:57:49 | 00:00:00 | |
| OE5WHR-10 | 2026-09-05 11:27:16 | 48.01038 | 12.42780 | 132° | 179km/h | 13308m | 3.2m/s | -61.5°C | 40.6% | 168.5hPa | 2.7V | 00:00:00 | 00:00:00 | 00:00:00 | |
| OE5DRO-10 | 2026-09-05 11:27:08 | 48.01284 | 12.42390 | 129° | 183km/h | 13275m | 3.0m/s | -61.4°C | 44.9% | 169.4hPa | 2.7V | 00:00:00 | 00:00:00 | 00:00:00 | |
| S52SK | 2026-09-05 11:27:06 | 48.01311 | 12.42338 | 128° | 175km/h | 13272m | 3.0m/s | -61.6°C | 0% | 0hPa | 2.7V | 00:00:00 | 00:00:00 | 00:00:00 | |
| OE5MMP-10 | 2026-09-05 11:27:02 | 48.01453 | 12.42073 | 133° | 184km/h | 13251m | 4.0m/s | -61.4°C | 46.1% | 170.1hPa | 2.7V | 00:00:00 | 00:57:34 | 00:00:00 | |
| DL6DJ-15 | 2026-09-05 11:26:47 | 48.01904 | 12.41270 | 127° | 188km/h | 13153m | 7.0m/s | -61.7°C | 41.5% | 172.8hPa | 2.7V | 00:00:00 | 00:00:00 | 00:00:00 | |
| BAUMI2-15 | 2026-09-05 11:26:45 | 48.01962 | 12.41156 | 128° | 192km/h | 13140m | 6.5m/s | -61.7°C | 51.3% | 173.2hPa | 2.7V | 00:00:00 | 00:57:17 | 00:00:00 | |
| OE5MMP-10 | 2026-09-05 11:26:42 | 48.02046 | 12.40978 | 124° | 184km/h | 13123m | 6.8m/s | -62.1°C | 53.1% | 173.7hPa | 2.7V | 00:00:00 | 00:57:14 | 00:00:00 | |
| BAUMI2-15 | 2026-09-05 11:26:40 | 48.02097 | 12.40860 | 123° | 184km/h | 13107m | 6.0m/s | -62.3°C | 55.3% | 174.1hPa | 2.7V | 00:00:00 | 00:57:12 | 00:00:00 | |
| DG1MFX-10 | 2026-09-05 11:26:39 | 48.02097 | 12.40860 | 123° | 181km/h | 13107m | 6.1m/s | -62.4°C | 45.8% | 174.2hPa | 2.7V | 00:00:00 | 00:00:00 | 00:00:00 | |
| BAUMI2-15 | 2026-09-05 11:26:35 | 48.02216 | 12.40561 | 120° | 184km/h | 13080m | 6.3m/s | -62.5°C | 57.1% | 174.9hPa | 2.7V | 00:00:00 | 00:57:07 | 00:00:00 | |
| OE5WHR-10 | 2026-09-05 11:26:34 | 48.02240 | 12.40500 | 121° | 181km/h | 13074m | 4.1m/s | -62.4°C | 57.7% | 175.0hPa | 2.7V | 00:00:00 | 00:00:00 | 00:00:00 | |
| OE5MMP-10 | 2026-09-05 11:26:32 | 48.02287 | 12.40380 | 121° | 181km/h | 13066m | 4.0m/s | -62.4°C | 58.4% | 175.3hPa | 2.7V | 00:00:00 | 00:57:04 | 00:00:00 | |
| BAUMI2-15 | 2026-09-05 11:26:30 | 48.02334 | 12.40262 | 122° | 179km/h | 13058m | 5.2m/s | -62.4°C | 58.0% | 175.5hPa | 2.7V | 00:00:00 | 00:57:02 | 00:00:00 | |
| OE5FHM-15 | 2026-09-05 11:26:27 | 48.02404 | 12.40089 | 121° | 175km/h | 13045m | 3.7m/s | -62.3°C | 58.0% | 175.9hPa | 2.7V | 00:00:00 | 00:56:59 | 00:00:00 | |
| BAUMI2-15 | 2026-09-05 11:26:25 | 48.02449 | 12.39972 | 121° | 181km/h | 13038m | 5.2m/s | -62.3°C | 57.7% | 176.1hPa | 2.7V | 00:00:00 | 00:56:57 | 08:30:00 | |
| OE5MMP-10 | 2026-09-05 11:26:22 | 48.02517 | 12.39794 | 119° | 179km/h | 13025m | 4.5m/s | -62.2°C | 56.5% | 176.5hPa | 2.7V | 00:00:00 | 00:56:54 | 00:00:00 | |
| BAUMI2-15 | 2026-09-05 11:26:20 | 48.02561 | 12.39675 | 120° | 177km/h | 13016m | 6.1m/s | -62.3°C | 57.2% | 176.7hPa | 2.7V | 00:00:00 | 00:56:52 | 00:00:00 | |
| DG1MFX-10 | 2026-09-05 11:26:19 | 48.02561 | 12.39675 | 120° | 179km/h | 13016m | 6.1m/s | -62.4°C | 47.5% | 176.8hPa | 2.7V | 00:00:00 | 00:00:00 | 00:00:00 | |
| DL6DJ-15 | 2026-09-05 11:26:16 | 48.02650 | 12.39442 | 119° | 177km/h | 12999m | 3.1m/s | -62.4°C | 48.3% | 177.3hPa | 2.7V | 00:00:00 | 00:00:00 | 00:00:00 | |
| BAUMI2-15 | 2026-09-05 11:26:15 | 48.02672 | 12.39384 | 120° | 177km/h | 12995m | 5.2m/s | -62.3°C | 58.9% | 177.3hPa | 2.7V | 00:00:00 | 00:56:47 | 00:00:00 | |
| OE5WHR-10 | 2026-09-05 11:26:13 | 48.02716 | 12.39268 | 119° | 173km/h | 12987m | 3.9m/s | -62.3°C | 59.7% | 177.6hPa | 2.7V | 00:00:00 | 00:00:00 | 00:00:00 | |
| OE5MMP-10 | 2026-09-05 11:26:12 | 48.02737 | 12.39210 | 118° | 175km/h | 12982m | 5.3m/s | -62.2°C | 60.2% | 177.7hPa | 2.7V | 00:00:00 | 00:56:44 | 00:00:00 | |
| OE5DRO-10 | 2026-09-05 11:26:11 | 48.02757 | 12.39151 | 117° | 173km/h | 12978m | 3.1m/s | -62.2°C | 60.2% | 177.8hPa | 2.7V | 00:00:00 | 00:00:00 | 00:00:00 | |
| BAUMI2-15 | 2026-09-05 11:26:10 | 48.02777 | 12.39092 | 117° | 175km/h | 12974m | 4.8m/s | -62.2°C | 59.7% | 177.9hPa | 2.7V | 00:00:00 | 00:56:42 | 00:00:00 | |
| DO3MHA-11 | 2026-09-05 11:26:07 | 48.02838 | 12.38916 | 118° | 173km/h | 12961m | 5.6m/s | -62.2°C | 59.4% | 178.3hPa | 2.7V | 00:00:00 | 00:56:39 | 00:00:00 | |
| BAUMI2-15 | 2026-09-05 11:26:05 | 48.02880 | 12.38799 | 119° | 173km/h | 12951m | 5.2m/s | -62.0°C | 58.8% | 178.6hPa | 2.7V | 00:00:00 | 00:56:37 | 00:00:00 | |
| OE5MMP-10 | 2026-09-05 11:26:02 | 48.02943 | 12.38627 | 119° | 172km/h | 12939m | 5.3m/s | -62.1°C | 57.9% | 178.9hPa | 2.7V | 00:00:00 | 00:56:34 | 00:00:00 | |
| BAUMI2-15 | 2026-09-05 11:26:00 | 48.02984 | 12.38512 | 118° | 172km/h | 12931m | 3.4m/s | -62.2°C | 58.5% | 179.1hPa | 2.7V | 00:00:00 | 00:56:32 | 00:00:00 | |
| DG1MFX-10 | 2026-09-05 11:25:58 | 48.03005 | 12.38455 | 119° | 172km/h | 12926m | 5.3m/s | -62.3°C | 49.3% | 179.4hPa | 2.7V | 00:00:00 | 00:00:00 | 00:00:00 | |
| OE5FHM-15 | 2026-09-05 11:25:57 | 48.03047 | 12.38341 | 119° | 173km/h | 12918m | 4.7m/s | -62.3°C | 59.7% | 179.5hPa | 2.7V | 00:00:00 | 00:56:29 | 00:00:00 | |
| BAUMI2-15 | 2026-09-05 11:25:55 | 48.03088 | 12.38227 | 119° | 172km/h | 12910m | 4.0m/s | -62.3°C | 60.8% | 179.8hPa | 2.7V | 00:00:00 | 00:56:27 | 00:00:00 | |
| OE5WHR-10 | 2026-09-05 11:25:52 | 48.03151 | 12.38057 | 120° | 173km/h | 12897m | 5.1m/s | 0°C | 0% | 0hPa | 2.7V | 00:00:00 | 00:56:24 | 00:00:00 | |
| OE5DXL-15 | 2026-09-05 11:25:50 | 48.03194 | 12.37943 | 120° | 173km/h | 12888m | 3.8m/s | -62.1°C | 59.6% | 180.4hPa | 2.7V | 00:00:00 | 00:00:00 | 00:00:00 | |
| DO3MHA-11 | 2026-09-05 11:25:48 | 48.03237 | 12.37830 | 120° | 173km/h | 12879m | 2.7m/s | -62.2°C | 60.3% | 180.7hPa | 2.7V | 00:00:00 | 00:56:20 | 00:00:00 | |
| BAUMI2-15 | 2026-09-05 11:25:45 | 48.03302 | 12.37659 | 120° | 173km/h | 12867m | 3.0m/s | -62.1°C | 59.9% | 181.1hPa | 2.7V | 00:00:00 | 00:56:17 | 00:00:00 | |
| DB0UT-7 | 2026-09-05 11:25:41 | 48.03389 | 12.37431 | 120° | 173km/h | 12849m | 5.3m/s | -61.9°C | 58.8% | 181.6hPa | 2.7V | 00:00:00 | 00:56:13 | 00:00:00 | |
| BAUMI2-15 | 2026-09-05 11:25:40 | 48.03410 | 12.37375 | 120° | 172km/h | 12845m | 3.6m/s | -61.9°C | 58.6% | 181.7hPa | 2.7V | 00:00:00 | 00:56:12 | 08:30:00 | |
| DO3MHA-11 | 2026-09-05 11:25:38 | 48.03453 | 12.37262 | 120° | 173km/h | 12836m | 3.0m/s | -61.8°C | 58.2% | 182.0hPa | 2.7V | 00:00:00 | 00:56:10 | 08:30:00 | |
| DG1MFX-10 | 2026-09-05 11:25:37 | 48.03453 | 12.37262 | 121° | 172km/h | 12836m | 3.0m/s | -61.8°C | 48.7% | 182.0hPa | 2.7V | 00:00:00 | 00:00:00 | 00:00:00 | |
| BAUMI2-15 | 2026-09-05 11:25:35 | 48.03518 | 12.37092 | 120° | 173km/h | 12823m | 4.1m/s | -61.8°C | 57.7% | 182.4hPa | 2.7V | 00:00:00 | 00:56:07 | 00:00:00 | |
| OE5DRO-10 | 2026-09-05 11:25:33 | 48.03561 | 12.36977 | 120° | 173km/h | 12814m | 3.5m/s | -61.9°C | 58.6% | 182.6hPa | 2.7V | 00:00:00 | 00:00:00 | 00:00:00 | |
| OE5MMP-10 | 2026-09-05 11:25:32 | 48.03583 | 12.36921 | 120° | 173km/h | 12810m | 4.7m/s | -61.9°C | 58.7% | 182.7hPa | 2.7V | 00:00:00 | 00:56:04 | 00:00:00 | |
| OE5WHR-10 | 2026-09-05 11:25:31 | 48.03605 | 12.36864 | 121° | 173km/h | 12805m | 4.3m/s | -61.9°C | 59.1% | 182.9hPa | 2.7V | 00:00:00 | 00:00:00 | 00:00:00 | |
| BAUMI2-15 | 2026-09-05 11:25:30 | 48.03627 | 12.36807 | 120° | 173km/h | 12800m | 4.7m/s | -61.9°C | 59.0% | 183.0hPa | 2.7V | 00:00:00 | 00:56:02 | 00:00:00 | |
| OE5FHM-15 | 2026-09-05 11:25:25 | 48.03735 | 12.36523 | 120° | 166km/h | 12778m | 5.7m/s | -61.9°C | 60.6% | 183.7hPa | 2.7V | 00:00:00 | 00:55:57 | 00:00:00 | |
| PG1ADW-2 | 2026-09-05 11:25:24 | 48.03756 | 12.36467 | 120° | 173km/h | 12773m | 3.7m/s | -61.8°C | 61.2% | 183.8hPa | 2.7V | 00:00:00 | 00:00:00 | 08:30:00 | |
| OE5MMP-10 | 2026-09-05 11:25:22 | 48.03800 | 12.36355 | 121° | 173km/h | 12765m | 4.6m/s | -61.8°C | 61.5% | 184.1hPa | 2.7V | 00:00:00 | 00:55:54 | 08:30:00 | |
| DO3MHA-11 | 2026-09-05 11:25:21 | 48.03823 | 12.36299 | 122° | 170km/h | 12761m | 3.8m/s | -61.8°C | 61.8% | 184.2hPa | 2.7V | 00:00:00 | 00:55:53 | 00:00:00 | |
| OE5DXL-15 | 2026-09-05 11:25:20 | 48.03846 | 12.36243 | 123° | 172km/h | 12756m | 4.4m/s | -61.9°C | 62.4% | 184.3hPa | 2.7V | 00:00:00 | 00:00:00 | 00:00:00 | |
| DG1MFX-10 | 2026-09-05 11:25:17 | 48.03893 | 12.36132 | 123° | 173km/h | 12748m | 4.1m/s | -62.0°C | 53.0% | 184.6hPa | 2.7V | 00:00:00 | 00:00:00 | 00:00:00 | |
| BAUMI2-15 | 2026-09-05 11:25:15 | 48.03962 | 12.35965 | 121° | 173km/h | 12735m | 5.0m/s | -61.8°C | 62.4% | 184.9hPa | 2.7V | 00:00:00 | 00:55:47 | 00:00:00 | |
| OE5DRO-10 | 2026-09-05 11:25:14 | 48.03984 | 12.35909 | 121° | 172km/h | 12731m | 3.8m/s | -61.8°C | 61.5% | 185.1hPa | 2.7V | 00:00:00 | 00:00:00 | 00:00:00 | |
| OE5MMP-10 | 2026-09-05 11:25:12 | 48.04028 | 12.35797 | 120° | 172km/h | 12723m | 5.0m/s | -61.8°C | 59.7% | 185.3hPa | 2.7V | 00:00:00 | 00:55:44 | 00:00:00 | |
| DB0UT-7 | 2026-09-05 11:25:11 | 48.04050 | 12.35738 | 120° | 164km/h | 12718m | 4.4m/s | -61.8°C | 59.8% | 185.4hPa | 2.7V | 00:00:00 | 00:00:00 | 00:00:00 | |
| OE5WHR-10 | 2026-09-05 11:25:10 | 48.04072 | 12.35679 | 120° | 170km/h | 12714m | 2.9m/s | -61.7°C | 59.8% | 185.6hPa | 2.7V | 00:00:00 | 00:00:00 | 00:00:00 | |
| BAUMI2-15 | 2026-09-05 11:25:05 | 48.04183 | 12.35400 | 123° | 166km/h | 12692m | 4.3m/s | -61.6°C | 59.5% | 186.3hPa | 2.7V | 00:00:00 | 00:55:37 | 00:00:00 | |
| PG1ADW-2 | 2026-09-05 11:25:04 | 48.04205 | 12.35348 | 124° | 168km/h | 12688m | 4.8m/s | -61.6°C | 59.6% | 186.4hPa | 2.7V | 00:00:00 | 00:00:00 | 00:00:00 | |
| OE5MMP-10 | 2026-09-05 11:25:02 | 48.04251 | 12.35244 | 124° | 168km/h | 12679m | 3.8m/s | -61.4°C | 60.7% | 186.7hPa | 2.7V | 00:00:00 | 00:55:34 | 00:00:00 | |
| BAUMI2-15 | 2026-09-05 11:25:00 | 48.04297 | 12.35136 | 122° | 170km/h | 12671m | 5.4m/s | -61.4°C | 61.9% | 186.9hPa | 2.7V | 00:00:00 | 00:55:32 | 00:00:00 | |
| DO3MHA-11 | 2026-09-05 11:24:56 | 48.04385 | 12.34916 | 122° | 166km/h | 12652m | 3.4m/s | -61.3°C | 64.4% | 187.5hPa | 2.7V | 00:00:00 | 00:55:28 | 00:00:00 | |
| OE5DRO-10 | 2026-09-05 11:24:55 | 48.04407 | 12.34862 | 122° | 166km/h | 12648m | 4.5m/s | -61.3°C | 63.5% | 187.6hPa | 2.7V | 00:00:00 | 00:00:00 | 08:30:00 | |
| OE5MMP-10 | 2026-09-05 11:24:52 | 48.04472 | 12.34699 | 121° | 170km/h | 12635m | 5.5m/s | -61.2°C | 61.6% | 188.0hPa | 2.7V | 00:00:00 | 00:55:24 | 00:00:00 | |
| OE5DXL-15 | 2026-09-05 11:24:50 | 48.04516 | 12.34591 | 122° | 164km/h | 12625m | 4.9m/s | -61.1°C | 61.0% | 188.3hPa | 2.7V | 00:00:00 | 00:00:00 | 00:00:00 | |
| OE5WHR-10 | 2026-09-05 11:24:49 | 48.04539 | 12.34536 | 122° | 166km/h | 12619m | 5.1m/s | -61.0°C | 61.2% | 188.4hPa | 2.7V | 00:00:00 | 00:55:21 | 00:00:00 | |
| PG1ADW-2 | 2026-09-05 11:24:43 | 48.04675 | 12.34210 | 121° | 164km/h | 12594m | 3.7m/s | -60.8°C | 62.2% | 189.3hPa | 2.7V | 00:00:00 | 00:55:15 | 00:00:00 | |
| OE5MMP-10 | 2026-09-05 11:24:42 | 48.04696 | 12.34156 | 121° | 164km/h | 12590m | 3.7m/s | -60.8°C | 61.8% | 189.3hPa | 2.7V | 00:00:00 | 00:55:14 | 00:00:00 | |
| OE5DRO-10 | 2026-09-05 11:24:36 | 48.04819 | 12.33835 | 120° | 162km/h | 12563m | 5.5m/s | -60.6°C | 61.8% | 190.2hPa | 2.7V | 00:00:00 | 00:00:00 | 00:00:00 | |
| DG1MFX-10 | 2026-09-05 11:24:35 | 48.04819 | 12.33835 | 121° | 166km/h | 12563m | 5.6m/s | -60.6°C | 52.2% | 190.2hPa | 2.7V | 00:00:00 | 00:00:00 | 00:00:00 | |
| OE5MMP-10 | 2026-09-05 11:24:32 | 48.04902 | 12.33618 | 121° | 161km/h | 12545m | 4.3m/s | -60.4°C | 61.6% | 190.7hPa | 2.7V | 00:00:00 | 00:55:04 | 00:00:00 | |
| OE5WHR-10 | 2026-09-05 11:24:28 | 48.04988 | 12.33406 | 121° | 159km/h | 12529m | 4.3m/s | -60.2°C | 61.8% | 191.2hPa | 2.7V | 00:00:00 | 00:00:00 | 08:30:00 | |
| OE5FHM-15 | 2026-09-05 11:24:24 | 48.05066 | 12.33199 | 120° | 159km/h | 12512m | 4.8m/s | -60.1°C | 62.3% | 191.7hPa | 2.7V | 00:00:00 | 00:54:56 | 08:30:00 | |
| PG1ADW-2 | 2026-09-05 11:24:23 | 48.05086 | 12.33147 | 120° | 161km/h | 12508m | 3.8m/s | -60.0°C | 62.3% | 191.9hPa | 2.7V | 00:00:00 | 00:00:00 | 00:00:00 | |
| OE5MMP-10 | 2026-09-05 11:24:22 | 48.05106 | 12.33094 | 120° | 161km/h | 12504m | 3.8m/s | -60.0°C | 61.8% | 192.0hPa | 2.7V | 00:00:00 | 00:54:54 | 00:00:00 | |
| OE5DXL-15 | 2026-09-05 11:24:20 | 48.05145 | 12.32987 | 118° | 159km/h | 12494m | 3.4m/s | -59.9°C | 62.8% | 192.3hPa | 2.7V | 00:00:00 | 00:00:00 | 08:30:00 | |
| OE5DRO-10 | 2026-09-05 11:24:17 | 48.05204 | 12.32825 | 120° | 159km/h | 12482m | 3.1m/s | -59.8°C | 63.4% | 192.7hPa | 2.7V | 00:00:00 | 00:00:00 | 00:00:00 | |
| DG1MFX-10 | 2026-09-05 11:24:15 | 48.05223 | 12.32772 | 120° | 159km/h | 12478m | 4.7m/s | -59.9°C | 53.6% | 192.9hPa | 2.7V | 00:00:00 | 00:00:00 | 00:00:00 | |
| S52SK | 2026-09-05 11:24:14 | 48.05243 | 12.32720 | 120° | 159km/h | 12473m | 4.8m/s | -59.9°C | 0% | 0hPa | 2.7V | 00:00:00 | 00:00:00 | 00:00:00 | |
| OE5MMP-10 | 2026-09-05 11:24:12 | 48.05303 | 12.32565 | 121° | 159km/h | 12460m | 3.3m/s | -59.7°C | 63.6% | 193.3hPa | 2.7V | 00:00:00 | 00:54:44 | 00:00:00 | |
| OE5WHR-10 | 2026-09-05 11:24:07 | 48.05403 | 12.32303 | 121° | 159km/h | 12439m | 4.0m/s | -59.6°C | 63.1% | 194.0hPa | 2.7V | 00:00:00 | 00:00:00 | 00:00:00 | |
| OE5MMP-10 | 2026-09-05 11:24:02 | 48.05499 | 12.32041 | 119° | 159km/h | 12417m | 4.1m/s | -59.5°C | 63.1% | 194.7hPa | 2.7V | 00:00:00 | 00:54:34 | 00:00:00 | |
| DB0UT-7 | 2026-09-05 11:24:01 | 48.05518 | 12.31989 | 119° | 157km/h | 12412m | 5.3m/s | -59.4°C | 63.2% | 194.9hPa | 2.7V | 00:00:00 | 00:54:33 | 00:00:00 | |
| OE5DRO-10 | 2026-09-05 11:23:58 | 48.05578 | 12.31834 | 121° | 157km/h | 12400m | 4.2m/s | -59.3°C | 63.0% | 195.3hPa | 2.7V | 00:00:00 | 00:00:00 | 00:00:00 | |
| DG1MFX-10 | 2026-09-05 11:23:55 | 48.05619 | 12.31731 | 122° | 159km/h | 12391m | 5.4m/s | -59.3°C | 54.2% | 195.6hPa | 2.7V | 00:00:00 | 00:00:00 | 00:00:00 | |
| OE5FHM-15 | 2026-09-05 11:23:53 | 48.05680 | 12.31576 | 120° | 155km/h | 12378m | 4.6m/s | -59.1°C | 62.6% | 195.9hPa | 2.7V | 00:00:00 | 00:54:25 | 00:00:00 | |
| OE5MMP-10 | 2026-09-05 11:23:52 | 48.05700 | 12.31523 | 119° | 157km/h | 12374m | 3.6m/s | -59.1°C | 62.8% | 196.0hPa | 2.7V | 00:00:00 | 00:54:24 | 08:30:00 | |
| OE5DXL-15 | 2026-09-05 11:23:50 | 48.05739 | 12.31418 | 120° | 155km/h | 12365m | 3.5m/s | -59.0°C | 63.2% | 196.3hPa | 2.7V | 00:00:00 | 00:00:00 | 00:00:00 | |
| OE5WHR-10 | 2026-09-05 11:23:46 | 48.05817 | 12.31211 | 121° | 155km/h | 12349m | 5.1m/s | -58.9°C | 63.8% | 196.8hPa | 2.7V | 00:00:00 | 00:54:18 | 00:00:00 | |
| DO3MHA-11 | 2026-09-05 11:23:43 | 48.05878 | 12.31061 | 123° | 155km/h | 12336m | 4.6m/s | -58.8°C | 63.7% | 197.3hPa | 2.7V | 00:00:00 | 00:54:15 | 00:00:00 | |
| OE5MMP-10 | 2026-09-05 11:23:42 | 48.05899 | 12.31011 | 122° | 155km/h | 12332m | 4.5m/s | -58.8°C | 64.5% | 197.4hPa | 2.7V | 00:00:00 | 00:54:14 | 00:00:00 | |
| DL6DJ-15 | 2026-09-05 11:23:41 | 48.05920 | 12.30961 | 121° | 155km/h | 12327m | 4.7m/s | -58.8°C | 55.2% | 197.6hPa | 2.7V | 00:00:00 | 00:00:00 | 00:00:00 | |
| OE5HKT-10 | 2026-09-05 11:23:40 | 48.05940 | 12.30911 | 122° | 153km/h | 12322m | 5.0m/s | 0°C | 0% | 0hPa | 2.7V | 00:00:00 | 00:00:00 | 00:00:00 | |
| OE5DRO-10 | 2026-09-05 11:23:39 | 48.05961 | 12.30861 | 122° | 155km/h | 12318m | 4.1m/s | -58.7°C | 64.5% | 197.9hPa | 2.7V | 00:00:00 | 00:00:00 | 00:00:00 | |
| DG1MFX-10 | 2026-09-05 11:23:34 | 48.06038 | 12.30656 | 119° | 153km/h | 12300m | 6.6m/s | -58.6°C | 55.6% | 198.4hPa | 2.7V | 00:00:00 | 00:00:00 | 00:00:00 | |
| DO3MHA-11 | 2026-09-05 11:23:33 | 48.06076 | 12.30555 | 120° | 155km/h | 12290m | 4.5m/s | -58.5°C | 63.8% | 198.7hPa | 2.7V | 00:00:00 | 00:54:05 | 00:00:00 | |
| OE5MMP-10 | 2026-09-05 11:23:32 | 48.06095 | 12.30506 | 120° | 155km/h | 12285m | 5.7m/s | -58.5°C | 63.5% | 198.9hPa | 2.7V | 00:00:00 | 00:54:04 | 00:00:00 | |
| DB0UT-7 | 2026-09-05 11:23:30 | 48.06134 | 12.30405 | 121° | 148km/h | 12276m | 5.4m/s | -58.4°C | 62.9% | 199.1hPa | 2.7V | 00:00:00 | 00:00:00 | 00:00:00 | |
| DO3MHA-11 | 2026-09-05 11:23:23 | 48.06273 | 12.30053 | 120° | 153km/h | 12243m | 3.1m/s | -58.2°C | 64.9% | 200.2hPa | 2.7V | 00:00:00 | 00:53:55 | 00:00:00 | |
| OE5MMP-10 | 2026-09-05 11:23:22 | 48.06292 | 12.30003 | 120° | 153km/h | 12238m | 5.2m/s | -58.2°C | 65.5% | 200.3hPa | 2.7V | 00:00:00 | 00:53:54 | 00:00:00 | |
| OE5DXL-15 | 2026-09-05 11:23:20 | 48.06330 | 12.29903 | 121° | 151km/h | 12229m | 5.0m/s | -58.2°C | 65.8% | 200.6hPa | 2.7V | 00:00:00 | 00:00:00 | 00:00:00 | |
| OE5HKT-10 | 2026-09-05 11:23:19 | 48.06350 | 12.29853 | 120° | 153km/h | 12225m | 4.9m/s | 0°C | 0% | 0hPa | 2.7V | 00:00:00 | 00:53:51 | 00:00:00 | |
| PG1ADW-2 | 2026-09-05 11:23:18 | 48.06369 | 12.29804 | 120° | 153km/h | 12220m | 3.6m/s | -58.2°C | 66.9% | 200.9hPa | 2.7V | 00:00:00 | 00:53:50 | 00:00:00 | |
| DG1MFX-10 | 2026-09-05 11:23:13 | 48.06447 | 12.29605 | 122° | 155km/h | 12201m | 4.0m/s | -58.2°C | 58.5% | 201.6hPa | 2.7V | 00:00:00 | 00:00:00 | 00:00:00 | |
| OE5MMP-10 | 2026-09-05 11:23:12 | 48.06488 | 12.29504 | 122° | 155km/h | 12193m | 5.0m/s | -58.2°C | 67.1% | 201.8hPa | 2.7V | 00:00:00 | 00:53:44 | 00:00:00 | |
| DL6DJ-15 | 2026-09-05 11:23:10 | 48.06528 | 12.29404 | 120° | 155km/h | 12184m | 5.1m/s | -58.2°C | 57.0% | 202.2hPa | 2.7V | 00:00:00 | 00:00:00 | 00:00:00 | |
| S52SK | 2026-09-05 11:23:07 | 48.06567 | 12.29302 | 120° | 155km/h | 12176m | 4.0m/s | 0°C | 0% | 0hPa | 2.7V | 00:00:00 | 00:00:00 | 00:00:00 | |
| OE5WHR-10 | 2026-09-05 11:23:04 | 48.06647 | 12.29104 | 123° | 150km/h | 12158m | 5.0m/s | -57.9°C | 64.9% | 202.9hPa | 2.7V | 00:00:00 | 00:00:00 | 00:00:00 | |
| DO3MHA-11 | 2026-09-05 11:23:03 | 48.06668 | 12.29054 | 122° | 150km/h | 12152m | 6.3m/s | -57.8°C | 65.8% | 203.1hPa | 2.7V | 00:00:00 | 00:53:35 | 00:00:00 | |
| OE5MMP-10 | 2026-09-05 11:23:02 | 48.06689 | 12.29004 | 122° | 148km/h | 12147m | 3.2m/s | -57.7°C | 66.8% | 203.3hPa | 2.7V | 00:00:00 | 00:53:34 | 00:00:00 | |
| OE5DRO-10 | 2026-09-05 11:23:01 | 48.06709 | 12.28955 | 122° | 148km/h | 12143m | 5.9m/s | -57.7°C | 67.6% | 203.4hPa | 2.7V | 00:00:00 | 00:00:00 | 00:00:00 | |
| OE5HKT-10 | 2026-09-05 11:22:58 | 48.06769 | 12.28814 | 123° | 148km/h | 12129m | 5.4m/s | 0°C | 0% | 0hPa | 2.7V | 00:00:00 | 00:00:00 | 00:00:00 | |
| BAUMI2-15 | 2026-09-05 11:22:57 | 48.06788 | 12.28767 | 123° | 148km/h | 12124m | 4.0m/s | -57.5°C | 69.4% | 204.0hPa | 2.7V | 00:00:00 | 00:53:29 | 08:30:00 | |
| S52SK | 2026-09-05 11:22:55 | 48.06808 | 12.28720 | 123° | 148km/h | 12119m | 4.6m/s | 0°C | 0% | 0hPa | 2.7V | 00:00:00 | 00:00:00 | 00:00:00 | |
| DO3MHA-11 | 2026-09-05 11:22:53 | 48.06870 | 12.28580 | 124° | 148km/h | 12105m | 4.0m/s | -57.4°C | 67.6% | 204.6hPa | 2.7V | 00:00:00 | 00:53:25 | 00:00:00 | |
| OE5MMP-10 | 2026-09-05 11:22:52 | 48.06891 | 12.28533 | 123° | 148km/h | 12100m | 5.5m/s | -57.4°C | 66.4% | 204.8hPa | 2.7V | 00:00:00 | 00:53:24 | 00:00:00 | |
| OE5DXL-15 | 2026-09-05 11:22:50 | 48.06930 | 12.28436 | 121° | 144km/h | 12091m | 3.6m/s | -57.3°C | 64.6% | 205.1hPa | 2.7V | 00:00:00 | 00:00:00 | 00:00:00 | |
| S52SK | 2026-09-05 11:22:49 | 48.06930 | 12.28436 | 121° | 150km/h | 12091m | 3.6m/s | 0°C | 0% | 0hPa | 2.7V | 00:00:00 | 00:00:00 | 00:00:00 | |
| BAUMI2-15 | 2026-09-05 11:22:47 | 48.06986 | 12.28291 | 121° | 146km/h | 12076m | 2.8m/s | -57.2°C | 64.0% | 205.5hPa | 2.7V | 00:00:00 | 00:53:19 | 00:00:00 | |
| DO3MHA-11 | 2026-09-05 11:22:43 | 48.07062 | 12.28101 | 123° | 142km/h | 12059m | 4.9m/s | -57.1°C | 65.6% | 206.1hPa | 2.7V | 00:00:00 | 00:53:15 | 00:00:00 | |
| OE5MMP-10 | 2026-09-05 11:22:42 | 48.07082 | 12.28056 | 123° | 142km/h | 12055m | 3.4m/s | -57.0°C | 65.9% | 206.3hPa | 2.7V | 00:00:00 | 00:53:14 | 00:00:00 | |
| DL6DJ-15 | 2026-09-05 11:22:39 | 48.07158 | 12.27875 | 121° | 139km/h | 12037m | 5.3m/s | -56.9°C | 57.5% | 206.9hPa | 2.7V | 00:00:00 | 00:00:00 | 00:00:00 | |
| PG1ADW-2 | 2026-09-05 11:22:38 | 48.07158 | 12.27875 | 122° | 144km/h | 12037m | 5.3m/s | -56.8°C | 66.3% | 206.8hPa | 2.7V | 00:00:00 | 00:00:00 | 00:00:00 | |
| BAUMI2-15 | 2026-09-05 11:22:37 | 48.07176 | 12.27830 | 122° | 142km/h | 12032m | 3.7m/s | -56.8°C | 66.8% | 207.0hPa | 2.7V | 00:00:00 | 00:53:09 | 00:00:00 | |
| DO3MHA-11 | 2026-09-05 11:22:33 | 48.07252 | 12.27648 | 123° | 142km/h | 12015m | 4.8m/s | -56.7°C | 65.7% | 207.6hPa | 2.7V | 00:00:00 | 00:53:05 | 00:00:00 | |
| OE5MMP-10 | 2026-09-05 11:22:32 | 48.07272 | 12.27602 | 124° | 142km/h | 12011m | 3.8m/s | -56.7°C | 65.3% | 207.7hPa | 2.7V | 00:00:00 | 00:53:04 | 00:00:00 | |
| BAUMI2-15 | 2026-09-05 11:22:27 | 48.07369 | 12.27381 | 125° | 144km/h | 11987m | 3.7m/s | -56.5°C | 65.7% | 208.5hPa | 2.7V | 00:00:00 | 00:52:59 | 00:00:00 | |
| DO3MHA-11 | 2026-09-05 11:22:23 | 48.07449 | 12.27199 | 123° | 150km/h | 11969m | 6.9m/s | -56.4°C | 65.0% | 209.1hPa | 2.7V | 00:00:00 | 00:52:55 | 00:00:00 | |
| OE5FHM-15 | 2026-09-05 11:22:22 | 48.07469 | 12.27152 | 123° | 148km/h | 11963m | 4.6m/s | -56.2°C | 65.0% | 209.3hPa | 2.7V | 00:00:00 | 00:52:54 | 00:00:00 | |
| PG1ADW-2 | 2026-09-05 11:22:18 | 48.07554 | 12.26955 | 123° | 146km/h | 11944m | 5.5m/s | -56.0°C | 66.2% | 209.9hPa | 2.7V | 00:00:00 | 00:00:00 | 08:30:00 | |
| BAUMI2-15 | 2026-09-05 11:22:17 | 48.07575 | 12.26907 | 123° | 146km/h | 11939m | 3.1m/s | -55.9°C | 66.2% | 210.1hPa | 2.7V | 00:00:00 | 00:52:49 | 00:00:00 | |
| DO3MHA-11 | 2026-09-05 11:22:13 | 48.07656 | 12.26725 | 126° | 146km/h | 11921m | 5.1m/s | -55.9°C | 64.4% | 210.7hPa | 2.7V | 00:00:00 | 00:52:45 | 00:00:00 | |
| OE5MMP-10 | 2026-09-05 11:22:12 | 48.07677 | 12.26680 | 126° | 146km/h | 11917m | 3.3m/s | -55.9°C | 64.0% | 210.9hPa | 2.7V | 00:00:00 | 00:52:44 | 00:00:00 | |
| DL6DJ-15 | 2026-09-05 11:22:08 | 48.07777 | 12.26451 | 122° | 142km/h | 11893m | 5.5m/s | -55.8°C | 56.6% | 211.7hPa | 2.7V | 00:00:00 | 00:00:00 | 00:00:00 | |
| BAUMI2-15 | 2026-09-05 11:22:07 | 48.07777 | 12.26451 | 123° | 148km/h | 11893m | 5.4m/s | -55.8°C | 65.0% | 211.6hPa | 2.7V | 00:00:00 | 00:52:39 | 00:00:00 | |
| DB0UT-7 | 2026-09-05 11:22:04 | 48.07839 | 12.26313 | 125° | 139km/h | 11878m | 5.5m/s | -55.6°C | 66.2% | 212.1hPa | 2.7V | 00:00:00 | 00:52:36 | 00:00:00 | |
| DO3MHA-11 | 2026-09-05 11:22:03 | 48.07860 | 12.26267 | 125° | 144km/h | 11874m | 3.2m/s | -55.6°C | 66.3% | 212.2hPa | 2.7V | 00:00:00 | 00:52:35 | 00:00:00 | |
| OE5MMP-10 | 2026-09-05 11:22:02 | 48.07882 | 12.26221 | 126° | 144km/h | 11869m | 5.9m/s | -55.6°C | 66.1% | 212.4hPa | 2.7V | 00:00:00 | 00:52:34 | 00:00:00 | |
| OE5WHR-10 | 2026-09-05 11:22:01 | 48.07903 | 12.26176 | 126° | 144km/h | 11864m | 4.1m/s | -55.6°C | 66.3% | 212.6hPa | 2.7V | 00:00:00 | 00:00:00 | 00:00:00 | |
| PG1ADW-2 | 2026-09-05 11:21:58 | 48.07968 | 12.26042 | 126° | 144km/h | 11850m | 3.6m/s | -55.6°C | 65.9% | 213.1hPa | 2.7V | 00:00:00 | 00:52:30 | 00:00:00 | |
| BAUMI2-15 | 2026-09-05 11:21:57 | 48.07988 | 12.25997 | 125° | 142km/h | 11845m | 6.3m/s | -55.6°C | 65.4% | 0hPa | 2.7V | 00:00:00 | 00:52:29 | 00:00:00 | |
| DO3MHA-11 | 2026-09-05 11:21:53 | 48.08069 | 12.25819 | 125° | 146km/h | 11824m | 3.9m/s | -55.5°C | 63.6% | 213.9hPa | 2.7V | 00:00:00 | 00:52:25 | 00:00:00 | |
| OE5MMP-10 | 2026-09-05 11:21:52 | 48.08090 | 12.25775 | 124° | 146km/h | 11819m | 6.1m/s | -55.5°C | 63.3% | 214.1hPa | 2.7V | 00:00:00 | 00:52:24 | 00:00:00 | |
| DG1MFX-10 | 2026-09-05 11:21:51 | 48.08089 | 12.25775 | 125° | 142km/h | 11819m | 6.1m/s | -55.5°C | 55.2% | 214.2hPa | 2.7V | 00:00:00 | 00:00:00 | 00:00:00 | |
| OE5DXL-15 | 2026-09-05 11:21:50 | 48.08130 | 12.25684 | 125° | 148km/h | 11809m | 4.7m/s | -55.4°C | 64.2% | 214.4hPa | 2.7V | 00:00:00 | 00:00:00 | 00:00:00 | |
| BAUMI2-15 | 2026-09-05 11:21:47 | 48.08195 | 12.25549 | 127° | 146km/h | 11795m | 5.1m/s | 0°C | 0% | 0hPa | 2.7V | 00:00:00 | 00:52:19 | 00:00:00 | |
| OE5DRO-10 | 2026-09-05 11:21:45 | 48.08238 | 12.25460 | 127° | 148km/h | 11786m | 5.5m/s | -55.1°C | 64.1% | 215.2hPa | 2.7V | 00:00:00 | 00:00:00 | 00:00:00 | |
| DO3MHA-11 | 2026-09-05 11:21:43 | 48.08282 | 12.25373 | 127° | 146km/h | 11777m | 4.4m/s | -55.1°C | 65.6% | 215.5hPa | 2.7V | 00:00:00 | 00:52:15 | 08:30:00 | |
| OE5MMP-10 | 2026-09-05 11:21:42 | 48.08305 | 12.25329 | 127° | 148km/h | 11772m | 5.3m/s | -55.0°C | 66.0% | 215.7hPa | 2.7V | 00:00:00 | 00:52:14 | 00:00:00 | |
| OE5WHR-10 | 2026-09-05 11:21:40 | 48.08347 | 12.25239 | 125° | 148km/h | 11763m | 5.3m/s | -54.9°C | 65.8% | 216.0hPa | 2.7V | 00:00:00 | 00:52:12 | 00:00:00 | |
| PG1ADW-2 | 2026-09-05 11:21:38 | 48.08390 | 12.25149 | 125° | 148km/h | 11753m | 5.2m/s | -54.8°C | 65.0% | 216.3hPa | 2.7V | 00:00:00 | 00:00:00 | 00:00:00 | |
| DL6DJ-15 | 2026-09-05 11:21:37 | 48.08433 | 12.25057 | 125° | 148km/h | 11745m | 3.3m/s | -54.9°C | 56.6% | 216.7hPa | 2.7V | 00:00:00 | 00:00:00 | 00:00:00 | |
| DO3MHA-11 | 2026-09-05 11:21:33 | 48.08497 | 12.24920 | 125° | 148km/h | 11731m | 5.0m/s | -54.7°C | 63.6% | 217.1hPa | 2.7V | 00:00:00 | 00:52:05 | 00:00:00 | |
| BAUMI2-15 | 2026-09-05 11:21:32 | 48.08519 | 12.24874 | 125° | 148km/h | 11726m | 4.7m/s | 0°C | 0% | 0hPa | 2.7V | 00:00:00 | 00:52:04 | 00:00:00 | |
| DG1MFX-10 | 2026-09-05 11:21:31 | 48.08519 | 12.24874 | 126° | 150km/h | 11726m | 4.7m/s | -54.7°C | 55.4% | 217.3hPa | 2.7V | 00:00:00 | 00:00:00 | 00:00:00 | |
| BAUMI2-15 | 2026-09-05 11:21:27 | 48.08626 | 12.24644 | 126° | 148km/h | 11704m | 4.4m/s | 0°C | 0% | 0hPa | 2.7V | 00:00:00 | 00:51:59 | 08:30:00 | |
| OE5DRO-10 | 2026-09-05 11:21:26 | 48.08648 | 12.24597 | 126° | 146km/h | 11700m | 4.0m/s | -54.4°C | 63.1% | 218.2hPa | 2.7V | 00:00:00 | 00:00:00 | 00:00:00 | |
| DO3MHA-11 | 2026-09-05 11:21:23 | 48.08713 | 12.24462 | 127° | 148km/h | 11687m | 4.5m/s | -54.3°C | 62.4% | 218.6hPa | 2.7V | 00:00:00 | 00:51:55 | 00:00:00 | |
| OE5MMP-10 | 2026-09-05 11:21:22 | 48.08735 | 12.24418 | 126° | 148km/h | 11683m | 4.8m/s | -54.3°C | 62.4% | 218.8hPa | 2.7V | 00:00:00 | 00:51:54 | 00:00:00 | |
| OE5DXL-15 | 2026-09-05 11:21:20 | 48.08778 | 12.24327 | 126° | 146km/h | 11674m | 4.5m/s | -54.2°C | 61.9% | 219.1hPa | 2.7V | 00:00:00 | 00:00:00 | 00:00:00 | |
| OE5WHR-10 | 2026-09-05 11:21:19 | 48.08799 | 12.24281 | 125° | 146km/h | 11670m | 4.6m/s | -54.2°C | 61.7% | 219.2hPa | 2.7V | 00:00:00 | 00:00:00 | 08:30:00 | |
| PG1ADW-2 | 2026-09-05 11:21:18 | 48.08820 | 12.24235 | 125° | 146km/h | 11665m | 4.5m/s | -54.2°C | 62.3% | 219.4hPa | 2.7V | 00:00:00 | 00:00:00 | 00:00:00 | |
| BAUMI2-15 | 2026-09-05 11:21:17 | 48.08841 | 12.24188 | 125° | 148km/h | 11660m | 4.9m/s | 0°C | 0% | 0hPa | 2.7V | 00:00:00 | 00:51:49 | 00:00:00 | |
| DO3MHA-11 | 2026-09-05 11:21:13 | 48.08929 | 12.24005 | 128° | 142km/h | 11643m | 5.1m/s | -54.0°C | 62.5% | 220.1hPa | 2.7V | 00:00:00 | 00:51:45 | 00:00:00 | |
| BAUMI2-15 | 2026-09-05 11:21:12 | 48.08951 | 12.23961 | 128° | 142km/h | 11638m | 4.4m/s | 0°C | 0% | 0hPa | 2.7V | 00:00:00 | 00:51:44 | 00:00:00 | |
| DG1MFX-10 | 2026-09-05 11:21:11 | 48.08951 | 12.23961 | 128° | 148km/h | 11638m | 4.5m/s | -53.9°C | 55.2% | 220.4hPa | 2.7V | 00:00:00 | 00:00:00 | 00:00:00 | |
| BAUMI2-15 | 2026-09-05 11:21:07 | 48.09060 | 12.23746 | 127° | 144km/h | 11615m | 5.4m/s | 0°C | 0% | 0hPa | 2.7V | 00:00:00 | 00:51:39 | 00:00:00 | |
| DL6DJ-15 | 2026-09-05 11:21:06 | 48.09102 | 12.23659 | 125° | 142km/h | 11607m | 2.8m/s | -53.6°C | 56.7% | 221.4hPa | 2.7V | 00:00:00 | 00:00:00 | 00:00:00 | |
| DO3MHA-11 | 2026-09-05 11:21:03 | 48.09143 | 12.23571 | 125° | 150km/h | 11597m | 5.3m/s | -53.6°C | 64.0% | 221.7hPa | 2.7V | 00:00:00 | 00:51:35 | 00:00:00 | |
| OE5MMP-10 | 2026-09-05 11:21:02 | 48.09164 | 12.23527 | 126° | 150km/h | 11593m | 2.9m/s | -53.5°C | 63.7% | 221.9hPa | 2.7V | 00:00:00 | 00:51:34 | 00:00:00 | |
| BAUMI2-15 | 2026-09-05 11:21:00 | 48.09208 | 12.23436 | 127° | 151km/h | 11582m | 4.3m/s | 0°C | 0% | 0hPa | 2.7V | 00:00:00 | 00:51:32 | 00:00:00 | |
| OE5WHR-10 | 2026-09-05 11:20:58 | 48.09255 | 12.23347 | 129° | 148km/h | 11571m | 5.4m/s | -53.4°C | 62.9% | 222.6hPa | 2.7V | 00:00:00 | 00:00:00 | 00:00:00 | |
| DO3MHA-11 | 2026-09-05 11:20:53 | 48.09373 | 12.23123 | 127° | 144km/h | 11547m | 4.2m/s | -53.3°C | 63.5% | 223.4hPa | 2.7V | 00:00:00 | 00:51:25 | 00:00:00 | |
| OE5MMP-10 | 2026-09-05 11:20:52 | 48.09395 | 12.23079 | 127° | 144km/h | 11542m | 6.6m/s | -53.2°C | 63.4% | 223.6hPa | 2.7V | 00:00:00 | 00:51:24 | 08:30:00 | |
| OE5DXL-15 | 2026-09-05 11:20:50 | 48.09436 | 12.22992 | 126° | 146km/h | 11532m | 5.6m/s | -53.1°C | 63.1% | 223.9hPa | 2.7V | 00:00:00 | 00:00:00 | 00:00:00 | |
| OE5DRO-10 | 2026-09-05 11:20:48 | 48.09478 | 12.22904 | 126° | 146km/h | 11522m | 4.8m/s | -53.1°C | 62.7% | 224.3hPa | 2.7V | 00:00:00 | 00:00:00 | 00:00:00 | |
| DO3MHA-11 | 2026-09-05 11:20:43 | 48.09584 | 12.22677 | 126° | 146km/h | 11499m | 3.5m/s | -52.8°C | 62.4% | 225.1hPa | 2.7V | 00:00:00 | 00:51:15 | 00:00:00 | |
| OE5MMP-10 | 2026-09-05 11:20:42 | 48.09606 | 12.22632 | 126° | 146km/h | 11496m | 4.6m/s | -52.8°C | 62.0% | 225.3hPa | 2.7V | 00:00:00 | 00:51:14 | 00:00:00 | |
| DH7VM-15 | 2026-09-05 11:20:38 | 48.09716 | 12.22408 | 128° | 144km/h | 11471m | 6.2m/s | -52.7°C | 0% | 0hPa | 2.7V | 00:00:00 | 00:00:00 | 00:00:00 | |
| OE5WHR-10 | 2026-09-05 11:20:37 | 48.09716 | 12.22408 | 127° | 148km/h | 11471m | 6.1m/s | -52.7°C | 63.3% | 226.1hPa | 2.7V | 00:00:00 | 00:51:09 | 00:00:00 | |
| DL6DJ-15 | 2026-09-05 11:20:35 | 48.09780 | 12.22276 | 125° | 144km/h | 11455m | 4.2m/s | -52.6°C | 57.5% | 226.7hPa | 2.7V | 00:00:00 | 00:00:00 | 00:00:00 | |
| DO3MHA-11 | 2026-09-05 11:20:33 | 48.09801 | 12.22231 | 125° | 146km/h | 11452m | 3.6m/s | -52.5°C | 64.8% | 226.8hPa | 2.7V | 00:00:00 | 00:51:05 | 00:00:00 | |
| OE5MMP-10 | 2026-09-05 11:20:32 | 48.09823 | 12.22186 | 126° | 146km/h | 11447m | 5.2m/s | -52.5°C | 64.5% | 227.0hPa | 2.7V | 00:00:00 | 00:51:04 | 00:00:00 | |
| DG1MFX-10 | 2026-09-05 11:20:30 | 48.09867 | 12.22096 | 129° | 150km/h | 11438m | 5.4m/s | -52.5°C | 56.0% | 227.3hPa | 2.7V | 00:00:00 | 00:00:00 | 00:00:00 | |
| OE5DRO-10 | 2026-09-05 11:20:29 | 48.09891 | 12.22052 | 130° | 146km/h | 11432m | 5.8m/s | -52.4°C | 63.9% | 227.4hPa | 2.7V | 00:00:00 | 00:00:00 | 00:00:00 | |
| DO3MHA-11 | 2026-09-05 11:20:23 | 48.10022 | 12.21792 | 118° | 150km/h | 11401m | 5.7m/s | -52.3°C | 64.3% | 228.5hPa | 2.7V | 00:00:00 | 00:50:55 | 00:00:00 | |
| OE5MMP-10 | 2026-09-05 11:20:22 | 48.10038 | 12.21745 | 118° | 150km/h | 11396m | 5.2m/s | -52.3°C | 63.8% | 228.7hPa | 2.7V | 00:00:00 | 00:50:54 | 00:00:00 | |
| OE5DXL-15 | 2026-09-05 11:20:20 | 48.10074 | 12.21647 | 121° | 142km/h | 11384m | 4.9m/s | -52.1°C | 62.7% | 229.1hPa | 2.7V | 00:00:00 | 00:00:00 | 00:00:00 | |
| PG1ADW-2 | 2026-09-05 11:20:18 | 48.10116 | 12.21548 | 125° | 144km/h | 11373m | 6.6m/s | -52.1°C | 60.6% | 229.4hPa | 2.7V | 00:00:00 | 00:00:00 | 00:00:00 | |
| OE5WHR-10 | 2026-09-05 11:20:16 | 48.10161 | 12.21453 | 127° | 141km/h | 11358m | 6.7m/s | -52.0°C | 61.4% | 230.0hPa | 2.7V | 00:00:00 | 00:00:00 | 00:00:00 | |
| DO3MHA-11 | 2026-09-05 11:20:13 | 48.10227 | 12.21317 | 124° | 142km/h | 11342m | 4.1m/s | -51.8°C | 62.9% | 230.7hPa | 2.7V | 00:00:00 | 00:50:45 | 08:30:00 | |
| OE5MMP-10 | 2026-09-05 11:20:12 | 48.10246 | 12.21271 | 122° | 141km/h | 11336m | 7.1m/s | -51.8°C | 62.6% | 230.9hPa | 2.7V | 00:00:00 | 00:50:44 | 00:00:00 | |
| OE5DRO-10 | 2026-09-05 11:20:10 | 48.10282 | 12.21178 | 119° | 139km/h | 11325m | 7.4m/s | -51.7°C | 62.1% | 231.3hPa | 2.7V | 00:00:00 | 00:00:00 | 00:00:00 | |
| DG1MFX-10 | 2026-09-05 11:20:09 | 48.10282 | 12.21178 | 119° | 141km/h | 11325m | 7.5m/s | -51.8°C | 55.0% | 231.3hPa | 2.7V | 00:00:00 | 00:00:00 | 00:00:00 | |
| DL6DJ-15 | 2026-09-05 11:20:04 | 48.10404 | 12.20854 | 119° | 137km/h | 11282m | 5.9m/s | -51.4°C | 54.3% | 232.8hPa | 2.7V | 00:00:00 | 00:00:00 | 00:00:00 | |
| DO3MHA-11 | 2026-09-05 11:20:03 | 48.10403 | 12.20854 | 120° | 137km/h | 11282m | 5.9m/s | -51.3°C | 61.3% | 232.7hPa | 2.7V | 00:00:00 | 00:50:35 | 00:00:00 | |
| OE5MMP-10 | 2026-09-05 11:20:02 | 48.10421 | 12.20808 | 122° | 137km/h | 11277m | 5.1m/s | -51.3°C | 61.4% | 233.0hPa | 2.7V | 00:00:00 | 00:50:34 | 00:00:00 | |
| PG1ADW-2 | 2026-09-05 11:19:58 | 48.10492 | 12.20628 | 120° | 137km/h | 11255m | 6.5m/s | -51.1°C | 60.7% | 233.8hPa | 2.7V | 00:00:00 | 00:00:00 | 00:00:00 | |
| OE5WHR-10 | 2026-09-05 11:19:55 | 48.10544 | 12.20498 | 122° | 139km/h | 11240m | 3.6m/s | -51.0°C | 60.9% | 234.4hPa | 2.7V | 00:00:00 | 00:00:00 | 00:00:00 | |
| DO3MHA-11 | 2026-09-05 11:19:53 | 48.10578 | 12.20410 | 119° | 139km/h | 11229m | 6.7m/s | -50.9°C | 59.8% | 234.7hPa | 2.7V | 00:00:00 | 00:50:25 | 00:00:00 | |
| OE5MMP-10 | 2026-09-05 11:19:52 | 48.10594 | 12.20364 | 118° | 139km/h | 11224m | 4.2m/s | -50.9°C | 59.0% | 234.9hPa | 2.7V | 00:00:00 | 00:50:24 | 00:00:00 | |
| OE5DRO-10 | 2026-09-05 11:19:51 | 48.10610 | 12.20318 | 118° | 139km/h | 11219m | 5.6m/s | -50.8°C | 59.1% | 235.0hPa | 2.7V | 00:00:00 | 00:00:00 | 00:00:00 | |
| OE5DXL-15 | 2026-09-05 11:19:50 | 48.10627 | 12.20270 | 119° | 137km/h | 11214m | 4.0m/s | -50.7°C | 59.0% | 235.2hPa | 2.7V | 00:00:00 | 00:00:00 | 08:30:00 | |
| DG1MFX-10 | 2026-09-05 11:19:48 | 48.10644 | 12.20223 | 120° | 144km/h | 11211m | 3.0m/s | -50.7°C | 52.3% | 235.4hPa | 2.7V | 00:00:00 | 00:00:00 | 00:00:00 | |
| DO3MHA-11 | 2026-09-05 11:19:43 | 48.10753 | 12.19954 | 123° | 139km/h | 11185m | 3.9m/s | -50.5°C | 60.5% | 236.3hPa | 2.7V | 00:00:00 | 00:50:15 | 00:00:00 | |
| OE5MMP-10 | 2026-09-05 11:19:42 | 48.10771 | 12.19910 | 122° | 139km/h | 11181m | 3.5m/s | -50.4°C | 60.9% | 236.4hPa | 2.7V | 00:00:00 | 00:50:14 | 00:00:00 | |
| PG1ADW-2 | 2026-09-05 11:19:38 | 48.10843 | 12.19730 | 120° | 137km/h | 11163m | 3.9m/s | -50.3°C | 62.1% | 237.1hPa | 2.7V | 00:00:00 | 00:00:00 | 00:00:00 | |
| OE5WHR-10 | 2026-09-05 11:19:34 | 48.10907 | 12.19542 | 117° | 133km/h | 11142m | 5.3m/s | -50.2°C | 60.6% | 237.9hPa | 2.7V | 00:00:00 | 00:50:06 | 00:00:00 | |
| DO3MHA-11 | 2026-09-05 11:19:33 | 48.10923 | 12.19494 | 116° | 135km/h | 11137m | 4.9m/s | -50.2°C | 59.8% | 238.0hPa | 2.7V | 00:00:00 | 00:50:05 | 00:00:00 | |
| OE5MMP-10 | 2026-09-05 11:19:32 | 48.10938 | 12.19446 | 116° | 135km/h | 11130m | 9.2m/s | -50.2°C | 59.8% | 238.3hPa | 2.7V | 00:00:00 | 00:50:04 | 00:00:00 | |
| DG1MFX-10 | 2026-09-05 11:19:28 | 48.10984 | 12.19308 | 120° | 131km/h | 11108m | 4.9m/s | -50.0°C | 53.2% | 239.1hPa | 2.7V | 00:00:00 | 00:00:00 | 00:00:00 | |
| DO3MHA-11 | 2026-09-05 11:19:23 | 48.11083 | 12.19045 | 117° | 131km/h | 11073m | 4.7m/s | -49.6°C | 59.0% | 240.3hPa | 2.7V | 00:00:00 | 00:49:55 | 00:00:00 | |
| OE5MMP-10 | 2026-09-05 11:19:22 | 48.11098 | 12.18999 | 116° | 131km/h | 11069m | 2.7m/s | -49.6°C | 59.2% | 240.5hPa | 2.7V | 00:00:00 | 00:49:54 | 08:30:00 | |
| OE5DXL-15 | 2026-09-05 11:19:20 | 48.11128 | 12.18907 | 116° | 131km/h | 11057m | 6.2m/s | -49.5°C | 59.5% | 241.0hPa | 2.7V | 00:00:00 | 00:00:00 | 00:00:00 | |
| PG1ADW-2 | 2026-09-05 11:19:18 | 48.11158 | 12.18820 | 119° | 131km/h | 11047m | 7.2m/s | -49.4°C | 59.6% | 241.3hPa | 2.7V | 00:00:00 | 00:49:50 | 08:30:00 | |
| DO3MHA-11 | 2026-09-05 11:19:13 | 48.11236 | 12.18607 | 118° | 133km/h | 11021m | 5.5m/s | -49.2°C | 60.8% | 242.2hPa | 2.7V | 00:00:00 | 00:49:45 | 00:00:00 | |
| OE5MMP-10 | 2026-09-05 11:19:12 | 48.11252 | 12.18562 | 118° | 133km/h | 11015m | 5.0m/s | -49.2°C | 60.6% | 242.4hPa | 2.7V | 00:00:00 | 00:49:44 | 00:00:00 | |
| DG1MFX-10 | 2026-09-05 11:19:07 | 48.11313 | 12.18381 | 117° | 131km/h | 10997m | 4.4m/s | -49.1°C | 54.8% | 243.1hPa | 2.7V | 00:00:00 | 00:00:00 | 00:00:00 | |
| DO3MHA-11 | 2026-09-05 11:19:03 | 48.11389 | 12.18158 | 118° | 130km/h | 10970m | 6.2m/s | -48.8°C | 61.0% | 244.1hPa | 2.7V | 00:00:00 | 00:49:35 | 00:00:00 | |
| OE5MMP-10 | 2026-09-05 11:19:02 | 48.11404 | 12.18113 | 117° | 130km/h | 10963m | 6.6m/s | -48.7°C | 61.2% | 244.3hPa | 2.7V | 00:00:00 | 00:49:34 | 00:00:00 | |
| DL6DJ-15 | 2026-09-05 11:19:01 | 48.11419 | 12.18069 | 115° | 131km/h | 10958m | 4.5m/s | -48.7°C | 54.4% | 244.5hPa | 2.7V | 00:00:00 | 00:00:00 | 00:00:00 | |
| PG1ADW-2 | 2026-09-05 11:18:58 | 48.11462 | 12.17936 | 117° | 131km/h | 10942m | 6.5m/s | -48.6°C | 60.7% | 245.0hPa | 2.7V | 00:00:00 | 00:00:00 | 00:00:00 | |
| BAUMI2-15 | 2026-09-05 11:18:57 | 48.11477 | 12.17893 | 118° | 128km/h | 10937m | 3.3m/s | 0°C | 0% | 0hPa | 2.7V | 00:00:00 | 00:49:29 | 00:00:00 | |
| OE5DRO-10 | 2026-09-05 11:18:54 | 48.11521 | 12.17765 | 118° | 133km/h | 10921m | 5.2m/s | -48.4°C | 61.9% | 245.8hPa | 2.7V | 00:00:00 | 00:00:00 | 00:00:00 | |
| Es werden nur die letzten 3500 von 4013 Frames angezeigt. GPX/KML und Diagramme bleiben verfügbar. | |||||||||||||||